<?xml version='1.0' encoding='UTF-8'?><gpx version="1.1" creator="JPX - https://github.com/jenetics/jpx" xmlns="http://www.topografix.com/GPX/1/1"><trk><trkseg><trkpt lat="40.92491983851465" lon="9.522485177362041"><ele>3.0</ele><time>2026-04-30T06:14:26.934Z</time></trkpt><trkpt lat="40.92491170469803" lon="9.522360647752217"><ele>3.0</ele><time>2026-04-30T06:14:41.707Z</time></trkpt><trkpt lat="40.92488092997908" lon="9.522266461980267"><ele>3.0</ele><time>2026-04-30T06:14:44.562Z</time></trkpt><trkpt lat="40.924860886108654" lon="9.522165113078445"><ele>3.0</ele><time>2026-04-30T06:14:47.416Z</time></trkpt><trkpt lat="40.92484713481374" lon="9.522077479976554"><ele>3.0</ele><time>2026-04-30T06:14:49.319Z</time></trkpt><trkpt lat="40.92482954452827" lon="9.521992518513553"><ele>3.0</ele><time>2026-04-30T06:14:51.221Z</time></trkpt><trkpt lat="40.924814707469395" lon="9.521908174427546"><ele>2.8333333333333335</ele><time>2026-04-30T06:14:53.123Z</time></trkpt><trkpt lat="40.92479782634391" lon="9.521817626655173"><ele>2.6666666666666665</ele><time>2026-04-30T06:14:55.024Z</time></trkpt><trkpt lat="40.92478040078191" lon="9.521715432516114"><ele>2.5</ele><time>2026-04-30T06:14:56.99Z</time></trkpt><trkpt lat="40.92476224658751" lon="9.521600775459317"><ele>2.333333333333333</ele><time>2026-04-30T06:14:58.991Z</time></trkpt><trkpt lat="40.924749310696455" lon="9.521495725452935"><ele>2.1666666666666665</ele><time>2026-04-30T06:15:00.992Z</time></trkpt><trkpt lat="40.92473428651868" lon="9.521372487049764"><ele>2.0</ele><time>2026-04-30T06:15:02.993Z</time></trkpt><trkpt lat="40.92471804776306" lon="9.52121233977224"><ele>1.6</ele><time>2026-04-30T06:15:04.994Z</time></trkpt><trkpt lat="40.92470303849614" lon="9.52108416872412"><ele>1.2000000000000002</ele><time>2026-04-30T06:15:06.995Z</time></trkpt><trkpt lat="40.924693131785965" lon="9.52096281383162"><ele>0.8</ele><time>2026-04-30T06:15:08.996Z</time></trkpt><trkpt lat="40.924678189220906" lon="9.520855347654896"><ele>0.4</ele><time>2026-04-30T06:15:10.996Z</time></trkpt><trkpt lat="40.92466524025785" lon="9.520743576313487"><ele>0.0</ele><time>2026-04-30T06:15:12.997Z</time></trkpt><trkpt lat="40.924652125605114" lon="9.520610390160641"><ele>0.0</ele><time>2026-04-30T06:15:14.997Z</time></trkpt><trkpt lat="40.92463413263394" lon="9.520471555445305"><ele>0.0</ele><time>2026-04-30T06:15:16.998Z</time></trkpt><trkpt lat="40.924617638133796" lon="9.520324739673795"><ele>0.0</ele><time>2026-04-30T06:15:18.998Z</time></trkpt><trkpt lat="40.92461202560967" lon="9.520181675057872"><ele>0.0</ele><time>2026-04-30T06:15:20.999Z</time></trkpt><trkpt lat="40.92462016786718" lon="9.520084910989988"><ele>0.0</ele><time>2026-04-30T06:15:22.999Z</time></trkpt><trkpt lat="40.92458595900059" lon="9.519980065884937"><ele>0.0</ele><time>2026-04-30T07:11:45.881Z</time></trkpt><trkpt lat="40.92456321787691" lon="9.519871993688428"><ele>0.0</ele><time>2026-04-30T07:11:47.881Z</time></trkpt><trkpt lat="40.92455779491604" lon="9.519753802747644"><ele>0.0</ele><time>2026-04-30T07:11:49.881Z</time></trkpt><trkpt lat="40.924548975499484" lon="9.519652810258256"><ele>0.0</ele><time>2026-04-30T07:11:51.881Z</time></trkpt><trkpt lat="40.9245356648792" lon="9.5195444756482"><ele>0.0</ele><time>2026-04-30T07:11:53.88Z</time></trkpt><trkpt lat="40.9245245384946" lon="9.519435977178821"><ele>0.0</ele><time>2026-04-30T07:11:55.88Z</time></trkpt><trkpt lat="40.92451871658885" lon="9.519305506598418"><ele>0.0</ele><time>2026-04-30T07:11:57.88Z</time></trkpt><trkpt lat="40.92450393922042" lon="9.519165714737065"><ele>0.0</ele><time>2026-04-30T07:11:59.88Z</time></trkpt><trkpt lat="40.9244919616217" lon="9.519016152932203"><ele>0.0</ele><time>2026-04-30T07:12:01.88Z</time></trkpt><trkpt lat="40.924476144114806" lon="9.518846614063932"><ele>0.0</ele><time>2026-04-30T07:12:03.88Z</time></trkpt><trkpt lat="40.92446657122456" lon="9.518754137018295"><ele>0.0</ele><time>2026-04-30T07:12:04.88Z</time></trkpt><trkpt lat="40.924458640050005" lon="9.518655815177057"><ele>0.0</ele><time>2026-04-30T07:12:05.88Z</time></trkpt><trkpt lat="40.92444907207942" lon="9.518557363568203"><ele>0.0</ele><time>2026-04-30T07:12:06.88Z</time></trkpt><trkpt lat="40.924437097342434" lon="9.518459356568728"><ele>0.0</ele><time>2026-04-30T07:12:07.88Z</time></trkpt><trkpt lat="40.924424392858924" lon="9.518361322266847"><ele>0.0</ele><time>2026-04-30T07:12:08.88Z</time></trkpt><trkpt lat="40.92441560759218" lon="9.518262242481615"><ele>0.0</ele><time>2026-04-30T07:12:09.88Z</time></trkpt><trkpt lat="40.924405996645405" lon="9.518166103430255"><ele>0.0</ele><time>2026-04-30T07:12:10.88Z</time></trkpt><trkpt lat="40.92439566268938" lon="9.518066928510255"><ele>0.0</ele><time>2026-04-30T07:12:11.88Z</time></trkpt><trkpt lat="40.92438431306453" lon="9.517971183060352"><ele>0.0</ele><time>2026-04-30T07:12:12.88Z</time></trkpt><trkpt lat="40.92436916770121" lon="9.517875890120342"><ele>0.0</ele><time>2026-04-30T07:12:13.88Z</time></trkpt><trkpt lat="40.92435469495646" lon="9.5177735430706"><ele>0.0</ele><time>2026-04-30T07:12:14.88Z</time></trkpt><trkpt lat="40.92434688979562" lon="9.51767117068991"><ele>0.0</ele><time>2026-04-30T07:12:15.879Z</time></trkpt><trkpt lat="40.92434097869274" lon="9.51757005206159"><ele>0.0</ele><time>2026-04-30T07:12:16.879Z</time></trkpt><trkpt lat="40.92433420626956" lon="9.517472551262244"><ele>0.0</ele><time>2026-04-30T07:12:17.879Z</time></trkpt><trkpt lat="40.92432714106849" lon="9.517381277756312"><ele>0.0</ele><time>2026-04-30T07:12:18.879Z</time></trkpt><trkpt lat="40.924319825055605" lon="9.517283129824508"><ele>0.0</ele><time>2026-04-30T07:12:19.879Z</time></trkpt><trkpt lat="40.92431313739528" lon="9.517182092622516"><ele>0.0</ele><time>2026-04-30T07:12:20.879Z</time></trkpt><trkpt lat="40.924305129574634" lon="9.517078854443966"><ele>0.0</ele><time>2026-04-30T07:12:21.879Z</time></trkpt><trkpt lat="40.92429428710085" lon="9.516975322123669"><ele>0.0</ele><time>2026-04-30T07:12:22.879Z</time></trkpt><trkpt lat="40.92428432834996" lon="9.516871709794453"><ele>0.0</ele><time>2026-04-30T07:12:23.879Z</time></trkpt><trkpt lat="40.92427461294335" lon="9.516764511947338"><ele>0.0</ele><time>2026-04-30T07:12:24.879Z</time></trkpt><trkpt lat="40.92426379933076" lon="9.51665579445124"><ele>0.0</ele><time>2026-04-30T07:12:25.879Z</time></trkpt><trkpt lat="40.92425210366886" lon="9.51654606817401"><ele>0.0</ele><time>2026-04-30T07:12:26.879Z</time></trkpt><trkpt lat="40.924242491806105" lon="9.516438758438165"><ele>0.0</ele><time>2026-04-30T07:12:27.879Z</time></trkpt><trkpt lat="40.92423242604756" lon="9.516332781569629"><ele>0.0</ele><time>2026-04-30T07:12:28.879Z</time></trkpt><trkpt lat="40.92422674557864" lon="9.51622758165311"><ele>0.0</ele><time>2026-04-30T07:12:29.879Z</time></trkpt><trkpt lat="40.924218082729936" lon="9.516119799816959"><ele>0.16666666666666666</ele><time>2026-04-30T07:12:30.879Z</time></trkpt><trkpt lat="40.92420721423342" lon="9.516017058336828"><ele>0.3333333333333333</ele><time>2026-04-30T07:12:31.879Z</time></trkpt><trkpt lat="40.92419845528269" lon="9.515910780102026"><ele>0.5</ele><time>2026-04-30T07:12:32.879Z</time></trkpt><trkpt lat="40.92419455705888" lon="9.515806935172849"><ele>0.6666666666666666</ele><time>2026-04-30T07:12:33.879Z</time></trkpt><trkpt lat="40.924185312258416" lon="9.515698841057553"><ele>0.8333333333333333</ele><time>2026-04-30T07:12:34.879Z</time></trkpt><trkpt lat="40.924177705745485" lon="9.515590385180026"><ele>1.0</ele><time>2026-04-30T07:12:35.879Z</time></trkpt><trkpt lat="40.9241709581409" lon="9.51548504517979"><ele>0.9999999999999999</ele><time>2026-04-30T07:12:36.879Z</time></trkpt><trkpt lat="40.92416519235048" lon="9.51538704423328"><ele>1.0</ele><time>2026-04-30T07:12:37.879Z</time></trkpt><trkpt lat="40.924161785532995" lon="9.515297946110106"><ele>1.0</ele><time>2026-04-30T07:12:38.879Z</time></trkpt><trkpt lat="40.92416767796231" lon="9.515148483754691"><ele>1.0</ele><time>2026-04-30T07:12:40.878Z</time></trkpt><trkpt lat="40.924173551869046" lon="9.515006000904684"><ele>0.9999999999999999</ele><time>2026-04-30T07:12:42.878Z</time></trkpt><trkpt lat="40.92417628950841" lon="9.514915369191716"><ele>1.0</ele><time>2026-04-30T07:12:43.878Z</time></trkpt><trkpt lat="40.924173983697095" lon="9.514810565902513"><ele>1.0</ele><time>2026-04-30T07:12:44.878Z</time></trkpt><trkpt lat="40.924170911113876" lon="9.51469070779003"><ele>1.0</ele><time>2026-04-30T07:12:45.878Z</time></trkpt><trkpt lat="40.9241690107134" lon="9.51455886671598"><ele>1.0</ele><time>2026-04-30T07:12:46.878Z</time></trkpt><trkpt lat="40.924173245083914" lon="9.514414141951958"><ele>1.0</ele><time>2026-04-30T07:12:47.878Z</time></trkpt><trkpt lat="40.924187905775625" lon="9.514274209543723"><ele>1.0</ele><time>2026-04-30T07:12:48.878Z</time></trkpt><trkpt lat="40.92421043111062" lon="9.514136880504122"><ele>0.8</ele><time>2026-04-30T07:12:49.878Z</time></trkpt><trkpt lat="40.92423408982372" lon="9.513994130230198"><ele>0.6000000000000001</ele><time>2026-04-30T07:12:50.878Z</time></trkpt><trkpt lat="40.924253205538" lon="9.513850167205375"><ele>0.4</ele><time>2026-04-30T07:12:51.878Z</time></trkpt><trkpt lat="40.92427419055439" lon="9.513706199452763"><ele>0.2</ele><time>2026-04-30T07:12:52.878Z</time></trkpt><trkpt lat="40.924298672121594" lon="9.513563682233062"><ele>0.0</ele><time>2026-04-30T07:12:53.878Z</time></trkpt><trkpt lat="40.92432056669825" lon="9.51341729344495"><ele>0.0</ele><time>2026-04-30T07:12:54.878Z</time></trkpt><trkpt lat="40.92434092364966" lon="9.513271706064803"><ele>0.0</ele><time>2026-04-30T07:12:55.878Z</time></trkpt><trkpt lat="40.924362081880055" lon="9.513119449438186"><ele>0.0</ele><time>2026-04-30T07:12:56.878Z</time></trkpt><trkpt lat="40.924383179608526" lon="9.512971067087433"><ele>0.0</ele><time>2026-04-30T07:12:57.878Z</time></trkpt><trkpt lat="40.92440705216971" lon="9.512822715116174"><ele>0.0</ele><time>2026-04-30T07:12:58.878Z</time></trkpt><trkpt lat="40.92443096799496" lon="9.512678594435517"><ele>0.0</ele><time>2026-04-30T07:12:59.878Z</time></trkpt><trkpt lat="40.924452629970475" lon="9.512535953539562"><ele>0.0</ele><time>2026-04-30T07:13:00.878Z</time></trkpt><trkpt lat="40.92447188282553" lon="9.512395595820774"><ele>0.0</ele><time>2026-04-30T07:13:01.878Z</time></trkpt><trkpt lat="40.924494338618764" lon="9.51225426905901"><ele>0.0</ele><time>2026-04-30T07:13:02.877Z</time></trkpt><trkpt lat="40.92451344635576" lon="9.512115095640688"><ele>0.0</ele><time>2026-04-30T07:13:03.877Z</time></trkpt><trkpt lat="40.92453364865156" lon="9.51197319423119"><ele>0.0</ele><time>2026-04-30T07:13:04.877Z</time></trkpt><trkpt lat="40.924554665112076" lon="9.511834618137485"><ele>0.0</ele><time>2026-04-30T07:13:05.877Z</time></trkpt><trkpt lat="40.924579971681005" lon="9.511701914891756"><ele>0.0</ele><time>2026-04-30T07:13:06.877Z</time></trkpt><trkpt lat="40.9246005620254" lon="9.51156601147435"><ele>0.0</ele><time>2026-04-30T07:13:07.877Z</time></trkpt><trkpt lat="40.92462162989682" lon="9.51142649897692"><ele>0.0</ele><time>2026-04-30T07:13:08.877Z</time></trkpt><trkpt lat="40.92464459744958" lon="9.511290050175123"><ele>0.0</ele><time>2026-04-30T07:13:09.877Z</time></trkpt><trkpt lat="40.924665544789825" lon="9.511149701067865"><ele>0.0</ele><time>2026-04-30T07:13:10.877Z</time></trkpt><trkpt lat="40.924685486497204" lon="9.511005902699244"><ele>0.0</ele><time>2026-04-30T07:13:11.877Z</time></trkpt><trkpt lat="40.92470853551455" lon="9.510860403167804"><ele>0.0</ele><time>2026-04-30T07:13:12.877Z</time></trkpt><trkpt lat="40.92473198416052" lon="9.510713270469102"><ele>0.0</ele><time>2026-04-30T07:13:13.877Z</time></trkpt><trkpt lat="40.924754976218324" lon="9.510568356693474"><ele>0.0</ele><time>2026-04-30T07:13:14.877Z</time></trkpt><trkpt lat="40.92477775083737" lon="9.510421290331898"><ele>0.0</ele><time>2026-04-30T07:13:15.877Z</time></trkpt><trkpt lat="40.92480532441379" lon="9.510269616416629"><ele>0.0</ele><time>2026-04-30T07:13:16.877Z</time></trkpt><trkpt lat="40.924839680594914" lon="9.51011716307655"><ele>0.0</ele><time>2026-04-30T07:13:17.877Z</time></trkpt><trkpt lat="40.92488253271367" lon="9.509963803288793"><ele>0.0</ele><time>2026-04-30T07:13:18.877Z</time></trkpt><trkpt lat="40.92493256349728" lon="9.509810310181653"><ele>0.0</ele><time>2026-04-30T07:13:19.878Z</time></trkpt><trkpt lat="40.9249924796546" lon="9.50965723012194"><ele>0.0</ele><time>2026-04-30T07:13:20.877Z</time></trkpt><trkpt lat="40.92506161560723" lon="9.50951115515911"><ele>0.25</ele><time>2026-04-30T07:13:21.877Z</time></trkpt><trkpt lat="40.9251393694968" lon="9.509378799812724"><ele>0.5</ele><time>2026-04-30T07:13:22.877Z</time></trkpt><trkpt lat="40.925229606809395" lon="9.509256926358127"><ele>0.75</ele><time>2026-04-30T07:13:23.876Z</time></trkpt><trkpt lat="40.92532499832626" lon="9.509140473667342"><ele>1.0</ele><time>2026-04-30T07:13:24.876Z</time></trkpt><trkpt lat="40.925427449802086" lon="9.50902894343545"><ele>1.0</ele><time>2026-04-30T07:13:25.877Z</time></trkpt><trkpt lat="40.92552977575015" lon="9.508926693055397"><ele>1.0</ele><time>2026-04-30T07:13:26.877Z</time></trkpt><trkpt lat="40.92563454804661" lon="9.508826926268592"><ele>1.0</ele><time>2026-04-30T07:13:27.877Z</time></trkpt><trkpt lat="40.9257380349993" lon="9.50872838789036"><ele>1.0</ele><time>2026-04-30T07:13:28.876Z</time></trkpt><trkpt lat="40.92583932480482" lon="9.508627564720626"><ele>1.0</ele><time>2026-04-30T07:13:29.876Z</time></trkpt><trkpt lat="40.92593644650042" lon="9.50852556063866"><ele>1.0</ele><time>2026-04-30T07:13:30.876Z</time></trkpt><trkpt lat="40.9260331481597" lon="9.508419849908607"><ele>1.0</ele><time>2026-04-30T07:13:31.876Z</time></trkpt><trkpt lat="40.926125950501635" lon="9.508308809145548"><ele>1.0</ele><time>2026-04-30T07:13:32.876Z</time></trkpt><trkpt lat="40.92621173837852" lon="9.508188731416451"><ele>1.0</ele><time>2026-04-30T07:13:33.876Z</time></trkpt><trkpt lat="40.926291782447976" lon="9.508061423236676"><ele>1.0</ele><time>2026-04-30T07:13:34.876Z</time></trkpt><trkpt lat="40.926357740072355" lon="9.50792480588615"><ele>1.0</ele><time>2026-04-30T07:13:35.876Z</time></trkpt><trkpt lat="40.92640547311718" lon="9.507783611294329"><ele>1.0</ele><time>2026-04-30T07:13:36.876Z</time></trkpt><trkpt lat="40.926430924979776" lon="9.507647523077255"><ele>1.2000000000000002</ele><time>2026-04-30T07:13:37.876Z</time></trkpt><trkpt lat="40.926475776167074" lon="9.507552079109244"><ele>1.4000000000000001</ele><time>2026-04-30T07:13:38.876Z</time></trkpt><trkpt lat="40.926497932415174" lon="9.50746107194436"><ele>1.6</ele><time>2026-04-30T07:13:39.875Z</time></trkpt><trkpt lat="40.92632694543986" lon="9.507345773651394"><ele>1.8</ele><time>2026-04-30T07:13:40.875Z</time></trkpt><trkpt lat="40.92627909710139" lon="9.507263104974353"><ele>2.0</ele><time>2026-04-30T07:13:41.875Z</time></trkpt><trkpt lat="40.92621533532024" lon="9.507233393926962"><ele>1.5</ele><time>2026-04-30T07:13:42.875Z</time></trkpt><trkpt lat="40.92652407217084" lon="9.506888153519737"><ele>1.0</ele><time>2026-04-30T07:13:43.875Z</time></trkpt><trkpt lat="40.92641493417318" lon="9.506701238452784"><ele>1.0</ele><time>2026-04-30T07:13:44.875Z</time></trkpt><trkpt lat="40.92634850374564" lon="9.506635139911547"><ele>1.0</ele><time>2026-04-30T07:13:45.875Z</time></trkpt><trkpt lat="40.92629532894563" lon="9.506572815116666"><ele>1.0</ele><time>2026-04-30T07:13:46.875Z</time></trkpt><trkpt lat="40.92623994512763" lon="9.506507901188048"><ele>1.0</ele><time>2026-04-30T07:13:47.875Z</time></trkpt><trkpt lat="40.92607044666094" lon="9.5065812952766"><ele>1.0</ele><time>2026-04-30T07:13:48.875Z</time></trkpt><trkpt lat="40.92573099524129" lon="9.506871850892631"><ele>2.5</ele><time>2026-04-30T07:13:49.875Z</time></trkpt><trkpt lat="40.92541819138506" lon="9.506973070519534"><ele>4.0</ele><time>2026-04-30T07:13:50.875Z</time></trkpt><trkpt lat="40.92520239774637" lon="9.506955181806283"><ele>3.333333333333333</ele><time>2026-04-30T07:13:51.875Z</time></trkpt><trkpt lat="40.92502513374744" lon="9.506925785631683"><ele>2.6666666666666665</ele><time>2026-04-30T07:13:52.875Z</time></trkpt><trkpt lat="40.92488681511848" lon="9.506888409902695"><ele>2.0</ele><time>2026-04-30T07:13:53.875Z</time></trkpt><trkpt lat="40.924755445445534" lon="9.50684440788525"><ele>2.0</ele><time>2026-04-30T07:13:54.875Z</time></trkpt><trkpt lat="40.92462150713363" lon="9.506810923696191"><ele>2.0</ele><time>2026-04-30T07:13:55.875Z</time></trkpt><trkpt lat="40.92449052041505" lon="9.506759356197186"><ele>2.0</ele><time>2026-04-30T07:13:56.875Z</time></trkpt><trkpt lat="40.92441048393772" lon="9.506603379066112"><ele>2.0</ele><time>2026-04-30T07:13:57.875Z</time></trkpt><trkpt lat="40.9242992531649" lon="9.506506830199795"><ele>1.5</ele><time>2026-04-30T07:13:58.875Z</time></trkpt><trkpt lat="40.924172835169884" lon="9.506397098733947"><ele>1.0</ele><time>2026-04-30T07:13:59.875Z</time></trkpt><trkpt lat="40.92406474427791" lon="9.506303275268706"><ele>0.5</ele><time>2026-04-30T07:14:01.017Z</time></trkpt><trkpt lat="40.92397413679626" lon="9.5062246274994"><ele>0.0</ele><time>2026-04-30T07:14:02.019Z</time></trkpt><trkpt lat="40.92264238183413" lon="9.505017220089778"><ele>0.0</ele><time>2026-04-30T07:14:05.824Z</time></trkpt><trkpt lat="40.922310145510195" lon="9.504623081254474"><ele>0.0</ele><time>2026-04-30T07:14:06.82Z</time></trkpt><trkpt lat="40.9220568924532" lon="9.504132109815574"><ele>0.0</ele><time>2026-04-30T07:14:07.822Z</time></trkpt><trkpt lat="40.922220299494015" lon="9.504672174618454"><ele>0.0</ele><time>2026-04-30T07:14:11.824Z</time></trkpt><trkpt lat="40.92254937414106" lon="9.505074189965471"><ele>4.0</ele><time>2026-04-30T07:14:12.822Z</time></trkpt><trkpt lat="40.92292449568074" lon="9.505403306213815"><ele>4.0</ele><time>2026-04-30T07:14:13.823Z</time></trkpt><trkpt lat="40.92329970180524" lon="9.50572796493261"><ele>4.0</ele><time>2026-04-30T07:14:14.82Z</time></trkpt><trkpt lat="40.923677577616175" lon="9.506054253464233"><ele>0.0</ele><time>2026-04-30T07:14:15.823Z</time></trkpt><trkpt lat="40.92405396293731" lon="9.506379722667377"><ele>6.0</ele><time>2026-04-30T07:14:16.823Z</time></trkpt><trkpt lat="40.92179048705151" lon="9.503495776159593"><ele>6.0</ele><time>2026-04-30T07:14:18.874Z</time></trkpt><trkpt lat="40.92185295949406" lon="9.50340846892875"><ele>6.0</ele><time>2026-04-30T07:14:19.874Z</time></trkpt><trkpt lat="40.92172924450465" lon="9.503206076441684"><ele>6.0</ele><time>2026-04-30T07:14:20.874Z</time></trkpt><trkpt lat="40.92164596148509" lon="9.503025976077007"><ele>6.0</ele><time>2026-04-30T07:14:21.874Z</time></trkpt><trkpt lat="40.92155314193059" lon="9.502851601587434"><ele>6.5</ele><time>2026-04-30T07:14:22.874Z</time></trkpt><trkpt lat="40.921461733327675" lon="9.502707265938911"><ele>7.0</ele><time>2026-04-30T07:14:23.874Z</time></trkpt><trkpt lat="40.92137619693865" lon="9.502581447425502"><ele>7.5</ele><time>2026-04-30T07:14:24.874Z</time></trkpt><trkpt lat="40.92128677348314" lon="9.502470983336575"><ele>8.0</ele><time>2026-04-30T07:14:25.874Z</time></trkpt><trkpt lat="40.92120461102074" lon="9.502372669848612"><ele>8.0</ele><time>2026-04-30T07:14:26.874Z</time></trkpt><trkpt lat="40.92111104212421" lon="9.502268820034251"><ele>8.0</ele><time>2026-04-30T07:14:27.873Z</time></trkpt><trkpt lat="40.92102584622078" lon="9.50216777921262"><ele>8.0</ele><time>2026-04-30T07:14:28.873Z</time></trkpt><trkpt lat="40.920937902915405" lon="9.502074660221576"><ele>8.0</ele><time>2026-04-30T07:14:29.873Z</time></trkpt><trkpt lat="40.92084885802209" lon="9.501987823931929"><ele>7.2</ele><time>2026-04-30T07:14:30.873Z</time></trkpt><trkpt lat="40.9207577942593" lon="9.501913929199047"><ele>6.4</ele><time>2026-04-30T07:14:31.873Z</time></trkpt><trkpt lat="40.92066058629709" lon="9.501842062761304"><ele>5.6000000000000005</ele><time>2026-04-30T07:14:32.873Z</time></trkpt><trkpt lat="40.920565053666905" lon="9.501776473914619"><ele>4.800000000000001</ele><time>2026-04-30T07:14:33.873Z</time></trkpt><trkpt lat="40.92046165499871" lon="9.501712307972369"><ele>4.0</ele><time>2026-04-30T07:14:34.873Z</time></trkpt><trkpt lat="40.92035535765888" lon="9.501654416438178"><ele>4.0</ele><time>2026-04-30T07:14:35.873Z</time></trkpt><trkpt lat="40.92024949987772" lon="9.501598124789515"><ele>4.0</ele><time>2026-04-30T07:14:36.873Z</time></trkpt><trkpt lat="40.920142193004665" lon="9.5015533652709"><ele>4.0</ele><time>2026-04-30T07:14:37.873Z</time></trkpt><trkpt lat="40.920030225048066" lon="9.50151328500525"><ele>4.0</ele><time>2026-04-30T07:14:38.873Z</time></trkpt><trkpt lat="40.919914292006" lon="9.501477094196366"><ele>3.0</ele><time>2026-04-30T07:14:39.873Z</time></trkpt><trkpt lat="40.9197971468933" lon="9.501450972133588"><ele>2.0</ele><time>2026-04-30T07:14:40.873Z</time></trkpt><trkpt lat="40.91967997891482" lon="9.501431680650978"><ele>1.0</ele><time>2026-04-30T07:14:41.873Z</time></trkpt><trkpt lat="40.91955627835867" lon="9.501409487616552"><ele>0.0</ele><time>2026-04-30T07:14:42.873Z</time></trkpt><trkpt lat="40.919436704275604" lon="9.501403557664789"><ele>0.0</ele><time>2026-04-30T07:14:43.873Z</time></trkpt><trkpt lat="40.919313546203696" lon="9.501402779676777"><ele>0.0</ele><time>2026-04-30T07:14:44.873Z</time></trkpt><trkpt lat="40.91919080886661" lon="9.501404918822974"><ele>0.0</ele><time>2026-04-30T07:14:45.873Z</time></trkpt><trkpt lat="40.91906404678375" lon="9.501411944263959"><ele>0.0</ele><time>2026-04-30T07:14:46.873Z</time></trkpt><trkpt lat="40.91894004843852" lon="9.501419731193522"><ele>0.0</ele><time>2026-04-30T07:14:47.873Z</time></trkpt><trkpt lat="40.91881291710867" lon="9.501423229339318"><ele>0.0</ele><time>2026-04-30T07:14:48.873Z</time></trkpt><trkpt lat="40.91868966437906" lon="9.501430105746177"><ele>0.0</ele><time>2026-04-30T07:14:49.873Z</time></trkpt><trkpt lat="40.918561621728074" lon="9.501438705061982"><ele>0.0</ele><time>2026-04-30T07:14:50.872Z</time></trkpt><trkpt lat="40.91843379914598" lon="9.501445630861086"><ele>0.0</ele><time>2026-04-30T07:14:51.872Z</time></trkpt><trkpt lat="40.91830728384551" lon="9.501454264789382"><ele>0.0</ele><time>2026-04-30T07:14:52.872Z</time></trkpt><trkpt lat="40.91817948787574" lon="9.50146114812303"><ele>0.0</ele><time>2026-04-30T07:14:53.872Z</time></trkpt><trkpt lat="40.91806059144501" lon="9.501470251626214"><ele>0.0</ele><time>2026-04-30T07:14:54.872Z</time></trkpt><trkpt lat="40.91793531928932" lon="9.501474297770901"><ele>0.0</ele><time>2026-04-30T07:14:55.872Z</time></trkpt><trkpt lat="40.917815648599" lon="9.501479421348021"><ele>0.0</ele><time>2026-04-30T07:14:56.872Z</time></trkpt><trkpt lat="40.9176966760721" lon="9.50148482048578"><ele>0.0</ele><time>2026-04-30T07:14:57.872Z</time></trkpt><trkpt lat="40.91758386992919" lon="9.501490999071619"><ele>0.0</ele><time>2026-04-30T07:14:58.872Z</time></trkpt><trkpt lat="40.91746867373382" lon="9.501499604150446"><ele>0.0</ele><time>2026-04-30T07:14:59.872Z</time></trkpt><trkpt lat="40.91735725917885" lon="9.501507741277216"><ele>0.0</ele><time>2026-04-30T07:15:00.872Z</time></trkpt><trkpt lat="40.91724308623806" lon="9.501511791767184"><ele>0.0</ele><time>2026-04-30T07:15:01.872Z</time></trkpt><trkpt lat="40.917130913522776" lon="9.501516949175773"><ele>0.0</ele><time>2026-04-30T07:15:02.872Z</time></trkpt><trkpt lat="40.91701932171493" lon="9.501521754555498"><ele>0.0</ele><time>2026-04-30T07:15:03.872Z</time></trkpt><trkpt lat="40.9169039336874" lon="9.50152436627774"><ele>0.0</ele><time>2026-04-30T07:15:04.872Z</time></trkpt><trkpt lat="40.91678995155146" lon="9.501527245930331"><ele>0.0</ele><time>2026-04-30T07:15:05.872Z</time></trkpt><trkpt lat="40.91667424137624" lon="9.501531841118704"><ele>0.0</ele><time>2026-04-30T07:15:06.872Z</time></trkpt><trkpt lat="40.91656090879088" lon="9.50153734194005"><ele>0.25</ele><time>2026-04-30T07:15:07.872Z</time></trkpt><trkpt lat="40.91644452012632" lon="9.501538880715891"><ele>0.5</ele><time>2026-04-30T07:15:08.872Z</time></trkpt><trkpt lat="40.916330425129736" lon="9.501544613812994"><ele>0.75</ele><time>2026-04-30T07:15:09.872Z</time></trkpt><trkpt lat="40.916216056654726" lon="9.501551855436674"><ele>1.0</ele><time>2026-04-30T07:15:10.872Z</time></trkpt><trkpt lat="40.91610163937322" lon="9.501555349305018"><ele>1.0</ele><time>2026-04-30T07:15:11.872Z</time></trkpt><trkpt lat="40.91598811584909" lon="9.501560870852508"><ele>1.0</ele><time>2026-04-30T07:15:12.872Z</time></trkpt><trkpt lat="40.91587127996017" lon="9.501563609104855"><ele>1.0</ele><time>2026-04-30T07:15:13.872Z</time></trkpt><trkpt lat="40.91575732884002" lon="9.501571670452213"><ele>1.0</ele><time>2026-04-30T07:15:14.871Z</time></trkpt><trkpt lat="40.91564304940514" lon="9.50157916245174"><ele>1.0</ele><time>2026-04-30T07:15:15.871Z</time></trkpt><trkpt lat="40.91552832711145" lon="9.501584996264532"><ele>1.0</ele><time>2026-04-30T07:15:16.871Z</time></trkpt><trkpt lat="40.915413169570094" lon="9.501589908813814"><ele>1.0</ele><time>2026-04-30T07:15:17.871Z</time></trkpt><trkpt lat="40.9152989024976" lon="9.501594113332338"><ele>1.0</ele><time>2026-04-30T07:15:18.871Z</time></trkpt><trkpt lat="40.915184218457334" lon="9.501600496400552"><ele>1.75</ele><time>2026-04-30T07:15:19.871Z</time></trkpt><trkpt lat="40.91506576042706" lon="9.501604176488913"><ele>2.5</ele><time>2026-04-30T07:15:20.871Z</time></trkpt><trkpt lat="40.914952377209254" lon="9.501604067699043"><ele>3.25</ele><time>2026-04-30T07:15:21.871Z</time></trkpt><trkpt lat="40.91484002502903" lon="9.501613355359446"><ele>4.0</ele><time>2026-04-30T07:15:22.871Z</time></trkpt><trkpt lat="40.91472956314218" lon="9.501619873885366"><ele>4.0</ele><time>2026-04-30T07:15:23.871Z</time></trkpt><trkpt lat="40.914605027615586" lon="9.501609677427242"><ele>4.0</ele><time>2026-04-30T07:15:24.871Z</time></trkpt><trkpt lat="40.91448672851024" lon="9.501615142164924"><ele>4.0</ele><time>2026-04-30T07:15:25.872Z</time></trkpt><trkpt lat="40.914368490972365" lon="9.501624394116392"><ele>4.0</ele><time>2026-04-30T07:15:26.872Z</time></trkpt><trkpt lat="40.914255890931116" lon="9.501638699707195"><ele>4.25</ele><time>2026-04-30T07:15:27.872Z</time></trkpt><trkpt lat="40.91414316225388" lon="9.501648744402056"><ele>4.5</ele><time>2026-04-30T07:15:28.872Z</time></trkpt><trkpt lat="40.91402699991113" lon="9.50167290092328"><ele>4.75</ele><time>2026-04-30T07:15:29.872Z</time></trkpt><trkpt lat="40.91391552389046" lon="9.501694728912348"><ele>5.0</ele><time>2026-04-30T07:15:30.872Z</time></trkpt><trkpt lat="40.91380551839718" lon="9.50172744945496"><ele>5.0</ele><time>2026-04-30T07:15:31.873Z</time></trkpt><trkpt lat="40.91368628487598" lon="9.501763969545165"><ele>5.0</ele><time>2026-04-30T07:15:32.872Z</time></trkpt><trkpt lat="40.91356853840746" lon="9.50180441927682"><ele>5.0</ele><time>2026-04-30T07:15:33.872Z</time></trkpt><trkpt lat="40.91345483856953" lon="9.501844375876338"><ele>5.0</ele><time>2026-04-30T07:15:34.871Z</time></trkpt><trkpt lat="40.913343954876844" lon="9.501888662057475"><ele>4.0</ele><time>2026-04-30T07:15:35.871Z</time></trkpt><trkpt lat="40.913230134740786" lon="9.50193440431132"><ele>3.0</ele><time>2026-04-30T07:15:36.871Z</time></trkpt><trkpt lat="40.913120938551025" lon="9.501982234866938"><ele>2.0</ele><time>2026-04-30T07:15:37.872Z</time></trkpt><trkpt lat="40.91300681846064" lon="9.5020279514468"><ele>1.0</ele><time>2026-04-30T07:15:38.871Z</time></trkpt><trkpt lat="40.91289637367972" lon="9.502079650538532"><ele>0.75</ele><time>2026-04-30T07:15:39.871Z</time></trkpt><trkpt lat="40.91278562939473" lon="9.502144071061279"><ele>0.5</ele><time>2026-04-30T07:15:40.871Z</time></trkpt><trkpt lat="40.91267781599692" lon="9.502209269725242"><ele>0.25</ele><time>2026-04-30T07:15:41.871Z</time></trkpt><trkpt lat="40.9125698367552" lon="9.502278445215484"><ele>0.0</ele><time>2026-04-30T07:15:42.871Z</time></trkpt><trkpt lat="40.91245964977808" lon="9.502348868938597"><ele>0.5</ele><time>2026-04-30T07:15:43.871Z</time></trkpt><trkpt lat="40.9123575340842" lon="9.502424296076654"><ele>1.0</ele><time>2026-04-30T07:15:44.871Z</time></trkpt><trkpt lat="40.912245814717416" lon="9.502514254599568"><ele>1.5</ele><time>2026-04-30T07:15:45.871Z</time></trkpt><trkpt lat="40.91213603179003" lon="9.50262108627766"><ele>2.0</ele><time>2026-04-30T07:15:46.871Z</time></trkpt><trkpt lat="40.912009638226586" lon="9.502732925663327"><ele>2.0</ele><time>2026-04-30T07:15:47.871Z</time></trkpt><trkpt lat="40.911882572271445" lon="9.502851990109082"><ele>2.0</ele><time>2026-04-30T07:15:48.871Z</time></trkpt><trkpt lat="40.91175629219926" lon="9.502980498061165"><ele>2.0</ele><time>2026-04-30T07:15:49.871Z</time></trkpt><trkpt lat="40.91162266909984" lon="9.503119407222808"><ele>3.0</ele><time>2026-04-30T07:15:50.871Z</time></trkpt><trkpt lat="40.911480731536834" lon="9.5032517918905"><ele>4.0</ele><time>2026-04-30T07:15:51.871Z</time></trkpt><trkpt lat="40.911358378109135" lon="9.503406620977891"><ele>5.0</ele><time>2026-04-30T07:15:52.87Z</time></trkpt><trkpt lat="40.911232109408786" lon="9.503575439158771"><ele>4.666666666666667</ele><time>2026-04-30T07:15:53.87Z</time></trkpt><trkpt lat="40.91110354793926" lon="9.50376559594262"><ele>4.333333333333333</ele><time>2026-04-30T07:15:54.87Z</time></trkpt><trkpt lat="40.91098722007785" lon="9.503956740233207"><ele>4.0</ele><time>2026-04-30T07:15:55.87Z</time></trkpt><trkpt lat="40.910886095574504" lon="9.504132228481247"><ele>4.0</ele><time>2026-04-30T07:15:56.87Z</time></trkpt><trkpt lat="40.910792436361085" lon="9.504306632465399"><ele>4.0</ele><time>2026-04-30T07:15:57.87Z</time></trkpt><trkpt lat="40.91069616473944" lon="9.504497850362275"><ele>4.0</ele><time>2026-04-30T07:15:58.87Z</time></trkpt><trkpt lat="40.910602784555394" lon="9.504696202277886"><ele>4.333333333333333</ele><time>2026-04-30T07:15:59.87Z</time></trkpt><trkpt lat="40.91051535400517" lon="9.504882383926558"><ele>4.666666666666667</ele><time>2026-04-30T07:16:00.87Z</time></trkpt><trkpt lat="40.91044226330643" lon="9.505059404892759"><ele>5.0</ele><time>2026-04-30T07:16:01.87Z</time></trkpt><trkpt lat="40.91037659873864" lon="9.505224324910875"><ele>5.0</ele><time>2026-04-30T07:16:02.87Z</time></trkpt><trkpt lat="40.91030883293896" lon="9.505390431776345"><ele>5.0</ele><time>2026-04-30T07:16:03.87Z</time></trkpt><trkpt lat="40.910230129032215" lon="9.505560678201855"><ele>5.0</ele><time>2026-04-30T07:16:04.87Z</time></trkpt><trkpt lat="40.910136020124405" lon="9.505723296446982"><ele>5.0</ele><time>2026-04-30T07:16:05.87Z</time></trkpt><trkpt lat="40.910025079697746" lon="9.505873134038662"><ele>5.25</ele><time>2026-04-30T07:16:06.87Z</time></trkpt><trkpt lat="40.90990724208213" lon="9.506008967577376"><ele>5.5</ele><time>2026-04-30T07:16:07.87Z</time></trkpt><trkpt lat="40.90978912741866" lon="9.506129688616136"><ele>5.75</ele><time>2026-04-30T07:16:08.87Z</time></trkpt><trkpt lat="40.909674644114276" lon="9.506235887220654"><ele>6.0</ele><time>2026-04-30T07:16:09.87Z</time></trkpt><trkpt lat="40.90955466488979" lon="9.506324876354467"><ele>6.0</ele><time>2026-04-30T07:16:10.87Z</time></trkpt><trkpt lat="40.90943021516064" lon="9.506398419256294"><ele>6.0</ele><time>2026-04-30T07:16:11.87Z</time></trkpt><trkpt lat="40.90930392585327" lon="9.506457859206579"><ele>6.0</ele><time>2026-04-30T07:16:12.87Z</time></trkpt><trkpt lat="40.9091732456561" lon="9.506503743355825"><ele>6.0</ele><time>2026-04-30T07:16:13.87Z</time></trkpt><trkpt lat="40.909044561815136" lon="9.506543454032146"><ele>8.0</ele><time>2026-04-30T07:16:14.87Z</time></trkpt><trkpt lat="40.90890817555813" lon="9.506561308384372"><ele>10.0</ele><time>2026-04-30T07:16:15.869Z</time></trkpt><trkpt lat="40.908780319578895" lon="9.506572216874076"><ele>12.0</ele><time>2026-04-30T07:16:16.869Z</time></trkpt><trkpt lat="40.90864796262345" lon="9.506567379883109"><ele>14.0</ele><time>2026-04-30T07:16:17.869Z</time></trkpt><trkpt lat="40.90851968063187" lon="9.506551138061697"><ele>14.5</ele><time>2026-04-30T07:16:18.869Z</time></trkpt><trkpt lat="40.908382390791644" lon="9.506518846417379"><ele>15.0</ele><time>2026-04-30T07:16:19.869Z</time></trkpt><trkpt lat="40.90823573223068" lon="9.506467380439835"><ele>15.5</ele><time>2026-04-30T07:16:20.869Z</time></trkpt><trkpt lat="40.9080937407257" lon="9.506403009717722"><ele>16.0</ele><time>2026-04-30T07:16:21.869Z</time></trkpt><trkpt lat="40.907952764862216" lon="9.506322905248584"><ele>17.0</ele><time>2026-04-30T07:16:22.869Z</time></trkpt><trkpt lat="40.907810823274694" lon="9.506220961430696"><ele>18.0</ele><time>2026-04-30T07:16:23.869Z</time></trkpt><trkpt lat="40.90767832397537" lon="9.506109762344998"><ele>19.0</ele><time>2026-04-30T07:16:24.869Z</time></trkpt><trkpt lat="40.907549884608386" lon="9.505988288778033"><ele>19.0</ele><time>2026-04-30T07:16:25.869Z</time></trkpt><trkpt lat="40.907432902281336" lon="9.505857301842344"><ele>19.0</ele><time>2026-04-30T07:16:26.869Z</time></trkpt><trkpt lat="40.90732155441309" lon="9.505716878070682"><ele>19.0</ele><time>2026-04-30T07:16:27.869Z</time></trkpt><trkpt lat="40.90722046464692" lon="9.50556540026983"><ele>20.333333333333332</ele><time>2026-04-30T07:16:28.869Z</time></trkpt><trkpt lat="40.90712802641172" lon="9.505401727836022"><ele>21.666666666666668</ele><time>2026-04-30T07:16:29.869Z</time></trkpt><trkpt lat="40.907038703817214" lon="9.50522535308165"><ele>23.0</ele><time>2026-04-30T07:16:30.869Z</time></trkpt><trkpt lat="40.90695324964323" lon="9.505041319324066"><ele>23.0</ele><time>2026-04-30T07:16:31.869Z</time></trkpt><trkpt lat="40.906868204799345" lon="9.504852628754083"><ele>23.0</ele><time>2026-04-30T07:16:32.869Z</time></trkpt><trkpt lat="40.90677899440067" lon="9.504659431222603"><ele>23.0</ele><time>2026-04-30T07:16:33.869Z</time></trkpt><trkpt lat="40.90668677817723" lon="9.504459712225739"><ele>24.0</ele><time>2026-04-30T07:16:34.869Z</time></trkpt><trkpt lat="40.90659522446724" lon="9.50426010810099"><ele>25.0</ele><time>2026-04-30T07:16:35.869Z</time></trkpt><trkpt lat="40.90650470543915" lon="9.5040630253709"><ele>26.0</ele><time>2026-04-30T07:16:36.869Z</time></trkpt><trkpt lat="40.90642170549021" lon="9.503880865695434"><ele>29.0</ele><time>2026-04-30T07:16:37.868Z</time></trkpt><trkpt lat="40.906340405051886" lon="9.503702287059292"><ele>32.0</ele><time>2026-04-30T07:16:38.868Z</time></trkpt><trkpt lat="40.90625889278008" lon="9.503528239008698"><ele>35.0</ele><time>2026-04-30T07:16:39.868Z</time></trkpt><trkpt lat="40.9061765581219" lon="9.50334755952936"><ele>35.0</ele><time>2026-04-30T07:16:40.868Z</time></trkpt><trkpt lat="40.90609175601804" lon="9.503156925325714"><ele>35.0</ele><time>2026-04-30T07:16:41.868Z</time></trkpt><trkpt lat="40.90600657791132" lon="9.502964194618231"><ele>35.0</ele><time>2026-04-30T07:16:42.868Z</time></trkpt><trkpt lat="40.90591746464904" lon="9.502772105935549"><ele>31.0</ele><time>2026-04-30T07:16:43.868Z</time></trkpt><trkpt lat="40.90582620457907" lon="9.50257758192479"><ele>27.0</ele><time>2026-04-30T07:16:44.868Z</time></trkpt><trkpt lat="40.905737043342995" lon="9.502380221767615"><ele>23.0</ele><time>2026-04-30T07:16:45.868Z</time></trkpt><trkpt lat="40.90564497926087" lon="9.502174390586207"><ele>21.666666666666668</ele><time>2026-04-30T07:16:46.868Z</time></trkpt><trkpt lat="40.905548047401886" lon="9.501966057231819"><ele>20.333333333333332</ele><time>2026-04-30T07:16:47.868Z</time></trkpt><trkpt lat="40.905448700078445" lon="9.501746394749965"><ele>19.0</ele><time>2026-04-30T07:16:48.868Z</time></trkpt><trkpt lat="40.90534719675314" lon="9.501524701507753"><ele>19.0</ele><time>2026-04-30T07:16:49.868Z</time></trkpt><trkpt lat="40.905235006724396" lon="9.501297267201304"><ele>19.0</ele><time>2026-04-30T07:16:50.868Z</time></trkpt><trkpt lat="40.90512180454745" lon="9.501063237030518"><ele>19.0</ele><time>2026-04-30T07:16:51.868Z</time></trkpt><trkpt lat="40.9049992674569" lon="9.500824455417556"><ele>19.333333333333332</ele><time>2026-04-30T07:16:52.868Z</time></trkpt><trkpt lat="40.90487421617773" lon="9.500585983148557"><ele>19.666666666666668</ele><time>2026-04-30T07:16:53.868Z</time></trkpt><trkpt lat="40.9047480943992" lon="9.500351731950934"><ele>20.0</ele><time>2026-04-30T07:16:54.868Z</time></trkpt><trkpt lat="40.9046230629923" lon="9.500137421034488"><ele>21.0</ele><time>2026-04-30T07:16:55.868Z</time></trkpt><trkpt lat="40.90450032547307" lon="9.49993647102346"><ele>22.0</ele><time>2026-04-30T07:16:56.868Z</time></trkpt><trkpt lat="40.90438064619255" lon="9.499738469235377"><ele>23.0</ele><time>2026-04-30T07:16:57.868Z</time></trkpt><trkpt lat="40.90425536500633" lon="9.499543980766738"><ele>22.333333333333336</ele><time>2026-04-30T07:16:58.868Z</time></trkpt><trkpt lat="40.90412919998645" lon="9.499344711464039"><ele>21.666666666666668</ele><time>2026-04-30T07:16:59.868Z</time></trkpt><trkpt lat="40.903991144826655" lon="9.49915068229752"><ele>21.0</ele><time>2026-04-30T07:17:00.868Z</time></trkpt><trkpt lat="40.903846584666944" lon="9.498951104081982"><ele>21.0</ele><time>2026-04-30T07:17:01.867Z</time></trkpt><trkpt lat="40.90369847911317" lon="9.498751108626921"><ele>21.0</ele><time>2026-04-30T07:17:02.867Z</time></trkpt><trkpt lat="40.903545899794096" lon="9.49855129401897"><ele>21.0</ele><time>2026-04-30T07:17:03.867Z</time></trkpt><trkpt lat="40.90338556675661" lon="9.498351546321068"><ele>21.5</ele><time>2026-04-30T07:17:04.867Z</time></trkpt><trkpt lat="40.903218970816894" lon="9.498144851710325"><ele>22.0</ele><time>2026-04-30T07:17:05.867Z</time></trkpt><trkpt lat="40.903049543480364" lon="9.497939455668595"><ele>23.0</ele><time>2026-04-30T07:17:06.867Z</time></trkpt><trkpt lat="40.90289329191594" lon="9.497747876749717"><ele>24.0</ele><time>2026-04-30T07:17:07.867Z</time></trkpt><trkpt lat="40.902740996861205" lon="9.497553933574887"><ele>25.0</ele><time>2026-04-30T07:17:08.867Z</time></trkpt><trkpt lat="40.902592890978624" lon="9.497367182785142"><ele>25.0</ele><time>2026-04-30T07:17:09.867Z</time></trkpt><trkpt lat="40.90244281474676" lon="9.497178293315804"><ele>25.0</ele><time>2026-04-30T07:17:10.867Z</time></trkpt><trkpt lat="40.90229041409371" lon="9.496988099935823"><ele>25.0</ele><time>2026-04-30T07:17:11.867Z</time></trkpt><trkpt lat="40.902140183623935" lon="9.49680041203524"><ele>25.0</ele><time>2026-04-30T07:17:12.867Z</time></trkpt><trkpt lat="40.90199254467759" lon="9.496618782384168"><ele>25.0</ele><time>2026-04-30T07:17:13.867Z</time></trkpt><trkpt lat="40.90184511996043" lon="9.496442125710415"><ele>25.0</ele><time>2026-04-30T07:17:14.867Z</time></trkpt><trkpt lat="40.901708394607006" lon="9.496274522820444"><ele>24.0</ele><time>2026-04-30T07:17:15.867Z</time></trkpt><trkpt lat="40.90157292071443" lon="9.49610778763497"><ele>23.0</ele><time>2026-04-30T07:17:16.867Z</time></trkpt><trkpt lat="40.90144649877759" lon="9.495943331777692"><ele>22.0</ele><time>2026-04-30T07:17:17.867Z</time></trkpt><trkpt lat="40.901317740594315" lon="9.495783957230206"><ele>22.0</ele><time>2026-04-30T07:17:18.867Z</time></trkpt><trkpt lat="40.901187039499085" lon="9.495619316204062"><ele>22.0</ele><time>2026-04-30T07:17:19.867Z</time></trkpt><trkpt lat="40.901057836843805" lon="9.495458511908275"><ele>22.0</ele><time>2026-04-30T07:17:20.867Z</time></trkpt><trkpt lat="40.900924838135346" lon="9.495295426788058"><ele>21.666666666666664</ele><time>2026-04-30T07:17:21.867Z</time></trkpt><trkpt lat="40.900788388738604" lon="9.495130892185722"><ele>21.333333333333332</ele><time>2026-04-30T07:17:22.867Z</time></trkpt><trkpt lat="40.90065601457199" lon="9.49496595631544"><ele>21.0</ele><time>2026-04-30T07:17:23.867Z</time></trkpt><trkpt lat="40.900525274728096" lon="9.494805896594174"><ele>21.0</ele><time>2026-04-30T07:17:24.866Z</time></trkpt><trkpt lat="40.9003971763163" lon="9.494650252921465"><ele>21.0</ele><time>2026-04-30T07:17:25.866Z</time></trkpt><trkpt lat="40.90026751586876" lon="9.494496989777597"><ele>21.0</ele><time>2026-04-30T07:17:26.866Z</time></trkpt><trkpt lat="40.90014487302338" lon="9.494343411622141"><ele>20.333333333333332</ele><time>2026-04-30T07:17:27.866Z</time></trkpt><trkpt lat="40.900018817118806" lon="9.494190025468082"><ele>19.666666666666664</ele><time>2026-04-30T07:17:28.866Z</time></trkpt><trkpt lat="40.89989313497354" lon="9.49403907617515"><ele>19.0</ele><time>2026-04-30T07:17:29.866Z</time></trkpt><trkpt lat="40.89976635746983" lon="9.493887226252156"><ele>19.333333333333332</ele><time>2026-04-30T07:17:30.866Z</time></trkpt><trkpt lat="40.89963801808251" lon="9.493732898781007"><ele>19.666666666666668</ele><time>2026-04-30T07:17:31.868Z</time></trkpt><trkpt lat="40.89951159781571" lon="9.493579596111427"><ele>20.0</ele><time>2026-04-30T07:17:32.868Z</time></trkpt><trkpt lat="40.899383731864425" lon="9.493424701524203"><ele>20.0</ele><time>2026-04-30T07:17:33.868Z</time></trkpt><trkpt lat="40.89925713330215" lon="9.493272337795831"><ele>20.0</ele><time>2026-04-30T07:17:34.868Z</time></trkpt><trkpt lat="40.899129117321536" lon="9.493111994640405"><ele>20.0</ele><time>2026-04-30T07:17:35.868Z</time></trkpt><trkpt lat="40.89899865057652" lon="9.492950799601976"><ele>20.666666666666668</ele><time>2026-04-30T07:17:36.868Z</time></trkpt><trkpt lat="40.89886229543158" lon="9.492791580597865"><ele>21.333333333333332</ele><time>2026-04-30T07:17:37.868Z</time></trkpt><trkpt lat="40.89872765499855" lon="9.492630484844408"><ele>22.0</ele><time>2026-04-30T07:17:38.868Z</time></trkpt><trkpt lat="40.89858936545252" lon="9.492465144256544"><ele>22.0</ele><time>2026-04-30T07:17:39.868Z</time></trkpt><trkpt lat="40.8984517099553" lon="9.492294327126885"><ele>22.0</ele><time>2026-04-30T07:17:40.868Z</time></trkpt><trkpt lat="40.89831257901841" lon="9.492123024352058"><ele>22.0</ele><time>2026-04-30T07:17:41.868Z</time></trkpt><trkpt lat="40.898167253171664" lon="9.491943383052519"><ele>22.333333333333332</ele><time>2026-04-30T07:17:42.868Z</time></trkpt><trkpt lat="40.89801796680379" lon="9.491765626717525"><ele>22.666666666666668</ele><time>2026-04-30T07:17:43.867Z</time></trkpt><trkpt lat="40.897863178217094" lon="9.49158505893472"><ele>23.0</ele><time>2026-04-30T07:17:44.868Z</time></trkpt><trkpt lat="40.89770273614048" lon="9.49140219468366"><ele>23.0</ele><time>2026-04-30T07:17:45.868Z</time></trkpt><trkpt lat="40.897542121524374" lon="9.491219943006792"><ele>23.0</ele><time>2026-04-30T07:17:46.868Z</time></trkpt><trkpt lat="40.897379808110024" lon="9.49103086921234"><ele>23.0</ele><time>2026-04-30T07:17:47.868Z</time></trkpt><trkpt lat="40.89721366381504" lon="9.490840146055056"><ele>23.0</ele><time>2026-04-30T07:17:48.868Z</time></trkpt><trkpt lat="40.89704707505805" lon="9.490642690147123"><ele>23.0</ele><time>2026-04-30T07:17:49.868Z</time></trkpt><trkpt lat="40.89688631273685" lon="9.490449104325227"><ele>23.0</ele><time>2026-04-30T07:17:50.868Z</time></trkpt><trkpt lat="40.896722048080356" lon="9.490253922203392"><ele>21.333333333333336</ele><time>2026-04-30T07:17:51.867Z</time></trkpt><trkpt lat="40.89655377569666" lon="9.49006268569547"><ele>19.666666666666668</ele><time>2026-04-30T07:17:52.867Z</time></trkpt><trkpt lat="40.89639159735987" lon="9.489867947988646"><ele>18.0</ele><time>2026-04-30T07:17:53.867Z</time></trkpt><trkpt lat="40.89622647038802" lon="9.489673049999952"><ele>18.0</ele><time>2026-04-30T07:17:54.867Z</time></trkpt><trkpt lat="40.89606333945051" lon="9.489480937552461"><ele>18.0</ele><time>2026-04-30T07:17:55.867Z</time></trkpt><trkpt lat="40.89590007737226" lon="9.489293345538474"><ele>18.0</ele><time>2026-04-30T07:17:56.867Z</time></trkpt><trkpt lat="40.8957369872417" lon="9.48910244949459"><ele>18.0</ele><time>2026-04-30T07:17:57.867Z</time></trkpt><trkpt lat="40.895579169229144" lon="9.488916163535526"><ele>18.0</ele><time>2026-04-30T07:17:58.867Z</time></trkpt><trkpt lat="40.895420483364006" lon="9.488727636954374"><ele>18.0</ele><time>2026-04-30T07:17:59.867Z</time></trkpt><trkpt lat="40.89525764023301" lon="9.488541306275794"><ele>18.333333333333332</ele><time>2026-04-30T07:18:00.867Z</time></trkpt><trkpt lat="40.89509530031241" lon="9.48834763625069"><ele>18.666666666666664</ele><time>2026-04-30T07:18:01.867Z</time></trkpt><trkpt lat="40.89492820516057" lon="9.488144509028912"><ele>19.0</ele><time>2026-04-30T07:18:02.867Z</time></trkpt><trkpt lat="40.89476540280876" lon="9.487953894699539"><ele>21.0</ele><time>2026-04-30T07:18:03.867Z</time></trkpt><trkpt lat="40.894596486454745" lon="9.487756449384662"><ele>23.0</ele><time>2026-04-30T07:18:04.867Z</time></trkpt><trkpt lat="40.89442930854612" lon="9.487557813935679"><ele>23.0</ele><time>2026-04-30T07:18:05.867Z</time></trkpt><trkpt lat="40.89426491622334" lon="9.487361242924456"><ele>23.0</ele><time>2026-04-30T07:18:06.867Z</time></trkpt><trkpt lat="40.89410720799804" lon="9.487180200914427"><ele>23.0</ele><time>2026-04-30T07:18:07.867Z</time></trkpt><trkpt lat="40.893956512321346" lon="9.486999671366418"><ele>22.666666666666668</ele><time>2026-04-30T07:18:08.867Z</time></trkpt><trkpt lat="40.893806406958674" lon="9.486823200161531"><ele>22.333333333333332</ele><time>2026-04-30T07:18:09.867Z</time></trkpt><trkpt lat="40.89365834472073" lon="9.486643338937194"><ele>22.0</ele><time>2026-04-30T07:18:10.867Z</time></trkpt><trkpt lat="40.893516572866034" lon="9.486466557725837"><ele>21.666666666666664</ele><time>2026-04-30T07:18:11.867Z</time></trkpt><trkpt lat="40.89338287926438" lon="9.486302560641237"><ele>21.333333333333332</ele><time>2026-04-30T07:18:12.867Z</time></trkpt><trkpt lat="40.89327725820301" lon="9.486156638159631"><ele>21.0</ele><time>2026-04-30T07:18:13.867Z</time></trkpt><trkpt lat="40.8931884535569" lon="9.48600263906199"><ele>21.0</ele><time>2026-04-30T07:18:14.867Z</time></trkpt><trkpt lat="40.89312786783894" lon="9.48583734367128"><ele>21.0</ele><time>2026-04-30T07:18:15.866Z</time></trkpt><trkpt lat="40.89310371593159" lon="9.485673682098641"><ele>21.0</ele><time>2026-04-30T07:18:16.866Z</time></trkpt><trkpt lat="40.89312174597817" lon="9.485529296524774"><ele>21.0</ele><time>2026-04-30T07:18:17.866Z</time></trkpt><trkpt lat="40.893164211077526" lon="9.485392473314576"><ele>22.25</ele><time>2026-04-30T07:18:18.866Z</time></trkpt><trkpt lat="40.893235582154006" lon="9.48527921500699"><ele>23.5</ele><time>2026-04-30T07:18:19.866Z</time></trkpt><trkpt lat="40.89332000219429" lon="9.485172211044324"><ele>24.75</ele><time>2026-04-30T07:18:20.866Z</time></trkpt><trkpt lat="40.893428903096414" lon="9.485099637828517"><ele>26.0</ele><time>2026-04-30T07:18:21.866Z</time></trkpt><trkpt lat="40.89354630153234" lon="9.485060697440948"><ele>26.75</ele><time>2026-04-30T07:18:22.866Z</time></trkpt><trkpt lat="40.8936721556918" lon="9.485060610774207"><ele>27.5</ele><time>2026-04-30T07:18:23.866Z</time></trkpt><trkpt lat="40.893801013604154" lon="9.485100715372317"><ele>28.25</ele><time>2026-04-30T07:18:24.866Z</time></trkpt><trkpt lat="40.89392050733197" lon="9.485180790622307"><ele>29.0</ele><time>2026-04-30T07:18:25.866Z</time></trkpt><trkpt lat="40.89402370476959" lon="9.485303552254257"><ele>27.75</ele><time>2026-04-30T07:18:26.866Z</time></trkpt><trkpt lat="40.89409829075395" lon="9.485460756522638"><ele>26.5</ele><time>2026-04-30T07:18:27.866Z</time></trkpt><trkpt lat="40.89413061410118" lon="9.485635445479248"><ele>25.25</ele><time>2026-04-30T07:18:28.866Z</time></trkpt><trkpt lat="40.894126790305364" lon="9.48579891013962"><ele>24.0</ele><time>2026-04-30T07:18:29.866Z</time></trkpt><trkpt lat="40.89407488341877" lon="9.485975270196406"><ele>24.0</ele><time>2026-04-30T07:18:30.866Z</time></trkpt><trkpt lat="40.89399763421392" lon="9.486135092221033"><ele>24.0</ele><time>2026-04-30T07:18:31.866Z</time></trkpt><trkpt lat="40.89389788130756" lon="9.486258294514176"><ele>24.0</ele><time>2026-04-30T07:18:32.866Z</time></trkpt><trkpt lat="40.893772568651315" lon="9.486367921052125"><ele>24.0</ele><time>2026-04-30T07:18:33.866Z</time></trkpt><trkpt lat="40.89363154309911" lon="9.486476555078703"><ele>23.333333333333332</ele><time>2026-04-30T07:18:34.866Z</time></trkpt><trkpt lat="40.893490455123604" lon="9.486601784950228"><ele>22.666666666666664</ele><time>2026-04-30T07:18:35.866Z</time></trkpt><trkpt lat="40.89334506016662" lon="9.486729639399721"><ele>22.0</ele><time>2026-04-30T07:18:36.866Z</time></trkpt><trkpt lat="40.893205195261274" lon="9.486849095099869"><ele>21.75</ele><time>2026-04-30T07:18:37.866Z</time></trkpt><trkpt lat="40.893077248878946" lon="9.48696083478671"><ele>21.5</ele><time>2026-04-30T07:18:38.866Z</time></trkpt><trkpt lat="40.89295389291622" lon="9.48706831407677"><ele>21.25</ele><time>2026-04-30T07:18:39.865Z</time></trkpt><trkpt lat="40.89283486598379" lon="9.487156813221628"><ele>21.0</ele><time>2026-04-30T07:18:40.865Z</time></trkpt><trkpt lat="40.89272020577587" lon="9.487219695958997"><ele>20.75</ele><time>2026-04-30T07:18:41.865Z</time></trkpt><trkpt lat="40.89260871131475" lon="9.48724384267536"><ele>20.5</ele><time>2026-04-30T07:18:42.865Z</time></trkpt><trkpt lat="40.892499864462785" lon="9.487228988090626"><ele>20.25</ele><time>2026-04-30T07:18:43.865Z</time></trkpt><trkpt lat="40.89239424080055" lon="9.487175149692874"><ele>20.0</ele><time>2026-04-30T07:18:44.865Z</time></trkpt><trkpt lat="40.89230040294535" lon="9.48708561948509"><ele>20.0</ele><time>2026-04-30T07:18:45.865Z</time></trkpt><trkpt lat="40.89222682496283" lon="9.486979186806295"><ele>20.0</ele><time>2026-04-30T07:18:46.865Z</time></trkpt><trkpt lat="40.89216925947298" lon="9.48684384999839"><ele>20.0</ele><time>2026-04-30T07:18:47.865Z</time></trkpt><trkpt lat="40.892138006889304" lon="9.486688323082474"><ele>20.0</ele><time>2026-04-30T07:18:48.865Z</time></trkpt><trkpt lat="40.89213876658212" lon="9.486530151311603"><ele>20.0</ele><time>2026-04-30T07:18:49.865Z</time></trkpt><trkpt lat="40.89217799694543" lon="9.486368586375573"><ele>20.0</ele><time>2026-04-30T07:18:50.865Z</time></trkpt><trkpt lat="40.89222858763345" lon="9.486228870804643"><ele>20.0</ele><time>2026-04-30T07:18:51.865Z</time></trkpt><trkpt lat="40.892310343547344" lon="9.486110191353204"><ele>20.0</ele><time>2026-04-30T07:18:52.865Z</time></trkpt><trkpt lat="40.89241751022493" lon="9.486027872918221"><ele>19.75</ele><time>2026-04-30T07:18:53.865Z</time></trkpt><trkpt lat="40.892528478935844" lon="9.485976522268597"><ele>19.5</ele><time>2026-04-30T07:18:54.865Z</time></trkpt><trkpt lat="40.892648078346845" lon="9.485960308213782"><ele>19.25</ele><time>2026-04-30T07:18:55.865Z</time></trkpt><trkpt lat="40.89276486290051" lon="9.485990635691532"><ele>19.0</ele><time>2026-04-30T07:18:56.865Z</time></trkpt><trkpt lat="40.89287912752014" lon="9.486059973759927"><ele>19.5</ele><time>2026-04-30T07:18:57.865Z</time></trkpt><trkpt lat="40.892976484842194" lon="9.486161769040319"><ele>20.0</ele><time>2026-04-30T07:18:58.865Z</time></trkpt><trkpt lat="40.8930776561442" lon="9.486274182441019"><ele>20.5</ele><time>2026-04-30T07:18:59.865Z</time></trkpt><trkpt lat="40.89318304600946" lon="9.486408876949163"><ele>21.0</ele><time>2026-04-30T07:19:00.865Z</time></trkpt><trkpt lat="40.893295342415236" lon="9.486545382523515"><ele>21.0</ele><time>2026-04-30T07:19:01.865Z</time></trkpt><trkpt lat="40.893419090663116" lon="9.48668752168226"><ele>21.0</ele><time>2026-04-30T07:19:02.865Z</time></trkpt><trkpt lat="40.8935428051402" lon="9.486832788443724"><ele>21.0</ele><time>2026-04-30T07:19:03.864Z</time></trkpt><trkpt lat="40.89366913280014" lon="9.48697941544818"><ele>20.333333333333332</ele><time>2026-04-30T07:19:04.864Z</time></trkpt><trkpt lat="40.89380870869518" lon="9.487140834538305"><ele>19.666666666666664</ele><time>2026-04-30T07:19:05.864Z</time></trkpt><trkpt lat="40.89398033511536" lon="9.487321552776903"><ele>19.0</ele><time>2026-04-30T07:19:06.864Z</time></trkpt><trkpt lat="40.89413972406876" lon="9.48749652598359"><ele>19.0</ele><time>2026-04-30T07:19:07.864Z</time></trkpt><trkpt lat="40.894294454865076" lon="9.487678427406706"><ele>19.0</ele><time>2026-04-30T07:19:08.864Z</time></trkpt><trkpt lat="40.89444988569989" lon="9.487867109243728"><ele>19.0</ele><time>2026-04-30T07:19:09.864Z</time></trkpt><trkpt lat="40.894609113382835" lon="9.488055408216484"><ele>19.0</ele><time>2026-04-30T07:19:10.864Z</time></trkpt><trkpt lat="40.894771822043374" lon="9.488248464365874"><ele>19.0</ele><time>2026-04-30T07:19:11.864Z</time></trkpt><trkpt lat="40.89493789095" lon="9.488444717328418"><ele>19.0</ele><time>2026-04-30T07:19:12.864Z</time></trkpt><trkpt lat="40.895108221134535" lon="9.48864684396117"><ele>18.5</ele><time>2026-04-30T07:19:13.864Z</time></trkpt><trkpt lat="40.89528040849295" lon="9.488854621744252"><ele>18.0</ele><time>2026-04-30T07:19:14.864Z</time></trkpt><trkpt lat="40.89546228731143" lon="9.489070647393564"><ele>18.0</ele><time>2026-04-30T07:19:15.864Z</time></trkpt><trkpt lat="40.89564308904154" lon="9.489287369930102"><ele>18.0</ele><time>2026-04-30T07:19:16.864Z</time></trkpt><trkpt lat="40.895823766574836" lon="9.489511935229574"><ele>18.0</ele><time>2026-04-30T07:19:17.864Z</time></trkpt><trkpt lat="40.89601066426719" lon="9.489737464046593"><ele>18.0</ele><time>2026-04-30T07:19:18.864Z</time></trkpt><trkpt lat="40.896202301914464" lon="9.489963013126417"><ele>18.0</ele><time>2026-04-30T07:19:19.864Z</time></trkpt><trkpt lat="40.89639518042574" lon="9.490192863846804"><ele>18.0</ele><time>2026-04-30T07:19:20.864Z</time></trkpt><trkpt lat="40.896590959620376" lon="9.490426940831131"><ele>20.5</ele><time>2026-04-30T07:19:21.864Z</time></trkpt><trkpt lat="40.8967871446461" lon="9.490660843956608"><ele>23.0</ele><time>2026-04-30T07:19:22.864Z</time></trkpt><trkpt lat="40.89697827999362" lon="9.49088738387216"><ele>23.0</ele><time>2026-04-30T07:19:23.864Z</time></trkpt><trkpt lat="40.897168321302466" lon="9.49110000800298"><ele>23.0</ele><time>2026-04-30T07:19:24.864Z</time></trkpt><trkpt lat="40.897355246919105" lon="9.491319109649252"><ele>23.0</ele><time>2026-04-30T07:19:25.864Z</time></trkpt><trkpt lat="40.89753846330773" lon="9.491550630620115"><ele>23.0</ele><time>2026-04-30T07:19:26.863Z</time></trkpt><trkpt lat="40.89772267425186" lon="9.49178066500098"><ele>23.0</ele><time>2026-04-30T07:19:27.863Z</time></trkpt><trkpt lat="40.89791004837384" lon="9.492002956109001"><ele>23.0</ele><time>2026-04-30T07:19:28.863Z</time></trkpt><trkpt lat="40.89809364321305" lon="9.492224238034796"><ele>22.5</ele><time>2026-04-30T07:19:29.863Z</time></trkpt><trkpt lat="40.89827547048839" lon="9.492450205783516"><ele>22.0</ele><time>2026-04-30T07:19:30.863Z</time></trkpt><trkpt lat="40.8984599243504" lon="9.492674080718453"><ele>22.0</ele><time>2026-04-30T07:19:31.863Z</time></trkpt><trkpt lat="40.89863917726151" lon="9.492910156422573"><ele>22.0</ele><time>2026-04-30T07:19:32.863Z</time></trkpt><trkpt lat="40.89882093902908" lon="9.493135914447745"><ele>21.0</ele><time>2026-04-30T07:19:33.863Z</time></trkpt><trkpt lat="40.89900626787417" lon="9.493364143227813"><ele>20.0</ele><time>2026-04-30T07:19:34.863Z</time></trkpt><trkpt lat="40.89919161902976" lon="9.493591890121746"><ele>19.5</ele><time>2026-04-30T07:19:35.863Z</time></trkpt><trkpt lat="40.89937886990517" lon="9.493817208390917"><ele>19.0</ele><time>2026-04-30T07:19:36.863Z</time></trkpt><trkpt lat="40.89956637658219" lon="9.494042430413556"><ele>19.0</ele><time>2026-04-30T07:19:37.864Z</time></trkpt><trkpt lat="40.899753148782786" lon="9.494267752724989"><ele>19.0</ele><time>2026-04-30T07:19:38.864Z</time></trkpt><trkpt lat="40.89993901275925" lon="9.494496204589456"><ele>20.0</ele><time>2026-04-30T07:19:39.863Z</time></trkpt><trkpt lat="40.90012626624251" lon="9.49472338228547"><ele>21.0</ele><time>2026-04-30T07:19:40.864Z</time></trkpt><trkpt lat="40.90031202263077" lon="9.494946384837064"><ele>21.0</ele><time>2026-04-30T07:19:41.864Z</time></trkpt><trkpt lat="40.90049825797947" lon="9.495171591033353"><ele>21.0</ele><time>2026-04-30T07:19:42.864Z</time></trkpt><trkpt lat="40.900684398427536" lon="9.495398277098838"><ele>21.5</ele><time>2026-04-30T07:19:43.864Z</time></trkpt><trkpt lat="40.900870605470885" lon="9.495619076271147"><ele>22.0</ele><time>2026-04-30T07:19:44.863Z</time></trkpt><trkpt lat="40.90105545601032" lon="9.49583442628175"><ele>22.0</ele><time>2026-04-30T07:19:45.863Z</time></trkpt><trkpt lat="40.90123467978429" lon="9.496054508221695"><ele>22.0</ele><time>2026-04-30T07:19:46.863Z</time></trkpt><trkpt lat="40.901415898677854" lon="9.496270331676785"><ele>20.5</ele><time>2026-04-30T07:19:47.864Z</time></trkpt><trkpt lat="40.90159451853533" lon="9.496484441921169"><ele>19.0</ele><time>2026-04-30T07:19:48.864Z</time></trkpt><trkpt lat="40.9017739977411" lon="9.496695671489993"><ele>20.5</ele><time>2026-04-30T07:19:49.864Z</time></trkpt><trkpt lat="40.90195224051828" lon="9.496901624033468"><ele>22.0</ele><time>2026-04-30T07:19:50.863Z</time></trkpt><trkpt lat="40.90212888783841" lon="9.497104210993351"><ele>22.0</ele><time>2026-04-30T07:19:51.863Z</time></trkpt><trkpt lat="40.90230415998407" lon="9.497305570707601"><ele>22.0</ele><time>2026-04-30T07:19:52.863Z</time></trkpt><trkpt lat="40.902478560520684" lon="9.497515855469576"><ele>22.0</ele><time>2026-04-30T07:19:53.863Z</time></trkpt><trkpt lat="40.9026505261223" lon="9.49772837791284"><ele>22.0</ele><time>2026-04-30T07:19:54.863Z</time></trkpt><trkpt lat="40.90282284648268" lon="9.497939269236234"><ele>22.0</ele><time>2026-04-30T07:19:55.863Z</time></trkpt><trkpt lat="40.90299434624812" lon="9.498148084681706"><ele>22.0</ele><time>2026-04-30T07:19:56.863Z</time></trkpt><trkpt lat="40.90316516221623" lon="9.498361440502244"><ele>22.0</ele><time>2026-04-30T07:19:57.863Z</time></trkpt><trkpt lat="40.903335500103914" lon="9.498575239046898"><ele>22.0</ele><time>2026-04-30T07:19:58.863Z</time></trkpt><trkpt lat="40.90350560747713" lon="9.498799623259323"><ele>21.5</ele><time>2026-04-30T07:19:59.863Z</time></trkpt><trkpt lat="40.90367385770685" lon="9.499030149296237"><ele>21.0</ele><time>2026-04-30T07:20:00.863Z</time></trkpt><trkpt lat="40.90383932930024" lon="9.499263947226074"><ele>21.0</ele><time>2026-04-30T07:20:01.863Z</time></trkpt><trkpt lat="40.90400224589132" lon="9.499507518128226"><ele>21.0</ele><time>2026-04-30T07:20:02.863Z</time></trkpt><trkpt lat="40.90416300459945" lon="9.499754693979844"><ele>22.5</ele><time>2026-04-30T07:20:03.863Z</time></trkpt><trkpt lat="40.904321980390954" lon="9.500007838198856"><ele>24.0</ele><time>2026-04-30T07:20:04.862Z</time></trkpt><trkpt lat="40.90447308314798" lon="9.500266584267239"><ele>22.0</ele><time>2026-04-30T07:20:05.862Z</time></trkpt><trkpt lat="40.90461350509999" lon="9.500541455520318"><ele>20.0</ele><time>2026-04-30T07:20:06.862Z</time></trkpt><trkpt lat="40.90475567624852" lon="9.500818032938907"><ele>20.0</ele><time>2026-04-30T07:20:07.86Z</time></trkpt><trkpt lat="40.90490198200713" lon="9.501090863797232"><ele>20.0</ele><time>2026-04-30T07:20:08.859Z</time></trkpt><trkpt lat="40.90504649853502" lon="9.501367198191595"><ele>19.5</ele><time>2026-04-30T07:20:09.858Z</time></trkpt><trkpt lat="40.905186473321166" lon="9.501650568171183"><ele>19.0</ele><time>2026-04-30T07:20:10.857Z</time></trkpt><trkpt lat="40.90532104424216" lon="9.501947206597071"><ele>21.0</ele><time>2026-04-30T07:20:11.856Z</time></trkpt><trkpt lat="40.90545853982775" lon="9.502237430299372"><ele>23.0</ele><time>2026-04-30T07:20:12.856Z</time></trkpt><trkpt lat="40.90559344309269" lon="9.502525795531545"><ele>23.0</ele><time>2026-04-30T07:20:13.855Z</time></trkpt><trkpt lat="40.905724585685455" lon="9.502810575084345"><ele>23.0</ele><time>2026-04-30T07:20:14.854Z</time></trkpt><trkpt lat="40.90585431596044" lon="9.503089470367598"><ele>29.0</ele><time>2026-04-30T07:20:15.853Z</time></trkpt><trkpt lat="40.90598328419505" lon="9.503365145111871"><ele>35.0</ele><time>2026-04-30T07:20:16.853Z</time></trkpt><trkpt lat="40.90610813655482" lon="9.503634693905953"><ele>30.5</ele><time>2026-04-30T07:20:17.852Z</time></trkpt><trkpt lat="40.90623113526999" lon="9.503895676231679"><ele>26.0</ele><time>2026-04-30T07:20:18.851Z</time></trkpt><trkpt lat="40.90635266071473" lon="9.504156252802208"><ele>26.0</ele><time>2026-04-30T07:20:19.851Z</time></trkpt><trkpt lat="40.906471625910626" lon="9.504407492131916"><ele>26.0</ele><time>2026-04-30T07:20:20.85Z</time></trkpt><trkpt lat="40.90658904749067" lon="9.504655524684924"><ele>26.0</ele><time>2026-04-30T07:20:21.85Z</time></trkpt><trkpt lat="40.906705182907594" lon="9.50489336840693"><ele>25.0</ele><time>2026-04-30T07:20:22.849Z</time></trkpt><trkpt lat="40.90681690385362" lon="9.50513065250918"><ele>24.0</ele><time>2026-04-30T07:20:23.849Z</time></trkpt><trkpt lat="40.90692582981414" lon="9.505363139271577"><ele>23.0</ele><time>2026-04-30T07:20:24.848Z</time></trkpt><trkpt lat="40.90703394511512" lon="9.505592249691752"><ele>21.666666666666668</ele><time>2026-04-30T07:20:25.848Z</time></trkpt><trkpt lat="40.907141602014015" lon="9.505809129680802"><ele>20.333333333333332</ele><time>2026-04-30T07:20:26.848Z</time></trkpt><trkpt lat="40.907244712448005" lon="9.506008647788656"><ele>19.0</ele><time>2026-04-30T07:20:27.847Z</time></trkpt><trkpt lat="40.90734849930158" lon="9.506191973754216"><ele>18.0</ele><time>2026-04-30T07:20:28.847Z</time></trkpt><trkpt lat="40.90744852266726" lon="9.506368179796908"><ele>17.0</ele><time>2026-04-30T07:20:29.847Z</time></trkpt><trkpt lat="40.907550422662666" lon="9.506540308767642"><ele>16.0</ele><time>2026-04-30T07:20:30.846Z</time></trkpt><trkpt lat="40.907654872136135" lon="9.50670387005268"><ele>16.0</ele><time>2026-04-30T07:20:31.846Z</time></trkpt><trkpt lat="40.90776242831697" lon="9.50685940976182"><ele>16.0</ele><time>2026-04-30T07:20:32.846Z</time></trkpt><trkpt lat="40.9078789605426" lon="9.506998468915565"><ele>16.0</ele><time>2026-04-30T07:20:33.845Z</time></trkpt><trkpt lat="40.90800713975847" lon="9.507104714282395"><ele>16.0</ele><time>2026-04-30T07:20:34.845Z</time></trkpt><trkpt lat="40.908140623718694" lon="9.507203312134786"><ele>16.0</ele><time>2026-04-30T07:20:35.845Z</time></trkpt><trkpt lat="40.90827672076505" lon="9.507287193237651"><ele>16.0</ele><time>2026-04-30T07:20:36.845Z</time></trkpt><trkpt lat="40.90841854970131" lon="9.507357835912845"><ele>16.5</ele><time>2026-04-30T07:20:37.845Z</time></trkpt><trkpt lat="40.90855385966109" lon="9.50742187557783"><ele>17.0</ele><time>2026-04-30T07:20:38.844Z</time></trkpt><trkpt lat="40.908681403757974" lon="9.507481446202354"><ele>17.5</ele><time>2026-04-30T07:20:39.844Z</time></trkpt><trkpt lat="40.90880043795006" lon="9.507540937112159"><ele>18.0</ele><time>2026-04-30T07:20:40.844Z</time></trkpt><trkpt lat="40.908907258376246" lon="9.50760102920389"><ele>18.0</ele><time>2026-04-30T07:20:41.844Z</time></trkpt><trkpt lat="40.909001892394244" lon="9.50767052402894"><ele>18.0</ele><time>2026-04-30T07:20:42.844Z</time></trkpt><trkpt lat="40.909090485725564" lon="9.507752759342523"><ele>18.0</ele><time>2026-04-30T07:20:43.844Z</time></trkpt><trkpt lat="40.909156500911216" lon="9.507840377859376"><ele>18.0</ele><time>2026-04-30T07:20:44.843Z</time></trkpt><trkpt lat="40.90919479529761" lon="9.507914256699115"><ele>18.0</ele><time>2026-04-30T07:20:45.843Z</time></trkpt><trkpt lat="40.909222089286736" lon="9.507994521412998"><ele>18.0</ele><time>2026-04-30T07:20:49.843Z</time></trkpt><trkpt lat="40.90925800529892" lon="9.508068745538049"><ele>17.5</ele><time>2026-04-30T07:20:52.842Z</time></trkpt><trkpt lat="40.909292466514735" lon="9.508178751982722"><ele>17.0</ele><time>2026-04-30T07:20:55.842Z</time></trkpt><trkpt lat="40.909306924091695" lon="9.508286207911334"><ele>16.5</ele><time>2026-04-30T07:20:57.842Z</time></trkpt><trkpt lat="40.90930105254742" lon="9.508373982641617"><ele>16.0</ele><time>2026-04-30T07:20:58.842Z</time></trkpt><trkpt lat="40.909309052907155" lon="9.50847497632026"><ele>15.5</ele><time>2026-04-30T07:20:59.842Z</time></trkpt><trkpt lat="40.909261263441" lon="9.508581952232683"><ele>15.0</ele><time>2026-04-30T07:21:00.842Z</time></trkpt><trkpt lat="40.909245577736975" lon="9.508692043299778"><ele>15.0</ele><time>2026-04-30T07:21:01.842Z</time></trkpt><trkpt lat="40.90924863207666" lon="9.508815650772982"><ele>15.0</ele><time>2026-04-30T07:21:02.841Z</time></trkpt><trkpt lat="40.90926931699146" lon="9.508937191469775"><ele>15.0</ele><time>2026-04-30T07:21:03.841Z</time></trkpt><trkpt lat="40.90930457974816" lon="9.509042709585305"><ele>15.0</ele><time>2026-04-30T07:21:04.841Z</time></trkpt><trkpt lat="40.9093453739756" lon="9.509143926281858"><ele>15.0</ele><time>2026-04-30T07:21:05.841Z</time></trkpt><trkpt lat="40.90939313881354" lon="9.509237612524927"><ele>15.0</ele><time>2026-04-30T07:21:06.841Z</time></trkpt><trkpt lat="40.90944249475865" lon="9.509318116531766"><ele>15.0</ele><time>2026-04-30T07:21:07.841Z</time></trkpt><trkpt lat="40.909487394428346" lon="9.509393720182153"><ele>15.0</ele><time>2026-04-30T07:21:08.841Z</time></trkpt><trkpt lat="40.90952192492578" lon="9.509464998055165"><ele>15.0</ele><time>2026-04-30T07:21:09.841Z</time></trkpt><trkpt lat="40.90956670933364" lon="9.509590602903224"><ele>15.0</ele><time>2026-04-30T07:21:11.841Z</time></trkpt><trkpt lat="40.90958900184937" lon="9.509679126103787"><ele>15.0</ele><time>2026-04-30T07:21:13.841Z</time></trkpt><trkpt lat="40.909637822646026" lon="9.50978317198925"><ele>15.0</ele><time>2026-04-30T07:21:16.84Z</time></trkpt><trkpt lat="40.90962125988226" lon="9.509910343910384"><ele>15.333333333333334</ele><time>2026-04-30T07:21:18.84Z</time></trkpt><trkpt lat="40.90962063651724" lon="9.510016531297373"><ele>15.666666666666668</ele><time>2026-04-30T07:21:20.84Z</time></trkpt><trkpt lat="40.909614897005476" lon="9.510154330559258"><ele>16.0</ele><time>2026-04-30T07:21:22.84Z</time></trkpt><trkpt lat="40.909595298206725" lon="9.510311737408852"><ele>16.333333333333336</ele><time>2026-04-30T07:21:24.84Z</time></trkpt><trkpt lat="40.90958501949666" lon="9.510400818036732"><ele>16.666666666666668</ele><time>2026-04-30T07:21:25.84Z</time></trkpt><trkpt lat="40.90957390062979" lon="9.51049710368179"><ele>17.0</ele><time>2026-04-30T07:21:26.84Z</time></trkpt><trkpt lat="40.909562265187624" lon="9.51059662979364"><ele>16.999999999999996</ele><time>2026-04-30T07:21:27.84Z</time></trkpt><trkpt lat="40.909549973207845" lon="9.51069114036547"><ele>17.0</ele><time>2026-04-30T07:21:28.84Z</time></trkpt><trkpt lat="40.9095359074251" lon="9.51078540439362"><ele>17.0</ele><time>2026-04-30T07:21:29.84Z</time></trkpt><trkpt lat="40.909522363780134" lon="9.510879833002583"><ele>17.0</ele><time>2026-04-30T07:21:30.84Z</time></trkpt><trkpt lat="40.90951083436023" lon="9.51097134586435"><ele>17.0</ele><time>2026-04-30T07:21:31.84Z</time></trkpt><trkpt lat="40.90950144896223" lon="9.511061545823317"><ele>16.999999999999996</ele><time>2026-04-30T07:21:32.84Z</time></trkpt><trkpt lat="40.90949145056231" lon="9.511153894601188"><ele>17.0</ele><time>2026-04-30T07:21:33.84Z</time></trkpt><trkpt lat="40.90948048850596" lon="9.51124674190777"><ele>17.0</ele><time>2026-04-30T07:21:34.839Z</time></trkpt><trkpt lat="40.90946892973087" lon="9.511338390197055"><ele>17.0</ele><time>2026-04-30T07:21:35.839Z</time></trkpt><trkpt lat="40.90945882876206" lon="9.511422518467564"><ele>17.0</ele><time>2026-04-30T07:21:36.839Z</time></trkpt><trkpt lat="40.90944068764504" lon="9.511551264643625"><ele>17.0</ele><time>2026-04-30T07:21:38.839Z</time></trkpt><trkpt lat="40.909423394741715" lon="9.5116492147396"><ele>17.0</ele><time>2026-04-30T07:21:40.839Z</time></trkpt><trkpt lat="40.90940265276752" lon="9.51177714425502"><ele>17.0</ele><time>2026-04-30T07:21:42.841Z</time></trkpt><trkpt lat="40.90935426874808" lon="9.51193875493619"><ele>17.0</ele><time>2026-04-30T07:21:44.84Z</time></trkpt><trkpt lat="40.90932720065402" lon="9.512026731729064"><ele>17.0</ele><time>2026-04-30T07:21:45.84Z</time></trkpt><trkpt lat="40.909300238206214" lon="9.512119233196147"><ele>17.0</ele><time>2026-04-30T07:21:46.84Z</time></trkpt><trkpt lat="40.90928360246102" lon="9.51222068048836"><ele>17.0</ele><time>2026-04-30T07:21:47.84Z</time></trkpt><trkpt lat="40.909276450627374" lon="9.512323155877283"><ele>17.0</ele><time>2026-04-30T07:21:48.841Z</time></trkpt><trkpt lat="40.909274889811584" lon="9.512429723293875"><ele>17.0</ele><time>2026-04-30T07:21:49.84Z</time></trkpt><trkpt lat="40.909274206765" lon="9.512544418254716"><ele>17.2</ele><time>2026-04-30T07:21:50.84Z</time></trkpt><trkpt lat="40.909267443736084" lon="9.512661471436582"><ele>17.4</ele><time>2026-04-30T07:21:51.841Z</time></trkpt><trkpt lat="40.90925813960642" lon="9.512783521955118"><ele>17.6</ele><time>2026-04-30T07:21:52.84Z</time></trkpt><trkpt lat="40.909248575247574" lon="9.512903769213494"><ele>17.8</ele><time>2026-04-30T07:21:53.84Z</time></trkpt><trkpt lat="40.90923892155025" lon="9.513024626636795"><ele>18.0</ele><time>2026-04-30T07:21:54.84Z</time></trkpt><trkpt lat="40.90922504964482" lon="9.513150325538021"><ele>17.8</ele><time>2026-04-30T07:21:55.84Z</time></trkpt><trkpt lat="40.90921163274009" lon="9.513283044497104"><ele>17.6</ele><time>2026-04-30T07:21:56.84Z</time></trkpt><trkpt lat="40.909200013125854" lon="9.513402748561488"><ele>17.4</ele><time>2026-04-30T07:21:57.84Z</time></trkpt><trkpt lat="40.90918697322402" lon="9.513506703198187"><ele>17.2</ele><time>2026-04-30T07:21:58.84Z</time></trkpt><trkpt lat="40.909174656488894" lon="9.513593307861054"><ele>17.0</ele><time>2026-04-30T07:21:59.84Z</time></trkpt><trkpt lat="40.90913402778729" lon="9.513740939529136"><ele>17.0</ele><time>2026-04-30T07:22:01.84Z</time></trkpt><trkpt lat="40.90909543592282" lon="9.51380835688389"><ele>17.0</ele><time>2026-04-30T07:22:02.84Z</time></trkpt><trkpt lat="40.90904181009943" lon="9.513863846262005"><ele>17.0</ele><time>2026-04-30T07:22:03.84Z</time></trkpt><trkpt lat="40.90897256764087" lon="9.513910432810317"><ele>17.0</ele><time>2026-04-30T07:22:04.84Z</time></trkpt><trkpt lat="40.90890226597304" lon="9.51393341664447"><ele>17.0</ele><time>2026-04-30T07:22:05.84Z</time></trkpt><trkpt lat="40.908804986735866" lon="9.513990400867806"><ele>17.0</ele><time>2026-04-30T07:22:07.839Z</time></trkpt><trkpt lat="40.90875343247754" lon="9.514138504364574"><ele>17.0</ele><time>2026-04-30T07:22:09.839Z</time></trkpt><trkpt lat="40.908751191216616" lon="9.514230617156564"><ele>17.0</ele><time>2026-04-30T07:22:10.839Z</time></trkpt><trkpt lat="40.90876716108521" lon="9.514328886560278"><ele>17.0</ele><time>2026-04-30T07:22:11.839Z</time></trkpt><trkpt lat="40.908797758316474" lon="9.514434498244444"><ele>17.0</ele><time>2026-04-30T07:22:12.839Z</time></trkpt><trkpt lat="40.90882950771598" lon="9.51455350424381"><ele>17.0</ele><time>2026-04-30T07:22:13.839Z</time></trkpt><trkpt lat="40.90884824475674" lon="9.514672271829784"><ele>17.0</ele><time>2026-04-30T07:22:14.839Z</time></trkpt><trkpt lat="40.90884625334304" lon="9.514790263025546"><ele>17.0</ele><time>2026-04-30T07:22:15.839Z</time></trkpt><trkpt lat="40.90882691259545" lon="9.514894875064964"><ele>17.0</ele><time>2026-04-30T07:22:16.839Z</time></trkpt><trkpt lat="40.90880444988981" lon="9.514999230822532"><ele>17.0</ele><time>2026-04-30T07:22:17.839Z</time></trkpt><trkpt lat="40.908784726079624" lon="9.515113132899398"><ele>17.0</ele><time>2026-04-30T07:22:18.839Z</time></trkpt><trkpt lat="40.908770705069465" lon="9.515231502062536"><ele>17.0</ele><time>2026-04-30T07:22:19.839Z</time></trkpt><trkpt lat="40.908760181642045" lon="9.51535505868168"><ele>17.0</ele><time>2026-04-30T07:22:20.839Z</time></trkpt><trkpt lat="40.90874578046526" lon="9.51548339907689"><ele>17.0</ele><time>2026-04-30T07:22:21.839Z</time></trkpt><trkpt lat="40.90873412869983" lon="9.515610616500998"><ele>17.0</ele><time>2026-04-30T07:22:22.839Z</time></trkpt><trkpt lat="40.90872201855673" lon="9.515740478058452"><ele>17.0</ele><time>2026-04-30T07:22:23.839Z</time></trkpt><trkpt lat="40.90870958556594" lon="9.515875936622177"><ele>17.0</ele><time>2026-04-30T07:22:24.839Z</time></trkpt><trkpt lat="40.90869493379201" lon="9.516007186925403"><ele>17.0</ele><time>2026-04-30T07:22:25.839Z</time></trkpt><trkpt lat="40.90868197259362" lon="9.51613813864377"><ele>16.4</ele><time>2026-04-30T07:22:26.839Z</time></trkpt><trkpt lat="40.90867328220009" lon="9.516273314093032"><ele>15.799999999999999</ele><time>2026-04-30T07:22:27.839Z</time></trkpt><trkpt lat="40.908662984459625" lon="9.516412458945728"><ele>15.2</ele><time>2026-04-30T07:22:28.838Z</time></trkpt><trkpt lat="40.908655218879275" lon="9.516555107838968"><ele>14.6</ele><time>2026-04-30T07:22:29.838Z</time></trkpt><trkpt lat="40.90865140392039" lon="9.516688144362643"><ele>14.0</ele><time>2026-04-30T07:22:30.838Z</time></trkpt><trkpt lat="40.908642044079954" lon="9.516810216242641"><ele>14.0</ele><time>2026-04-30T07:22:31.838Z</time></trkpt><trkpt lat="40.90862871942907" lon="9.516930280879073"><ele>13.999999999999998</ele><time>2026-04-30T07:22:32.838Z</time></trkpt><trkpt lat="40.90860421833912" lon="9.517046172762292"><ele>13.999999999999998</ele><time>2026-04-30T07:22:33.838Z</time></trkpt><trkpt lat="40.90856710005523" lon="9.517148213944788"><ele>14.0</ele><time>2026-04-30T07:22:34.838Z</time></trkpt><trkpt lat="40.90852662395244" lon="9.517243183903524"><ele>14.0</ele><time>2026-04-30T07:22:35.838Z</time></trkpt><trkpt lat="40.90848777451886" lon="9.517368003015163"><ele>13.833333333333334</ele><time>2026-04-30T07:22:37.838Z</time></trkpt><trkpt lat="40.90850946572052" lon="9.51746085717884"><ele>13.666666666666668</ele><time>2026-04-30T07:22:39.838Z</time></trkpt><trkpt lat="40.90856443478681" lon="9.51754020826706"><ele>13.5</ele><time>2026-04-30T07:22:41.838Z</time></trkpt><trkpt lat="40.90862155565737" lon="9.517600712699032"><ele>13.333333333333332</ele><time>2026-04-30T07:22:43.838Z</time></trkpt><trkpt lat="40.90869631964022" lon="9.517701471851687"><ele>13.166666666666666</ele><time>2026-04-30T07:22:45.838Z</time></trkpt><trkpt lat="40.908736810292666" lon="9.517826615696803"><ele>13.0</ele><time>2026-04-30T07:22:47.838Z</time></trkpt><trkpt lat="40.90874567342628" lon="9.517960275580094"><ele>12.200000000000001</ele><time>2026-04-30T07:22:49.838Z</time></trkpt><trkpt lat="40.90874327859457" lon="9.518118709910738"><ele>11.4</ele><time>2026-04-30T07:22:51.837Z</time></trkpt><trkpt lat="40.90874077862498" lon="9.518214514911744"><ele>10.600000000000001</ele><time>2026-04-30T07:22:52.837Z</time></trkpt><trkpt lat="40.908732425299654" lon="9.518328544256912"><ele>9.8</ele><time>2026-04-30T07:22:53.837Z</time></trkpt><trkpt lat="40.90872356677282" lon="9.518450050888964"><ele>9.0</ele><time>2026-04-30T07:22:54.837Z</time></trkpt><trkpt lat="40.90871337289358" lon="9.518576841841382"><ele>9.0</ele><time>2026-04-30T07:22:55.837Z</time></trkpt><trkpt lat="40.90870255974693" lon="9.5187017694135"><ele>9.0</ele><time>2026-04-30T07:22:56.837Z</time></trkpt><trkpt lat="40.90868944576411" lon="9.51882479172646"><ele>9.0</ele><time>2026-04-30T07:22:57.837Z</time></trkpt><trkpt lat="40.908676272513745" lon="9.518945829339012"><ele>9.0</ele><time>2026-04-30T07:22:58.837Z</time></trkpt><trkpt lat="40.90866474579703" lon="9.51906465724503"><ele>9.0</ele><time>2026-04-30T07:22:59.837Z</time></trkpt><trkpt lat="40.90865266950285" lon="9.519179133359218"><ele>8.833333333333334</ele><time>2026-04-30T07:23:00.837Z</time></trkpt><trkpt lat="40.908640365403926" lon="9.51928514554848"><ele>8.666666666666666</ele><time>2026-04-30T07:23:01.837Z</time></trkpt><trkpt lat="40.90862681731204" lon="9.519400256145842"><ele>8.5</ele><time>2026-04-30T07:23:02.837Z</time></trkpt><trkpt lat="40.908615306110185" lon="9.519513084315703"><ele>8.333333333333332</ele><time>2026-04-30T07:23:03.837Z</time></trkpt><trkpt lat="40.908604347980905" lon="9.519619258930467"><ele>8.166666666666666</ele><time>2026-04-30T07:23:04.837Z</time></trkpt><trkpt lat="40.908594525547976" lon="9.519722951515655"><ele>8.0</ele><time>2026-04-30T07:23:05.837Z</time></trkpt><trkpt lat="40.90858472721747" lon="9.51982263170037"><ele>7.999999999999999</ele><time>2026-04-30T07:23:06.837Z</time></trkpt><trkpt lat="40.90857355138137" lon="9.519926147691018"><ele>8.0</ele><time>2026-04-30T07:23:07.837Z</time></trkpt><trkpt lat="40.90856135111657" lon="9.52002904657405"><ele>8.0</ele><time>2026-04-30T07:23:08.837Z</time></trkpt><trkpt lat="40.90854755467496" lon="9.52013680021615"><ele>8.0</ele><time>2026-04-30T07:23:09.837Z</time></trkpt><trkpt lat="40.90853495728093" lon="9.52024622836355"><ele>7.999999999999999</ele><time>2026-04-30T07:23:10.837Z</time></trkpt><trkpt lat="40.908524711806045" lon="9.520359964468229"><ele>8.0</ele><time>2026-04-30T07:23:11.836Z</time></trkpt><trkpt lat="40.908513006756245" lon="9.52048293152395"><ele>8.0</ele><time>2026-04-30T07:23:12.836Z</time></trkpt><trkpt lat="40.90850257260914" lon="9.520606248844869"><ele>8.0</ele><time>2026-04-30T07:23:13.836Z</time></trkpt><trkpt lat="40.90848806841534" lon="9.520739871677778"><ele>8.0</ele><time>2026-04-30T07:23:14.836Z</time></trkpt><trkpt lat="40.908472019236264" lon="9.52087280808679"><ele>8.0</ele><time>2026-04-30T07:23:15.836Z</time></trkpt><trkpt lat="40.90845052506051" lon="9.52101104080681"><ele>8.0</ele><time>2026-04-30T07:23:16.836Z</time></trkpt><trkpt lat="40.90841144065027" lon="9.521149416952134"><ele>8.0</ele><time>2026-04-30T07:23:17.836Z</time></trkpt><trkpt lat="40.90836010048552" lon="9.521280656898657"><ele>8.0</ele><time>2026-04-30T07:23:18.836Z</time></trkpt><trkpt lat="40.9082962391947" lon="9.52140336136045"><ele>8.0</ele><time>2026-04-30T07:23:19.836Z</time></trkpt><trkpt lat="40.908232688609516" lon="9.521521582554358"><ele>8.0</ele><time>2026-04-30T07:23:20.836Z</time></trkpt><trkpt lat="40.90818438475114" lon="9.521649286482056"><ele>8.0</ele><time>2026-04-30T07:23:21.836Z</time></trkpt><trkpt lat="40.90816016942586" lon="9.521777231858332"><ele>8.0</ele><time>2026-04-30T07:23:22.836Z</time></trkpt><trkpt lat="40.90816414274098" lon="9.521914539011279"><ele>8.0</ele><time>2026-04-30T07:23:23.836Z</time></trkpt><trkpt lat="40.9081961964006" lon="9.522060089914788"><ele>8.0</ele><time>2026-04-30T07:23:24.836Z</time></trkpt><trkpt lat="40.90823714369523" lon="9.522205086621156"><ele>8.0</ele><time>2026-04-30T07:23:25.836Z</time></trkpt><trkpt lat="40.90826691059513" lon="9.522366469200616"><ele>8.0</ele><time>2026-04-30T07:23:26.836Z</time></trkpt><trkpt lat="40.9083062304731" lon="9.522527017104817"><ele>8.0</ele><time>2026-04-30T07:23:27.836Z</time></trkpt><trkpt lat="40.908270560611996" lon="9.52274191612614"><ele>8.0</ele><time>2026-04-30T07:23:28.836Z</time></trkpt><trkpt lat="40.90825926787027" lon="9.52294429891286"><ele>8.0</ele><time>2026-04-30T07:23:29.836Z</time></trkpt><trkpt lat="40.90824053822856" lon="9.523155530666406"><ele>8.4</ele><time>2026-04-30T07:23:30.836Z</time></trkpt><trkpt lat="40.90822143446333" lon="9.523348000859622"><ele>8.8</ele><time>2026-04-30T07:23:31.836Z</time></trkpt><trkpt lat="40.908198484315285" lon="9.523503533835319"><ele>9.2</ele><time>2026-04-30T07:23:32.835Z</time></trkpt><trkpt lat="40.90818347720584" lon="9.523634287367502"><ele>9.6</ele><time>2026-04-30T07:23:33.835Z</time></trkpt><trkpt lat="40.90817391147704" lon="9.523731194980638"><ele>10.0</ele><time>2026-04-30T07:23:34.835Z</time></trkpt><trkpt lat="40.90816194103155" lon="9.523825126933755"><ele>10.6</ele><time>2026-04-30T07:23:36.835Z</time></trkpt><trkpt lat="40.908155715476695" lon="9.523949047162155"><ele>11.2</ele><time>2026-04-30T07:23:40.835Z</time></trkpt><trkpt lat="40.90813999067085" lon="9.52412281960133"><ele>11.8</ele><time>2026-04-30T07:23:42.835Z</time></trkpt><trkpt lat="40.90813024694259" lon="9.524252626109455"><ele>12.4</ele><time>2026-04-30T07:23:43.835Z</time></trkpt><trkpt lat="40.90811548251435" lon="9.524400618729365"><ele>13.0</ele><time>2026-04-30T07:23:44.835Z</time></trkpt><trkpt lat="40.908101462149475" lon="9.524569875572537"><ele>13.0</ele><time>2026-04-30T07:23:45.835Z</time></trkpt><trkpt lat="40.90808403293796" lon="9.52475780596451"><ele>13.0</ele><time>2026-04-30T07:23:46.835Z</time></trkpt><trkpt lat="40.9080631357534" lon="9.524960876522853"><ele>13.0</ele><time>2026-04-30T07:23:47.835Z</time></trkpt><trkpt lat="40.90804015665581" lon="9.525176197842448"><ele>13.0</ele><time>2026-04-30T07:23:48.836Z</time></trkpt><trkpt lat="40.90801612768343" lon="9.525401508920813"><ele>13.0</ele><time>2026-04-30T07:23:49.836Z</time></trkpt><trkpt lat="40.90799408682734" lon="9.525631923959397"><ele>13.0</ele><time>2026-04-30T07:23:50.836Z</time></trkpt><trkpt lat="40.907971757220324" lon="9.525849823530223"><ele>13.0</ele><time>2026-04-30T07:23:51.836Z</time></trkpt><trkpt lat="40.9079480540451" lon="9.526060345360081"><ele>13.0</ele><time>2026-04-30T07:23:52.836Z</time></trkpt><trkpt lat="40.90792602907793" lon="9.52625722379495"><ele>13.0</ele><time>2026-04-30T07:23:53.836Z</time></trkpt><trkpt lat="40.907906683672174" lon="9.5264442430192"><ele>13.0</ele><time>2026-04-30T07:23:54.836Z</time></trkpt><trkpt lat="40.907888129352514" lon="9.526631245895965"><ele>13.0</ele><time>2026-04-30T07:23:55.836Z</time></trkpt><trkpt lat="40.90786865744759" lon="9.526826883108832"><ele>13.0</ele><time>2026-04-30T07:23:56.836Z</time></trkpt><trkpt lat="40.90785101410407" lon="9.527033457136524"><ele>13.0</ele><time>2026-04-30T07:23:57.836Z</time></trkpt><trkpt lat="40.907837514993794" lon="9.527245277237006"><ele>12.0</ele><time>2026-04-30T07:23:58.835Z</time></trkpt><trkpt lat="40.90782241060298" lon="9.527454429221006"><ele>11.0</ele><time>2026-04-30T07:23:59.835Z</time></trkpt><trkpt lat="40.907817845548216" lon="9.527667996264922"><ele>10.0</ele><time>2026-04-30T07:24:00.835Z</time></trkpt><trkpt lat="40.90782144439143" lon="9.527881131242015"><ele>9.333333333333334</ele><time>2026-04-30T07:24:01.835Z</time></trkpt><trkpt lat="40.907839953973394" lon="9.528097139079652"><ele>8.666666666666666</ele><time>2026-04-30T07:24:02.835Z</time></trkpt><trkpt lat="40.907872347287096" lon="9.52831344439348"><ele>8.0</ele><time>2026-04-30T07:24:03.835Z</time></trkpt><trkpt lat="40.90791562731353" lon="9.528527380759009"><ele>7.666666666666666</ele><time>2026-04-30T07:24:04.835Z</time></trkpt><trkpt lat="40.907962519583315" lon="9.52873993145328"><ele>7.333333333333334</ele><time>2026-04-30T07:24:05.835Z</time></trkpt><trkpt lat="40.908009505456796" lon="9.528956335565795"><ele>7.0</ele><time>2026-04-30T07:24:06.835Z</time></trkpt><trkpt lat="40.908057999260144" lon="9.529180816655746"><ele>7.0</ele><time>2026-04-30T07:24:07.835Z</time></trkpt><trkpt lat="40.90810489909157" lon="9.529408228682378"><ele>7.0</ele><time>2026-04-30T07:24:08.835Z</time></trkpt><trkpt lat="40.90815307893844" lon="9.529642611400416"><ele>7.0</ele><time>2026-04-30T07:24:09.835Z</time></trkpt><trkpt lat="40.908200797466804" lon="9.529876861081823"><ele>7.0</ele><time>2026-04-30T07:24:10.835Z</time></trkpt><trkpt lat="40.90825121347515" lon="9.530110276127804"><ele>7.0</ele><time>2026-04-30T07:24:11.835Z</time></trkpt><trkpt lat="40.90829988200381" lon="9.53034876557253"><ele>7.0</ele><time>2026-04-30T07:24:12.834Z</time></trkpt><trkpt lat="40.90834868163206" lon="9.530583170484181"><ele>8.0</ele><time>2026-04-30T07:24:13.834Z</time></trkpt><trkpt lat="40.908393782105286" lon="9.530809522713023"><ele>9.0</ele><time>2026-04-30T07:24:14.834Z</time></trkpt><trkpt lat="40.90843985547492" lon="9.531021675806876"><ele>10.0</ele><time>2026-04-30T07:24:15.834Z</time></trkpt><trkpt lat="40.90848118435577" lon="9.531228941407818"><ele>10.333333333333334</ele><time>2026-04-30T07:24:16.834Z</time></trkpt><trkpt lat="40.908525275059205" lon="9.531434320459473"><ele>10.666666666666666</ele><time>2026-04-30T07:24:17.834Z</time></trkpt><trkpt lat="40.90856835646583" lon="9.531641431943992"><ele>11.0</ele><time>2026-04-30T07:24:18.834Z</time></trkpt><trkpt lat="40.908613700231705" lon="9.531849686277985"><ele>11.333333333333332</ele><time>2026-04-30T07:24:19.834Z</time></trkpt><trkpt lat="40.90866057227072" lon="9.53206457496403"><ele>11.666666666666666</ele><time>2026-04-30T07:24:20.834Z</time></trkpt><trkpt lat="40.90870644734" lon="9.5322792173307"><ele>12.0</ele><time>2026-04-30T07:24:21.834Z</time></trkpt><trkpt lat="40.90875491403443" lon="9.532500394551427"><ele>12.0</ele><time>2026-04-30T07:24:22.834Z</time></trkpt><trkpt lat="40.90880358901603" lon="9.532729814821794"><ele>12.0</ele><time>2026-04-30T07:24:23.834Z</time></trkpt><trkpt lat="40.908856219623" lon="9.532962344744446"><ele>12.0</ele><time>2026-04-30T07:24:24.834Z</time></trkpt><trkpt lat="40.90890600849942" lon="9.533190622230565"><ele>12.666666666666668</ele><time>2026-04-30T07:24:25.834Z</time></trkpt><trkpt lat="40.908953257078565" lon="9.533421973445467"><ele>13.333333333333334</ele><time>2026-04-30T07:24:26.834Z</time></trkpt><trkpt lat="40.90899454566613" lon="9.533653037057267"><ele>14.0</ele><time>2026-04-30T07:24:27.834Z</time></trkpt><trkpt lat="40.909023995917046" lon="9.533886411249304"><ele>14.666666666666668</ele><time>2026-04-30T07:24:28.834Z</time></trkpt><trkpt lat="40.909036269104746" lon="9.534117607113584"><ele>15.333333333333332</ele><time>2026-04-30T07:24:29.834Z</time></trkpt><trkpt lat="40.909027856344906" lon="9.534351023497505"><ele>16.0</ele><time>2026-04-30T07:24:30.834Z</time></trkpt><trkpt lat="40.9090053219582" lon="9.534585194719865"><ele>16.0</ele><time>2026-04-30T07:24:31.834Z</time></trkpt><trkpt lat="40.90895829597119" lon="9.534814679931872"><ele>16.0</ele><time>2026-04-30T07:24:32.834Z</time></trkpt><trkpt lat="40.908889658575696" lon="9.535029782602948"><ele>16.0</ele><time>2026-04-30T07:24:33.833Z</time></trkpt><trkpt lat="40.90880914562332" lon="9.535238042112486"><ele>14.0</ele><time>2026-04-30T07:24:34.833Z</time></trkpt><trkpt lat="40.90871403776313" lon="9.535433185309499"><ele>12.0</ele><time>2026-04-30T07:24:35.833Z</time></trkpt><trkpt lat="40.90859937469994" lon="9.535618977587067"><ele>10.0</ele><time>2026-04-30T07:24:36.833Z</time></trkpt><trkpt lat="40.908472446843625" lon="9.535789674599577"><ele>8.0</ele><time>2026-04-30T07:24:37.833Z</time></trkpt><trkpt lat="40.90833768057017" lon="9.535937052213066"><ele>6.0</ele><time>2026-04-30T07:24:38.833Z</time></trkpt><trkpt lat="40.9081918053186" lon="9.536071111938737"><ele>4.0</ele><time>2026-04-30T07:24:39.833Z</time></trkpt><trkpt lat="40.908026730580204" lon="9.536174041838601"><ele>3.0</ele><time>2026-04-30T07:24:40.833Z</time></trkpt><trkpt lat="40.90786020723674" lon="9.536264178090702"><ele>2.0</ele><time>2026-04-30T07:24:41.833Z</time></trkpt><trkpt lat="40.907691022495285" lon="9.536351271975626"><ele>1.0</ele><time>2026-04-30T07:24:42.833Z</time></trkpt><trkpt lat="40.90751572919218" lon="9.536385850005344"><ele>1.0</ele><time>2026-04-30T07:24:43.833Z</time></trkpt><trkpt lat="40.90734008074295" lon="9.536403161176386"><ele>1.0</ele><time>2026-04-30T07:24:44.833Z</time></trkpt><trkpt lat="40.90716394358655" lon="9.536394877012622"><ele>1.0</ele><time>2026-04-30T07:24:45.833Z</time></trkpt><trkpt lat="40.90698959475868" lon="9.536367977130649"><ele>1.0</ele><time>2026-04-30T07:24:46.833Z</time></trkpt><trkpt lat="40.90682552576116" lon="9.536321047505442"><ele>1.0</ele><time>2026-04-30T07:24:47.833Z</time></trkpt><trkpt lat="40.90668011416198" lon="9.536258974007708"><ele>1.0</ele><time>2026-04-30T07:24:48.833Z</time></trkpt><trkpt lat="40.90654500631486" lon="9.536192228301111"><ele>0.75</ele><time>2026-04-30T07:24:49.833Z</time></trkpt><trkpt lat="40.90642001949753" lon="9.536127857719437"><ele>0.5</ele><time>2026-04-30T07:24:50.833Z</time></trkpt><trkpt lat="40.90629924893588" lon="9.536078685632814"><ele>0.25</ele><time>2026-04-30T07:24:51.833Z</time></trkpt><trkpt lat="40.906175573646514" lon="9.536055212309792"><ele>0.0</ele><time>2026-04-30T07:24:52.833Z</time></trkpt><trkpt lat="40.90605382588915" lon="9.536035808428474"><ele>0.0</ele><time>2026-04-30T07:24:53.833Z</time></trkpt><trkpt lat="40.90592898226437" lon="9.536033794042227"><ele>0.0</ele><time>2026-04-30T07:24:54.832Z</time></trkpt><trkpt lat="40.90580464847817" lon="9.53604233337557"><ele>0.0</ele><time>2026-04-30T07:24:55.832Z</time></trkpt><trkpt lat="40.905680466781625" lon="9.536061006417166"><ele>0.0</ele><time>2026-04-30T07:24:56.832Z</time></trkpt><trkpt lat="40.90555803860624" lon="9.536088843181071"><ele>0.25</ele><time>2026-04-30T07:24:57.832Z</time></trkpt><trkpt lat="40.905434311786124" lon="9.536129974491878"><ele>0.5</ele><time>2026-04-30T07:24:58.832Z</time></trkpt><trkpt lat="40.90531435418635" lon="9.536182788324954"><ele>0.75</ele><time>2026-04-30T07:24:59.832Z</time></trkpt><trkpt lat="40.905192696129554" lon="9.5362479752821"><ele>1.0</ele><time>2026-04-30T07:25:00.832Z</time></trkpt><trkpt lat="40.905072450695044" lon="9.536326784673186"><ele>1.25</ele><time>2026-04-30T07:25:01.832Z</time></trkpt><trkpt lat="40.90495984659138" lon="9.536426415808894"><ele>1.5</ele><time>2026-04-30T07:25:02.832Z</time></trkpt><trkpt lat="40.90485490996564" lon="9.536533679933944"><ele>1.75</ele><time>2026-04-30T07:25:03.832Z</time></trkpt><trkpt lat="40.90475642359219" lon="9.536648102077022"><ele>2.0</ele><time>2026-04-30T07:25:04.832Z</time></trkpt><trkpt lat="40.90466836155869" lon="9.53676160886763"><ele>2.0</ele><time>2026-04-30T07:25:05.832Z</time></trkpt><trkpt lat="40.904583634290255" lon="9.536871339041666"><ele>2.0</ele><time>2026-04-30T07:25:06.832Z</time></trkpt><trkpt lat="40.90449564577998" lon="9.536984970480546"><ele>2.0</ele><time>2026-04-30T07:25:07.832Z</time></trkpt><trkpt lat="40.90440400844794" lon="9.53709774301728"><ele>2.0</ele><time>2026-04-30T07:25:08.832Z</time></trkpt><trkpt lat="40.904321154352324" lon="9.537200792796854"><ele>1.9999999999999998</ele><time>2026-04-30T07:25:09.832Z</time></trkpt><trkpt lat="40.90424819429657" lon="9.537293847370517"><ele>2.0</ele><time>2026-04-30T07:25:10.832Z</time></trkpt><trkpt lat="40.904185782326785" lon="9.537369744124188"><ele>2.0</ele><time>2026-04-30T07:25:11.832Z</time></trkpt><trkpt lat="40.9041358684513" lon="9.53743500548681"><ele>2.0</ele><time>2026-04-30T07:25:12.832Z</time></trkpt><trkpt lat="40.904089421246496" lon="9.537497562569266"><ele>1.9999999999999998</ele><time>2026-04-30T07:25:13.832Z</time></trkpt><trkpt lat="40.90400578506209" lon="9.537620586284849"><ele>2.0</ele><time>2026-04-30T07:25:15.831Z</time></trkpt><trkpt lat="40.90395821329418" lon="9.53768397775888"><ele>1.9999999999999998</ele><time>2026-04-30T07:25:16.831Z</time></trkpt><trkpt lat="40.903908059580665" lon="9.537757024379717"><ele>2.0</ele><time>2026-04-30T07:25:17.831Z</time></trkpt><trkpt lat="40.903852205101764" lon="9.53784135833834"><ele>2.0</ele><time>2026-04-30T07:25:18.831Z</time></trkpt><trkpt lat="40.90378849752" lon="9.53792267493503"><ele>2.0</ele><time>2026-04-30T07:25:19.831Z</time></trkpt><trkpt lat="40.90372077296454" lon="9.538014283733116"><ele>1.9999999999999998</ele><time>2026-04-30T07:25:20.831Z</time></trkpt><trkpt lat="40.90364929575382" lon="9.53810813107931"><ele>2.0</ele><time>2026-04-30T07:25:21.831Z</time></trkpt><trkpt lat="40.90357523639704" lon="9.538207003232209"><ele>1.8</ele><time>2026-04-30T07:25:22.831Z</time></trkpt><trkpt lat="40.90349736355186" lon="9.538315681559958"><ele>1.6</ele><time>2026-04-30T07:25:23.831Z</time></trkpt><trkpt lat="40.90342486923877" lon="9.538420611524803"><ele>1.4000000000000001</ele><time>2026-04-30T07:25:24.831Z</time></trkpt><trkpt lat="40.90334680958824" lon="9.538518190310004"><ele>1.2000000000000002</ele><time>2026-04-30T07:25:25.831Z</time></trkpt><trkpt lat="40.903272105800916" lon="9.538619249292365"><ele>1.0</ele><time>2026-04-30T07:25:26.831Z</time></trkpt><trkpt lat="40.90319182585057" lon="9.538725193946956"><ele>1.5</ele><time>2026-04-30T07:25:27.831Z</time></trkpt><trkpt lat="40.90311252379519" lon="9.538829148371937"><ele>2.0</ele><time>2026-04-30T07:25:28.831Z</time></trkpt><trkpt lat="40.90303751723464" lon="9.53893812593248"><ele>2.5</ele><time>2026-04-30T07:25:29.831Z</time></trkpt><trkpt lat="40.90295485639551" lon="9.539046517615562"><ele>3.0</ele><time>2026-04-30T07:25:30.831Z</time></trkpt><trkpt lat="40.902870315456" lon="9.539160180234786"><ele>3.0</ele><time>2026-04-30T07:25:31.831Z</time></trkpt><trkpt lat="40.90278731218087" lon="9.539285363122586"><ele>3.0</ele><time>2026-04-30T07:25:32.831Z</time></trkpt><trkpt lat="40.90268811168512" lon="9.539411346187126"><ele>3.0</ele><time>2026-04-30T07:25:33.831Z</time></trkpt><trkpt lat="40.90258891321012" lon="9.53954894263845"><ele>3.0</ele><time>2026-04-30T07:25:34.831Z</time></trkpt><trkpt lat="40.902489861351526" lon="9.539677417193577"><ele>3.5</ele><time>2026-04-30T07:25:35.831Z</time></trkpt><trkpt lat="40.90239574145621" lon="9.539810281926965"><ele>4.0</ele><time>2026-04-30T07:25:36.83Z</time></trkpt><trkpt lat="40.90229376613126" lon="9.53994812947003"><ele>4.5</ele><time>2026-04-30T07:25:37.83Z</time></trkpt><trkpt lat="40.90218742539698" lon="9.54008869108739"><ele>5.0</ele><time>2026-04-30T07:25:38.83Z</time></trkpt><trkpt lat="40.90208713527372" lon="9.540227395726166"><ele>5.0</ele><time>2026-04-30T07:25:39.83Z</time></trkpt><trkpt lat="40.90198293064086" lon="9.540365196101165"><ele>5.0</ele><time>2026-04-30T07:25:40.83Z</time></trkpt><trkpt lat="40.90187749672384" lon="9.540502344291586"><ele>5.0</ele><time>2026-04-30T07:25:41.83Z</time></trkpt><trkpt lat="40.901767035660356" lon="9.540642605464067"><ele>5.0</ele><time>2026-04-30T07:25:42.83Z</time></trkpt><trkpt lat="40.90165325491877" lon="9.540791441026142"><ele>4.75</ele><time>2026-04-30T07:25:43.83Z</time></trkpt><trkpt lat="40.90154228502429" lon="9.540932788830778"><ele>4.5</ele><time>2026-04-30T07:25:44.83Z</time></trkpt><trkpt lat="40.901435586523604" lon="9.541073995104638"><ele>4.25</ele><time>2026-04-30T07:25:45.83Z</time></trkpt><trkpt lat="40.90133566359157" lon="9.541202387700425"><ele>4.0</ele><time>2026-04-30T07:25:46.83Z</time></trkpt><trkpt lat="40.90124726489721" lon="9.541326128783899"><ele>3.75</ele><time>2026-04-30T07:25:47.83Z</time></trkpt><trkpt lat="40.90116046891198" lon="9.541441053154166"><ele>3.5</ele><time>2026-04-30T07:25:48.83Z</time></trkpt><trkpt lat="40.90107628220467" lon="9.541546626091286"><ele>3.25</ele><time>2026-04-30T07:25:49.83Z</time></trkpt><trkpt lat="40.90099768708347" lon="9.541649610281304"><ele>3.0</ele><time>2026-04-30T07:25:50.83Z</time></trkpt><trkpt lat="40.90092208402385" lon="9.541747135179566"><ele>3.0</ele><time>2026-04-30T07:25:51.83Z</time></trkpt><trkpt lat="40.90084910407028" lon="9.541847254701363"><ele>3.0</ele><time>2026-04-30T07:25:52.83Z</time></trkpt><trkpt lat="40.900769320055055" lon="9.541951952130304"><ele>3.0</ele><time>2026-04-30T07:25:53.83Z</time></trkpt><trkpt lat="40.90069432436666" lon="9.542063009679671"><ele>3.0</ele><time>2026-04-30T07:25:54.831Z</time></trkpt><trkpt lat="40.9006126679067" lon="9.542170694628256"><ele>3.0</ele><time>2026-04-30T07:25:55.831Z</time></trkpt><trkpt lat="40.90054650504521" lon="9.542282231176705"><ele>3.0</ele><time>2026-04-30T07:25:56.831Z</time></trkpt><trkpt lat="40.900506062404446" lon="9.54240140193952"><ele>3.0</ele><time>2026-04-30T07:25:57.831Z</time></trkpt><trkpt lat="40.900489510102496" lon="9.542525612840148"><ele>3.0</ele><time>2026-04-30T07:25:58.831Z</time></trkpt><trkpt lat="40.90048083544431" lon="9.542648062474186"><ele>3.0</ele><time>2026-04-30T07:25:59.831Z</time></trkpt><trkpt lat="40.90047662861104" lon="9.542763930501375"><ele>3.0</ele><time>2026-04-30T07:26:00.831Z</time></trkpt><trkpt lat="40.90047520314801" lon="9.542880477461566"><ele>3.2</ele><time>2026-04-30T07:26:01.83Z</time></trkpt><trkpt lat="40.90047912711324" lon="9.543007443467028"><ele>3.4</ele><time>2026-04-30T07:26:02.83Z</time></trkpt><trkpt lat="40.90048775439308" lon="9.54314634254878"><ele>3.6000000000000005</ele><time>2026-04-30T07:26:03.831Z</time></trkpt><trkpt lat="40.900504129210056" lon="9.543294131158454"><ele>3.8000000000000003</ele><time>2026-04-30T07:26:04.831Z</time></trkpt><trkpt lat="40.900540402834444" lon="9.54344312956296"><ele>4.0</ele><time>2026-04-30T07:26:05.831Z</time></trkpt><trkpt lat="40.90059676056927" lon="9.543590078898873"><ele>4.75</ele><time>2026-04-30T07:26:06.831Z</time></trkpt><trkpt lat="40.900663030053174" lon="9.54373966675517"><ele>5.5</ele><time>2026-04-30T07:26:07.831Z</time></trkpt><trkpt lat="40.90073313297707" lon="9.543892989340474"><ele>6.25</ele><time>2026-04-30T07:26:08.831Z</time></trkpt><trkpt lat="40.90080215066923" lon="9.544049433522133"><ele>7.0</ele><time>2026-04-30T07:26:09.831Z</time></trkpt><trkpt lat="40.90086658485481" lon="9.54420313759372"><ele>6.25</ele><time>2026-04-30T07:26:10.831Z</time></trkpt><trkpt lat="40.9009301463074" lon="9.544347762765549"><ele>5.5</ele><time>2026-04-30T07:26:11.831Z</time></trkpt><trkpt lat="40.90099211905249" lon="9.544491387565612"><ele>4.75</ele><time>2026-04-30T07:26:12.831Z</time></trkpt><trkpt lat="40.90105358230986" lon="9.544638778568538"><ele>4.0</ele><time>2026-04-30T07:26:13.831Z</time></trkpt><trkpt lat="40.90111529733007" lon="9.544780017096851"><ele>4.0</ele><time>2026-04-30T07:26:14.831Z</time></trkpt><trkpt lat="40.901177104012625" lon="9.544901282884627"><ele>4.0</ele><time>2026-04-30T07:26:15.831Z</time></trkpt><trkpt lat="40.90123452282457" lon="9.545026720911585"><ele>4.0</ele><time>2026-04-30T07:26:16.831Z</time></trkpt><trkpt lat="40.90129883211914" lon="9.545133874494727"><ele>4.0</ele><time>2026-04-30T07:26:17.831Z</time></trkpt><trkpt lat="40.90136485443759" lon="9.545240638532187"><ele>4.0</ele><time>2026-04-30T07:26:18.831Z</time></trkpt><trkpt lat="40.90143882192646" lon="9.545354009874673"><ele>5.25</ele><time>2026-04-30T07:26:19.83Z</time></trkpt><trkpt lat="40.90151325732339" lon="9.54547184600671"><ele>6.5</ele><time>2026-04-30T07:26:20.83Z</time></trkpt><trkpt lat="40.90158102342575" lon="9.54560086314377"><ele>7.75</ele><time>2026-04-30T07:26:21.83Z</time></trkpt><trkpt lat="40.901642884406066" lon="9.545749256822527"><ele>9.0</ele><time>2026-04-30T07:26:22.83Z</time></trkpt><trkpt lat="40.90167788907863" lon="9.545916530952452"><ele>9.0</ele><time>2026-04-30T07:26:23.83Z</time></trkpt><trkpt lat="40.901714936150306" lon="9.546092451621446"><ele>9.0</ele><time>2026-04-30T07:26:24.83Z</time></trkpt><trkpt lat="40.90176688613253" lon="9.546263046385763"><ele>9.0</ele><time>2026-04-30T07:26:25.83Z</time></trkpt><trkpt lat="40.90181237324178" lon="9.546417473839938"><ele>9.0</ele><time>2026-04-30T07:26:26.83Z</time></trkpt><trkpt lat="40.90186274172911" lon="9.546557344698886"><ele>8.0</ele><time>2026-04-30T07:26:27.83Z</time></trkpt><trkpt lat="40.901907807690705" lon="9.546687947629968"><ele>7.0</ele><time>2026-04-30T07:26:28.83Z</time></trkpt><trkpt lat="40.901960099439876" lon="9.546810284765796"><ele>6.0</ele><time>2026-04-30T07:26:29.83Z</time></trkpt><trkpt lat="40.90200671514568" lon="9.54693420110832"><ele>5.0</ele><time>2026-04-30T07:26:30.83Z</time></trkpt><trkpt lat="40.90205273380143" lon="9.547056581605405"><ele>4.0</ele><time>2026-04-30T07:26:31.83Z</time></trkpt><trkpt lat="40.902102520550166" lon="9.547171650916646"><ele>4.0</ele><time>2026-04-30T07:26:32.83Z</time></trkpt><trkpt lat="40.90215595419125" lon="9.547281182580843"><ele>4.0</ele><time>2026-04-30T07:26:33.83Z</time></trkpt><trkpt lat="40.90220970660397" lon="9.547388806414704"><ele>4.0</ele><time>2026-04-30T07:26:34.83Z</time></trkpt><trkpt lat="40.9022730374895" lon="9.547497847687046"><ele>4.0</ele><time>2026-04-30T07:26:35.83Z</time></trkpt><trkpt lat="40.9023418490393" lon="9.547608437212347"><ele>4.0</ele><time>2026-04-30T07:26:36.83Z</time></trkpt><trkpt lat="40.90241493712463" lon="9.547730811612826"><ele>4.0</ele><time>2026-04-30T07:26:37.83Z</time></trkpt><trkpt lat="40.90248694323699" lon="9.547857185982657"><ele>4.0</ele><time>2026-04-30T07:26:38.83Z</time></trkpt><trkpt lat="40.90256058758748" lon="9.547992392195018"><ele>4.0</ele><time>2026-04-30T07:26:39.83Z</time></trkpt><trkpt lat="40.902627146325564" lon="9.54813702346726"><ele>4.0</ele><time>2026-04-30T07:26:40.829Z</time></trkpt><trkpt lat="40.90268947672354" lon="9.54828940802767"><ele>4.0</ele><time>2026-04-30T07:26:41.829Z</time></trkpt><trkpt lat="40.902735086726175" lon="9.54845086071846"><ele>4.0</ele><time>2026-04-30T07:26:42.829Z</time></trkpt><trkpt lat="40.90277640139172" lon="9.548614961321665"><ele>4.0</ele><time>2026-04-30T07:26:43.829Z</time></trkpt><trkpt lat="40.902809914009396" lon="9.5487706085851"><ele>4.0</ele><time>2026-04-30T07:26:44.829Z</time></trkpt><trkpt lat="40.902847277938974" lon="9.54892566779599"><ele>3.75</ele><time>2026-04-30T07:26:45.829Z</time></trkpt><trkpt lat="40.90289138575976" lon="9.549083356419287"><ele>3.5</ele><time>2026-04-30T07:26:46.829Z</time></trkpt><trkpt lat="40.9029302174534" lon="9.549235029993557"><ele>3.25</ele><time>2026-04-30T07:26:47.829Z</time></trkpt><trkpt lat="40.90296965998072" lon="9.549387048779332"><ele>3.0</ele><time>2026-04-30T07:26:48.829Z</time></trkpt><trkpt lat="40.90300904574014" lon="9.549535659003443"><ele>3.0</ele><time>2026-04-30T07:26:49.829Z</time></trkpt><trkpt lat="40.90304611617145" lon="9.549680667962926"><ele>3.0</ele><time>2026-04-30T07:26:50.829Z</time></trkpt><trkpt lat="40.903082489243744" lon="9.549830256201162"><ele>3.0</ele><time>2026-04-30T07:26:51.829Z</time></trkpt><trkpt lat="40.90312612762892" lon="9.549982597323694"><ele>3.0</ele><time>2026-04-30T07:26:52.829Z</time></trkpt><trkpt lat="40.90316512079496" lon="9.55013981614353"><ele>3.0</ele><time>2026-04-30T07:26:53.829Z</time></trkpt><trkpt lat="40.903207795999194" lon="9.550298042577896"><ele>3.0</ele><time>2026-04-30T07:26:54.829Z</time></trkpt><trkpt lat="40.903245576851106" lon="9.550450268324626"><ele>3.0</ele><time>2026-04-30T07:26:55.829Z</time></trkpt><trkpt lat="40.90328380687928" lon="9.550600195259765"><ele>3.0</ele><time>2026-04-30T07:26:56.829Z</time></trkpt><trkpt lat="40.90332119297593" lon="9.550742427607661"><ele>3.0</ele><time>2026-04-30T07:26:57.829Z</time></trkpt><trkpt lat="40.90335617943894" lon="9.550891277187063"><ele>3.0</ele><time>2026-04-30T07:26:58.829Z</time></trkpt><trkpt lat="40.90339670838368" lon="9.551041947384002"><ele>3.0</ele><time>2026-04-30T07:26:59.829Z</time></trkpt><trkpt lat="40.90343682093081" lon="9.551198029067832"><ele>3.0</ele><time>2026-04-30T07:27:00.829Z</time></trkpt><trkpt lat="40.90347492858148" lon="9.551360459472317"><ele>3.0</ele><time>2026-04-30T07:27:01.828Z</time></trkpt><trkpt lat="40.90351228221643" lon="9.551525008717608"><ele>3.0</ele><time>2026-04-30T07:27:02.828Z</time></trkpt><trkpt lat="40.90354192877606" lon="9.551686454000627"><ele>3.0</ele><time>2026-04-30T07:27:03.828Z</time></trkpt><trkpt lat="40.90355735712489" lon="9.551842808588319"><ele>3.0</ele><time>2026-04-30T07:27:04.828Z</time></trkpt><trkpt lat="40.90355738473266" lon="9.551995939974836"><ele>2.6</ele><time>2026-04-30T07:27:05.828Z</time></trkpt><trkpt lat="40.90353692436888" lon="9.552136107416516"><ele>2.1999999999999997</ele><time>2026-04-30T07:27:06.828Z</time></trkpt><trkpt lat="40.903510059767484" lon="9.552272421510633"><ele>1.8</ele><time>2026-04-30T07:27:07.828Z</time></trkpt><trkpt lat="40.903502186923625" lon="9.552407232169411"><ele>1.4</ele><time>2026-04-30T07:27:08.828Z</time></trkpt><trkpt lat="40.90351148549903" lon="9.552549537362442"><ele>1.0</ele><time>2026-04-30T07:27:09.828Z</time></trkpt><trkpt lat="40.90354757445766" lon="9.552692870934939"><ele>1.0</ele><time>2026-04-30T07:27:10.828Z</time></trkpt><trkpt lat="40.90360500477541" lon="9.552835787531395"><ele>1.0</ele><time>2026-04-30T07:27:11.828Z</time></trkpt><trkpt lat="40.903676861456006" lon="9.552967677533587"><ele>1.0</ele><time>2026-04-30T07:27:12.828Z</time></trkpt><trkpt lat="40.903756283097636" lon="9.553088851642277"><ele>1.0</ele><time>2026-04-30T07:27:13.828Z</time></trkpt><trkpt lat="40.90383552968778" lon="9.553203758764907"><ele>1.25</ele><time>2026-04-30T07:27:14.828Z</time></trkpt><trkpt lat="40.903914726276106" lon="9.553325387317418"><ele>1.5</ele><time>2026-04-30T07:27:15.828Z</time></trkpt><trkpt lat="40.90399150930984" lon="9.553455620770379"><ele>1.75</ele><time>2026-04-30T07:27:16.828Z</time></trkpt><trkpt lat="40.904051715533754" lon="9.553600412385101"><ele>2.0</ele><time>2026-04-30T07:27:17.828Z</time></trkpt><trkpt lat="40.90409142073985" lon="9.55375856341167"><ele>3.0</ele><time>2026-04-30T07:27:18.828Z</time></trkpt><trkpt lat="40.90411121582652" lon="9.553928368875981"><ele>4.0</ele><time>2026-04-30T07:27:19.828Z</time></trkpt><trkpt lat="40.90412715452096" lon="9.554103407625684"><ele>5.0</ele><time>2026-04-30T07:27:20.828Z</time></trkpt><trkpt lat="40.904128367327644" lon="9.554280620020407"><ele>6.0</ele><time>2026-04-30T07:27:21.828Z</time></trkpt><trkpt lat="40.90413297684398" lon="9.554457893833096"><ele>6.5</ele><time>2026-04-30T07:27:22.827Z</time></trkpt><trkpt lat="40.90414530293629" lon="9.554628774788736"><ele>7.0</ele><time>2026-04-30T07:27:23.827Z</time></trkpt><trkpt lat="40.90418095407637" lon="9.554793100454054"><ele>7.5</ele><time>2026-04-30T07:27:24.827Z</time></trkpt><trkpt lat="40.90423612813033" lon="9.55494838459197"><ele>8.0</ele><time>2026-04-30T07:27:25.827Z</time></trkpt><trkpt lat="40.90429243738948" lon="9.555106668294908"><ele>8.0</ele><time>2026-04-30T07:27:26.827Z</time></trkpt><trkpt lat="40.90431092238671" lon="9.555272484702524"><ele>8.0</ele><time>2026-04-30T07:27:27.827Z</time></trkpt><trkpt lat="40.90427484236902" lon="9.555442418293296"><ele>8.0</ele><time>2026-04-30T07:27:28.827Z</time></trkpt><trkpt lat="40.90420938061959" lon="9.555595297874078"><ele>8.0</ele><time>2026-04-30T07:27:29.827Z</time></trkpt><trkpt lat="40.90414368813733" lon="9.555754269750208"><ele>8.0</ele><time>2026-04-30T07:27:30.827Z</time></trkpt><trkpt lat="40.90409129727982" lon="9.555919494448515"><ele>8.0</ele><time>2026-04-30T07:27:31.827Z</time></trkpt><trkpt lat="40.90399823489049" lon="9.556080040566986"><ele>8.0</ele><time>2026-04-30T07:27:32.827Z</time></trkpt><trkpt lat="40.90392797838948" lon="9.55624268689083"><ele>8.0</ele><time>2026-04-30T07:27:33.827Z</time></trkpt><trkpt lat="40.903856212580386" lon="9.556401826255682"><ele>8.75</ele><time>2026-04-30T07:27:34.827Z</time></trkpt><trkpt lat="40.90377058152905" lon="9.556547083278193"><ele>9.5</ele><time>2026-04-30T07:27:35.827Z</time></trkpt><trkpt lat="40.903668335377816" lon="9.556673697182926"><ele>10.25</ele><time>2026-04-30T07:27:36.827Z</time></trkpt><trkpt lat="40.90354768380489" lon="9.556768642406269"><ele>11.0</ele><time>2026-04-30T07:27:37.827Z</time></trkpt><trkpt lat="40.90344693830822" lon="9.556885950326162"><ele>11.75</ele><time>2026-04-30T07:27:38.827Z</time></trkpt><trkpt lat="40.903341410504964" lon="9.556971580375153"><ele>12.5</ele><time>2026-04-30T07:27:39.827Z</time></trkpt><trkpt lat="40.903240871397806" lon="9.55706358926678"><ele>13.25</ele><time>2026-04-30T07:27:40.827Z</time></trkpt><trkpt lat="40.90314319234841" lon="9.557154822071173"><ele>14.0</ele><time>2026-04-30T07:27:41.827Z</time></trkpt><trkpt lat="40.90305671487133" lon="9.557248346825876"><ele>14.0</ele><time>2026-04-30T07:27:42.827Z</time></trkpt><trkpt lat="40.90297109253985" lon="9.557351978186087"><ele>14.0</ele><time>2026-04-30T07:27:43.826Z</time></trkpt><trkpt lat="40.90287809778936" lon="9.557459200508033"><ele>14.0</ele><time>2026-04-30T07:27:44.826Z</time></trkpt><trkpt lat="40.90278550182457" lon="9.557572688479363"><ele>14.0</ele><time>2026-04-30T07:27:45.826Z</time></trkpt><trkpt lat="40.90269120911428" lon="9.557692229242171"><ele>13.75</ele><time>2026-04-30T07:27:46.826Z</time></trkpt><trkpt lat="40.902580012701485" lon="9.557807298725814"><ele>13.5</ele><time>2026-04-30T07:27:47.826Z</time></trkpt><trkpt lat="40.90247377277218" lon="9.557937216654405"><ele>13.25</ele><time>2026-04-30T07:27:48.826Z</time></trkpt><trkpt lat="40.90236239502297" lon="9.55806494762088"><ele>13.0</ele><time>2026-04-30T07:27:49.826Z</time></trkpt><trkpt lat="40.90225021998731" lon="9.558203825088347"><ele>12.0</ele><time>2026-04-30T07:27:50.826Z</time></trkpt><trkpt lat="40.90213436796566" lon="9.558344576761746"><ele>11.0</ele><time>2026-04-30T07:27:51.826Z</time></trkpt><trkpt lat="40.90201845320551" lon="9.558488481532784"><ele>10.0</ele><time>2026-04-30T07:27:52.826Z</time></trkpt><trkpt lat="40.901904830021664" lon="9.558611649641938"><ele>10.25</ele><time>2026-04-30T07:27:53.826Z</time></trkpt><trkpt lat="40.90179827714744" lon="9.55873857161722"><ele>10.5</ele><time>2026-04-30T07:27:54.826Z</time></trkpt><trkpt lat="40.90168999765295" lon="9.558865021291766"><ele>10.75</ele><time>2026-04-30T07:27:55.826Z</time></trkpt><trkpt lat="40.90158274948436" lon="9.558999030869657"><ele>11.0</ele><time>2026-04-30T07:27:56.826Z</time></trkpt><trkpt lat="40.90147341637183" lon="9.559131169747989"><ele>10.5</ele><time>2026-04-30T07:27:57.826Z</time></trkpt><trkpt lat="40.90137331874237" lon="9.559261660529863"><ele>10.0</ele><time>2026-04-30T07:27:58.826Z</time></trkpt><trkpt lat="40.9012705528755" lon="9.559384723956091"><ele>9.5</ele><time>2026-04-30T07:27:59.826Z</time></trkpt><trkpt lat="40.901169339878265" lon="9.559498140739823"><ele>9.0</ele><time>2026-04-30T07:28:00.827Z</time></trkpt><trkpt lat="40.90108142386425" lon="9.559599755289579"><ele>9.0</ele><time>2026-04-30T07:28:01.827Z</time></trkpt><trkpt lat="40.90100349404362" lon="9.55968515147076"><ele>9.0</ele><time>2026-04-30T07:28:02.826Z</time></trkpt><trkpt lat="40.90093793860113" lon="9.559759240675978"><ele>9.0</ele><time>2026-04-30T07:28:03.827Z</time></trkpt><trkpt lat="40.90088265661652" lon="9.559828867674105"><ele>9.0</ele><time>2026-04-30T07:28:04.827Z</time></trkpt><trkpt lat="40.900832269004596" lon="9.559893390572693"><ele>9.0</ele><time>2026-04-30T07:28:05.826Z</time></trkpt><trkpt lat="40.90078489625108" lon="9.559960861824749"><ele>9.0</ele><time>2026-04-30T07:28:06.827Z</time></trkpt><trkpt lat="40.900735380747314" lon="9.56001874822843"><ele>8.5</ele><time>2026-04-30T07:28:07.827Z</time></trkpt><trkpt lat="40.90067277184351" lon="9.560091310279178"><ele>8.0</ele><time>2026-04-30T07:28:09.827Z</time></trkpt><trkpt lat="40.900608586420816" lon="9.560166547466448"><ele>7.5</ele><time>2026-04-30T07:28:12.827Z</time></trkpt><trkpt lat="40.90055528929744" lon="9.560243423129277"><ele>7.0</ele><time>2026-04-30T07:28:14.827Z</time></trkpt><trkpt lat="40.900509574788416" lon="9.560302696849796"><ele>6.5</ele><time>2026-04-30T07:28:15.827Z</time></trkpt><trkpt lat="40.90045642840963" lon="9.560367477195893"><ele>6.0</ele><time>2026-04-30T07:28:16.827Z</time></trkpt><trkpt lat="40.900396503484714" lon="9.560437042337968"><ele>5.8</ele><time>2026-04-30T07:28:17.827Z</time></trkpt><trkpt lat="40.90033296810562" lon="9.560513055594148"><ele>5.6</ele><time>2026-04-30T07:28:18.827Z</time></trkpt><trkpt lat="40.900262532757324" lon="9.560598286093331"><ele>5.4</ele><time>2026-04-30T07:28:19.827Z</time></trkpt><trkpt lat="40.90018714442356" lon="9.560693106834226"><ele>5.2</ele><time>2026-04-30T07:28:20.827Z</time></trkpt><trkpt lat="40.900100990574416" lon="9.56079339917176"><ele>5.0</ele><time>2026-04-30T07:28:21.827Z</time></trkpt><trkpt lat="40.900012855154365" lon="9.560903536082542"><ele>5.0</ele><time>2026-04-30T07:28:22.826Z</time></trkpt><trkpt lat="40.89992139791008" lon="9.561012003399648"><ele>5.0</ele><time>2026-04-30T07:28:23.826Z</time></trkpt><trkpt lat="40.899830401970036" lon="9.561125291428555"><ele>5.0</ele><time>2026-04-30T07:28:24.826Z</time></trkpt><trkpt lat="40.89973395979598" lon="9.561243178017437"><ele>5.0</ele><time>2026-04-30T07:28:25.826Z</time></trkpt><trkpt lat="40.899631801192605" lon="9.561367769931296"><ele>4.75</ele><time>2026-04-30T07:28:26.826Z</time></trkpt><trkpt lat="40.89952814840486" lon="9.561498254870635"><ele>4.5</ele><time>2026-04-30T07:28:27.826Z</time></trkpt><trkpt lat="40.89941870355103" lon="9.561632340828496"><ele>4.25</ele><time>2026-04-30T07:28:28.826Z</time></trkpt><trkpt lat="40.89930926339382" lon="9.561767742257677"><ele>4.0</ele><time>2026-04-30T07:28:29.826Z</time></trkpt><trkpt lat="40.89920218555321" lon="9.561894683471186"><ele>4.0</ele><time>2026-04-30T07:28:30.826Z</time></trkpt><trkpt lat="40.899097340634036" lon="9.562025088736831"><ele>4.0</ele><time>2026-04-30T07:28:31.826Z</time></trkpt><trkpt lat="40.898987364736314" lon="9.562152059935432"><ele>4.0</ele><time>2026-04-30T07:28:32.826Z</time></trkpt><trkpt lat="40.89887960625124" lon="9.562282509468352"><ele>4.0</ele><time>2026-04-30T07:28:33.826Z</time></trkpt><trkpt lat="40.89876840737141" lon="9.562408297733164"><ele>4.0</ele><time>2026-04-30T07:28:34.826Z</time></trkpt><trkpt lat="40.898654467225384" lon="9.562543237632248"><ele>4.0</ele><time>2026-04-30T07:28:35.826Z</time></trkpt><trkpt lat="40.89853666750216" lon="9.562687591146778"><ele>4.0</ele><time>2026-04-30T07:28:36.826Z</time></trkpt><trkpt lat="40.89841194241314" lon="9.56284030944978"><ele>3.6666666666666665</ele><time>2026-04-30T07:28:37.826Z</time></trkpt><trkpt lat="40.898286828948" lon="9.562993646061628"><ele>3.333333333333333</ele><time>2026-04-30T07:28:38.826Z</time></trkpt><trkpt lat="40.898156797823525" lon="9.563151077011376"><ele>3.0</ele><time>2026-04-30T07:28:39.826Z</time></trkpt><trkpt lat="40.89802603304901" lon="9.563309323853334"><ele>3.0</ele><time>2026-04-30T07:28:40.826Z</time></trkpt><trkpt lat="40.89789565874228" lon="9.56346111969564"><ele>3.0</ele><time>2026-04-30T07:28:41.826Z</time></trkpt><trkpt lat="40.89777135746696" lon="9.563618966421569"><ele>3.0</ele><time>2026-04-30T07:28:42.826Z</time></trkpt><trkpt lat="40.89764476192076" lon="9.563776203080751"><ele>2.6666666666666665</ele><time>2026-04-30T07:28:43.825Z</time></trkpt><trkpt lat="40.89751386110741" lon="9.563931177815917"><ele>2.333333333333333</ele><time>2026-04-30T07:28:44.825Z</time></trkpt><trkpt lat="40.89738163190764" lon="9.564087115682643"><ele>2.0</ele><time>2026-04-30T07:28:45.825Z</time></trkpt><trkpt lat="40.897255615156446" lon="9.564236882792375"><ele>2.0</ele><time>2026-04-30T07:28:46.825Z</time></trkpt><trkpt lat="40.897127912921526" lon="9.564385603001666"><ele>2.0</ele><time>2026-04-30T07:28:47.825Z</time></trkpt><trkpt lat="40.89700044260129" lon="9.564536072495029"><ele>2.0</ele><time>2026-04-30T07:28:48.825Z</time></trkpt><trkpt lat="40.896875225260374" lon="9.564682369649434"><ele>2.0</ele><time>2026-04-30T07:28:49.825Z</time></trkpt><trkpt lat="40.89675977844293" lon="9.56482671043324"><ele>2.0</ele><time>2026-04-30T07:28:50.825Z</time></trkpt><trkpt lat="40.89663991843834" lon="9.56496565914137"><ele>2.0</ele><time>2026-04-30T07:28:51.825Z</time></trkpt><trkpt lat="40.89652880040318" lon="9.56510386417406"><ele>2.333333333333333</ele><time>2026-04-30T07:28:52.825Z</time></trkpt><trkpt lat="40.89641169529773" lon="9.565243538741054"><ele>2.6666666666666665</ele><time>2026-04-30T07:28:53.825Z</time></trkpt><trkpt lat="40.896293655167334" lon="9.565381882609651"><ele>3.0</ele><time>2026-04-30T07:28:54.825Z</time></trkpt><trkpt lat="40.89617880866293" lon="9.56552208958873"><ele>3.0</ele><time>2026-04-30T07:28:55.825Z</time></trkpt><trkpt lat="40.89606661692201" lon="9.565663627087103"><ele>3.0</ele><time>2026-04-30T07:28:56.825Z</time></trkpt><trkpt lat="40.89595132396017" lon="9.565798349494223"><ele>3.0</ele><time>2026-04-30T07:28:57.825Z</time></trkpt><trkpt lat="40.89583713032446" lon="9.565931205502796"><ele>3.0</ele><time>2026-04-30T07:28:58.825Z</time></trkpt><trkpt lat="40.895726125376726" lon="9.566072687886324"><ele>3.0</ele><time>2026-04-30T07:28:59.825Z</time></trkpt><trkpt lat="40.89560875135736" lon="9.566212332061617"><ele>3.0</ele><time>2026-04-30T07:29:00.825Z</time></trkpt><trkpt lat="40.89549361146443" lon="9.566353791935763"><ele>2.6666666666666665</ele><time>2026-04-30T07:29:01.825Z</time></trkpt><trkpt lat="40.89537621854192" lon="9.566493856108877"><ele>2.333333333333333</ele><time>2026-04-30T07:29:02.825Z</time></trkpt><trkpt lat="40.895265715382806" lon="9.566634541800594"><ele>2.0</ele><time>2026-04-30T07:29:03.825Z</time></trkpt><trkpt lat="40.89515912217158" lon="9.566766133020934"><ele>2.25</ele><time>2026-04-30T07:29:04.824Z</time></trkpt><trkpt lat="40.89506393001424" lon="9.566889034870147"><ele>2.5</ele><time>2026-04-30T07:29:05.824Z</time></trkpt><trkpt lat="40.894973213279485" lon="9.56700356917711"><ele>2.75</ele><time>2026-04-30T07:29:06.824Z</time></trkpt><trkpt lat="40.89488671874408" lon="9.567110322984917"><ele>3.0</ele><time>2026-04-30T07:29:07.824Z</time></trkpt><trkpt lat="40.89479698306008" lon="9.567200459638896"><ele>3.0</ele><time>2026-04-30T07:29:08.824Z</time></trkpt><trkpt lat="40.89469695066552" lon="9.567267809164903"><ele>3.0</ele><time>2026-04-30T07:29:09.824Z</time></trkpt><trkpt lat="40.894590129852915" lon="9.56730041017667"><ele>3.0</ele><time>2026-04-30T07:29:10.824Z</time></trkpt><trkpt lat="40.89448990862483" lon="9.567336539767215"><ele>3.0</ele><time>2026-04-30T07:29:11.824Z</time></trkpt><trkpt lat="40.89441870022093" lon="9.567423200075222"><ele>3.0</ele><time>2026-04-30T07:29:12.824Z</time></trkpt><trkpt lat="40.89438227600599" lon="9.56754471312188"><ele>3.0</ele><time>2026-04-30T07:29:13.824Z</time></trkpt><trkpt lat="40.894357849288916" lon="9.567691825673558"><ele>3.0</ele><time>2026-04-30T07:29:14.824Z</time></trkpt><trkpt lat="40.89432530862318" lon="9.567852633346327"><ele>3.0</ele><time>2026-04-30T07:29:15.824Z</time></trkpt><trkpt lat="40.89425148340461" lon="9.568006990603857"><ele>3.0</ele><time>2026-04-30T07:29:16.824Z</time></trkpt><trkpt lat="40.89416681181314" lon="9.56817884296336"><ele>3.0</ele><time>2026-04-30T07:29:17.824Z</time></trkpt><trkpt lat="40.89407755579702" lon="9.568362541467083"><ele>3.0</ele><time>2026-04-30T07:29:18.824Z</time></trkpt><trkpt lat="40.8939883333327" lon="9.568562310607115"><ele>3.0</ele><time>2026-04-30T07:29:19.824Z</time></trkpt><trkpt lat="40.89390206859454" lon="9.56876742744378"><ele>3.0</ele><time>2026-04-30T07:29:20.824Z</time></trkpt><trkpt lat="40.89382444728324" lon="9.568991211635984"><ele>3.0</ele><time>2026-04-30T07:29:21.824Z</time></trkpt><trkpt lat="40.89375300429805" lon="9.569233548866851"><ele>3.0</ele><time>2026-04-30T07:29:22.824Z</time></trkpt><trkpt lat="40.89368106741133" lon="9.569488057664488"><ele>2.0</ele><time>2026-04-30T07:29:23.824Z</time></trkpt><trkpt lat="40.893617338850106" lon="9.569745431441795"><ele>1.0</ele><time>2026-04-30T07:29:24.824Z</time></trkpt><trkpt lat="40.893561359454154" lon="9.569987282267569"><ele>0.0</ele><time>2026-04-30T07:29:25.823Z</time></trkpt><trkpt lat="40.893506709248065" lon="9.570217308565665"><ele>0.0</ele><time>2026-04-30T07:29:26.823Z</time></trkpt><trkpt lat="40.89345554509054" lon="9.570438104812938"><ele>0.0</ele><time>2026-04-30T07:29:27.823Z</time></trkpt><trkpt lat="40.89340660375253" lon="9.570646529929064"><ele>0.0</ele><time>2026-04-30T07:29:28.823Z</time></trkpt><trkpt lat="40.893358324187716" lon="9.570849657195915"><ele>0.0</ele><time>2026-04-30T07:29:29.823Z</time></trkpt><trkpt lat="40.89331513268756" lon="9.571050639745811"><ele>0.0</ele><time>2026-04-30T07:29:30.823Z</time></trkpt><trkpt lat="40.89326964198766" lon="9.571253343459412"><ele>0.0</ele><time>2026-04-30T07:29:31.823Z</time></trkpt><trkpt lat="40.89321990236443" lon="9.57146102955622"><ele>-0.3333333333333333</ele><time>2026-04-30T07:29:32.823Z</time></trkpt><trkpt lat="40.893169022253616" lon="9.571677017629684"><ele>-0.6666666666666666</ele><time>2026-04-30T07:29:33.823Z</time></trkpt><trkpt lat="40.89311810628689" lon="9.57189639605942"><ele>-1.0</ele><time>2026-04-30T07:29:34.823Z</time></trkpt><trkpt lat="40.89306854138337" lon="9.572114171749039"><ele>-1.0</ele><time>2026-04-30T07:29:35.823Z</time></trkpt><trkpt lat="40.893019159716296" lon="9.572337978538604"><ele>-1.0</ele><time>2026-04-30T07:29:36.823Z</time></trkpt><trkpt lat="40.89296874548248" lon="9.572558668619779"><ele>-1.0</ele><time>2026-04-30T07:29:37.823Z</time></trkpt><trkpt lat="40.892915823929414" lon="9.572779225416859"><ele>-0.3333333333333333</ele><time>2026-04-30T07:29:38.823Z</time></trkpt><trkpt lat="40.892863713623576" lon="9.572999143824399"><ele>0.3333333333333333</ele><time>2026-04-30T07:29:39.823Z</time></trkpt><trkpt lat="40.89281194215351" lon="9.573219367057854"><ele>1.0</ele><time>2026-04-30T07:29:40.823Z</time></trkpt><trkpt lat="40.89275984729295" lon="9.573445256892217"><ele>1.0</ele><time>2026-04-30T07:29:41.823Z</time></trkpt><trkpt lat="40.89270500362066" lon="9.573679512556566"><ele>1.0</ele><time>2026-04-30T07:29:42.823Z</time></trkpt><trkpt lat="40.89265085537688" lon="9.573917840360401"><ele>1.0</ele><time>2026-04-30T07:29:43.823Z</time></trkpt><trkpt lat="40.89259660204232" lon="9.57415850149239"><ele>1.6666666666666665</ele><time>2026-04-30T07:29:44.823Z</time></trkpt><trkpt lat="40.89254032073434" lon="9.57440109997873"><ele>2.3333333333333335</ele><time>2026-04-30T07:29:45.823Z</time></trkpt><trkpt lat="40.892488213780965" lon="9.57463840763751"><ele>3.0</ele><time>2026-04-30T07:29:46.822Z</time></trkpt><trkpt lat="40.89243394412862" lon="9.57487319447911"><ele>3.0</ele><time>2026-04-30T07:29:47.822Z</time></trkpt><trkpt lat="40.89238012819087" lon="9.575103924062235"><ele>3.0</ele><time>2026-04-30T07:29:48.822Z</time></trkpt><trkpt lat="40.89232808274356" lon="9.57534048194811"><ele>3.0</ele><time>2026-04-30T07:29:49.822Z</time></trkpt><trkpt lat="40.892274188124176" lon="9.575577956777742"><ele>3.0</ele><time>2026-04-30T07:29:50.822Z</time></trkpt><trkpt lat="40.8922221913679" lon="9.575815963222219"><ele>3.0</ele><time>2026-04-30T07:29:51.822Z</time></trkpt><trkpt lat="40.892165444390514" lon="9.576053102900351"><ele>3.0</ele><time>2026-04-30T07:29:52.822Z</time></trkpt><trkpt lat="40.89210781040426" lon="9.576287218787956"><ele>2.6666666666666665</ele><time>2026-04-30T07:29:53.822Z</time></trkpt><trkpt lat="40.892050433760524" lon="9.576525708402603"><ele>2.333333333333333</ele><time>2026-04-30T07:29:54.822Z</time></trkpt><trkpt lat="40.891997345901935" lon="9.576763211099795"><ele>2.0</ele><time>2026-04-30T07:29:55.822Z</time></trkpt><trkpt lat="40.891939222050624" lon="9.577003130803913"><ele>2.0</ele><time>2026-04-30T07:29:56.822Z</time></trkpt><trkpt lat="40.89188263083784" lon="9.577250149350286"><ele>2.0</ele><time>2026-04-30T07:29:57.822Z</time></trkpt><trkpt lat="40.891824106720804" lon="9.577502740955994"><ele>2.0</ele><time>2026-04-30T07:29:58.822Z</time></trkpt><trkpt lat="40.891765693407535" lon="9.577765702664903"><ele>3.0</ele><time>2026-04-30T07:29:59.822Z</time></trkpt><trkpt lat="40.891711686445156" lon="9.578030257363817"><ele>4.0</ele><time>2026-04-30T07:30:00.822Z</time></trkpt><trkpt lat="40.89166828190856" lon="9.578294645249485"><ele>5.0</ele><time>2026-04-30T07:30:01.822Z</time></trkpt><trkpt lat="40.89163790271683" lon="9.578562669467889"><ele>5.0</ele><time>2026-04-30T07:30:02.822Z</time></trkpt><trkpt lat="40.891619892322055" lon="9.578836728216276"><ele>5.0</ele><time>2026-04-30T07:30:03.822Z</time></trkpt><trkpt lat="40.891608213285814" lon="9.579115241875177"><ele>5.0</ele><time>2026-04-30T07:30:04.822Z</time></trkpt><trkpt lat="40.89159391492839" lon="9.579397369185594"><ele>4.333333333333334</ele><time>2026-04-30T07:30:05.822Z</time></trkpt><trkpt lat="40.89158433268244" lon="9.579685150010459"><ele>3.666666666666667</ele><time>2026-04-30T07:30:06.823Z</time></trkpt><trkpt lat="40.89157209693406" lon="9.579968242662579"><ele>3.0</ele><time>2026-04-30T07:30:07.822Z</time></trkpt><trkpt lat="40.8915585716071" lon="9.58025021283495"><ele>3.0</ele><time>2026-04-30T07:30:08.822Z</time></trkpt><trkpt lat="40.891545175936095" lon="9.580531684055558"><ele>3.0</ele><time>2026-04-30T07:30:09.822Z</time></trkpt><trkpt lat="40.891529290086666" lon="9.580819194066487"><ele>3.0</ele><time>2026-04-30T07:30:10.822Z</time></trkpt><trkpt lat="40.89151462020436" lon="9.58110453643875"><ele>3.333333333333333</ele><time>2026-04-30T07:30:11.822Z</time></trkpt><trkpt lat="40.89149838964807" lon="9.581387913027823"><ele>3.6666666666666665</ele><time>2026-04-30T07:30:12.822Z</time></trkpt><trkpt lat="40.891484733581265" lon="9.581673000408175"><ele>4.0</ele><time>2026-04-30T07:30:13.822Z</time></trkpt><trkpt lat="40.89146761971037" lon="9.581948982132477"><ele>4.333333333333333</ele><time>2026-04-30T07:30:14.822Z</time></trkpt><trkpt lat="40.89145114451773" lon="9.58220055863867"><ele>4.666666666666667</ele><time>2026-04-30T07:30:15.822Z</time></trkpt><trkpt lat="40.891437778248395" lon="9.582432818330917"><ele>5.0</ele><time>2026-04-30T07:30:16.822Z</time></trkpt><trkpt lat="40.891423768182264" lon="9.582652959869373"><ele>5.666666666666667</ele><time>2026-04-30T07:30:17.822Z</time></trkpt><trkpt lat="40.89141020805579" lon="9.58285781479374"><ele>6.333333333333334</ele><time>2026-04-30T07:30:18.821Z</time></trkpt><trkpt lat="40.89137971502008" lon="9.58306124222827"><ele>7.0</ele><time>2026-04-30T07:30:19.822Z</time></trkpt><trkpt lat="40.89133264746956" lon="9.583258268836522"><ele>7.0</ele><time>2026-04-30T07:30:20.822Z</time></trkpt><trkpt lat="40.89126488108119" lon="9.583448236096002"><ele>7.0</ele><time>2026-04-30T07:30:21.822Z</time></trkpt><trkpt lat="40.891191359608996" lon="9.583636076562213"><ele>7.0</ele><time>2026-04-30T07:30:22.822Z</time></trkpt><trkpt lat="40.891114058319204" lon="9.583822529535555"><ele>7.5</ele><time>2026-04-30T07:30:23.822Z</time></trkpt><trkpt lat="40.89104269534721" lon="9.58400286000394"><ele>8.0</ele><time>2026-04-30T07:30:24.822Z</time></trkpt><trkpt lat="40.890980588288244" lon="9.58416397851273"><ele>8.5</ele><time>2026-04-30T07:30:25.822Z</time></trkpt><trkpt lat="40.89092212771505" lon="9.58431935312572"><ele>9.0</ele><time>2026-04-30T07:30:26.822Z</time></trkpt><trkpt lat="40.89086739513062" lon="9.584472974404077"><ele>9.0</ele><time>2026-04-30T07:30:27.822Z</time></trkpt><trkpt lat="40.89081331567865" lon="9.584617592426799"><ele>9.0</ele><time>2026-04-30T07:30:28.821Z</time></trkpt><trkpt lat="40.89076201696425" lon="9.58475156119355"><ele>9.0</ele><time>2026-04-30T07:30:29.821Z</time></trkpt><trkpt lat="40.89071575458408" lon="9.584866401642003"><ele>9.0</ele><time>2026-04-30T07:30:30.821Z</time></trkpt><trkpt lat="40.890674795687204" lon="9.58496613381687"><ele>9.0</ele><time>2026-04-30T07:30:31.821Z</time></trkpt><trkpt lat="40.89064425659456" lon="9.585044488311263"><ele>9.0</ele><time>2026-04-30T07:30:32.821Z</time></trkpt><trkpt lat="40.890602218360165" lon="9.585150426958135"><ele>9.0</ele><time>2026-04-30T07:30:34.821Z</time></trkpt><trkpt lat="40.890564181060824" lon="9.585265614033423"><ele>9.0</ele><time>2026-04-30T07:30:36.821Z</time></trkpt><trkpt lat="40.89051812239512" lon="9.585384071793543"><ele>9.0</ele><time>2026-04-30T07:30:38.821Z</time></trkpt><trkpt lat="40.89048737295272" lon="9.58546038304267"><ele>9.0</ele><time>2026-04-30T07:30:39.821Z</time></trkpt><trkpt lat="40.890453558359376" lon="9.585545412816385"><ele>9.0</ele><time>2026-04-30T07:30:40.821Z</time></trkpt><trkpt lat="40.89042034176026" lon="9.585636195586625"><ele>9.0</ele><time>2026-04-30T07:30:41.821Z</time></trkpt><trkpt lat="40.89038749684062" lon="9.585720782688472"><ele>9.0</ele><time>2026-04-30T07:30:42.821Z</time></trkpt><trkpt lat="40.89035383782043" lon="9.585807301815121"><ele>9.0</ele><time>2026-04-30T07:30:43.821Z</time></trkpt><trkpt lat="40.89031572370437" lon="9.58589698880852"><ele>9.0</ele><time>2026-04-30T07:30:44.821Z</time></trkpt><trkpt lat="40.89027588831908" lon="9.585989440694865"><ele>9.0</ele><time>2026-04-30T07:30:45.821Z</time></trkpt><trkpt lat="40.89022827259522" lon="9.586094979396943"><ele>9.0</ele><time>2026-04-30T07:30:46.821Z</time></trkpt><trkpt lat="40.89017840423809" lon="9.586207552576111"><ele>9.0</ele><time>2026-04-30T07:30:47.821Z</time></trkpt><trkpt lat="40.89012467497431" lon="9.586332928439527"><ele>9.0</ele><time>2026-04-30T07:30:48.821Z</time></trkpt><trkpt lat="40.8900685079979" lon="9.586460572228672"><ele>9.0</ele><time>2026-04-30T07:30:49.82Z</time></trkpt><trkpt lat="40.89001145023929" lon="9.586594922226547"><ele>9.0</ele><time>2026-04-30T07:30:50.82Z</time></trkpt><trkpt lat="40.88995009487812" lon="9.586736262853075"><ele>9.0</ele><time>2026-04-30T07:30:51.82Z</time></trkpt><trkpt lat="40.88989134795347" lon="9.5868642450093"><ele>9.0</ele><time>2026-04-30T07:30:52.82Z</time></trkpt><trkpt lat="40.889831780666434" lon="9.586992411262212"><ele>9.0</ele><time>2026-04-30T07:30:53.82Z</time></trkpt><trkpt lat="40.88977453316997" lon="9.587118469083904"><ele>9.0</ele><time>2026-04-30T07:30:54.82Z</time></trkpt><trkpt lat="40.88971577574521" lon="9.587244409755472"><ele>9.25</ele><time>2026-04-30T07:30:55.82Z</time></trkpt><trkpt lat="40.889657773077765" lon="9.587368004639934"><ele>9.5</ele><time>2026-04-30T07:30:56.82Z</time></trkpt><trkpt lat="40.88959788124677" lon="9.58749338510132"><ele>9.75</ele><time>2026-04-30T07:30:57.82Z</time></trkpt><trkpt lat="40.88953643202321" lon="9.587618438214822"><ele>10.0</ele><time>2026-04-30T07:30:58.82Z</time></trkpt><trkpt lat="40.88946926239857" lon="9.587743305724672"><ele>10.0</ele><time>2026-04-30T07:30:59.82Z</time></trkpt><trkpt lat="40.88939466137678" lon="9.587869058093785"><ele>10.0</ele><time>2026-04-30T07:31:00.82Z</time></trkpt><trkpt lat="40.88931732747416" lon="9.587990164616157"><ele>10.0</ele><time>2026-04-30T07:31:01.82Z</time></trkpt><trkpt lat="40.88923985121" lon="9.588104435568676"><ele>10.0</ele><time>2026-04-30T07:31:02.82Z</time></trkpt><trkpt lat="40.889168303747134" lon="9.5882115786728"><ele>10.0</ele><time>2026-04-30T07:31:03.82Z</time></trkpt><trkpt lat="40.88910182079182" lon="9.588308924262941"><ele>10.0</ele><time>2026-04-30T07:31:04.82Z</time></trkpt><trkpt lat="40.88903986822589" lon="9.588400488610992"><ele>10.0</ele><time>2026-04-30T07:31:05.82Z</time></trkpt><trkpt lat="40.8889809611445" lon="9.588484539746334"><ele>10.0</ele><time>2026-04-30T07:31:06.82Z</time></trkpt><trkpt lat="40.88891242196112" lon="9.58854174699567"><ele>10.0</ele><time>2026-04-30T07:31:07.82Z</time></trkpt><trkpt lat="40.88883668351365" lon="9.588567118149765"><ele>10.0</ele><time>2026-04-30T07:31:08.82Z</time></trkpt><trkpt lat="40.888763191927715" lon="9.58857345988003"><ele>10.0</ele><time>2026-04-30T07:31:09.82Z</time></trkpt><trkpt lat="40.888699279214435" lon="9.588609003899943"><ele>10.0</ele><time>2026-04-30T07:31:10.819Z</time></trkpt><trkpt lat="40.888652645468156" lon="9.588682933370908"><ele>10.0</ele><time>2026-04-30T07:31:11.819Z</time></trkpt><trkpt lat="40.888627632355345" lon="9.588781051364888"><ele>10.0</ele><time>2026-04-30T07:31:12.819Z</time></trkpt><trkpt lat="40.88861701080006" lon="9.588893869383671"><ele>10.0</ele><time>2026-04-30T07:31:13.819Z</time></trkpt><trkpt lat="40.88862446964832" lon="9.589008666669093"><ele>10.0</ele><time>2026-04-30T07:31:14.819Z</time></trkpt><trkpt lat="40.88856573422687" lon="9.589114296838256"><ele>10.0</ele><time>2026-04-30T07:31:15.819Z</time></trkpt><trkpt lat="40.888515523578164" lon="9.589180121100881"><ele>10.0</ele><time>2026-04-30T07:31:16.819Z</time></trkpt><trkpt lat="40.888444408431624" lon="9.589254523777049"><ele>10.0</ele><time>2026-04-30T07:31:18.819Z</time></trkpt><trkpt lat="40.88838668780142" lon="9.58933641905897"><ele>10.0</ele><time>2026-04-30T07:31:20.819Z</time></trkpt><trkpt lat="40.88831717240135" lon="9.589447069443283"><ele>10.0</ele><time>2026-04-30T07:31:22.819Z</time></trkpt><trkpt lat="40.88823179490138" lon="9.589561954382159"><ele>10.0</ele><time>2026-04-30T07:31:24.819Z</time></trkpt><trkpt lat="40.88815534928094" lon="9.589672661705347"><ele>10.0</ele><time>2026-04-30T07:31:26.819Z</time></trkpt><trkpt lat="40.88808133847102" lon="9.589779529702819"><ele>10.0</ele><time>2026-04-30T07:31:28.819Z</time></trkpt><trkpt lat="40.88800133495456" lon="9.589901689003248"><ele>10.0</ele><time>2026-04-30T07:31:30.819Z</time></trkpt><trkpt lat="40.887959309143696" lon="9.589967101728291"><ele>10.0</ele><time>2026-04-30T07:31:31.818Z</time></trkpt><trkpt lat="40.88791106291435" lon="9.59004343409654"><ele>10.0</ele><time>2026-04-30T07:31:32.818Z</time></trkpt><trkpt lat="40.88785811064845" lon="9.59012337275843"><ele>10.0</ele><time>2026-04-30T07:31:33.818Z</time></trkpt><trkpt lat="40.88780025159063" lon="9.590207010618206"><ele>10.0</ele><time>2026-04-30T07:31:34.818Z</time></trkpt><trkpt lat="40.88773762563049" lon="9.59029588838453"><ele>10.0</ele><time>2026-04-30T07:31:35.818Z</time></trkpt><trkpt lat="40.887681693721134" lon="9.590394391273504"><ele>10.0</ele><time>2026-04-30T07:31:36.818Z</time></trkpt><trkpt lat="40.88762849768143" lon="9.590498712526868"><ele>10.0</ele><time>2026-04-30T07:31:37.818Z</time></trkpt><trkpt lat="40.887571923726775" lon="9.590607481218939"><ele>10.4</ele><time>2026-04-30T07:31:38.818Z</time></trkpt><trkpt lat="40.887512186573176" lon="9.59071931971046"><ele>10.8</ele><time>2026-04-30T07:31:39.818Z</time></trkpt><trkpt lat="40.88745391823504" lon="9.590833702636894"><ele>11.2</ele><time>2026-04-30T07:31:40.818Z</time></trkpt><trkpt lat="40.88739184742931" lon="9.590946538699775"><ele>11.6</ele><time>2026-04-30T07:31:41.818Z</time></trkpt><trkpt lat="40.88733417702665" lon="9.591064087292656"><ele>12.0</ele><time>2026-04-30T07:31:42.818Z</time></trkpt><trkpt lat="40.88727617886099" lon="9.591184597760229"><ele>12.0</ele><time>2026-04-30T07:31:43.818Z</time></trkpt><trkpt lat="40.88721996698347" lon="9.59130705973816"><ele>12.0</ele><time>2026-04-30T07:31:44.818Z</time></trkpt><trkpt lat="40.8871646379781" lon="9.591433057080934"><ele>12.0</ele><time>2026-04-30T07:31:45.818Z</time></trkpt><trkpt lat="40.887099814776505" lon="9.591560209952839"><ele>12.0</ele><time>2026-04-30T07:31:46.818Z</time></trkpt><trkpt lat="40.88703473015477" lon="9.591691078899357"><ele>12.0</ele><time>2026-04-30T07:31:47.818Z</time></trkpt><trkpt lat="40.88697156095179" lon="9.591826191227948"><ele>12.0</ele><time>2026-04-30T07:31:48.818Z</time></trkpt><trkpt lat="40.88690580853602" lon="9.59196721295695"><ele>12.0</ele><time>2026-04-30T07:31:49.818Z</time></trkpt><trkpt lat="40.886833060135686" lon="9.592111516317416"><ele>12.0</ele><time>2026-04-30T07:31:50.818Z</time></trkpt><trkpt lat="40.886763294998865" lon="9.592255751504446"><ele>12.25</ele><time>2026-04-30T07:31:51.818Z</time></trkpt><trkpt lat="40.886692602397225" lon="9.592409256363535"><ele>12.5</ele><time>2026-04-30T07:31:52.817Z</time></trkpt><trkpt lat="40.88661528100431" lon="9.592567748337743"><ele>12.75</ele><time>2026-04-30T07:31:53.817Z</time></trkpt><trkpt lat="40.88653365412979" lon="9.592731181463396"><ele>13.0</ele><time>2026-04-30T07:31:54.817Z</time></trkpt><trkpt lat="40.88645235198267" lon="9.592899380015227"><ele>13.333333333333332</ele><time>2026-04-30T07:31:55.817Z</time></trkpt><trkpt lat="40.88636672559419" lon="9.593072268450278"><ele>13.666666666666668</ele><time>2026-04-30T07:31:56.817Z</time></trkpt><trkpt lat="40.886279304933154" lon="9.593246769621016"><ele>14.0</ele><time>2026-04-30T07:31:57.817Z</time></trkpt><trkpt lat="40.88619319081235" lon="9.593422125458561"><ele>14.0</ele><time>2026-04-30T07:31:58.817Z</time></trkpt><trkpt lat="40.886111783489014" lon="9.593586765704464"><ele>14.0</ele><time>2026-04-30T07:31:59.817Z</time></trkpt><trkpt lat="40.8860381866302" lon="9.593738723676534"><ele>14.0</ele><time>2026-04-30T07:32:00.817Z</time></trkpt><trkpt lat="40.88596909636567" lon="9.59388094185698"><ele>14.0</ele><time>2026-04-30T07:32:01.817Z</time></trkpt><trkpt lat="40.88590913233545" lon="9.594011053740243"><ele>13.75</ele><time>2026-04-30T07:32:02.817Z</time></trkpt><trkpt lat="40.885846758430525" lon="9.594136881916308"><ele>13.5</ele><time>2026-04-30T07:32:03.817Z</time></trkpt><trkpt lat="40.88578415539492" lon="9.594264047702323"><ele>13.25</ele><time>2026-04-30T07:32:04.817Z</time></trkpt><trkpt lat="40.88572211184949" lon="9.594394674966823"><ele>13.0</ele><time>2026-04-30T07:32:05.817Z</time></trkpt><trkpt lat="40.88565531798752" lon="9.594529892334782"><ele>12.5</ele><time>2026-04-30T07:32:06.817Z</time></trkpt><trkpt lat="40.88558851297012" lon="9.594676082175758"><ele>12.0</ele><time>2026-04-30T07:32:07.817Z</time></trkpt><trkpt lat="40.88551767945698" lon="9.594833274183388"><ele>11.5</ele><time>2026-04-30T07:32:08.817Z</time></trkpt><trkpt lat="40.885441197684585" lon="9.594999312913098"><ele>11.0</ele><time>2026-04-30T07:32:09.817Z</time></trkpt><trkpt lat="40.88537055880556" lon="9.595180481332935"><ele>11.666666666666666</ele><time>2026-04-30T07:32:10.817Z</time></trkpt><trkpt lat="40.88530679786924" lon="9.595369772437946"><ele>12.333333333333332</ele><time>2026-04-30T07:32:11.817Z</time></trkpt><trkpt lat="40.88525393316435" lon="9.595566366726505"><ele>13.0</ele><time>2026-04-30T07:32:12.818Z</time></trkpt><trkpt lat="40.88520204947737" lon="9.595766811105593"><ele>13.0</ele><time>2026-04-30T07:32:13.818Z</time></trkpt><trkpt lat="40.88514712361265" lon="9.595968510577288"><ele>13.0</ele><time>2026-04-30T07:32:14.818Z</time></trkpt><trkpt lat="40.885083541391666" lon="9.596157934560486"><ele>13.0</ele><time>2026-04-30T07:32:15.818Z</time></trkpt><trkpt lat="40.884986645869986" lon="9.596290699656466"><ele>13.75</ele><time>2026-04-30T07:32:16.818Z</time></trkpt><trkpt lat="40.88487159233896" lon="9.59637823987093"><ele>14.5</ele><time>2026-04-30T07:32:17.818Z</time></trkpt><trkpt lat="40.884744064002675" lon="9.59644753627736"><ele>15.25</ele><time>2026-04-30T07:32:18.817Z</time></trkpt><trkpt lat="40.88460422717059" lon="9.596521979208221"><ele>16.0</ele><time>2026-04-30T07:32:19.818Z</time></trkpt><trkpt lat="40.88446469909665" lon="9.596617892279218"><ele>16.0</ele><time>2026-04-30T07:32:20.818Z</time></trkpt><trkpt lat="40.884319188169115" lon="9.59669254385889"><ele>16.0</ele><time>2026-04-30T07:32:21.817Z</time></trkpt><trkpt lat="40.88416060951127" lon="9.596736473343327"><ele>16.0</ele><time>2026-04-30T07:32:22.817Z</time></trkpt><trkpt lat="40.88399736055037" lon="9.59676269983213"><ele>17.0</ele><time>2026-04-30T07:32:23.817Z</time></trkpt><trkpt lat="40.883827254846494" lon="9.596777036755237"><ele>18.0</ele><time>2026-04-30T07:32:24.817Z</time></trkpt><trkpt lat="40.883651752341976" lon="9.596839693132113"><ele>19.0</ele><time>2026-04-30T07:32:25.817Z</time></trkpt><trkpt lat="40.883482303563625" lon="9.596906538085793"><ele>20.333333333333332</ele><time>2026-04-30T07:32:26.817Z</time></trkpt><trkpt lat="40.88331832430081" lon="9.59699256918587"><ele>21.666666666666668</ele><time>2026-04-30T07:32:27.817Z</time></trkpt><trkpt lat="40.88316613727133" lon="9.597066537094117"><ele>23.0</ele><time>2026-04-30T07:32:28.817Z</time></trkpt><trkpt lat="40.88302528749704" lon="9.597070741133022"><ele>23.0</ele><time>2026-04-30T07:32:29.817Z</time></trkpt><trkpt lat="40.882899161616955" lon="9.597024200385366"><ele>23.0</ele><time>2026-04-30T07:32:30.817Z</time></trkpt><trkpt lat="40.88277628495084" lon="9.596941804845466"><ele>23.0</ele><time>2026-04-30T07:32:31.817Z</time></trkpt><trkpt lat="40.882644614237414" lon="9.596863828143231"><ele>23.0</ele><time>2026-04-30T07:32:32.817Z</time></trkpt><trkpt lat="40.882528559494475" lon="9.5968299567901"><ele>23.4</ele><time>2026-04-30T07:32:33.817Z</time></trkpt><trkpt lat="40.882421925845804" lon="9.596873023316185"><ele>23.799999999999997</ele><time>2026-04-30T07:32:34.817Z</time></trkpt><trkpt lat="40.88232036331069" lon="9.596964981144666"><ele>24.2</ele><time>2026-04-30T07:32:35.817Z</time></trkpt><trkpt lat="40.88224960683865" lon="9.597068246091768"><ele>24.6</ele><time>2026-04-30T07:32:36.817Z</time></trkpt><trkpt lat="40.88220950087853" lon="9.597137134645934"><ele>25.0</ele><time>2026-04-30T07:32:37.817Z</time></trkpt><trkpt lat="40.88217231324175" lon="9.597213877308837"><ele>26.333333333333336</ele><time>2026-04-30T07:32:41.816Z</time></trkpt><trkpt lat="40.88209907864055" lon="9.597318283859721"><ele>27.666666666666668</ele><time>2026-04-30T07:33:28.814Z</time></trkpt><trkpt lat="40.882055547474216" lon="9.597382244051321"><ele>29.0</ele><time>2026-04-30T07:33:29.814Z</time></trkpt><trkpt lat="40.88200508855762" lon="9.597457935941955"><ele>30.333333333333336</ele><time>2026-04-30T07:33:30.814Z</time></trkpt><trkpt lat="40.881958821644254" lon="9.597527345561486"><ele>31.666666666666668</ele><time>2026-04-30T07:33:31.814Z</time></trkpt><trkpt lat="40.88191203226975" lon="9.597595637453624"><ele>33.0</ele><time>2026-04-30T07:33:32.814Z</time></trkpt><trkpt lat="40.88186989870354" lon="9.597659298859066"><ele>33.0</ele><time>2026-04-30T07:33:33.814Z</time></trkpt><trkpt lat="40.881802321676076" lon="9.597757165249138"><ele>33.0</ele><time>2026-04-30T07:33:35.814Z</time></trkpt><trkpt lat="40.881749259707014" lon="9.597827598390651"><ele>33.0</ele><time>2026-04-30T07:33:37.814Z</time></trkpt><trkpt lat="40.881701913806204" lon="9.597897058959393"><ele>33.0</ele><time>2026-04-30T07:33:40.814Z</time></trkpt><trkpt lat="40.88163735833871" lon="9.597992543652527"><ele>33.0</ele><time>2026-04-30T07:34:58.812Z</time></trkpt><trkpt lat="40.88156686313537" lon="9.598095271823947"><ele>33.0</ele><time>2026-04-30T07:35:00.812Z</time></trkpt><trkpt lat="40.88152326751354" lon="9.598160414099974"><ele>33.166666666666664</ele><time>2026-04-30T07:35:01.812Z</time></trkpt><trkpt lat="40.881443990173786" lon="9.598285939740862"><ele>33.333333333333336</ele><time>2026-04-30T07:35:03.812Z</time></trkpt><trkpt lat="40.88139694510699" lon="9.598357133217988"><ele>33.5</ele><time>2026-04-30T07:35:04.812Z</time></trkpt><trkpt lat="40.88134598699901" lon="9.598435987068285"><ele>33.66666666666667</ele><time>2026-04-30T07:35:05.812Z</time></trkpt><trkpt lat="40.881293401467204" lon="9.598509560873174"><ele>33.833333333333336</ele><time>2026-04-30T07:35:06.812Z</time></trkpt><trkpt lat="40.88124255296331" lon="9.598579162790621"><ele>34.0</ele><time>2026-04-30T07:35:07.812Z</time></trkpt><trkpt lat="40.88119430861465" lon="9.598647248226525"><ele>34.0</ele><time>2026-04-30T07:35:08.812Z</time></trkpt><trkpt lat="40.881143784778416" lon="9.598716957518397"><ele>34.0</ele><time>2026-04-30T07:35:09.812Z</time></trkpt><trkpt lat="40.88109212923362" lon="9.598795173454842"><ele>34.0</ele><time>2026-04-30T07:35:10.812Z</time></trkpt><trkpt lat="40.88103703223456" lon="9.598879329674398"><ele>34.0</ele><time>2026-04-30T07:35:11.812Z</time></trkpt><trkpt lat="40.88097705683272" lon="9.598967272968524"><ele>34.0</ele><time>2026-04-30T07:35:12.812Z</time></trkpt><trkpt lat="40.88091080335947" lon="9.599067090739922"><ele>34.0</ele><time>2026-04-30T07:35:13.811Z</time></trkpt><trkpt lat="40.88084400842475" lon="9.599173038596781"><ele>33.25</ele><time>2026-04-30T07:35:14.811Z</time></trkpt><trkpt lat="40.88075723476847" lon="9.599280805980506"><ele>32.5</ele><time>2026-04-30T07:35:15.811Z</time></trkpt><trkpt lat="40.88068449295149" lon="9.599431084254968"><ele>31.75</ele><time>2026-04-30T07:35:16.811Z</time></trkpt><trkpt lat="40.88062334983148" lon="9.59959872070962"><ele>31.0</ele><time>2026-04-30T07:35:17.811Z</time></trkpt><trkpt lat="40.88057732559768" lon="9.59976696883351"><ele>31.0</ele><time>2026-04-30T07:35:18.811Z</time></trkpt><trkpt lat="40.880537149791444" lon="9.599938193008622"><ele>31.0</ele><time>2026-04-30T07:35:19.811Z</time></trkpt><trkpt lat="40.880498275579136" lon="9.600113745042103"><ele>31.0</ele><time>2026-04-30T07:35:20.811Z</time></trkpt><trkpt lat="40.88046003600398" lon="9.600296731060366"><ele>31.0</ele><time>2026-04-30T07:35:21.811Z</time></trkpt><trkpt lat="40.880430771761645" lon="9.600484602310347"><ele>31.5</ele><time>2026-04-30T07:35:22.811Z</time></trkpt><trkpt lat="40.88040698068822" lon="9.600675518656908"><ele>32.0</ele><time>2026-04-30T07:35:23.811Z</time></trkpt><trkpt lat="40.88039960112651" lon="9.600864310448166"><ele>32.5</ele><time>2026-04-30T07:35:24.811Z</time></trkpt><trkpt lat="40.88040180444086" lon="9.601050400992198"><ele>33.0</ele><time>2026-04-30T07:35:25.811Z</time></trkpt><trkpt lat="40.88040382343391" lon="9.601235989912514"><ele>33.25</ele><time>2026-04-30T07:35:26.811Z</time></trkpt><trkpt lat="40.880407042892465" lon="9.601421226250482"><ele>33.5</ele><time>2026-04-30T07:35:27.811Z</time></trkpt><trkpt lat="40.88041028900639" lon="9.601602302321474"><ele>33.75</ele><time>2026-04-30T07:35:28.811Z</time></trkpt><trkpt lat="40.88040840196812" lon="9.601785514533411"><ele>34.0</ele><time>2026-04-30T07:35:29.811Z</time></trkpt><trkpt lat="40.88041216690433" lon="9.601970624356607"><ele>34.0</ele><time>2026-04-30T07:35:30.811Z</time></trkpt><trkpt lat="40.8804160192747" lon="9.602154713140143"><ele>34.0</ele><time>2026-04-30T07:35:31.811Z</time></trkpt><trkpt lat="40.88042002718115" lon="9.602340948970975"><ele>34.0</ele><time>2026-04-30T07:35:32.811Z</time></trkpt><trkpt lat="40.88041885893985" lon="9.602523401583994"><ele>34.0</ele><time>2026-04-30T07:35:33.811Z</time></trkpt><trkpt lat="40.88041980419887" lon="9.602709949855562"><ele>34.25</ele><time>2026-04-30T07:35:34.81Z</time></trkpt><trkpt lat="40.88042537648451" lon="9.602899316083143"><ele>34.5</ele><time>2026-04-30T07:35:35.81Z</time></trkpt><trkpt lat="40.880433290089314" lon="9.603085636388121"><ele>34.75</ele><time>2026-04-30T07:35:36.81Z</time></trkpt><trkpt lat="40.88045842144761" lon="9.603276410206615"><ele>35.0</ele><time>2026-04-30T07:35:37.81Z</time></trkpt><trkpt lat="40.88049838762384" lon="9.60346421539014"><ele>35.0</ele><time>2026-04-30T07:35:38.81Z</time></trkpt><trkpt lat="40.880554568739996" lon="9.603655008268499"><ele>35.0</ele><time>2026-04-30T07:35:39.81Z</time></trkpt><trkpt lat="40.88061683429004" lon="9.603852116947882"><ele>35.0</ele><time>2026-04-30T07:35:40.81Z</time></trkpt><trkpt lat="40.88068158233459" lon="9.604050073203439"><ele>34.666666666666664</ele><time>2026-04-30T07:35:41.81Z</time></trkpt><trkpt lat="40.880725063170736" lon="9.604269866125161"><ele>34.333333333333336</ele><time>2026-04-30T07:35:42.81Z</time></trkpt><trkpt lat="40.8807517092376" lon="9.604496784732689"><ele>34.0</ele><time>2026-04-30T07:35:43.81Z</time></trkpt><trkpt lat="40.880753930868" lon="9.604728695856753"><ele>34.66666666666667</ele><time>2026-04-30T07:35:44.81Z</time></trkpt><trkpt lat="40.88074409719458" lon="9.60497055849382"><ele>35.333333333333336</ele><time>2026-04-30T07:35:45.81Z</time></trkpt><trkpt lat="40.880739898705826" lon="9.605210763543173"><ele>36.0</ele><time>2026-04-30T07:35:46.81Z</time></trkpt><trkpt lat="40.88073943062631" lon="9.605456810546924"><ele>37.0</ele><time>2026-04-30T07:35:47.81Z</time></trkpt><trkpt lat="40.880736485107114" lon="9.605701959539301"><ele>38.0</ele><time>2026-04-30T07:35:48.81Z</time></trkpt><trkpt lat="40.880732469027144" lon="9.605956056740615"><ele>39.0</ele><time>2026-04-30T07:35:49.81Z</time></trkpt><trkpt lat="40.8807280439735" lon="9.60620827127611"><ele>39.666666666666664</ele><time>2026-04-30T07:35:50.81Z</time></trkpt><trkpt lat="40.880729438991274" lon="9.60646548996256"><ele>40.33333333333333</ele><time>2026-04-30T07:35:51.81Z</time></trkpt><trkpt lat="40.88072999078036" lon="9.606723829010217"><ele>41.0</ele><time>2026-04-30T07:35:52.81Z</time></trkpt><trkpt lat="40.88072990751442" lon="9.606976054307784"><ele>41.33333333333333</ele><time>2026-04-30T07:35:53.81Z</time></trkpt><trkpt lat="40.880716635838255" lon="9.607211767833245"><ele>41.666666666666664</ele><time>2026-04-30T07:35:54.81Z</time></trkpt><trkpt lat="40.88067835042191" lon="9.607421629779267"><ele>42.0</ele><time>2026-04-30T07:35:55.809Z</time></trkpt><trkpt lat="40.880619767076304" lon="9.607630254494774"><ele>42.333333333333336</ele><time>2026-04-30T07:35:56.809Z</time></trkpt><trkpt lat="40.88054337441524" lon="9.607827660128901"><ele>42.66666666666667</ele><time>2026-04-30T07:35:57.809Z</time></trkpt><trkpt lat="40.88045197601697" lon="9.608024878212278"><ele>43.0</ele><time>2026-04-30T07:35:58.809Z</time></trkpt><trkpt lat="40.88036706424626" lon="9.608223193524118"><ele>43.0</ele><time>2026-04-30T07:35:59.809Z</time></trkpt><trkpt lat="40.88028699542252" lon="9.60842611726904"><ele>43.0</ele><time>2026-04-30T07:36:00.809Z</time></trkpt><trkpt lat="40.88020677513526" lon="9.60863738980149"><ele>43.0</ele><time>2026-04-30T07:36:01.809Z</time></trkpt><trkpt lat="40.88013655658851" lon="9.608856381183967"><ele>44.66666666666667</ele><time>2026-04-30T07:36:02.809Z</time></trkpt><trkpt lat="40.88008052387873" lon="9.609071232047521"><ele>46.333333333333336</ele><time>2026-04-30T07:36:03.809Z</time></trkpt><trkpt lat="40.88003163371987" lon="9.609293405154801"><ele>48.0</ele><time>2026-04-30T07:36:04.809Z</time></trkpt><trkpt lat="40.87998530270327" lon="9.609514435030956"><ele>49.0</ele><time>2026-04-30T07:36:05.809Z</time></trkpt><trkpt lat="40.87993862474562" lon="9.609723471680033"><ele>50.0</ele><time>2026-04-30T07:36:06.809Z</time></trkpt><trkpt lat="40.87989101071048" lon="9.609922631955717"><ele>51.0</ele><time>2026-04-30T07:36:07.809Z</time></trkpt><trkpt lat="40.87984719583516" lon="9.610126058713364"><ele>50.66666666666667</ele><time>2026-04-30T07:36:08.811Z</time></trkpt><trkpt lat="40.87980279958713" lon="9.610328662089648"><ele>50.333333333333336</ele><time>2026-04-30T07:36:09.812Z</time></trkpt><trkpt lat="40.879758368989535" lon="9.610532090561069"><ele>50.0</ele><time>2026-04-30T07:36:10.813Z</time></trkpt><trkpt lat="40.87971320032536" lon="9.610736559901481"><ele>50.0</ele><time>2026-04-30T07:36:11.814Z</time></trkpt><trkpt lat="40.87966910036638" lon="9.610943364969348"><ele>50.0</ele><time>2026-04-30T07:36:12.815Z</time></trkpt><trkpt lat="40.879623913985576" lon="9.61115213975032"><ele>50.0</ele><time>2026-04-30T07:36:13.816Z</time></trkpt><trkpt lat="40.87957719432202" lon="9.611358840895154"><ele>50.333333333333336</ele><time>2026-04-30T07:36:14.817Z</time></trkpt><trkpt lat="40.87953119478453" lon="9.611566106670198"><ele>50.66666666666667</ele><time>2026-04-30T07:36:15.818Z</time></trkpt><trkpt lat="40.87948589874438" lon="9.611770712078696"><ele>51.0</ele><time>2026-04-30T07:36:16.819Z</time></trkpt><trkpt lat="40.87944056055194" lon="9.611973470846342"><ele>52.0</ele><time>2026-04-30T07:36:17.819Z</time></trkpt><trkpt lat="40.87939911498986" lon="9.612175345667474"><ele>53.0</ele><time>2026-04-30T07:36:18.82Z</time></trkpt><trkpt lat="40.87936605998143" lon="9.612371600739488"><ele>54.0</ele><time>2026-04-30T07:36:19.821Z</time></trkpt><trkpt lat="40.879339752549996" lon="9.61255948422464"><ele>54.0</ele><time>2026-04-30T07:36:20.821Z</time></trkpt><trkpt lat="40.87932357181825" lon="9.61274388838168"><ele>54.0</ele><time>2026-04-30T07:36:21.822Z</time></trkpt><trkpt lat="40.87931151439112" lon="9.612925826240456"><ele>54.0</ele><time>2026-04-30T07:36:22.822Z</time></trkpt><trkpt lat="40.8792880945184" lon="9.613117222645858"><ele>54.0</ele><time>2026-04-30T07:36:23.824Z</time></trkpt><trkpt lat="40.879249609425656" lon="9.613311817422343"><ele>53.0</ele><time>2026-04-30T07:36:24.824Z</time></trkpt><trkpt lat="40.87919874612709" lon="9.613512270611949"><ele>52.0</ele><time>2026-04-30T07:36:25.825Z</time></trkpt><trkpt lat="40.879144842921576" lon="9.613728799179507"><ele>51.0</ele><time>2026-04-30T07:36:26.826Z</time></trkpt><trkpt lat="40.87909375544848" lon="9.613951681181765"><ele>50.33333333333333</ele><time>2026-04-30T07:36:27.826Z</time></trkpt><trkpt lat="40.87904576541385" lon="9.614173133501884"><ele>49.666666666666664</ele><time>2026-04-30T07:36:28.826Z</time></trkpt><trkpt lat="40.87899586847207" lon="9.614380224528611"><ele>49.0</ele><time>2026-04-30T07:36:29.827Z</time></trkpt><trkpt lat="40.8789361099137" lon="9.614561983913276"><ele>47.75</ele><time>2026-04-30T07:36:30.826Z</time></trkpt><trkpt lat="40.878855176224846" lon="9.614722175733872"><ele>46.5</ele><time>2026-04-30T07:36:31.827Z</time></trkpt><trkpt lat="40.8787369114825" lon="9.614846794252882"><ele>45.25</ele><time>2026-04-30T07:36:32.827Z</time></trkpt><trkpt lat="40.87862973728741" lon="9.61498465461387"><ele>44.0</ele><time>2026-04-30T07:36:33.827Z</time></trkpt><trkpt lat="40.87849935623255" lon="9.615115239328045"><ele>43.33333333333333</ele><time>2026-04-30T07:36:34.828Z</time></trkpt><trkpt lat="40.87839158417465" lon="9.61526295158912"><ele>42.666666666666664</ele><time>2026-04-30T07:36:35.828Z</time></trkpt><trkpt lat="40.878317723608205" lon="9.615438920709448"><ele>42.0</ele><time>2026-04-30T07:36:36.828Z</time></trkpt><trkpt lat="40.87827640904394" lon="9.615640762393467"><ele>40.666666666666664</ele><time>2026-04-30T07:36:37.828Z</time></trkpt><trkpt lat="40.878266143115745" lon="9.615862269699573"><ele>39.33333333333333</ele><time>2026-04-30T07:36:38.828Z</time></trkpt><trkpt lat="40.87826762107599" lon="9.616092073785282"><ele>38.0</ele><time>2026-04-30T07:36:39.828Z</time></trkpt><trkpt lat="40.878265878563106" lon="9.616327209069823"><ele>37.0</ele><time>2026-04-30T07:36:40.828Z</time></trkpt><trkpt lat="40.878238017676715" lon="9.616566334387882"><ele>36.0</ele><time>2026-04-30T07:36:41.828Z</time></trkpt><trkpt lat="40.87819680242644" lon="9.616783168719557"><ele>35.0</ele><time>2026-04-30T07:36:42.829Z</time></trkpt><trkpt lat="40.87814770583863" lon="9.61697860083876"><ele>34.75</ele><time>2026-04-30T07:36:43.829Z</time></trkpt><trkpt lat="40.878091256408005" lon="9.617161809512133"><ele>34.5</ele><time>2026-04-30T07:36:44.829Z</time></trkpt><trkpt lat="40.87803236515616" lon="9.61733269626166"><ele>34.25</ele><time>2026-04-30T07:36:45.829Z</time></trkpt><trkpt lat="40.87797461654199" lon="9.617498263013294"><ele>34.0</ele><time>2026-04-30T07:36:46.829Z</time></trkpt><trkpt lat="40.877914060710005" lon="9.617656373487153"><ele>34.0</ele><time>2026-04-30T07:36:47.829Z</time></trkpt><trkpt lat="40.87784555915116" lon="9.61780926185957"><ele>34.0</ele><time>2026-04-30T07:36:48.829Z</time></trkpt><trkpt lat="40.87777738384894" lon="9.617946064134319"><ele>34.0</ele><time>2026-04-30T07:36:49.829Z</time></trkpt><trkpt lat="40.87771425460613" lon="9.618084053740176"><ele>34.0</ele><time>2026-04-30T07:36:50.829Z</time></trkpt><trkpt lat="40.87766421787591" lon="9.61822035056294"><ele>33.8</ele><time>2026-04-30T07:36:51.829Z</time></trkpt><trkpt lat="40.87762812783376" lon="9.618357351987541"><ele>33.599999999999994</ele><time>2026-04-30T07:36:52.829Z</time></trkpt><trkpt lat="40.877597192393836" lon="9.61849251602092"><ele>33.4</ele><time>2026-04-30T07:36:53.829Z</time></trkpt><trkpt lat="40.87756949113397" lon="9.618632404708183"><ele>33.199999999999996</ele><time>2026-04-30T07:36:54.829Z</time></trkpt><trkpt lat="40.87753891863407" lon="9.618771991993084"><ele>33.0</ele><time>2026-04-30T07:36:55.829Z</time></trkpt><trkpt lat="40.8775099612865" lon="9.618910104347409"><ele>30.5</ele><time>2026-04-30T07:36:56.829Z</time></trkpt><trkpt lat="40.877485120348304" lon="9.619050923924142"><ele>28.0</ele><time>2026-04-30T07:36:57.829Z</time></trkpt><trkpt lat="40.8774719844588" lon="9.619205250145116"><ele>25.5</ele><time>2026-04-30T07:36:58.829Z</time></trkpt><trkpt lat="40.87747677845196" lon="9.619369802313026"><ele>23.0</ele><time>2026-04-30T07:36:59.829Z</time></trkpt><trkpt lat="40.877505431613066" lon="9.619532798265439"><ele>23.5</ele><time>2026-04-30T07:37:00.829Z</time></trkpt><trkpt lat="40.877554967023485" lon="9.619689368653477"><ele>24.0</ele><time>2026-04-30T07:37:01.829Z</time></trkpt><trkpt lat="40.87761447668895" lon="9.619846136875058"><ele>24.5</ele><time>2026-04-30T07:37:02.829Z</time></trkpt><trkpt lat="40.87767580049697" lon="9.62001568890597"><ele>25.0</ele><time>2026-04-30T07:37:03.829Z</time></trkpt><trkpt lat="40.877739152427644" lon="9.620183940944955"><ele>23.25</ele><time>2026-04-30T07:37:04.829Z</time></trkpt><trkpt lat="40.87779680777031" lon="9.62034247911261"><ele>21.5</ele><time>2026-04-30T07:37:05.829Z</time></trkpt><trkpt lat="40.877843013606636" lon="9.620492635451813"><ele>19.75</ele><time>2026-04-30T07:37:06.829Z</time></trkpt><trkpt lat="40.87787518076006" lon="9.620635599679757"><ele>18.0</ele><time>2026-04-30T07:37:07.829Z</time></trkpt><trkpt lat="40.87789830707543" lon="9.620778530176832"><ele>18.0</ele><time>2026-04-30T07:37:08.829Z</time></trkpt><trkpt lat="40.87791168660583" lon="9.620915346541269"><ele>18.0</ele><time>2026-04-30T07:37:09.829Z</time></trkpt><trkpt lat="40.87792023373267" lon="9.621046814633324"><ele>18.0</ele><time>2026-04-30T07:37:10.829Z</time></trkpt><trkpt lat="40.87792535116668" lon="9.621173339403562"><ele>18.0</ele><time>2026-04-30T07:37:11.829Z</time></trkpt><trkpt lat="40.8779285735063" lon="9.621303274341507"><ele>18.0</ele><time>2026-04-30T07:37:12.829Z</time></trkpt><trkpt lat="40.87793060144985" lon="9.621446327645502"><ele>17.25</ele><time>2026-04-30T07:37:13.829Z</time></trkpt><trkpt lat="40.877919370315915" lon="9.621597926442174"><ele>16.5</ele><time>2026-04-30T07:37:14.829Z</time></trkpt><trkpt lat="40.87789997367393" lon="9.621754053376922"><ele>15.75</ele><time>2026-04-30T07:37:15.829Z</time></trkpt><trkpt lat="40.87787600579155" lon="9.621911495870453"><ele>15.0</ele><time>2026-04-30T07:37:16.829Z</time></trkpt><trkpt lat="40.87784609093571" lon="9.622074581809764"><ele>14.0</ele><time>2026-04-30T07:37:17.829Z</time></trkpt><trkpt lat="40.87781599374904" lon="9.62224326519591"><ele>13.0</ele><time>2026-04-30T07:37:18.829Z</time></trkpt><trkpt lat="40.8777877601225" lon="9.6224191855693"><ele>12.0</ele><time>2026-04-30T07:37:19.829Z</time></trkpt><trkpt lat="40.877759160349655" lon="9.622590020656583"><ele>11.0</ele><time>2026-04-30T07:37:20.829Z</time></trkpt><trkpt lat="40.87772935692007" lon="9.622755324195394"><ele>11.0</ele><time>2026-04-30T07:37:21.829Z</time></trkpt><trkpt lat="40.87770000736259" lon="9.622916558288683"><ele>11.0</ele><time>2026-04-30T07:37:22.829Z</time></trkpt><trkpt lat="40.877663369923255" lon="9.623081657450623"><ele>11.0</ele><time>2026-04-30T07:37:23.829Z</time></trkpt><trkpt lat="40.877622627923735" lon="9.6232461204245"><ele>11.0</ele><time>2026-04-30T07:37:24.829Z</time></trkpt><trkpt lat="40.87757703051723" lon="9.623406861276935"><ele>11.5</ele><time>2026-04-30T07:37:25.829Z</time></trkpt><trkpt lat="40.87752256948271" lon="9.623560948363334"><ele>12.0</ele><time>2026-04-30T07:37:26.829Z</time></trkpt><trkpt lat="40.87746570653489" lon="9.62371604410385"><ele>12.5</ele><time>2026-04-30T07:37:27.829Z</time></trkpt><trkpt lat="40.87740829419823" lon="9.623869231527422"><ele>13.0</ele><time>2026-04-30T07:37:28.829Z</time></trkpt><trkpt lat="40.87735299727301" lon="9.624023999559476"><ele>13.25</ele><time>2026-04-30T07:37:29.829Z</time></trkpt><trkpt lat="40.87729812327253" lon="9.6241773256347"><ele>13.5</ele><time>2026-04-30T07:37:30.829Z</time></trkpt><trkpt lat="40.87724480663169" lon="9.624333057453061"><ele>13.75</ele><time>2026-04-30T07:37:31.829Z</time></trkpt><trkpt lat="40.877190842674416" lon="9.62448955456965"><ele>14.0</ele><time>2026-04-30T07:37:32.829Z</time></trkpt><trkpt lat="40.8771383644085" lon="9.624635398021962"><ele>14.0</ele><time>2026-04-30T07:37:33.829Z</time></trkpt><trkpt lat="40.87708640067688" lon="9.624785891551436"><ele>14.0</ele><time>2026-04-30T07:37:34.829Z</time></trkpt><trkpt lat="40.87703512002095" lon="9.624939986983863"><ele>14.0</ele><time>2026-04-30T07:37:35.829Z</time></trkpt><trkpt lat="40.876980876921145" lon="9.625104618904631"><ele>14.0</ele><time>2026-04-30T07:37:36.828Z</time></trkpt><trkpt lat="40.876921959909396" lon="9.625272870327501"><ele>13.5</ele><time>2026-04-30T07:37:37.828Z</time></trkpt><trkpt lat="40.87686192645216" lon="9.625442464530934"><ele>13.0</ele><time>2026-04-30T07:37:38.828Z</time></trkpt><trkpt lat="40.87680344835401" lon="9.62561979996471"><ele>12.5</ele><time>2026-04-30T07:37:39.828Z</time></trkpt><trkpt lat="40.87675101289868" lon="9.625790653347511"><ele>12.0</ele><time>2026-04-30T07:37:40.828Z</time></trkpt><trkpt lat="40.8767178908384" lon="9.625969616874642"><ele>12.0</ele><time>2026-04-30T07:37:41.828Z</time></trkpt><trkpt lat="40.876709710710834" lon="9.626146810782654"><ele>12.0</ele><time>2026-04-30T07:37:42.828Z</time></trkpt><trkpt lat="40.876729559719166" lon="9.626312474520116"><ele>12.0</ele><time>2026-04-30T07:37:43.828Z</time></trkpt><trkpt lat="40.87677283936004" lon="9.626466016170703"><ele>12.0</ele><time>2026-04-30T07:37:44.828Z</time></trkpt><trkpt lat="40.87683230992021" lon="9.626611831144608"><ele>12.0</ele><time>2026-04-30T07:37:45.828Z</time></trkpt><trkpt lat="40.876889237142905" lon="9.626759512866945"><ele>12.0</ele><time>2026-04-30T07:37:46.828Z</time></trkpt><trkpt lat="40.876923839933575" lon="9.626919778673082"><ele>12.0</ele><time>2026-04-30T07:37:47.828Z</time></trkpt><trkpt lat="40.87693518191368" lon="9.627084811051917"><ele>12.0</ele><time>2026-04-30T07:37:48.828Z</time></trkpt><trkpt lat="40.87691449083463" lon="9.627253878064073"><ele>13.25</ele><time>2026-04-30T07:37:49.828Z</time></trkpt><trkpt lat="40.87687396593871" lon="9.627414098086692"><ele>14.5</ele><time>2026-04-30T07:37:50.828Z</time></trkpt><trkpt lat="40.87682285263439" lon="9.627572386989174"><ele>15.75</ele><time>2026-04-30T07:37:51.828Z</time></trkpt><trkpt lat="40.87675564000328" lon="9.627725150026317"><ele>17.0</ele><time>2026-04-30T07:37:52.828Z</time></trkpt><trkpt lat="40.876656539907096" lon="9.627851087304347"><ele>17.0</ele><time>2026-04-30T07:37:53.828Z</time></trkpt><trkpt lat="40.876550360019785" lon="9.627961347575898"><ele>17.0</ele><time>2026-04-30T07:37:54.828Z</time></trkpt><trkpt lat="40.87643587560451" lon="9.628068158371507"><ele>17.0</ele><time>2026-04-30T07:37:55.828Z</time></trkpt><trkpt lat="40.87633336542182" lon="9.628183043309908"><ele>17.0</ele><time>2026-04-30T07:37:56.828Z</time></trkpt><trkpt lat="40.87623284117932" lon="9.628260983373712"><ele>17.0</ele><time>2026-04-30T07:37:57.828Z</time></trkpt><trkpt lat="40.876143013848754" lon="9.628339753138578"><ele>17.0</ele><time>2026-04-30T07:37:58.828Z</time></trkpt><trkpt lat="40.8760566087076" lon="9.628423536803469"><ele>17.0</ele><time>2026-04-30T07:37:59.828Z</time></trkpt><trkpt lat="40.87597567499904" lon="9.628512326060571"><ele>17.0</ele><time>2026-04-30T07:38:00.828Z</time></trkpt><trkpt lat="40.875908832233414" lon="9.628609226197888"><ele>17.0</ele><time>2026-04-30T07:38:01.827Z</time></trkpt><trkpt lat="40.87585511604531" lon="9.628702718258335"><ele>16.166666666666668</ele><time>2026-04-30T07:38:02.827Z</time></trkpt><trkpt lat="40.87579667100095" lon="9.628775120597272"><ele>15.333333333333334</ele><time>2026-04-30T07:38:03.827Z</time></trkpt><trkpt lat="40.87572783330461" lon="9.628828436533954"><ele>14.5</ele><time>2026-04-30T07:38:04.827Z</time></trkpt><trkpt lat="40.87564856432051" lon="9.628864551291404"><ele>13.666666666666668</ele><time>2026-04-30T07:38:05.827Z</time></trkpt><trkpt lat="40.87556920425085" lon="9.628909684919075"><ele>12.833333333333334</ele><time>2026-04-30T07:38:06.827Z</time></trkpt><trkpt lat="40.87549810450044" lon="9.628968266166465"><ele>12.0</ele><time>2026-04-30T07:38:07.827Z</time></trkpt><trkpt lat="40.87542141270032" lon="9.629027824487164"><ele>12.0</ele><time>2026-04-30T07:38:08.827Z</time></trkpt><trkpt lat="40.87534895584921" lon="9.629090700584563"><ele>12.0</ele><time>2026-04-30T07:38:09.827Z</time></trkpt><trkpt lat="40.87527603243159" lon="9.629151460164673"><ele>12.0</ele><time>2026-04-30T07:38:10.827Z</time></trkpt><trkpt lat="40.87519010794559" lon="9.629193106727344"><ele>12.0</ele><time>2026-04-30T07:38:11.827Z</time></trkpt><trkpt lat="40.87511632017627" lon="9.629260697556262"><ele>12.0</ele><time>2026-04-30T07:38:12.827Z</time></trkpt><trkpt lat="40.8750504418928" lon="9.629346824178546"><ele>12.0</ele><time>2026-04-30T07:38:13.827Z</time></trkpt><trkpt lat="40.87495919261266" lon="9.629390805519279"><ele>11.8</ele><time>2026-04-30T07:38:14.827Z</time></trkpt><trkpt lat="40.87488332701017" lon="9.629460922703956"><ele>11.6</ele><time>2026-04-30T07:38:15.827Z</time></trkpt><trkpt lat="40.87480617948053" lon="9.629528499906769"><ele>11.4</ele><time>2026-04-30T07:38:16.827Z</time></trkpt><trkpt lat="40.874729862722184" lon="9.629600808297198"><ele>11.200000000000001</ele><time>2026-04-30T07:38:17.827Z</time></trkpt><trkpt lat="40.874649010782875" lon="9.629674111935405"><ele>11.0</ele><time>2026-04-30T07:38:18.827Z</time></trkpt><trkpt lat="40.87455902429207" lon="9.629743694495017"><ele>11.0</ele><time>2026-04-30T07:38:19.827Z</time></trkpt><trkpt lat="40.87447501102523" lon="9.629827772182207"><ele>11.0</ele><time>2026-04-30T07:38:20.827Z</time></trkpt><trkpt lat="40.87438920926185" lon="9.629905933235417"><ele>11.0</ele><time>2026-04-30T07:38:21.827Z</time></trkpt><trkpt lat="40.8743015852976" lon="9.629983903011752"><ele>11.0</ele><time>2026-04-30T07:38:22.827Z</time></trkpt><trkpt lat="40.87421575025828" lon="9.630062122272086"><ele>11.0</ele><time>2026-04-30T07:38:23.827Z</time></trkpt><trkpt lat="40.874136770951885" lon="9.630131667893275"><ele>11.0</ele><time>2026-04-30T07:38:24.827Z</time></trkpt><trkpt lat="40.87406677386003" lon="9.630191294649837"><ele>11.0</ele><time>2026-04-30T07:38:25.827Z</time></trkpt><trkpt lat="40.87400353332183" lon="9.630246634151044"><ele>11.0</ele><time>2026-04-30T07:38:26.826Z</time></trkpt><trkpt lat="40.87394383347447" lon="9.630301179690415"><ele>11.0</ele><time>2026-04-30T07:38:27.826Z</time></trkpt><trkpt lat="40.87388588754944" lon="9.630357881211932"><ele>11.0</ele><time>2026-04-30T07:38:28.826Z</time></trkpt><trkpt lat="40.87382626158316" lon="9.630410406463122"><ele>11.0</ele><time>2026-04-30T07:38:29.828Z</time></trkpt><trkpt lat="40.87376382921128" lon="9.630466059302645"><ele>11.0</ele><time>2026-04-30T07:38:30.828Z</time></trkpt><trkpt lat="40.873697168725606" lon="9.630527418458188"><ele>11.0</ele><time>2026-04-30T07:38:31.828Z</time></trkpt><trkpt lat="40.87362959553561" lon="9.630591268605507"><ele>11.0</ele><time>2026-04-30T07:38:32.829Z</time></trkpt><trkpt lat="40.8735573878572" lon="9.630658288365119"><ele>11.0</ele><time>2026-04-30T07:38:33.828Z</time></trkpt><trkpt lat="40.87348046643426" lon="9.63072586228913"><ele>11.0</ele><time>2026-04-30T07:38:34.828Z</time></trkpt><trkpt lat="40.873398052205246" lon="9.63079605462977"><ele>11.0</ele><time>2026-04-30T07:38:35.828Z</time></trkpt><trkpt lat="40.8733147777574" lon="9.630872307895645"><ele>11.200000000000001</ele><time>2026-04-30T07:38:36.828Z</time></trkpt><trkpt lat="40.873227495017765" lon="9.630951497068523"><ele>11.4</ele><time>2026-04-30T07:38:37.828Z</time></trkpt><trkpt lat="40.87313771739761" lon="9.631033878040773"><ele>11.6</ele><time>2026-04-30T07:38:38.828Z</time></trkpt><trkpt lat="40.87304610464421" lon="9.631119180718175"><ele>11.8</ele><time>2026-04-30T07:38:39.828Z</time></trkpt><trkpt lat="40.87294760604177" lon="9.631204444608752"><ele>12.0</ele><time>2026-04-30T07:38:40.828Z</time></trkpt><trkpt lat="40.87285278354523" lon="9.631293166586161"><ele>12.0</ele><time>2026-04-30T07:38:41.828Z</time></trkpt><trkpt lat="40.872761987915716" lon="9.631390946850857"><ele>12.0</ele><time>2026-04-30T07:38:42.828Z</time></trkpt><trkpt lat="40.872676242392686" lon="9.631497919480635"><ele>12.0</ele><time>2026-04-30T07:38:43.828Z</time></trkpt><trkpt lat="40.8725933830657" lon="9.631612378239739"><ele>12.0</ele><time>2026-04-30T07:38:44.828Z</time></trkpt><trkpt lat="40.87251556239084" lon="9.631738997389673"><ele>12.25</ele><time>2026-04-30T07:38:45.828Z</time></trkpt><trkpt lat="40.872438401883976" lon="9.631876843491902"><ele>12.5</ele><time>2026-04-30T07:38:46.828Z</time></trkpt><trkpt lat="40.872370226768936" lon="9.632024226962038"><ele>12.75</ele><time>2026-04-30T07:38:47.828Z</time></trkpt><trkpt lat="40.87229862130179" lon="9.632178607477963"><ele>13.0</ele><time>2026-04-30T07:38:48.828Z</time></trkpt><trkpt lat="40.87222466619256" lon="9.632334127438652"><ele>12.5</ele><time>2026-04-30T07:38:49.827Z</time></trkpt><trkpt lat="40.87214674203041" lon="9.632492045207238"><ele>12.0</ele><time>2026-04-30T07:38:50.827Z</time></trkpt><trkpt lat="40.8720688942384" lon="9.632651322417114"><ele>11.5</ele><time>2026-04-30T07:38:51.827Z</time></trkpt><trkpt lat="40.87198633677347" lon="9.632819283913976"><ele>11.0</ele><time>2026-04-30T07:38:52.827Z</time></trkpt><trkpt lat="40.87190467013733" lon="9.632994644489486"><ele>10.666666666666666</ele><time>2026-04-30T07:38:53.827Z</time></trkpt><trkpt lat="40.87182412212174" lon="9.633180625275825"><ele>10.333333333333334</ele><time>2026-04-30T07:38:54.827Z</time></trkpt><trkpt lat="40.871744285154456" lon="9.633372824004717"><ele>10.0</ele><time>2026-04-30T07:38:55.827Z</time></trkpt><trkpt lat="40.87166555215279" lon="9.633567030447338"><ele>10.333333333333334</ele><time>2026-04-30T07:38:56.827Z</time></trkpt><trkpt lat="40.87158858510882" lon="9.633765533764885"><ele>10.666666666666666</ele><time>2026-04-30T07:38:57.827Z</time></trkpt><trkpt lat="40.87151262848333" lon="9.633950509201755"><ele>11.0</ele><time>2026-04-30T07:38:58.827Z</time></trkpt><trkpt lat="40.87144203737507" lon="9.634130839989798"><ele>11.0</ele><time>2026-04-30T07:38:59.827Z</time></trkpt><trkpt lat="40.87137481029563" lon="9.634302897346226"><ele>11.0</ele><time>2026-04-30T07:39:00.827Z</time></trkpt><trkpt lat="40.87130998717147" lon="9.634474157513045"><ele>11.0</ele><time>2026-04-30T07:39:01.827Z</time></trkpt><trkpt lat="40.871249063840935" lon="9.634642669509857"><ele>11.0</ele><time>2026-04-30T07:39:02.827Z</time></trkpt><trkpt lat="40.87119283667541" lon="9.634814746416305"><ele>11.0</ele><time>2026-04-30T07:39:03.827Z</time></trkpt><trkpt lat="40.87113990400335" lon="9.634990650178816"><ele>11.0</ele><time>2026-04-30T07:39:04.827Z</time></trkpt><trkpt lat="40.8710899684383" lon="9.63516512756835"><ele>11.0</ele><time>2026-04-30T07:39:05.827Z</time></trkpt><trkpt lat="40.87104397213992" lon="9.635329486055824"><ele>11.0</ele><time>2026-04-30T07:39:06.827Z</time></trkpt><trkpt lat="40.87100164329111" lon="9.635490893243022"><ele>11.0</ele><time>2026-04-30T07:39:07.827Z</time></trkpt><trkpt lat="40.87096183311726" lon="9.63564802419987"><ele>11.0</ele><time>2026-04-30T07:39:08.827Z</time></trkpt><trkpt lat="40.870923164817455" lon="9.635799703987573"><ele>11.0</ele><time>2026-04-30T07:39:09.827Z</time></trkpt><trkpt lat="40.87088297947737" lon="9.635944757000228"><ele>11.0</ele><time>2026-04-30T07:39:10.827Z</time></trkpt><trkpt lat="40.87084479833572" lon="9.636082237521492"><ele>10.8</ele><time>2026-04-30T07:39:11.827Z</time></trkpt><trkpt lat="40.87080953570978" lon="9.636218160444153"><ele>10.600000000000001</ele><time>2026-04-30T07:39:12.826Z</time></trkpt><trkpt lat="40.870776195397546" lon="9.636352321856796"><ele>10.4</ele><time>2026-04-30T07:39:13.826Z</time></trkpt><trkpt lat="40.87074261802964" lon="9.636482978189088"><ele>10.2</ele><time>2026-04-30T07:39:14.826Z</time></trkpt><trkpt lat="40.87071380428872" lon="9.63660540748289"><ele>10.0</ele><time>2026-04-30T07:39:15.826Z</time></trkpt><trkpt lat="40.8706843308017" lon="9.636718810732614"><ele>10.0</ele><time>2026-04-30T07:39:16.826Z</time></trkpt><trkpt lat="40.87066166573704" lon="9.636805647980964"><ele>10.0</ele><time>2026-04-30T07:39:17.826Z</time></trkpt><trkpt lat="40.870634101404185" lon="9.636902061055338"><ele>10.0</ele><time>2026-04-30T07:39:19.826Z</time></trkpt><trkpt lat="40.870615251351936" lon="9.636985295548547"><ele>10.0</ele><time>2026-04-30T07:39:21.826Z</time></trkpt><trkpt lat="40.87060023754232" lon="9.637070709665998"><ele>10.0</ele><time>2026-04-30T07:39:24.826Z</time></trkpt><trkpt lat="40.87056741319472" lon="9.637164953345216"><ele>10.0</ele><time>2026-04-30T07:39:43.825Z</time></trkpt><trkpt lat="40.8705445187449" lon="9.637293091671975"><ele>10.0</ele><time>2026-04-30T07:39:45.825Z</time></trkpt><trkpt lat="40.87052640154677" lon="9.637384472933801"><ele>10.0</ele><time>2026-04-30T07:39:46.825Z</time></trkpt><trkpt lat="40.87050453621335" lon="9.637489852451369"><ele>10.0</ele><time>2026-04-30T07:39:47.825Z</time></trkpt><trkpt lat="40.87048148658886" lon="9.637604261966764"><ele>10.0</ele><time>2026-04-30T07:39:48.825Z</time></trkpt><trkpt lat="40.87045929096531" lon="9.637729722651411"><ele>10.0</ele><time>2026-04-30T07:39:49.825Z</time></trkpt><trkpt lat="40.870437158716825" lon="9.63785827459349"><ele>10.0</ele><time>2026-04-30T07:39:50.825Z</time></trkpt><trkpt lat="40.87041704664794" lon="9.637981966478602"><ele>9.6</ele><time>2026-04-30T07:39:51.825Z</time></trkpt><trkpt lat="40.87039949805034" lon="9.638103802607038"><ele>9.2</ele><time>2026-04-30T07:39:52.825Z</time></trkpt><trkpt lat="40.870360255514505" lon="9.638213518657828"><ele>8.8</ele><time>2026-04-30T07:39:53.825Z</time></trkpt><trkpt lat="40.870336986577506" lon="9.638327468127317"><ele>8.4</ele><time>2026-04-30T07:39:54.825Z</time></trkpt><trkpt lat="40.87031343643766" lon="9.638442794522922"><ele>8.0</ele><time>2026-04-30T07:39:55.825Z</time></trkpt><trkpt lat="40.8702887671035" lon="9.638563601668183"><ele>7.800000000000001</ele><time>2026-04-30T07:39:56.825Z</time></trkpt><trkpt lat="40.87026249679412" lon="9.63869103456143"><ele>7.6000000000000005</ele><time>2026-04-30T07:39:57.825Z</time></trkpt><trkpt lat="40.87023268374633" lon="9.638825927559651"><ele>7.3999999999999995</ele><time>2026-04-30T07:39:58.825Z</time></trkpt><trkpt lat="40.870199519504894" lon="9.638968719944966"><ele>7.199999999999999</ele><time>2026-04-30T07:39:59.825Z</time></trkpt><trkpt lat="40.87017025739919" lon="9.63912186586875"><ele>7.0</ele><time>2026-04-30T07:40:00.824Z</time></trkpt><trkpt lat="40.87012173936081" lon="9.639260829818372"><ele>7.0</ele><time>2026-04-30T07:40:01.824Z</time></trkpt><trkpt lat="40.87006024495133" lon="9.639393644538407"><ele>7.0</ele><time>2026-04-30T07:40:02.824Z</time></trkpt><trkpt lat="40.8699664577772" lon="9.639478739522552"><ele>7.0</ele><time>2026-04-30T07:40:03.824Z</time></trkpt><trkpt lat="40.86987540387962" lon="9.639563105271673"><ele>7.0</ele><time>2026-04-30T07:40:04.824Z</time></trkpt><trkpt lat="40.8697785560424" lon="9.63964874306778"><ele>6.5</ele><time>2026-04-30T07:40:05.824Z</time></trkpt><trkpt lat="40.86967927504469" lon="9.639736042286563"><ele>6.0</ele><time>2026-04-30T07:40:06.824Z</time></trkpt><trkpt lat="40.86958475862163" lon="9.639819151970686"><ele>5.5</ele><time>2026-04-30T07:40:07.824Z</time></trkpt><trkpt lat="40.86949056276933" lon="9.639901979773953"><ele>5.0</ele><time>2026-04-30T07:40:08.824Z</time></trkpt><trkpt lat="40.86939737317065" lon="9.639983192586683"><ele>5.0</ele><time>2026-04-30T07:40:09.824Z</time></trkpt><trkpt lat="40.86930266094888" lon="9.640065316615274"><ele>5.0</ele><time>2026-04-30T07:40:10.824Z</time></trkpt><trkpt lat="40.86921217959186" lon="9.640143771949631"><ele>5.0</ele><time>2026-04-30T07:40:11.824Z</time></trkpt><trkpt lat="40.86912609263254" lon="9.640218417276666"><ele>5.0</ele><time>2026-04-30T07:40:12.824Z</time></trkpt><trkpt lat="40.86904245732505" lon="9.640290936383611"><ele>5.0</ele><time>2026-04-30T07:40:13.824Z</time></trkpt><trkpt lat="40.868961096292956" lon="9.640361483844876"><ele>5.0</ele><time>2026-04-30T07:40:14.824Z</time></trkpt><trkpt lat="40.86888110854493" lon="9.640430840199581"><ele>5.0</ele><time>2026-04-30T07:40:15.824Z</time></trkpt><trkpt lat="40.8688036089643" lon="9.640498039301733"><ele>5.0</ele><time>2026-04-30T07:40:16.824Z</time></trkpt><trkpt lat="40.86872952787543" lon="9.640562274127321"><ele>5.0</ele><time>2026-04-30T07:40:17.824Z</time></trkpt><trkpt lat="40.86865901157309" lon="9.640623418116977"><ele>5.0</ele><time>2026-04-30T07:40:18.824Z</time></trkpt><trkpt lat="40.86859422759257" lon="9.640702207850609"><ele>5.0</ele><time>2026-04-30T07:40:19.824Z</time></trkpt><trkpt lat="40.86850686124331" lon="9.64074718312401"><ele>5.6</ele><time>2026-04-30T07:40:20.824Z</time></trkpt><trkpt lat="40.86841632984704" lon="9.640792149508604"><ele>6.2</ele><time>2026-04-30T07:40:21.824Z</time></trkpt><trkpt lat="40.86832265539302" lon="9.640836268523119"><ele>6.800000000000001</ele><time>2026-04-30T07:40:22.823Z</time></trkpt><trkpt lat="40.86822906254657" lon="9.640875560478182"><ele>7.4</ele><time>2026-04-30T07:40:23.823Z</time></trkpt><trkpt lat="40.868142856155806" lon="9.640909719577493"><ele>8.0</ele><time>2026-04-30T07:40:24.823Z</time></trkpt><trkpt lat="40.868061201265164" lon="9.640939836263225"><ele>7.999999999999999</ele><time>2026-04-30T07:40:25.823Z</time></trkpt><trkpt lat="40.867987013340816" lon="9.640968679581164"><ele>8.0</ele><time>2026-04-30T07:40:26.823Z</time></trkpt><trkpt lat="40.86791986945276" lon="9.64099660404498"><ele>8.0</ele><time>2026-04-30T07:40:27.823Z</time></trkpt><trkpt lat="40.86785317926049" lon="9.641024919861213"><ele>8.0</ele><time>2026-04-30T07:40:28.823Z</time></trkpt><trkpt lat="40.867780921835795" lon="9.641055175556984"><ele>7.999999999999999</ele><time>2026-04-30T07:40:29.823Z</time></trkpt><trkpt lat="40.86769568378446" lon="9.641083841774805"><ele>8.0</ele><time>2026-04-30T07:40:30.823Z</time></trkpt><trkpt lat="40.86760477683169" lon="9.641120474341161"><ele>8.25</ele><time>2026-04-30T07:40:31.823Z</time></trkpt><trkpt lat="40.8675061470452" lon="9.641160586781796"><ele>8.5</ele><time>2026-04-30T07:40:32.823Z</time></trkpt><trkpt lat="40.867400782988724" lon="9.641204863603571"><ele>8.75</ele><time>2026-04-30T07:40:33.823Z</time></trkpt><trkpt lat="40.86728737462219" lon="9.64125167416392"><ele>9.0</ele><time>2026-04-30T07:40:34.823Z</time></trkpt><trkpt lat="40.86716498280994" lon="9.641300691926716"><ele>9.0</ele><time>2026-04-30T07:40:35.824Z</time></trkpt><trkpt lat="40.86703806449166" lon="9.641349219014922"><ele>9.0</ele><time>2026-04-30T07:40:36.824Z</time></trkpt><trkpt lat="40.866920408087985" lon="9.641393983489246"><ele>9.0</ele><time>2026-04-30T07:40:37.824Z</time></trkpt><trkpt lat="40.866803764912916" lon="9.641438016700835"><ele>9.0</ele><time>2026-04-30T07:40:38.824Z</time></trkpt><trkpt lat="40.86668664118738" lon="9.64148077551321"><ele>9.75</ele><time>2026-04-30T07:40:39.824Z</time></trkpt><trkpt lat="40.86656901138735" lon="9.641519934268775"><ele>10.5</ele><time>2026-04-30T07:40:40.824Z</time></trkpt><trkpt lat="40.86645165750304" lon="9.641556072098442"><ele>11.25</ele><time>2026-04-30T07:40:41.824Z</time></trkpt><trkpt lat="40.86632715459331" lon="9.641557772553899"><ele>12.0</ele><time>2026-04-30T07:40:42.824Z</time></trkpt><trkpt lat="40.86619735811336" lon="9.641553390158155"><ele>12.0</ele><time>2026-04-30T07:40:43.824Z</time></trkpt><trkpt lat="40.86606217355573" lon="9.641546321218618"><ele>12.0</ele><time>2026-04-30T07:40:44.824Z</time></trkpt><trkpt lat="40.86592501187539" lon="9.64153654204667"><ele>12.0</ele><time>2026-04-30T07:40:45.824Z</time></trkpt><trkpt lat="40.865791880895024" lon="9.641525082324447"><ele>12.0</ele><time>2026-04-30T07:40:46.824Z</time></trkpt><trkpt lat="40.86566330128043" lon="9.641507063424978"><ele>12.0</ele><time>2026-04-30T07:40:47.824Z</time></trkpt><trkpt lat="40.86554179173504" lon="9.641489731675504"><ele>12.0</ele><time>2026-04-30T07:40:48.823Z</time></trkpt><trkpt lat="40.86542904197454" lon="9.64148039309138"><ele>12.0</ele><time>2026-04-30T07:40:49.823Z</time></trkpt><trkpt lat="40.86533055944815" lon="9.641457275190305"><ele>12.0</ele><time>2026-04-30T07:40:50.823Z</time></trkpt><trkpt lat="40.8652498495739" lon="9.641441062902606"><ele>12.0</ele><time>2026-04-30T07:40:51.823Z</time></trkpt><trkpt lat="40.8651687149413" lon="9.641435926751955"><ele>12.8</ele><time>2026-04-30T07:40:52.823Z</time></trkpt><trkpt lat="40.86508532810669" lon="9.641426640578247"><ele>13.6</ele><time>2026-04-30T07:40:53.823Z</time></trkpt><trkpt lat="40.865000339611456" lon="9.641418330798809"><ele>14.400000000000002</ele><time>2026-04-30T07:40:54.823Z</time></trkpt><trkpt lat="40.86490707643875" lon="9.641412328901938"><ele>15.200000000000001</ele><time>2026-04-30T07:40:55.823Z</time></trkpt><trkpt lat="40.86481221836102" lon="9.641402806771012"><ele>16.0</ele><time>2026-04-30T07:40:56.823Z</time></trkpt><trkpt lat="40.86471133916075" lon="9.641391048617281"><ele>16.0</ele><time>2026-04-30T07:40:57.823Z</time></trkpt><trkpt lat="40.86460500597754" lon="9.641380389418147"><ele>16.0</ele><time>2026-04-30T07:40:58.823Z</time></trkpt><trkpt lat="40.86449163811026" lon="9.64137018502494"><ele>16.0</ele><time>2026-04-30T07:40:59.823Z</time></trkpt><trkpt lat="40.864374328305956" lon="9.641357273941392"><ele>16.0</ele><time>2026-04-30T07:41:00.823Z</time></trkpt><trkpt lat="40.86425581190114" lon="9.641343070201824"><ele>16.25</ele><time>2026-04-30T07:41:01.823Z</time></trkpt><trkpt lat="40.86413404962508" lon="9.641331897543111"><ele>16.5</ele><time>2026-04-30T07:41:02.823Z</time></trkpt><trkpt lat="40.86400959658051" lon="9.641318262887896"><ele>16.75</ele><time>2026-04-30T07:41:03.823Z</time></trkpt><trkpt lat="40.863891551710545" lon="9.641306175964804"><ele>17.0</ele><time>2026-04-30T07:41:04.823Z</time></trkpt><trkpt lat="40.863777547296905" lon="9.641294116068812"><ele>17.0</ele><time>2026-04-30T07:41:05.823Z</time></trkpt><trkpt lat="40.86366415129296" lon="9.641281368679183"><ele>17.0</ele><time>2026-04-30T07:41:06.823Z</time></trkpt><trkpt lat="40.86355168653727" lon="9.641275457147705"><ele>17.0</ele><time>2026-04-30T07:41:07.823Z</time></trkpt><trkpt lat="40.86344013370578" lon="9.641279701323576"><ele>17.0</ele><time>2026-04-30T07:41:08.823Z</time></trkpt><trkpt lat="40.86332460777305" lon="9.641289237163067"><ele>17.6</ele><time>2026-04-30T07:41:09.822Z</time></trkpt><trkpt lat="40.86321323003345" lon="9.641312375162558"><ele>18.2</ele><time>2026-04-30T07:41:10.822Z</time></trkpt><trkpt lat="40.86311474668137" lon="9.641344716707547"><ele>18.8</ele><time>2026-04-30T07:41:11.822Z</time></trkpt><trkpt lat="40.86302228745969" lon="9.641380762103495"><ele>19.4</ele><time>2026-04-30T07:41:12.822Z</time></trkpt><trkpt lat="40.86293357436453" lon="9.641419336562288"><ele>20.0</ele><time>2026-04-30T07:41:13.822Z</time></trkpt><trkpt lat="40.86284068066547" lon="9.641458152350719"><ele>20.0</ele><time>2026-04-30T07:41:14.822Z</time></trkpt><trkpt lat="40.86274983711039" lon="9.641500914514783"><ele>20.0</ele><time>2026-04-30T07:41:15.822Z</time></trkpt><trkpt lat="40.86264874455318" lon="9.64153964362319"><ele>20.0</ele><time>2026-04-30T07:41:16.822Z</time></trkpt><trkpt lat="40.86254083596548" lon="9.641583137673793"><ele>20.0</ele><time>2026-04-30T07:41:17.822Z</time></trkpt><trkpt lat="40.86242697621697" lon="9.641627792536356"><ele>20.0</ele><time>2026-04-30T07:41:18.822Z</time></trkpt><trkpt lat="40.8623092532372" lon="9.641671174495587"><ele>21.25</ele><time>2026-04-30T07:41:19.822Z</time></trkpt><trkpt lat="40.86219747268665" lon="9.641719207705142"><ele>22.5</ele><time>2026-04-30T07:41:20.822Z</time></trkpt><trkpt lat="40.862087586336294" lon="9.641748745396958"><ele>23.75</ele><time>2026-04-30T07:41:21.822Z</time></trkpt><trkpt lat="40.86197692645039" lon="9.641788008580312"><ele>25.0</ele><time>2026-04-30T07:41:22.822Z</time></trkpt><trkpt lat="40.86186852321057" lon="9.64183880923264"><ele>25.75</ele><time>2026-04-30T07:41:23.822Z</time></trkpt><trkpt lat="40.861757624529815" lon="9.641881482886554"><ele>26.5</ele><time>2026-04-30T07:41:24.822Z</time></trkpt><trkpt lat="40.861640533829366" lon="9.641918873432676"><ele>27.25</ele><time>2026-04-30T07:41:25.822Z</time></trkpt><trkpt lat="40.86152201682554" lon="9.641947622872872"><ele>28.0</ele><time>2026-04-30T07:41:26.822Z</time></trkpt><trkpt lat="40.86139656053568" lon="9.641979854767719"><ele>26.0</ele><time>2026-04-30T07:41:27.822Z</time></trkpt><trkpt lat="40.86126716304338" lon="9.64200464687522"><ele>24.0</ele><time>2026-04-30T07:41:28.822Z</time></trkpt><trkpt lat="40.86114155899471" lon="9.64202848422622"><ele>22.0</ele><time>2026-04-30T07:41:29.822Z</time></trkpt><trkpt lat="40.861020245215045" lon="9.642041153223284"><ele>20.0</ele><time>2026-04-30T07:41:30.822Z</time></trkpt><trkpt lat="40.86090009520598" lon="9.6420582414663"><ele>19.25</ele><time>2026-04-30T07:41:31.822Z</time></trkpt><trkpt lat="40.860785292212654" lon="9.642080162843707"><ele>18.5</ele><time>2026-04-30T07:41:32.822Z</time></trkpt><trkpt lat="40.860676580676625" lon="9.64209652557152"><ele>17.75</ele><time>2026-04-30T07:41:33.821Z</time></trkpt><trkpt lat="40.860566002090444" lon="9.642118117568344"><ele>17.0</ele><time>2026-04-30T07:41:34.821Z</time></trkpt><trkpt lat="40.860453622781165" lon="9.642136084729701"><ele>17.0</ele><time>2026-04-30T07:41:35.821Z</time></trkpt><trkpt lat="40.86033488040824" lon="9.642153171677203"><ele>17.0</ele><time>2026-04-30T07:41:36.821Z</time></trkpt><trkpt lat="40.86021644947462" lon="9.642174488753831"><ele>17.0</ele><time>2026-04-30T07:41:37.821Z</time></trkpt><trkpt lat="40.86009969227845" lon="9.642197458518169"><ele>17.0</ele><time>2026-04-30T07:41:38.821Z</time></trkpt><trkpt lat="40.85998113961007" lon="9.64222056649435"><ele>16.75</ele><time>2026-04-30T07:41:39.821Z</time></trkpt><trkpt lat="40.85986264317926" lon="9.642240301114827"><ele>16.5</ele><time>2026-04-30T07:41:40.821Z</time></trkpt><trkpt lat="40.85974910837765" lon="9.642261072350575"><ele>16.25</ele><time>2026-04-30T07:41:41.821Z</time></trkpt><trkpt lat="40.85963539239922" lon="9.642276825177728"><ele>16.0</ele><time>2026-04-30T07:41:42.821Z</time></trkpt><trkpt lat="40.85951920338914" lon="9.642299273849297"><ele>16.0</ele><time>2026-04-30T07:41:43.821Z</time></trkpt><trkpt lat="40.85939948559997" lon="9.642318186105854"><ele>16.0</ele><time>2026-04-30T07:41:44.821Z</time></trkpt><trkpt lat="40.8592789747024" lon="9.642341408294355"><ele>16.0</ele><time>2026-04-30T07:41:45.821Z</time></trkpt><trkpt lat="40.8591605569037" lon="9.642370120964854"><ele>16.0</ele><time>2026-04-30T07:41:46.821Z</time></trkpt><trkpt lat="40.85903720142337" lon="9.642402393569355"><ele>15.75</ele><time>2026-04-30T07:41:47.821Z</time></trkpt><trkpt lat="40.858913234684614" lon="9.642450198723878"><ele>15.5</ele><time>2026-04-30T07:41:48.821Z</time></trkpt><trkpt lat="40.858791710734224" lon="9.642511779051194"><ele>15.25</ele><time>2026-04-30T07:41:49.821Z</time></trkpt><trkpt lat="40.8586674950366" lon="9.642580903691691"><ele>15.0</ele><time>2026-04-30T07:41:50.821Z</time></trkpt><trkpt lat="40.858534588674026" lon="9.642639312926155"><ele>15.0</ele><time>2026-04-30T07:41:51.821Z</time></trkpt><trkpt lat="40.858425920614714" lon="9.642713144032209"><ele>15.0</ele><time>2026-04-30T07:41:52.821Z</time></trkpt><trkpt lat="40.85831841855803" lon="9.642784520952901"><ele>15.0</ele><time>2026-04-30T07:41:53.821Z</time></trkpt><trkpt lat="40.858211706662374" lon="9.642851401424736"><ele>15.0</ele><time>2026-04-30T07:41:54.821Z</time></trkpt><trkpt lat="40.858103759915416" lon="9.642917081377826"><ele>14.4</ele><time>2026-04-30T07:41:55.821Z</time></trkpt><trkpt lat="40.85799597264374" lon="9.642983315191634"><ele>13.8</ele><time>2026-04-30T07:41:56.82Z</time></trkpt><trkpt lat="40.8578954363995" lon="9.64304504821068"><ele>13.2</ele><time>2026-04-30T07:41:57.82Z</time></trkpt><trkpt lat="40.857801410658546" lon="9.643098826720536"><ele>12.6</ele><time>2026-04-30T07:41:58.82Z</time></trkpt><trkpt lat="40.8577174525964" lon="9.643147168162756"><ele>12.0</ele><time>2026-04-30T07:41:59.82Z</time></trkpt><trkpt lat="40.85763536672291" lon="9.64319421982343"><ele>12.0</ele><time>2026-04-30T07:42:00.82Z</time></trkpt><trkpt lat="40.85755778090871" lon="9.643243035045714"><ele>12.0</ele><time>2026-04-30T07:42:01.82Z</time></trkpt><trkpt lat="40.85748156504915" lon="9.643294600474588"><ele>12.0</ele><time>2026-04-30T07:42:02.82Z</time></trkpt><trkpt lat="40.85740481418578" lon="9.64334496980157"><ele>12.0</ele><time>2026-04-30T07:42:03.82Z</time></trkpt><trkpt lat="40.85732518180988" lon="9.64339301348559"><ele>12.0</ele><time>2026-04-30T07:42:04.82Z</time></trkpt><trkpt lat="40.85723939937142" lon="9.643423393270957"><ele>12.0</ele><time>2026-04-30T07:42:05.82Z</time></trkpt><trkpt lat="40.857150318281946" lon="9.643430921467786"><ele>12.0</ele><time>2026-04-30T07:42:06.82Z</time></trkpt><trkpt lat="40.8570618456901" lon="9.643442417432764"><ele>12.0</ele><time>2026-04-30T07:42:07.82Z</time></trkpt><trkpt lat="40.85697688238348" lon="9.643485335799431"><ele>12.0</ele><time>2026-04-30T07:42:08.82Z</time></trkpt><trkpt lat="40.85690331435291" lon="9.64357015356604"><ele>12.0</ele><time>2026-04-30T07:42:09.82Z</time></trkpt><trkpt lat="40.85682106130233" lon="9.643669548675279"><ele>12.0</ele><time>2026-04-30T07:42:10.82Z</time></trkpt><trkpt lat="40.856726080139424" lon="9.643758738454244"><ele>11.0</ele><time>2026-04-30T07:42:11.82Z</time></trkpt><trkpt lat="40.856617146650215" lon="9.643833823033363"><ele>10.0</ele><time>2026-04-30T07:42:12.82Z</time></trkpt><trkpt lat="40.8565035534066" lon="9.643904600669343"><ele>9.0</ele><time>2026-04-30T07:42:13.82Z</time></trkpt><trkpt lat="40.856381426165164" lon="9.643979708189795"><ele>8.0</ele><time>2026-04-30T07:42:14.82Z</time></trkpt><trkpt lat="40.85625328347715" lon="9.644056649595475"><ele>8.0</ele><time>2026-04-30T07:42:15.82Z</time></trkpt><trkpt lat="40.856120759842135" lon="9.644136685575576"><ele>8.0</ele><time>2026-04-30T07:42:16.82Z</time></trkpt><trkpt lat="40.855990949648614" lon="9.644216258586134"><ele>8.0</ele><time>2026-04-30T07:42:17.82Z</time></trkpt><trkpt lat="40.855861821098415" lon="9.644294636035161"><ele>8.0</ele><time>2026-04-30T07:42:18.82Z</time></trkpt><trkpt lat="40.85573019652869" lon="9.644375775525932"><ele>8.0</ele><time>2026-04-30T07:42:19.82Z</time></trkpt><trkpt lat="40.85559916259121" lon="9.644456382891939"><ele>8.0</ele><time>2026-04-30T07:42:20.819Z</time></trkpt><trkpt lat="40.85547126547429" lon="9.644533018016817"><ele>8.0</ele><time>2026-04-30T07:42:21.819Z</time></trkpt><trkpt lat="40.85534466854327" lon="9.644608920576399"><ele>8.0</ele><time>2026-04-30T07:42:22.819Z</time></trkpt><trkpt lat="40.85522142068257" lon="9.644684544319231"><ele>7.75</ele><time>2026-04-30T07:42:23.819Z</time></trkpt><trkpt lat="40.85509933658808" lon="9.644757865809659"><ele>7.5</ele><time>2026-04-30T07:42:24.819Z</time></trkpt><trkpt lat="40.854976292214054" lon="9.644833005463259"><ele>7.25</ele><time>2026-04-30T07:42:25.819Z</time></trkpt><trkpt lat="40.85485418407693" lon="9.644908977437462"><ele>7.0</ele><time>2026-04-30T07:42:26.819Z</time></trkpt><trkpt lat="40.85472673373058" lon="9.644987885523468"><ele>7.0</ele><time>2026-04-30T07:42:27.819Z</time></trkpt><trkpt lat="40.854600896308966" lon="9.64506507737511"><ele>7.0</ele><time>2026-04-30T07:42:28.819Z</time></trkpt><trkpt lat="40.85447372383893" lon="9.64514256871331"><ele>7.0</ele><time>2026-04-30T07:42:29.819Z</time></trkpt><trkpt lat="40.85434948021977" lon="9.64522081412008"><ele>7.0</ele><time>2026-04-30T07:42:30.819Z</time></trkpt><trkpt lat="40.854219640303604" lon="9.64529596375522"><ele>7.0</ele><time>2026-04-30T07:42:31.819Z</time></trkpt><trkpt lat="40.854091413611926" lon="9.64537420797177"><ele>7.0</ele><time>2026-04-30T07:42:32.819Z</time></trkpt><trkpt lat="40.85396338495729" lon="9.645451860018056"><ele>7.0</ele><time>2026-04-30T07:42:33.819Z</time></trkpt><trkpt lat="40.85384822941691" lon="9.645521633025181"><ele>7.0</ele><time>2026-04-30T07:42:34.819Z</time></trkpt><trkpt lat="40.853740052108385" lon="9.645585435541244"><ele>7.0</ele><time>2026-04-30T07:42:35.819Z</time></trkpt><trkpt lat="40.85363303165531" lon="9.645648211054793"><ele>7.0</ele><time>2026-04-30T07:42:36.819Z</time></trkpt><trkpt lat="40.85352237507684" lon="9.645711151971723"><ele>7.0</ele><time>2026-04-30T07:42:37.819Z</time></trkpt><trkpt lat="40.853408256769555" lon="9.64576873845386"><ele>7.0</ele><time>2026-04-30T07:42:38.819Z</time></trkpt><trkpt lat="40.85328785773686" lon="9.645817531306164"><ele>7.5</ele><time>2026-04-30T07:42:39.819Z</time></trkpt><trkpt lat="40.85317007150172" lon="9.64586227733786"><ele>8.0</ele><time>2026-04-30T07:42:40.819Z</time></trkpt><trkpt lat="40.85303890580744" lon="9.645899537872632"><ele>8.5</ele><time>2026-04-30T07:42:41.821Z</time></trkpt><trkpt lat="40.85290898231038" lon="9.645933080244978"><ele>9.0</ele><time>2026-04-30T07:42:42.82Z</time></trkpt><trkpt lat="40.85277864820911" lon="9.645971961262154"><ele>9.0</ele><time>2026-04-30T07:42:43.82Z</time></trkpt><trkpt lat="40.85264512170447" lon="9.646013124617932"><ele>9.0</ele><time>2026-04-30T07:42:44.82Z</time></trkpt><trkpt lat="40.85250507862439" lon="9.646054945826233"><ele>9.0</ele><time>2026-04-30T07:42:45.82Z</time></trkpt><trkpt lat="40.85236704250027" lon="9.646097766468047"><ele>9.0</ele><time>2026-04-30T07:42:46.82Z</time></trkpt><trkpt lat="40.852227948332654" lon="9.64613562212467"><ele>8.5</ele><time>2026-04-30T07:42:47.82Z</time></trkpt><trkpt lat="40.85209340851299" lon="9.646169468357607"><ele>8.0</ele><time>2026-04-30T07:42:48.82Z</time></trkpt><trkpt lat="40.8519692719887" lon="9.646198443415646"><ele>7.5</ele><time>2026-04-30T07:42:49.82Z</time></trkpt><trkpt lat="40.8518479110324" lon="9.646229851593118"><ele>7.0</ele><time>2026-04-30T07:42:50.82Z</time></trkpt><trkpt lat="40.851728769901065" lon="9.64626367330561"><ele>7.0</ele><time>2026-04-30T07:42:51.819Z</time></trkpt><trkpt lat="40.85160956429315" lon="9.646303029937496"><ele>7.0</ele><time>2026-04-30T07:42:52.819Z</time></trkpt><trkpt lat="40.85148680775722" lon="9.646340243065753"><ele>7.0</ele><time>2026-04-30T07:42:53.82Z</time></trkpt><trkpt lat="40.851358362616985" lon="9.646375345293281"><ele>7.0</ele><time>2026-04-30T07:42:54.82Z</time></trkpt><trkpt lat="40.851229002387484" lon="9.646414484844211"><ele>7.0</ele><time>2026-04-30T07:42:55.82Z</time></trkpt><trkpt lat="40.851097161348605" lon="9.646448902783586"><ele>7.0</ele><time>2026-04-30T07:42:56.82Z</time></trkpt><trkpt lat="40.850966709342785" lon="9.646488696554062"><ele>7.0</ele><time>2026-04-30T07:42:57.82Z</time></trkpt><trkpt lat="40.85083314337702" lon="9.646530881520743"><ele>7.0</ele><time>2026-04-30T07:42:58.82Z</time></trkpt><trkpt lat="40.8506942748375" lon="9.646574519431496"><ele>7.25</ele><time>2026-04-30T07:42:59.82Z</time></trkpt><trkpt lat="40.85055558009474" lon="9.646613711016194"><ele>7.5</ele><time>2026-04-30T07:43:00.82Z</time></trkpt><trkpt lat="40.85041410871008" lon="9.646656052786401"><ele>7.75</ele><time>2026-04-30T07:43:01.82Z</time></trkpt><trkpt lat="40.85027047804296" lon="9.646694922675996"><ele>8.0</ele><time>2026-04-30T07:43:02.82Z</time></trkpt><trkpt lat="40.85013394290027" lon="9.646733272000914"><ele>7.0</ele><time>2026-04-30T07:43:03.82Z</time></trkpt><trkpt lat="40.85000281500966" lon="9.646766255341854"><ele>6.0</ele><time>2026-04-30T07:43:04.82Z</time></trkpt><trkpt lat="40.84987602751632" lon="9.646800312585405"><ele>5.0</ele><time>2026-04-30T07:43:05.819Z</time></trkpt><trkpt lat="40.84975743701425" lon="9.64683179250129"><ele>4.0</ele><time>2026-04-30T07:43:06.819Z</time></trkpt><trkpt lat="40.84963709621672" lon="9.646866270516595"><ele>4.0</ele><time>2026-04-30T07:43:07.819Z</time></trkpt><trkpt lat="40.849509440479665" lon="9.646906956070653"><ele>4.0</ele><time>2026-04-30T07:43:08.819Z</time></trkpt><trkpt lat="40.84938180551571" lon="9.646946259003313"><ele>4.0</ele><time>2026-04-30T07:43:09.819Z</time></trkpt><trkpt lat="40.84925430477494" lon="9.646985875614165"><ele>4.0</ele><time>2026-04-30T07:43:10.819Z</time></trkpt><trkpt lat="40.84912756389078" lon="9.647006552351035"><ele>4.25</ele><time>2026-04-30T07:43:11.819Z</time></trkpt><trkpt lat="40.849003964932926" lon="9.647044329652449"><ele>4.5</ele><time>2026-04-30T07:43:12.819Z</time></trkpt><trkpt lat="40.84888172139231" lon="9.647076457292567"><ele>4.75</ele><time>2026-04-30T07:43:13.819Z</time></trkpt><trkpt lat="40.8487645668197" lon="9.647111925460958"><ele>5.0</ele><time>2026-04-30T07:43:14.819Z</time></trkpt><trkpt lat="40.84865042121109" lon="9.647146359253027"><ele>5.0</ele><time>2026-04-30T07:43:15.819Z</time></trkpt><trkpt lat="40.84853895846624" lon="9.6471749857019"><ele>5.0</ele><time>2026-04-30T07:43:16.819Z</time></trkpt><trkpt lat="40.84843184092205" lon="9.647202964222634"><ele>5.0</ele><time>2026-04-30T07:43:17.819Z</time></trkpt><trkpt lat="40.84832982780257" lon="9.647234183508058"><ele>5.0</ele><time>2026-04-30T07:43:18.819Z</time></trkpt><trkpt lat="40.848226465151555" lon="9.647262820407144"><ele>5.0</ele><time>2026-04-30T07:43:19.819Z</time></trkpt><trkpt lat="40.84812352021995" lon="9.647293574616347"><ele>5.6</ele><time>2026-04-30T07:43:20.819Z</time></trkpt><trkpt lat="40.84801966281928" lon="9.647325232390813"><ele>6.2</ele><time>2026-04-30T07:43:21.819Z</time></trkpt><trkpt lat="40.847918602902425" lon="9.647356193110127"><ele>6.800000000000001</ele><time>2026-04-30T07:43:22.819Z</time></trkpt><trkpt lat="40.847816768933356" lon="9.647383108873491"><ele>7.4</ele><time>2026-04-30T07:43:23.819Z</time></trkpt><trkpt lat="40.847712291469236" lon="9.647414666114825"><ele>8.0</ele><time>2026-04-30T07:43:24.819Z</time></trkpt><trkpt lat="40.84760599035752" lon="9.647442819240505"><ele>8.4</ele><time>2026-04-30T07:43:25.819Z</time></trkpt><trkpt lat="40.84750593558135" lon="9.647475288121992"><ele>8.8</ele><time>2026-04-30T07:43:26.819Z</time></trkpt><trkpt lat="40.847404861732564" lon="9.64750471700747"><ele>9.2</ele><time>2026-04-30T07:43:27.819Z</time></trkpt><trkpt lat="40.84730945486171" lon="9.64753332790565"><ele>9.6</ele><time>2026-04-30T07:43:28.818Z</time></trkpt><trkpt lat="40.84721705279189" lon="9.64755863410498"><ele>10.0</ele><time>2026-04-30T07:43:29.818Z</time></trkpt><trkpt lat="40.8471315011465" lon="9.647577847749258"><ele>10.0</ele><time>2026-04-30T07:43:30.818Z</time></trkpt><trkpt lat="40.84704799776486" lon="9.647599053052911"><ele>10.0</ele><time>2026-04-30T07:43:31.818Z</time></trkpt><trkpt lat="40.84695985290007" lon="9.647627548061894"><ele>10.0</ele><time>2026-04-30T07:43:32.818Z</time></trkpt><trkpt lat="40.846863021482946" lon="9.647659630927977"><ele>10.0</ele><time>2026-04-30T07:43:33.818Z</time></trkpt><trkpt lat="40.846756035877654" lon="9.647692163769076"><ele>10.0</ele><time>2026-04-30T07:43:34.818Z</time></trkpt><trkpt lat="40.846642067894884" lon="9.647727088001268"><ele>9.75</ele><time>2026-04-30T07:43:35.818Z</time></trkpt><trkpt lat="40.84652258557485" lon="9.647761395637918"><ele>9.5</ele><time>2026-04-30T07:43:36.818Z</time></trkpt><trkpt lat="40.84639882702868" lon="9.647795952322358"><ele>9.25</ele><time>2026-04-30T07:43:37.818Z</time></trkpt><trkpt lat="40.846269179780506" lon="9.64783504302827"><ele>9.0</ele><time>2026-04-30T07:43:38.818Z</time></trkpt><trkpt lat="40.84613737973051" lon="9.64787446922218"><ele>9.0</ele><time>2026-04-30T07:43:39.818Z</time></trkpt><trkpt lat="40.84600031389001" lon="9.647913620251806"><ele>9.0</ele><time>2026-04-30T07:43:40.818Z</time></trkpt><trkpt lat="40.84586479109249" lon="9.647951358657643"><ele>9.0</ele><time>2026-04-30T07:43:41.818Z</time></trkpt><trkpt lat="40.84573262155628" lon="9.64798795175789"><ele>9.0</ele><time>2026-04-30T07:43:42.818Z</time></trkpt><trkpt lat="40.845600113551065" lon="9.648023651183781"><ele>9.5</ele><time>2026-04-30T07:43:43.818Z</time></trkpt><trkpt lat="40.84547081461261" lon="9.648059535110079"><ele>10.0</ele><time>2026-04-30T07:43:44.818Z</time></trkpt><trkpt lat="40.84533299189418" lon="9.648097975962447"><ele>10.5</ele><time>2026-04-30T07:43:45.818Z</time></trkpt><trkpt lat="40.84519164633112" lon="9.648137397145593"><ele>11.0</ele><time>2026-04-30T07:43:46.818Z</time></trkpt><trkpt lat="40.84504643763049" lon="9.648179845479918"><ele>11.666666666666666</ele><time>2026-04-30T07:43:47.818Z</time></trkpt><trkpt lat="40.84490098133147" lon="9.64822327922545"><ele>12.333333333333332</ele><time>2026-04-30T07:43:48.818Z</time></trkpt><trkpt lat="40.84475266850492" lon="9.64826758980728"><ele>13.0</ele><time>2026-04-30T07:43:49.818Z</time></trkpt><trkpt lat="40.844603517334505" lon="9.64831071819777"><ele>13.0</ele><time>2026-04-30T07:43:50.818Z</time></trkpt><trkpt lat="40.84444955229737" lon="9.648349771990162"><ele>13.0</ele><time>2026-04-30T07:43:51.818Z</time></trkpt><trkpt lat="40.84429760042994" lon="9.648393182691876"><ele>13.0</ele><time>2026-04-30T07:43:52.817Z</time></trkpt><trkpt lat="40.844145799213806" lon="9.648433174502072"><ele>13.0</ele><time>2026-04-30T07:43:53.817Z</time></trkpt><trkpt lat="40.84399314035402" lon="9.64847684078632"><ele>13.0</ele><time>2026-04-30T07:43:54.817Z</time></trkpt><trkpt lat="40.84384279318464" lon="9.648518927329912"><ele>13.0</ele><time>2026-04-30T07:43:55.817Z</time></trkpt><trkpt lat="40.843695164904474" lon="9.648561551862565"><ele>13.0</ele><time>2026-04-30T07:43:56.817Z</time></trkpt><trkpt lat="40.84355320493899" lon="9.648604386237041"><ele>13.0</ele><time>2026-04-30T07:43:57.817Z</time></trkpt><trkpt lat="40.84341034067925" lon="9.648649381793279"><ele>13.0</ele><time>2026-04-30T07:43:58.817Z</time></trkpt><trkpt lat="40.843274797388005" lon="9.648704991497171"><ele>13.0</ele><time>2026-04-30T07:43:59.817Z</time></trkpt><trkpt lat="40.84313666696348" lon="9.648762867178519"><ele>13.5</ele><time>2026-04-30T07:44:00.817Z</time></trkpt><trkpt lat="40.84298954753985" lon="9.648809785646042"><ele>14.0</ele><time>2026-04-30T07:44:01.817Z</time></trkpt><trkpt lat="40.84285768061579" lon="9.648878309724738"><ele>14.5</ele><time>2026-04-30T07:44:02.817Z</time></trkpt><trkpt lat="40.8427265941789" lon="9.648945170886142"><ele>15.0</ele><time>2026-04-30T07:44:03.817Z</time></trkpt><trkpt lat="40.84260003514584" lon="9.649013321356907"><ele>16.25</ele><time>2026-04-30T07:44:04.817Z</time></trkpt><trkpt lat="40.84247158707736" lon="9.64908132321477"><ele>17.5</ele><time>2026-04-30T07:44:05.817Z</time></trkpt><trkpt lat="40.84235467880009" lon="9.649142891854368"><ele>18.75</ele><time>2026-04-30T07:44:06.817Z</time></trkpt><trkpt lat="40.842247876317856" lon="9.64920283111609"><ele>20.0</ele><time>2026-04-30T07:44:07.817Z</time></trkpt><trkpt lat="40.842154571973296" lon="9.649260948740336"><ele>20.0</ele><time>2026-04-30T07:44:08.817Z</time></trkpt><trkpt lat="40.84206760892317" lon="9.649324529779795"><ele>20.0</ele><time>2026-04-30T07:44:09.817Z</time></trkpt><trkpt lat="40.84199128580795" lon="9.64939782256308"><ele>20.0</ele><time>2026-04-30T07:44:10.817Z</time></trkpt><trkpt lat="40.84194415684782" lon="9.6495135379163"><ele>20.0</ele><time>2026-04-30T07:44:11.817Z</time></trkpt><trkpt lat="40.84192893724789" lon="9.649643240742249"><ele>20.0</ele><time>2026-04-30T07:44:12.817Z</time></trkpt><trkpt lat="40.841940880032595" lon="9.649778691468764"><ele>20.0</ele><time>2026-04-30T07:44:13.817Z</time></trkpt><trkpt lat="40.84197140329996" lon="9.649920023457188"><ele>20.0</ele><time>2026-04-30T07:44:14.817Z</time></trkpt><trkpt lat="40.84200716601588" lon="9.650068864216868"><ele>20.0</ele><time>2026-04-30T07:44:15.817Z</time></trkpt><trkpt lat="40.842042600763776" lon="9.650228742910144"><ele>20.0</ele><time>2026-04-30T07:44:16.816Z</time></trkpt><trkpt lat="40.8420771740783" lon="9.65040012663158"><ele>20.75</ele><time>2026-04-30T07:44:17.816Z</time></trkpt><trkpt lat="40.84210405887988" lon="9.650572058612774"><ele>21.5</ele><time>2026-04-30T07:44:18.816Z</time></trkpt><trkpt lat="40.84211277584546" lon="9.650735037848708"><ele>22.25</ele><time>2026-04-30T07:44:19.816Z</time></trkpt><trkpt lat="40.84210291298685" lon="9.650895299745859"><ele>23.0</ele><time>2026-04-30T07:44:20.816Z</time></trkpt><trkpt lat="40.84207182980077" lon="9.651050627787464"><ele>24.5</ele><time>2026-04-30T07:44:21.816Z</time></trkpt><trkpt lat="40.84203369660992" lon="9.651201024057887"><ele>26.0</ele><time>2026-04-30T07:44:22.816Z</time></trkpt><trkpt lat="40.842003404046814" lon="9.651346681350987"><ele>27.5</ele><time>2026-04-30T07:44:23.816Z</time></trkpt><trkpt lat="40.841985371587924" lon="9.651497280282346"><ele>29.0</ele><time>2026-04-30T07:44:24.816Z</time></trkpt><trkpt lat="40.84197699087458" lon="9.651648999078652"><ele>29.0</ele><time>2026-04-30T07:44:25.816Z</time></trkpt><trkpt lat="40.84197431833264" lon="9.65179055841878"><ele>29.0</ele><time>2026-04-30T07:44:26.816Z</time></trkpt><trkpt lat="40.841973187625854" lon="9.651923157929147"><ele>29.0</ele><time>2026-04-30T07:44:27.816Z</time></trkpt><trkpt lat="40.84196308171722" lon="9.652054294615796"><ele>29.0</ele><time>2026-04-30T07:44:28.816Z</time></trkpt><trkpt lat="40.84192948567322" lon="9.652181942741286"><ele>29.0</ele><time>2026-04-30T07:44:29.816Z</time></trkpt><trkpt lat="40.841867788219105" lon="9.652288413014675"><ele>32.75</ele><time>2026-04-30T07:44:30.816Z</time></trkpt><trkpt lat="40.84176169608427" lon="9.65233642143323"><ele>36.5</ele><time>2026-04-30T07:44:31.816Z</time></trkpt><trkpt lat="40.84167209829169" lon="9.6524224566002"><ele>40.25</ele><time>2026-04-30T07:44:32.816Z</time></trkpt><trkpt lat="40.841579334881644" lon="9.652515138402277"><ele>44.0</ele><time>2026-04-30T07:44:33.816Z</time></trkpt><trkpt lat="40.84148605065495" lon="9.652625442521428"><ele>44.0</ele><time>2026-04-30T07:44:34.816Z</time></trkpt><trkpt lat="40.841395276935344" lon="9.652745318841006"><ele>44.0</ele><time>2026-04-30T07:44:35.816Z</time></trkpt><trkpt lat="40.84131263281012" lon="9.65285800302483"><ele>44.0</ele><time>2026-04-30T07:44:36.816Z</time></trkpt><trkpt lat="40.84124556552691" lon="9.652959164753582"><ele>44.0</ele><time>2026-04-30T07:44:37.816Z</time></trkpt><trkpt lat="40.841186932335084" lon="9.653050257332646"><ele>44.0</ele><time>2026-04-30T07:44:38.816Z</time></trkpt><trkpt lat="40.84113030390218" lon="9.653133233565491"><ele>44.166666666666664</ele><time>2026-04-30T07:44:39.816Z</time></trkpt><trkpt lat="40.84107685687269" lon="9.653208019772268"><ele>44.33333333333333</ele><time>2026-04-30T07:44:40.815Z</time></trkpt><trkpt lat="40.841026674354104" lon="9.65327906052526"><ele>44.5</ele><time>2026-04-30T07:44:41.815Z</time></trkpt><trkpt lat="40.84098183890415" lon="9.653353918842393"><ele>44.666666666666664</ele><time>2026-04-30T07:44:42.815Z</time></trkpt><trkpt lat="40.840937444681224" lon="9.653432679297213"><ele>44.833333333333336</ele><time>2026-04-30T07:44:43.815Z</time></trkpt><trkpt lat="40.84089436684197" lon="9.653521289345669"><ele>45.0</ele><time>2026-04-30T07:44:44.815Z</time></trkpt><trkpt lat="40.84084367365702" lon="9.653617671190597"><ele>44.8</ele><time>2026-04-30T07:44:45.815Z</time></trkpt><trkpt lat="40.84077709388765" lon="9.65370284403343"><ele>44.6</ele><time>2026-04-30T07:44:46.815Z</time></trkpt><trkpt lat="40.840733799900846" lon="9.653808967517783"><ele>44.400000000000006</ele><time>2026-04-30T07:44:47.816Z</time></trkpt><trkpt lat="40.840692269757184" lon="9.653923743328802"><ele>44.2</ele><time>2026-04-30T07:44:48.817Z</time></trkpt><trkpt lat="40.84064770157708" lon="9.654046753404524"><ele>44.0</ele><time>2026-04-30T07:44:49.817Z</time></trkpt><trkpt lat="40.84060849817594" lon="9.654180373285861"><ele>44.0</ele><time>2026-04-30T07:44:50.816Z</time></trkpt><trkpt lat="40.84056697070562" lon="9.654313002429971"><ele>44.0</ele><time>2026-04-30T07:44:51.817Z</time></trkpt><trkpt lat="40.840527451491745" lon="9.654442211000514"><ele>44.0</ele><time>2026-04-30T07:44:52.817Z</time></trkpt><trkpt lat="40.84048036680932" lon="9.654578664688712"><ele>44.0</ele><time>2026-04-30T07:44:53.816Z</time></trkpt><trkpt lat="40.84043999414257" lon="9.654735509893342"><ele>43.0</ele><time>2026-04-30T07:44:54.816Z</time></trkpt><trkpt lat="40.840388963307475" lon="9.654903484505036"><ele>42.0</ele><time>2026-04-30T07:44:55.816Z</time></trkpt><trkpt lat="40.840331512576036" lon="9.655080236514577"><ele>41.0</ele><time>2026-04-30T07:44:56.816Z</time></trkpt><trkpt lat="40.840273340286025" lon="9.655257693854983"><ele>40.0</ele><time>2026-04-30T07:44:57.816Z</time></trkpt><trkpt lat="40.840209611739034" lon="9.65542917202961"><ele>39.66666666666667</ele><time>2026-04-30T07:44:58.816Z</time></trkpt><trkpt lat="40.84013821727822" lon="9.655588644839094"><ele>39.333333333333336</ele><time>2026-04-30T07:44:59.816Z</time></trkpt><trkpt lat="40.84005830887196" lon="9.65575239205812"><ele>39.0</ele><time>2026-04-30T07:45:00.816Z</time></trkpt><trkpt lat="40.83994093521789" lon="9.65590621400041"><ele>38.333333333333336</ele><time>2026-04-30T07:45:01.816Z</time></trkpt><trkpt lat="40.839833635347176" lon="9.656061012929742"><ele>37.66666666666667</ele><time>2026-04-30T07:45:02.816Z</time></trkpt><trkpt lat="40.83973147680852" lon="9.65620271052445"><ele>37.0</ele><time>2026-04-30T07:45:03.816Z</time></trkpt><trkpt lat="40.839634640216474" lon="9.656367209802402"><ele>36.333333333333336</ele><time>2026-04-30T07:45:04.816Z</time></trkpt><trkpt lat="40.83951610960996" lon="9.656527128117043"><ele>35.666666666666664</ele><time>2026-04-30T07:45:05.816Z</time></trkpt><trkpt lat="40.83938399309256" lon="9.656679888074066"><ele>35.0</ele><time>2026-04-30T07:45:06.816Z</time></trkpt><trkpt lat="40.8392498153671" lon="9.65686665656412"><ele>32.5</ele><time>2026-04-30T07:45:07.816Z</time></trkpt><trkpt lat="40.83909868739087" lon="9.657071763372583"><ele>30.0</ele><time>2026-04-30T07:45:08.816Z</time></trkpt><trkpt lat="40.83893335759464" lon="9.657298870982231"><ele>30.0</ele><time>2026-04-30T07:45:09.816Z</time></trkpt><trkpt lat="40.83877051406393" lon="9.65752344165676"><ele>30.0</ele><time>2026-04-30T07:45:10.816Z</time></trkpt><trkpt lat="40.8386302998348" lon="9.657738527307822"><ele>30.0</ele><time>2026-04-30T07:45:11.816Z</time></trkpt><trkpt lat="40.8384880282765" lon="9.657930944785253"><ele>30.0</ele><time>2026-04-30T07:45:12.816Z</time></trkpt><trkpt lat="40.83834772211007" lon="9.658130571079463"><ele>30.0</ele><time>2026-04-30T07:45:13.816Z</time></trkpt><trkpt lat="40.83821226175205" lon="9.658331371867249"><ele>30.0</ele><time>2026-04-30T07:45:14.816Z</time></trkpt><trkpt lat="40.838081064284836" lon="9.658545434056752"><ele>30.0</ele><time>2026-04-30T07:45:15.815Z</time></trkpt><trkpt lat="40.837947761711156" lon="9.658760821427752"><ele>30.0</ele><time>2026-04-30T07:45:16.815Z</time></trkpt><trkpt lat="40.83781610715072" lon="9.658972008545748"><ele>29.333333333333336</ele><time>2026-04-30T07:45:17.815Z</time></trkpt><trkpt lat="40.83768655609768" lon="9.659178543648897"><ele>28.666666666666668</ele><time>2026-04-30T07:45:18.815Z</time></trkpt><trkpt lat="40.83755469532755" lon="9.659388370938094"><ele>28.0</ele><time>2026-04-30T07:45:19.815Z</time></trkpt><trkpt lat="40.837420761540216" lon="9.659604260139504"><ele>25.333333333333336</ele><time>2026-04-30T07:45:20.815Z</time></trkpt><trkpt lat="40.837281427504564" lon="9.659827814081257"><ele>22.666666666666668</ele><time>2026-04-30T07:45:21.815Z</time></trkpt><trkpt lat="40.83714124670359" lon="9.660056543253162"><ele>20.0</ele><time>2026-04-30T07:45:22.815Z</time></trkpt><trkpt lat="40.83699575916175" lon="9.660288403899289"><ele>20.0</ele><time>2026-04-30T07:45:23.815Z</time></trkpt><trkpt lat="40.83684917113194" lon="9.66052321622555"><ele>20.0</ele><time>2026-04-30T07:45:24.815Z</time></trkpt><trkpt lat="40.8366943019532" lon="9.660735369592086"><ele>19.666666666666668</ele><time>2026-04-30T07:45:25.815Z</time></trkpt><trkpt lat="40.83655798798461" lon="9.660953033417673"><ele>19.333333333333332</ele><time>2026-04-30T07:45:26.815Z</time></trkpt><trkpt lat="40.83644403942374" lon="9.661168033824787"><ele>19.0</ele><time>2026-04-30T07:45:27.815Z</time></trkpt><trkpt lat="40.836319654806964" lon="9.66136120560166"><ele>18.666666666666664</ele><time>2026-04-30T07:45:28.815Z</time></trkpt><trkpt lat="40.83619659059221" lon="9.661552548880433"><ele>18.333333333333332</ele><time>2026-04-30T07:45:29.815Z</time></trkpt><trkpt lat="40.83607368539675" lon="9.66174479987012"><ele>18.0</ele><time>2026-04-30T07:45:30.815Z</time></trkpt><trkpt lat="40.83596210010009" lon="9.661929242187044"><ele>18.5</ele><time>2026-04-30T07:45:31.815Z</time></trkpt><trkpt lat="40.83585770850312" lon="9.6620896124534"><ele>19.0</ele><time>2026-04-30T07:45:32.815Z</time></trkpt><trkpt lat="40.835763918966634" lon="9.662236159957175"><ele>19.5</ele><time>2026-04-30T07:45:33.815Z</time></trkpt><trkpt lat="40.835671661077356" lon="9.662375243138223"><ele>20.0</ele><time>2026-04-30T07:45:34.815Z</time></trkpt><trkpt lat="40.83557912602304" lon="9.662521680090245"><ele>20.0</ele><time>2026-04-30T07:45:35.815Z</time></trkpt><trkpt lat="40.83549041346798" lon="9.662670773705415"><ele>20.0</ele><time>2026-04-30T07:45:36.815Z</time></trkpt><trkpt lat="40.83540242754662" lon="9.662813532268439"><ele>20.0</ele><time>2026-04-30T07:45:37.815Z</time></trkpt><trkpt lat="40.835314353787304" lon="9.662952838200887"><ele>20.0</ele><time>2026-04-30T07:45:38.815Z</time></trkpt><trkpt lat="40.8352259078122" lon="9.66309313413507"><ele>20.0</ele><time>2026-04-30T07:45:39.814Z</time></trkpt><trkpt lat="40.83513993966167" lon="9.663235339113525"><ele>20.0</ele><time>2026-04-30T07:45:40.814Z</time></trkpt><trkpt lat="40.83505212184629" lon="9.66338083836687"><ele>20.0</ele><time>2026-04-30T07:45:41.814Z</time></trkpt><trkpt lat="40.834965092030195" lon="9.663519482565782"><ele>20.0</ele><time>2026-04-30T07:45:42.814Z</time></trkpt><trkpt lat="40.83488176681619" lon="9.663650519568378"><ele>20.0</ele><time>2026-04-30T07:45:43.814Z</time></trkpt><trkpt lat="40.83480085693806" lon="9.663779821027235"><ele>20.0</ele><time>2026-04-30T07:45:44.814Z</time></trkpt><trkpt lat="40.834719255997086" lon="9.663908657913556"><ele>20.0</ele><time>2026-04-30T07:45:45.814Z</time></trkpt><trkpt lat="40.834638307309866" lon="9.664031988883155"><ele>20.0</ele><time>2026-04-30T07:45:46.814Z</time></trkpt><trkpt lat="40.83455445654287" lon="9.664149218288054"><ele>20.0</ele><time>2026-04-30T07:45:47.814Z</time></trkpt><trkpt lat="40.83445560086791" lon="9.66424777949805"><ele>20.0</ele><time>2026-04-30T07:45:48.814Z</time></trkpt><trkpt lat="40.83434332046248" lon="9.664322386888058"><ele>20.0</ele><time>2026-04-30T07:45:49.814Z</time></trkpt><trkpt lat="40.83422301286515" lon="9.664374245419854"><ele>20.0</ele><time>2026-04-30T07:45:50.814Z</time></trkpt><trkpt lat="40.83409492853224" lon="9.664378045509153"><ele>19.5</ele><time>2026-04-30T07:45:51.814Z</time></trkpt><trkpt lat="40.8339659009" lon="9.664366954543341"><ele>19.0</ele><time>2026-04-30T07:45:52.814Z</time></trkpt><trkpt lat="40.833834505221276" lon="9.664344421205302"><ele>18.5</ele><time>2026-04-30T07:45:53.814Z</time></trkpt><trkpt lat="40.83370094849552" lon="9.66432362203795"><ele>18.0</ele><time>2026-04-30T07:45:54.814Z</time></trkpt><trkpt lat="40.83356114288639" lon="9.66430451505565"><ele>17.333333333333332</ele><time>2026-04-30T07:45:55.814Z</time></trkpt><trkpt lat="40.83340967590192" lon="9.664279600131202"><ele>16.666666666666664</ele><time>2026-04-30T07:45:56.814Z</time></trkpt><trkpt lat="40.833258343950064" lon="9.664261345210978"><ele>16.0</ele><time>2026-04-30T07:45:57.814Z</time></trkpt><trkpt lat="40.83310812563585" lon="9.66422120979454"><ele>16.0</ele><time>2026-04-30T07:45:58.814Z</time></trkpt><trkpt lat="40.8329648439057" lon="9.66420068794619"><ele>16.0</ele><time>2026-04-30T07:45:59.814Z</time></trkpt><trkpt lat="40.832824962096645" lon="9.664180301451161"><ele>16.0</ele><time>2026-04-30T07:46:00.814Z</time></trkpt><trkpt lat="40.83268529466011" lon="9.664159781381423"><ele>16.0</ele><time>2026-04-30T07:46:01.814Z</time></trkpt><trkpt lat="40.83254416615231" lon="9.664142901739684"><ele>16.0</ele><time>2026-04-30T07:46:02.814Z</time></trkpt><trkpt lat="40.832401514380294" lon="9.664115287592255"><ele>16.0</ele><time>2026-04-30T07:46:03.813Z</time></trkpt><trkpt lat="40.83225359745294" lon="9.66409557741865"><ele>16.0</ele><time>2026-04-30T07:46:04.813Z</time></trkpt><trkpt lat="40.832104494211876" lon="9.664066718995326"><ele>16.0</ele><time>2026-04-30T07:46:05.813Z</time></trkpt><trkpt lat="40.83195987637513" lon="9.66404260615714"><ele>16.0</ele><time>2026-04-30T07:46:06.813Z</time></trkpt><trkpt lat="40.831821784341535" lon="9.66402111955701"><ele>16.0</ele><time>2026-04-30T07:46:07.813Z</time></trkpt><trkpt lat="40.83169082579316" lon="9.664004144464487"><ele>16.0</ele><time>2026-04-30T07:46:08.813Z</time></trkpt><trkpt lat="40.831563027909645" lon="9.663987395555582"><ele>16.0</ele><time>2026-04-30T07:46:09.813Z</time></trkpt><trkpt lat="40.831438748942055" lon="9.663965478975372"><ele>16.25</ele><time>2026-04-30T07:46:10.813Z</time></trkpt><trkpt lat="40.83131154547974" lon="9.663937002677017"><ele>16.5</ele><time>2026-04-30T07:46:11.813Z</time></trkpt><trkpt lat="40.831183895252785" lon="9.663893541552456"><ele>16.75</ele><time>2026-04-30T07:46:12.813Z</time></trkpt><trkpt lat="40.83106955546233" lon="9.663802997284657"><ele>17.0</ele><time>2026-04-30T07:46:13.813Z</time></trkpt><trkpt lat="40.830947156558445" lon="9.663710835413209"><ele>17.333333333333336</ele><time>2026-04-30T07:46:14.813Z</time></trkpt><trkpt lat="40.83081803382632" lon="9.663616787860256"><ele>17.666666666666668</ele><time>2026-04-30T07:46:15.813Z</time></trkpt><trkpt lat="40.83065307941591" lon="9.66349158465604"><ele>18.0</ele><time>2026-04-30T07:46:16.813Z</time></trkpt><trkpt lat="40.83047083306889" lon="9.663331505452101"><ele>18.666666666666668</ele><time>2026-04-30T07:46:17.813Z</time></trkpt><trkpt lat="40.83026862511296" lon="9.663193639619847"><ele>19.333333333333336</ele><time>2026-04-30T07:46:18.813Z</time></trkpt><trkpt lat="40.83009036248924" lon="9.663030359865495"><ele>20.0</ele><time>2026-04-30T07:46:19.813Z</time></trkpt><trkpt lat="40.829927133569754" lon="9.662889660739587"><ele>22.666666666666668</ele><time>2026-04-30T07:46:20.813Z</time></trkpt><trkpt lat="40.829776410679436" lon="9.662770780901605"><ele>25.333333333333336</ele><time>2026-04-30T07:46:21.813Z</time></trkpt><trkpt lat="40.82964470158153" lon="9.662668059474406"><ele>28.0</ele><time>2026-04-30T07:46:22.813Z</time></trkpt><trkpt lat="40.829521138216165" lon="9.66257765301336"><ele>28.0</ele><time>2026-04-30T07:46:23.813Z</time></trkpt><trkpt lat="40.82939793991921" lon="9.662493994919991"><ele>28.0</ele><time>2026-04-30T07:46:24.813Z</time></trkpt><trkpt lat="40.82927867611892" lon="9.662421678209393"><ele>28.0</ele><time>2026-04-30T07:46:25.813Z</time></trkpt><trkpt lat="40.82916109941561" lon="9.662363416589061"><ele>28.0</ele><time>2026-04-30T07:46:26.812Z</time></trkpt><trkpt lat="40.82903814851139" lon="9.66232623100038"><ele>27.25</ele><time>2026-04-30T07:46:27.812Z</time></trkpt><trkpt lat="40.82891434565854" lon="9.662308409180945"><ele>26.5</ele><time>2026-04-30T07:46:28.812Z</time></trkpt><trkpt lat="40.82878292350932" lon="9.662309587827892"><ele>25.75</ele><time>2026-04-30T07:46:29.812Z</time></trkpt><trkpt lat="40.82864502803981" lon="9.66232644122172"><ele>25.0</ele><time>2026-04-30T07:46:30.812Z</time></trkpt><trkpt lat="40.82850326318082" lon="9.662343634427382"><ele>25.0</ele><time>2026-04-30T07:46:31.812Z</time></trkpt><trkpt lat="40.82836986723892" lon="9.66236256847799"><ele>25.0</ele><time>2026-04-30T07:46:32.812Z</time></trkpt><trkpt lat="40.828233287083705" lon="9.662368054469844"><ele>25.0</ele><time>2026-04-30T07:46:33.812Z</time></trkpt><trkpt lat="40.828108145163334" lon="9.662376439595352"><ele>25.0</ele><time>2026-04-30T07:46:34.812Z</time></trkpt><trkpt lat="40.82798291961954" lon="9.662384839805679"><ele>25.0</ele><time>2026-04-30T07:46:35.812Z</time></trkpt><trkpt lat="40.82786064171821" lon="9.662396598978244"><ele>25.0</ele><time>2026-04-30T07:46:36.812Z</time></trkpt><trkpt lat="40.82774548193122" lon="9.66240900038982"><ele>25.0</ele><time>2026-04-30T07:46:37.812Z</time></trkpt><trkpt lat="40.827629875736186" lon="9.662421643851872"><ele>25.0</ele><time>2026-04-30T07:46:38.812Z</time></trkpt><trkpt lat="40.82751447953459" lon="9.662431287235712"><ele>25.6</ele><time>2026-04-30T07:46:39.812Z</time></trkpt><trkpt lat="40.827401819313586" lon="9.662436062912619"><ele>26.2</ele><time>2026-04-30T07:46:40.812Z</time></trkpt><trkpt lat="40.82729134359585" lon="9.662431133267523"><ele>26.799999999999997</ele><time>2026-04-30T07:46:41.812Z</time></trkpt><trkpt lat="40.82718864619691" lon="9.662410269663589"><ele>27.4</ele><time>2026-04-30T07:46:42.812Z</time></trkpt><trkpt lat="40.82708480927149" lon="9.662366966929405"><ele>28.0</ele><time>2026-04-30T07:46:43.812Z</time></trkpt><trkpt lat="40.826992672617045" lon="9.662275837618681"><ele>28.0</ele><time>2026-04-30T07:46:44.812Z</time></trkpt><trkpt lat="40.82689792665409" lon="9.662180982784504"><ele>28.0</ele><time>2026-04-30T07:46:45.812Z</time></trkpt><trkpt lat="40.82680040811196" lon="9.662062971035773"><ele>28.0</ele><time>2026-04-30T07:46:46.812Z</time></trkpt><trkpt lat="40.82668428609875" lon="9.661919075927758"><ele>28.0</ele><time>2026-04-30T07:46:47.812Z</time></trkpt><trkpt lat="40.826538566316444" lon="9.661738616087192"><ele>31.0</ele><time>2026-04-30T07:46:48.812Z</time></trkpt><trkpt lat="40.82636632848533" lon="9.661525722658542"><ele>34.0</ele><time>2026-04-30T07:46:49.811Z</time></trkpt><trkpt lat="40.826177109540964" lon="9.661291893282096"><ele>36.5</ele><time>2026-04-30T07:46:50.811Z</time></trkpt><trkpt lat="40.825990006959806" lon="9.661054265395817"><ele>39.0</ele><time>2026-04-30T07:46:51.811Z</time></trkpt><trkpt lat="40.82581430106731" lon="9.66083841906825"><ele>39.666666666666664</ele><time>2026-04-30T07:46:52.811Z</time></trkpt><trkpt lat="40.82565677074039" lon="9.660635227244429"><ele>40.33333333333333</ele><time>2026-04-30T07:46:53.812Z</time></trkpt><trkpt lat="40.82551209369358" lon="9.66045814409736"><ele>41.0</ele><time>2026-04-30T07:46:54.812Z</time></trkpt><trkpt lat="40.82537516274972" lon="9.66031403995106"><ele>40.75</ele><time>2026-04-30T07:46:55.812Z</time></trkpt><trkpt lat="40.825248642939265" lon="9.660221239098464"><ele>40.5</ele><time>2026-04-30T07:46:56.812Z</time></trkpt><trkpt lat="40.82511224887183" lon="9.660170659128967"><ele>40.25</ele><time>2026-04-30T07:46:57.812Z</time></trkpt><trkpt lat="40.8249681217028" lon="9.66015213794691"><ele>40.0</ele><time>2026-04-30T07:46:58.812Z</time></trkpt><trkpt lat="40.824831969865315" lon="9.660139248193174"><ele>40.0</ele><time>2026-04-30T07:46:59.812Z</time></trkpt><trkpt lat="40.82469725480605" lon="9.660094347527018"><ele>40.0</ele><time>2026-04-30T07:47:00.812Z</time></trkpt><trkpt lat="40.824554433028425" lon="9.66005795897848"><ele>40.0</ele><time>2026-04-30T07:47:01.812Z</time></trkpt><trkpt lat="40.82440398613994" lon="9.660039656663207"><ele>40.0</ele><time>2026-04-30T07:47:02.812Z</time></trkpt><trkpt lat="40.824253189328665" lon="9.659994812007437"><ele>39.333333333333336</ele><time>2026-04-30T07:47:03.812Z</time></trkpt><trkpt lat="40.82409222391388" lon="9.659949211333396"><ele>38.666666666666664</ele><time>2026-04-30T07:47:04.812Z</time></trkpt><trkpt lat="40.823928597497925" lon="9.659907438867886"><ele>38.0</ele><time>2026-04-30T07:47:05.812Z</time></trkpt><trkpt lat="40.82376944656254" lon="9.65986674517456"><ele>38.0</ele><time>2026-04-30T07:47:06.811Z</time></trkpt><trkpt lat="40.82360418445001" lon="9.659828108404183"><ele>38.0</ele><time>2026-04-30T07:47:07.811Z</time></trkpt><trkpt lat="40.823435511087766" lon="9.659780535768176"><ele>38.0</ele><time>2026-04-30T07:47:08.811Z</time></trkpt><trkpt lat="40.82326363185241" lon="9.659734946724047"><ele>36.666666666666664</ele><time>2026-04-30T07:47:09.811Z</time></trkpt><trkpt lat="40.823090422144794" lon="9.659693705746983"><ele>35.333333333333336</ele><time>2026-04-30T07:47:10.811Z</time></trkpt><trkpt lat="40.82291292484657" lon="9.659648622725333"><ele>34.0</ele><time>2026-04-30T07:47:11.811Z</time></trkpt><trkpt lat="40.82273682347801" lon="9.659600708897095"><ele>33.333333333333336</ele><time>2026-04-30T07:47:12.811Z</time></trkpt><trkpt lat="40.822562749687435" lon="9.659551546147554"><ele>32.666666666666664</ele><time>2026-04-30T07:47:13.811Z</time></trkpt><trkpt lat="40.82238811789424" lon="9.6595068434802"><ele>32.0</ele><time>2026-04-30T07:47:14.811Z</time></trkpt><trkpt lat="40.82221285065908" lon="9.65946110706801"><ele>32.0</ele><time>2026-04-30T07:47:15.811Z</time></trkpt><trkpt lat="40.822041424216934" lon="9.65942016379549"><ele>32.0</ele><time>2026-04-30T07:47:16.811Z</time></trkpt><trkpt lat="40.82186767813673" lon="9.659373720974973"><ele>32.0</ele><time>2026-04-30T07:47:17.811Z</time></trkpt><trkpt lat="40.82169808516796" lon="9.659332697043988"><ele>31.666666666666664</ele><time>2026-04-30T07:47:18.811Z</time></trkpt><trkpt lat="40.82152828069048" lon="9.659291895102234"><ele>31.333333333333336</ele><time>2026-04-30T07:47:19.811Z</time></trkpt><trkpt lat="40.82135694549393" lon="9.659254140745906"><ele>31.0</ele><time>2026-04-30T07:47:20.811Z</time></trkpt><trkpt lat="40.82118680808077" lon="9.65922282294171"><ele>31.0</ele><time>2026-04-30T07:47:21.811Z</time></trkpt><trkpt lat="40.82102546314005" lon="9.659200027018747"><ele>31.0</ele><time>2026-04-30T07:47:22.811Z</time></trkpt><trkpt lat="40.820868752250675" lon="9.659183848915532"><ele>31.0</ele><time>2026-04-30T07:47:23.811Z</time></trkpt><trkpt lat="40.82072291984107" lon="9.659186524141125"><ele>30.25</ele><time>2026-04-30T07:47:24.811Z</time></trkpt><trkpt lat="40.82057710026985" lon="9.659204722886528"><ele>29.5</ele><time>2026-04-30T07:47:25.811Z</time></trkpt><trkpt lat="40.82044009151648" lon="9.65922524894663"><ele>28.75</ele><time>2026-04-30T07:47:26.811Z</time></trkpt><trkpt lat="40.820322426978144" lon="9.659245258377664"><ele>28.0</ele><time>2026-04-30T07:47:27.811Z</time></trkpt><trkpt lat="40.820220060113705" lon="9.659260906871946"><ele>27.799999999999997</ele><time>2026-04-30T07:47:28.81Z</time></trkpt><trkpt lat="40.820123553445136" lon="9.659283329787153"><ele>27.599999999999998</ele><time>2026-04-30T07:47:29.81Z</time></trkpt><trkpt lat="40.82002204599181" lon="9.659278049417276"><ele>27.400000000000002</ele><time>2026-04-30T07:47:30.81Z</time></trkpt><trkpt lat="40.81992657119679" lon="9.659293656692324"><ele>27.200000000000003</ele><time>2026-04-30T07:47:31.81Z</time></trkpt><trkpt lat="40.819831987473194" lon="9.659310367752013"><ele>27.0</ele><time>2026-04-30T07:47:32.81Z</time></trkpt><trkpt lat="40.81974789981116" lon="9.659324925252722"><ele>27.0</ele><time>2026-04-30T07:47:33.81Z</time></trkpt><trkpt lat="40.81967108554556" lon="9.659339916679809"><ele>27.0</ele><time>2026-04-30T07:47:34.81Z</time></trkpt><trkpt lat="40.81959510096013" lon="9.659351718795511"><ele>27.0</ele><time>2026-04-30T07:47:35.81Z</time></trkpt><trkpt lat="40.81951624035465" lon="9.659365590621087"><ele>27.0</ele><time>2026-04-30T07:47:36.81Z</time></trkpt><trkpt lat="40.81941826145335" lon="9.659384260362557"><ele>27.0</ele><time>2026-04-30T07:47:37.81Z</time></trkpt><trkpt lat="40.81931713483975" lon="9.659401280331656"><ele>27.0</ele><time>2026-04-30T07:47:38.81Z</time></trkpt><trkpt lat="40.819220259315976" lon="9.65941710445877"><ele>26.5</ele><time>2026-04-30T07:47:39.81Z</time></trkpt><trkpt lat="40.81911452310863" lon="9.65943350297332"><ele>26.0</ele><time>2026-04-30T07:47:40.81Z</time></trkpt><trkpt lat="40.8189983502276" lon="9.659454478770872"><ele>25.5</ele><time>2026-04-30T07:47:41.81Z</time></trkpt><trkpt lat="40.81887538311212" lon="9.659483925209525"><ele>25.0</ele><time>2026-04-30T07:47:42.81Z</time></trkpt><trkpt lat="40.81874459725471" lon="9.65950837494826"><ele>24.75</ele><time>2026-04-30T07:47:43.81Z</time></trkpt><trkpt lat="40.81861243596907" lon="9.6595283104183"><ele>24.5</ele><time>2026-04-30T07:47:44.81Z</time></trkpt><trkpt lat="40.8184808572757" lon="9.659550883843936"><ele>24.25</ele><time>2026-04-30T07:47:45.81Z</time></trkpt><trkpt lat="40.81834356182819" lon="9.659572042481107"><ele>24.0</ele><time>2026-04-30T07:47:46.81Z</time></trkpt><trkpt lat="40.818208389565875" lon="9.659594545839312"><ele>23.0</ele><time>2026-04-30T07:47:47.81Z</time></trkpt><trkpt lat="40.81808000111061" lon="9.659615311379605"><ele>22.0</ele><time>2026-04-30T07:47:48.81Z</time></trkpt><trkpt lat="40.817948492732896" lon="9.659634006743183"><ele>21.0</ele><time>2026-04-30T07:47:49.81Z</time></trkpt><trkpt lat="40.81781656085758" lon="9.659653113115942"><ele>20.0</ele><time>2026-04-30T07:47:50.81Z</time></trkpt><trkpt lat="40.81768068802577" lon="9.659670911799923"><ele>19.75</ele><time>2026-04-30T07:47:51.81Z</time></trkpt><trkpt lat="40.81754375696096" lon="9.65969273285066"><ele>19.5</ele><time>2026-04-30T07:47:52.809Z</time></trkpt><trkpt lat="40.81739994214342" lon="9.659713614731354"><ele>19.25</ele><time>2026-04-30T07:47:53.809Z</time></trkpt><trkpt lat="40.81725489636892" lon="9.659740666917978"><ele>19.0</ele><time>2026-04-30T07:47:54.809Z</time></trkpt><trkpt lat="40.81711065631633" lon="9.659767748173618"><ele>19.0</ele><time>2026-04-30T07:47:55.809Z</time></trkpt><trkpt lat="40.81695996435401" lon="9.659794443700186"><ele>19.0</ele><time>2026-04-30T07:47:56.809Z</time></trkpt><trkpt lat="40.81680505997909" lon="9.659820029798198"><ele>19.0</ele><time>2026-04-30T07:47:57.809Z</time></trkpt><trkpt lat="40.81664653452199" lon="9.659845411117365"><ele>19.333333333333332</ele><time>2026-04-30T07:47:58.809Z</time></trkpt><trkpt lat="40.81648330449482" lon="9.659875725841983"><ele>19.666666666666668</ele><time>2026-04-30T07:47:59.809Z</time></trkpt><trkpt lat="40.81632618344563" lon="9.65990290395673"><ele>20.0</ele><time>2026-04-30T07:48:00.809Z</time></trkpt><trkpt lat="40.81617816934937" lon="9.659926948932759"><ele>20.0</ele><time>2026-04-30T07:48:01.809Z</time></trkpt><trkpt lat="40.81604758165612" lon="9.659943430551246"><ele>20.0</ele><time>2026-04-30T07:48:02.809Z</time></trkpt><trkpt lat="40.81591740620546" lon="9.659961696205611"><ele>20.0</ele><time>2026-04-30T07:48:03.809Z</time></trkpt><trkpt lat="40.81579060194343" lon="9.659985562454244"><ele>20.0</ele><time>2026-04-30T07:48:04.809Z</time></trkpt><trkpt lat="40.81566829265561" lon="9.660003619916276"><ele>19.75</ele><time>2026-04-30T07:48:05.809Z</time></trkpt><trkpt lat="40.81555195594158" lon="9.660024888673332"><ele>19.5</ele><time>2026-04-30T07:48:06.809Z</time></trkpt><trkpt lat="40.81543105907809" lon="9.660040887345957"><ele>19.25</ele><time>2026-04-30T07:48:07.809Z</time></trkpt><trkpt lat="40.81530657118819" lon="9.66005704874656"><ele>19.0</ele><time>2026-04-30T07:48:08.809Z</time></trkpt><trkpt lat="40.81518640007411" lon="9.660064417419935"><ele>19.0</ele><time>2026-04-30T07:48:09.809Z</time></trkpt><trkpt lat="40.815073036365376" lon="9.660062408188585"><ele>19.0</ele><time>2026-04-30T07:48:10.809Z</time></trkpt><trkpt lat="40.81495948994796" lon="9.660050245597839"><ele>19.0</ele><time>2026-04-30T07:48:11.809Z</time></trkpt><trkpt lat="40.81484008653656" lon="9.660027862585597"><ele>19.0</ele><time>2026-04-30T07:48:12.809Z</time></trkpt><trkpt lat="40.8147188633765" lon="9.65999905473306"><ele>19.0</ele><time>2026-04-30T07:48:13.809Z</time></trkpt><trkpt lat="40.814589343376916" lon="9.659951417578066"><ele>19.0</ele><time>2026-04-30T07:48:14.809Z</time></trkpt><trkpt lat="40.814440088910814" lon="9.65991057524404"><ele>19.0</ele><time>2026-04-30T07:48:15.808Z</time></trkpt><trkpt lat="40.81427243142488" lon="9.659847966695699"><ele>17.666666666666664</ele><time>2026-04-30T07:48:16.808Z</time></trkpt><trkpt lat="40.81407888772152" lon="9.659767285324785"><ele>16.333333333333332</ele><time>2026-04-30T07:48:17.808Z</time></trkpt><trkpt lat="40.81387142318844" lon="9.659693669967128"><ele>15.0</ele><time>2026-04-30T07:48:18.808Z</time></trkpt><trkpt lat="40.81366491160437" lon="9.659616953669646"><ele>14.0</ele><time>2026-04-30T07:48:19.808Z</time></trkpt><trkpt lat="40.81346807533299" lon="9.65955023674538"><ele>13.0</ele><time>2026-04-30T07:48:20.808Z</time></trkpt><trkpt lat="40.813280754613274" lon="9.659488209600557"><ele>12.0</ele><time>2026-04-30T07:48:21.808Z</time></trkpt><trkpt lat="40.813098219944095" lon="9.659429415198614"><ele>12.0</ele><time>2026-04-30T07:48:22.808Z</time></trkpt><trkpt lat="40.812917663836394" lon="9.659370484756135"><ele>12.0</ele><time>2026-04-30T07:48:23.808Z</time></trkpt><trkpt lat="40.81273777220669" lon="9.659309634806872"><ele>12.0</ele><time>2026-04-30T07:48:24.808Z</time></trkpt><trkpt lat="40.81256130166821" lon="9.659248968659583"><ele>11.333333333333334</ele><time>2026-04-30T07:48:25.808Z</time></trkpt><trkpt lat="40.81238408497247" lon="9.659188932152732"><ele>10.666666666666668</ele><time>2026-04-30T07:48:26.808Z</time></trkpt><trkpt lat="40.81221155949413" lon="9.659134781139006"><ele>10.0</ele><time>2026-04-30T07:48:27.808Z</time></trkpt><trkpt lat="40.81204490688798" lon="9.659078951057426"><ele>10.0</ele><time>2026-04-30T07:48:28.808Z</time></trkpt><trkpt lat="40.811877629713095" lon="9.659025000908844"><ele>10.0</ele><time>2026-04-30T07:48:29.808Z</time></trkpt><trkpt lat="40.81171391864531" lon="9.658972070641267"><ele>10.0</ele><time>2026-04-30T07:48:30.808Z</time></trkpt><trkpt lat="40.81154696997587" lon="9.658916080844657"><ele>9.0</ele><time>2026-04-30T07:48:31.808Z</time></trkpt><trkpt lat="40.81138554244812" lon="9.658864482812113"><ele>8.0</ele><time>2026-04-30T07:48:32.808Z</time></trkpt><trkpt lat="40.81122818908313" lon="9.65881289430452"><ele>7.0</ele><time>2026-04-30T07:48:33.808Z</time></trkpt><trkpt lat="40.811065005512425" lon="9.658762636424452"><ele>6.333333333333334</ele><time>2026-04-30T07:48:34.808Z</time></trkpt><trkpt lat="40.810888119483245" lon="9.658711440614335"><ele>5.666666666666667</ele><time>2026-04-30T07:48:35.808Z</time></trkpt><trkpt lat="40.81070459213146" lon="9.658634255598667"><ele>5.0</ele><time>2026-04-30T07:48:36.808Z</time></trkpt><trkpt lat="40.8105050092565" lon="9.65856749307201"><ele>6.5</ele><time>2026-04-30T07:48:37.808Z</time></trkpt><trkpt lat="40.81028963982233" lon="9.65849544974765"><ele>8.0</ele><time>2026-04-30T07:48:38.807Z</time></trkpt><trkpt lat="40.81006408822957" lon="9.658420548874107"><ele>8.0</ele><time>2026-04-30T07:48:39.807Z</time></trkpt><trkpt lat="40.80982703920682" lon="9.658363969052411"><ele>8.0</ele><time>2026-04-30T07:48:40.807Z</time></trkpt><trkpt lat="40.809597421740946" lon="9.65827864866645"><ele>8.0</ele><time>2026-04-30T07:48:41.807Z</time></trkpt><trkpt lat="40.809371898718595" lon="9.658199986670915"><ele>8.0</ele><time>2026-04-30T07:48:42.807Z</time></trkpt><trkpt lat="40.80915144307196" lon="9.658126572285918"><ele>7.0</ele><time>2026-04-30T07:48:43.807Z</time></trkpt><trkpt lat="40.80893085806328" lon="9.658050853332101"><ele>6.0</ele><time>2026-04-30T07:48:44.807Z</time></trkpt><trkpt lat="40.80871363053195" lon="9.657981443864827"><ele>6.0</ele><time>2026-04-30T07:48:45.807Z</time></trkpt><trkpt lat="40.80849804530384" lon="9.657906673099605"><ele>6.0</ele><time>2026-04-30T07:48:46.807Z</time></trkpt><trkpt lat="40.808285326762736" lon="9.657835675138985"><ele>6.0</ele><time>2026-04-30T07:48:47.807Z</time></trkpt><trkpt lat="40.80808035421327" lon="9.65776728518278"><ele>5.666666666666667</ele><time>2026-04-30T07:48:48.807Z</time></trkpt><trkpt lat="40.807882519622304" lon="9.65770089040622"><ele>5.333333333333334</ele><time>2026-04-30T07:48:49.807Z</time></trkpt><trkpt lat="40.80769683293835" lon="9.657632671554934"><ele>5.0</ele><time>2026-04-30T07:48:50.807Z</time></trkpt><trkpt lat="40.807515969963546" lon="9.6575741071348"><ele>4.333333333333334</ele><time>2026-04-30T07:48:51.807Z</time></trkpt><trkpt lat="40.80734798642457" lon="9.657524019030957"><ele>3.666666666666667</ele><time>2026-04-30T07:48:52.807Z</time></trkpt><trkpt lat="40.807186357724476" lon="9.657469788659247"><ele>3.0</ele><time>2026-04-30T07:48:53.807Z</time></trkpt><trkpt lat="40.8070323569076" lon="9.657419566041574"><ele>3.0</ele><time>2026-04-30T07:48:54.807Z</time></trkpt><trkpt lat="40.80688247757065" lon="9.657370523281585"><ele>3.0</ele><time>2026-04-30T07:48:55.807Z</time></trkpt><trkpt lat="40.806722626759345" lon="9.657314868935359"><ele>3.0</ele><time>2026-04-30T07:48:56.807Z</time></trkpt><trkpt lat="40.80655878359738" lon="9.657260544175232"><ele>2.3333333333333335</ele><time>2026-04-30T07:48:57.807Z</time></trkpt><trkpt lat="40.80639025911543" lon="9.65720282315361"><ele>1.6666666666666665</ele><time>2026-04-30T07:48:58.807Z</time></trkpt><trkpt lat="40.8062182831981" lon="9.657145981817603"><ele>1.0</ele><time>2026-04-30T07:48:59.809Z</time></trkpt><trkpt lat="40.806043080780704" lon="9.657084189683546"><ele>0.6666666666666666</ele><time>2026-04-30T07:49:00.808Z</time></trkpt><trkpt lat="40.805865688875656" lon="9.657029640263168"><ele>0.3333333333333333</ele><time>2026-04-30T07:49:01.808Z</time></trkpt><trkpt lat="40.80568367008962" lon="9.656969218546736"><ele>0.0</ele><time>2026-04-30T07:49:02.809Z</time></trkpt><trkpt lat="40.8054985401975" lon="9.656909901719393"><ele>0.0</ele><time>2026-04-30T07:49:03.808Z</time></trkpt><trkpt lat="40.80531002804573" lon="9.65684972940387"><ele>0.0</ele><time>2026-04-30T07:49:04.808Z</time></trkpt><trkpt lat="40.80512100751304" lon="9.656787311557496"><ele>0.0</ele><time>2026-04-30T07:49:05.808Z</time></trkpt><trkpt lat="40.80492850820432" lon="9.656721614022652"><ele>-0.3333333333333333</ele><time>2026-04-30T07:49:06.809Z</time></trkpt><trkpt lat="40.80473686069977" lon="9.656651090522812"><ele>-0.6666666666666666</ele><time>2026-04-30T07:49:07.809Z</time></trkpt><trkpt lat="40.80455099186133" lon="9.6565835036089"><ele>-1.0</ele><time>2026-04-30T07:49:08.808Z</time></trkpt><trkpt lat="40.804364328506104" lon="9.656519854701427"><ele>-0.3333333333333333</ele><time>2026-04-30T07:49:09.808Z</time></trkpt><trkpt lat="40.80417310794883" lon="9.656463098105927"><ele>0.3333333333333333</ele><time>2026-04-30T07:49:10.808Z</time></trkpt><trkpt lat="40.80398664499232" lon="9.656418926007477"><ele>1.0</ele><time>2026-04-30T07:49:11.808Z</time></trkpt><trkpt lat="40.80380285361536" lon="9.656393842082116"><ele>1.0</ele><time>2026-04-30T07:49:12.808Z</time></trkpt><trkpt lat="40.80362784166837" lon="9.656385792416495"><ele>1.0</ele><time>2026-04-30T07:49:13.808Z</time></trkpt><trkpt lat="40.80345331734446" lon="9.656371938509016"><ele>1.0</ele><time>2026-04-30T07:49:14.808Z</time></trkpt><trkpt lat="40.80328042991709" lon="9.656354958266084"><ele>0.6666666666666666</ele><time>2026-04-30T07:49:15.808Z</time></trkpt><trkpt lat="40.80311037417885" lon="9.656336071797268"><ele>0.3333333333333333</ele><time>2026-04-30T07:49:16.808Z</time></trkpt><trkpt lat="40.80293921324184" lon="9.656319242837013"><ele>0.0</ele><time>2026-04-30T07:49:17.808Z</time></trkpt><trkpt lat="40.80276808417138" lon="9.656308648367151"><ele>0.3333333333333333</ele><time>2026-04-30T07:49:18.808Z</time></trkpt><trkpt lat="40.80259272043153" lon="9.656291210080823"><ele>0.6666666666666666</ele><time>2026-04-30T07:49:19.808Z</time></trkpt><trkpt lat="40.80241913519716" lon="9.656276385768374"><ele>1.0</ele><time>2026-04-30T07:49:20.807Z</time></trkpt><trkpt lat="40.802249984723304" lon="9.656262486220617"><ele>1.0</ele><time>2026-04-30T07:49:21.807Z</time></trkpt><trkpt lat="40.80207638856296" lon="9.656248998308007"><ele>1.0</ele><time>2026-04-30T07:49:22.807Z</time></trkpt><trkpt lat="40.801900353767756" lon="9.656234383175878"><ele>1.0</ele><time>2026-04-30T07:49:23.807Z</time></trkpt><trkpt lat="40.80172721000235" lon="9.656221327482832"><ele>1.3333333333333333</ele><time>2026-04-30T07:49:24.807Z</time></trkpt><trkpt lat="40.80155108665215" lon="9.656202560981857"><ele>1.6666666666666665</ele><time>2026-04-30T07:49:25.807Z</time></trkpt><trkpt lat="40.801381306644636" lon="9.656185667008776"><ele>2.0</ele><time>2026-04-30T07:49:26.807Z</time></trkpt><trkpt lat="40.80122074830228" lon="9.656170375847337"><ele>2.0</ele><time>2026-04-30T07:49:27.807Z</time></trkpt><trkpt lat="40.80105563163406" lon="9.656153023531115"><ele>2.0</ele><time>2026-04-30T07:49:28.807Z</time></trkpt><trkpt lat="40.80088712636248" lon="9.656138423901401"><ele>2.0</ele><time>2026-04-30T07:49:29.807Z</time></trkpt><trkpt lat="40.800720516131946" lon="9.656127611868497"><ele>1.6666666666666665</ele><time>2026-04-30T07:49:30.807Z</time></trkpt><trkpt lat="40.80054813648308" lon="9.65611306022154"><ele>1.3333333333333333</ele><time>2026-04-30T07:49:31.807Z</time></trkpt><trkpt lat="40.80037439247606" lon="9.656097170492455"><ele>1.0</ele><time>2026-04-30T07:49:32.807Z</time></trkpt><trkpt lat="40.80019937996503" lon="9.656083912185483"><ele>1.0</ele><time>2026-04-30T07:49:33.807Z</time></trkpt><trkpt lat="40.800024086027" lon="9.656064720642798"><ele>1.0</ele><time>2026-04-30T07:49:34.807Z</time></trkpt><trkpt lat="40.799852060515185" lon="9.656050517874576"><ele>1.0</ele><time>2026-04-30T07:49:35.807Z</time></trkpt><trkpt lat="40.79968531935685" lon="9.656038677547249"><ele>1.0</ele><time>2026-04-30T07:49:36.807Z</time></trkpt><trkpt lat="40.79951356143315" lon="9.656020555946842"><ele>1.0</ele><time>2026-04-30T07:49:37.807Z</time></trkpt><trkpt lat="40.799342901484714" lon="9.656003885034222"><ele>1.0</ele><time>2026-04-30T07:49:38.807Z</time></trkpt><trkpt lat="40.7991719310382" lon="9.655986768469901"><ele>1.3333333333333333</ele><time>2026-04-30T07:49:39.807Z</time></trkpt><trkpt lat="40.798999286914345" lon="9.655970977632055"><ele>1.6666666666666665</ele><time>2026-04-30T07:49:40.807Z</time></trkpt><trkpt lat="40.79882882454723" lon="9.655958253805716"><ele>2.0</ele><time>2026-04-30T07:49:41.807Z</time></trkpt><trkpt lat="40.79865550447214" lon="9.655944371964493"><ele>2.0</ele><time>2026-04-30T07:49:42.807Z</time></trkpt><trkpt lat="40.79848456260353" lon="9.655925600203195"><ele>2.0</ele><time>2026-04-30T07:49:43.807Z</time></trkpt><trkpt lat="40.7983070897244" lon="9.655907803712362"><ele>2.0</ele><time>2026-04-30T07:49:44.806Z</time></trkpt><trkpt lat="40.79812719086017" lon="9.655890951827253"><ele>2.0</ele><time>2026-04-30T07:49:45.806Z</time></trkpt><trkpt lat="40.797947608607885" lon="9.655876574993762"><ele>2.0</ele><time>2026-04-30T07:49:46.806Z</time></trkpt><trkpt lat="40.79777025490201" lon="9.655865711319457"><ele>2.0</ele><time>2026-04-30T07:49:47.806Z</time></trkpt><trkpt lat="40.797586622565234" lon="9.655849320970239"><ele>1.6666666666666665</ele><time>2026-04-30T07:49:48.806Z</time></trkpt><trkpt lat="40.797401643460766" lon="9.655833968297369"><ele>1.3333333333333333</ele><time>2026-04-30T07:49:49.806Z</time></trkpt><trkpt lat="40.79722214590691" lon="9.655823227521164"><ele>1.0</ele><time>2026-04-30T07:49:50.806Z</time></trkpt><trkpt lat="40.797042759495746" lon="9.655801797459617"><ele>1.0</ele><time>2026-04-30T07:49:51.806Z</time></trkpt><trkpt lat="40.796882781456326" lon="9.655794283902193"><ele>1.0</ele><time>2026-04-30T07:49:52.806Z</time></trkpt><trkpt lat="40.796726234609764" lon="9.655778317104087"><ele>1.0</ele><time>2026-04-30T07:49:53.806Z</time></trkpt><trkpt lat="40.79657226451979" lon="9.655767111668505"><ele>1.3333333333333333</ele><time>2026-04-30T07:49:54.806Z</time></trkpt><trkpt lat="40.796416274261716" lon="9.655755071832195"><ele>1.6666666666666665</ele><time>2026-04-30T07:49:55.806Z</time></trkpt><trkpt lat="40.79626246492474" lon="9.655740131007493"><ele>2.0</ele><time>2026-04-30T07:49:56.806Z</time></trkpt><trkpt lat="40.79610632389458" lon="9.655727375561733"><ele>1.6666666666666665</ele><time>2026-04-30T07:49:57.806Z</time></trkpt><trkpt lat="40.79594232176881" lon="9.655722324015318"><ele>1.3333333333333333</ele><time>2026-04-30T07:49:58.806Z</time></trkpt><trkpt lat="40.79577529419369" lon="9.655725920941832"><ele>1.0</ele><time>2026-04-30T07:49:59.806Z</time></trkpt><trkpt lat="40.79560342259013" lon="9.655715115738404"><ele>1.0</ele><time>2026-04-30T07:50:00.806Z</time></trkpt><trkpt lat="40.79543054401506" lon="9.655735442789068"><ele>1.0</ele><time>2026-04-30T07:50:01.806Z</time></trkpt><trkpt lat="40.79525695656127" lon="9.655756204402973"><ele>1.0</ele><time>2026-04-30T07:50:02.806Z</time></trkpt><trkpt lat="40.79508060209708" lon="9.655778650694426"><ele>1.3333333333333333</ele><time>2026-04-30T07:50:03.806Z</time></trkpt><trkpt lat="40.79490336448147" lon="9.655796413436585"><ele>1.6666666666666665</ele><time>2026-04-30T07:50:04.806Z</time></trkpt><trkpt lat="40.79473269319713" lon="9.655814107919278"><ele>2.0</ele><time>2026-04-30T07:50:05.806Z</time></trkpt><trkpt lat="40.794574762116525" lon="9.655832683615488"><ele>2.0</ele><time>2026-04-30T07:50:06.806Z</time></trkpt><trkpt lat="40.79442193527445" lon="9.655847102517733"><ele>2.0</ele><time>2026-04-30T07:50:07.805Z</time></trkpt><trkpt lat="40.79426913302672" lon="9.655862433789293"><ele>2.0</ele><time>2026-04-30T07:50:08.805Z</time></trkpt><trkpt lat="40.79411402155759" lon="9.655880053887287"><ele>2.6666666666666665</ele><time>2026-04-30T07:50:09.805Z</time></trkpt><trkpt lat="40.79395936846836" lon="9.655895954970543"><ele>3.333333333333333</ele><time>2026-04-30T07:50:10.805Z</time></trkpt><trkpt lat="40.79380265652778" lon="9.65591022650144"><ele>4.0</ele><time>2026-04-30T07:50:11.805Z</time></trkpt><trkpt lat="40.793643171266616" lon="9.655928055555776"><ele>3.6666666666666665</ele><time>2026-04-30T07:50:12.805Z</time></trkpt><trkpt lat="40.79348897382437" lon="9.65594911875054"><ele>3.333333333333333</ele><time>2026-04-30T07:50:13.805Z</time></trkpt><trkpt lat="40.79333191624455" lon="9.655962911254683"><ele>3.0</ele><time>2026-04-30T07:50:14.805Z</time></trkpt><trkpt lat="40.793171939643194" lon="9.65597518414577"><ele>3.0</ele><time>2026-04-30T07:50:15.805Z</time></trkpt><trkpt lat="40.79301494788586" lon="9.655996539007909"><ele>3.0</ele><time>2026-04-30T07:50:16.805Z</time></trkpt><trkpt lat="40.79285092538601" lon="9.656010017198902"><ele>3.0</ele><time>2026-04-30T07:50:17.805Z</time></trkpt><trkpt lat="40.79269259985156" lon="9.656027027507168"><ele>2.6666666666666665</ele><time>2026-04-30T07:50:18.805Z</time></trkpt><trkpt lat="40.7925318153438" lon="9.656045084524642"><ele>2.333333333333333</ele><time>2026-04-30T07:50:19.805Z</time></trkpt><trkpt lat="40.79237215553153" lon="9.656062956104313"><ele>2.0</ele><time>2026-04-30T07:50:20.805Z</time></trkpt><trkpt lat="40.79220688382175" lon="9.656079095912201"><ele>2.0</ele><time>2026-04-30T07:50:21.805Z</time></trkpt><trkpt lat="40.79203953359265" lon="9.656099060509971"><ele>2.0</ele><time>2026-04-30T07:50:22.805Z</time></trkpt><trkpt lat="40.79187164200382" lon="9.656116514828222"><ele>2.0</ele><time>2026-04-30T07:50:23.805Z</time></trkpt><trkpt lat="40.79170435686712" lon="9.656130156360527"><ele>2.0</ele><time>2026-04-30T07:50:24.805Z</time></trkpt><trkpt lat="40.79153650797659" lon="9.656151359143994"><ele>2.0</ele><time>2026-04-30T07:50:25.805Z</time></trkpt><trkpt lat="40.79137139898523" lon="9.656170775963915"><ele>2.0</ele><time>2026-04-30T07:50:26.805Z</time></trkpt><trkpt lat="40.791206875338716" lon="9.656194777949612"><ele>2.0</ele><time>2026-04-30T07:50:27.805Z</time></trkpt><trkpt lat="40.7910485010648" lon="9.65622112179487"><ele>2.0</ele><time>2026-04-30T07:50:28.805Z</time></trkpt><trkpt lat="40.79089737544844" lon="9.656253189861054"><ele>2.0</ele><time>2026-04-30T07:50:29.805Z</time></trkpt><trkpt lat="40.79075472938243" lon="9.656283287488037"><ele>2.5</ele><time>2026-04-30T07:50:30.804Z</time></trkpt><trkpt lat="40.790620836864846" lon="9.656311517970687"><ele>3.0</ele><time>2026-04-30T07:50:31.804Z</time></trkpt><trkpt lat="40.79049037550249" lon="9.656344502705824"><ele>3.5</ele><time>2026-04-30T07:50:32.804Z</time></trkpt><trkpt lat="40.7903559930825" lon="9.656382814086944"><ele>4.0</ele><time>2026-04-30T07:50:33.804Z</time></trkpt><trkpt lat="40.790220522034375" lon="9.656421618490173"><ele>4.25</ele><time>2026-04-30T07:50:34.804Z</time></trkpt><trkpt lat="40.79008573840232" lon="9.656466537423363"><ele>4.5</ele><time>2026-04-30T07:50:35.804Z</time></trkpt><trkpt lat="40.78994445203359" lon="9.656510809484232"><ele>4.75</ele><time>2026-04-30T07:50:36.804Z</time></trkpt><trkpt lat="40.78980288361763" lon="9.656555752086136"><ele>5.0</ele><time>2026-04-30T07:50:37.804Z</time></trkpt><trkpt lat="40.78965803974988" lon="9.656603116361861"><ele>5.0</ele><time>2026-04-30T07:50:38.804Z</time></trkpt><trkpt lat="40.78950488725336" lon="9.656656071001724"><ele>5.0</ele><time>2026-04-30T07:50:39.804Z</time></trkpt><trkpt lat="40.78934722846384" lon="9.65670994665026"><ele>5.0</ele><time>2026-04-30T07:50:40.804Z</time></trkpt><trkpt lat="40.789191448486726" lon="9.656765713364011"><ele>3.666666666666667</ele><time>2026-04-30T07:50:41.804Z</time></trkpt><trkpt lat="40.78904540137023" lon="9.656816122655412"><ele>2.3333333333333335</ele><time>2026-04-30T07:50:42.804Z</time></trkpt><trkpt lat="40.78890104755529" lon="9.65686986161981"><ele>1.0</ele><time>2026-04-30T07:50:43.804Z</time></trkpt><trkpt lat="40.7887547006403" lon="9.656915931710758"><ele>1.0</ele><time>2026-04-30T07:50:44.804Z</time></trkpt><trkpt lat="40.78860448654525" lon="9.656959709330327"><ele>1.0</ele><time>2026-04-30T07:50:45.804Z</time></trkpt><trkpt lat="40.78845187062931" lon="9.65700682139205"><ele>1.0</ele><time>2026-04-30T07:50:46.804Z</time></trkpt><trkpt lat="40.788294483398865" lon="9.65705597199946"><ele>1.0</ele><time>2026-04-30T07:50:47.804Z</time></trkpt><trkpt lat="40.788132932766324" lon="9.657109266560633"><ele>1.0</ele><time>2026-04-30T07:50:48.804Z</time></trkpt><trkpt lat="40.787970571710495" lon="9.657163714065803"><ele>1.0</ele><time>2026-04-30T07:50:49.804Z</time></trkpt><trkpt lat="40.78780342136191" lon="9.657211263896185"><ele>0.6666666666666666</ele><time>2026-04-30T07:50:50.804Z</time></trkpt><trkpt lat="40.78763408369664" lon="9.657257531905318"><ele>0.3333333333333333</ele><time>2026-04-30T07:50:51.804Z</time></trkpt><trkpt lat="40.78746687373746" lon="9.65729847296101"><ele>0.0</ele><time>2026-04-30T07:50:52.804Z</time></trkpt><trkpt lat="40.78729534318047" lon="9.657311433774487"><ele>0.0</ele><time>2026-04-30T07:50:53.804Z</time></trkpt><trkpt lat="40.787131354734726" lon="9.657328261264762"><ele>0.0</ele><time>2026-04-30T07:50:54.803Z</time></trkpt><trkpt lat="40.78697324208712" lon="9.657343546447184"><ele>0.0</ele><time>2026-04-30T07:50:55.803Z</time></trkpt><trkpt lat="40.786828131903405" lon="9.657358826369052"><ele>0.0</ele><time>2026-04-30T07:50:56.803Z</time></trkpt><trkpt lat="40.78668875969329" lon="9.657376647118223"><ele>0.0</ele><time>2026-04-30T07:50:57.803Z</time></trkpt><trkpt lat="40.78655424183759" lon="9.657392745067806"><ele>0.0</ele><time>2026-04-30T07:50:58.803Z</time></trkpt><trkpt lat="40.78642129122966" lon="9.657408650244419"><ele>0.0</ele><time>2026-04-30T07:50:59.803Z</time></trkpt><trkpt lat="40.7862913122111" lon="9.657424430163791"><ele>0.0</ele><time>2026-04-30T07:51:00.803Z</time></trkpt><trkpt lat="40.78615900908715" lon="9.657441568786634"><ele>0.0</ele><time>2026-04-30T07:51:01.803Z</time></trkpt><trkpt lat="40.78602566269078" lon="9.657457733097958"><ele>0.0</ele><time>2026-04-30T07:51:02.803Z</time></trkpt><trkpt lat="40.78589362592669" lon="9.65747139989436"><ele>0.0</ele><time>2026-04-30T07:51:03.803Z</time></trkpt><trkpt lat="40.78575702009668" lon="9.657484009590318"><ele>0.5</ele><time>2026-04-30T07:51:04.803Z</time></trkpt><trkpt lat="40.785624422212074" lon="9.657491165039131"><ele>1.0</ele><time>2026-04-30T07:51:05.805Z</time></trkpt><trkpt lat="40.78549162720789" lon="9.657499629508848"><ele>1.5</ele><time>2026-04-30T07:51:06.805Z</time></trkpt><trkpt lat="40.78536367615935" lon="9.65750962432959"><ele>2.0</ele><time>2026-04-30T07:51:07.805Z</time></trkpt><trkpt lat="40.78524171802724" lon="9.657515153344384"><ele>1.9999999999999998</ele><time>2026-04-30T07:51:08.804Z</time></trkpt><trkpt lat="40.785130571307825" lon="9.657515706587729"><ele>2.0</ele><time>2026-04-30T07:51:09.805Z</time></trkpt><trkpt lat="40.78503604478907" lon="9.657520000136634"><ele>2.0</ele><time>2026-04-30T07:51:10.805Z</time></trkpt><trkpt lat="40.784961132251155" lon="9.657508322214285"><ele>2.0</ele><time>2026-04-30T07:51:11.805Z</time></trkpt><trkpt lat="40.78489157662999" lon="9.65750549609478"><ele>1.9999999999999998</ele><time>2026-04-30T07:51:12.804Z</time></trkpt><trkpt lat="40.784828699429625" lon="9.657493874977323"><ele>2.0</ele><time>2026-04-30T07:51:13.804Z</time></trkpt><trkpt lat="40.78476592937127" lon="9.657479423380655"><ele>1.9999999999999998</ele><time>2026-04-30T07:51:14.804Z</time></trkpt><trkpt lat="40.78469903230099" lon="9.657474542126517"><ele>2.0</ele><time>2026-04-30T07:51:15.804Z</time></trkpt><trkpt lat="40.78462518861103" lon="9.657473707628364"><ele>2.0</ele><time>2026-04-30T07:51:16.804Z</time></trkpt><trkpt lat="40.784544138515905" lon="9.657489550371531"><ele>2.0</ele><time>2026-04-30T07:51:17.804Z</time></trkpt><trkpt lat="40.78446241705022" lon="9.65751052437642"><ele>1.9999999999999998</ele><time>2026-04-30T07:51:18.805Z</time></trkpt><trkpt lat="40.784378092488595" lon="9.657527545672387"><ele>2.0</ele><time>2026-04-30T07:51:19.805Z</time></trkpt><trkpt lat="40.784296593190476" lon="9.657550417192535"><ele>2.0</ele><time>2026-04-30T07:51:20.805Z</time></trkpt><trkpt lat="40.784201399520086" lon="9.657568164099224"><ele>2.0</ele><time>2026-04-30T07:51:21.805Z</time></trkpt><trkpt lat="40.78409254226875" lon="9.657580163743294"><ele>2.0</ele><time>2026-04-30T07:51:22.805Z</time></trkpt><trkpt lat="40.78397645973216" lon="9.657582157418135"><ele>2.0</ele><time>2026-04-30T07:51:23.805Z</time></trkpt><trkpt lat="40.78387079784089" lon="9.657590026257738"><ele>2.0</ele><time>2026-04-30T07:51:24.805Z</time></trkpt><trkpt lat="40.7837745683402" lon="9.657595301455974"><ele>1.9999999999999998</ele><time>2026-04-30T07:51:25.805Z</time></trkpt><trkpt lat="40.78368142457294" lon="9.65759790174824"><ele>2.0</ele><time>2026-04-30T07:51:26.805Z</time></trkpt><trkpt lat="40.783599284676626" lon="9.657604018498601"><ele>2.0</ele><time>2026-04-30T07:51:27.804Z</time></trkpt><trkpt lat="40.78352329995641" lon="9.65761455957445"><ele>2.0</ele><time>2026-04-30T07:51:28.804Z</time></trkpt><trkpt lat="40.783452225080076" lon="9.65762270743502"><ele>1.9999999999999998</ele><time>2026-04-30T07:51:29.804Z</time></trkpt><trkpt lat="40.783383170640356" lon="9.657630191120154"><ele>2.0</ele><time>2026-04-30T07:51:30.804Z</time></trkpt><trkpt lat="40.78331641440899" lon="9.657639793026917"><ele>2.333333333333333</ele><time>2026-04-30T07:51:31.804Z</time></trkpt><trkpt lat="40.783239752098524" lon="9.657650239138587"><ele>2.6666666666666665</ele><time>2026-04-30T07:51:32.804Z</time></trkpt><trkpt lat="40.78314935805504" lon="9.657657593965332"><ele>3.0</ele><time>2026-04-30T07:51:33.804Z</time></trkpt><trkpt lat="40.78305127677856" lon="9.65766419157563"><ele>3.333333333333333</ele><time>2026-04-30T07:51:34.804Z</time></trkpt><trkpt lat="40.78297162854729" lon="9.657672181864841"><ele>3.6666666666666665</ele><time>2026-04-30T07:51:35.804Z</time></trkpt><trkpt lat="40.782876471387425" lon="9.657676699555564"><ele>4.0</ele><time>2026-04-30T07:51:37.804Z</time></trkpt><trkpt lat="40.78279286217345" lon="9.657683082532817"><ele>3.9999999999999996</ele><time>2026-04-30T07:51:39.804Z</time></trkpt><trkpt lat="40.782694466971456" lon="9.657693500455855"><ele>4.0</ele><time>2026-04-30T07:51:41.804Z</time></trkpt><trkpt lat="40.78257533055988" lon="9.657697611593326"><ele>4.0</ele><time>2026-04-30T07:51:43.804Z</time></trkpt><trkpt lat="40.78251058242565" lon="9.657705051579043"><ele>4.0</ele><time>2026-04-30T07:51:44.804Z</time></trkpt><trkpt lat="40.782436071126384" lon="9.657705079442298"><ele>3.9999999999999996</ele><time>2026-04-30T07:51:45.804Z</time></trkpt><trkpt lat="40.782367768820485" lon="9.657704007399165"><ele>4.0</ele><time>2026-04-30T07:51:46.804Z</time></trkpt><trkpt lat="40.78226561853603" lon="9.657708612130438"><ele>3.9999999999999996</ele><time>2026-04-30T07:51:48.804Z</time></trkpt><trkpt lat="40.78214612929898" lon="9.657720080091025"><ele>4.0</ele><time>2026-04-30T07:51:50.804Z</time></trkpt><trkpt lat="40.78208290680013" lon="9.657724598095633"><ele>4.0</ele><time>2026-04-30T07:51:51.803Z</time></trkpt><trkpt lat="40.781958597956184" lon="9.657730792639184"><ele>4.0</ele><time>2026-04-30T07:51:53.803Z</time></trkpt><trkpt lat="40.78188990404628" lon="9.657733458816029"><ele>3.9999999999999996</ele><time>2026-04-30T07:51:54.803Z</time></trkpt><trkpt lat="40.78182023539829" lon="9.657737944448685"><ele>4.0</ele><time>2026-04-30T07:51:55.803Z</time></trkpt><trkpt lat="40.78170841940471" lon="9.657743214272916"><ele>4.2</ele><time>2026-04-30T07:51:57.803Z</time></trkpt><trkpt lat="40.781593640881496" lon="9.657752560582043"><ele>4.4</ele><time>2026-04-30T07:51:59.803Z</time></trkpt><trkpt lat="40.78151708570407" lon="9.657759348647433"><ele>4.6</ele><time>2026-04-30T07:52:00.803Z</time></trkpt><trkpt lat="40.781433653315126" lon="9.657764602881663"><ele>4.8</ele><time>2026-04-30T07:52:01.803Z</time></trkpt><trkpt lat="40.78134503619753" lon="9.65776181724675"><ele>5.0</ele><time>2026-04-30T07:52:02.803Z</time></trkpt><trkpt lat="40.78125143914681" lon="9.657761647512983"><ele>5.0</ele><time>2026-04-30T07:52:03.803Z</time></trkpt><trkpt lat="40.78115937321546" lon="9.657761663882155"><ele>5.0</ele><time>2026-04-30T07:52:04.803Z</time></trkpt><trkpt lat="40.78106267431675" lon="9.657760624547072"><ele>5.0</ele><time>2026-04-30T07:52:05.803Z</time></trkpt><trkpt lat="40.78096978094415" lon="9.657757666456224"><ele>5.0</ele><time>2026-04-30T07:52:06.803Z</time></trkpt><trkpt lat="40.78087751023861" lon="9.657752686598693"><ele>5.0</ele><time>2026-04-30T07:52:07.804Z</time></trkpt><trkpt lat="40.78078037824489" lon="9.657741015147286"><ele>5.2</ele><time>2026-04-30T07:52:08.804Z</time></trkpt><trkpt lat="40.78068005204421" lon="9.657731666121332"><ele>5.4</ele><time>2026-04-30T07:52:09.805Z</time></trkpt><trkpt lat="40.78056927904526" lon="9.657710229180587"><ele>5.6</ele><time>2026-04-30T07:52:10.805Z</time></trkpt><trkpt lat="40.78045427707739" lon="9.65769313462582"><ele>5.8</ele><time>2026-04-30T07:52:11.805Z</time></trkpt><trkpt lat="40.780336981351475" lon="9.657673500638118"><ele>6.0</ele><time>2026-04-30T07:52:12.806Z</time></trkpt><trkpt lat="40.78021648316019" lon="9.657649743248017"><ele>6.25</ele><time>2026-04-30T07:52:13.806Z</time></trkpt><trkpt lat="40.780098784304016" lon="9.657623249171731"><ele>6.5</ele><time>2026-04-30T07:52:14.806Z</time></trkpt><trkpt lat="40.77998541469711" lon="9.657603450480224"><ele>6.75</ele><time>2026-04-30T07:52:15.807Z</time></trkpt><trkpt lat="40.77987127905831" lon="9.65757804497274"><ele>7.0</ele><time>2026-04-30T07:52:16.807Z</time></trkpt><trkpt lat="40.779754295603524" lon="9.657556865849994"><ele>7.0</ele><time>2026-04-30T07:52:17.807Z</time></trkpt><trkpt lat="40.779634207380376" lon="9.657530313430074"><ele>7.0</ele><time>2026-04-30T07:52:18.807Z</time></trkpt><trkpt lat="40.779512094274935" lon="9.657505015580021"><ele>7.0</ele><time>2026-04-30T07:52:19.808Z</time></trkpt><trkpt lat="40.77939181010572" lon="9.657479222608114"><ele>7.0</ele><time>2026-04-30T07:52:20.808Z</time></trkpt><trkpt lat="40.77927138117941" lon="9.657453232592996"><ele>7.0</ele><time>2026-04-30T07:52:21.808Z</time></trkpt><trkpt lat="40.77915215702796" lon="9.657433825993591"><ele>7.0</ele><time>2026-04-30T07:52:22.808Z</time></trkpt><trkpt lat="40.77903302848868" lon="9.657413030793048"><ele>7.0</ele><time>2026-04-30T07:52:23.808Z</time></trkpt><trkpt lat="40.77891732512468" lon="9.657389408556798"><ele>7.0</ele><time>2026-04-30T07:52:24.808Z</time></trkpt><trkpt lat="40.77880318279449" lon="9.657362527676005"><ele>7.0</ele><time>2026-04-30T07:52:25.809Z</time></trkpt><trkpt lat="40.778689138038374" lon="9.65733836691836"><ele>7.0</ele><time>2026-04-30T07:52:26.809Z</time></trkpt><trkpt lat="40.77857787111696" lon="9.657314419594359"><ele>7.0</ele><time>2026-04-30T07:52:27.809Z</time></trkpt><trkpt lat="40.778467496639855" lon="9.657292416494597"><ele>7.0</ele><time>2026-04-30T07:52:28.809Z</time></trkpt><trkpt lat="40.77835174512804" lon="9.657278428508983"><ele>7.25</ele><time>2026-04-30T07:52:29.809Z</time></trkpt><trkpt lat="40.77823690044973" lon="9.657255119937998"><ele>7.5</ele><time>2026-04-30T07:52:30.809Z</time></trkpt><trkpt lat="40.77811600806605" lon="9.65722727768388"><ele>7.75</ele><time>2026-04-30T07:52:31.809Z</time></trkpt><trkpt lat="40.77798809444614" lon="9.657199676967894"><ele>8.0</ele><time>2026-04-30T07:52:32.809Z</time></trkpt><trkpt lat="40.777858312622875" lon="9.657170368722447"><ele>8.0</ele><time>2026-04-30T07:52:33.809Z</time></trkpt><trkpt lat="40.77772711803041" lon="9.657146319084204"><ele>8.0</ele><time>2026-04-30T07:52:34.809Z</time></trkpt><trkpt lat="40.777597330523484" lon="9.657117438630426"><ele>8.0</ele><time>2026-04-30T07:52:35.809Z</time></trkpt><trkpt lat="40.77746898863679" lon="9.65709325625154"><ele>8.0</ele><time>2026-04-30T07:52:36.809Z</time></trkpt><trkpt lat="40.77734033798769" lon="9.657066859811135"><ele>7.75</ele><time>2026-04-30T07:52:37.809Z</time></trkpt><trkpt lat="40.77722072515402" lon="9.657042557650623"><ele>7.5</ele><time>2026-04-30T07:52:38.809Z</time></trkpt><trkpt lat="40.777107629064815" lon="9.65702512957666"><ele>7.25</ele><time>2026-04-30T07:52:39.809Z</time></trkpt><trkpt lat="40.77699295430987" lon="9.656997883330416"><ele>7.0</ele><time>2026-04-30T07:52:40.809Z</time></trkpt><trkpt lat="40.77688956299066" lon="9.656976760478326"><ele>7.199999999999999</ele><time>2026-04-30T07:52:41.809Z</time></trkpt><trkpt lat="40.77680421676826" lon="9.656959479342396"><ele>7.3999999999999995</ele><time>2026-04-30T07:52:42.81Z</time></trkpt><trkpt lat="40.776735498212666" lon="9.656945443759506"><ele>7.6000000000000005</ele><time>2026-04-30T07:52:43.81Z</time></trkpt><trkpt lat="40.776627231815965" lon="9.65691484377568"><ele>7.800000000000001</ele><time>2026-04-30T07:52:45.81Z</time></trkpt><trkpt lat="40.77652885745218" lon="9.656871220671373"><ele>8.0</ele><time>2026-04-30T07:52:47.81Z</time></trkpt><trkpt lat="40.77643876270671" lon="9.6568269355625"><ele>8.4</ele><time>2026-04-30T07:52:49.81Z</time></trkpt><trkpt lat="40.77632630437996" lon="9.656806520038309"><ele>8.8</ele><time>2026-04-30T07:52:51.81Z</time></trkpt><trkpt lat="40.77624712942879" lon="9.656791942532063"><ele>9.2</ele><time>2026-04-30T07:52:52.809Z</time></trkpt><trkpt lat="40.7761551155365" lon="9.656776411016766"><ele>9.6</ele><time>2026-04-30T07:52:53.809Z</time></trkpt><trkpt lat="40.77605114885806" lon="9.656746186474019"><ele>10.0</ele><time>2026-04-30T07:52:54.809Z</time></trkpt><trkpt lat="40.77593331232338" lon="9.65670877018378"><ele>10.25</ele><time>2026-04-30T07:52:55.809Z</time></trkpt><trkpt lat="40.775808588343935" lon="9.65666769892096"><ele>10.5</ele><time>2026-04-30T07:52:56.809Z</time></trkpt><trkpt lat="40.775682981868925" lon="9.656626071206194"><ele>10.75</ele><time>2026-04-30T07:52:57.809Z</time></trkpt><trkpt lat="40.7755557292654" lon="9.656582461007444"><ele>11.0</ele><time>2026-04-30T07:52:58.809Z</time></trkpt><trkpt lat="40.77542275742918" lon="9.65653668701448"><ele>11.0</ele><time>2026-04-30T07:52:59.809Z</time></trkpt><trkpt lat="40.77528725367549" lon="9.65649504542134"><ele>11.0</ele><time>2026-04-30T07:53:00.809Z</time></trkpt><trkpt lat="40.77514867258188" lon="9.656451301267326"><ele>11.0</ele><time>2026-04-30T07:53:01.809Z</time></trkpt><trkpt lat="40.775011539119234" lon="9.656385746565496"><ele>11.0</ele><time>2026-04-30T07:53:02.809Z</time></trkpt><trkpt lat="40.774872855760165" lon="9.656340882067001"><ele>11.0</ele><time>2026-04-30T07:53:03.809Z</time></trkpt><trkpt lat="40.77473581136108" lon="9.656300399918186"><ele>11.0</ele><time>2026-04-30T07:53:04.809Z</time></trkpt><trkpt lat="40.77460288480031" lon="9.656254901875066"><ele>11.0</ele><time>2026-04-30T07:53:05.809Z</time></trkpt><trkpt lat="40.774469177368935" lon="9.656217661644154"><ele>11.0</ele><time>2026-04-30T07:53:06.809Z</time></trkpt><trkpt lat="40.77433173488186" lon="9.65617579764082"><ele>11.0</ele><time>2026-04-30T07:53:07.809Z</time></trkpt><trkpt lat="40.77419733002818" lon="9.656127960873484"><ele>11.0</ele><time>2026-04-30T07:53:08.809Z</time></trkpt><trkpt lat="40.77406388324777" lon="9.656081403166333"><ele>11.0</ele><time>2026-04-30T07:53:09.809Z</time></trkpt><trkpt lat="40.7739343521996" lon="9.65604113329253"><ele>11.0</ele><time>2026-04-30T07:53:10.809Z</time></trkpt><trkpt lat="40.7738081165836" lon="9.655996721299614"><ele>11.5</ele><time>2026-04-30T07:53:11.81Z</time></trkpt><trkpt lat="40.773680524816875" lon="9.655946846247263"><ele>12.0</ele><time>2026-04-30T07:53:12.81Z</time></trkpt><trkpt lat="40.773552076510036" lon="9.655885988136122"><ele>12.5</ele><time>2026-04-30T07:53:13.81Z</time></trkpt><trkpt lat="40.77341975594981" lon="9.655822201227537"><ele>13.0</ele><time>2026-04-30T07:53:14.81Z</time></trkpt><trkpt lat="40.773292117907815" lon="9.65575639947322"><ele>13.0</ele><time>2026-04-30T07:53:15.809Z</time></trkpt><trkpt lat="40.77316570342713" lon="9.65569190825907"><ele>13.0</ele><time>2026-04-30T07:53:16.809Z</time></trkpt><trkpt lat="40.77304124267112" lon="9.65562219196905"><ele>13.0</ele><time>2026-04-30T07:53:17.81Z</time></trkpt><trkpt lat="40.772914462113796" lon="9.655556721570214"><ele>13.0</ele><time>2026-04-30T07:53:18.81Z</time></trkpt><trkpt lat="40.77278622990791" lon="9.655492801585575"><ele>13.5</ele><time>2026-04-30T07:53:19.81Z</time></trkpt><trkpt lat="40.77265725872537" lon="9.655429662848594"><ele>14.0</ele><time>2026-04-30T07:53:20.81Z</time></trkpt><trkpt lat="40.77252347449664" lon="9.655354164457924"><ele>14.5</ele><time>2026-04-30T07:53:21.81Z</time></trkpt><trkpt lat="40.772386771357326" lon="9.65529146980743"><ele>15.0</ele><time>2026-04-30T07:53:22.81Z</time></trkpt><trkpt lat="40.77224004116766" lon="9.65520822432505"><ele>15.0</ele><time>2026-04-30T07:53:23.81Z</time></trkpt><trkpt lat="40.77208358625712" lon="9.655125302550891"><ele>15.0</ele><time>2026-04-30T07:53:24.809Z</time></trkpt><trkpt lat="40.77191986527906" lon="9.655044771068766"><ele>15.0</ele><time>2026-04-30T07:53:25.809Z</time></trkpt><trkpt lat="40.77175417649234" lon="9.654962741686226"><ele>15.666666666666668</ele><time>2026-04-30T07:53:26.809Z</time></trkpt><trkpt lat="40.771584583716596" lon="9.65487534563079"><ele>16.333333333333336</ele><time>2026-04-30T07:53:27.809Z</time></trkpt><trkpt lat="40.77141510526529" lon="9.654784416007235"><ele>17.0</ele><time>2026-04-30T07:53:28.809Z</time></trkpt><trkpt lat="40.77124332804132" lon="9.654696395259084"><ele>17.0</ele><time>2026-04-30T07:53:29.809Z</time></trkpt><trkpt lat="40.77106830328278" lon="9.65460560742349"><ele>17.0</ele><time>2026-04-30T07:53:30.809Z</time></trkpt><trkpt lat="40.770892254997904" lon="9.654516424525557"><ele>17.0</ele><time>2026-04-30T07:53:31.809Z</time></trkpt><trkpt lat="40.770727214730144" lon="9.654404127435637"><ele>18.0</ele><time>2026-04-30T07:53:32.809Z</time></trkpt><trkpt lat="40.770553309843976" lon="9.654315647246632"><ele>19.0</ele><time>2026-04-30T07:53:33.809Z</time></trkpt><trkpt lat="40.770386405447994" lon="9.654234591706338"><ele>20.0</ele><time>2026-04-30T07:53:34.809Z</time></trkpt><trkpt lat="40.770226071730114" lon="9.654185050218539"><ele>20.666666666666668</ele><time>2026-04-30T07:53:35.809Z</time></trkpt><trkpt lat="40.77005443497846" lon="9.654160177273326"><ele>21.333333333333332</ele><time>2026-04-30T07:53:36.809Z</time></trkpt><trkpt lat="40.76988291231942" lon="9.65417142453966"><ele>22.0</ele><time>2026-04-30T07:53:37.809Z</time></trkpt><trkpt lat="40.769697858011995" lon="9.654211519381741"><ele>22.0</ele><time>2026-04-30T07:53:38.809Z</time></trkpt><trkpt lat="40.769514023775876" lon="9.654250830069365"><ele>22.0</ele><time>2026-04-30T07:53:39.809Z</time></trkpt><trkpt lat="40.76932570265661" lon="9.654282986670113"><ele>22.0</ele><time>2026-04-30T07:53:40.809Z</time></trkpt><trkpt lat="40.769134931029456" lon="9.654305152365493"><ele>23.333333333333332</ele><time>2026-04-30T07:53:41.809Z</time></trkpt><trkpt lat="40.768943867874995" lon="9.654323406151244"><ele>24.666666666666664</ele><time>2026-04-30T07:53:42.809Z</time></trkpt><trkpt lat="40.768752394699256" lon="9.654346361894207"><ele>26.0</ele><time>2026-04-30T07:53:43.809Z</time></trkpt><trkpt lat="40.76855696756592" lon="9.654373410445709"><ele>27.0</ele><time>2026-04-30T07:53:44.809Z</time></trkpt><trkpt lat="40.76835934548946" lon="9.654390260556575"><ele>28.0</ele><time>2026-04-30T07:53:45.809Z</time></trkpt><trkpt lat="40.768164173554034" lon="9.65440940948359"><ele>29.0</ele><time>2026-04-30T07:53:46.809Z</time></trkpt><trkpt lat="40.76796951864061" lon="9.654431496247213"><ele>29.0</ele><time>2026-04-30T07:53:47.809Z</time></trkpt><trkpt lat="40.76776637671334" lon="9.654454619057882"><ele>29.0</ele><time>2026-04-30T07:53:48.808Z</time></trkpt><trkpt lat="40.76757375500276" lon="9.654475695828989"><ele>29.0</ele><time>2026-04-30T07:53:49.808Z</time></trkpt><trkpt lat="40.76737975346735" lon="9.654490694650027"><ele>29.666666666666664</ele><time>2026-04-30T07:53:50.808Z</time></trkpt><trkpt lat="40.76718429706676" lon="9.654493308029704"><ele>30.333333333333336</ele><time>2026-04-30T07:53:51.808Z</time></trkpt><trkpt lat="40.766995865588335" lon="9.65448370821968"><ele>31.0</ele><time>2026-04-30T07:53:52.808Z</time></trkpt><trkpt lat="40.76681657393496" lon="9.654465457203642"><ele>31.333333333333336</ele><time>2026-04-30T07:53:53.808Z</time></trkpt><trkpt lat="40.76664645192966" lon="9.654449739322532"><ele>31.666666666666664</ele><time>2026-04-30T07:53:54.808Z</time></trkpt><trkpt lat="40.766493554505324" lon="9.654426701088253"><ele>32.0</ele><time>2026-04-30T07:53:55.808Z</time></trkpt><trkpt lat="40.76635414164264" lon="9.654408814500828"><ele>32.0</ele><time>2026-04-30T07:53:56.808Z</time></trkpt><trkpt lat="40.76622558487907" lon="9.654396078991217"><ele>32.0</ele><time>2026-04-30T07:53:57.808Z</time></trkpt><trkpt lat="40.76610404530298" lon="9.654382661128038"><ele>32.0</ele><time>2026-04-30T07:53:58.808Z</time></trkpt><trkpt lat="40.76599008968371" lon="9.654374324405756"><ele>32.0</ele><time>2026-04-30T07:53:59.808Z</time></trkpt><trkpt lat="40.76587959297732" lon="9.65436127019137"><ele>32.0</ele><time>2026-04-30T07:54:00.808Z</time></trkpt><trkpt lat="40.7657739496391" lon="9.6543547776906"><ele>32.0</ele><time>2026-04-30T07:54:01.808Z</time></trkpt><trkpt lat="40.765673420849396" lon="9.654340050852015"><ele>32.0</ele><time>2026-04-30T07:54:02.808Z</time></trkpt><trkpt lat="40.76557385266786" lon="9.654329333849233"><ele>32.0</ele><time>2026-04-30T07:54:03.808Z</time></trkpt><trkpt lat="40.765481108317644" lon="9.654316991694081"><ele>32.0</ele><time>2026-04-30T07:54:04.808Z</time></trkpt><trkpt lat="40.76538981029147" lon="9.654306237751971"><ele>31.999999999999996</ele><time>2026-04-30T07:54:05.808Z</time></trkpt><trkpt lat="40.76529852440409" lon="9.65429831372517"><ele>32.0</ele><time>2026-04-30T07:54:06.808Z</time></trkpt><trkpt lat="40.76521519655817" lon="9.654290539187437"><ele>32.0</ele><time>2026-04-30T07:54:07.808Z</time></trkpt><trkpt lat="40.76514317351563" lon="9.6542834698441"><ele>32.0</ele><time>2026-04-30T07:54:08.808Z</time></trkpt><trkpt lat="40.765044982978715" lon="9.654272734442268"><ele>31.999999999999996</ele><time>2026-04-30T07:54:10.808Z</time></trkpt><trkpt lat="40.76497501296312" lon="9.654262288846857"><ele>32.0</ele><time>2026-04-30T07:54:13.807Z</time></trkpt><trkpt lat="40.76486760348782" lon="9.654247886030383"><ele>31.999999999999996</ele><time>2026-04-30T07:56:13.804Z</time></trkpt><trkpt lat="40.76476986276194" lon="9.654246035950571"><ele>32.0</ele><time>2026-04-30T07:56:15.804Z</time></trkpt><trkpt lat="40.7646912045373" lon="9.654236540031137"><ele>32.0</ele><time>2026-04-30T07:56:17.804Z</time></trkpt><trkpt lat="40.76462729182507" lon="9.654229911350491"><ele>32.0</ele><time>2026-04-30T07:56:19.804Z</time></trkpt><trkpt lat="40.764561372261085" lon="9.654240564401812"><ele>31.999999999999996</ele><time>2026-04-30T07:56:21.804Z</time></trkpt><trkpt lat="40.764459810066725" lon="9.654217209567417"><ele>32.0</ele><time>2026-04-30T07:56:23.804Z</time></trkpt><trkpt lat="40.764334337957315" lon="9.654230440093842"><ele>31.200000000000003</ele><time>2026-04-30T07:56:25.804Z</time></trkpt><trkpt lat="40.76425450667688" lon="9.654226209517672"><ele>30.400000000000002</ele><time>2026-04-30T07:56:26.804Z</time></trkpt><trkpt lat="40.76416467738025" lon="9.654216816220137"><ele>29.599999999999998</ele><time>2026-04-30T07:56:27.804Z</time></trkpt><trkpt lat="40.764069225059856" lon="9.654203855766085"><ele>28.799999999999997</ele><time>2026-04-30T07:56:28.804Z</time></trkpt><trkpt lat="40.763970351386476" lon="9.654192452254774"><ele>28.0</ele><time>2026-04-30T07:56:29.804Z</time></trkpt><trkpt lat="40.76388047605894" lon="9.654185173241224"><ele>28.000000000000004</ele><time>2026-04-30T07:56:30.804Z</time></trkpt><trkpt lat="40.76380177939815" lon="9.65417880758284"><ele>28.0</ele><time>2026-04-30T07:56:31.804Z</time></trkpt><trkpt lat="40.763723735424215" lon="9.654139315163324"><ele>28.0</ele><time>2026-04-30T07:56:32.804Z</time></trkpt><trkpt lat="40.76363690158925" lon="9.654130452643015"><ele>28.0</ele><time>2026-04-30T07:56:33.803Z</time></trkpt><trkpt lat="40.76354012766822" lon="9.654121320417525"><ele>28.000000000000004</ele><time>2026-04-30T07:56:34.803Z</time></trkpt><trkpt lat="40.76344538689402" lon="9.654111504929464"><ele>28.0</ele><time>2026-04-30T07:56:35.803Z</time></trkpt><trkpt lat="40.76335232058203" lon="9.654101598644806"><ele>27.4</ele><time>2026-04-30T07:56:36.803Z</time></trkpt><trkpt lat="40.76325600993905" lon="9.654091310137863"><ele>26.799999999999997</ele><time>2026-04-30T07:56:37.803Z</time></trkpt><trkpt lat="40.76315256636887" lon="9.654081384870768"><ele>26.2</ele><time>2026-04-30T07:56:38.803Z</time></trkpt><trkpt lat="40.76304909263826" lon="9.654070495749572"><ele>25.6</ele><time>2026-04-30T07:56:39.803Z</time></trkpt><trkpt lat="40.7629505284713" lon="9.65406019748607"><ele>25.0</ele><time>2026-04-30T07:56:40.803Z</time></trkpt><trkpt lat="40.76285642545347" lon="9.65405051486127"><ele>25.0</ele><time>2026-04-30T07:56:41.803Z</time></trkpt><trkpt lat="40.76276259016498" lon="9.654040859783166"><ele>25.0</ele><time>2026-04-30T07:56:42.803Z</time></trkpt><trkpt lat="40.76266352407839" lon="9.654050839109503"><ele>25.0</ele><time>2026-04-30T07:56:43.803Z</time></trkpt><trkpt lat="40.762557380192625" lon="9.654020019296443"><ele>25.0</ele><time>2026-04-30T07:56:44.803Z</time></trkpt><trkpt lat="40.76244201781031" lon="9.654001906874164"><ele>25.0</ele><time>2026-04-30T07:56:45.803Z</time></trkpt><trkpt lat="40.76231365512731" lon="9.653983153930236"><ele>26.0</ele><time>2026-04-30T07:56:46.803Z</time></trkpt><trkpt lat="40.76217838048818" lon="9.653969127051656"><ele>27.0</ele><time>2026-04-30T07:56:47.803Z</time></trkpt><trkpt lat="40.762037222971735" lon="9.653960036015668"><ele>28.0</ele><time>2026-04-30T07:56:48.803Z</time></trkpt><trkpt lat="40.761891162130674" lon="9.65394802904754"><ele>29.0</ele><time>2026-04-30T07:56:49.803Z</time></trkpt><trkpt lat="40.761743925895686" lon="9.653929409056602"><ele>29.25</ele><time>2026-04-30T07:56:50.803Z</time></trkpt><trkpt lat="40.76160426032679" lon="9.653903325288134"><ele>29.5</ele><time>2026-04-30T07:56:51.803Z</time></trkpt><trkpt lat="40.76147884310886" lon="9.653869378372312"><ele>29.75</ele><time>2026-04-30T07:56:52.803Z</time></trkpt><trkpt lat="40.76136144069783" lon="9.65382820621204"><ele>30.0</ele><time>2026-04-30T07:56:53.803Z</time></trkpt><trkpt lat="40.761246723452835" lon="9.6537816754481"><ele>30.0</ele><time>2026-04-30T07:56:54.803Z</time></trkpt><trkpt lat="40.76113995051483" lon="9.653732360498008"><ele>30.0</ele><time>2026-04-30T07:56:55.803Z</time></trkpt><trkpt lat="40.761044089911294" lon="9.653687013979333"><ele>30.0</ele><time>2026-04-30T07:56:56.803Z</time></trkpt><trkpt lat="40.76096090720789" lon="9.65363517915654"><ele>30.0</ele><time>2026-04-30T07:56:57.802Z</time></trkpt><trkpt lat="40.76088546805371" lon="9.653579171033021"><ele>30.0</ele><time>2026-04-30T07:56:58.802Z</time></trkpt><trkpt lat="40.76082385342141" lon="9.653511373384084"><ele>30.5</ele><time>2026-04-30T07:56:59.802Z</time></trkpt><trkpt lat="40.76077477862812" lon="9.653435342200316"><ele>31.0</ele><time>2026-04-30T07:57:00.802Z</time></trkpt><trkpt lat="40.76072708846211" lon="9.653360992577774"><ele>31.5</ele><time>2026-04-30T07:57:01.802Z</time></trkpt><trkpt lat="40.76066838425661" lon="9.653300775156316"><ele>32.0</ele><time>2026-04-30T07:57:02.802Z</time></trkpt><trkpt lat="40.760592666171085" lon="9.653265949780092"><ele>32.5</ele><time>2026-04-30T07:57:03.802Z</time></trkpt><trkpt lat="40.760502121574184" lon="9.65326230632958"><ele>33.0</ele><time>2026-04-30T07:57:04.802Z</time></trkpt><trkpt lat="40.76040203371494" lon="9.65327048673235"><ele>33.0</ele><time>2026-04-30T07:57:05.802Z</time></trkpt><trkpt lat="40.760282629532504" lon="9.653258401986308"><ele>33.0</ele><time>2026-04-30T07:57:06.802Z</time></trkpt><trkpt lat="40.76015675143283" lon="9.653181446954417"><ele>33.0</ele><time>2026-04-30T07:57:07.802Z</time></trkpt><trkpt lat="40.76000350686463" lon="9.65309378790629"><ele>33.0</ele><time>2026-04-30T07:57:08.802Z</time></trkpt><trkpt lat="40.75983410503103" lon="9.652996888014105"><ele>33.0</ele><time>2026-04-30T07:57:09.802Z</time></trkpt><trkpt lat="40.75966124324527" lon="9.652898007547714"><ele>33.0</ele><time>2026-04-30T07:57:10.802Z</time></trkpt><trkpt lat="40.759472386314116" lon="9.652812522014985"><ele>33.0</ele><time>2026-04-30T07:57:11.802Z</time></trkpt><trkpt lat="40.7592884633142" lon="9.652695957659086"><ele>33.666666666666664</ele><time>2026-04-30T07:57:12.802Z</time></trkpt><trkpt lat="40.75910799362415" lon="9.652596018532392"><ele>34.33333333333333</ele><time>2026-04-30T07:57:13.802Z</time></trkpt><trkpt lat="40.758925570745056" lon="9.65249398628573"><ele>35.0</ele><time>2026-04-30T07:57:14.802Z</time></trkpt><trkpt lat="40.75873982288766" lon="9.652391050964066"><ele>35.0</ele><time>2026-04-30T07:57:15.802Z</time></trkpt><trkpt lat="40.75855260660187" lon="9.652281294971747"><ele>35.0</ele><time>2026-04-30T07:57:16.802Z</time></trkpt><trkpt lat="40.75836830767333" lon="9.652177116232638"><ele>35.0</ele><time>2026-04-30T07:57:17.802Z</time></trkpt><trkpt lat="40.758187171297664" lon="9.652069217469176"><ele>35.0</ele><time>2026-04-30T07:57:18.802Z</time></trkpt><trkpt lat="40.758003509771235" lon="9.65196550272345"><ele>35.0</ele><time>2026-04-30T07:57:19.802Z</time></trkpt><trkpt lat="40.75782159668484" lon="9.65186270460895"><ele>35.0</ele><time>2026-04-30T07:57:20.802Z</time></trkpt><trkpt lat="40.75764460074079" lon="9.651765505433223"><ele>36.666666666666664</ele><time>2026-04-30T07:57:21.802Z</time></trkpt><trkpt lat="40.757472813889684" lon="9.651664073717884"><ele>38.333333333333336</ele><time>2026-04-30T07:57:22.801Z</time></trkpt><trkpt lat="40.75730012790023" lon="9.651559803295026"><ele>40.0</ele><time>2026-04-30T07:57:23.803Z</time></trkpt><trkpt lat="40.757124572909134" lon="9.65145777832684"><ele>40.0</ele><time>2026-04-30T07:57:24.803Z</time></trkpt><trkpt lat="40.75695595209396" lon="9.651344846863163"><ele>40.0</ele><time>2026-04-30T07:57:25.803Z</time></trkpt><trkpt lat="40.7568056024101" lon="9.651183708265103"><ele>40.0</ele><time>2026-04-30T07:57:26.802Z</time></trkpt><trkpt lat="40.75664333026642" lon="9.651041332479313"><ele>40.66666666666667</ele><time>2026-04-30T07:57:27.802Z</time></trkpt><trkpt lat="40.756491270145126" lon="9.650884002300979"><ele>41.333333333333336</ele><time>2026-04-30T07:57:28.802Z</time></trkpt><trkpt lat="40.75633544597428" lon="9.650725846338275"><ele>42.0</ele><time>2026-04-30T07:57:29.802Z</time></trkpt><trkpt lat="40.75617560004047" lon="9.650569224762796"><ele>41.0</ele><time>2026-04-30T07:57:30.802Z</time></trkpt><trkpt lat="40.75602131921554" lon="9.650436004747808"><ele>40.0</ele><time>2026-04-30T07:57:31.802Z</time></trkpt><trkpt lat="40.755851403478665" lon="9.650298220391772"><ele>39.0</ele><time>2026-04-30T07:57:32.802Z</time></trkpt><trkpt lat="40.7556710558709" lon="9.650198512685996"><ele>42.33333333333333</ele><time>2026-04-30T07:57:33.802Z</time></trkpt><trkpt lat="40.755485026310254" lon="9.650124547523937"><ele>45.666666666666664</ele><time>2026-04-30T07:57:34.802Z</time></trkpt><trkpt lat="40.75529599350132" lon="9.650062869211125"><ele>49.0</ele><time>2026-04-30T07:57:35.802Z</time></trkpt><trkpt lat="40.755104097493955" lon="9.650008724902317"><ele>49.0</ele><time>2026-04-30T07:57:36.802Z</time></trkpt><trkpt lat="40.75491031389713" lon="9.649943513010685"><ele>49.0</ele><time>2026-04-30T07:57:37.802Z</time></trkpt><trkpt lat="40.754723409639666" lon="9.649874296767507"><ele>49.0</ele><time>2026-04-30T07:57:38.802Z</time></trkpt><trkpt lat="40.75455760873026" lon="9.649736880603635"><ele>49.0</ele><time>2026-04-30T07:57:39.802Z</time></trkpt><trkpt lat="40.75439021484495" lon="9.649598891674515"><ele>49.0</ele><time>2026-04-30T07:57:40.802Z</time></trkpt><trkpt lat="40.754224864358584" lon="9.649453627370868"><ele>49.0</ele><time>2026-04-30T07:57:41.802Z</time></trkpt><trkpt lat="40.75406377848581" lon="9.649301831263587"><ele>50.0</ele><time>2026-04-30T07:57:42.802Z</time></trkpt><trkpt lat="40.753897616514635" lon="9.649152703484365"><ele>51.0</ele><time>2026-04-30T07:57:43.802Z</time></trkpt><trkpt lat="40.753727031464976" lon="9.648999840034097"><ele>52.0</ele><time>2026-04-30T07:57:44.802Z</time></trkpt><trkpt lat="40.75355103834246" lon="9.648847710306057"><ele>51.33333333333333</ele><time>2026-04-30T07:57:45.802Z</time></trkpt><trkpt lat="40.75337471256865" lon="9.648695300423864"><ele>50.66666666666667</ele><time>2026-04-30T07:57:46.802Z</time></trkpt><trkpt lat="40.75319956768644" lon="9.64854816212099"><ele>50.0</ele><time>2026-04-30T07:57:47.802Z</time></trkpt><trkpt lat="40.75302702724394" lon="9.648399534592048"><ele>50.0</ele><time>2026-04-30T07:57:48.802Z</time></trkpt><trkpt lat="40.75285994735422" lon="9.648260000706507"><ele>50.0</ele><time>2026-04-30T07:57:49.802Z</time></trkpt><trkpt lat="40.75269674718472" lon="9.648131521050491"><ele>50.0</ele><time>2026-04-30T07:57:50.802Z</time></trkpt><trkpt lat="40.75253307983599" lon="9.648007046791008"><ele>50.66666666666667</ele><time>2026-04-30T07:57:51.802Z</time></trkpt><trkpt lat="40.75237808369233" lon="9.647899921737242"><ele>51.33333333333333</ele><time>2026-04-30T07:57:52.802Z</time></trkpt><trkpt lat="40.75222492718394" lon="9.64779634714855"><ele>52.0</ele><time>2026-04-30T07:57:53.802Z</time></trkpt><trkpt lat="40.7520769365697" lon="9.64769194280257"><ele>53.0</ele><time>2026-04-30T07:57:54.801Z</time></trkpt><trkpt lat="40.75192817603052" lon="9.647595587515843"><ele>54.0</ele><time>2026-04-30T07:57:55.801Z</time></trkpt><trkpt lat="40.751790354221214" lon="9.64751091119656"><ele>55.0</ele><time>2026-04-30T07:57:56.801Z</time></trkpt><trkpt lat="40.75166162007872" lon="9.647429482454772"><ele>55.25</ele><time>2026-04-30T07:57:57.801Z</time></trkpt><trkpt lat="40.75153965055877" lon="9.647349439554887"><ele>55.5</ele><time>2026-04-30T07:57:58.801Z</time></trkpt><trkpt lat="40.75142744504325" lon="9.64727622096316"><ele>55.75</ele><time>2026-04-30T07:57:59.801Z</time></trkpt><trkpt lat="40.75132867856979" lon="9.647212692580615"><ele>56.0</ele><time>2026-04-30T07:58:00.801Z</time></trkpt><trkpt lat="40.751248896791616" lon="9.647163202688953"><ele>56.00000000000001</ele><time>2026-04-30T07:58:01.801Z</time></trkpt><trkpt lat="40.75119323018539" lon="9.647123322392185"><ele>56.0</ele><time>2026-04-30T07:58:02.801Z</time></trkpt><trkpt lat="40.7511145271556" lon="9.647069554066302"><ele>56.0</ele><time>2026-04-30T07:58:04.801Z</time></trkpt><trkpt lat="40.751048169840644" lon="9.647002568017873"><ele>56.0</ele><time>2026-04-30T07:58:56.799Z</time></trkpt><trkpt lat="40.75093533051337" lon="9.646950589492327"><ele>56.00000000000001</ele><time>2026-04-30T07:58:58.799Z</time></trkpt><trkpt lat="40.75087228459615" lon="9.646933769693907"><ele>56.0</ele><time>2026-04-30T07:58:59.799Z</time></trkpt><trkpt lat="40.7507645354151" lon="9.646956365282241"><ele>55.50000000000001</ele><time>2026-04-30T07:59:01.799Z</time></trkpt><trkpt lat="40.75064858796224" lon="9.646987579302538"><ele>55.0</ele><time>2026-04-30T07:59:03.799Z</time></trkpt><trkpt lat="40.750580806291644" lon="9.647018278128039"><ele>54.5</ele><time>2026-04-30T07:59:04.799Z</time></trkpt><trkpt lat="40.75051216260503" lon="9.647054963473439"><ele>54.0</ele><time>2026-04-30T07:59:05.799Z</time></trkpt><trkpt lat="40.750446934024595" lon="9.647094679214483"><ele>53.50000000000001</ele><time>2026-04-30T07:59:06.798Z</time></trkpt><trkpt lat="40.75038360741176" lon="9.647134707465662"><ele>53.0</ele><time>2026-04-30T07:59:07.798Z</time></trkpt><trkpt lat="40.750318932226605" lon="9.647176164208526"><ele>53.00000000000001</ele><time>2026-04-30T07:59:08.798Z</time></trkpt><trkpt lat="40.75024971017743" lon="9.64721918196464"><ele>53.0</ele><time>2026-04-30T07:59:09.798Z</time></trkpt><trkpt lat="40.7501741866011" lon="9.647256655894884"><ele>53.0</ele><time>2026-04-30T07:59:10.798Z</time></trkpt><trkpt lat="40.75009455464698" lon="9.64728751345738"><ele>53.0</ele><time>2026-04-30T07:59:11.798Z</time></trkpt><trkpt lat="40.750000961165675" lon="9.647288069242972"><ele>53.00000000000001</ele><time>2026-04-30T07:59:12.798Z</time></trkpt><trkpt lat="40.74989888477078" lon="9.647271634169494"><ele>53.0</ele><time>2026-04-30T07:59:13.798Z</time></trkpt><trkpt lat="40.74979079785568" lon="9.647244921184736"><ele>53.75</ele><time>2026-04-30T07:59:14.798Z</time></trkpt><trkpt lat="40.74967493554488" lon="9.647194957328121"><ele>54.5</ele><time>2026-04-30T07:59:15.798Z</time></trkpt><trkpt lat="40.749557324700255" lon="9.647149709774963"><ele>55.25</ele><time>2026-04-30T07:59:16.798Z</time></trkpt><trkpt lat="40.74944069914332" lon="9.647111967433544"><ele>56.0</ele><time>2026-04-30T07:59:17.798Z</time></trkpt><trkpt lat="40.74932256573467" lon="9.647078294000357"><ele>56.75</ele><time>2026-04-30T07:59:18.798Z</time></trkpt><trkpt lat="40.749198885219236" lon="9.647059254466292"><ele>57.5</ele><time>2026-04-30T07:59:19.798Z</time></trkpt><trkpt lat="40.74907035862867" lon="9.647055675960477"><ele>58.25</ele><time>2026-04-30T07:59:20.798Z</time></trkpt><trkpt lat="40.748938721095506" lon="9.64705184542761"><ele>59.0</ele><time>2026-04-30T07:59:21.798Z</time></trkpt><trkpt lat="40.748805695080634" lon="9.647044169447419"><ele>59.0</ele><time>2026-04-30T07:59:22.798Z</time></trkpt><trkpt lat="40.74866983370038" lon="9.64704329164584"><ele>59.0</ele><time>2026-04-30T07:59:23.798Z</time></trkpt><trkpt lat="40.74853600421705" lon="9.647037992051368"><ele>59.0</ele><time>2026-04-30T07:59:24.798Z</time></trkpt><trkpt lat="40.74839561729721" lon="9.647033211236177"><ele>59.0</ele><time>2026-04-30T07:59:25.798Z</time></trkpt><trkpt lat="40.748253616890175" lon="9.6470281250755"><ele>59.75</ele><time>2026-04-30T07:59:26.798Z</time></trkpt><trkpt lat="40.74811281474374" lon="9.647030755752395"><ele>60.5</ele><time>2026-04-30T07:59:27.798Z</time></trkpt><trkpt lat="40.74796962696036" lon="9.647027038696544"><ele>61.25</ele><time>2026-04-30T07:59:28.798Z</time></trkpt><trkpt lat="40.74782193553727" lon="9.647026351131649"><ele>62.0</ele><time>2026-04-30T07:59:29.799Z</time></trkpt><trkpt lat="40.747670367684535" lon="9.647022680366621"><ele>62.5</ele><time>2026-04-30T07:59:30.799Z</time></trkpt><trkpt lat="40.74751978020836" lon="9.647015727981675"><ele>63.0</ele><time>2026-04-30T07:59:31.799Z</time></trkpt><trkpt lat="40.74737479814746" lon="9.647010065527596"><ele>63.5</ele><time>2026-04-30T07:59:32.798Z</time></trkpt><trkpt lat="40.74724147211055" lon="9.647006666771114"><ele>64.0</ele><time>2026-04-30T07:59:33.799Z</time></trkpt><trkpt lat="40.74711338992845" lon="9.64700611110932"><ele>64.0</ele><time>2026-04-30T07:59:34.799Z</time></trkpt><trkpt lat="40.74700088062423" lon="9.647003231336813"><ele>64.0</ele><time>2026-04-30T07:59:35.799Z</time></trkpt><trkpt lat="40.74689102723939" lon="9.646999428306165"><ele>64.0</ele><time>2026-04-30T07:59:36.799Z</time></trkpt><trkpt lat="40.746778943197576" lon="9.647001355107529"><ele>64.0</ele><time>2026-04-30T07:59:37.799Z</time></trkpt><trkpt lat="40.74665635722508" lon="9.646999029414264"><ele>64.5</ele><time>2026-04-30T07:59:38.798Z</time></trkpt><trkpt lat="40.74652983297968" lon="9.646996128298852"><ele>65.0</ele><time>2026-04-30T07:59:39.798Z</time></trkpt><trkpt lat="40.74640217395095" lon="9.646990055187334"><ele>65.5</ele><time>2026-04-30T07:59:40.798Z</time></trkpt><trkpt lat="40.74627260694411" lon="9.64698632801767"><ele>66.0</ele><time>2026-04-30T07:59:41.798Z</time></trkpt><trkpt lat="40.74614246186869" lon="9.646987241714625"><ele>66.25</ele><time>2026-04-30T07:59:42.798Z</time></trkpt><trkpt lat="40.74600761336555" lon="9.646981826727341"><ele>66.5</ele><time>2026-04-30T07:59:43.798Z</time></trkpt><trkpt lat="40.74586502827871" lon="9.646982498974387"><ele>66.75</ele><time>2026-04-30T07:59:44.798Z</time></trkpt><trkpt lat="40.745719084019214" lon="9.646981532331814"><ele>67.0</ele><time>2026-04-30T07:59:45.798Z</time></trkpt><trkpt lat="40.745567206091344" lon="9.646974550187098"><ele>67.0</ele><time>2026-04-30T07:59:46.798Z</time></trkpt><trkpt lat="40.745413687560784" lon="9.646943754981205"><ele>67.0</ele><time>2026-04-30T07:59:47.798Z</time></trkpt><trkpt lat="40.745257015259014" lon="9.646895791149769"><ele>67.0</ele><time>2026-04-30T07:59:48.797Z</time></trkpt><trkpt lat="40.74510029643868" lon="9.646848893700117"><ele>69.0</ele><time>2026-04-30T07:59:49.797Z</time></trkpt><trkpt lat="40.74494284993761" lon="9.64679832711839"><ele>71.0</ele><time>2026-04-30T07:59:50.797Z</time></trkpt><trkpt lat="40.74478535309533" lon="9.646753111267882"><ele>73.0</ele><time>2026-04-30T07:59:51.797Z</time></trkpt><trkpt lat="40.74462349922062" lon="9.64670667044391"><ele>73.0</ele><time>2026-04-30T07:59:52.797Z</time></trkpt><trkpt lat="40.74446615032969" lon="9.64666065679787"><ele>73.0</ele><time>2026-04-30T07:59:53.797Z</time></trkpt><trkpt lat="40.7443076476865" lon="9.646628153727018"><ele>73.0</ele><time>2026-04-30T07:59:54.797Z</time></trkpt><trkpt lat="40.74414528715844" lon="9.646596464475463"><ele>73.66666666666666</ele><time>2026-04-30T07:59:55.797Z</time></trkpt><trkpt lat="40.74397705281982" lon="9.64657108439221"><ele>74.33333333333333</ele><time>2026-04-30T07:59:56.797Z</time></trkpt><trkpt lat="40.74381031635336" lon="9.646542999698855"><ele>75.0</ele><time>2026-04-30T07:59:57.797Z</time></trkpt><trkpt lat="40.74364852472369" lon="9.646520453687316"><ele>75.0</ele><time>2026-04-30T07:59:58.797Z</time></trkpt><trkpt lat="40.743486556747676" lon="9.646497828520536"><ele>75.0</ele><time>2026-04-30T07:59:59.797Z</time></trkpt><trkpt lat="40.74332579053553" lon="9.646477235479932"><ele>75.0</ele><time>2026-04-30T08:00:00.797Z</time></trkpt><trkpt lat="40.743160702613" lon="9.64645143568455"><ele>75.0</ele><time>2026-04-30T08:00:01.797Z</time></trkpt><trkpt lat="40.74299385684064" lon="9.646428912280363"><ele>75.0</ele><time>2026-04-30T08:00:02.797Z</time></trkpt><trkpt lat="40.74282981718532" lon="9.64640048269859"><ele>75.0</ele><time>2026-04-30T08:00:03.797Z</time></trkpt><trkpt lat="40.742667398726496" lon="9.646379101429865"><ele>76.66666666666667</ele><time>2026-04-30T08:00:04.797Z</time></trkpt><trkpt lat="40.742500923719724" lon="9.646350734577434"><ele>78.33333333333334</ele><time>2026-04-30T08:00:05.797Z</time></trkpt><trkpt lat="40.74233823075548" lon="9.646341065174036"><ele>80.0</ele><time>2026-04-30T08:00:06.797Z</time></trkpt><trkpt lat="40.74216558881811" lon="9.646314781868517"><ele>80.0</ele><time>2026-04-30T08:00:07.797Z</time></trkpt><trkpt lat="40.741993347594565" lon="9.646286875262046"><ele>80.0</ele><time>2026-04-30T08:00:08.797Z</time></trkpt><trkpt lat="40.741820887779056" lon="9.646254412980598"><ele>80.0</ele><time>2026-04-30T08:00:09.797Z</time></trkpt><trkpt lat="40.741651632358284" lon="9.6462311889659"><ele>81.0</ele><time>2026-04-30T08:00:10.797Z</time></trkpt><trkpt lat="40.74148045707786" lon="9.64620701699375"><ele>82.0</ele><time>2026-04-30T08:00:11.797Z</time></trkpt><trkpt lat="40.74130575421145" lon="9.64618262641059"><ele>83.0</ele><time>2026-04-30T08:00:12.797Z</time></trkpt><trkpt lat="40.741127783071434" lon="9.646159901995869"><ele>83.66666666666667</ele><time>2026-04-30T08:00:13.796Z</time></trkpt><trkpt lat="40.74095002808843" lon="9.646131983284636"><ele>84.33333333333333</ele><time>2026-04-30T08:00:14.796Z</time></trkpt><trkpt lat="40.74077682012843" lon="9.646112006884964"><ele>85.0</ele><time>2026-04-30T08:00:15.796Z</time></trkpt><trkpt lat="40.74060084249939" lon="9.646087141756986"><ele>87.66666666666666</ele><time>2026-04-30T08:00:16.796Z</time></trkpt><trkpt lat="40.74042222931979" lon="9.646060920294117"><ele>90.33333333333333</ele><time>2026-04-30T08:00:17.796Z</time></trkpt><trkpt lat="40.74024388609418" lon="9.646040659234474"><ele>93.0</ele><time>2026-04-30T08:00:18.796Z</time></trkpt><trkpt lat="40.74005993437861" lon="9.64603954378568"><ele>93.0</ele><time>2026-04-30T08:00:19.796Z</time></trkpt><trkpt lat="40.73987245564999" lon="9.646081931750663"><ele>93.0</ele><time>2026-04-30T08:00:20.796Z</time></trkpt><trkpt lat="40.739691895319865" lon="9.646155289612693"><ele>93.0</ele><time>2026-04-30T08:00:21.796Z</time></trkpt><trkpt lat="40.73951382161261" lon="9.646239015974293"><ele>92.0</ele><time>2026-04-30T08:00:22.796Z</time></trkpt><trkpt lat="40.73932890226094" lon="9.646320647153235"><ele>91.0</ele><time>2026-04-30T08:00:23.796Z</time></trkpt><trkpt lat="40.73914290015308" lon="9.64640343394791"><ele>90.0</ele><time>2026-04-30T08:00:24.796Z</time></trkpt><trkpt lat="40.73895090693993" lon="9.6464800830596"><ele>90.0</ele><time>2026-04-30T08:00:25.796Z</time></trkpt><trkpt lat="40.738760635911" lon="9.646566433675142"><ele>90.0</ele><time>2026-04-30T08:00:26.796Z</time></trkpt><trkpt lat="40.7385665582871" lon="9.646646272685945"><ele>90.0</ele><time>2026-04-30T08:00:27.796Z</time></trkpt><trkpt lat="40.73836992957124" lon="9.646725956913496"><ele>91.0</ele><time>2026-04-30T08:00:28.796Z</time></trkpt><trkpt lat="40.73817287090782" lon="9.646813463853103"><ele>92.0</ele><time>2026-04-30T08:00:29.796Z</time></trkpt><trkpt lat="40.737975286051245" lon="9.646898993322578"><ele>93.0</ele><time>2026-04-30T08:00:30.796Z</time></trkpt><trkpt lat="40.73777561233228" lon="9.64698482145941"><ele>96.33333333333334</ele><time>2026-04-30T08:00:31.796Z</time></trkpt><trkpt lat="40.73758363271295" lon="9.647075454564888"><ele>99.66666666666667</ele><time>2026-04-30T08:00:32.796Z</time></trkpt><trkpt lat="40.737396629823415" lon="9.64717658348107"><ele>103.0</ele><time>2026-04-30T08:00:33.796Z</time></trkpt><trkpt lat="40.7372060737706" lon="9.647292868714382"><ele>103.0</ele><time>2026-04-30T08:00:34.796Z</time></trkpt><trkpt lat="40.73702369068531" lon="9.64740643513312"><ele>103.0</ele><time>2026-04-30T08:00:35.796Z</time></trkpt><trkpt lat="40.73685062520893" lon="9.647509455623863"><ele>103.0</ele><time>2026-04-30T08:00:36.796Z</time></trkpt><trkpt lat="40.73668342110085" lon="9.647604616752197"><ele>103.33333333333334</ele><time>2026-04-30T08:00:37.796Z</time></trkpt><trkpt lat="40.736531758474605" lon="9.647672165960293"><ele>103.66666666666666</ele><time>2026-04-30T08:00:38.795Z</time></trkpt><trkpt lat="40.73638719893815" lon="9.647704557323593"><ele>104.0</ele><time>2026-04-30T08:00:39.795Z</time></trkpt><trkpt lat="40.73623545999764" lon="9.647718831737611"><ele>104.0</ele><time>2026-04-30T08:00:40.795Z</time></trkpt><trkpt lat="40.73607904880998" lon="9.64767537523073"><ele>104.0</ele><time>2026-04-30T08:00:41.795Z</time></trkpt><trkpt lat="40.735902793135764" lon="9.64766072935267"><ele>104.0</ele><time>2026-04-30T08:00:42.795Z</time></trkpt><trkpt lat="40.735704936234924" lon="9.647657251801071"><ele>101.33333333333333</ele><time>2026-04-30T08:00:43.795Z</time></trkpt><trkpt lat="40.735493367351076" lon="9.647654208156059"><ele>98.66666666666666</ele><time>2026-04-30T08:00:44.795Z</time></trkpt><trkpt lat="40.7352798432877" lon="9.647654617738414"><ele>96.0</ele><time>2026-04-30T08:00:45.795Z</time></trkpt><trkpt lat="40.73505834266401" lon="9.647675110675173"><ele>96.0</ele><time>2026-04-30T08:00:46.795Z</time></trkpt><trkpt lat="40.73484221147585" lon="9.64773350255774"><ele>96.0</ele><time>2026-04-30T08:00:47.795Z</time></trkpt><trkpt lat="40.73463734937054" lon="9.647773540204156"><ele>96.0</ele><time>2026-04-30T08:00:48.795Z</time></trkpt><trkpt lat="40.734445671181966" lon="9.647821599224969"><ele>93.0</ele><time>2026-04-30T08:00:49.795Z</time></trkpt><trkpt lat="40.73426348491442" lon="9.647881460467406"><ele>90.0</ele><time>2026-04-30T08:00:50.795Z</time></trkpt><trkpt lat="40.73408439150705" lon="9.647972647934308"><ele>87.0</ele><time>2026-04-30T08:00:51.795Z</time></trkpt><trkpt lat="40.73391767986198" lon="9.648104990311063"><ele>87.0</ele><time>2026-04-30T08:00:52.795Z</time></trkpt><trkpt lat="40.73375595357905" lon="9.648263200601464"><ele>87.0</ele><time>2026-04-30T08:00:53.795Z</time></trkpt><trkpt lat="40.73359072687068" lon="9.648424919244343"><ele>87.0</ele><time>2026-04-30T08:00:54.795Z</time></trkpt><trkpt lat="40.733411521232746" lon="9.648582690838607"><ele>86.33333333333333</ele><time>2026-04-30T08:00:55.795Z</time></trkpt><trkpt lat="40.73323395513878" lon="9.648737695898996"><ele>85.66666666666666</ele><time>2026-04-30T08:00:56.795Z</time></trkpt><trkpt lat="40.73305333429723" lon="9.648898997792957"><ele>85.0</ele><time>2026-04-30T08:00:57.795Z</time></trkpt><trkpt lat="40.732881520830006" lon="9.649052741818997"><ele>83.33333333333333</ele><time>2026-04-30T08:00:58.795Z</time></trkpt><trkpt lat="40.73271837596168" lon="9.649190156458653"><ele>81.66666666666667</ele><time>2026-04-30T08:00:59.795Z</time></trkpt><trkpt lat="40.732557436003724" lon="9.649312090217213"><ele>80.0</ele><time>2026-04-30T08:01:00.795Z</time></trkpt><trkpt lat="40.73239312049544" lon="9.649403120281443"><ele>80.0</ele><time>2026-04-30T08:01:01.795Z</time></trkpt><trkpt lat="40.732211181410364" lon="9.6494180187045"><ele>80.0</ele><time>2026-04-30T08:01:02.795Z</time></trkpt><trkpt lat="40.73202614264816" lon="9.649417158401532"><ele>80.0</ele><time>2026-04-30T08:01:03.794Z</time></trkpt><trkpt lat="40.731838207366465" lon="9.64937847123346"><ele>78.33333333333334</ele><time>2026-04-30T08:01:04.794Z</time></trkpt><trkpt lat="40.73166327763253" lon="9.649330222749954"><ele>76.66666666666667</ele><time>2026-04-30T08:01:05.794Z</time></trkpt><trkpt lat="40.731496534281874" lon="9.649332201112376"><ele>75.0</ele><time>2026-04-30T08:01:06.794Z</time></trkpt><trkpt lat="40.731332499038004" lon="9.649362584154314"><ele>75.0</ele><time>2026-04-30T08:01:07.794Z</time></trkpt><trkpt lat="40.73116733487942" lon="9.649450456717064"><ele>75.0</ele><time>2026-04-30T08:01:08.794Z</time></trkpt><trkpt lat="40.7310097451521" lon="9.649585307003905"><ele>75.0</ele><time>2026-04-30T08:01:09.794Z</time></trkpt><trkpt lat="40.7308783495672" lon="9.64975515677746"><ele>74.0</ele><time>2026-04-30T08:01:10.794Z</time></trkpt><trkpt lat="40.73073935226353" lon="9.649907627824533"><ele>73.0</ele><time>2026-04-30T08:01:11.794Z</time></trkpt><trkpt lat="40.73061991837604" lon="9.650042954572328"><ele>72.0</ele><time>2026-04-30T08:01:12.794Z</time></trkpt><trkpt lat="40.7305354332413" lon="9.650181310722347"><ele>72.25</ele><time>2026-04-30T08:01:13.794Z</time></trkpt><trkpt lat="40.73048225803052" lon="9.650325948498235"><ele>72.5</ele><time>2026-04-30T08:01:14.794Z</time></trkpt><trkpt lat="40.73045076816293" lon="9.650500976519103"><ele>72.75</ele><time>2026-04-30T08:01:15.794Z</time></trkpt><trkpt lat="40.7304669257027" lon="9.650710967648664"><ele>73.0</ele><time>2026-04-30T08:01:16.794Z</time></trkpt><trkpt lat="40.73053388851967" lon="9.651001291584445"><ele>71.33333333333333</ele><time>2026-04-30T08:01:17.794Z</time></trkpt><trkpt lat="40.730596244818884" lon="9.651265064856215"><ele>69.66666666666667</ele><time>2026-04-30T08:01:18.794Z</time></trkpt><trkpt lat="40.73063296031799" lon="9.651530853778338"><ele>68.0</ele><time>2026-04-30T08:01:19.794Z</time></trkpt><trkpt lat="40.73068589678071" lon="9.651808035510248"><ele>67.0</ele><time>2026-04-30T08:01:20.794Z</time></trkpt><trkpt lat="40.7307163442595" lon="9.652054331929898"><ele>66.0</ele><time>2026-04-30T08:01:21.794Z</time></trkpt><trkpt lat="40.73074426262311" lon="9.652268894484104"><ele>65.0</ele><time>2026-04-30T08:01:22.794Z</time></trkpt><trkpt lat="40.73077256915662" lon="9.652471378701257"><ele>65.0</ele><time>2026-04-30T08:01:23.794Z</time></trkpt><trkpt lat="40.73079904466137" lon="9.65268233052834"><ele>65.0</ele><time>2026-04-30T08:01:24.794Z</time></trkpt><trkpt lat="40.73080469700156" lon="9.652917904832227"><ele>65.0</ele><time>2026-04-30T08:01:25.794Z</time></trkpt><trkpt lat="40.730798012733814" lon="9.653156077293376"><ele>65.0</ele><time>2026-04-30T08:01:26.794Z</time></trkpt><trkpt lat="40.73079033684142" lon="9.653412526751117"><ele>65.0</ele><time>2026-04-30T08:01:27.793Z</time></trkpt><trkpt lat="40.730759509661624" lon="9.653653488598838"><ele>65.0</ele><time>2026-04-30T08:01:28.793Z</time></trkpt><trkpt lat="40.730723999253264" lon="9.6538750964876"><ele>65.0</ele><time>2026-04-30T08:01:29.793Z</time></trkpt><trkpt lat="40.73067157569774" lon="9.654083135503942"><ele>65.0</ele><time>2026-04-30T08:01:30.793Z</time></trkpt><trkpt lat="40.730568444196386" lon="9.65425714021078"><ele>65.0</ele><time>2026-04-30T08:01:31.793Z</time></trkpt><trkpt lat="40.730442414946296" lon="9.65439236880423"><ele>64.5</ele><time>2026-04-30T08:01:32.793Z</time></trkpt><trkpt lat="40.73031311429521" lon="9.654488927278734"><ele>64.0</ele><time>2026-04-30T08:01:33.793Z</time></trkpt><trkpt lat="40.73021096816102" lon="9.65461099221706"><ele>63.5</ele><time>2026-04-30T08:01:34.793Z</time></trkpt><trkpt lat="40.730119755291504" lon="9.654763756817962"><ele>63.0</ele><time>2026-04-30T08:01:35.795Z</time></trkpt><trkpt lat="40.73003234483641" lon="9.654945288786083"><ele>63.0</ele><time>2026-04-30T08:01:36.795Z</time></trkpt><trkpt lat="40.72994061834328" lon="9.655143023321305"><ele>63.0</ele><time>2026-04-30T08:01:37.795Z</time></trkpt><trkpt lat="40.72984046594496" lon="9.655362359732433"><ele>63.0</ele><time>2026-04-30T08:01:38.795Z</time></trkpt><trkpt lat="40.72973708951942" lon="9.65559557059798"><ele>64.66666666666667</ele><time>2026-04-30T08:01:39.795Z</time></trkpt><trkpt lat="40.72963391776451" lon="9.655842398924392"><ele>66.33333333333334</ele><time>2026-04-30T08:01:40.795Z</time></trkpt><trkpt lat="40.72953211508878" lon="9.656107138681797"><ele>68.0</ele><time>2026-04-30T08:01:41.795Z</time></trkpt><trkpt lat="40.729435406682384" lon="9.656382854190847"><ele>63.0</ele><time>2026-04-30T08:01:42.795Z</time></trkpt><trkpt lat="40.72934103387548" lon="9.656665562216963"><ele>58.0</ele><time>2026-04-30T08:01:43.795Z</time></trkpt><trkpt lat="40.72924884542385" lon="9.656955458650868"><ele>58.0</ele><time>2026-04-30T08:01:44.794Z</time></trkpt><trkpt lat="40.729150317324226" lon="9.657244973529547"><ele>58.0</ele><time>2026-04-30T08:01:45.794Z</time></trkpt><trkpt lat="40.72905050563801" lon="9.657534609292982"><ele>60.0</ele><time>2026-04-30T08:01:46.794Z</time></trkpt><trkpt lat="40.72895045727071" lon="9.657831961639658"><ele>62.0</ele><time>2026-04-30T08:01:47.795Z</time></trkpt><trkpt lat="40.72883830559455" lon="9.658111874297726"><ele>62.0</ele><time>2026-04-30T08:01:48.795Z</time></trkpt><trkpt lat="40.72874500601954" lon="9.658384959515534"><ele>62.0</ele><time>2026-04-30T08:01:49.794Z</time></trkpt><trkpt lat="40.728656643623275" lon="9.658635007147241"><ele>62.0</ele><time>2026-04-30T08:01:50.794Z</time></trkpt><trkpt lat="40.728553816995515" lon="9.658857819866121"><ele>61.66666666666667</ele><time>2026-04-30T08:01:51.794Z</time></trkpt><trkpt lat="40.728426487360665" lon="9.659054467236286"><ele>61.33333333333333</ele><time>2026-04-30T08:01:52.794Z</time></trkpt><trkpt lat="40.72827467887011" lon="9.659260440877043"><ele>61.0</ele><time>2026-04-30T08:01:53.794Z</time></trkpt><trkpt lat="40.72813688900584" lon="9.6594743593307"><ele>63.666666666666664</ele><time>2026-04-30T08:01:54.794Z</time></trkpt><trkpt lat="40.7280411770772" lon="9.659733326321186"><ele>66.33333333333333</ele><time>2026-04-30T08:01:55.794Z</time></trkpt><trkpt lat="40.72793237985403" lon="9.6599909735292"><ele>69.0</ele><time>2026-04-30T08:01:56.794Z</time></trkpt><trkpt lat="40.72781037642321" lon="9.660241367817246"><ele>65.33333333333333</ele><time>2026-04-30T08:01:57.794Z</time></trkpt><trkpt lat="40.72767479844829" lon="9.660473617973073"><ele>61.666666666666664</ele><time>2026-04-30T08:01:58.794Z</time></trkpt><trkpt lat="40.72755348390803" lon="9.6607107731278"><ele>58.0</ele><time>2026-04-30T08:01:59.794Z</time></trkpt><trkpt lat="40.72743878574525" lon="9.660935639582586"><ele>58.666666666666664</ele><time>2026-04-30T08:02:00.794Z</time></trkpt><trkpt lat="40.7273332653296" lon="9.661163975248039"><ele>59.33333333333333</ele><time>2026-04-30T08:02:01.794Z</time></trkpt><trkpt lat="40.727184645536745" lon="9.661324846549107"><ele>60.0</ele><time>2026-04-30T08:02:02.794Z</time></trkpt><trkpt lat="40.72701797987465" lon="9.661494700950955"><ele>57.33333333333333</ele><time>2026-04-30T08:02:03.794Z</time></trkpt><trkpt lat="40.72682828764489" lon="9.661629798981746"><ele>54.666666666666664</ele><time>2026-04-30T08:02:04.794Z</time></trkpt><trkpt lat="40.726647337495" lon="9.66177890035939"><ele>52.0</ele><time>2026-04-30T08:02:05.794Z</time></trkpt><trkpt lat="40.726483369511335" lon="9.6619400097808"><ele>52.33333333333333</ele><time>2026-04-30T08:02:06.794Z</time></trkpt><trkpt lat="40.7263143830305" lon="9.662081043297887"><ele>52.66666666666667</ele><time>2026-04-30T08:02:07.794Z</time></trkpt><trkpt lat="40.726145035772504" lon="9.662210187450462"><ele>53.0</ele><time>2026-04-30T08:02:08.794Z</time></trkpt><trkpt lat="40.725999285729095" lon="9.662382346211693"><ele>53.0</ele><time>2026-04-30T08:02:09.794Z</time></trkpt><trkpt lat="40.725863550808" lon="9.662582621912774"><ele>53.0</ele><time>2026-04-30T08:02:10.794Z</time></trkpt><trkpt lat="40.725724122748794" lon="9.662787753074946"><ele>53.0</ele><time>2026-04-30T08:02:11.794Z</time></trkpt><trkpt lat="40.72558557779153" lon="9.662991560521244"><ele>54.0</ele><time>2026-04-30T08:02:12.794Z</time></trkpt><trkpt lat="40.72543982495599" lon="9.663194182892669"><ele>55.0</ele><time>2026-04-30T08:02:13.793Z</time></trkpt><trkpt lat="40.72527259680687" lon="9.663378028816734"><ele>56.0</ele><time>2026-04-30T08:02:14.793Z</time></trkpt><trkpt lat="40.725086764495316" lon="9.663523683018251"><ele>59.66666666666667</ele><time>2026-04-30T08:02:15.793Z</time></trkpt><trkpt lat="40.724905602565556" lon="9.66366884434223"><ele>63.33333333333333</ele><time>2026-04-30T08:02:16.793Z</time></trkpt><trkpt lat="40.724710238711836" lon="9.66378438586964"><ele>67.0</ele><time>2026-04-30T08:02:17.793Z</time></trkpt><trkpt lat="40.72451278537316" lon="9.663911400921846"><ele>61.0</ele><time>2026-04-30T08:02:18.793Z</time></trkpt><trkpt lat="40.72431519239552" lon="9.664044015806649"><ele>55.0</ele><time>2026-04-30T08:02:19.793Z</time></trkpt><trkpt lat="40.72412025339849" lon="9.664177995452674"><ele>49.0</ele><time>2026-04-30T08:02:20.793Z</time></trkpt><trkpt lat="40.72392791274004" lon="9.664321305754191"><ele>49.0</ele><time>2026-04-30T08:02:21.793Z</time></trkpt><trkpt lat="40.72372641169846" lon="9.664450338905109"><ele>49.0</ele><time>2026-04-30T08:02:22.793Z</time></trkpt><trkpt lat="40.72355529305731" lon="9.6646167968678"><ele>49.0</ele><time>2026-04-30T08:02:23.793Z</time></trkpt><trkpt lat="40.723374733376694" lon="9.66479183452758"><ele>49.0</ele><time>2026-04-30T08:02:24.793Z</time></trkpt><trkpt lat="40.72318716151524" lon="9.665000574892831"><ele>49.0</ele><time>2026-04-30T08:02:25.793Z</time></trkpt><trkpt lat="40.72300861031219" lon="9.665192049612902"><ele>46.5</ele><time>2026-04-30T08:02:26.793Z</time></trkpt><trkpt lat="40.72284171584312" lon="9.665390308470924"><ele>44.0</ele><time>2026-04-30T08:02:27.793Z</time></trkpt><trkpt lat="40.722677801294296" lon="9.665606692903399"><ele>44.0</ele><time>2026-04-30T08:02:28.793Z</time></trkpt><trkpt lat="40.722548783144866" lon="9.665866157718963"><ele>44.0</ele><time>2026-04-30T08:02:29.793Z</time></trkpt><trkpt lat="40.7224012870628" lon="9.66610479685854"><ele>45.0</ele><time>2026-04-30T08:02:30.793Z</time></trkpt><trkpt lat="40.72227415006733" lon="9.666365564878658"><ele>46.0</ele><time>2026-04-30T08:02:31.793Z</time></trkpt><trkpt lat="40.722156973264745" lon="9.666636427404676"><ele>46.0</ele><time>2026-04-30T08:02:32.793Z</time></trkpt><trkpt lat="40.722038013992055" lon="9.666911410955624"><ele>46.0</ele><time>2026-04-30T08:02:33.793Z</time></trkpt><trkpt lat="40.72192085674869" lon="9.667195261323767"><ele>44.0</ele><time>2026-04-30T08:02:34.793Z</time></trkpt><trkpt lat="40.72190391338393" lon="9.667557996176253"><ele>42.0</ele><time>2026-04-30T08:02:35.793Z</time></trkpt><trkpt lat="40.721802841393504" lon="9.667857344503574"><ele>42.0</ele><time>2026-04-30T08:02:36.793Z</time></trkpt><trkpt lat="40.72170445370463" lon="9.668155017669509"><ele>42.0</ele><time>2026-04-30T08:02:37.792Z</time></trkpt><trkpt lat="40.72160679995557" lon="9.668456546151319"><ele>42.0</ele><time>2026-04-30T08:02:38.792Z</time></trkpt><trkpt lat="40.721511700184244" lon="9.668756615368316"><ele>42.0</ele><time>2026-04-30T08:02:39.792Z</time></trkpt><trkpt lat="40.72141645946126" lon="9.669055356077706"><ele>42.0</ele><time>2026-04-30T08:02:40.792Z</time></trkpt><trkpt lat="40.72132139663024" lon="9.669353290886507"><ele>42.0</ele><time>2026-04-30T08:02:41.792Z</time></trkpt><trkpt lat="40.72123570985874" lon="9.669630210454564"><ele>41.333333333333336</ele><time>2026-04-30T08:02:42.792Z</time></trkpt><trkpt lat="40.72115186303829" lon="9.66989602104944"><ele>40.66666666666667</ele><time>2026-04-30T08:02:43.792Z</time></trkpt><trkpt lat="40.721053809429954" lon="9.670150954917727"><ele>40.0</ele><time>2026-04-30T08:02:44.792Z</time></trkpt><trkpt lat="40.720936493072664" lon="9.670387432013412"><ele>39.66666666666667</ele><time>2026-04-30T08:02:45.792Z</time></trkpt><trkpt lat="40.72079869102517" lon="9.670607696542753"><ele>39.333333333333336</ele><time>2026-04-30T08:02:46.792Z</time></trkpt><trkpt lat="40.72064513873299" lon="9.670816473490655"><ele>39.0</ele><time>2026-04-30T08:02:47.792Z</time></trkpt><trkpt lat="40.72048452923295" lon="9.671014358151048"><ele>39.666666666666664</ele><time>2026-04-30T08:02:48.792Z</time></trkpt><trkpt lat="40.7203323122583" lon="9.671206438220096"><ele>40.33333333333333</ele><time>2026-04-30T08:02:49.792Z</time></trkpt><trkpt lat="40.72018236811496" lon="9.671389553962197"><ele>41.0</ele><time>2026-04-30T08:02:50.792Z</time></trkpt><trkpt lat="40.720040112558756" lon="9.671566008881003"><ele>40.0</ele><time>2026-04-30T08:02:51.792Z</time></trkpt><trkpt lat="40.71990093343602" lon="9.671740028889822"><ele>39.0</ele><time>2026-04-30T08:02:52.792Z</time></trkpt><trkpt lat="40.71976283048243" lon="9.671917867246924"><ele>38.0</ele><time>2026-04-30T08:02:53.792Z</time></trkpt><trkpt lat="40.71963658574945" lon="9.672097962915451"><ele>38.0</ele><time>2026-04-30T08:02:54.792Z</time></trkpt><trkpt lat="40.71952454425647" lon="9.672269215751868"><ele>38.0</ele><time>2026-04-30T08:02:55.792Z</time></trkpt><trkpt lat="40.71941783985013" lon="9.672438660716722"><ele>38.0</ele><time>2026-04-30T08:02:56.792Z</time></trkpt><trkpt lat="40.719311062437164" lon="9.672613269508016"><ele>37.666666666666664</ele><time>2026-04-30T08:02:57.792Z</time></trkpt><trkpt lat="40.719210464806935" lon="9.672796562108644"><ele>37.333333333333336</ele><time>2026-04-30T08:02:58.792Z</time></trkpt><trkpt lat="40.71912229353063" lon="9.672984726641271"><ele>37.0</ele><time>2026-04-30T08:02:59.792Z</time></trkpt><trkpt lat="40.71905025237102" lon="9.673182239208195"><ele>37.0</ele><time>2026-04-30T08:03:00.792Z</time></trkpt><trkpt lat="40.718988982710144" lon="9.673388907850736"><ele>37.0</ele><time>2026-04-30T08:03:01.791Z</time></trkpt><trkpt lat="40.71893396403076" lon="9.673606766093233"><ele>37.0</ele><time>2026-04-30T08:03:02.791Z</time></trkpt><trkpt lat="40.718877032769456" lon="9.673838345721459"><ele>37.0</ele><time>2026-04-30T08:03:03.791Z</time></trkpt><trkpt lat="40.71881707853314" lon="9.674078995567184"><ele>37.0</ele><time>2026-04-30T08:03:04.791Z</time></trkpt><trkpt lat="40.71876007807067" lon="9.674335189023504"><ele>37.0</ele><time>2026-04-30T08:03:05.791Z</time></trkpt><trkpt lat="40.71869502993966" lon="9.674613657389312"><ele>36.5</ele><time>2026-04-30T08:03:06.791Z</time></trkpt><trkpt lat="40.718633577580974" lon="9.674905093631788"><ele>36.0</ele><time>2026-04-30T08:03:07.791Z</time></trkpt><trkpt lat="40.718573099864685" lon="9.675193777874478"><ele>33.5</ele><time>2026-04-30T08:03:08.791Z</time></trkpt><trkpt lat="40.718506807939136" lon="9.675479357154606"><ele>31.0</ele><time>2026-04-30T08:03:09.791Z</time></trkpt><trkpt lat="40.718443809412854" lon="9.675770638689325"><ele>31.0</ele><time>2026-04-30T08:03:10.791Z</time></trkpt><trkpt lat="40.718372741543" lon="9.676095409346468"><ele>31.0</ele><time>2026-04-30T08:03:11.791Z</time></trkpt><trkpt lat="40.718295779001814" lon="9.676455706213703"><ele>31.5</ele><time>2026-04-30T08:03:12.791Z</time></trkpt><trkpt lat="40.71821205891686" lon="9.676811368556871"><ele>32.0</ele><time>2026-04-30T08:03:13.791Z</time></trkpt><trkpt lat="40.71813500297985" lon="9.67712800158434"><ele>32.0</ele><time>2026-04-30T08:03:14.791Z</time></trkpt><trkpt lat="40.718056549156664" lon="9.67742363075442"><ele>32.0</ele><time>2026-04-30T08:03:15.791Z</time></trkpt><trkpt lat="40.71798084092882" lon="9.677721898505778"><ele>32.0</ele><time>2026-04-30T08:03:16.791Z</time></trkpt><trkpt lat="40.71790326105265" lon="9.678018842629932"><ele>32.0</ele><time>2026-04-30T08:03:17.791Z</time></trkpt><trkpt lat="40.7178309941204" lon="9.678314506960179"><ele>32.0</ele><time>2026-04-30T08:03:18.791Z</time></trkpt><trkpt lat="40.71776073186602" lon="9.678608553543022"><ele>32.0</ele><time>2026-04-30T08:03:19.791Z</time></trkpt><trkpt lat="40.71769157991718" lon="9.678882811860394"><ele>31.0</ele><time>2026-04-30T08:03:20.791Z</time></trkpt><trkpt lat="40.7176251655165" lon="9.679150773627244"><ele>30.0</ele><time>2026-04-30T08:03:21.791Z</time></trkpt><trkpt lat="40.71756118490246" lon="9.679404429039666"><ele>29.0</ele><time>2026-04-30T08:03:22.791Z</time></trkpt><trkpt lat="40.7175011758315" lon="9.679647310536238"><ele>29.0</ele><time>2026-04-30T08:03:23.791Z</time></trkpt><trkpt lat="40.717443508277306" lon="9.679882679692065"><ele>29.0</ele><time>2026-04-30T08:03:24.791Z</time></trkpt><trkpt lat="40.7173834657353" lon="9.680111675466604"><ele>29.0</ele><time>2026-04-30T08:03:25.79Z</time></trkpt><trkpt lat="40.71732255068076" lon="9.68033230636634"><ele>29.0</ele><time>2026-04-30T08:03:26.79Z</time></trkpt><trkpt lat="40.717262311067465" lon="9.680546100090826"><ele>29.0</ele><time>2026-04-30T08:03:27.79Z</time></trkpt><trkpt lat="40.71720377135482" lon="9.680754485664997"><ele>29.0</ele><time>2026-04-30T08:03:28.79Z</time></trkpt><trkpt lat="40.717144826089466" lon="9.6809490157688"><ele>29.25</ele><time>2026-04-30T08:03:29.79Z</time></trkpt><trkpt lat="40.717078261608144" lon="9.681131629735619"><ele>29.5</ele><time>2026-04-30T08:03:30.79Z</time></trkpt><trkpt lat="40.71701235731401" lon="9.68128723732802"><ele>29.75</ele><time>2026-04-30T08:03:31.79Z</time></trkpt><trkpt lat="40.716951441872766" lon="9.681424471774832"><ele>30.0</ele><time>2026-04-30T08:03:32.79Z</time></trkpt><trkpt lat="40.71687472126479" lon="9.681540698953956"><ele>29.6</ele><time>2026-04-30T08:03:33.79Z</time></trkpt><trkpt lat="40.71678309038532" lon="9.681638862438557"><ele>29.2</ele><time>2026-04-30T08:03:34.79Z</time></trkpt><trkpt lat="40.716708117831026" lon="9.681738121632291"><ele>28.799999999999997</ele><time>2026-04-30T08:03:35.79Z</time></trkpt><trkpt lat="40.716657971054765" lon="9.68184496735046"><ele>28.4</ele><time>2026-04-30T08:03:36.79Z</time></trkpt><trkpt lat="40.71664367397274" lon="9.68197142423729"><ele>28.0</ele><time>2026-04-30T08:03:37.79Z</time></trkpt><trkpt lat="40.71664058143117" lon="9.68212793250754"><ele>28.0</ele><time>2026-04-30T08:03:38.79Z</time></trkpt><trkpt lat="40.71661330964712" lon="9.68230804688069"><ele>28.0</ele><time>2026-04-30T08:03:39.79Z</time></trkpt><trkpt lat="40.716546776608" lon="9.682496655668448"><ele>28.0</ele><time>2026-04-30T08:03:40.79Z</time></trkpt><trkpt lat="40.716453642047114" lon="9.682695650221703"><ele>28.0</ele><time>2026-04-30T08:03:41.791Z</time></trkpt><trkpt lat="40.71633143764336" lon="9.682913664101333"><ele>28.0</ele><time>2026-04-30T08:03:42.791Z</time></trkpt><trkpt lat="40.71618214787112" lon="9.683143526093751"><ele>28.0</ele><time>2026-04-30T08:03:43.791Z</time></trkpt><trkpt lat="40.71601524708234" lon="9.683387772628954"><ele>26.5</ele><time>2026-04-30T08:03:44.792Z</time></trkpt><trkpt lat="40.71584096268471" lon="9.683652715539829"><ele>25.0</ele><time>2026-04-30T08:03:45.791Z</time></trkpt><trkpt lat="40.715676948925925" lon="9.683919631078302"><ele>25.0</ele><time>2026-04-30T08:03:46.791Z</time></trkpt><trkpt lat="40.71552319505027" lon="9.684169552662837"><ele>25.0</ele><time>2026-04-30T08:03:47.791Z</time></trkpt><trkpt lat="40.71536338932223" lon="9.684386568574668"><ele>24.5</ele><time>2026-04-30T08:03:48.792Z</time></trkpt><trkpt lat="40.71521579982432" lon="9.684610370512779"><ele>24.0</ele><time>2026-04-30T08:03:49.792Z</time></trkpt><trkpt lat="40.71506131171196" lon="9.684843054271882"><ele>24.0</ele><time>2026-04-30T08:03:50.792Z</time></trkpt><trkpt lat="40.714888587852066" lon="9.685102549132361"><ele>24.0</ele><time>2026-04-30T08:03:51.791Z</time></trkpt><trkpt lat="40.71469569154349" lon="9.685392562162342"><ele>23.0</ele><time>2026-04-30T08:03:52.791Z</time></trkpt><trkpt lat="40.71451045758216" lon="9.685703601920048"><ele>22.0</ele><time>2026-04-30T08:03:53.791Z</time></trkpt><trkpt lat="40.71430746414274" lon="9.686008959854451"><ele>22.0</ele><time>2026-04-30T08:03:54.791Z</time></trkpt><trkpt lat="40.71410574775696" lon="9.686313061089338"><ele>22.0</ele><time>2026-04-30T08:03:55.791Z</time></trkpt><trkpt lat="40.713910441888004" lon="9.686601762380324"><ele>22.0</ele><time>2026-04-30T08:03:56.791Z</time></trkpt><trkpt lat="40.71372206073576" lon="9.686877965177013"><ele>22.0</ele><time>2026-04-30T08:03:57.791Z</time></trkpt><trkpt lat="40.713544209415836" lon="9.687143730708783"><ele>20.0</ele><time>2026-04-30T08:03:58.791Z</time></trkpt><trkpt lat="40.71337410303762" lon="9.687397351059492"><ele>18.0</ele><time>2026-04-30T08:03:59.791Z</time></trkpt><trkpt lat="40.71321152345184" lon="9.687637998110782"><ele>18.5</ele><time>2026-04-30T08:04:00.791Z</time></trkpt><trkpt lat="40.71305421175044" lon="9.687866692231157"><ele>19.0</ele><time>2026-04-30T08:04:01.791Z</time></trkpt><trkpt lat="40.712907762664315" lon="9.688083830278"><ele>19.0</ele><time>2026-04-30T08:04:02.791Z</time></trkpt><trkpt lat="40.71276815046538" lon="9.688295588955597"><ele>19.0</ele><time>2026-04-30T08:04:03.791Z</time></trkpt><trkpt lat="40.71264891965491" lon="9.688493465638553"><ele>19.0</ele><time>2026-04-30T08:04:04.791Z</time></trkpt><trkpt lat="40.712561001970634" lon="9.688677166293942"><ele>18.75</ele><time>2026-04-30T08:04:05.791Z</time></trkpt><trkpt lat="40.712507065964715" lon="9.688865914063577"><ele>18.5</ele><time>2026-04-30T08:04:06.791Z</time></trkpt><trkpt lat="40.712483817246145" lon="9.689054044858178"><ele>18.25</ele><time>2026-04-30T08:04:07.791Z</time></trkpt><trkpt lat="40.71246512101164" lon="9.689231226478604"><ele>18.0</ele><time>2026-04-30T08:04:08.791Z</time></trkpt><trkpt lat="40.71244293347412" lon="9.689389657925513"><ele>18.0</ele><time>2026-04-30T08:04:09.791Z</time></trkpt><trkpt lat="40.712423563450415" lon="9.689532578705796"><ele>18.0</ele><time>2026-04-30T08:04:10.791Z</time></trkpt><trkpt lat="40.7124064279546" lon="9.68967614499762"><ele>18.0</ele><time>2026-04-30T08:04:11.791Z</time></trkpt><trkpt lat="40.7123885348139" lon="9.68981121950931"><ele>18.0</ele><time>2026-04-30T08:04:12.79Z</time></trkpt><trkpt lat="40.712368921795814" lon="9.689947828960246"><ele>18.0</ele><time>2026-04-30T08:04:13.79Z</time></trkpt><trkpt lat="40.71234977274499" lon="9.69008045760054"><ele>18.0</ele><time>2026-04-30T08:04:14.79Z</time></trkpt><trkpt lat="40.7123314984451" lon="9.690206411289614"><ele>18.0</ele><time>2026-04-30T08:04:15.79Z</time></trkpt><trkpt lat="40.712307405455114" lon="9.690319146955998"><ele>18.0</ele><time>2026-04-30T08:04:16.79Z</time></trkpt><trkpt lat="40.7122728133816" lon="9.690421576323232"><ele>18.0</ele><time>2026-04-30T08:04:17.79Z</time></trkpt><trkpt lat="40.71223710171994" lon="9.690511079448473"><ele>18.0</ele><time>2026-04-30T08:04:18.79Z</time></trkpt><trkpt lat="40.71220040500235" lon="9.69058160651132"><ele>18.0</ele><time>2026-04-30T08:04:19.79Z</time></trkpt><trkpt lat="40.712114617304124" lon="9.690659046507516"><ele>17.8</ele><time>2026-04-30T08:04:21.79Z</time></trkpt><trkpt lat="40.712052314962044" lon="9.69073096756423"><ele>17.6</ele><time>2026-04-30T08:04:23.79Z</time></trkpt><trkpt lat="40.71202959952818" lon="9.69082999810819"><ele>17.4</ele><time>2026-04-30T08:04:25.79Z</time></trkpt><trkpt lat="40.71208767972488" lon="9.690956611149092"><ele>17.2</ele><time>2026-04-30T08:04:28.79Z</time></trkpt><trkpt lat="40.71218081525675" lon="9.690949152552296"><ele>17.0</ele><time>2026-04-30T08:04:30.79Z</time></trkpt><trkpt lat="40.7122089788065" lon="9.690809609034105"><ele>17.0</ele><time>2026-04-30T08:04:32.79Z</time></trkpt><trkpt lat="40.712097564606296" lon="9.690725527884592"><ele>17.0</ele><time>2026-04-30T08:04:34.79Z</time></trkpt><trkpt lat="40.71201786410591" lon="9.69072589269263"><ele>17.0</ele><time>2026-04-30T08:04:35.79Z</time></trkpt><trkpt lat="40.711916663236245" lon="9.690751615722922"><ele>17.0</ele><time>2026-04-30T08:04:36.789Z</time></trkpt><trkpt lat="40.71180409507961" lon="9.690785754038215"><ele>17.0</ele><time>2026-04-30T08:04:37.789Z</time></trkpt><trkpt lat="40.71167968125072" lon="9.690812530624719"><ele>16.25</ele><time>2026-04-30T08:04:38.789Z</time></trkpt><trkpt lat="40.71155833496667" lon="9.690853998105371"><ele>15.5</ele><time>2026-04-30T08:04:39.789Z</time></trkpt><trkpt lat="40.711442833596905" lon="9.69091779670169"><ele>14.75</ele><time>2026-04-30T08:04:40.789Z</time></trkpt><trkpt lat="40.71133818771651" lon="9.69100807772496"><ele>14.0</ele><time>2026-04-30T08:04:41.789Z</time></trkpt><trkpt lat="40.71124903116471" lon="9.691127343085803"><ele>13.75</ele><time>2026-04-30T08:04:42.789Z</time></trkpt><trkpt lat="40.71118203909298" lon="9.691268928370176"><ele>13.5</ele><time>2026-04-30T08:04:43.789Z</time></trkpt><trkpt lat="40.71114546589818" lon="9.691444921915407"><ele>13.25</ele><time>2026-04-30T08:04:44.789Z</time></trkpt><trkpt lat="40.71112206312027" lon="9.691637546350867"><ele>13.0</ele><time>2026-04-30T08:04:45.789Z</time></trkpt><trkpt lat="40.711110368641904" lon="9.691837143384394"><ele>13.333333333333332</ele><time>2026-04-30T08:04:46.789Z</time></trkpt><trkpt lat="40.71108715065598" lon="9.692047036394275"><ele>13.666666666666668</ele><time>2026-04-30T08:04:47.789Z</time></trkpt><trkpt lat="40.71106075055963" lon="9.69224607777324"><ele>14.0</ele><time>2026-04-30T08:04:48.789Z</time></trkpt><trkpt lat="40.71103164800223" lon="9.692433212106536"><ele>14.0</ele><time>2026-04-30T08:04:49.789Z</time></trkpt><trkpt lat="40.7109984846005" lon="9.692624615974418"><ele>14.0</ele><time>2026-04-30T08:04:50.789Z</time></trkpt><trkpt lat="40.710969235727305" lon="9.692814184000433"><ele>14.0</ele><time>2026-04-30T08:04:51.789Z</time></trkpt><trkpt lat="40.710938467573875" lon="9.693001960097657"><ele>14.0</ele><time>2026-04-30T08:04:52.789Z</time></trkpt><trkpt lat="40.710910223870194" lon="9.693174160999153"><ele>13.5</ele><time>2026-04-30T08:04:53.789Z</time></trkpt><trkpt lat="40.71088427957241" lon="9.693332873065565"><ele>13.0</ele><time>2026-04-30T08:04:54.789Z</time></trkpt><trkpt lat="40.71085433697361" lon="9.69348440887387"><ele>12.5</ele><time>2026-04-30T08:04:55.789Z</time></trkpt><trkpt lat="40.71082526934023" lon="9.693624930482256"><ele>12.0</ele><time>2026-04-30T08:04:56.789Z</time></trkpt><trkpt lat="40.71080130435858" lon="9.693761897481691"><ele>12.0</ele><time>2026-04-30T08:04:57.789Z</time></trkpt><trkpt lat="40.710776489543015" lon="9.693899396123399"><ele>12.0</ele><time>2026-04-30T08:04:58.789Z</time></trkpt><trkpt lat="40.71075736855067" lon="9.69403935084768"><ele>12.0</ele><time>2026-04-30T08:04:59.789Z</time></trkpt><trkpt lat="40.7107340270016" lon="9.694182882006205"><ele>12.0</ele><time>2026-04-30T08:05:00.789Z</time></trkpt><trkpt lat="40.7107085098828" lon="9.694335438375393"><ele>12.0</ele><time>2026-04-30T08:05:01.788Z</time></trkpt><trkpt lat="40.71067746492381" lon="9.694487932699106"><ele>11.75</ele><time>2026-04-30T08:05:02.788Z</time></trkpt><trkpt lat="40.71064268230147" lon="9.694647260742979"><ele>11.5</ele><time>2026-04-30T08:05:03.788Z</time></trkpt><trkpt lat="40.71061466273809" lon="9.694807368132116"><ele>11.25</ele><time>2026-04-30T08:05:04.788Z</time></trkpt><trkpt lat="40.7105870000659" lon="9.694971897595472"><ele>11.0</ele><time>2026-04-30T08:05:05.788Z</time></trkpt><trkpt lat="40.71055822489292" lon="9.695137057095039"><ele>11.25</ele><time>2026-04-30T08:05:06.788Z</time></trkpt><trkpt lat="40.7105312940496" lon="9.69530414898422"><ele>11.5</ele><time>2026-04-30T08:05:07.788Z</time></trkpt><trkpt lat="40.710504975371926" lon="9.695470224025541"><ele>11.75</ele><time>2026-04-30T08:05:08.788Z</time></trkpt><trkpt lat="40.71047521705249" lon="9.69564087634987"><ele>12.0</ele><time>2026-04-30T08:05:09.788Z</time></trkpt><trkpt lat="40.71044640012519" lon="9.695810228736443"><ele>12.0</ele><time>2026-04-30T08:05:10.788Z</time></trkpt><trkpt lat="40.710416811416025" lon="9.695978520402841"><ele>12.0</ele><time>2026-04-30T08:05:11.788Z</time></trkpt><trkpt lat="40.71039055123802" lon="9.696139766113786"><ele>12.0</ele><time>2026-04-30T08:05:12.788Z</time></trkpt><trkpt lat="40.71036429384037" lon="9.696287441950867"><ele>12.0</ele><time>2026-04-30T08:05:13.788Z</time></trkpt><trkpt lat="40.71033717926352" lon="9.696422378565343"><ele>11.6</ele><time>2026-04-30T08:05:14.788Z</time></trkpt><trkpt lat="40.71031403745994" lon="9.696548072910083"><ele>11.2</ele><time>2026-04-30T08:05:15.788Z</time></trkpt><trkpt lat="40.71029462579963" lon="9.696668412346554"><ele>10.8</ele><time>2026-04-30T08:05:16.788Z</time></trkpt><trkpt lat="40.71027452979213" lon="9.69678909082938"><ele>10.4</ele><time>2026-04-30T08:05:17.788Z</time></trkpt><trkpt lat="40.7102540529718" lon="9.696916328423784"><ele>10.0</ele><time>2026-04-30T08:05:18.788Z</time></trkpt><trkpt lat="40.71023174174259" lon="9.697052776656374"><ele>11.75</ele><time>2026-04-30T08:05:19.788Z</time></trkpt><trkpt lat="40.71020791153155" lon="9.69719567901254"><ele>13.5</ele><time>2026-04-30T08:05:20.788Z</time></trkpt><trkpt lat="40.71018523865464" lon="9.697344711051976"><ele>15.25</ele><time>2026-04-30T08:05:21.788Z</time></trkpt><trkpt lat="40.710156918168465" lon="9.697501968681083"><ele>17.0</ele><time>2026-04-30T08:05:22.788Z</time></trkpt><trkpt lat="40.710126487787015" lon="9.697657191739113"><ele>16.5</ele><time>2026-04-30T08:05:23.788Z</time></trkpt><trkpt lat="40.71010025530273" lon="9.697814340508387"><ele>16.0</ele><time>2026-04-30T08:05:24.788Z</time></trkpt><trkpt lat="40.71006983367413" lon="9.697970220246289"><ele>15.5</ele><time>2026-04-30T08:05:25.788Z</time></trkpt><trkpt lat="40.7100427315663" lon="9.698113003719119"><ele>15.0</ele><time>2026-04-30T08:05:26.787Z</time></trkpt><trkpt lat="40.71001653576805" lon="9.69824173583686"><ele>15.0</ele><time>2026-04-30T08:05:27.787Z</time></trkpt><trkpt lat="40.70998536266987" lon="9.698360118184889"><ele>15.0</ele><time>2026-04-30T08:05:28.787Z</time></trkpt><trkpt lat="40.709947079601996" lon="9.698463607422546"><ele>15.0</ele><time>2026-04-30T08:05:29.787Z</time></trkpt><trkpt lat="40.70990277671607" lon="9.698547094765656"><ele>15.0</ele><time>2026-04-30T08:05:30.787Z</time></trkpt><trkpt lat="40.70984651996796" lon="9.69862878248731"><ele>15.0</ele><time>2026-04-30T08:05:31.787Z</time></trkpt><trkpt lat="40.709790585708234" lon="9.698700319497616"><ele>15.0</ele><time>2026-04-30T08:05:32.787Z</time></trkpt><trkpt lat="40.709737208423775" lon="9.698766923386154"><ele>14.8</ele><time>2026-04-30T08:05:33.787Z</time></trkpt><trkpt lat="40.70967680470001" lon="9.698824978732901"><ele>14.6</ele><time>2026-04-30T08:05:34.787Z</time></trkpt><trkpt lat="40.70961107479121" lon="9.698887975890962"><ele>14.399999999999999</ele><time>2026-04-30T08:05:35.787Z</time></trkpt><trkpt lat="40.7095388137713" lon="9.698964471424592"><ele>14.2</ele><time>2026-04-30T08:05:36.787Z</time></trkpt><trkpt lat="40.70946082684274" lon="9.699041960315764"><ele>14.0</ele><time>2026-04-30T08:05:37.787Z</time></trkpt><trkpt lat="40.70937543075245" lon="9.699119287380505"><ele>14.0</ele><time>2026-04-30T08:05:38.787Z</time></trkpt><trkpt lat="40.70928960363132" lon="9.699199599750381"><ele>13.999999999999998</ele><time>2026-04-30T08:05:39.787Z</time></trkpt><trkpt lat="40.70921041757494" lon="9.699282702299827"><ele>13.999999999999998</ele><time>2026-04-30T08:05:40.787Z</time></trkpt><trkpt lat="40.70912923442" lon="9.699358156327593"><ele>14.0</ele><time>2026-04-30T08:05:41.787Z</time></trkpt><trkpt lat="40.70904503651259" lon="9.699435803099473"><ele>14.0</ele><time>2026-04-30T08:05:42.787Z</time></trkpt><trkpt lat="40.70895767630292" lon="9.699512623136243"><ele>14.0</ele><time>2026-04-30T08:05:43.787Z</time></trkpt><trkpt lat="40.70887226151361" lon="9.699588982304862"><ele>13.999999999999998</ele><time>2026-04-30T08:05:44.787Z</time></trkpt><trkpt lat="40.708790161370494" lon="9.699659923048888"><ele>13.999999999999998</ele><time>2026-04-30T08:05:45.787Z</time></trkpt><trkpt lat="40.70870989207808" lon="9.699733769498632"><ele>14.0</ele><time>2026-04-30T08:05:46.787Z</time></trkpt><trkpt lat="40.70862686354049" lon="9.699812921830103"><ele>14.0</ele><time>2026-04-30T08:05:47.788Z</time></trkpt><trkpt lat="40.70855053830935" lon="9.699886877648135"><ele>13.399999999999999</ele><time>2026-04-30T08:05:48.787Z</time></trkpt><trkpt lat="40.70847416877605" lon="9.699959431198879"><ele>12.799999999999999</ele><time>2026-04-30T08:05:49.787Z</time></trkpt><trkpt lat="40.708398426732145" lon="9.700025563128548"><ele>12.2</ele><time>2026-04-30T08:05:50.788Z</time></trkpt><trkpt lat="40.70832721143192" lon="9.700093568656944"><ele>11.600000000000001</ele><time>2026-04-30T08:05:51.788Z</time></trkpt><trkpt lat="40.70825666765501" lon="9.700165688846726"><ele>11.0</ele><time>2026-04-30T08:05:52.788Z</time></trkpt><trkpt lat="40.70818342093177" lon="9.700234501239082"><ele>10.600000000000001</ele><time>2026-04-30T08:05:53.788Z</time></trkpt><trkpt lat="40.70811064462874" lon="9.700310879402299"><ele>10.200000000000001</ele><time>2026-04-30T08:05:54.787Z</time></trkpt><trkpt lat="40.708032421378356" lon="9.700380332812887"><ele>9.8</ele><time>2026-04-30T08:05:55.787Z</time></trkpt><trkpt lat="40.70795139493404" lon="9.70046144720707"><ele>9.4</ele><time>2026-04-30T08:05:56.788Z</time></trkpt><trkpt lat="40.70786574667327" lon="9.700533477823994"><ele>9.0</ele><time>2026-04-30T08:05:57.787Z</time></trkpt><trkpt lat="40.707787202733456" lon="9.700603780900567"><ele>8.833333333333334</ele><time>2026-04-30T08:05:58.787Z</time></trkpt><trkpt lat="40.7077145596982" lon="9.7006735622046"><ele>8.666666666666666</ele><time>2026-04-30T08:05:59.788Z</time></trkpt><trkpt lat="40.70764418553473" lon="9.700737378232175"><ele>8.5</ele><time>2026-04-30T08:06:00.787Z</time></trkpt><trkpt lat="40.70757691863723" lon="9.700799805572606"><ele>8.333333333333332</ele><time>2026-04-30T08:06:01.787Z</time></trkpt><trkpt lat="40.70750774720296" lon="9.700861336010584"><ele>8.166666666666666</ele><time>2026-04-30T08:06:02.788Z</time></trkpt><trkpt lat="40.70743769263643" lon="9.70092726996534"><ele>8.0</ele><time>2026-04-30T08:06:03.788Z</time></trkpt><trkpt lat="40.707362919904064" lon="9.700989128115172"><ele>7.999999999999999</ele><time>2026-04-30T08:06:04.788Z</time></trkpt><trkpt lat="40.70729061070549" lon="9.701054740193083"><ele>8.0</ele><time>2026-04-30T08:06:05.788Z</time></trkpt><trkpt lat="40.707220071780895" lon="9.701122649039045"><ele>8.0</ele><time>2026-04-30T08:06:06.788Z</time></trkpt><trkpt lat="40.70715068506114" lon="9.701189447795624"><ele>8.0</ele><time>2026-04-30T08:06:07.788Z</time></trkpt><trkpt lat="40.7070816499948" lon="9.701260353950236"><ele>7.999999999999999</ele><time>2026-04-30T08:06:08.788Z</time></trkpt><trkpt lat="40.70701148499895" lon="9.701337175166802"><ele>8.0</ele><time>2026-04-30T08:06:09.788Z</time></trkpt><trkpt lat="40.70694394912898" lon="9.70140621713104"><ele>8.0</ele><time>2026-04-30T08:06:10.788Z</time></trkpt><trkpt lat="40.70688082209993" lon="9.701468950350913"><ele>7.999999999999999</ele><time>2026-04-30T08:06:11.788Z</time></trkpt><trkpt lat="40.70682531094263" lon="9.701530266695622"><ele>8.0</ele><time>2026-04-30T08:06:12.788Z</time></trkpt><trkpt lat="40.70677034863957" lon="9.701579235701036"><ele>8.0</ele><time>2026-04-30T08:06:13.787Z</time></trkpt><trkpt lat="40.70671561857145" lon="9.701626531208563"><ele>7.999999999999999</ele><time>2026-04-30T08:06:14.787Z</time></trkpt><trkpt lat="40.70665788998633" lon="9.701677243038395"><ele>8.0</ele><time>2026-04-30T08:06:15.787Z</time></trkpt><trkpt lat="40.70659915593228" lon="9.701734441813821"><ele>8.0</ele><time>2026-04-30T08:06:16.787Z</time></trkpt><trkpt lat="40.70654812629945" lon="9.701784661606531"><ele>7.999999999999999</ele><time>2026-04-30T08:06:17.787Z</time></trkpt><trkpt lat="40.706486655500036" lon="9.701845308893951"><ele>8.0</ele><time>2026-04-30T08:06:19.787Z</time></trkpt><trkpt lat="40.706424220468186" lon="9.701908144146572"><ele>8.0</ele><time>2026-04-30T08:06:22.787Z</time></trkpt><trkpt lat="40.706356976720826" lon="9.701967334225692"><ele>8.0</ele><time>2026-04-30T08:06:25.787Z</time></trkpt><trkpt lat="40.706280517100794" lon="9.702037696872322"><ele>7.999999999999999</ele><time>2026-04-30T08:06:27.787Z</time></trkpt><trkpt lat="40.70622187312539" lon="9.702093267083088"><ele>8.0</ele><time>2026-04-30T08:06:28.787Z</time></trkpt><trkpt lat="40.706151171044816" lon="9.702156835112982"><ele>8.200000000000001</ele><time>2026-04-30T08:06:29.787Z</time></trkpt><trkpt lat="40.70608393438258" lon="9.702212694721823"><ele>8.4</ele><time>2026-04-30T08:06:30.787Z</time></trkpt><trkpt lat="40.70600159487301" lon="9.702296097431981"><ele>8.600000000000001</ele><time>2026-04-30T08:06:31.787Z</time></trkpt><trkpt lat="40.70591238567942" lon="9.702393611953669"><ele>8.8</ele><time>2026-04-30T08:06:32.787Z</time></trkpt><trkpt lat="40.70582327255578" lon="9.702501736656107"><ele>9.0</ele><time>2026-04-30T08:06:33.787Z</time></trkpt><trkpt lat="40.705737536104444" lon="9.70260884243501"><ele>9.0</ele><time>2026-04-30T08:06:34.787Z</time></trkpt><trkpt lat="40.70565035263787" lon="9.70272399343333"><ele>9.0</ele><time>2026-04-30T08:06:35.787Z</time></trkpt><trkpt lat="40.70556341228675" lon="9.702844916205159"><ele>9.0</ele><time>2026-04-30T08:06:36.787Z</time></trkpt><trkpt lat="40.705477145494605" lon="9.702969968654761"><ele>9.0</ele><time>2026-04-30T08:06:37.786Z</time></trkpt><trkpt lat="40.70538746616399" lon="9.703090435687715"><ele>8.5</ele><time>2026-04-30T08:06:38.786Z</time></trkpt><trkpt lat="40.70529659929391" lon="9.703215219757542"><ele>8.0</ele><time>2026-04-30T08:06:39.786Z</time></trkpt><trkpt lat="40.70520530121261" lon="9.703338293354523"><ele>7.5</ele><time>2026-04-30T08:06:40.786Z</time></trkpt><trkpt lat="40.70511139065286" lon="9.703463270105223"><ele>7.0</ele><time>2026-04-30T08:06:41.786Z</time></trkpt><trkpt lat="40.70502438560078" lon="9.703593170240412"><ele>7.0</ele><time>2026-04-30T08:06:42.786Z</time></trkpt><trkpt lat="40.70493224948099" lon="9.70371815348007"><ele>7.0</ele><time>2026-04-30T08:06:43.786Z</time></trkpt><trkpt lat="40.70484086495859" lon="9.703847259216131"><ele>7.0</ele><time>2026-04-30T08:06:44.786Z</time></trkpt><trkpt lat="40.70474938840986" lon="9.703975387784308"><ele>7.0</ele><time>2026-04-30T08:06:45.786Z</time></trkpt><trkpt lat="40.70466087694101" lon="9.704100033567387"><ele>7.0</ele><time>2026-04-30T08:06:46.786Z</time></trkpt><trkpt lat="40.70457203795505" lon="9.704220152990931"><ele>7.0</ele><time>2026-04-30T08:06:47.786Z</time></trkpt><trkpt lat="40.70448461660564" lon="9.7043493701888"><ele>7.0</ele><time>2026-04-30T08:06:48.786Z</time></trkpt><trkpt lat="40.704397470189136" lon="9.704480344764354"><ele>7.0</ele><time>2026-04-30T08:06:49.786Z</time></trkpt><trkpt lat="40.70431024843017" lon="9.704606895427304"><ele>7.25</ele><time>2026-04-30T08:06:50.786Z</time></trkpt><trkpt lat="40.70422528181519" lon="9.704729954017763"><ele>7.5</ele><time>2026-04-30T08:06:51.786Z</time></trkpt><trkpt lat="40.70413862688761" lon="9.70485263936043"><ele>7.75</ele><time>2026-04-30T08:06:52.786Z</time></trkpt><trkpt lat="40.70405201611331" lon="9.704974314950528"><ele>8.0</ele><time>2026-04-30T08:06:53.786Z</time></trkpt><trkpt lat="40.70396835186913" lon="9.70509811350572"><ele>8.0</ele><time>2026-04-30T08:06:54.786Z</time></trkpt><trkpt lat="40.703897113439865" lon="9.705221480673002"><ele>8.0</ele><time>2026-04-30T08:06:55.786Z</time></trkpt><trkpt lat="40.70383515727638" lon="9.705342707251157"><ele>8.0</ele><time>2026-04-30T08:06:56.786Z</time></trkpt><trkpt lat="40.703785033248735" lon="9.705469501522288"><ele>8.0</ele><time>2026-04-30T08:06:57.786Z</time></trkpt><trkpt lat="40.7037372273619" lon="9.70559347343094"><ele>8.0</ele><time>2026-04-30T08:06:58.786Z</time></trkpt><trkpt lat="40.70370170884305" lon="9.705699625200785"><ele>8.0</ele><time>2026-04-30T08:06:59.786Z</time></trkpt><trkpt lat="40.703671298957055" lon="9.705789919798047"><ele>8.0</ele><time>2026-04-30T08:07:00.786Z</time></trkpt><trkpt lat="40.703631525573094" lon="9.705920633553886"><ele>8.0</ele><time>2026-04-30T08:07:02.785Z</time></trkpt><trkpt lat="40.70360033220301" lon="9.706029928405727"><ele>8.0</ele><time>2026-04-30T08:07:04.785Z</time></trkpt><trkpt lat="40.703571384936" lon="9.706134006477662"><ele>8.0</ele><time>2026-04-30T08:07:06.785Z</time></trkpt><trkpt lat="40.70353766904647" lon="9.706258351494094"><ele>8.0</ele><time>2026-04-30T08:07:08.785Z</time></trkpt><trkpt lat="40.70349842679878" lon="9.706392070471903"><ele>8.0</ele><time>2026-04-30T08:07:10.785Z</time></trkpt><trkpt lat="40.703448192093475" lon="9.70654268662593"><ele>8.0</ele><time>2026-04-30T08:07:12.785Z</time></trkpt><trkpt lat="40.70342161898904" lon="9.706618864066021"><ele>8.0</ele><time>2026-04-30T08:07:13.785Z</time></trkpt><trkpt lat="40.703396130046585" lon="9.706698191389702"><ele>8.0</ele><time>2026-04-30T08:07:14.785Z</time></trkpt><trkpt lat="40.70334880930216" lon="9.706836176728933"><ele>7.999999999999999</ele><time>2026-04-30T08:07:16.785Z</time></trkpt><trkpt lat="40.70330414933712" lon="9.706966582706311"><ele>8.0</ele><time>2026-04-30T08:07:18.785Z</time></trkpt><trkpt lat="40.703253491310285" lon="9.707108767033482"><ele>8.0</ele><time>2026-04-30T08:07:20.785Z</time></trkpt><trkpt lat="40.7032255230558" lon="9.707188878810777"><ele>8.0</ele><time>2026-04-30T08:07:21.785Z</time></trkpt><trkpt lat="40.70320072883465" lon="9.707272826607067"><ele>7.999999999999999</ele><time>2026-04-30T08:07:22.785Z</time></trkpt><trkpt lat="40.703174749181066" lon="9.707355244078778"><ele>8.0</ele><time>2026-04-30T08:07:23.785Z</time></trkpt><trkpt lat="40.70315051339517" lon="9.707440788256728"><ele>7.999999999999999</ele><time>2026-04-30T08:07:24.785Z</time></trkpt><trkpt lat="40.70312502247342" lon="9.707528086508407"><ele>8.0</ele><time>2026-04-30T08:07:25.785Z</time></trkpt><trkpt lat="40.70309702854072" lon="9.707612220801664"><ele>8.0</ele><time>2026-04-30T08:07:26.784Z</time></trkpt><trkpt lat="40.703067818302884" lon="9.707701894127759"><ele>8.0</ele><time>2026-04-30T08:07:27.784Z</time></trkpt><trkpt lat="40.70303541287735" lon="9.70779385634339"><ele>7.999999999999999</ele><time>2026-04-30T08:07:28.784Z</time></trkpt><trkpt lat="40.70300629313492" lon="9.707888026043701"><ele>8.0</ele><time>2026-04-30T08:07:29.784Z</time></trkpt><trkpt lat="40.70297374608884" lon="9.707985861637374"><ele>8.166666666666666</ele><time>2026-04-30T08:07:30.784Z</time></trkpt><trkpt lat="40.702946650778266" lon="9.70808069545934"><ele>8.333333333333332</ele><time>2026-04-30T08:07:31.784Z</time></trkpt><trkpt lat="40.70291917235157" lon="9.708181250131664"><ele>8.5</ele><time>2026-04-30T08:07:32.784Z</time></trkpt><trkpt lat="40.70288902955644" lon="9.708278412079002"><ele>8.666666666666666</ele><time>2026-04-30T08:07:33.784Z</time></trkpt><trkpt lat="40.702856584200106" lon="9.70837398206145"><ele>8.833333333333334</ele><time>2026-04-30T08:07:34.784Z</time></trkpt><trkpt lat="40.70282390275304" lon="9.708465079594813"><ele>9.0</ele><time>2026-04-30T08:07:35.784Z</time></trkpt><trkpt lat="40.70279583837198" lon="9.708559714056197"><ele>9.000000000000002</ele><time>2026-04-30T08:07:36.784Z</time></trkpt><trkpt lat="40.70276337473413" lon="9.70864963058317"><ele>9.0</ele><time>2026-04-30T08:07:37.784Z</time></trkpt><trkpt lat="40.70273215992113" lon="9.708739544847102"><ele>9.0</ele><time>2026-04-30T08:07:38.784Z</time></trkpt><trkpt lat="40.70269701145128" lon="9.708827083444106"><ele>9.0</ele><time>2026-04-30T08:07:39.784Z</time></trkpt><trkpt lat="40.70266576925513" lon="9.708910463392895"><ele>9.0</ele><time>2026-04-30T08:07:40.784Z</time></trkpt><trkpt lat="40.70263818411147" lon="9.708994450717542"><ele>9.000000000000002</ele><time>2026-04-30T08:07:41.784Z</time></trkpt><trkpt lat="40.70261043293081" lon="9.709079372728128"><ele>9.0</ele><time>2026-04-30T08:07:42.784Z</time></trkpt><trkpt lat="40.702581803536006" lon="9.709167906354537"><ele>8.833333333333334</ele><time>2026-04-30T08:07:43.784Z</time></trkpt><trkpt lat="40.70255005914438" lon="9.709255388890453"><ele>8.666666666666666</ele><time>2026-04-30T08:07:44.784Z</time></trkpt><trkpt lat="40.70251462371836" lon="9.709346384980465"><ele>8.5</ele><time>2026-04-30T08:07:45.784Z</time></trkpt><trkpt lat="40.70247555492858" lon="9.70943809263572"><ele>8.333333333333332</ele><time>2026-04-30T08:07:46.784Z</time></trkpt><trkpt lat="40.7024339280906" lon="9.709530139760133"><ele>8.166666666666666</ele><time>2026-04-30T08:07:47.784Z</time></trkpt><trkpt lat="40.70239221424622" lon="9.709624723537226"><ele>8.0</ele><time>2026-04-30T08:07:48.784Z</time></trkpt><trkpt lat="40.70235244670881" lon="9.709718291328116"><ele>7.6000000000000005</ele><time>2026-04-30T08:07:49.784Z</time></trkpt><trkpt lat="40.702316724124" lon="9.709805189026211"><ele>7.200000000000001</ele><time>2026-04-30T08:07:50.784Z</time></trkpt><trkpt lat="40.70227956757418" lon="9.70990352121965"><ele>6.8</ele><time>2026-04-30T08:07:51.783Z</time></trkpt><trkpt lat="40.7022395483577" lon="9.71001538263978"><ele>6.4</ele><time>2026-04-30T08:07:52.783Z</time></trkpt><trkpt lat="40.70219092342088" lon="9.710135707518786"><ele>6.0</ele><time>2026-04-30T08:07:53.785Z</time></trkpt><trkpt lat="40.70213718410709" lon="9.710267876113962"><ele>6.0</ele><time>2026-04-30T08:07:54.785Z</time></trkpt><trkpt lat="40.70207479781857" lon="9.710414176920096"><ele>6.0</ele><time>2026-04-30T08:07:55.785Z</time></trkpt><trkpt lat="40.702008163967804" lon="9.710566042258455"><ele>6.0</ele><time>2026-04-30T08:07:56.785Z</time></trkpt><trkpt lat="40.701938428585116" lon="9.710720348925232"><ele>6.0</ele><time>2026-04-30T08:07:57.785Z</time></trkpt><trkpt lat="40.70186535123889" lon="9.7108883737306"><ele>5.0</ele><time>2026-04-30T08:07:58.785Z</time></trkpt><trkpt lat="40.701786976145435" lon="9.711076776961606"><ele>4.0</ele><time>2026-04-30T08:07:59.786Z</time></trkpt><trkpt lat="40.70170059305917" lon="9.711273606415"><ele>3.0</ele><time>2026-04-30T08:08:00.785Z</time></trkpt><trkpt lat="40.70160645601855" lon="9.711473578867778"><ele>3.0</ele><time>2026-04-30T08:08:01.785Z</time></trkpt><trkpt lat="40.70150200468271" lon="9.711681219156436"><ele>3.0</ele><time>2026-04-30T08:08:02.785Z</time></trkpt><trkpt lat="40.70138949113181" lon="9.711880302854974"><ele>3.0</ele><time>2026-04-30T08:08:03.785Z</time></trkpt><trkpt lat="40.701267083967245" lon="9.712084454167066"><ele>3.0</ele><time>2026-04-30T08:08:04.784Z</time></trkpt><trkpt lat="40.70114024366552" lon="9.712299765524726"><ele>3.0</ele><time>2026-04-30T08:08:05.785Z</time></trkpt><trkpt lat="40.70101315544753" lon="9.71251416449692"><ele>3.0</ele><time>2026-04-30T08:08:06.787Z</time></trkpt><trkpt lat="40.70088543531078" lon="9.712742962070772"><ele>2.6666666666666665</ele><time>2026-04-30T08:08:07.789Z</time></trkpt><trkpt lat="40.70075114050541" lon="9.712962593071698"><ele>2.333333333333333</ele><time>2026-04-30T08:08:08.791Z</time></trkpt><trkpt lat="40.70061953773606" lon="9.713186414848147"><ele>2.0</ele><time>2026-04-30T08:08:09.793Z</time></trkpt><trkpt lat="40.70048733404158" lon="9.713408880895159"><ele>2.333333333333333</ele><time>2026-04-30T08:08:10.795Z</time></trkpt><trkpt lat="40.700359839939374" lon="9.713622178238099"><ele>2.6666666666666665</ele><time>2026-04-30T08:08:11.797Z</time></trkpt><trkpt lat="40.70023627110796" lon="9.713829280304736"><ele>3.0</ele><time>2026-04-30T08:08:12.799Z</time></trkpt><trkpt lat="40.700118631113114" lon="9.71403181074242"><ele>3.666666666666667</ele><time>2026-04-30T08:08:13.8Z</time></trkpt><trkpt lat="40.7000042541925" lon="9.714229106483028"><ele>4.333333333333334</ele><time>2026-04-30T08:08:14.802Z</time></trkpt><trkpt lat="40.69987208599089" lon="9.714415235076112"><ele>5.0</ele><time>2026-04-30T08:08:15.803Z</time></trkpt><trkpt lat="40.69975663838946" lon="9.714602826210056"><ele>5.0</ele><time>2026-04-30T08:08:16.804Z</time></trkpt><trkpt lat="40.69962476366433" lon="9.714760826877061"><ele>5.0</ele><time>2026-04-30T08:08:17.805Z</time></trkpt><trkpt lat="40.699468566238686" lon="9.714895411344829"><ele>5.0</ele><time>2026-04-30T08:08:18.806Z</time></trkpt><trkpt lat="40.699292995564484" lon="9.715000365182597"><ele>5.0</ele><time>2026-04-30T08:08:19.808Z</time></trkpt><trkpt lat="40.699113268627976" lon="9.715092390904713"><ele>5.0</ele><time>2026-04-30T08:08:20.808Z</time></trkpt><trkpt lat="40.698930110044444" lon="9.715176524791358"><ele>5.0</ele><time>2026-04-30T08:08:21.809Z</time></trkpt><trkpt lat="40.69874849556133" lon="9.715271002193"><ele>4.333333333333334</ele><time>2026-04-30T08:08:22.81Z</time></trkpt><trkpt lat="40.69856326491703" lon="9.715360190471978"><ele>3.666666666666667</ele><time>2026-04-30T08:08:23.811Z</time></trkpt><trkpt lat="40.698370084460734" lon="9.715456570645163"><ele>3.0</ele><time>2026-04-30T08:08:24.812Z</time></trkpt><trkpt lat="40.69817756553658" lon="9.715552640244702"><ele>3.0</ele><time>2026-04-30T08:08:25.812Z</time></trkpt><trkpt lat="40.697982252129606" lon="9.715650900422666"><ele>3.0</ele><time>2026-04-30T08:08:26.813Z</time></trkpt><trkpt lat="40.69778904058061" lon="9.715750055903383"><ele>3.0</ele><time>2026-04-30T08:08:27.814Z</time></trkpt><trkpt lat="40.69759686251193" lon="9.715847755370705"><ele>3.0</ele><time>2026-04-30T08:08:28.814Z</time></trkpt><trkpt lat="40.69740159540078" lon="9.71595184713437"><ele>3.0</ele><time>2026-04-30T08:08:29.815Z</time></trkpt><trkpt lat="40.69721249818532" lon="9.716049078411622"><ele>3.0</ele><time>2026-04-30T08:08:30.815Z</time></trkpt><trkpt lat="40.69703566204295" lon="9.716125322644498"><ele>3.666666666666667</ele><time>2026-04-30T08:08:31.816Z</time></trkpt><trkpt lat="40.69686347594259" lon="9.716178214711285"><ele>4.333333333333334</ele><time>2026-04-30T08:08:32.816Z</time></trkpt><trkpt lat="40.69668447607276" lon="9.716190139011038"><ele>5.0</ele><time>2026-04-30T08:08:33.817Z</time></trkpt><trkpt lat="40.69649372244559" lon="9.71614925517524"><ele>5.0</ele><time>2026-04-30T08:08:34.817Z</time></trkpt><trkpt lat="40.69630371303206" lon="9.716073131658701"><ele>5.0</ele><time>2026-04-30T08:08:35.817Z</time></trkpt><trkpt lat="40.696106458743465" lon="9.715984016343352"><ele>5.0</ele><time>2026-04-30T08:08:36.818Z</time></trkpt><trkpt lat="40.695916377288945" lon="9.715885470069882"><ele>4.666666666666667</ele><time>2026-04-30T08:08:37.818Z</time></trkpt><trkpt lat="40.69572583383302" lon="9.715795100144721"><ele>4.333333333333333</ele><time>2026-04-30T08:08:38.818Z</time></trkpt><trkpt lat="40.69554877198549" lon="9.71570955603253"><ele>4.0</ele><time>2026-04-30T08:08:39.818Z</time></trkpt><trkpt lat="40.695368780823785" lon="9.715646584438835"><ele>3.0</ele><time>2026-04-30T08:08:40.819Z</time></trkpt><trkpt lat="40.69520236654143" lon="9.715642485544105"><ele>2.0</ele><time>2026-04-30T08:08:41.819Z</time></trkpt><trkpt lat="40.69506869902377" lon="9.715579339353976"><ele>1.0</ele><time>2026-04-30T08:08:42.819Z</time></trkpt><trkpt lat="40.69489895282086" lon="9.715794479804646"><ele>1.0</ele><time>2026-04-30T08:08:43.819Z</time></trkpt><trkpt lat="40.69478730439239" lon="9.71593883468411"><ele>1.0</ele><time>2026-04-30T08:08:44.82Z</time></trkpt><trkpt lat="40.694682334142215" lon="9.71611325017964"><ele>1.0</ele><time>2026-04-30T08:08:45.82Z</time></trkpt><trkpt lat="40.694573429966795" lon="9.716319040998053"><ele>0.6666666666666666</ele><time>2026-04-30T08:08:46.82Z</time></trkpt><trkpt lat="40.69444284702108" lon="9.716518358501224"><ele>0.3333333333333333</ele><time>2026-04-30T08:08:47.82Z</time></trkpt><trkpt lat="40.6943016508457" lon="9.716712938832725"><ele>0.0</ele><time>2026-04-30T08:08:48.82Z</time></trkpt><trkpt lat="40.6941614329041" lon="9.716897044239376"><ele>0.3333333333333333</ele><time>2026-04-30T08:08:49.82Z</time></trkpt><trkpt lat="40.69400659279912" lon="9.717027243091586"><ele>0.6666666666666666</ele><time>2026-04-30T08:08:50.82Z</time></trkpt><trkpt lat="40.693841839970304" lon="9.7171358436427"><ele>1.0</ele><time>2026-04-30T08:08:51.82Z</time></trkpt><trkpt lat="40.69366067750568" lon="9.71722075465507"><ele>0.6666666666666666</ele><time>2026-04-30T08:08:52.821Z</time></trkpt><trkpt lat="40.693471674523835" lon="9.717305808200804"><ele>0.3333333333333333</ele><time>2026-04-30T08:08:53.821Z</time></trkpt><trkpt lat="40.69327092399134" lon="9.71741864786323"><ele>0.0</ele><time>2026-04-30T08:08:54.821Z</time></trkpt><trkpt lat="40.69306574218313" lon="9.717508123369644"><ele>0.0</ele><time>2026-04-30T08:08:55.821Z</time></trkpt><trkpt lat="40.69285274888314" lon="9.717600011369553"><ele>0.0</ele><time>2026-04-30T08:08:56.821Z</time></trkpt><trkpt lat="40.692638297932234" lon="9.717697726708328"><ele>1.0</ele><time>2026-04-30T08:08:57.821Z</time></trkpt><trkpt lat="40.69242244441495" lon="9.717795193917132"><ele>2.0</ele><time>2026-04-30T08:08:58.821Z</time></trkpt><trkpt lat="40.692206564887194" lon="9.717888837597096"><ele>2.0</ele><time>2026-04-30T08:08:59.821Z</time></trkpt><trkpt lat="40.691992274005095" lon="9.717983785823808"><ele>2.0</ele><time>2026-04-30T08:09:00.821Z</time></trkpt><trkpt lat="40.69177541536811" lon="9.718079677949788"><ele>2.0</ele><time>2026-04-30T08:09:01.821Z</time></trkpt><trkpt lat="40.69155794814724" lon="9.718182471577775"><ele>2.0</ele><time>2026-04-30T08:09:02.821Z</time></trkpt><trkpt lat="40.69134249147528" lon="9.71827888623832"><ele>2.0</ele><time>2026-04-30T08:09:03.821Z</time></trkpt><trkpt lat="40.6911276161201" lon="9.718377019892971"><ele>2.0</ele><time>2026-04-30T08:09:04.821Z</time></trkpt><trkpt lat="40.69091577510126" lon="9.718471124945456"><ele>2.333333333333333</ele><time>2026-04-30T08:09:05.821Z</time></trkpt><trkpt lat="40.69070993014223" lon="9.718565725220628"><ele>2.6666666666666665</ele><time>2026-04-30T08:09:06.821Z</time></trkpt><trkpt lat="40.690508011226235" lon="9.718662414928465"><ele>3.0</ele><time>2026-04-30T08:09:07.821Z</time></trkpt><trkpt lat="40.69030675898206" lon="9.718748843660542"><ele>3.333333333333333</ele><time>2026-04-30T08:09:08.821Z</time></trkpt><trkpt lat="40.69010462854479" lon="9.718829851607811"><ele>3.6666666666666665</ele><time>2026-04-30T08:09:09.821Z</time></trkpt><trkpt lat="40.68990311884464" lon="9.718914056823506"><ele>4.0</ele><time>2026-04-30T08:09:10.821Z</time></trkpt><trkpt lat="40.68970074339155" lon="9.719006563308527"><ele>4.0</ele><time>2026-04-30T08:09:11.821Z</time></trkpt><trkpt lat="40.689499559129544" lon="9.719098973365353"><ele>4.0</ele><time>2026-04-30T08:09:12.821Z</time></trkpt><trkpt lat="40.68929849651775" lon="9.719189825666673"><ele>4.0</ele><time>2026-04-30T08:09:13.821Z</time></trkpt><trkpt lat="40.689097978959914" lon="9.719280439019421"><ele>4.0</ele><time>2026-04-30T08:09:14.821Z</time></trkpt><trkpt lat="40.68889418814227" lon="9.719372222435704"><ele>4.0</ele><time>2026-04-30T08:09:15.821Z</time></trkpt><trkpt lat="40.6886921325852" lon="9.719462675520829"><ele>4.0</ele><time>2026-04-30T08:09:16.821Z</time></trkpt><trkpt lat="40.6884913227937" lon="9.719552295400478"><ele>4.333333333333333</ele><time>2026-04-30T08:09:17.821Z</time></trkpt><trkpt lat="40.68828555214356" lon="9.719646471310268"><ele>4.666666666666667</ele><time>2026-04-30T08:09:18.821Z</time></trkpt><trkpt lat="40.68808194983421" lon="9.719736027989677"><ele>5.0</ele><time>2026-04-30T08:09:19.821Z</time></trkpt><trkpt lat="40.68787385266109" lon="9.719832307396265"><ele>5.333333333333334</ele><time>2026-04-30T08:09:20.821Z</time></trkpt><trkpt lat="40.68766498988273" lon="9.719927581269804"><ele>5.666666666666667</ele><time>2026-04-30T08:09:21.821Z</time></trkpt><trkpt lat="40.68745689929141" lon="9.720031098739998"><ele>6.0</ele><time>2026-04-30T08:09:22.821Z</time></trkpt><trkpt lat="40.687249142024946" lon="9.720140211368532"><ele>7.5</ele><time>2026-04-30T08:09:23.821Z</time></trkpt><trkpt lat="40.68703694789181" lon="9.720259664298522"><ele>9.0</ele><time>2026-04-30T08:09:24.821Z</time></trkpt><trkpt lat="40.68682698622341" lon="9.720382944841395"><ele>10.0</ele><time>2026-04-30T08:09:25.821Z</time></trkpt><trkpt lat="40.686610587058155" lon="9.720498392657042"><ele>11.0</ele><time>2026-04-30T08:09:26.821Z</time></trkpt><trkpt lat="40.68639555393012" lon="9.720621497962624"><ele>11.0</ele><time>2026-04-30T08:09:27.821Z</time></trkpt><trkpt lat="40.68618018584816" lon="9.720751771738149"><ele>11.0</ele><time>2026-04-30T08:09:28.821Z</time></trkpt><trkpt lat="40.68596566168058" lon="9.72087532557643"><ele>12.0</ele><time>2026-04-30T08:09:29.821Z</time></trkpt><trkpt lat="40.68575148202826" lon="9.720996303042407"><ele>13.0</ele><time>2026-04-30T08:09:30.821Z</time></trkpt><trkpt lat="40.68553652912509" lon="9.721120060412517"><ele>14.0</ele><time>2026-04-30T08:09:31.821Z</time></trkpt><trkpt lat="40.68532923320107" lon="9.721243965821236"><ele>15.0</ele><time>2026-04-30T08:09:32.821Z</time></trkpt><trkpt lat="40.6851228168489" lon="9.721359104275473"><ele>15.333333333333332</ele><time>2026-04-30T08:09:33.821Z</time></trkpt><trkpt lat="40.684919661919025" lon="9.721474755922417"><ele>15.666666666666666</ele><time>2026-04-30T08:09:34.821Z</time></trkpt><trkpt lat="40.684716352673" lon="9.721593376829675"><ele>16.0</ele><time>2026-04-30T08:09:35.821Z</time></trkpt><trkpt lat="40.68451602468627" lon="9.721703396135526"><ele>16.0</ele><time>2026-04-30T08:09:36.821Z</time></trkpt><trkpt lat="40.68431890869659" lon="9.72181881085613"><ele>16.0</ele><time>2026-04-30T08:09:37.821Z</time></trkpt><trkpt lat="40.68412195057026" lon="9.721935857845779"><ele>16.0</ele><time>2026-04-30T08:09:38.821Z</time></trkpt><trkpt lat="40.683927436599014" lon="9.722048553656904"><ele>17.666666666666664</ele><time>2026-04-30T08:09:39.821Z</time></trkpt><trkpt lat="40.683742084501915" lon="9.722175138321557"><ele>19.333333333333332</ele><time>2026-04-30T08:09:40.821Z</time></trkpt><trkpt lat="40.68356733756307" lon="9.722315828897056"><ele>21.0</ele><time>2026-04-30T08:09:41.821Z</time></trkpt><trkpt lat="40.683410056570246" lon="9.722477961853164"><ele>21.0</ele><time>2026-04-30T08:09:42.821Z</time></trkpt><trkpt lat="40.683263965262796" lon="9.722657704064366"><ele>21.0</ele><time>2026-04-30T08:09:43.821Z</time></trkpt><trkpt lat="40.683132730434394" lon="9.722854933201551"><ele>21.0</ele><time>2026-04-30T08:09:44.821Z</time></trkpt><trkpt lat="40.683011112111004" lon="9.723059698511314"><ele>22.666666666666664</ele><time>2026-04-30T08:09:45.821Z</time></trkpt><trkpt lat="40.68290766537807" lon="9.723280791899583"><ele>24.333333333333332</ele><time>2026-04-30T08:09:46.821Z</time></trkpt><trkpt lat="40.68279515915666" lon="9.723497435575453"><ele>26.0</ele><time>2026-04-30T08:09:47.821Z</time></trkpt><trkpt lat="40.6826797662044" lon="9.723715183731352"><ele>26.666666666666664</ele><time>2026-04-30T08:09:48.821Z</time></trkpt><trkpt lat="40.682566094075796" lon="9.723931740581948"><ele>27.333333333333336</ele><time>2026-04-30T08:09:49.821Z</time></trkpt><trkpt lat="40.682437171187615" lon="9.724136362480543"><ele>28.0</ele><time>2026-04-30T08:09:50.821Z</time></trkpt><trkpt lat="40.682322527727855" lon="9.724351648505031"><ele>29.0</ele><time>2026-04-30T08:09:51.821Z</time></trkpt><trkpt lat="40.68223050254336" lon="9.72458238752199"><ele>30.0</ele><time>2026-04-30T08:09:52.821Z</time></trkpt><trkpt lat="40.682114787077154" lon="9.72478662211831"><ele>31.0</ele><time>2026-04-30T08:09:53.821Z</time></trkpt><trkpt lat="40.68200105093524" lon="9.72499125084269"><ele>31.333333333333336</ele><time>2026-04-30T08:09:54.82Z</time></trkpt><trkpt lat="40.681890509600194" lon="9.72519442352577"><ele>31.666666666666664</ele><time>2026-04-30T08:09:55.82Z</time></trkpt><trkpt lat="40.68179007466787" lon="9.725407645729499"><ele>32.0</ele><time>2026-04-30T08:09:56.82Z</time></trkpt><trkpt lat="40.68172249044435" lon="9.725627390871576"><ele>32.666666666666664</ele><time>2026-04-30T08:09:57.82Z</time></trkpt><trkpt lat="40.681682577282814" lon="9.725859765794114"><ele>33.333333333333336</ele><time>2026-04-30T08:09:58.82Z</time></trkpt><trkpt lat="40.681646468787406" lon="9.726088528331251"><ele>34.0</ele><time>2026-04-30T08:09:59.822Z</time></trkpt><trkpt lat="40.681608545336864" lon="9.726318350945213"><ele>34.333333333333336</ele><time>2026-04-30T08:10:00.822Z</time></trkpt><trkpt lat="40.68156367940382" lon="9.726546139170212"><ele>34.666666666666664</ele><time>2026-04-30T08:10:01.822Z</time></trkpt><trkpt lat="40.68151140101066" lon="9.72677843926978"><ele>35.0</ele><time>2026-04-30T08:10:02.823Z</time></trkpt><trkpt lat="40.68144556176085" lon="9.72700559124282"><ele>34.0</ele><time>2026-04-30T08:10:03.822Z</time></trkpt><trkpt lat="40.681369485808894" lon="9.727232383906292"><ele>33.0</ele><time>2026-04-30T08:10:04.822Z</time></trkpt><trkpt lat="40.68129179707971" lon="9.727464444057242"><ele>32.0</ele><time>2026-04-30T08:10:05.822Z</time></trkpt><trkpt lat="40.68121072779801" lon="9.7277004125288"><ele>31.333333333333332</ele><time>2026-04-30T08:10:06.822Z</time></trkpt><trkpt lat="40.68112366767473" lon="9.727943450993983"><ele>30.666666666666664</ele><time>2026-04-30T08:10:07.822Z</time></trkpt><trkpt lat="40.68103636520855" lon="9.728195685766662"><ele>30.0</ele><time>2026-04-30T08:10:08.822Z</time></trkpt><trkpt lat="40.68094852220524" lon="9.728447231575945"><ele>28.333333333333336</ele><time>2026-04-30T08:10:09.822Z</time></trkpt><trkpt lat="40.680859476473806" lon="9.728706758387547"><ele>26.666666666666668</ele><time>2026-04-30T08:10:10.822Z</time></trkpt><trkpt lat="40.6807693146502" lon="9.728966036493079"><ele>25.0</ele><time>2026-04-30T08:10:11.822Z</time></trkpt><trkpt lat="40.680677404882026" lon="9.729237949833875"><ele>25.0</ele><time>2026-04-30T08:10:12.821Z</time></trkpt><trkpt lat="40.68058550224424" lon="9.729511721134969"><ele>25.0</ele><time>2026-04-30T08:10:13.821Z</time></trkpt><trkpt lat="40.68049102455702" lon="9.729788902337734"><ele>25.0</ele><time>2026-04-30T08:10:14.821Z</time></trkpt><trkpt lat="40.68039157103018" lon="9.730062890428014"><ele>25.0</ele><time>2026-04-30T08:10:15.821Z</time></trkpt><trkpt lat="40.680299888074565" lon="9.730340815790761"><ele>27.5</ele><time>2026-04-30T08:10:16.821Z</time></trkpt><trkpt lat="40.680208411058686" lon="9.73061128694254"><ele>30.0</ele><time>2026-04-30T08:10:17.821Z</time></trkpt><trkpt lat="40.68011055843273" lon="9.7308806966459"><ele>27.5</ele><time>2026-04-30T08:10:18.821Z</time></trkpt><trkpt lat="40.68000565275116" lon="9.731148675225153"><ele>25.0</ele><time>2026-04-30T08:10:19.821Z</time></trkpt><trkpt lat="40.67989065548722" lon="9.73141209205161"><ele>25.0</ele><time>2026-04-30T08:10:20.821Z</time></trkpt><trkpt lat="40.679779983260424" lon="9.731668380405022"><ele>25.0</ele><time>2026-04-30T08:10:21.821Z</time></trkpt><trkpt lat="40.67967922040592" lon="9.731896211558189"><ele>25.0</ele><time>2026-04-30T08:10:22.821Z</time></trkpt><trkpt lat="40.67959741341709" lon="9.732145976938861"><ele>24.333333333333336</ele><time>2026-04-30T08:10:23.821Z</time></trkpt><trkpt lat="40.67954452347014" lon="9.732391688348752"><ele>23.666666666666668</ele><time>2026-04-30T08:10:24.821Z</time></trkpt><trkpt lat="40.67950547774437" lon="9.73263774476457"><ele>23.0</ele><time>2026-04-30T08:10:25.821Z</time></trkpt><trkpt lat="40.67946556794083" lon="9.732908849563897"><ele>23.0</ele><time>2026-04-30T08:10:26.821Z</time></trkpt><trkpt lat="40.679434180395205" lon="9.733171259741512"><ele>23.0</ele><time>2026-04-30T08:10:27.821Z</time></trkpt><trkpt lat="40.67941077542963" lon="9.73342697990892"><ele>23.0</ele><time>2026-04-30T08:10:28.821Z</time></trkpt><trkpt lat="40.679165617363104" lon="9.734009291790068"><ele>24.5</ele><time>2026-04-30T08:10:29.821Z</time></trkpt><trkpt lat="40.67911183424822" lon="9.734302456537366"><ele>26.0</ele><time>2026-04-30T08:10:30.821Z</time></trkpt><trkpt lat="40.679056342617834" lon="9.73459313010139"><ele>27.5</ele><time>2026-04-30T08:10:31.821Z</time></trkpt><trkpt lat="40.67900294009209" lon="9.734884313564244"><ele>29.0</ele><time>2026-04-30T08:10:32.821Z</time></trkpt><trkpt lat="40.67895087126822" lon="9.735174591983752"><ele>28.0</ele><time>2026-04-30T08:10:33.821Z</time></trkpt><trkpt lat="40.67889505654417" lon="9.735464680471148"><ele>27.0</ele><time>2026-04-30T08:10:34.821Z</time></trkpt><trkpt lat="40.67883680928553" lon="9.7357573860093"><ele>27.0</ele><time>2026-04-30T08:10:35.821Z</time></trkpt><trkpt lat="40.67877572697659" lon="9.736049703985966"><ele>27.0</ele><time>2026-04-30T08:10:36.821Z</time></trkpt><trkpt lat="40.67871684184385" lon="9.736344703698304"><ele>25.0</ele><time>2026-04-30T08:10:37.821Z</time></trkpt><trkpt lat="40.67866028164242" lon="9.736640058913386"><ele>23.0</ele><time>2026-04-30T08:10:38.821Z</time></trkpt><trkpt lat="40.67860217056386" lon="9.736937856531846"><ele>25.0</ele><time>2026-04-30T08:10:39.821Z</time></trkpt><trkpt lat="40.678545891636695" lon="9.73723675578927"><ele>27.0</ele><time>2026-04-30T08:10:40.821Z</time></trkpt><trkpt lat="40.67849150507913" lon="9.737535277312826"><ele>27.0</ele><time>2026-04-30T08:10:41.821Z</time></trkpt><trkpt lat="40.67843712383946" lon="9.737831127727462"><ele>27.0</ele><time>2026-04-30T08:10:42.82Z</time></trkpt><trkpt lat="40.67837995106699" lon="9.738128287260743"><ele>27.0</ele><time>2026-04-30T08:10:43.82Z</time></trkpt><trkpt lat="40.67832022020968" lon="9.738425637935176"><ele>27.0</ele><time>2026-04-30T08:10:44.82Z</time></trkpt><trkpt lat="40.6782615231168" lon="9.73871855080756"><ele>27.0</ele><time>2026-04-30T08:10:45.82Z</time></trkpt><trkpt lat="40.67820410915594" lon="9.73901480745741"><ele>27.0</ele><time>2026-04-30T08:10:46.82Z</time></trkpt><trkpt lat="40.67814581198463" lon="9.739306713092502"><ele>25.5</ele><time>2026-04-30T08:10:47.82Z</time></trkpt><trkpt lat="40.67809056839731" lon="9.739600162912568"><ele>24.0</ele><time>2026-04-30T08:10:48.82Z</time></trkpt><trkpt lat="40.6780359059831" lon="9.7398900139592"><ele>24.0</ele><time>2026-04-30T08:10:49.82Z</time></trkpt><trkpt lat="40.677976967134" lon="9.740184147143328"><ele>24.0</ele><time>2026-04-30T08:10:50.82Z</time></trkpt><trkpt lat="40.677917739257474" lon="9.740480351926003"><ele>23.5</ele><time>2026-04-30T08:10:51.82Z</time></trkpt><trkpt lat="40.67785655003304" lon="9.740782003150048"><ele>23.0</ele><time>2026-04-30T08:10:52.82Z</time></trkpt><trkpt lat="40.67780092520752" lon="9.741082226805561"><ele>22.666666666666668</ele><time>2026-04-30T08:10:53.82Z</time></trkpt><trkpt lat="40.67774454928829" lon="9.741374509215339"><ele>22.333333333333332</ele><time>2026-04-30T08:10:54.82Z</time></trkpt><trkpt lat="40.677689391414134" lon="9.741656193142228"><ele>22.0</ele><time>2026-04-30T08:10:55.82Z</time></trkpt><trkpt lat="40.677636040194606" lon="9.741931702034817"><ele>21.333333333333332</ele><time>2026-04-30T08:10:56.82Z</time></trkpt><trkpt lat="40.677584934071625" lon="9.74220589991146"><ele>20.666666666666668</ele><time>2026-04-30T08:10:57.82Z</time></trkpt><trkpt lat="40.677527611872534" lon="9.74247821694725"><ele>20.0</ele><time>2026-04-30T08:10:58.82Z</time></trkpt><trkpt lat="40.67747509997914" lon="9.742756393571359"><ele>19.0</ele><time>2026-04-30T08:10:59.82Z</time></trkpt><trkpt lat="40.677423554608616" lon="9.743025945960635"><ele>18.0</ele><time>2026-04-30T08:11:00.82Z</time></trkpt><trkpt lat="40.677377416300594" lon="9.743297754421778"><ele>17.0</ele><time>2026-04-30T08:11:01.82Z</time></trkpt><trkpt lat="40.67732502064837" lon="9.743557950182653"><ele>15.666666666666668</ele><time>2026-04-30T08:11:02.82Z</time></trkpt><trkpt lat="40.677280713754385" lon="9.743801925412255"><ele>14.333333333333332</ele><time>2026-04-30T08:11:03.82Z</time></trkpt><trkpt lat="40.677218151639885" lon="9.744015566554618"><ele>13.0</ele><time>2026-04-30T08:11:04.82Z</time></trkpt><trkpt lat="40.67711674922416" lon="9.744203343294641"><ele>13.0</ele><time>2026-04-30T08:11:05.82Z</time></trkpt><trkpt lat="40.67696973171741" lon="9.744332912394498"><ele>13.0</ele><time>2026-04-30T08:11:06.82Z</time></trkpt><trkpt lat="40.67679996314699" lon="9.744423086481296"><ele>13.0</ele><time>2026-04-30T08:11:07.82Z</time></trkpt><trkpt lat="40.67667760599956" lon="9.744478800427276"><ele>12.333333333333332</ele><time>2026-04-30T08:11:08.82Z</time></trkpt><trkpt lat="40.67654864882188" lon="9.744539804202448"><ele>11.666666666666666</ele><time>2026-04-30T08:11:09.82Z</time></trkpt><trkpt lat="40.67638862062732" lon="9.744695281148475"><ele>11.0</ele><time>2026-04-30T08:11:10.82Z</time></trkpt><trkpt lat="40.67615594285608" lon="9.745007840288867"><ele>10.666666666666666</ele><time>2026-04-30T08:11:11.82Z</time></trkpt><trkpt lat="40.6759787222505" lon="9.745197735746506"><ele>10.333333333333334</ele><time>2026-04-30T08:11:12.819Z</time></trkpt><trkpt lat="40.67581051323469" lon="9.745369152912534"><ele>10.0</ele><time>2026-04-30T08:11:13.819Z</time></trkpt><trkpt lat="40.67564826384913" lon="9.74552403675499"><ele>10.0</ele><time>2026-04-30T08:11:14.819Z</time></trkpt><trkpt lat="40.67548746003065" lon="9.745698568622776"><ele>10.0</ele><time>2026-04-30T08:11:15.819Z</time></trkpt><trkpt lat="40.67533746396179" lon="9.745886407453725"><ele>10.0</ele><time>2026-04-30T08:11:16.819Z</time></trkpt><trkpt lat="40.67518149953937" lon="9.746070932226887"><ele>9.666666666666668</ele><time>2026-04-30T08:11:17.819Z</time></trkpt><trkpt lat="40.67505884673441" lon="9.746293612403454"><ele>9.333333333333334</ele><time>2026-04-30T08:11:18.819Z</time></trkpt><trkpt lat="40.67494399161691" lon="9.746513906967497"><ele>9.0</ele><time>2026-04-30T08:11:19.819Z</time></trkpt><trkpt lat="40.67482235033229" lon="9.746721533373018"><ele>7.333333333333333</ele><time>2026-04-30T08:11:20.819Z</time></trkpt><trkpt lat="40.67467850717037" lon="9.746905128340176"><ele>5.666666666666666</ele><time>2026-04-30T08:11:21.819Z</time></trkpt><trkpt lat="40.6745246215014" lon="9.74707640929823"><ele>4.0</ele><time>2026-04-30T08:11:22.819Z</time></trkpt><trkpt lat="40.67436003511468" lon="9.747235593992949"><ele>5.0</ele><time>2026-04-30T08:11:23.819Z</time></trkpt><trkpt lat="40.674200969665016" lon="9.747409164186045"><ele>6.0</ele><time>2026-04-30T08:11:24.819Z</time></trkpt><trkpt lat="40.674051857382764" lon="9.747599215437754"><ele>7.0</ele><time>2026-04-30T08:11:25.819Z</time></trkpt><trkpt lat="40.67391100455532" lon="9.747803780641389"><ele>7.0</ele><time>2026-04-30T08:11:26.819Z</time></trkpt><trkpt lat="40.67377600911406" lon="9.748019223549298"><ele>7.0</ele><time>2026-04-30T08:11:27.819Z</time></trkpt><trkpt lat="40.67364098458384" lon="9.748235243491406"><ele>7.0</ele><time>2026-04-30T08:11:28.819Z</time></trkpt><trkpt lat="40.67349897183411" lon="9.74844424054167"><ele>7.666666666666667</ele><time>2026-04-30T08:11:29.819Z</time></trkpt><trkpt lat="40.67334808306434" lon="9.748647616687018"><ele>8.333333333333334</ele><time>2026-04-30T08:11:30.819Z</time></trkpt><trkpt lat="40.67319145966266" lon="9.748845624390837"><ele>9.0</ele><time>2026-04-30T08:11:31.819Z</time></trkpt><trkpt lat="40.673038020915826" lon="9.749019610005949"><ele>9.0</ele><time>2026-04-30T08:11:32.819Z</time></trkpt><trkpt lat="40.672900871626155" lon="9.749163009797936"><ele>9.0</ele><time>2026-04-30T08:11:33.819Z</time></trkpt><trkpt lat="40.672761746808064" lon="9.749250875153209"><ele>9.0</ele><time>2026-04-30T08:11:34.819Z</time></trkpt><trkpt lat="40.672602013899656" lon="9.749305588726667"><ele>9.666666666666666</ele><time>2026-04-30T08:11:35.819Z</time></trkpt><trkpt lat="40.6724425869566" lon="9.749274156725699"><ele>10.333333333333332</ele><time>2026-04-30T08:11:36.819Z</time></trkpt><trkpt lat="40.67228185968161" lon="9.749202828115495"><ele>11.0</ele><time>2026-04-30T08:11:37.819Z</time></trkpt><trkpt lat="40.67212086915402" lon="9.749115425130535"><ele>11.0</ele><time>2026-04-30T08:11:38.819Z</time></trkpt><trkpt lat="40.67194462915272" lon="9.7490251949163"><ele>11.0</ele><time>2026-04-30T08:11:39.819Z</time></trkpt><trkpt lat="40.67176278941006" lon="9.748927936403021"><ele>11.0</ele><time>2026-04-30T08:11:40.819Z</time></trkpt><trkpt lat="40.671570087862904" lon="9.74882860110826"><ele>10.333333333333332</ele><time>2026-04-30T08:11:41.819Z</time></trkpt><trkpt lat="40.671372358631835" lon="9.748721619814594"><ele>9.666666666666666</ele><time>2026-04-30T08:11:42.818Z</time></trkpt><trkpt lat="40.67116441691924" lon="9.748617004515467"><ele>9.0</ele><time>2026-04-30T08:11:43.818Z</time></trkpt><trkpt lat="40.67095508166764" lon="9.748507259040862"><ele>8.0</ele><time>2026-04-30T08:11:44.818Z</time></trkpt><trkpt lat="40.67074193116195" lon="9.74839256736853"><ele>7.0</ele><time>2026-04-30T08:11:45.818Z</time></trkpt><trkpt lat="40.67052768583139" lon="9.748270252164456"><ele>7.0</ele><time>2026-04-30T08:11:46.818Z</time></trkpt><trkpt lat="40.67031143012138" lon="9.748150398625224"><ele>7.0</ele><time>2026-04-30T08:11:47.818Z</time></trkpt><trkpt lat="40.67009327021685" lon="9.748035138876226"><ele>7.0</ele><time>2026-04-30T08:11:48.818Z</time></trkpt><trkpt lat="40.669875986123365" lon="9.747921106394275"><ele>7.0</ele><time>2026-04-30T08:11:49.818Z</time></trkpt><trkpt lat="40.66966926218105" lon="9.747823012853074"><ele>7.0</ele><time>2026-04-30T08:11:50.818Z</time></trkpt><trkpt lat="40.66946559815281" lon="9.747722067551676"><ele>7.0</ele><time>2026-04-30T08:11:51.818Z</time></trkpt><trkpt lat="40.66926177338632" lon="9.74759558435635"><ele>7.0</ele><time>2026-04-30T08:11:52.818Z</time></trkpt><trkpt lat="40.66905176056346" lon="9.747483073085121"><ele>5.5</ele><time>2026-04-30T08:11:53.818Z</time></trkpt><trkpt lat="40.66883700269476" lon="9.747368019502229"><ele>4.0</ele><time>2026-04-30T08:11:54.818Z</time></trkpt><trkpt lat="40.66862083103361" lon="9.747256513547635"><ele>5.5</ele><time>2026-04-30T08:11:55.818Z</time></trkpt><trkpt lat="40.668408489888996" lon="9.74713431482754"><ele>7.0</ele><time>2026-04-30T08:11:56.818Z</time></trkpt><trkpt lat="40.668189341556534" lon="9.747017466569499"><ele>7.0</ele><time>2026-04-30T08:11:57.818Z</time></trkpt><trkpt lat="40.66796739322174" lon="9.746894566847617"><ele>7.0</ele><time>2026-04-30T08:11:58.818Z</time></trkpt><trkpt lat="40.667747092322" lon="9.74678078492063"><ele>8.0</ele><time>2026-04-30T08:11:59.818Z</time></trkpt><trkpt lat="40.667528093271955" lon="9.746667868186513"><ele>9.0</ele><time>2026-04-30T08:12:00.818Z</time></trkpt><trkpt lat="40.66731474109952" lon="9.746556799814622"><ele>9.0</ele><time>2026-04-30T08:12:01.818Z</time></trkpt><trkpt lat="40.667099405450884" lon="9.746425208342993"><ele>9.0</ele><time>2026-04-30T08:12:02.818Z</time></trkpt><trkpt lat="40.66689296822019" lon="9.746274192270343"><ele>8.5</ele><time>2026-04-30T08:12:03.818Z</time></trkpt><trkpt lat="40.66669147460205" lon="9.746108382244818"><ele>8.0</ele><time>2026-04-30T08:12:04.818Z</time></trkpt><trkpt lat="40.66649454840539" lon="9.745926503704245"><ele>7.5</ele><time>2026-04-30T08:12:05.819Z</time></trkpt><trkpt lat="40.66629604138037" lon="9.745743285584656"><ele>7.0</ele><time>2026-04-30T08:12:06.82Z</time></trkpt><trkpt lat="40.66609189648892" lon="9.745566734485621"><ele>7.0</ele><time>2026-04-30T08:12:07.82Z</time></trkpt><trkpt lat="40.665884736866445" lon="9.74539265268897"><ele>7.0</ele><time>2026-04-30T08:12:08.819Z</time></trkpt><trkpt lat="40.66568117470026" lon="9.745216779683027"><ele>10.0</ele><time>2026-04-30T08:12:09.819Z</time></trkpt><trkpt lat="40.665479321423945" lon="9.745041082367893"><ele>13.0</ele><time>2026-04-30T08:12:10.819Z</time></trkpt><trkpt lat="40.665279625847525" lon="9.74486343392587"><ele>11.0</ele><time>2026-04-30T08:12:11.819Z</time></trkpt><trkpt lat="40.66508284531768" lon="9.744690538007742"><ele>9.0</ele><time>2026-04-30T08:12:12.82Z</time></trkpt><trkpt lat="40.66488615896129" lon="9.744522153082855"><ele>12.5</ele><time>2026-04-30T08:12:13.82Z</time></trkpt><trkpt lat="40.66469499848763" lon="9.74435472587942"><ele>16.0</ele><time>2026-04-30T08:12:14.819Z</time></trkpt><trkpt lat="40.664501731743776" lon="9.744186264874076"><ele>13.0</ele><time>2026-04-30T08:12:15.82Z</time></trkpt><trkpt lat="40.66430452818266" lon="9.744014702790388"><ele>10.0</ele><time>2026-04-30T08:12:16.82Z</time></trkpt><trkpt lat="40.66410993091376" lon="9.743835286604504"><ele>10.0</ele><time>2026-04-30T08:12:17.82Z</time></trkpt><trkpt lat="40.66390722825242" lon="9.743665885657272"><ele>10.0</ele><time>2026-04-30T08:12:18.819Z</time></trkpt><trkpt lat="40.66370752498588" lon="9.743483431961325"><ele>10.5</ele><time>2026-04-30T08:12:19.819Z</time></trkpt><trkpt lat="40.66350016285358" lon="9.74330542290477"><ele>11.0</ele><time>2026-04-30T08:12:20.819Z</time></trkpt><trkpt lat="40.663296647969595" lon="9.743129347977467"><ele>11.0</ele><time>2026-04-30T08:12:21.819Z</time></trkpt><trkpt lat="40.66309606655312" lon="9.742952977607771"><ele>11.0</ele><time>2026-04-30T08:12:22.819Z</time></trkpt><trkpt lat="40.662892475442725" lon="9.742776932289523"><ele>13.0</ele><time>2026-04-30T08:12:23.819Z</time></trkpt><trkpt lat="40.66269307708449" lon="9.742606018295252"><ele>15.0</ele><time>2026-04-30T08:12:24.819Z</time></trkpt><trkpt lat="40.66249098675567" lon="9.742432136796324"><ele>15.0</ele><time>2026-04-30T08:12:25.819Z</time></trkpt><trkpt lat="40.66229213760965" lon="9.74225701465748"><ele>15.0</ele><time>2026-04-30T08:12:26.819Z</time></trkpt><trkpt lat="40.66209196997122" lon="9.742079333675017"><ele>16.0</ele><time>2026-04-30T08:12:27.819Z</time></trkpt><trkpt lat="40.66189176598738" lon="9.741907315521914"><ele>17.0</ele><time>2026-04-30T08:12:28.819Z</time></trkpt><trkpt lat="40.66169415098538" lon="9.74173901848681"><ele>17.5</ele><time>2026-04-30T08:12:29.819Z</time></trkpt><trkpt lat="40.661499649324895" lon="9.741572129164986"><ele>18.0</ele><time>2026-04-30T08:12:30.819Z</time></trkpt><trkpt lat="40.66131848521034" lon="9.741411234437159"><ele>18.0</ele><time>2026-04-30T08:12:31.819Z</time></trkpt><trkpt lat="40.66115418859095" lon="9.741254664361986"><ele>18.0</ele><time>2026-04-30T08:12:32.819Z</time></trkpt><trkpt lat="40.6610173198418" lon="9.74109289953796"><ele>18.0</ele><time>2026-04-30T08:12:33.819Z</time></trkpt><trkpt lat="40.66090029072221" lon="9.740903056356482"><ele>18.333333333333332</ele><time>2026-04-30T08:12:34.819Z</time></trkpt><trkpt lat="40.66080325996735" lon="9.740695982714385"><ele>18.666666666666664</ele><time>2026-04-30T08:12:35.819Z</time></trkpt><trkpt lat="40.66073093194671" lon="9.740466644172555"><ele>19.0</ele><time>2026-04-30T08:12:36.819Z</time></trkpt><trkpt lat="40.66065387230496" lon="9.74023983568776"><ele>19.666666666666664</ele><time>2026-04-30T08:12:37.819Z</time></trkpt><trkpt lat="40.660567931951086" lon="9.740006499377605"><ele>20.333333333333332</ele><time>2026-04-30T08:12:38.819Z</time></trkpt><trkpt lat="40.66047305897734" lon="9.73976725016887"><ele>21.0</ele><time>2026-04-30T08:12:39.819Z</time></trkpt><trkpt lat="40.66037521534769" lon="9.73952154686444"><ele>20.0</ele><time>2026-04-30T08:12:40.819Z</time></trkpt><trkpt lat="40.66027538261177" lon="9.739266340800008"><ele>19.0</ele><time>2026-04-30T08:12:41.819Z</time></trkpt><trkpt lat="40.6601738741183" lon="9.739006303641641"><ele>18.0</ele><time>2026-04-30T08:12:42.819Z</time></trkpt><trkpt lat="40.66006664995881" lon="9.738740067306574"><ele>17.5</ele><time>2026-04-30T08:12:43.819Z</time></trkpt><trkpt lat="40.65995800301685" lon="9.738463437765942"><ele>17.0</ele><time>2026-04-30T08:12:44.818Z</time></trkpt><trkpt lat="40.6598445702742" lon="9.738182503756036"><ele>17.0</ele><time>2026-04-30T08:12:45.818Z</time></trkpt><trkpt lat="40.65973395660268" lon="9.737896386893429"><ele>17.0</ele><time>2026-04-30T08:12:46.818Z</time></trkpt><trkpt lat="40.65962658133119" lon="9.737612657609809"><ele>17.0</ele><time>2026-04-30T08:12:47.818Z</time></trkpt><trkpt lat="40.65952730847475" lon="9.737343755494512"><ele>17.0</ele><time>2026-04-30T08:12:48.818Z</time></trkpt><trkpt lat="40.659429420898384" lon="9.737088372492309"><ele>17.0</ele><time>2026-04-30T08:12:49.818Z</time></trkpt><trkpt lat="40.65933092608579" lon="9.736838863216072"><ele>15.333333333333334</ele><time>2026-04-30T08:12:50.818Z</time></trkpt><trkpt lat="40.65923687934269" lon="9.736602868714144"><ele>13.666666666666668</ele><time>2026-04-30T08:12:51.818Z</time></trkpt><trkpt lat="40.6591459303108" lon="9.736374135572479"><ele>12.0</ele><time>2026-04-30T08:12:52.818Z</time></trkpt><trkpt lat="40.65906083647005" lon="9.73615472719452"><ele>11.666666666666666</ele><time>2026-04-30T08:12:53.818Z</time></trkpt><trkpt lat="40.658981695350256" lon="9.735943642426875"><ele>11.333333333333332</ele><time>2026-04-30T08:12:54.818Z</time></trkpt><trkpt lat="40.65890163801195" lon="9.73574149613536"><ele>11.0</ele><time>2026-04-30T08:12:55.818Z</time></trkpt><trkpt lat="40.65882330860316" lon="9.735545943821114"><ele>11.0</ele><time>2026-04-30T08:12:56.818Z</time></trkpt><trkpt lat="40.658746623931336" lon="9.735347847328384"><ele>11.0</ele><time>2026-04-30T08:12:57.818Z</time></trkpt><trkpt lat="40.65866849740218" lon="9.735140023804187"><ele>11.0</ele><time>2026-04-30T08:12:58.818Z</time></trkpt><trkpt lat="40.65858773022401" lon="9.73492785923201"><ele>10.0</ele><time>2026-04-30T08:12:59.818Z</time></trkpt><trkpt lat="40.65850617024251" lon="9.734714275149598"><ele>9.0</ele><time>2026-04-30T08:13:00.818Z</time></trkpt><trkpt lat="40.658424433640064" lon="9.7344996813725"><ele>8.0</ele><time>2026-04-30T08:13:01.818Z</time></trkpt><trkpt lat="40.658343853652006" lon="9.73428695314736"><ele>8.0</ele><time>2026-04-30T08:13:02.818Z</time></trkpt><trkpt lat="40.658262378022734" lon="9.73407759339144"><ele>8.0</ele><time>2026-04-30T08:13:03.818Z</time></trkpt><trkpt lat="40.65817916198357" lon="9.733871125748932"><ele>8.0</ele><time>2026-04-30T08:13:04.818Z</time></trkpt><trkpt lat="40.65809589205401" lon="9.733663523914302"><ele>8.0</ele><time>2026-04-30T08:13:05.818Z</time></trkpt><trkpt lat="40.658012101517244" lon="9.733458841437214"><ele>8.0</ele><time>2026-04-30T08:13:06.818Z</time></trkpt><trkpt lat="40.657925100404725" lon="9.733254986928277"><ele>8.0</ele><time>2026-04-30T08:13:07.818Z</time></trkpt><trkpt lat="40.65783863239274" lon="9.733050361514183"><ele>7.333333333333333</ele><time>2026-04-30T08:13:08.818Z</time></trkpt><trkpt lat="40.657747764218456" lon="9.732849942765007"><ele>6.666666666666666</ele><time>2026-04-30T08:13:09.818Z</time></trkpt><trkpt lat="40.65765530434665" lon="9.732654814480572"><ele>6.0</ele><time>2026-04-30T08:13:10.818Z</time></trkpt><trkpt lat="40.65756049562048" lon="9.73245791820846"><ele>6.0</ele><time>2026-04-30T08:13:11.818Z</time></trkpt><trkpt lat="40.657465586221704" lon="9.732265914720951"><ele>6.0</ele><time>2026-04-30T08:13:12.818Z</time></trkpt><trkpt lat="40.65737028291033" lon="9.732064712761995"><ele>6.0</ele><time>2026-04-30T08:13:13.818Z</time></trkpt><trkpt lat="40.6572691120179" lon="9.731858220054281"><ele>5.333333333333333</ele><time>2026-04-30T08:13:14.817Z</time></trkpt><trkpt lat="40.65716956279301" lon="9.73164954956978"><ele>4.666666666666666</ele><time>2026-04-30T08:13:15.817Z</time></trkpt><trkpt lat="40.65706813972051" lon="9.731439675022685"><ele>4.0</ele><time>2026-04-30T08:13:16.817Z</time></trkpt><trkpt lat="40.65696449554621" lon="9.731224325619104"><ele>3.0</ele><time>2026-04-30T08:13:17.817Z</time></trkpt><trkpt lat="40.656861861090285" lon="9.731003999631485"><ele>2.0</ele><time>2026-04-30T08:13:18.817Z</time></trkpt><trkpt lat="40.65675649802859" lon="9.730782903739884"><ele>1.0</ele><time>2026-04-30T08:13:19.817Z</time></trkpt><trkpt lat="40.65665116006167" lon="9.730559635295677"><ele>1.0</ele><time>2026-04-30T08:13:20.817Z</time></trkpt><trkpt lat="40.65654208954594" lon="9.730336982548497"><ele>1.0</ele><time>2026-04-30T08:13:21.817Z</time></trkpt><trkpt lat="40.65643269142334" lon="9.730112691323137"><ele>1.0</ele><time>2026-04-30T08:13:22.817Z</time></trkpt><trkpt lat="40.65632170255837" lon="9.729882824445312"><ele>1.0</ele><time>2026-04-30T08:13:23.817Z</time></trkpt><trkpt lat="40.65620884429099" lon="9.72965298057607"><ele>1.0</ele><time>2026-04-30T08:13:24.817Z</time></trkpt><trkpt lat="40.656097918364765" lon="9.729420257150263"><ele>1.0</ele><time>2026-04-30T08:13:25.817Z</time></trkpt><trkpt lat="40.65598648092959" lon="9.729185520456001"><ele>1.0</ele><time>2026-04-30T08:13:26.817Z</time></trkpt><trkpt lat="40.655874688530695" lon="9.728948026713292"><ele>1.0</ele><time>2026-04-30T08:13:27.817Z</time></trkpt><trkpt lat="40.65576112948421" lon="9.728710737242968"><ele>1.0</ele><time>2026-04-30T08:13:28.817Z</time></trkpt><trkpt lat="40.65564572976513" lon="9.728472005750934"><ele>1.0</ele><time>2026-04-30T08:13:29.817Z</time></trkpt><trkpt lat="40.655528511738396" lon="9.72823243663933"><ele>1.0</ele><time>2026-04-30T08:13:30.817Z</time></trkpt><trkpt lat="40.65541370927643" lon="9.727990181995802"><ele>1.0</ele><time>2026-04-30T08:13:31.817Z</time></trkpt><trkpt lat="40.65529615447292" lon="9.727746016972176"><ele>1.0</ele><time>2026-04-30T08:13:32.817Z</time></trkpt><trkpt lat="40.655177610176494" lon="9.727499670780523"><ele>1.0</ele><time>2026-04-30T08:13:33.817Z</time></trkpt><trkpt lat="40.65506341291188" lon="9.727244219984827"><ele>1.0</ele><time>2026-04-30T08:13:34.817Z</time></trkpt><trkpt lat="40.65494050445312" lon="9.726997752865088"><ele>1.0</ele><time>2026-04-30T08:13:35.817Z</time></trkpt><trkpt lat="40.65482225570643" lon="9.726747511149531"><ele>1.0</ele><time>2026-04-30T08:13:36.817Z</time></trkpt><trkpt lat="40.6547011034721" lon="9.726497179734125"><ele>1.0</ele><time>2026-04-30T08:13:37.817Z</time></trkpt><trkpt lat="40.65458738015941" lon="9.726248825177612"><ele>1.3333333333333333</ele><time>2026-04-30T08:13:38.817Z</time></trkpt><trkpt lat="40.65448154916932" lon="9.726017052076847"><ele>1.6666666666666665</ele><time>2026-04-30T08:13:39.817Z</time></trkpt><trkpt lat="40.6543804693676" lon="9.725790047197586"><ele>2.0</ele><time>2026-04-30T08:13:40.817Z</time></trkpt><trkpt lat="40.654279155417235" lon="9.72557805098624"><ele>2.0</ele><time>2026-04-30T08:13:41.817Z</time></trkpt><trkpt lat="40.65416918580245" lon="9.72538837673847"><ele>2.0</ele><time>2026-04-30T08:13:42.817Z</time></trkpt><trkpt lat="40.65404029403786" lon="9.725236824318742"><ele>2.0</ele><time>2026-04-30T08:13:43.817Z</time></trkpt><trkpt lat="40.65388636001827" lon="9.725123883204953"><ele>2.333333333333333</ele><time>2026-04-30T08:13:44.816Z</time></trkpt><trkpt lat="40.653708337561135" lon="9.725052406553406"><ele>2.6666666666666665</ele><time>2026-04-30T08:13:45.816Z</time></trkpt><trkpt lat="40.653514865459584" lon="9.724997838075954"><ele>3.0</ele><time>2026-04-30T08:13:46.816Z</time></trkpt><trkpt lat="40.65332482796528" lon="9.72493610839497"><ele>3.0</ele><time>2026-04-30T08:13:47.816Z</time></trkpt><trkpt lat="40.65312451926718" lon="9.724859857264882"><ele>3.0</ele><time>2026-04-30T08:13:48.816Z</time></trkpt><trkpt lat="40.65291770354796" lon="9.724773569901751"><ele>3.0</ele><time>2026-04-30T08:13:49.816Z</time></trkpt><trkpt lat="40.65270577645539" lon="9.724684860243498"><ele>1.5</ele><time>2026-04-30T08:13:50.816Z</time></trkpt><trkpt lat="40.65248488946175" lon="9.724597479152788"><ele>0.0</ele><time>2026-04-30T08:13:51.816Z</time></trkpt><trkpt lat="40.6522609670463" lon="9.724515058504943"><ele>0.0</ele><time>2026-04-30T08:13:52.816Z</time></trkpt><trkpt lat="40.652036505620856" lon="9.72443429021096"><ele>0.0</ele><time>2026-04-30T08:13:53.816Z</time></trkpt><trkpt lat="40.65180832104509" lon="9.724350096891609"><ele>0.6666666666666666</ele><time>2026-04-30T08:13:54.816Z</time></trkpt><trkpt lat="40.6515881055107" lon="9.724259957148536"><ele>1.3333333333333333</ele><time>2026-04-30T08:13:55.816Z</time></trkpt><trkpt lat="40.65138049274936" lon="9.724169022897556"><ele>2.0</ele><time>2026-04-30T08:13:56.816Z</time></trkpt><trkpt lat="40.65118959528567" lon="9.72407400636271"><ele>2.333333333333333</ele><time>2026-04-30T08:13:57.816Z</time></trkpt><trkpt lat="40.65101395323653" lon="9.723961557335626"><ele>2.6666666666666665</ele><time>2026-04-30T08:13:58.816Z</time></trkpt><trkpt lat="40.65085628714265" lon="9.723811971087049"><ele>3.0</ele><time>2026-04-30T08:13:59.816Z</time></trkpt><trkpt lat="40.65074213488284" lon="9.723599861599565"><ele>3.666666666666667</ele><time>2026-04-30T08:14:00.816Z</time></trkpt><trkpt lat="40.650637436760626" lon="9.723376993704674"><ele>4.333333333333334</ele><time>2026-04-30T08:14:01.816Z</time></trkpt><trkpt lat="40.65053076684828" lon="9.723145436492743"><ele>5.0</ele><time>2026-04-30T08:14:02.816Z</time></trkpt><trkpt lat="40.65040607770627" lon="9.722921255599271"><ele>5.0</ele><time>2026-04-30T08:14:03.816Z</time></trkpt><trkpt lat="40.650313320973815" lon="9.722679036121445"><ele>5.0</ele><time>2026-04-30T08:14:04.816Z</time></trkpt><trkpt lat="40.65020119761475" lon="9.722443538802123"><ele>5.0</ele><time>2026-04-30T08:14:05.816Z</time></trkpt><trkpt lat="40.650087274464774" lon="9.722200574017073"><ele>5.0</ele><time>2026-04-30T08:14:06.816Z</time></trkpt><trkpt lat="40.649972825069" lon="9.721956460618374"><ele>5.0</ele><time>2026-04-30T08:14:07.816Z</time></trkpt><trkpt lat="40.64985478377108" lon="9.721713976359165"><ele>5.0</ele><time>2026-04-30T08:14:08.816Z</time></trkpt><trkpt lat="40.64974228787772" lon="9.721457217345952"><ele>5.5</ele><time>2026-04-30T08:14:09.816Z</time></trkpt><trkpt lat="40.649624380092504" lon="9.721202712789504"><ele>6.0</ele><time>2026-04-30T08:14:10.816Z</time></trkpt><trkpt lat="40.64950641492792" lon="9.720945286532617"><ele>4.5</ele><time>2026-04-30T08:14:11.817Z</time></trkpt><trkpt lat="40.64939154450436" lon="9.720680942269823"><ele>3.0</ele><time>2026-04-30T08:14:12.817Z</time></trkpt><trkpt lat="40.64926514931757" lon="9.720428589147794"><ele>4.5</ele><time>2026-04-30T08:14:13.817Z</time></trkpt><trkpt lat="40.6491468903789" lon="9.720164998325735"><ele>6.0</ele><time>2026-04-30T08:14:14.817Z</time></trkpt><trkpt lat="40.64902588153337" lon="9.719904102640742"><ele>6.0</ele><time>2026-04-30T08:14:15.816Z</time></trkpt><trkpt lat="40.64890233243298" lon="9.719652950731758"><ele>6.0</ele><time>2026-04-30T08:14:16.816Z</time></trkpt><trkpt lat="40.648790785930395" lon="9.71940123173218"><ele>6.0</ele><time>2026-04-30T08:14:17.817Z</time></trkpt><trkpt lat="40.64868729469451" lon="9.719166460205871"><ele>6.0</ele><time>2026-04-30T08:14:18.816Z</time></trkpt><trkpt lat="40.648585189965154" lon="9.718942875601664"><ele>6.0</ele><time>2026-04-30T08:14:19.816Z</time></trkpt><trkpt lat="40.64850414038769" lon="9.718706516200045"><ele>6.0</ele><time>2026-04-30T08:14:20.817Z</time></trkpt><trkpt lat="40.64840582067949" lon="9.71848257906588"><ele>6.0</ele><time>2026-04-30T08:14:21.816Z</time></trkpt><trkpt lat="40.64830671661628" lon="9.718263889402124"><ele>6.0</ele><time>2026-04-30T08:14:22.816Z</time></trkpt><trkpt lat="40.648213309051464" lon="9.718037337876082"><ele>6.0</ele><time>2026-04-30T08:14:23.816Z</time></trkpt><trkpt lat="40.648119660288366" lon="9.717812609681847"><ele>6.666666666666666</ele><time>2026-04-30T08:14:24.816Z</time></trkpt><trkpt lat="40.648024568337256" lon="9.717588529952"><ele>7.333333333333333</ele><time>2026-04-30T08:14:25.816Z</time></trkpt><trkpt lat="40.64792779522424" lon="9.717364099979275"><ele>8.0</ele><time>2026-04-30T08:14:26.816Z</time></trkpt><trkpt lat="40.6478281969254" lon="9.717137517469146"><ele>6.333333333333333</ele><time>2026-04-30T08:14:27.816Z</time></trkpt><trkpt lat="40.647728542298076" lon="9.716906290390975"><ele>4.666666666666666</ele><time>2026-04-30T08:14:28.816Z</time></trkpt><trkpt lat="40.64762726265726" lon="9.716665334654193"><ele>3.0</ele><time>2026-04-30T08:14:29.816Z</time></trkpt><trkpt lat="40.64752241641189" lon="9.716421454539393"><ele>3.0</ele><time>2026-04-30T08:14:30.816Z</time></trkpt><trkpt lat="40.64741578079133" lon="9.716171575176045"><ele>3.0</ele><time>2026-04-30T08:14:31.816Z</time></trkpt><trkpt lat="40.64731019499486" lon="9.715920576945354"><ele>3.0</ele><time>2026-04-30T08:14:32.816Z</time></trkpt><trkpt lat="40.64720036260735" lon="9.71566490557434"><ele>3.0</ele><time>2026-04-30T08:14:33.816Z</time></trkpt><trkpt lat="40.64708504294567" lon="9.715410097624515"><ele>3.0</ele><time>2026-04-30T08:14:34.816Z</time></trkpt><trkpt lat="40.64697556527192" lon="9.715154218469744"><ele>3.0</ele><time>2026-04-30T08:14:35.816Z</time></trkpt><trkpt lat="40.64687040845495" lon="9.71489841979788"><ele>3.0</ele><time>2026-04-30T08:14:36.816Z</time></trkpt><trkpt lat="40.6467711411807" lon="9.714652203033856"><ele>3.0</ele><time>2026-04-30T08:14:37.816Z</time></trkpt><trkpt lat="40.6466777831623" lon="9.714412961357851"><ele>3.0</ele><time>2026-04-30T08:14:38.816Z</time></trkpt><trkpt lat="40.64657960685118" lon="9.714185933099882"><ele>4.0</ele><time>2026-04-30T08:14:39.816Z</time></trkpt><trkpt lat="40.64648220753467" lon="9.71396859617328"><ele>5.0</ele><time>2026-04-30T08:14:40.816Z</time></trkpt><trkpt lat="40.64636382594763" lon="9.713751119940868"><ele>6.0</ele><time>2026-04-30T08:14:41.816Z</time></trkpt><trkpt lat="40.64623950594775" lon="9.713546254421301"><ele>5.333333333333333</ele><time>2026-04-30T08:14:42.816Z</time></trkpt><trkpt lat="40.64610352484567" lon="9.713346550409387"><ele>4.666666666666666</ele><time>2026-04-30T08:14:43.816Z</time></trkpt><trkpt lat="40.64596043149506" lon="9.713156785238752"><ele>4.0</ele><time>2026-04-30T08:14:44.816Z</time></trkpt><trkpt lat="40.645815939527836" lon="9.712965587573446"><ele>4.0</ele><time>2026-04-30T08:14:45.816Z</time></trkpt><trkpt lat="40.64567551574121" lon="9.712774556963463"><ele>4.0</ele><time>2026-04-30T08:14:46.816Z</time></trkpt><trkpt lat="40.64553528001236" lon="9.712585376293918"><ele>4.0</ele><time>2026-04-30T08:14:47.816Z</time></trkpt><trkpt lat="40.645402238323555" lon="9.712403021910722"><ele>4.333333333333333</ele><time>2026-04-30T08:14:48.816Z</time></trkpt><trkpt lat="40.64527060869429" lon="9.712225595774715"><ele>4.666666666666667</ele><time>2026-04-30T08:14:49.816Z</time></trkpt><trkpt lat="40.645144848001664" lon="9.712050928227686"><ele>5.0</ele><time>2026-04-30T08:14:50.816Z</time></trkpt><trkpt lat="40.64502085889077" lon="9.711880177249316"><ele>5.333333333333334</ele><time>2026-04-30T08:14:51.816Z</time></trkpt><trkpt lat="40.64489842724635" lon="9.711720057324788"><ele>5.666666666666667</ele><time>2026-04-30T08:14:52.816Z</time></trkpt><trkpt lat="40.64477952122226" lon="9.71157540958713"><ele>6.0</ele><time>2026-04-30T08:14:53.815Z</time></trkpt><trkpt lat="40.64465063972465" lon="9.71144935274952"><ele>6.0</ele><time>2026-04-30T08:14:54.815Z</time></trkpt><trkpt lat="40.64450085600161" lon="9.711369120372316"><ele>6.0</ele><time>2026-04-30T08:14:55.815Z</time></trkpt><trkpt lat="40.64433003935791" lon="9.711340273865236"><ele>6.0</ele><time>2026-04-30T08:14:56.815Z</time></trkpt><trkpt lat="40.644151087314434" lon="9.71136403721556"><ele>5.0</ele><time>2026-04-30T08:14:57.815Z</time></trkpt><trkpt lat="40.64396591189337" lon="9.711422511606095"><ele>4.0</ele><time>2026-04-30T08:14:58.815Z</time></trkpt><trkpt lat="40.64378802998768" lon="9.711484848435324"><ele>3.0</ele><time>2026-04-30T08:14:59.815Z</time></trkpt><trkpt lat="40.64360941793831" lon="9.711552888925924"><ele>2.6666666666666665</ele><time>2026-04-30T08:15:00.815Z</time></trkpt><trkpt lat="40.64341589606167" lon="9.711605352169864"><ele>2.333333333333333</ele><time>2026-04-30T08:15:01.815Z</time></trkpt><trkpt lat="40.643226208204695" lon="9.711666745323004"><ele>2.0</ele><time>2026-04-30T08:15:02.815Z</time></trkpt><trkpt lat="40.64302921982485" lon="9.711722199741198"><ele>2.0</ele><time>2026-04-30T08:15:03.815Z</time></trkpt><trkpt lat="40.642834990832455" lon="9.711782360455471"><ele>2.0</ele><time>2026-04-30T08:15:04.815Z</time></trkpt><trkpt lat="40.64263251776819" lon="9.71185064663704"><ele>2.0</ele><time>2026-04-30T08:15:05.815Z</time></trkpt><trkpt lat="40.64242043799975" lon="9.71191312736458"><ele>1.6666666666666665</ele><time>2026-04-30T08:15:06.815Z</time></trkpt><trkpt lat="40.642210946461006" lon="9.711978297560806"><ele>1.3333333333333333</ele><time>2026-04-30T08:15:07.815Z</time></trkpt><trkpt lat="40.64199824111197" lon="9.712045974424658"><ele>1.0</ele><time>2026-04-30T08:15:08.815Z</time></trkpt><trkpt lat="40.641783279066274" lon="9.712110157959534"><ele>1.0</ele><time>2026-04-30T08:15:09.815Z</time></trkpt><trkpt lat="40.64156649876754" lon="9.712175196223969"><ele>1.0</ele><time>2026-04-30T08:15:10.815Z</time></trkpt><trkpt lat="40.64134435714779" lon="9.712245949390248"><ele>2.5</ele><time>2026-04-30T08:15:11.815Z</time></trkpt><trkpt lat="40.641115681350556" lon="9.712310652120863"><ele>4.0</ele><time>2026-04-30T08:15:12.815Z</time></trkpt><trkpt lat="40.64088770613103" lon="9.712383143187008"><ele>4.0</ele><time>2026-04-30T08:15:13.815Z</time></trkpt><trkpt lat="40.64065412786032" lon="9.712455185526958"><ele>4.0</ele><time>2026-04-30T08:15:14.815Z</time></trkpt><trkpt lat="40.64041917358039" lon="9.712532448736741"><ele>3.5</ele><time>2026-04-30T08:15:15.815Z</time></trkpt><trkpt lat="40.640178483627395" lon="9.712612914472343"><ele>3.0</ele><time>2026-04-30T08:15:16.815Z</time></trkpt><trkpt lat="40.639942287247344" lon="9.712681054683822"><ele>1.5</ele><time>2026-04-30T08:15:17.815Z</time></trkpt><trkpt lat="40.63970562934014" lon="9.712759304327642"><ele>0.0</ele><time>2026-04-30T08:15:18.815Z</time></trkpt><trkpt lat="40.63946845376289" lon="9.712832707590518"><ele>0.0</ele><time>2026-04-30T08:15:19.815Z</time></trkpt><trkpt lat="40.63923185043562" lon="9.712904626650687"><ele>0.0</ele><time>2026-04-30T08:15:20.815Z</time></trkpt><trkpt lat="40.63899481427484" lon="9.712978138752499"><ele>0.0</ele><time>2026-04-30T08:15:21.815Z</time></trkpt><trkpt lat="40.63875625350639" lon="9.71305563878788"><ele>0.0</ele><time>2026-04-30T08:15:22.815Z</time></trkpt><trkpt lat="40.63851735136396" lon="9.71312756128506"><ele>0.5</ele><time>2026-04-30T08:15:23.814Z</time></trkpt><trkpt lat="40.63828012397177" lon="9.713200224997461"><ele>1.0</ele><time>2026-04-30T08:15:24.814Z</time></trkpt><trkpt lat="40.63804702915202" lon="9.71327069706963"><ele>1.0</ele><time>2026-04-30T08:15:25.814Z</time></trkpt><trkpt lat="40.63781829405026" lon="9.713346834314052"><ele>1.0</ele><time>2026-04-30T08:15:26.814Z</time></trkpt><trkpt lat="40.637586392901085" lon="9.713414725915332"><ele>1.5</ele><time>2026-04-30T08:15:27.814Z</time></trkpt><trkpt lat="40.63735558611522" lon="9.713486134581586"><ele>2.0</ele><time>2026-04-30T08:15:28.814Z</time></trkpt><trkpt lat="40.637138059979684" lon="9.713553395280593"><ele>2.0</ele><time>2026-04-30T08:15:29.814Z</time></trkpt><trkpt lat="40.63691378735531" lon="9.713627065564234"><ele>2.0</ele><time>2026-04-30T08:15:30.814Z</time></trkpt><trkpt lat="40.63669747245823" lon="9.713693084467186"><ele>2.0</ele><time>2026-04-30T08:15:31.814Z</time></trkpt><trkpt lat="40.636489958022295" lon="9.713757093992113"><ele>2.0</ele><time>2026-04-30T08:15:32.814Z</time></trkpt><trkpt lat="40.63629186607933" lon="9.71382379465074"><ele>2.0</ele><time>2026-04-30T08:15:33.814Z</time></trkpt><trkpt lat="40.63610272253131" lon="9.713877307206554"><ele>2.0</ele><time>2026-04-30T08:15:34.814Z</time></trkpt><trkpt lat="40.635914299660215" lon="9.713940806371866"><ele>2.0</ele><time>2026-04-30T08:15:35.814Z</time></trkpt><trkpt lat="40.635724858120305" lon="9.713998417984481"><ele>2.0</ele><time>2026-04-30T08:15:36.814Z</time></trkpt><trkpt lat="40.635538429510845" lon="9.71405775723745"><ele>2.0</ele><time>2026-04-30T08:15:37.814Z</time></trkpt><trkpt lat="40.635357301032116" lon="9.714121957034644"><ele>2.0</ele><time>2026-04-30T08:15:38.814Z</time></trkpt><trkpt lat="40.63517137374011" lon="9.714177598263637"><ele>2.0</ele><time>2026-04-30T08:15:39.814Z</time></trkpt><trkpt lat="40.634988055947474" lon="9.714232055839716"><ele>2.6666666666666665</ele><time>2026-04-30T08:15:40.814Z</time></trkpt><trkpt lat="40.634805921899485" lon="9.714289163153403"><ele>3.333333333333333</ele><time>2026-04-30T08:15:41.814Z</time></trkpt><trkpt lat="40.634627922876255" lon="9.714342882709287"><ele>4.0</ele><time>2026-04-30T08:15:42.814Z</time></trkpt><trkpt lat="40.634454983135875" lon="9.714395784324982"><ele>6.0</ele><time>2026-04-30T08:15:43.814Z</time></trkpt><trkpt lat="40.63429330993825" lon="9.714440338494441"><ele>8.0</ele><time>2026-04-30T08:15:44.814Z</time></trkpt><trkpt lat="40.634145404704405" lon="9.714487283991636"><ele>10.0</ele><time>2026-04-30T08:15:45.814Z</time></trkpt><trkpt lat="40.63400971852702" lon="9.71453048323762"><ele>10.0</ele><time>2026-04-30T08:15:46.814Z</time></trkpt><trkpt lat="40.6338771691553" lon="9.714573481387411"><ele>10.0</ele><time>2026-04-30T08:15:47.814Z</time></trkpt><trkpt lat="40.633750001148265" lon="9.71461182455117"><ele>10.0</ele><time>2026-04-30T08:15:48.814Z</time></trkpt><trkpt lat="40.63363972540161" lon="9.714651301362004"><ele>10.0</ele><time>2026-04-30T08:15:49.814Z</time></trkpt><trkpt lat="40.633536003856875" lon="9.714680899499738"><ele>10.833333333333334</ele><time>2026-04-30T08:15:50.814Z</time></trkpt><trkpt lat="40.63343767040632" lon="9.714712254592646"><ele>11.666666666666668</ele><time>2026-04-30T08:15:51.814Z</time></trkpt><trkpt lat="40.63333968853239" lon="9.71473199429921"><ele>12.5</ele><time>2026-04-30T08:15:52.814Z</time></trkpt><trkpt lat="40.633260807909366" lon="9.714742947208759"><ele>13.333333333333334</ele><time>2026-04-30T08:15:53.813Z</time></trkpt><trkpt lat="40.633181766955616" lon="9.714743866951391"><ele>14.166666666666666</ele><time>2026-04-30T08:15:55.813Z</time></trkpt><trkpt lat="40.633116242968725" lon="9.71474603982136"><ele>15.0</ele><time>2026-04-30T08:15:57.813Z</time></trkpt><trkpt lat="40.63302815043911" lon="9.714757729524823"><ele>15.0</ele><time>2026-04-30T08:16:00.813Z</time></trkpt><trkpt lat="40.63293638727131" lon="9.714765963554091"><ele>15.0</ele><time>2026-04-30T08:16:02.813Z</time></trkpt><trkpt lat="40.63281571792461" lon="9.714771770205218"><ele>15.0</ele><time>2026-04-30T08:16:04.813Z</time></trkpt><trkpt lat="40.63275237789928" lon="9.714778752876597"><ele>15.0</ele><time>2026-04-30T08:16:05.813Z</time></trkpt><trkpt lat="40.63268780433056" lon="9.714785586269773"><ele>15.0</ele><time>2026-04-30T08:16:06.813Z</time></trkpt><trkpt lat="40.63262167294469" lon="9.714792452795653"><ele>15.0</ele><time>2026-04-30T08:16:07.813Z</time></trkpt><trkpt lat="40.63255040080264" lon="9.714782332976636"><ele>14.8</ele><time>2026-04-30T08:16:08.813Z</time></trkpt><trkpt lat="40.63245520554964" lon="9.714777175558604"><ele>14.6</ele><time>2026-04-30T08:16:10.813Z</time></trkpt><trkpt lat="40.63237130005714" lon="9.714786075067646"><ele>14.399999999999999</ele><time>2026-04-30T08:16:12.813Z</time></trkpt><trkpt lat="40.63228377993534" lon="9.714798685155884"><ele>14.2</ele><time>2026-04-30T08:16:14.813Z</time></trkpt><trkpt lat="40.63218215382487" lon="9.714807317534053"><ele>14.0</ele><time>2026-04-30T08:16:16.813Z</time></trkpt><trkpt lat="40.63208283630727" lon="9.714809556259594"><ele>13.5</ele><time>2026-04-30T08:16:18.814Z</time></trkpt><trkpt lat="40.631970410106895" lon="9.714812736172268"><ele>13.0</ele><time>2026-04-30T08:16:20.814Z</time></trkpt><trkpt lat="40.63184680391673" lon="9.714807566453006"><ele>12.5</ele><time>2026-04-30T08:16:22.814Z</time></trkpt><trkpt lat="40.63172764935102" lon="9.714806772594978"><ele>12.0</ele><time>2026-04-30T08:16:24.814Z</time></trkpt><trkpt lat="40.63161152897728" lon="9.714814858048946"><ele>12.0</ele><time>2026-04-30T08:16:26.814Z</time></trkpt><trkpt lat="40.63149589567142" lon="9.714813308924198"><ele>12.0</ele><time>2026-04-30T08:16:28.814Z</time></trkpt><trkpt lat="40.63143227382833" lon="9.714815160071865"><ele>12.0</ele><time>2026-04-30T08:16:29.814Z</time></trkpt><trkpt lat="40.63136382656248" lon="9.714815695131637"><ele>12.0</ele><time>2026-04-30T08:16:30.814Z</time></trkpt><trkpt lat="40.63129096466678" lon="9.714819875976655"><ele>12.0</ele><time>2026-04-30T08:16:31.814Z</time></trkpt><trkpt lat="40.63121344991423" lon="9.71482431035155"><ele>12.0</ele><time>2026-04-30T08:16:32.814Z</time></trkpt><trkpt lat="40.63113031607424" lon="9.71482984407536"><ele>11.833333333333334</ele><time>2026-04-30T08:16:33.814Z</time></trkpt><trkpt lat="40.631036193912095" lon="9.714832581654003"><ele>11.666666666666666</ele><time>2026-04-30T08:16:34.814Z</time></trkpt><trkpt lat="40.630942741819474" lon="9.714835783312676"><ele>11.5</ele><time>2026-04-30T08:16:35.814Z</time></trkpt><trkpt lat="40.63086075582693" lon="9.714834602594866"><ele>11.333333333333332</ele><time>2026-04-30T08:16:36.814Z</time></trkpt><trkpt lat="40.630762093680815" lon="9.714845206484819"><ele>11.166666666666666</ele><time>2026-04-30T08:16:38.814Z</time></trkpt><trkpt lat="40.6306874017275" lon="9.714843437036626"><ele>11.0</ele><time>2026-04-30T08:16:41.814Z</time></trkpt><trkpt lat="40.63058426906098" lon="9.714845385252115"><ele>11.0</ele><time>2026-04-30T08:16:44.814Z</time></trkpt><trkpt lat="40.63047519671162" lon="9.714846506942745"><ele>11.0</ele><time>2026-04-30T08:16:46.813Z</time></trkpt><trkpt lat="40.63040737968207" lon="9.714850909661074"><ele>11.0</ele><time>2026-04-30T08:16:47.813Z</time></trkpt><trkpt lat="40.63033364576769" lon="9.714848161314576"><ele>11.0</ele><time>2026-04-30T08:16:48.813Z</time></trkpt><trkpt lat="40.63025640166673" lon="9.714844856831473"><ele>11.0</ele><time>2026-04-30T08:16:49.813Z</time></trkpt><trkpt lat="40.630170809160234" lon="9.714855507768856"><ele>11.0</ele><time>2026-04-30T08:16:50.813Z</time></trkpt><trkpt lat="40.63007611838036" lon="9.714863792303587"><ele>11.0</ele><time>2026-04-30T08:16:51.813Z</time></trkpt><trkpt lat="40.62998053192808" lon="9.714876515121496"><ele>11.0</ele><time>2026-04-30T08:16:52.813Z</time></trkpt><trkpt lat="40.629883001046544" lon="9.714884469466094"><ele>11.0</ele><time>2026-04-30T08:16:53.813Z</time></trkpt><trkpt lat="40.629782151703026" lon="9.714886785726693"><ele>11.0</ele><time>2026-04-30T08:16:54.813Z</time></trkpt><trkpt lat="40.629688436775254" lon="9.714889147436823"><ele>11.0</ele><time>2026-04-30T08:16:55.813Z</time></trkpt><trkpt lat="40.62959555902431" lon="9.714885331955323"><ele>11.0</ele><time>2026-04-30T08:16:56.813Z</time></trkpt><trkpt lat="40.62951489654099" lon="9.714885140003082"><ele>11.0</ele><time>2026-04-30T08:16:57.813Z</time></trkpt><trkpt lat="40.62944083672724" lon="9.714885319909147"><ele>11.0</ele><time>2026-04-30T08:16:58.813Z</time></trkpt><trkpt lat="40.62937327734773" lon="9.714886831106686"><ele>11.0</ele><time>2026-04-30T08:16:59.813Z</time></trkpt><trkpt lat="40.629250136529066" lon="9.714887917766227"><ele>11.0</ele><time>2026-04-30T08:17:01.813Z</time></trkpt><trkpt lat="40.629175341665544" lon="9.71489043057253"><ele>11.0</ele><time>2026-04-30T08:17:02.813Z</time></trkpt><trkpt lat="40.62910449995827" lon="9.714897136612498"><ele>11.333333333333332</ele><time>2026-04-30T08:17:03.813Z</time></trkpt><trkpt lat="40.629026259673914" lon="9.714896869811218"><ele>11.666666666666666</ele><time>2026-04-30T08:17:04.813Z</time></trkpt><trkpt lat="40.62894400512946" lon="9.714900249308709"><ele>12.0</ele><time>2026-04-30T08:17:05.813Z</time></trkpt><trkpt lat="40.62885671001686" lon="9.714892109375228"><ele>12.333333333333332</ele><time>2026-04-30T08:17:06.813Z</time></trkpt><trkpt lat="40.62877060608085" lon="9.714895461076022"><ele>12.666666666666666</ele><time>2026-04-30T08:17:07.813Z</time></trkpt><trkpt lat="40.62868117871368" lon="9.714902302350248"><ele>13.0</ele><time>2026-04-30T08:17:08.813Z</time></trkpt><trkpt lat="40.628587194695584" lon="9.714895028741456"><ele>13.600000000000001</ele><time>2026-04-30T08:17:09.813Z</time></trkpt><trkpt lat="40.62849202625659" lon="9.71489630002014"><ele>14.200000000000001</ele><time>2026-04-30T08:17:10.813Z</time></trkpt><trkpt lat="40.628396541988714" lon="9.714896217163822"><ele>14.8</ele><time>2026-04-30T08:17:11.813Z</time></trkpt><trkpt lat="40.62829751576721" lon="9.714907712761967"><ele>15.4</ele><time>2026-04-30T08:17:12.813Z</time></trkpt><trkpt lat="40.628193311218126" lon="9.714915317095974"><ele>16.0</ele><time>2026-04-30T08:17:13.812Z</time></trkpt><trkpt lat="40.628089821553765" lon="9.714928280980915"><ele>16.0</ele><time>2026-04-30T08:17:14.812Z</time></trkpt><trkpt lat="40.627982715371864" lon="9.714943989718913"><ele>16.0</ele><time>2026-04-30T08:17:15.812Z</time></trkpt><trkpt lat="40.627875599844" lon="9.714955603277769"><ele>16.0</ele><time>2026-04-30T08:17:16.812Z</time></trkpt><trkpt lat="40.62776594322192" lon="9.714962334397647"><ele>16.0</ele><time>2026-04-30T08:17:17.812Z</time></trkpt><trkpt lat="40.6276515036621" lon="9.714965234588563"><ele>16.0</ele><time>2026-04-30T08:17:18.812Z</time></trkpt><trkpt lat="40.62753485322687" lon="9.714957323007102"><ele>16.0</ele><time>2026-04-30T08:17:19.812Z</time></trkpt><trkpt lat="40.62741612045614" lon="9.714937796960337"><ele>16.0</ele><time>2026-04-30T08:17:20.812Z</time></trkpt><trkpt lat="40.62730143610065" lon="9.714898144421689"><ele>16.0</ele><time>2026-04-30T08:17:21.812Z</time></trkpt><trkpt lat="40.62718573914579" lon="9.714852531786226"><ele>16.0</ele><time>2026-04-30T08:17:22.812Z</time></trkpt><trkpt lat="40.627067501601324" lon="9.714770555820373"><ele>15.75</ele><time>2026-04-30T08:17:23.812Z</time></trkpt><trkpt lat="40.62694748727394" lon="9.714691621724528"><ele>15.5</ele><time>2026-04-30T08:17:24.812Z</time></trkpt><trkpt lat="40.626823511105975" lon="9.714600957260197"><ele>15.25</ele><time>2026-04-30T08:17:25.812Z</time></trkpt><trkpt lat="40.626693657374574" lon="9.714501455103624"><ele>15.0</ele><time>2026-04-30T08:17:26.812Z</time></trkpt><trkpt lat="40.62654929021648" lon="9.714395087531233"><ele>15.0</ele><time>2026-04-30T08:17:27.812Z</time></trkpt><trkpt lat="40.626390261553695" lon="9.714270593936195"><ele>15.0</ele><time>2026-04-30T08:17:28.812Z</time></trkpt><trkpt lat="40.62622225806358" lon="9.714145640494266"><ele>15.0</ele><time>2026-04-30T08:17:29.812Z</time></trkpt><trkpt lat="40.626032449630166" lon="9.71400638654318"><ele>11.0</ele><time>2026-04-30T08:17:30.812Z</time></trkpt><trkpt lat="40.625816051158125" lon="9.713846431928037"><ele>7.0</ele><time>2026-04-30T08:17:31.812Z</time></trkpt><trkpt lat="40.62559214579521" lon="9.713656355406032"><ele>7.0</ele><time>2026-04-30T08:17:32.812Z</time></trkpt><trkpt lat="40.62537326034531" lon="9.713490546946089"><ele>7.0</ele><time>2026-04-30T08:17:33.812Z</time></trkpt><trkpt lat="40.625157089637" lon="9.713327099990893"><ele>6.0</ele><time>2026-04-30T08:17:34.812Z</time></trkpt><trkpt lat="40.624939995896874" lon="9.71316295512807"><ele>5.0</ele><time>2026-04-30T08:17:35.812Z</time></trkpt><trkpt lat="40.62472114749613" lon="9.712995555250473"><ele>5.0</ele><time>2026-04-30T08:17:36.812Z</time></trkpt><trkpt lat="40.624497382431244" lon="9.712826763084193"><ele>5.0</ele><time>2026-04-30T08:17:37.812Z</time></trkpt><trkpt lat="40.624270677738565" lon="9.712655377876969"><ele>5.5</ele><time>2026-04-30T08:17:38.812Z</time></trkpt><trkpt lat="40.62404147166521" lon="9.712481981851104"><ele>6.0</ele><time>2026-04-30T08:17:39.812Z</time></trkpt><trkpt lat="40.623806889792235" lon="9.712316239796428"><ele>8.0</ele><time>2026-04-30T08:17:40.812Z</time></trkpt><trkpt lat="40.62357868784591" lon="9.712136870269028"><ele>10.0</ele><time>2026-04-30T08:17:41.812Z</time></trkpt><trkpt lat="40.62334981045493" lon="9.711966590792812"><ele>10.0</ele><time>2026-04-30T08:17:42.812Z</time></trkpt><trkpt lat="40.62312181381721" lon="9.711793026417158"><ele>10.0</ele><time>2026-04-30T08:17:43.811Z</time></trkpt><trkpt lat="40.62289212736781" lon="9.711619874793907"><ele>11.5</ele><time>2026-04-30T08:17:44.811Z</time></trkpt><trkpt lat="40.62266276269055" lon="9.71145141696963"><ele>13.0</ele><time>2026-04-30T08:17:45.811Z</time></trkpt><trkpt lat="40.6224358142195" lon="9.711281589175783"><ele>13.0</ele><time>2026-04-30T08:17:46.811Z</time></trkpt><trkpt lat="40.622211947597116" lon="9.711114806009828"><ele>13.0</ele><time>2026-04-30T08:17:47.811Z</time></trkpt><trkpt lat="40.62198903897144" lon="9.71094322199897"><ele>14.0</ele><time>2026-04-30T08:17:48.811Z</time></trkpt><trkpt lat="40.621763107013294" lon="9.710775672462788"><ele>15.0</ele><time>2026-04-30T08:17:49.811Z</time></trkpt><trkpt lat="40.621542784202425" lon="9.710607041682717"><ele>15.0</ele><time>2026-04-30T08:17:50.811Z</time></trkpt><trkpt lat="40.62132228404583" lon="9.710435663034216"><ele>15.0</ele><time>2026-04-30T08:17:51.811Z</time></trkpt><trkpt lat="40.62110612860486" lon="9.71027604863295"><ele>15.5</ele><time>2026-04-30T08:17:52.811Z</time></trkpt><trkpt lat="40.62089245271655" lon="9.710115330215793"><ele>16.0</ele><time>2026-04-30T08:17:53.811Z</time></trkpt><trkpt lat="40.620683581672836" lon="9.709952853440694"><ele>16.0</ele><time>2026-04-30T08:17:54.811Z</time></trkpt><trkpt lat="40.62048312254582" lon="9.70980004329692"><ele>16.0</ele><time>2026-04-30T08:17:55.811Z</time></trkpt><trkpt lat="40.62030410970215" lon="9.70966334258353"><ele>16.0</ele><time>2026-04-30T08:17:56.811Z</time></trkpt><trkpt lat="40.62015469018506" lon="9.709552224152972"><ele>17.25</ele><time>2026-04-30T08:17:57.811Z</time></trkpt><trkpt lat="40.62002166333497" lon="9.709455229228022"><ele>18.5</ele><time>2026-04-30T08:17:58.811Z</time></trkpt><trkpt lat="40.61989512787808" lon="9.70936021235122"><ele>19.75</ele><time>2026-04-30T08:17:59.811Z</time></trkpt><trkpt lat="40.61976602654192" lon="9.709259694746343"><ele>21.0</ele><time>2026-04-30T08:18:00.811Z</time></trkpt><trkpt lat="40.61962988879872" lon="9.709153990281855"><ele>21.0</ele><time>2026-04-30T08:18:01.811Z</time></trkpt><trkpt lat="40.6194865122241" lon="9.709053782099527"><ele>21.0</ele><time>2026-04-30T08:18:02.811Z</time></trkpt><trkpt lat="40.61932795091541" lon="9.70896411319586"><ele>21.0</ele><time>2026-04-30T08:18:03.811Z</time></trkpt><trkpt lat="40.61913461844959" lon="9.708909827439316"><ele>23.5</ele><time>2026-04-30T08:18:04.811Z</time></trkpt><trkpt lat="40.618897241257216" lon="9.708854714273734"><ele>26.0</ele><time>2026-04-30T08:18:05.811Z</time></trkpt><trkpt lat="40.61863460958541" lon="9.708750334837761"><ele>25.0</ele><time>2026-04-30T08:18:06.811Z</time></trkpt><trkpt lat="40.61834594652098" lon="9.708656320335656"><ele>24.0</ele><time>2026-04-30T08:18:07.811Z</time></trkpt><trkpt lat="40.61805362079164" lon="9.708561045003458"><ele>26.0</ele><time>2026-04-30T08:18:08.811Z</time></trkpt><trkpt lat="40.6177825490174" lon="9.708491005521307"><ele>28.0</ele><time>2026-04-30T08:18:09.811Z</time></trkpt><trkpt lat="40.617544563349114" lon="9.708402728002932"><ele>28.0</ele><time>2026-04-30T08:18:10.811Z</time></trkpt><trkpt lat="40.6173476548483" lon="9.708299955658218"><ele>28.0</ele><time>2026-04-30T08:18:11.811Z</time></trkpt><trkpt lat="40.617180939234274" lon="9.708139999093715"><ele>28.0</ele><time>2026-04-30T08:18:12.81Z</time></trkpt><trkpt lat="40.61698570035903" lon="9.707958599339532"><ele>28.5</ele><time>2026-04-30T08:18:13.81Z</time></trkpt><trkpt lat="40.61676572182225" lon="9.707753841397516"><ele>29.0</ele><time>2026-04-30T08:18:14.81Z</time></trkpt><trkpt lat="40.61650949217842" lon="9.707514860889349"><ele>30.0</ele><time>2026-04-30T08:18:15.81Z</time></trkpt><trkpt lat="40.61623419425341" lon="9.707262302479446"><ele>31.0</ele><time>2026-04-30T08:18:16.81Z</time></trkpt><trkpt lat="40.615947394845286" lon="9.70699693059246"><ele>31.5</ele><time>2026-04-30T08:18:17.81Z</time></trkpt><trkpt lat="40.615645266069116" lon="9.706721956718393"><ele>32.0</ele><time>2026-04-30T08:18:18.81Z</time></trkpt><trkpt lat="40.61533840518026" lon="9.706438717145463"><ele>33.0</ele><time>2026-04-30T08:18:19.81Z</time></trkpt><trkpt lat="40.61504674798346" lon="9.706161468392084"><ele>34.0</ele><time>2026-04-30T08:18:20.81Z</time></trkpt><trkpt lat="40.614784327514144" lon="9.705904117719516"><ele>34.0</ele><time>2026-04-30T08:18:21.81Z</time></trkpt><trkpt lat="40.614536284370445" lon="9.705667359436415"><ele>34.0</ele><time>2026-04-30T08:18:22.81Z</time></trkpt><trkpt lat="40.61429157504544" lon="9.705436421950093"><ele>33.5</ele><time>2026-04-30T08:18:23.812Z</time></trkpt><trkpt lat="40.61404732754201" lon="9.705210291150015"><ele>33.0</ele><time>2026-04-30T08:18:24.811Z</time></trkpt><trkpt lat="40.61380410647521" lon="9.704987457622648"><ele>31.5</ele><time>2026-04-30T08:18:25.811Z</time></trkpt><trkpt lat="40.613570356880814" lon="9.70476323377376"><ele>30.0</ele><time>2026-04-30T08:18:26.811Z</time></trkpt><trkpt lat="40.61333916825121" lon="9.704551593610736"><ele>32.0</ele><time>2026-04-30T08:18:27.811Z</time></trkpt><trkpt lat="40.61311805007208" lon="9.70435643702524"><ele>34.0</ele><time>2026-04-30T08:18:28.811Z</time></trkpt><trkpt lat="40.61289459420684" lon="9.704181991329753"><ele>33.0</ele><time>2026-04-30T08:18:29.811Z</time></trkpt><trkpt lat="40.612656010682485" lon="9.704038544632542"><ele>32.0</ele><time>2026-04-30T08:18:30.812Z</time></trkpt><trkpt lat="40.61239440294185" lon="9.703917151045129"><ele>32.0</ele><time>2026-04-30T08:18:31.812Z</time></trkpt><trkpt lat="40.612122756982046" lon="9.703805812670787"><ele>32.0</ele><time>2026-04-30T08:18:32.811Z</time></trkpt><trkpt lat="40.611852732592844" lon="9.703674638136212"><ele>34.0</ele><time>2026-04-30T08:18:33.811Z</time></trkpt><trkpt lat="40.61157651725213" lon="9.703554079801703"><ele>36.0</ele><time>2026-04-30T08:18:34.811Z</time></trkpt><trkpt lat="40.611302765437024" lon="9.703421504063312"><ele>35.5</ele><time>2026-04-30T08:18:35.811Z</time></trkpt><trkpt lat="40.611025849383225" lon="9.703285897927044"><ele>35.0</ele><time>2026-04-30T08:18:36.811Z</time></trkpt><trkpt lat="40.61075233234543" lon="9.703151254721346"><ele>35.0</ele><time>2026-04-30T08:18:37.811Z</time></trkpt><trkpt lat="40.61047933479257" lon="9.703021806643717"><ele>35.0</ele><time>2026-04-30T08:18:38.811Z</time></trkpt><trkpt lat="40.61020365492763" lon="9.70288892489512"><ele>34.0</ele><time>2026-04-30T08:18:39.811Z</time></trkpt><trkpt lat="40.6099356199398" lon="9.702766212223162"><ele>33.0</ele><time>2026-04-30T08:18:40.81Z</time></trkpt><trkpt lat="40.60967431087714" lon="9.702636083022627"><ele>34.5</ele><time>2026-04-30T08:18:41.81Z</time></trkpt><trkpt lat="40.609418958514915" lon="9.702506722837482"><ele>36.0</ele><time>2026-04-30T08:18:42.81Z</time></trkpt><trkpt lat="40.60916158882696" lon="9.702366228850513"><ele>36.0</ele><time>2026-04-30T08:18:43.81Z</time></trkpt><trkpt lat="40.608901778566896" lon="9.702199526977045"><ele>36.0</ele><time>2026-04-30T08:18:44.81Z</time></trkpt><trkpt lat="40.608637400274" lon="9.702023322962114"><ele>38.0</ele><time>2026-04-30T08:18:45.81Z</time></trkpt><trkpt lat="40.60838357869154" lon="9.701853153819018"><ele>40.0</ele><time>2026-04-30T08:18:46.81Z</time></trkpt><trkpt lat="40.608142128974436" lon="9.701698515578189"><ele>40.0</ele><time>2026-04-30T08:18:47.81Z</time></trkpt><trkpt lat="40.60791389123895" lon="9.70154446955539"><ele>40.0</ele><time>2026-04-30T08:18:48.81Z</time></trkpt><trkpt lat="40.60768917444813" lon="9.701378778061954"><ele>40.0</ele><time>2026-04-30T08:18:49.81Z</time></trkpt><trkpt lat="40.607467446590945" lon="9.701189622397331"><ele>40.0</ele><time>2026-04-30T08:18:50.81Z</time></trkpt><trkpt lat="40.60724613709878" lon="9.700976285368416"><ele>40.0</ele><time>2026-04-30T08:18:51.81Z</time></trkpt><trkpt lat="40.6070184876251" lon="9.70076559727156"><ele>40.0</ele><time>2026-04-30T08:18:52.81Z</time></trkpt><trkpt lat="40.606781741810515" lon="9.70053883205883"><ele>38.0</ele><time>2026-04-30T08:18:53.81Z</time></trkpt><trkpt lat="40.60654372386905" lon="9.700320400017603"><ele>36.0</ele><time>2026-04-30T08:18:54.81Z</time></trkpt><trkpt lat="40.60630235089644" lon="9.700095340710073"><ele>34.0</ele><time>2026-04-30T08:18:55.81Z</time></trkpt><trkpt lat="40.60605760605361" lon="9.699867989717367"><ele>32.0</ele><time>2026-04-30T08:18:56.81Z</time></trkpt><trkpt lat="40.60580836863823" lon="9.699639377365052"><ele>33.0</ele><time>2026-04-30T08:18:57.81Z</time></trkpt><trkpt lat="40.60555802068832" lon="9.699411655637377"><ele>34.0</ele><time>2026-04-30T08:18:58.81Z</time></trkpt><trkpt lat="40.60530288319493" lon="9.699178170930972"><ele>31.0</ele><time>2026-04-30T08:18:59.81Z</time></trkpt><trkpt lat="40.60504930437769" lon="9.69894356964432"><ele>28.0</ele><time>2026-04-30T08:19:00.81Z</time></trkpt><trkpt lat="40.60479440784176" lon="9.69870630025236"><ele>27.5</ele><time>2026-04-30T08:19:01.81Z</time></trkpt><trkpt lat="40.60453883252436" lon="9.698470654861516"><ele>27.0</ele><time>2026-04-30T08:19:02.81Z</time></trkpt><trkpt lat="40.604284331770835" lon="9.698236776939376"><ele>27.0</ele><time>2026-04-30T08:19:03.81Z</time></trkpt><trkpt lat="40.60403095234305" lon="9.698003990239515"><ele>27.0</ele><time>2026-04-30T08:19:04.81Z</time></trkpt><trkpt lat="40.6037803681131" lon="9.69777231655607"><ele>26.0</ele><time>2026-04-30T08:19:05.81Z</time></trkpt><trkpt lat="40.60353619075516" lon="9.697536306959803"><ele>25.0</ele><time>2026-04-30T08:19:06.81Z</time></trkpt><trkpt lat="40.60329962492381" lon="9.697316708824047"><ele>25.0</ele><time>2026-04-30T08:19:07.81Z</time></trkpt><trkpt lat="40.603070825168125" lon="9.697104756435422"><ele>25.0</ele><time>2026-04-30T08:19:08.81Z</time></trkpt><trkpt lat="40.60284603553527" lon="9.696896758656223"><ele>27.5</ele><time>2026-04-30T08:19:09.81Z</time></trkpt><trkpt lat="40.60262303729978" lon="9.696692182762497"><ele>30.0</ele><time>2026-04-30T08:19:10.809Z</time></trkpt><trkpt lat="40.60240503303277" lon="9.696491100501166"><ele>30.0</ele><time>2026-04-30T08:19:11.809Z</time></trkpt><trkpt lat="40.60219393055235" lon="9.696301673625566"><ele>30.0</ele><time>2026-04-30T08:19:12.809Z</time></trkpt><trkpt lat="40.601993277218156" lon="9.696113753095469"><ele>29.0</ele><time>2026-04-30T08:19:13.809Z</time></trkpt><trkpt lat="40.601796216172104" lon="9.695926606501494"><ele>28.0</ele><time>2026-04-30T08:19:14.809Z</time></trkpt><trkpt lat="40.60160044985922" lon="9.695741473188377"><ele>28.0</ele><time>2026-04-30T08:19:15.809Z</time></trkpt><trkpt lat="40.601403881316735" lon="9.695570581648749"><ele>28.0</ele><time>2026-04-30T08:19:16.809Z</time></trkpt><trkpt lat="40.60121103174627" lon="9.695394584165053"><ele>30.333333333333336</ele><time>2026-04-30T08:19:17.809Z</time></trkpt><trkpt lat="40.60102991430003" lon="9.695238389622656"><ele>32.666666666666664</ele><time>2026-04-30T08:19:18.809Z</time></trkpt><trkpt lat="40.6008362632577" lon="9.695109067202276"><ele>35.0</ele><time>2026-04-30T08:19:19.809Z</time></trkpt><trkpt lat="40.60063211860141" lon="9.695011620508126"><ele>35.0</ele><time>2026-04-30T08:19:20.809Z</time></trkpt><trkpt lat="40.600411890381366" lon="9.694960348641182"><ele>35.0</ele><time>2026-04-30T08:19:21.809Z</time></trkpt><trkpt lat="40.600174596516155" lon="9.69493645617963"><ele>36.0</ele><time>2026-04-30T08:19:22.809Z</time></trkpt><trkpt lat="40.5999207192749" lon="9.694894085737022"><ele>37.0</ele><time>2026-04-30T08:19:23.809Z</time></trkpt><trkpt lat="40.59965838151588" lon="9.694857516817935"><ele>38.0</ele><time>2026-04-30T08:19:24.809Z</time></trkpt><trkpt lat="40.59939188475602" lon="9.6948105609849"><ele>39.0</ele><time>2026-04-30T08:19:25.809Z</time></trkpt><trkpt lat="40.59912387275361" lon="9.69476914114294"><ele>39.0</ele><time>2026-04-30T08:19:26.809Z</time></trkpt><trkpt lat="40.598858918808254" lon="9.694717208905962"><ele>39.0</ele><time>2026-04-30T08:19:27.809Z</time></trkpt><trkpt lat="40.59860468718203" lon="9.694685291437594"><ele>41.0</ele><time>2026-04-30T08:19:28.809Z</time></trkpt><trkpt lat="40.598341376315865" lon="9.694655318997148"><ele>43.0</ele><time>2026-04-30T08:19:29.809Z</time></trkpt><trkpt lat="40.598098317446635" lon="9.694618488906844"><ele>43.0</ele><time>2026-04-30T08:19:30.809Z</time></trkpt><trkpt lat="40.59787049241483" lon="9.694586997438916"><ele>43.0</ele><time>2026-04-30T08:19:31.809Z</time></trkpt><trkpt lat="40.597669381698815" lon="9.694562767334544"><ele>43.0</ele><time>2026-04-30T08:19:32.809Z</time></trkpt><trkpt lat="40.59747884178161" lon="9.694534597685854"><ele>45.0</ele><time>2026-04-30T08:19:33.809Z</time></trkpt><trkpt lat="40.597308634395034" lon="9.694510414256305"><ele>47.0</ele><time>2026-04-30T08:19:34.809Z</time></trkpt><trkpt lat="40.597145932585896" lon="9.694487252087328"><ele>49.0</ele><time>2026-04-30T08:19:35.809Z</time></trkpt><trkpt lat="40.59700185428939" lon="9.694461815097565"><ele>49.83333333333333</ele><time>2026-04-30T08:19:36.809Z</time></trkpt><trkpt lat="40.59689160260503" lon="9.694444997853445"><ele>50.666666666666664</ele><time>2026-04-30T08:19:37.809Z</time></trkpt><trkpt lat="40.59682625302991" lon="9.694428720350745"><ele>51.5</ele><time>2026-04-30T08:19:38.809Z</time></trkpt><trkpt lat="40.59675422715276" lon="9.694420556848282"><ele>52.33333333333333</ele><time>2026-04-30T08:19:40.808Z</time></trkpt><trkpt lat="40.59664830924409" lon="9.694424017866826"><ele>53.166666666666664</ele><time>2026-04-30T08:19:42.808Z</time></trkpt><trkpt lat="40.596555081588434" lon="9.694424151018993"><ele>54.0</ele><time>2026-04-30T08:19:43.808Z</time></trkpt><trkpt lat="40.59645175801758" lon="9.694414792514777"><ele>54.0</ele><time>2026-04-30T08:19:44.808Z</time></trkpt><trkpt lat="40.59633974099883" lon="9.694404888588359"><ele>54.0</ele><time>2026-04-30T08:19:45.808Z</time></trkpt><trkpt lat="40.59621352882986" lon="9.694392889386105"><ele>54.0</ele><time>2026-04-30T08:19:46.808Z</time></trkpt><trkpt lat="40.596068186100936" lon="9.694376177918526"><ele>54.0</ele><time>2026-04-30T08:19:47.808Z</time></trkpt><trkpt lat="40.59590735844687" lon="9.69435462291466"><ele>53.33333333333333</ele><time>2026-04-30T08:19:48.808Z</time></trkpt><trkpt lat="40.595726497774265" lon="9.694337348993404"><ele>52.666666666666664</ele><time>2026-04-30T08:19:49.808Z</time></trkpt><trkpt lat="40.59552722442771" lon="9.69432070353819"><ele>52.0</ele><time>2026-04-30T08:19:50.808Z</time></trkpt><trkpt lat="40.59531184512656" lon="9.6943115215957"><ele>52.0</ele><time>2026-04-30T08:19:51.808Z</time></trkpt><trkpt lat="40.59509779567121" lon="9.694311360718464"><ele>52.0</ele><time>2026-04-30T08:19:52.808Z</time></trkpt><trkpt lat="40.594882644567335" lon="9.694306703586012"><ele>52.0</ele><time>2026-04-30T08:19:53.808Z</time></trkpt><trkpt lat="40.59466581475285" lon="9.694303604797357"><ele>51.0</ele><time>2026-04-30T08:19:54.808Z</time></trkpt><trkpt lat="40.59444610047503" lon="9.694296658883008"><ele>50.0</ele><time>2026-04-30T08:19:55.808Z</time></trkpt><trkpt lat="40.594225040246734" lon="9.694286468850704"><ele>49.0</ele><time>2026-04-30T08:19:56.808Z</time></trkpt><trkpt lat="40.594007625213976" lon="9.694275257579696"><ele>49.0</ele><time>2026-04-30T08:19:57.808Z</time></trkpt><trkpt lat="40.59380135147028" lon="9.694266477426536"><ele>49.0</ele><time>2026-04-30T08:19:58.808Z</time></trkpt><trkpt lat="40.59360647287117" lon="9.694249736315303"><ele>49.0</ele><time>2026-04-30T08:19:59.808Z</time></trkpt><trkpt lat="40.59341758879815" lon="9.694226034523995"><ele>49.0</ele><time>2026-04-30T08:20:00.808Z</time></trkpt><trkpt lat="40.59322828415406" lon="9.694192095392676"><ele>49.0</ele><time>2026-04-30T08:20:01.808Z</time></trkpt><trkpt lat="40.593041264915" lon="9.69415402853122"><ele>49.0</ele><time>2026-04-30T08:20:02.808Z</time></trkpt><trkpt lat="40.59283866116939" lon="9.694113911588095"><ele>49.0</ele><time>2026-04-30T08:20:03.808Z</time></trkpt><trkpt lat="40.59262487056378" lon="9.694078753766094"><ele>49.0</ele><time>2026-04-30T08:20:04.808Z</time></trkpt><trkpt lat="40.592394109430856" lon="9.69403162791239"><ele>49.0</ele><time>2026-04-30T08:20:05.808Z</time></trkpt><trkpt lat="40.592171116726924" lon="9.69399326087639"><ele>48.0</ele><time>2026-04-30T08:20:06.808Z</time></trkpt><trkpt lat="40.59195879509233" lon="9.693938158506574"><ele>47.0</ele><time>2026-04-30T08:20:07.808Z</time></trkpt><trkpt lat="40.591738613379114" lon="9.693895895083564"><ele>46.0</ele><time>2026-04-30T08:20:08.808Z</time></trkpt><trkpt lat="40.59150928487589" lon="9.693851876021089"><ele>46.0</ele><time>2026-04-30T08:20:09.808Z</time></trkpt><trkpt lat="40.59127174070614" lon="9.693805966833013"><ele>46.0</ele><time>2026-04-30T08:20:10.807Z</time></trkpt><trkpt lat="40.591002674311234" lon="9.69375378103163"><ele>46.0</ele><time>2026-04-30T08:20:11.807Z</time></trkpt><trkpt lat="40.59070982732312" lon="9.693698020195004"><ele>46.0</ele><time>2026-04-30T08:20:12.807Z</time></trkpt><trkpt lat="40.59042072681828" lon="9.693643317164165"><ele>48.0</ele><time>2026-04-30T08:20:13.807Z</time></trkpt><trkpt lat="40.59015251525415" lon="9.693591864463821"><ele>50.0</ele><time>2026-04-30T08:20:14.807Z</time></trkpt><trkpt lat="40.58990430838096" lon="9.693564016616245"><ele>50.0</ele><time>2026-04-30T08:20:15.807Z</time></trkpt><trkpt lat="40.5896661368042" lon="9.693504529002357"><ele>50.0</ele><time>2026-04-30T08:20:16.807Z</time></trkpt><trkpt lat="40.58943794575607" lon="9.69343124164403"><ele>50.5</ele><time>2026-04-30T08:20:17.807Z</time></trkpt><trkpt lat="40.58922267378528" lon="9.693339146673797"><ele>51.0</ele><time>2026-04-30T08:20:18.807Z</time></trkpt><trkpt lat="40.589001372443754" lon="9.693242308417823"><ele>51.0</ele><time>2026-04-30T08:20:19.807Z</time></trkpt><trkpt lat="40.58876041647145" lon="9.693137606813885"><ele>51.0</ele><time>2026-04-30T08:20:20.807Z</time></trkpt><trkpt lat="40.58851184714044" lon="9.693033165453627"><ele>48.0</ele><time>2026-04-30T08:20:21.807Z</time></trkpt><trkpt lat="40.588255688060464" lon="9.692921763815834"><ele>45.0</ele><time>2026-04-30T08:20:22.807Z</time></trkpt><trkpt lat="40.58800727333474" lon="9.692800335222183"><ele>47.5</ele><time>2026-04-30T08:20:23.807Z</time></trkpt><trkpt lat="40.58777776672109" lon="9.692689858651525"><ele>50.0</ele><time>2026-04-30T08:20:24.807Z</time></trkpt><trkpt lat="40.58756184305644" lon="9.692595311983558"><ele>50.0</ele><time>2026-04-30T08:20:25.807Z</time></trkpt><trkpt lat="40.58736647710613" lon="9.692520226175022"><ele>50.0</ele><time>2026-04-30T08:20:26.807Z</time></trkpt><trkpt lat="40.58718003950009" lon="9.692484248106387"><ele>50.0</ele><time>2026-04-30T08:20:27.807Z</time></trkpt><trkpt lat="40.58698495284544" lon="9.692492256321742"><ele>51.0</ele><time>2026-04-30T08:20:28.807Z</time></trkpt><trkpt lat="40.58677815064582" lon="9.692544063384586"><ele>52.0</ele><time>2026-04-30T08:20:29.808Z</time></trkpt><trkpt lat="40.58655255911156" lon="9.692607024294714"><ele>53.0</ele><time>2026-04-30T08:20:30.809Z</time></trkpt><trkpt lat="40.58632548300832" lon="9.692669145465183"><ele>53.5</ele><time>2026-04-30T08:20:31.809Z</time></trkpt><trkpt lat="40.58615292050544" lon="9.692716618356965"><ele>54.0</ele><time>2026-04-30T08:20:32.808Z</time></trkpt><trkpt lat="40.58602913796228" lon="9.692738993347193"><ele>54.5</ele><time>2026-04-30T08:20:33.808Z</time></trkpt><trkpt lat="40.58594474906611" lon="9.692752144525732"><ele>55.0</ele><time>2026-04-30T08:20:34.808Z</time></trkpt><trkpt lat="40.58587848249837" lon="9.692706546673666"><ele>55.0</ele><time>2026-04-30T08:20:36.809Z</time></trkpt><trkpt lat="40.58584884589959" lon="9.692629573984501"><ele>55.0</ele><time>2026-04-30T08:20:54.808Z</time></trkpt><trkpt lat="40.585723706365904" lon="9.692593488486928"><ele>55.0</ele><time>2026-04-30T08:20:56.808Z</time></trkpt><trkpt lat="40.585622959112236" lon="9.692621341306698"><ele>55.0</ele><time>2026-04-30T08:20:57.808Z</time></trkpt><trkpt lat="40.585515644390355" lon="9.692669397433631"><ele>55.0</ele><time>2026-04-30T08:20:58.808Z</time></trkpt><trkpt lat="40.58538974889015" lon="9.692756306802362"><ele>50.666666666666664</ele><time>2026-04-30T08:20:59.808Z</time></trkpt><trkpt lat="40.58525474263186" lon="9.69287300912506"><ele>46.33333333333333</ele><time>2026-04-30T08:21:00.808Z</time></trkpt><trkpt lat="40.58510925718756" lon="9.69300247317823"><ele>42.0</ele><time>2026-04-30T08:21:01.808Z</time></trkpt><trkpt lat="40.584945978809685" lon="9.693148562772638"><ele>42.0</ele><time>2026-04-30T08:21:02.808Z</time></trkpt><trkpt lat="40.5847673295506" lon="9.6933001336229"><ele>42.0</ele><time>2026-04-30T08:21:03.808Z</time></trkpt><trkpt lat="40.5845791309062" lon="9.693465573343286"><ele>42.0</ele><time>2026-04-30T08:21:04.808Z</time></trkpt><trkpt lat="40.58438750311669" lon="9.693627483103292"><ele>43.5</ele><time>2026-04-30T08:21:05.808Z</time></trkpt><trkpt lat="40.5841933187426" lon="9.693803954094875"><ele>45.0</ele><time>2026-04-30T08:21:06.808Z</time></trkpt><trkpt lat="40.58400737756145" lon="9.693973754901663"><ele>45.0</ele><time>2026-04-30T08:21:07.808Z</time></trkpt><trkpt lat="40.583830846934546" lon="9.69413771214261"><ele>45.0</ele><time>2026-04-30T08:21:08.808Z</time></trkpt><trkpt lat="40.58366249253756" lon="9.694294995016778"><ele>45.0</ele><time>2026-04-30T08:21:09.808Z</time></trkpt><trkpt lat="40.5835078592586" lon="9.69445843247858"><ele>46.33333333333333</ele><time>2026-04-30T08:21:10.808Z</time></trkpt><trkpt lat="40.583356439538086" lon="9.694621502374043"><ele>47.666666666666664</ele><time>2026-04-30T08:21:11.808Z</time></trkpt><trkpt lat="40.58321334860895" lon="9.694771098873982"><ele>49.0</ele><time>2026-04-30T08:21:12.808Z</time></trkpt><trkpt lat="40.58307012439722" lon="9.694899694080199"><ele>49.0</ele><time>2026-04-30T08:21:13.808Z</time></trkpt><trkpt lat="40.582935705428504" lon="9.695032984275018"><ele>49.0</ele><time>2026-04-30T08:21:14.808Z</time></trkpt><trkpt lat="40.58279904181639" lon="9.69515365675281"><ele>49.0</ele><time>2026-04-30T08:21:15.808Z</time></trkpt><trkpt lat="40.582655328715376" lon="9.695257061487085"><ele>50.33333333333333</ele><time>2026-04-30T08:21:16.807Z</time></trkpt><trkpt lat="40.582496528876554" lon="9.695340331723996"><ele>51.66666666666667</ele><time>2026-04-30T08:21:17.807Z</time></trkpt><trkpt lat="40.582335376991594" lon="9.695432847631745"><ele>53.0</ele><time>2026-04-30T08:21:18.807Z</time></trkpt><trkpt lat="40.58218519064622" lon="9.695500919105191"><ele>53.0</ele><time>2026-04-30T08:21:19.807Z</time></trkpt><trkpt lat="40.58204260208011" lon="9.695555433940486"><ele>53.0</ele><time>2026-04-30T08:21:20.807Z</time></trkpt><trkpt lat="40.58192268252041" lon="9.69561601633678"><ele>53.0</ele><time>2026-04-30T08:21:21.807Z</time></trkpt><trkpt lat="40.58180313067298" lon="9.695681228345967"><ele>53.0</ele><time>2026-04-30T08:21:22.807Z</time></trkpt><trkpt lat="40.581688478068436" lon="9.695736681818044"><ele>52.75</ele><time>2026-04-30T08:21:23.807Z</time></trkpt><trkpt lat="40.581576107899615" lon="9.695791948087686"><ele>52.5</ele><time>2026-04-30T08:21:24.807Z</time></trkpt><trkpt lat="40.581463997394835" lon="9.695848076887296"><ele>52.25</ele><time>2026-04-30T08:21:25.807Z</time></trkpt><trkpt lat="40.58135709585957" lon="9.695896615876793"><ele>52.0</ele><time>2026-04-30T08:21:26.807Z</time></trkpt><trkpt lat="40.58124694875309" lon="9.695942667972922"><ele>51.5</ele><time>2026-04-30T08:21:27.807Z</time></trkpt><trkpt lat="40.581132372895944" lon="9.695980822978115"><ele>51.0</ele><time>2026-04-30T08:21:28.807Z</time></trkpt><trkpt lat="40.581012005253484" lon="9.695994751954244"><ele>50.5</ele><time>2026-04-30T08:21:29.807Z</time></trkpt><trkpt lat="40.58089064689816" lon="9.695980940791076"><ele>50.0</ele><time>2026-04-30T08:21:30.807Z</time></trkpt><trkpt lat="40.58076722905541" lon="9.69595031872979"><ele>50.0</ele><time>2026-04-30T08:21:31.807Z</time></trkpt><trkpt lat="40.580643265836144" lon="9.69590573566327"><ele>50.0</ele><time>2026-04-30T08:21:32.807Z</time></trkpt><trkpt lat="40.58052240968021" lon="9.695869583020762"><ele>50.0</ele><time>2026-04-30T08:21:33.807Z</time></trkpt><trkpt lat="40.58039351091479" lon="9.695830679396726"><ele>50.0</ele><time>2026-04-30T08:21:34.807Z</time></trkpt><trkpt lat="40.58026188907607" lon="9.695779103529954"><ele>48.75</ele><time>2026-04-30T08:21:35.807Z</time></trkpt><trkpt lat="40.58012432049282" lon="9.695731601830344"><ele>47.5</ele><time>2026-04-30T08:21:36.807Z</time></trkpt><trkpt lat="40.57998263077266" lon="9.695680657699077"><ele>46.25</ele><time>2026-04-30T08:21:37.807Z</time></trkpt><trkpt lat="40.579841727496884" lon="9.695628848632476"><ele>45.0</ele><time>2026-04-30T08:21:38.807Z</time></trkpt><trkpt lat="40.57969638499325" lon="9.69558532680505"><ele>45.0</ele><time>2026-04-30T08:21:39.807Z</time></trkpt><trkpt lat="40.57954919667136" lon="9.695531184454392"><ele>45.0</ele><time>2026-04-30T08:21:40.807Z</time></trkpt><trkpt lat="40.57940202298679" lon="9.695485603560885"><ele>45.0</ele><time>2026-04-30T08:21:41.807Z</time></trkpt><trkpt lat="40.579261262840745" lon="9.695436484035081"><ele>45.25</ele><time>2026-04-30T08:21:42.807Z</time></trkpt><trkpt lat="40.579133388056015" lon="9.69538498926445"><ele>45.5</ele><time>2026-04-30T08:21:43.807Z</time></trkpt><trkpt lat="40.57901784126506" lon="9.695341408967037"><ele>45.75</ele><time>2026-04-30T08:21:44.807Z</time></trkpt><trkpt lat="40.57891436696118" lon="9.695291999040222"><ele>46.0</ele><time>2026-04-30T08:21:45.806Z</time></trkpt><trkpt lat="40.578825135786055" lon="9.695246864243112"><ele>46.0</ele><time>2026-04-30T08:21:46.806Z</time></trkpt><trkpt lat="40.57875395844281" lon="9.69519610494624"><ele>46.0</ele><time>2026-04-30T08:21:47.806Z</time></trkpt><trkpt lat="40.578700479934874" lon="9.695136852058159"><ele>46.0</ele><time>2026-04-30T08:21:48.806Z</time></trkpt><trkpt lat="40.57863028807349" lon="9.695031488124366"><ele>46.0</ele><time>2026-04-30T08:21:50.806Z</time></trkpt><trkpt lat="40.57858527652581" lon="9.694972891521589"><ele>46.0</ele><time>2026-04-30T08:21:54.806Z</time></trkpt><trkpt lat="40.57854906918462" lon="9.694893839106712"><ele>46.0</ele><time>2026-04-30T08:22:04.806Z</time></trkpt><trkpt lat="40.57849643557211" lon="9.694815249278351"><ele>45.4</ele><time>2026-04-30T08:22:06.806Z</time></trkpt><trkpt lat="40.5784363390744" lon="9.69471850474249"><ele>44.8</ele><time>2026-04-30T08:22:08.806Z</time></trkpt><trkpt lat="40.57837460760827" lon="9.694619506197792"><ele>44.199999999999996</ele><time>2026-04-30T08:22:10.806Z</time></trkpt><trkpt lat="40.57832165402106" lon="9.694535539232906"><ele>43.599999999999994</ele><time>2026-04-30T08:22:12.806Z</time></trkpt><trkpt lat="40.57826491822664" lon="9.6944314830791"><ele>43.0</ele><time>2026-04-30T08:22:14.806Z</time></trkpt><trkpt lat="40.57819948660106" lon="9.69431827201504"><ele>43.0</ele><time>2026-04-30T08:22:16.805Z</time></trkpt><trkpt lat="40.578119909905865" lon="9.694189600911974"><ele>43.0</ele><time>2026-04-30T08:22:18.805Z</time></trkpt><trkpt lat="40.578074383544774" lon="9.694114552741697"><ele>43.0</ele><time>2026-04-30T08:22:19.805Z</time></trkpt><trkpt lat="40.57802668982553" lon="9.694031737217175"><ele>43.0</ele><time>2026-04-30T08:22:20.805Z</time></trkpt><trkpt lat="40.57797485466706" lon="9.693944832817575"><ele>43.0</ele><time>2026-04-30T08:22:21.805Z</time></trkpt><trkpt lat="40.57791909251218" lon="9.693862737154646"><ele>43.0</ele><time>2026-04-30T08:22:22.805Z</time></trkpt><trkpt lat="40.57786205803877" lon="9.693793914707234"><ele>42.333333333333336</ele><time>2026-04-30T08:22:23.805Z</time></trkpt><trkpt lat="40.57780163713775" lon="9.69373471295609"><ele>41.66666666666667</ele><time>2026-04-30T08:22:24.805Z</time></trkpt><trkpt lat="40.57773454211214" lon="9.693688779527893"><ele>41.0</ele><time>2026-04-30T08:22:25.805Z</time></trkpt><trkpt lat="40.577671617045944" lon="9.693646459343155"><ele>40.333333333333336</ele><time>2026-04-30T08:22:26.805Z</time></trkpt><trkpt lat="40.577601374031076" lon="9.693615295640381"><ele>39.666666666666664</ele><time>2026-04-30T08:22:27.805Z</time></trkpt><trkpt lat="40.57752027809768" lon="9.693596782394367"><ele>39.0</ele><time>2026-04-30T08:22:28.805Z</time></trkpt><trkpt lat="40.57744080616387" lon="9.693579175133713"><ele>39.0</ele><time>2026-04-30T08:22:29.805Z</time></trkpt><trkpt lat="40.57736112685336" lon="9.69356616888078"><ele>39.0</ele><time>2026-04-30T08:22:30.805Z</time></trkpt><trkpt lat="40.577283003464814" lon="9.693545497358821"><ele>39.0</ele><time>2026-04-30T08:22:31.805Z</time></trkpt><trkpt lat="40.577206893610125" lon="9.69352544717904"><ele>39.0</ele><time>2026-04-30T08:22:32.805Z</time></trkpt><trkpt lat="40.57713585421064" lon="9.69351205519183"><ele>39.0</ele><time>2026-04-30T08:22:33.805Z</time></trkpt><trkpt lat="40.57706371513135" lon="9.69350023418481"><ele>39.0</ele><time>2026-04-30T08:22:34.806Z</time></trkpt><trkpt lat="40.57699613960806" lon="9.693478299530234"><ele>38.25</ele><time>2026-04-30T08:22:35.805Z</time></trkpt><trkpt lat="40.57693175796132" lon="9.693462209287917"><ele>37.5</ele><time>2026-04-30T08:22:36.805Z</time></trkpt><trkpt lat="40.5768105820945" lon="9.693449704459136"><ele>36.75</ele><time>2026-04-30T08:22:38.806Z</time></trkpt><trkpt lat="40.5766934144419" lon="9.693523727386204"><ele>36.0</ele><time>2026-04-30T08:22:40.806Z</time></trkpt><trkpt lat="40.57673308459224" lon="9.693781382572388"><ele>35.333333333333336</ele><time>2026-04-30T08:22:43.805Z</time></trkpt><trkpt lat="40.57678796050067" lon="9.693860395070747"><ele>34.666666666666664</ele><time>2026-04-30T08:22:44.805Z</time></trkpt><trkpt lat="40.57683815706896" lon="9.693956541887571"><ele>34.0</ele><time>2026-04-30T08:22:45.805Z</time></trkpt><trkpt lat="40.57688455988504" lon="9.694049861043805"><ele>33.33333333333333</ele><time>2026-04-30T08:22:46.805Z</time></trkpt><trkpt lat="40.576927395040464" lon="9.694142525195787"><ele>32.666666666666664</ele><time>2026-04-30T08:22:47.805Z</time></trkpt><trkpt lat="40.576968342510334" lon="9.694232456290738"><ele>32.0</ele><time>2026-04-30T08:22:48.805Z</time></trkpt><trkpt lat="40.57700139150875" lon="9.694320122174338"><ele>32.5</ele><time>2026-04-30T08:22:49.805Z</time></trkpt><trkpt lat="40.57703434873092" lon="9.694413042025348"><ele>33.0</ele><time>2026-04-30T08:22:50.805Z</time></trkpt><trkpt lat="40.577070970665346" lon="9.694508338703823"><ele>33.5</ele><time>2026-04-30T08:22:51.805Z</time></trkpt><trkpt lat="40.577107760788046" lon="9.694602649678153"><ele>34.0</ele><time>2026-04-30T08:22:52.805Z</time></trkpt><trkpt lat="40.57715037763165" lon="9.694693898189541"><ele>34.5</ele><time>2026-04-30T08:22:53.805Z</time></trkpt><trkpt lat="40.57719361878191" lon="9.694785558249128"><ele>35.0</ele><time>2026-04-30T08:22:54.805Z</time></trkpt><trkpt lat="40.57723923084772" lon="9.694878919576523"><ele>35.166666666666664</ele><time>2026-04-30T08:22:55.804Z</time></trkpt><trkpt lat="40.577283277202" lon="9.694976390109016"><ele>35.33333333333333</ele><time>2026-04-30T08:22:56.804Z</time></trkpt><trkpt lat="40.577323633039676" lon="9.69506801166103"><ele>35.5</ele><time>2026-04-30T08:22:57.804Z</time></trkpt><trkpt lat="40.57737420806566" lon="9.695161735492672"><ele>35.666666666666664</ele><time>2026-04-30T08:22:58.804Z</time></trkpt><trkpt lat="40.57741783538199" lon="9.695253269149589"><ele>35.833333333333336</ele><time>2026-04-30T08:22:59.804Z</time></trkpt><trkpt lat="40.57746277596174" lon="9.695352810976255"><ele>36.0</ele><time>2026-04-30T08:23:00.804Z</time></trkpt><trkpt lat="40.57750914103658" lon="9.69545637683092"><ele>36.0</ele><time>2026-04-30T08:23:01.804Z</time></trkpt><trkpt lat="40.57755442458425" lon="9.695560823587252"><ele>36.0</ele><time>2026-04-30T08:23:02.804Z</time></trkpt><trkpt lat="40.5775882249991" lon="9.695678521186007"><ele>36.0</ele><time>2026-04-30T08:23:03.804Z</time></trkpt><trkpt lat="40.577617590329524" lon="9.695785640567223"><ele>36.0</ele><time>2026-04-30T08:23:04.804Z</time></trkpt><trkpt lat="40.577641358501126" lon="9.695900679045295"><ele>36.0</ele><time>2026-04-30T08:23:05.804Z</time></trkpt><trkpt lat="40.57766409891616" lon="9.696009618952688"><ele>36.0</ele><time>2026-04-30T08:23:06.804Z</time></trkpt><trkpt lat="40.57768536532486" lon="9.69610447341168"><ele>36.0</ele><time>2026-04-30T08:23:07.804Z</time></trkpt><trkpt lat="40.57770283192577" lon="9.696189626089426"><ele>36.0</ele><time>2026-04-30T08:23:08.804Z</time></trkpt><trkpt lat="40.57773233926082" lon="9.696325818404073"><ele>36.0</ele><time>2026-04-30T08:23:10.804Z</time></trkpt><trkpt lat="40.577755875196154" lon="9.696426458693464"><ele>36.0</ele><time>2026-04-30T08:23:12.804Z</time></trkpt><trkpt lat="40.57777215599856" lon="9.69651815298948"><ele>36.0</ele><time>2026-04-30T08:23:14.804Z</time></trkpt><trkpt lat="40.57775479650557" lon="9.696617171791987"><ele>36.0</ele><time>2026-04-30T08:23:16.804Z</time></trkpt><trkpt lat="40.577642096890344" lon="9.696645571076363"><ele>36.0</ele><time>2026-04-30T08:23:17.804Z</time></trkpt><trkpt lat="40.577537022777456" lon="9.696704109102733"><ele>36.0</ele><time>2026-04-30T08:23:19.804Z</time></trkpt><trkpt lat="40.57742743702423" lon="9.696760696196502"><ele>36.0</ele><time>2026-04-30T08:23:21.804Z</time></trkpt><trkpt lat="40.57736900652098" lon="9.69679472015814"><ele>36.0</ele><time>2026-04-30T08:23:22.804Z</time></trkpt><trkpt lat="40.577314183819844" lon="9.696837960658494"><ele>36.00000000000001</ele><time>2026-04-30T08:23:23.804Z</time></trkpt><trkpt lat="40.57725771660687" lon="9.696882063879157"><ele>36.0</ele><time>2026-04-30T08:23:24.803Z</time></trkpt><trkpt lat="40.57720255206848" lon="9.696927606520813"><ele>36.0</ele><time>2026-04-30T08:23:25.803Z</time></trkpt><trkpt lat="40.57714039030761" lon="9.696972367668266"><ele>36.0</ele><time>2026-04-30T08:23:26.803Z</time></trkpt><trkpt lat="40.57707523012275" lon="9.697021156183823"><ele>36.0</ele><time>2026-04-30T08:23:27.803Z</time></trkpt><trkpt lat="40.57700308440946" lon="9.69706438457176"><ele>36.00000000000001</ele><time>2026-04-30T08:23:28.803Z</time></trkpt><trkpt lat="40.57692896777555" lon="9.697104157192433"><ele>36.0</ele><time>2026-04-30T08:23:29.803Z</time></trkpt><trkpt lat="40.57684953014369" lon="9.697134165583044"><ele>35.0</ele><time>2026-04-30T08:23:30.803Z</time></trkpt><trkpt lat="40.57677260034161" lon="9.69715009322078"><ele>34.0</ele><time>2026-04-30T08:23:31.803Z</time></trkpt><trkpt lat="40.57669773022521" lon="9.69715291710025"><ele>33.0</ele><time>2026-04-30T08:23:32.803Z</time></trkpt><trkpt lat="40.57661765218006" lon="9.697143047371647"><ele>32.0</ele><time>2026-04-30T08:23:33.803Z</time></trkpt><trkpt lat="40.576540416092286" lon="9.69714278527933"><ele>31.0</ele><time>2026-04-30T08:23:34.803Z</time></trkpt><trkpt lat="40.57645818024694" lon="9.697140988534324"><ele>30.0</ele><time>2026-04-30T08:23:35.803Z</time></trkpt><trkpt lat="40.57638056231784" lon="9.697131558858532"><ele>30.0</ele><time>2026-04-30T08:23:36.803Z</time></trkpt><trkpt lat="40.57631103638086" lon="9.6971298389266"><ele>30.0</ele><time>2026-04-30T08:23:37.803Z</time></trkpt><trkpt lat="40.57624461528034" lon="9.69713184532101"><ele>30.0</ele><time>2026-04-30T08:23:38.803Z</time></trkpt><trkpt lat="40.57617921343088" lon="9.697128423170762"><ele>30.0</ele><time>2026-04-30T08:23:39.803Z</time></trkpt><trkpt lat="40.57605824785045" lon="9.697129856593616"><ele>30.0</ele><time>2026-04-30T08:23:41.803Z</time></trkpt><trkpt lat="40.575987138584466" lon="9.69713183947865"><ele>30.0</ele><time>2026-04-30T08:23:42.803Z</time></trkpt><trkpt lat="40.57590864770803" lon="9.697137996414"><ele>29.166666666666668</ele><time>2026-04-30T08:23:43.803Z</time></trkpt><trkpt lat="40.57582304476517" lon="9.697138577984939"><ele>28.333333333333336</ele><time>2026-04-30T08:23:44.803Z</time></trkpt><trkpt lat="40.5757359993159" lon="9.697134604397204"><ele>27.5</ele><time>2026-04-30T08:23:45.803Z</time></trkpt><trkpt lat="40.57564995099393" lon="9.697131193784843"><ele>26.666666666666668</ele><time>2026-04-30T08:23:46.803Z</time></trkpt><trkpt lat="40.57556031556049" lon="9.697130888927965"><ele>25.833333333333336</ele><time>2026-04-30T08:23:47.803Z</time></trkpt><trkpt lat="40.57546835662663" lon="9.697128644996305"><ele>25.0</ele><time>2026-04-30T08:23:48.803Z</time></trkpt><trkpt lat="40.57537927860261" lon="9.697131489585814"><ele>24.500000000000004</ele><time>2026-04-30T08:23:49.803Z</time></trkpt><trkpt lat="40.57529599695506" lon="9.697130816093859"><ele>24.0</ele><time>2026-04-30T08:23:50.803Z</time></trkpt><trkpt lat="40.57521827820623" lon="9.697128394342272"><ele>23.5</ele><time>2026-04-30T08:23:51.803Z</time></trkpt><trkpt lat="40.57514257161027" lon="9.697129918244936"><ele>23.0</ele><time>2026-04-30T08:23:52.803Z</time></trkpt><trkpt lat="40.575066182909545" lon="9.697124179703605"><ele>22.5</ele><time>2026-04-30T08:23:53.802Z</time></trkpt><trkpt lat="40.5749936701337" lon="9.697127453224255"><ele>22.0</ele><time>2026-04-30T08:23:54.802Z</time></trkpt><trkpt lat="40.57490633230675" lon="9.697127430428116"><ele>22.0</ele><time>2026-04-30T08:23:55.802Z</time></trkpt><trkpt lat="40.57481901709368" lon="9.697126682015618"><ele>22.0</ele><time>2026-04-30T08:23:56.802Z</time></trkpt><trkpt lat="40.57474136699078" lon="9.69713925353916"><ele>22.0</ele><time>2026-04-30T08:23:57.802Z</time></trkpt><trkpt lat="40.57466090283367" lon="9.697145109063205"><ele>22.0</ele><time>2026-04-30T08:23:58.802Z</time></trkpt><trkpt lat="40.57458127055629" lon="9.697142562785746"><ele>22.0</ele><time>2026-04-30T08:23:59.802Z</time></trkpt><trkpt lat="40.57449830016494" lon="9.697147095878453"><ele>22.0</ele><time>2026-04-30T08:24:00.802Z</time></trkpt><trkpt lat="40.574412128442134" lon="9.697151791081357"><ele>22.5</ele><time>2026-04-30T08:24:01.802Z</time></trkpt><trkpt lat="40.5743338465725" lon="9.697165093325863"><ele>23.0</ele><time>2026-04-30T08:24:02.802Z</time></trkpt><trkpt lat="40.57424952590451" lon="9.697177649534593"><ele>23.5</ele><time>2026-04-30T08:24:03.802Z</time></trkpt><trkpt lat="40.57416764026739" lon="9.697200531327265"><ele>24.0</ele><time>2026-04-30T08:24:04.881Z</time></trkpt><trkpt lat="40.57408783897116" lon="9.697225294901514"><ele>24.500000000000004</ele><time>2026-04-30T08:24:05.881Z</time></trkpt><trkpt lat="40.574013375823405" lon="9.697262757571151"><ele>25.0</ele><time>2026-04-30T08:24:06.881Z</time></trkpt><trkpt lat="40.57393360862474" lon="9.697301836601362"><ele>25.0</ele><time>2026-04-30T08:24:07.881Z</time></trkpt><trkpt lat="40.57385884902281" lon="9.697351484231705"><ele>25.0</ele><time>2026-04-30T08:24:08.881Z</time></trkpt><trkpt lat="40.57378442017584" lon="9.697405634888893"><ele>25.0</ele><time>2026-04-30T08:24:09.881Z</time></trkpt><trkpt lat="40.57370585248885" lon="9.697472286078677"><ele>25.0</ele><time>2026-04-30T08:24:10.881Z</time></trkpt><trkpt lat="40.57363105339379" lon="9.697546816388142"><ele>25.0</ele><time>2026-04-30T08:24:11.881Z</time></trkpt><trkpt lat="40.573556772252005" lon="9.69762259784106"><ele>25.0</ele><time>2026-04-30T08:24:12.881Z</time></trkpt><trkpt lat="40.57348110739069" lon="9.69769317945108"><ele>25.0</ele><time>2026-04-30T08:24:13.881Z</time></trkpt><trkpt lat="40.57340061233616" lon="9.697758840478167"><ele>25.0</ele><time>2026-04-30T08:24:14.881Z</time></trkpt><trkpt lat="40.573325050662596" lon="9.697844219276854"><ele>25.0</ele><time>2026-04-30T08:24:15.881Z</time></trkpt><trkpt lat="40.57323901813298" lon="9.697904652749777"><ele>25.0</ele><time>2026-04-30T08:24:16.881Z</time></trkpt><trkpt lat="40.573164216748204" lon="9.69799538986205"><ele>25.000000000000004</ele><time>2026-04-30T08:24:17.881Z</time></trkpt><trkpt lat="40.573078963071694" lon="9.69805575345801"><ele>25.0</ele><time>2026-04-30T08:24:18.881Z</time></trkpt><trkpt lat="40.57300443257913" lon="9.698126611140971"><ele>25.0</ele><time>2026-04-30T08:24:19.881Z</time></trkpt><trkpt lat="40.57293770009465" lon="9.698194292885619"><ele>25.0</ele><time>2026-04-30T08:24:20.881Z</time></trkpt><trkpt lat="40.57286311552789" lon="9.698243193087485"><ele>25.000000000000004</ele><time>2026-04-30T08:24:21.881Z</time></trkpt><trkpt lat="40.57279413861051" lon="9.698304771090113"><ele>25.0</ele><time>2026-04-30T08:24:22.881Z</time></trkpt><trkpt lat="40.57271263910251" lon="9.698377527804846"><ele>25.000000000000004</ele><time>2026-04-30T08:24:23.881Z</time></trkpt><trkpt lat="40.572630039960224" lon="9.698450314161006"><ele>25.0</ele><time>2026-04-30T08:24:24.881Z</time></trkpt><trkpt lat="40.572547874493715" lon="9.698521107221616"><ele>25.0</ele><time>2026-04-30T08:24:25.881Z</time></trkpt><trkpt lat="40.572476735756204" lon="9.698571287038837"><ele>25.0</ele><time>2026-04-30T08:24:26.881Z</time></trkpt><trkpt lat="40.572416020594105" lon="9.698611184805795"><ele>25.000000000000004</ele><time>2026-04-30T08:24:27.881Z</time></trkpt><trkpt lat="40.572351003350676" lon="9.69856265172608"><ele>25.0</ele><time>2026-04-30T08:24:28.881Z</time></trkpt><trkpt lat="40.57227804651961" lon="9.698545471607906"><ele>24.6</ele><time>2026-04-30T08:24:29.881Z</time></trkpt><trkpt lat="40.57218976712698" lon="9.698533215943836"><ele>24.2</ele><time>2026-04-30T08:24:31.881Z</time></trkpt><trkpt lat="40.57210278552223" lon="9.69852195531256"><ele>23.799999999999997</ele><time>2026-04-30T08:24:33.881Z</time></trkpt><trkpt lat="40.57200993026445" lon="9.698535614955814"><ele>23.4</ele><time>2026-04-30T08:24:35.881Z</time></trkpt><trkpt lat="40.571913993245836" lon="9.698589275606382"><ele>23.0</ele><time>2026-04-30T08:24:37.881Z</time></trkpt><trkpt lat="40.57180557833393" lon="9.698626553338993"><ele>23.0</ele><time>2026-04-30T08:24:39.881Z</time></trkpt><trkpt lat="40.57178269931144" lon="9.698713146729212"><ele>23.0</ele><time>2026-04-30T08:24:40.882Z</time></trkpt><trkpt lat="40.571744066602804" lon="9.698797573386024"><ele>23.0</ele><time>2026-04-30T08:24:42.883Z</time></trkpt><trkpt lat="40.57164210772597" lon="9.698803713661981"><ele>23.0</ele><time>2026-04-30T08:24:44.882Z</time></trkpt><trkpt lat="40.57157359980626" lon="9.698780603507688"><ele>23.0</ele><time>2026-04-30T08:24:45.882Z</time></trkpt><trkpt lat="40.5715019819213" lon="9.69878043959536"><ele>23.0</ele><time>2026-04-30T08:24:46.882Z</time></trkpt><trkpt lat="40.57144769125985" lon="9.698681222289645"><ele>23.0</ele><time>2026-04-30T08:24:47.882Z</time></trkpt><trkpt lat="40.571386122966075" lon="9.698633472671965"><ele>23.0</ele><time>2026-04-30T08:24:48.882Z</time></trkpt><trkpt lat="40.57129615862942" lon="9.69853918379557"><ele>23.0</ele><time>2026-04-30T08:24:50.882Z</time></trkpt><trkpt lat="40.57122852068431" lon="9.698481794213063"><ele>23.0</ele><time>2026-04-30T08:24:52.883Z</time></trkpt><trkpt lat="40.57115602744605" lon="9.698433654054146"><ele>23.0</ele><time>2026-04-30T08:24:54.882Z</time></trkpt><trkpt lat="40.57109252779422" lon="9.698393629110573"><ele>23.0</ele><time>2026-04-30T08:24:56.882Z</time></trkpt><trkpt lat="40.571032175082415" lon="9.698343221543357"><ele>23.333333333333336</ele><time>2026-04-30T08:24:59.882Z</time></trkpt><trkpt lat="40.57097592211355" lon="9.698271922156461"><ele>23.666666666666668</ele><time>2026-04-30T08:25:03.882Z</time></trkpt><trkpt lat="40.570918315929376" lon="9.698209759746005"><ele>24.0</ele><time>2026-04-30T08:25:07.882Z</time></trkpt><trkpt lat="40.570863772570554" lon="9.698167940886295"><ele>24.333333333333336</ele><time>2026-04-30T08:25:10.882Z</time></trkpt><trkpt lat="40.570804361140844" lon="9.698102293808507"><ele>24.666666666666668</ele><time>2026-04-30T08:25:16.882Z</time></trkpt><trkpt lat="40.5707378756899" lon="9.698082274516496"><ele>25.0</ele><time>2026-04-30T08:25:19.882Z</time></trkpt><trkpt lat="40.570661354991095" lon="9.698203197659275"><ele>25.0</ele><time>2026-04-30T08:25:20.882Z</time></trkpt><trkpt lat="40.57060673741911" lon="9.698306813406509"><ele>25.0</ele><time>2026-04-30T08:25:21.882Z</time></trkpt><trkpt lat="40.57054911089075" lon="9.698415957984453"><ele>25.0</ele><time>2026-04-30T08:25:22.882Z</time></trkpt><trkpt lat="40.57049857764819" lon="9.698540943850201"><ele>25.0</ele><time>2026-04-30T08:25:23.882Z</time></trkpt><trkpt lat="40.570434674016674" lon="9.69866352594057"><ele>25.0</ele><time>2026-04-30T08:25:24.882Z</time></trkpt><trkpt lat="40.5703694793644" lon="9.698793603638919"><ele>24.0</ele><time>2026-04-30T08:25:25.882Z</time></trkpt><trkpt lat="40.570307813370256" lon="9.698916877598107"><ele>23.0</ele><time>2026-04-30T08:25:26.882Z</time></trkpt><trkpt lat="40.57024787152924" lon="9.699037822188377"><ele>22.0</ele><time>2026-04-30T08:25:27.882Z</time></trkpt><trkpt lat="40.57017727706045" lon="9.699154815332912"><ele>21.0</ele><time>2026-04-30T08:25:28.882Z</time></trkpt><trkpt lat="40.57011579103067" lon="9.699276122525106"><ele>20.0</ele><time>2026-04-30T08:25:29.882Z</time></trkpt><trkpt lat="40.570053731701826" lon="9.699398168215541"><ele>19.8</ele><time>2026-04-30T08:25:30.882Z</time></trkpt><trkpt lat="40.57000573191751" lon="9.699540038759451"><ele>19.6</ele><time>2026-04-30T08:25:31.882Z</time></trkpt><trkpt lat="40.56995011616675" lon="9.699648656083637"><ele>19.4</ele><time>2026-04-30T08:25:32.882Z</time></trkpt><trkpt lat="40.56989493554624" lon="9.699737629883924"><ele>19.2</ele><time>2026-04-30T08:25:33.882Z</time></trkpt><trkpt lat="40.56984305815921" lon="9.69982796378828"><ele>19.0</ele><time>2026-04-30T08:25:34.882Z</time></trkpt><trkpt lat="40.56979291320697" lon="9.69992227041503"><ele>19.0</ele><time>2026-04-30T08:25:35.882Z</time></trkpt><trkpt lat="40.569744513738584" lon="9.700012846855016"><ele>19.0</ele><time>2026-04-30T08:25:36.881Z</time></trkpt><trkpt lat="40.56970172784525" lon="9.70010521942935"><ele>19.0</ele><time>2026-04-30T08:25:37.881Z</time></trkpt><trkpt lat="40.56965570220115" lon="9.700196389857682"><ele>19.0</ele><time>2026-04-30T08:25:38.881Z</time></trkpt><trkpt lat="40.56960986183706" lon="9.700286185737639"><ele>19.0</ele><time>2026-04-30T08:25:39.881Z</time></trkpt><trkpt lat="40.56955982005724" lon="9.700376011827684"><ele>19.0</ele><time>2026-04-30T08:25:40.881Z</time></trkpt><trkpt lat="40.569511789654015" lon="9.700461433340783"><ele>18.4</ele><time>2026-04-30T08:25:41.881Z</time></trkpt><trkpt lat="40.56944377112371" lon="9.700568201853788"><ele>17.799999999999997</ele><time>2026-04-30T08:25:42.881Z</time></trkpt><trkpt lat="40.56938478238504" lon="9.700677257075391"><ele>17.200000000000003</ele><time>2026-04-30T08:25:43.881Z</time></trkpt><trkpt lat="40.569317912084266" lon="9.700794489492859"><ele>16.6</ele><time>2026-04-30T08:25:44.881Z</time></trkpt><trkpt lat="40.56925981920126" lon="9.700923516392349"><ele>16.0</ele><time>2026-04-30T08:25:45.881Z</time></trkpt><trkpt lat="40.56919832860074" lon="9.701058268107527"><ele>15.5</ele><time>2026-04-30T08:25:46.881Z</time></trkpt><trkpt lat="40.56914819943225" lon="9.701204247994898"><ele>15.0</ele><time>2026-04-30T08:25:47.881Z</time></trkpt><trkpt lat="40.56911988088823" lon="9.701368437869181"><ele>14.5</ele><time>2026-04-30T08:25:48.881Z</time></trkpt><trkpt lat="40.56912195139174" lon="9.701541867095104"><ele>14.0</ele><time>2026-04-30T08:25:49.881Z</time></trkpt><trkpt lat="40.569151024511115" lon="9.70171126879369"><ele>14.0</ele><time>2026-04-30T08:25:50.881Z</time></trkpt><trkpt lat="40.569182278643" lon="9.701874677432043"><ele>14.0</ele><time>2026-04-30T08:25:51.881Z</time></trkpt><trkpt lat="40.569212056809164" lon="9.702033792553518"><ele>14.0</ele><time>2026-04-30T08:25:52.881Z</time></trkpt><trkpt lat="40.569239021107485" lon="9.702177609473368"><ele>14.0</ele><time>2026-04-30T08:25:53.881Z</time></trkpt><trkpt lat="40.56925315274242" lon="9.702298292027095"><ele>14.166666666666668</ele><time>2026-04-30T08:25:54.881Z</time></trkpt><trkpt lat="40.56926540063883" lon="9.702400143655913"><ele>14.333333333333334</ele><time>2026-04-30T08:25:55.881Z</time></trkpt><trkpt lat="40.56928417831756" lon="9.702500296743258"><ele>14.5</ele><time>2026-04-30T08:25:56.881Z</time></trkpt><trkpt lat="40.569297355972694" lon="9.702600672242639"><ele>14.666666666666668</ele><time>2026-04-30T08:25:57.881Z</time></trkpt><trkpt lat="40.56931263143356" lon="9.70270289722354"><ele>14.833333333333334</ele><time>2026-04-30T08:25:58.881Z</time></trkpt><trkpt lat="40.569329865453525" lon="9.702809630990922"><ele>15.0</ele><time>2026-04-30T08:25:59.881Z</time></trkpt><trkpt lat="40.56934916466973" lon="9.702920404651914"><ele>15.5</ele><time>2026-04-30T08:26:00.881Z</time></trkpt><trkpt lat="40.5693724654925" lon="9.70303984720565"><ele>16.0</ele><time>2026-04-30T08:26:01.881Z</time></trkpt><trkpt lat="40.569400556875884" lon="9.703156565909586"><ele>16.5</ele><time>2026-04-30T08:26:02.881Z</time></trkpt><trkpt lat="40.56943285685869" lon="9.70327023616294"><ele>17.0</ele><time>2026-04-30T08:26:03.881Z</time></trkpt><trkpt lat="40.56946897294888" lon="9.703373661994027"><ele>17.5</ele><time>2026-04-30T08:26:04.881Z</time></trkpt><trkpt lat="40.569499550792" lon="9.703464408565846"><ele>18.0</ele><time>2026-04-30T08:26:05.881Z</time></trkpt><trkpt lat="40.56953390730338" lon="9.703555556383716"><ele>18.5</ele><time>2026-04-30T08:26:06.881Z</time></trkpt><trkpt lat="40.56957633201821" lon="9.703635560641805"><ele>19.0</ele><time>2026-04-30T08:26:07.881Z</time></trkpt><trkpt lat="40.56960266308253" lon="9.703713676517593"><ele>19.5</ele><time>2026-04-30T08:26:08.881Z</time></trkpt><trkpt lat="40.56965590616993" lon="9.703846442223798"><ele>20.0</ele><time>2026-04-30T08:26:10.881Z</time></trkpt><trkpt lat="40.56971351389506" lon="9.703995846413576"><ele>20.5</ele><time>2026-04-30T08:26:12.881Z</time></trkpt><trkpt lat="40.56974321534626" lon="9.704072599367953"><ele>21.0</ele><time>2026-04-30T08:26:13.881Z</time></trkpt><trkpt lat="40.569773951247996" lon="9.704150928382528"><ele>21.0</ele><time>2026-04-30T08:26:14.881Z</time></trkpt><trkpt lat="40.56980418207562" lon="9.704230219402213"><ele>21.0</ele><time>2026-04-30T08:26:15.881Z</time></trkpt><trkpt lat="40.569836996000845" lon="9.704310277396303"><ele>21.0</ele><time>2026-04-30T08:26:16.881Z</time></trkpt><trkpt lat="40.5698667611977" lon="9.704396594147818"><ele>21.0</ele><time>2026-04-30T08:26:17.881Z</time></trkpt><trkpt lat="40.56990347517733" lon="9.704486991608642"><ele>21.0</ele><time>2026-04-30T08:26:18.881Z</time></trkpt><trkpt lat="40.5699452699557" lon="9.704589253791037"><ele>21.0</ele><time>2026-04-30T08:26:19.881Z</time></trkpt><trkpt lat="40.5699847806575" lon="9.704701330005092"><ele>21.25</ele><time>2026-04-30T08:26:20.881Z</time></trkpt><trkpt lat="40.57003393362505" lon="9.704822487204469"><ele>21.5</ele><time>2026-04-30T08:26:21.881Z</time></trkpt><trkpt lat="40.570087011769" lon="9.704952874913733"><ele>21.75</ele><time>2026-04-30T08:26:22.881Z</time></trkpt><trkpt lat="40.570140696539035" lon="9.705097578967692"><ele>22.0</ele><time>2026-04-30T08:26:23.881Z</time></trkpt><trkpt lat="40.57019735725185" lon="9.705254409462428"><ele>21.5</ele><time>2026-04-30T08:26:24.881Z</time></trkpt><trkpt lat="40.57025598653942" lon="9.705417310251434"><ele>21.0</ele><time>2026-04-30T08:26:25.88Z</time></trkpt><trkpt lat="40.57031388198182" lon="9.70557984625591"><ele>20.5</ele><time>2026-04-30T08:26:26.88Z</time></trkpt><trkpt lat="40.5703741555044" lon="9.705733978103932"><ele>20.0</ele><time>2026-04-30T08:26:27.88Z</time></trkpt><trkpt lat="40.57043387111529" lon="9.70588656647646"><ele>18.75</ele><time>2026-04-30T08:26:28.88Z</time></trkpt><trkpt lat="40.57049448176972" lon="9.706045680125575"><ele>17.5</ele><time>2026-04-30T08:26:29.88Z</time></trkpt><trkpt lat="40.57056052776392" lon="9.706209993151658"><ele>16.25</ele><time>2026-04-30T08:26:30.88Z</time></trkpt><trkpt lat="40.570633271118965" lon="9.706384202932977"><ele>15.0</ele><time>2026-04-30T08:26:31.88Z</time></trkpt><trkpt lat="40.57070649518026" lon="9.70656737433766"><ele>14.666666666666668</ele><time>2026-04-30T08:26:32.88Z</time></trkpt><trkpt lat="40.57077756015901" lon="9.706757253621289"><ele>14.333333333333334</ele><time>2026-04-30T08:26:33.88Z</time></trkpt><trkpt lat="40.570851060451695" lon="9.706949547854153"><ele>14.0</ele><time>2026-04-30T08:26:34.88Z</time></trkpt><trkpt lat="40.570928045242574" lon="9.707148003050968"><ele>14.0</ele><time>2026-04-30T08:26:35.88Z</time></trkpt><trkpt lat="40.571002846106346" lon="9.707337397622412"><ele>14.0</ele><time>2026-04-30T08:26:36.88Z</time></trkpt><trkpt lat="40.57107907967843" lon="9.707529577101049"><ele>14.0</ele><time>2026-04-30T08:26:37.88Z</time></trkpt><trkpt lat="40.57115741079217" lon="9.707735476601709"><ele>14.0</ele><time>2026-04-30T08:26:38.88Z</time></trkpt><trkpt lat="40.57123813343153" lon="9.707941709899934"><ele>14.0</ele><time>2026-04-30T08:26:39.88Z</time></trkpt><trkpt lat="40.57131691108957" lon="9.708148355696705"><ele>14.0</ele><time>2026-04-30T08:26:40.88Z</time></trkpt><trkpt lat="40.57138431961688" lon="9.708329958039737"><ele>14.0</ele><time>2026-04-30T08:26:41.88Z</time></trkpt><trkpt lat="40.57144192885135" lon="9.708488294712737"><ele>14.0</ele><time>2026-04-30T08:26:42.88Z</time></trkpt><trkpt lat="40.571490766695185" lon="9.70863074489661"><ele>14.0</ele><time>2026-04-30T08:26:43.88Z</time></trkpt><trkpt lat="40.57154341490794" lon="9.708764320483256"><ele>14.0</ele><time>2026-04-30T08:26:44.88Z</time></trkpt><trkpt lat="40.5715941401325" lon="9.70889384005356"><ele>14.799999999999999</ele><time>2026-04-30T08:26:45.88Z</time></trkpt><trkpt lat="40.57164204855679" lon="9.709017522553129"><ele>15.599999999999998</ele><time>2026-04-30T08:26:46.881Z</time></trkpt><trkpt lat="40.5716875594177" lon="9.709137106971497"><ele>16.4</ele><time>2026-04-30T08:26:47.882Z</time></trkpt><trkpt lat="40.571730297541635" lon="9.709253418453804"><ele>17.2</ele><time>2026-04-30T08:26:48.881Z</time></trkpt><trkpt lat="40.57177465344076" lon="9.709375804157917"><ele>18.0</ele><time>2026-04-30T08:26:49.881Z</time></trkpt><trkpt lat="40.571821416807516" lon="9.709490511804605"><ele>17.833333333333332</ele><time>2026-04-30T08:26:50.881Z</time></trkpt><trkpt lat="40.571870222107606" lon="9.709602425660902"><ele>17.666666666666668</ele><time>2026-04-30T08:26:51.881Z</time></trkpt><trkpt lat="40.57191008159451" lon="9.709701940214119"><ele>17.5</ele><time>2026-04-30T08:26:52.881Z</time></trkpt><trkpt lat="40.57194287155224" lon="9.709796040331227"><ele>17.333333333333336</ele><time>2026-04-30T08:26:53.881Z</time></trkpt><trkpt lat="40.57197552558808" lon="9.70988116870915"><ele>17.166666666666668</ele><time>2026-04-30T08:26:54.881Z</time></trkpt><trkpt lat="40.57200425189914" lon="9.709960544469588"><ele>17.0</ele><time>2026-04-30T08:26:55.881Z</time></trkpt><trkpt lat="40.572041102756316" lon="9.710047300596047"><ele>17.0</ele><time>2026-04-30T08:26:56.881Z</time></trkpt><trkpt lat="40.57208869213751" lon="9.710153085990498"><ele>17.0</ele><time>2026-04-30T08:26:57.881Z</time></trkpt><trkpt lat="40.57213803209831" lon="9.71028346164978"><ele>17.0</ele><time>2026-04-30T08:26:58.881Z</time></trkpt><trkpt lat="40.57219106459975" lon="9.710426054416333"><ele>17.0</ele><time>2026-04-30T08:26:59.881Z</time></trkpt><trkpt lat="40.57225522469837" lon="9.71059022127536"><ele>16.666666666666668</ele><time>2026-04-30T08:27:00.881Z</time></trkpt><trkpt lat="40.572326202959346" lon="9.710772026504655"><ele>16.333333333333332</ele><time>2026-04-30T08:27:01.881Z</time></trkpt><trkpt lat="40.57240683434483" lon="9.710964894850688"><ele>16.0</ele><time>2026-04-30T08:27:02.881Z</time></trkpt><trkpt lat="40.572492454241775" lon="9.711179114312216"><ele>16.0</ele><time>2026-04-30T08:27:03.881Z</time></trkpt><trkpt lat="40.572581847582114" lon="9.711418913542136"><ele>16.0</ele><time>2026-04-30T08:27:04.881Z</time></trkpt><trkpt lat="40.57268172888044" lon="9.7116666646287"><ele>16.0</ele><time>2026-04-30T08:27:05.881Z</time></trkpt><trkpt lat="40.572763367007354" lon="9.71194905663417"><ele>17.5</ele><time>2026-04-30T08:27:06.881Z</time></trkpt><trkpt lat="40.57287025762371" lon="9.71222322533781"><ele>19.0</ele><time>2026-04-30T08:27:07.881Z</time></trkpt><trkpt lat="40.572979012883714" lon="9.712502158031986"><ele>19.666666666666664</ele><time>2026-04-30T08:27:08.881Z</time></trkpt><trkpt lat="40.57307704614353" lon="9.712770914442268"><ele>20.333333333333332</ele><time>2026-04-30T08:27:09.881Z</time></trkpt><trkpt lat="40.57316345637517" lon="9.713027041797059"><ele>21.0</ele><time>2026-04-30T08:27:10.881Z</time></trkpt><trkpt lat="40.57323417813222" lon="9.713288877168203"><ele>21.0</ele><time>2026-04-30T08:27:11.881Z</time></trkpt><trkpt lat="40.57329221166564" lon="9.713581649430068"><ele>21.0</ele><time>2026-04-30T08:27:12.881Z</time></trkpt><trkpt lat="40.57334387444202" lon="9.713916077219238"><ele>21.0</ele><time>2026-04-30T08:27:13.881Z</time></trkpt><trkpt lat="40.57340234487946" lon="9.714271596534731"><ele>21.0</ele><time>2026-04-30T08:27:14.881Z</time></trkpt><trkpt lat="40.573465827357936" lon="9.714621074061643"><ele>21.5</ele><time>2026-04-30T08:27:15.881Z</time></trkpt><trkpt lat="40.57351910664711" lon="9.714957110036577"><ele>22.0</ele><time>2026-04-30T08:27:16.881Z</time></trkpt><trkpt lat="40.57357308842116" lon="9.715283627986611"><ele>24.0</ele><time>2026-04-30T08:27:17.881Z</time></trkpt><trkpt lat="40.57362660765376" lon="9.71561322804985"><ele>26.0</ele><time>2026-04-30T08:27:18.881Z</time></trkpt><trkpt lat="40.57368252050691" lon="9.715941802601803"><ele>23.5</ele><time>2026-04-30T08:27:19.881Z</time></trkpt><trkpt lat="40.57373929616961" lon="9.716264317549502"><ele>21.0</ele><time>2026-04-30T08:27:20.881Z</time></trkpt><trkpt lat="40.57379796389371" lon="9.716581265385452"><ele>23.5</ele><time>2026-04-30T08:27:21.881Z</time></trkpt><trkpt lat="40.573848487438575" lon="9.716904893863338"><ele>26.0</ele><time>2026-04-30T08:27:22.881Z</time></trkpt><trkpt lat="40.573903341322776" lon="9.71722315868233"><ele>26.0</ele><time>2026-04-30T08:27:23.881Z</time></trkpt><trkpt lat="40.57395707235057" lon="9.71753687900461"><ele>26.0</ele><time>2026-04-30T08:27:24.881Z</time></trkpt><trkpt lat="40.57401121657193" lon="9.717850202148721"><ele>26.5</ele><time>2026-04-30T08:27:25.881Z</time></trkpt><trkpt lat="40.5740650754871" lon="9.718160159480963"><ele>27.0</ele><time>2026-04-30T08:27:26.881Z</time></trkpt><trkpt lat="40.57412122580438" lon="9.718467523139246"><ele>26.5</ele><time>2026-04-30T08:27:27.881Z</time></trkpt><trkpt lat="40.57416836890984" lon="9.718762205650478"><ele>26.0</ele><time>2026-04-30T08:27:28.88Z</time></trkpt><trkpt lat="40.57420520734308" lon="9.719071452154248"><ele>26.0</ele><time>2026-04-30T08:27:29.88Z</time></trkpt><trkpt lat="40.57423328111208" lon="9.719384081482291"><ele>26.0</ele><time>2026-04-30T08:27:30.88Z</time></trkpt><trkpt lat="40.57425883922954" lon="9.719688716011591"><ele>24.5</ele><time>2026-04-30T08:27:31.88Z</time></trkpt><trkpt lat="40.57428804327219" lon="9.719998092225428"><ele>23.0</ele><time>2026-04-30T08:27:32.88Z</time></trkpt><trkpt lat="40.57431533571053" lon="9.720304820614839"><ele>22.5</ele><time>2026-04-30T08:27:33.88Z</time></trkpt><trkpt lat="40.57434115235023" lon="9.720611383046865"><ele>22.0</ele><time>2026-04-30T08:27:34.88Z</time></trkpt><trkpt lat="40.57437211093373" lon="9.720906126223833"><ele>22.0</ele><time>2026-04-30T08:27:35.88Z</time></trkpt><trkpt lat="40.57440185353554" lon="9.721202644596476"><ele>22.0</ele><time>2026-04-30T08:27:36.88Z</time></trkpt><trkpt lat="40.57443359262381" lon="9.721509294550282"><ele>22.0</ele><time>2026-04-30T08:27:37.88Z</time></trkpt><trkpt lat="40.57446559515167" lon="9.721803720797215"><ele>22.0</ele><time>2026-04-30T08:27:38.88Z</time></trkpt><trkpt lat="40.57448282089567" lon="9.722076651502222"><ele>22.0</ele><time>2026-04-30T08:27:39.88Z</time></trkpt><trkpt lat="40.57448285229562" lon="9.72233392151484"><ele>22.666666666666664</ele><time>2026-04-30T08:27:40.88Z</time></trkpt><trkpt lat="40.574462341847216" lon="9.722570382342013"><ele>23.333333333333332</ele><time>2026-04-30T08:27:41.88Z</time></trkpt><trkpt lat="40.574444262594035" lon="9.722782884602418"><ele>24.0</ele><time>2026-04-30T08:27:42.88Z</time></trkpt><trkpt lat="40.574474764707475" lon="9.723001177832053"><ele>24.333333333333336</ele><time>2026-04-30T08:27:43.88Z</time></trkpt><trkpt lat="40.57455464915745" lon="9.72322032314939"><ele>24.666666666666668</ele><time>2026-04-30T08:27:44.88Z</time></trkpt><trkpt lat="40.5746497817662" lon="9.723456818614553"><ele>25.0</ele><time>2026-04-30T08:27:45.88Z</time></trkpt><trkpt lat="40.57470754657428" lon="9.723716498670715"><ele>26.333333333333336</ele><time>2026-04-30T08:27:46.88Z</time></trkpt><trkpt lat="40.574730453023875" lon="9.72400620306574"><ele>27.666666666666664</ele><time>2026-04-30T08:27:47.88Z</time></trkpt><trkpt lat="40.57472633201996" lon="9.724287170464857"><ele>29.0</ele><time>2026-04-30T08:27:48.88Z</time></trkpt><trkpt lat="40.574737106908266" lon="9.724538438945771"><ele>29.0</ele><time>2026-04-30T08:27:49.88Z</time></trkpt><trkpt lat="40.57478147350838" lon="9.724802256587061"><ele>29.0</ele><time>2026-04-30T08:27:50.88Z</time></trkpt><trkpt lat="40.574862205870495" lon="9.725111602018055"><ele>28.0</ele><time>2026-04-30T08:27:51.88Z</time></trkpt><trkpt lat="40.574960461947256" lon="9.725439785252574"><ele>27.0</ele><time>2026-04-30T08:27:52.88Z</time></trkpt><trkpt lat="40.5750585034796" lon="9.7257763165274"><ele>26.5</ele><time>2026-04-30T08:27:53.88Z</time></trkpt><trkpt lat="40.57515121682792" lon="9.726129034377479"><ele>26.0</ele><time>2026-04-30T08:27:54.88Z</time></trkpt><trkpt lat="40.575246474309104" lon="9.726489147755792"><ele>26.0</ele><time>2026-04-30T08:27:55.88Z</time></trkpt><trkpt lat="40.5753393133387" lon="9.726842503239595"><ele>26.0</ele><time>2026-04-30T08:27:56.88Z</time></trkpt><trkpt lat="40.575432531996405" lon="9.727179296753828"><ele>24.5</ele><time>2026-04-30T08:27:57.88Z</time></trkpt><trkpt lat="40.575516245543454" lon="9.727500675294923"><ele>23.0</ele><time>2026-04-30T08:27:58.88Z</time></trkpt><trkpt lat="40.57558882731205" lon="9.727795586578223"><ele>23.0</ele><time>2026-04-30T08:27:59.88Z</time></trkpt><trkpt lat="40.57565773715226" lon="9.728070409313105"><ele>23.0</ele><time>2026-04-30T08:28:00.88Z</time></trkpt><trkpt lat="40.57572247999394" lon="9.728333065276006"><ele>23.0</ele><time>2026-04-30T08:28:01.88Z</time></trkpt><trkpt lat="40.575791146261196" lon="9.728595274219995"><ele>23.333333333333336</ele><time>2026-04-30T08:28:02.88Z</time></trkpt><trkpt lat="40.575854624804634" lon="9.728847637276672"><ele>23.666666666666668</ele><time>2026-04-30T08:28:03.88Z</time></trkpt><trkpt lat="40.575903627223184" lon="9.7290936330112"><ele>24.0</ele><time>2026-04-30T08:28:04.88Z</time></trkpt><trkpt lat="40.57591949521005" lon="9.729350222202475"><ele>24.333333333333336</ele><time>2026-04-30T08:28:05.88Z</time></trkpt><trkpt lat="40.57590699587304" lon="9.729618023608767"><ele>24.666666666666668</ele><time>2026-04-30T08:28:06.88Z</time></trkpt><trkpt lat="40.57590392363283" lon="9.729890531478304"><ele>25.0</ele><time>2026-04-30T08:28:07.88Z</time></trkpt><trkpt lat="40.5759440873394" lon="9.730150540070623"><ele>26.333333333333336</ele><time>2026-04-30T08:28:08.88Z</time></trkpt><trkpt lat="40.57601548423967" lon="9.730399957179033"><ele>27.666666666666664</ele><time>2026-04-30T08:28:09.88Z</time></trkpt><trkpt lat="40.576109353505046" lon="9.730639844518212"><ele>29.0</ele><time>2026-04-30T08:28:10.88Z</time></trkpt><trkpt lat="40.576223732364134" lon="9.730874530039879"><ele>28.666666666666664</ele><time>2026-04-30T08:28:11.88Z</time></trkpt><trkpt lat="40.57633818671262" lon="9.73111703460247"><ele>28.333333333333336</ele><time>2026-04-30T08:28:12.88Z</time></trkpt><trkpt lat="40.5764494302711" lon="9.731365682685297"><ele>28.0</ele><time>2026-04-30T08:28:13.88Z</time></trkpt><trkpt lat="40.57655474549744" lon="9.731623932036875"><ele>24.5</ele><time>2026-04-30T08:28:14.88Z</time></trkpt><trkpt lat="40.57664603476002" lon="9.73189852722724"><ele>21.0</ele><time>2026-04-30T08:28:15.88Z</time></trkpt><trkpt lat="40.57670747479968" lon="9.732204644660106"><ele>21.0</ele><time>2026-04-30T08:28:16.88Z</time></trkpt><trkpt lat="40.576762565359154" lon="9.732523175977416"><ele>21.0</ele><time>2026-04-30T08:28:17.879Z</time></trkpt><trkpt lat="40.57681294787708" lon="9.732832358052095"><ele>19.666666666666668</ele><time>2026-04-30T08:28:18.879Z</time></trkpt><trkpt lat="40.57685963864629" lon="9.73312348098461"><ele>18.333333333333336</ele><time>2026-04-30T08:28:19.879Z</time></trkpt><trkpt lat="40.576899154482696" lon="9.73338089063615"><ele>17.0</ele><time>2026-04-30T08:28:20.879Z</time></trkpt><trkpt lat="40.57694058610619" lon="9.733601086506091"><ele>17.8</ele><time>2026-04-30T08:28:21.879Z</time></trkpt><trkpt lat="40.57697913427235" lon="9.733776513854606"><ele>18.6</ele><time>2026-04-30T08:28:22.879Z</time></trkpt><trkpt lat="40.57701698569042" lon="9.73391972801033"><ele>19.400000000000002</ele><time>2026-04-30T08:28:23.879Z</time></trkpt><trkpt lat="40.577081140365536" lon="9.734012861647058"><ele>20.2</ele><time>2026-04-30T08:28:24.879Z</time></trkpt><trkpt lat="40.57716477421041" lon="9.734079330070477"><ele>21.0</ele><time>2026-04-30T08:28:25.879Z</time></trkpt><trkpt lat="40.57728689126118" lon="9.73413245576773"><ele>21.0</ele><time>2026-04-30T08:28:26.879Z</time></trkpt><trkpt lat="40.57741595220924" lon="9.734209408468754"><ele>21.0</ele><time>2026-04-30T08:28:27.879Z</time></trkpt><trkpt lat="40.57755775668473" lon="9.734331576049003"><ele>21.0</ele><time>2026-04-30T08:28:28.879Z</time></trkpt><trkpt lat="40.577698693093545" lon="9.734486259092709"><ele>21.666666666666668</ele><time>2026-04-30T08:28:29.879Z</time></trkpt><trkpt lat="40.577831190175374" lon="9.73467235154256"><ele>22.333333333333336</ele><time>2026-04-30T08:28:30.879Z</time></trkpt><trkpt lat="40.57795868273901" lon="9.734885332607618"><ele>23.0</ele><time>2026-04-30T08:28:31.879Z</time></trkpt><trkpt lat="40.57808667272189" lon="9.735092421287472"><ele>23.0</ele><time>2026-04-30T08:28:32.879Z</time></trkpt><trkpt lat="40.57819648319901" lon="9.735318493961831"><ele>23.0</ele><time>2026-04-30T08:28:33.879Z</time></trkpt><trkpt lat="40.57830216829569" lon="9.735566193957137"><ele>23.0</ele><time>2026-04-30T08:28:34.879Z</time></trkpt><trkpt lat="40.57841692444451" lon="9.735827835787205"><ele>26.0</ele><time>2026-04-30T08:28:35.879Z</time></trkpt><trkpt lat="40.57853027210555" lon="9.736096341719877"><ele>29.0</ele><time>2026-04-30T08:28:36.879Z</time></trkpt><trkpt lat="40.57863577118312" lon="9.736362070455781"><ele>24.0</ele><time>2026-04-30T08:28:37.879Z</time></trkpt><trkpt lat="40.578729287183975" lon="9.736621281224897"><ele>19.0</ele><time>2026-04-30T08:28:38.879Z</time></trkpt><trkpt lat="40.57880808504342" lon="9.73686729093767"><ele>14.0</ele><time>2026-04-30T08:28:39.879Z</time></trkpt><trkpt lat="40.57887160605967" lon="9.737105403561952"><ele>14.0</ele><time>2026-04-30T08:28:40.879Z</time></trkpt><trkpt lat="40.578905428126475" lon="9.737360432727716"><ele>14.0</ele><time>2026-04-30T08:28:41.879Z</time></trkpt><trkpt lat="40.57890226794687" lon="9.737643434064955"><ele>14.0</ele><time>2026-04-30T08:28:42.879Z</time></trkpt><trkpt lat="40.57888861272779" lon="9.737926526365287"><ele>14.0</ele><time>2026-04-30T08:28:43.879Z</time></trkpt><trkpt lat="40.578863199287355" lon="9.738216951575742"><ele>14.0</ele><time>2026-04-30T08:28:44.879Z</time></trkpt><trkpt lat="40.57882617787384" lon="9.738505845929794"><ele>14.0</ele><time>2026-04-30T08:28:45.879Z</time></trkpt><trkpt lat="40.578794723325906" lon="9.738777970441452"><ele>14.0</ele><time>2026-04-30T08:28:46.879Z</time></trkpt><trkpt lat="40.578783696502484" lon="9.739026777133583"><ele>14.0</ele><time>2026-04-30T08:28:47.879Z</time></trkpt><trkpt lat="40.57880883462956" lon="9.739267622839002"><ele>14.0</ele><time>2026-04-30T08:28:48.879Z</time></trkpt><trkpt lat="40.57884952542053" lon="9.739485264799283"><ele>15.75</ele><time>2026-04-30T08:28:49.879Z</time></trkpt><trkpt lat="40.57891004928036" lon="9.739655959802025"><ele>17.5</ele><time>2026-04-30T08:28:50.879Z</time></trkpt><trkpt lat="40.57901519405847" lon="9.739773514506826"><ele>19.25</ele><time>2026-04-30T08:28:51.879Z</time></trkpt><trkpt lat="40.57916700717466" lon="9.739863071107786"><ele>21.0</ele><time>2026-04-30T08:28:52.88Z</time></trkpt><trkpt lat="40.57933056788747" lon="9.739973157974648"><ele>21.0</ele><time>2026-04-30T08:28:53.88Z</time></trkpt><trkpt lat="40.57948241151075" lon="9.740082461971896"><ele>21.0</ele><time>2026-04-30T08:28:54.88Z</time></trkpt><trkpt lat="40.57961624355851" lon="9.740201866544867"><ele>21.0</ele><time>2026-04-30T08:28:55.88Z</time></trkpt><trkpt lat="40.5797204054236" lon="9.740360106809272"><ele>19.333333333333332</ele><time>2026-04-30T08:28:56.879Z</time></trkpt><trkpt lat="40.57977339036972" lon="9.7405466238896"><ele>17.666666666666664</ele><time>2026-04-30T08:28:57.879Z</time></trkpt><trkpt lat="40.579777080612665" lon="9.740757027954889"><ele>16.0</ele><time>2026-04-30T08:28:58.88Z</time></trkpt><trkpt lat="40.579749316199226" lon="9.741006282243612"><ele>15.666666666666666</ele><time>2026-04-30T08:28:59.88Z</time></trkpt><trkpt lat="40.579725139896496" lon="9.741271883061373"><ele>15.333333333333332</ele><time>2026-04-30T08:29:00.88Z</time></trkpt><trkpt lat="40.57971126087884" lon="9.741556946442666"><ele>15.0</ele><time>2026-04-30T08:29:01.88Z</time></trkpt><trkpt lat="40.579704875008424" lon="9.741856877664896"><ele>13.5</ele><time>2026-04-30T08:29:02.881Z</time></trkpt><trkpt lat="40.579696035691455" lon="9.742168153714529"><ele>12.0</ele><time>2026-04-30T08:29:03.881Z</time></trkpt><trkpt lat="40.57968767005055" lon="9.742487267052143"><ele>12.5</ele><time>2026-04-30T08:29:04.88Z</time></trkpt><trkpt lat="40.579705561691675" lon="9.742801204484122"><ele>13.0</ele><time>2026-04-30T08:29:05.88Z</time></trkpt><trkpt lat="40.57973867123837" lon="9.743115062307664"><ele>13.0</ele><time>2026-04-30T08:29:06.88Z</time></trkpt><trkpt lat="40.57979862396746" lon="9.743422832532683"><ele>13.0</ele><time>2026-04-30T08:29:07.88Z</time></trkpt><trkpt lat="40.579871679889926" lon="9.74373464404454"><ele>13.0</ele><time>2026-04-30T08:29:08.88Z</time></trkpt><trkpt lat="40.57995483103125" lon="9.744041645712704"><ele>13.0</ele><time>2026-04-30T08:29:09.88Z</time></trkpt><trkpt lat="40.580036663483746" lon="9.74435005633099"><ele>14.5</ele><time>2026-04-30T08:29:10.88Z</time></trkpt><trkpt lat="40.58012380694588" lon="9.74465544339133"><ele>16.0</ele><time>2026-04-30T08:29:11.88Z</time></trkpt><trkpt lat="40.58020941621659" lon="9.744960118605716"><ele>15.5</ele><time>2026-04-30T08:29:12.88Z</time></trkpt><trkpt lat="40.58029746338151" lon="9.745270168660696"><ele>15.0</ele><time>2026-04-30T08:29:13.88Z</time></trkpt><trkpt lat="40.580385171798596" lon="9.745585089484862"><ele>13.5</ele><time>2026-04-30T08:29:14.88Z</time></trkpt><trkpt lat="40.580472234893875" lon="9.745905049029956"><ele>12.0</ele><time>2026-04-30T08:29:15.88Z</time></trkpt><trkpt lat="40.5805553284655" lon="9.746224245737979"><ele>12.0</ele><time>2026-04-30T08:29:16.88Z</time></trkpt><trkpt lat="40.580642940835496" lon="9.746545528675977"><ele>12.0</ele><time>2026-04-30T08:29:17.88Z</time></trkpt><trkpt lat="40.58072983723313" lon="9.746862720693262"><ele>12.0</ele><time>2026-04-30T08:29:18.88Z</time></trkpt><trkpt lat="40.58081716037523" lon="9.747176229681523"><ele>12.0</ele><time>2026-04-30T08:29:19.88Z</time></trkpt><trkpt lat="40.580895881759695" lon="9.747473313440391"><ele>12.666666666666668</ele><time>2026-04-30T08:29:20.88Z</time></trkpt><trkpt lat="40.58097228328075" lon="9.74775094555212"><ele>13.333333333333334</ele><time>2026-04-30T08:29:21.88Z</time></trkpt><trkpt lat="40.58106616379074" lon="9.748008644413725"><ele>14.0</ele><time>2026-04-30T08:29:22.88Z</time></trkpt><trkpt lat="40.58119726132802" lon="9.748229242481468"><ele>13.666666666666668</ele><time>2026-04-30T08:29:23.88Z</time></trkpt><trkpt lat="40.58133806966489" lon="9.748426517239492"><ele>13.333333333333332</ele><time>2026-04-30T08:29:24.88Z</time></trkpt><trkpt lat="40.58145423983807" lon="9.748617773923474"><ele>13.0</ele><time>2026-04-30T08:29:25.88Z</time></trkpt><trkpt lat="40.58150787042699" lon="9.748842779269472"><ele>13.0</ele><time>2026-04-30T08:29:26.88Z</time></trkpt><trkpt lat="40.58153643466197" lon="9.749097789775673"><ele>13.0</ele><time>2026-04-30T08:29:27.88Z</time></trkpt><trkpt lat="40.58157314346288" lon="9.74938672045527"><ele>13.0</ele><time>2026-04-30T08:29:28.88Z</time></trkpt><trkpt lat="40.581594709610584" lon="9.749674078004016"><ele>13.5</ele><time>2026-04-30T08:29:29.88Z</time></trkpt><trkpt lat="40.581627863827165" lon="9.74997184092622"><ele>14.0</ele><time>2026-04-30T08:29:30.88Z</time></trkpt><trkpt lat="40.58167201149394" lon="9.750277683438835"><ele>15.0</ele><time>2026-04-30T08:29:31.88Z</time></trkpt><trkpt lat="40.581714040119635" lon="9.750587035553021"><ele>16.0</ele><time>2026-04-30T08:29:32.88Z</time></trkpt><trkpt lat="40.58178002519614" lon="9.750892314264078"><ele>17.0</ele><time>2026-04-30T08:29:33.88Z</time></trkpt><trkpt lat="40.581854630259286" lon="9.751197058536702"><ele>18.0</ele><time>2026-04-30T08:29:34.88Z</time></trkpt><trkpt lat="40.58192987162892" lon="9.751504169975242"><ele>18.0</ele><time>2026-04-30T08:29:35.88Z</time></trkpt><trkpt lat="40.582003569208716" lon="9.751822217199843"><ele>18.0</ele><time>2026-04-30T08:29:36.88Z</time></trkpt><trkpt lat="40.58207913606624" lon="9.752136605824864"><ele>16.5</ele><time>2026-04-30T08:29:37.88Z</time></trkpt><trkpt lat="40.58214679383954" lon="9.752444549383382"><ele>15.0</ele><time>2026-04-30T08:29:38.88Z</time></trkpt><trkpt lat="40.5822189138026" lon="9.752748579701908"><ele>15.0</ele><time>2026-04-30T08:29:39.879Z</time></trkpt><trkpt lat="40.58228402845775" lon="9.753058387434994"><ele>15.0</ele><time>2026-04-30T08:29:40.879Z</time></trkpt><trkpt lat="40.58234941249778" lon="9.753366502175794"><ele>16.0</ele><time>2026-04-30T08:29:41.879Z</time></trkpt><trkpt lat="40.58241252698071" lon="9.753676076916367"><ele>17.0</ele><time>2026-04-30T08:29:42.879Z</time></trkpt><trkpt lat="40.582462733064325" lon="9.753983329418949"><ele>17.0</ele><time>2026-04-30T08:29:43.879Z</time></trkpt><trkpt lat="40.58250244463457" lon="9.754295783493845"><ele>17.0</ele><time>2026-04-30T08:29:44.879Z</time></trkpt><trkpt lat="40.58252806700817" lon="9.754617309704518"><ele>18.0</ele><time>2026-04-30T08:29:45.879Z</time></trkpt><trkpt lat="40.58254940798257" lon="9.754953402900176"><ele>19.0</ele><time>2026-04-30T08:29:46.879Z</time></trkpt><trkpt lat="40.58257047029586" lon="9.75527812576845"><ele>21.0</ele><time>2026-04-30T08:29:47.879Z</time></trkpt><trkpt lat="40.58259644236748" lon="9.755592179455116"><ele>23.0</ele><time>2026-04-30T08:29:48.879Z</time></trkpt><trkpt lat="40.58263659667909" lon="9.75588619813487"><ele>24.666666666666668</ele><time>2026-04-30T08:29:49.879Z</time></trkpt><trkpt lat="40.58271375302102" lon="9.756141783073156"><ele>26.333333333333336</ele><time>2026-04-30T08:29:50.879Z</time></trkpt><trkpt lat="40.58276634400871" lon="9.756397895260319"><ele>28.0</ele><time>2026-04-30T08:29:51.879Z</time></trkpt><trkpt lat="40.58282172872254" lon="9.756626923400674"><ele>22.0</ele><time>2026-04-30T08:29:52.879Z</time></trkpt><trkpt lat="40.58293868164072" lon="9.756836716584809"><ele>16.0</ele><time>2026-04-30T08:29:53.879Z</time></trkpt><trkpt lat="40.58295020607093" lon="9.757110932013203"><ele>10.0</ele><time>2026-04-30T08:29:54.879Z</time></trkpt><trkpt lat="40.58295459404028" lon="9.757411884894998"><ele>10.0</ele><time>2026-04-30T08:29:55.879Z</time></trkpt><trkpt lat="40.58295101093291" lon="9.757722280619763"><ele>10.0</ele><time>2026-04-30T08:29:56.879Z</time></trkpt><trkpt lat="40.582952137137156" lon="9.758028282449889"><ele>10.0</ele><time>2026-04-30T08:29:57.879Z</time></trkpt><trkpt lat="40.58295061358346" lon="9.758336038642325"><ele>10.0</ele><time>2026-04-30T08:29:58.879Z</time></trkpt><trkpt lat="40.58294623148101" lon="9.75862030874905"><ele>10.333333333333334</ele><time>2026-04-30T08:29:59.879Z</time></trkpt><trkpt lat="40.58293228594705" lon="9.758885538874436"><ele>10.666666666666666</ele><time>2026-04-30T08:30:00.879Z</time></trkpt><trkpt lat="40.58291261757658" lon="9.759118808316334"><ele>11.0</ele><time>2026-04-30T08:30:01.879Z</time></trkpt><trkpt lat="40.582850785112" lon="9.75935682068182"><ele>12.5</ele><time>2026-04-30T08:30:02.879Z</time></trkpt><trkpt lat="40.582745993899664" lon="9.759612557584408"><ele>14.0</ele><time>2026-04-30T08:30:03.879Z</time></trkpt><trkpt lat="40.58262729156742" lon="9.75988907055596"><ele>14.0</ele><time>2026-04-30T08:30:04.879Z</time></trkpt><trkpt lat="40.582519156960565" lon="9.760157253531727"><ele>14.0</ele><time>2026-04-30T08:30:05.879Z</time></trkpt><trkpt lat="40.582412793286124" lon="9.760406106148311"><ele>14.0</ele><time>2026-04-30T08:30:06.879Z</time></trkpt><trkpt lat="40.582322021172686" lon="9.760638000307077"><ele>12.333333333333334</ele><time>2026-04-30T08:30:07.879Z</time></trkpt><trkpt lat="40.58223879399794" lon="9.76084412011873"><ele>10.666666666666668</ele><time>2026-04-30T08:30:08.879Z</time></trkpt><trkpt lat="40.58216672404667" lon="9.761032246319381"><ele>9.0</ele><time>2026-04-30T08:30:09.879Z</time></trkpt><trkpt lat="40.58211204078752" lon="9.7611978072592"><ele>8.75</ele><time>2026-04-30T08:30:10.879Z</time></trkpt><trkpt lat="40.582065614589204" lon="9.761336500137203"><ele>8.5</ele><time>2026-04-30T08:30:11.879Z</time></trkpt><trkpt lat="40.582008823798226" lon="9.761476813158417"><ele>8.25</ele><time>2026-04-30T08:30:12.879Z</time></trkpt><trkpt lat="40.5819373667745" lon="9.761652393112739"><ele>8.0</ele><time>2026-04-30T08:30:13.879Z</time></trkpt><trkpt lat="40.581851742306405" lon="9.76188394148623"><ele>10.0</ele><time>2026-04-30T08:30:14.879Z</time></trkpt><trkpt lat="40.581748342827325" lon="9.762150834494468"><ele>12.0</ele><time>2026-04-30T08:30:15.879Z</time></trkpt><trkpt lat="40.581629650325795" lon="9.76244831195036"><ele>11.5</ele><time>2026-04-30T08:30:16.879Z</time></trkpt><trkpt lat="40.58150699672277" lon="9.762761005709242"><ele>11.0</ele><time>2026-04-30T08:30:17.879Z</time></trkpt><trkpt lat="40.58140069051066" lon="9.763043308929685"><ele>11.0</ele><time>2026-04-30T08:30:18.879Z</time></trkpt><trkpt lat="40.58130078360754" lon="9.763268294816553"><ele>11.0</ele><time>2026-04-30T08:30:19.879Z</time></trkpt><trkpt lat="40.581228070296966" lon="9.763449065510356"><ele>11.0</ele><time>2026-04-30T08:30:20.879Z</time></trkpt><trkpt lat="40.58115491947161" lon="9.763598340514434"><ele>10.666666666666666</ele><time>2026-04-30T08:30:21.879Z</time></trkpt><trkpt lat="40.581041851014035" lon="9.763708761219052"><ele>10.333333333333334</ele><time>2026-04-30T08:30:22.879Z</time></trkpt><trkpt lat="40.58090123753655" lon="9.76377682991391"><ele>10.0</ele><time>2026-04-30T08:30:23.879Z</time></trkpt><trkpt lat="40.58073043169479" lon="9.763768740732989"><ele>10.0</ele><time>2026-04-30T08:30:24.879Z</time></trkpt><trkpt lat="40.580542472968986" lon="9.763707462450274"><ele>10.0</ele><time>2026-04-30T08:30:25.879Z</time></trkpt><trkpt lat="40.58032118641958" lon="9.763649248310598"><ele>10.0</ele><time>2026-04-30T08:30:26.879Z</time></trkpt><trkpt lat="40.58008417056373" lon="9.763616277775778"><ele>9.0</ele><time>2026-04-30T08:30:27.879Z</time></trkpt><trkpt lat="40.57983135630853" lon="9.763571292967043"><ele>8.0</ele><time>2026-04-30T08:30:28.878Z</time></trkpt><trkpt lat="40.57956879314595" lon="9.763523606948095"><ele>10.0</ele><time>2026-04-30T08:30:29.878Z</time></trkpt><trkpt lat="40.57929658295347" lon="9.763477410341958"><ele>12.0</ele><time>2026-04-30T08:30:30.878Z</time></trkpt><trkpt lat="40.579021213823324" lon="9.763430034377194"><ele>12.0</ele><time>2026-04-30T08:30:31.878Z</time></trkpt><trkpt lat="40.57874094146902" lon="9.763377764936017"><ele>12.0</ele><time>2026-04-30T08:30:32.878Z</time></trkpt><trkpt lat="40.578462769245164" lon="9.76333244438855"><ele>10.0</ele><time>2026-04-30T08:30:33.878Z</time></trkpt><trkpt lat="40.578180878197166" lon="9.76327843891202"><ele>8.0</ele><time>2026-04-30T08:30:34.878Z</time></trkpt><trkpt lat="40.57789946151826" lon="9.763231051241705"><ele>7.0</ele><time>2026-04-30T08:30:35.878Z</time></trkpt><trkpt lat="40.57761279168044" lon="9.76318107316216"><ele>6.0</ele><time>2026-04-30T08:30:36.878Z</time></trkpt><trkpt lat="40.57732829296221" lon="9.763133595786776"><ele>6.0</ele><time>2026-04-30T08:30:37.878Z</time></trkpt><trkpt lat="40.57704735759015" lon="9.763084631882165"><ele>6.0</ele><time>2026-04-30T08:30:38.878Z</time></trkpt><trkpt lat="40.57677357992538" lon="9.763034777900758"><ele>5.0</ele><time>2026-04-30T08:30:39.878Z</time></trkpt><trkpt lat="40.57651550068806" lon="9.762988710250431"><ele>4.0</ele><time>2026-04-30T08:30:40.878Z</time></trkpt><trkpt lat="40.5762715406257" lon="9.762943684553896"><ele>4.333333333333333</ele><time>2026-04-30T08:30:41.878Z</time></trkpt><trkpt lat="40.57604714587322" lon="9.762902189622055"><ele>4.666666666666667</ele><time>2026-04-30T08:30:42.878Z</time></trkpt><trkpt lat="40.57585592186727" lon="9.762866317617373"><ele>5.0</ele><time>2026-04-30T08:30:43.878Z</time></trkpt><trkpt lat="40.5757100105406" lon="9.762841441071581"><ele>5.0</ele><time>2026-04-30T08:30:44.878Z</time></trkpt><trkpt lat="40.5755900470288" lon="9.762835256802555"><ele>5.0</ele><time>2026-04-30T08:30:45.878Z</time></trkpt><trkpt lat="40.57548702036025" lon="9.76288576507172"><ele>5.0</ele><time>2026-04-30T08:30:46.878Z</time></trkpt><trkpt lat="40.57540282440599" lon="9.76298925502614"><ele>5.0</ele><time>2026-04-30T08:30:47.878Z</time></trkpt><trkpt lat="40.575346637408686" lon="9.76314268082595"><ele>5.0</ele><time>2026-04-30T08:30:48.878Z</time></trkpt><trkpt lat="40.57532426279761" lon="9.76334695350098"><ele>5.0</ele><time>2026-04-30T08:30:49.878Z</time></trkpt><trkpt lat="40.57530226092706" lon="9.763543486567341"><ele>5.0</ele><time>2026-04-30T08:30:50.878Z</time></trkpt><trkpt lat="40.57531587760822" lon="9.763721734159647"><ele>5.0</ele><time>2026-04-30T08:30:51.878Z</time></trkpt><trkpt lat="40.57536923443895" lon="9.76391860109783"><ele>5.0</ele><time>2026-04-30T08:30:52.878Z</time></trkpt><trkpt lat="40.575436697882296" lon="9.764123506517185"><ele>5.0</ele><time>2026-04-30T08:30:53.878Z</time></trkpt><trkpt lat="40.5754872641036" lon="9.76433714330553"><ele>5.0</ele><time>2026-04-30T08:30:54.878Z</time></trkpt><trkpt lat="40.57550717478647" lon="9.764575278081367"><ele>5.333333333333334</ele><time>2026-04-30T08:30:55.878Z</time></trkpt><trkpt lat="40.575520954545205" lon="9.764820920617208"><ele>5.666666666666667</ele><time>2026-04-30T08:30:56.878Z</time></trkpt><trkpt lat="40.57551905806907" lon="9.765059002602312"><ele>6.0</ele><time>2026-04-30T08:30:57.878Z</time></trkpt><trkpt lat="40.57554278383043" lon="9.765278691902084"><ele>6.5</ele><time>2026-04-30T08:30:58.879Z</time></trkpt><trkpt lat="40.575555488988115" lon="9.765470399831065"><ele>7.0</ele><time>2026-04-30T08:30:59.879Z</time></trkpt><trkpt lat="40.575567055716846" lon="9.76565774189235"><ele>7.5</ele><time>2026-04-30T08:31:00.879Z</time></trkpt><trkpt lat="40.57557923878087" lon="9.76585059786511"><ele>8.0</ele><time>2026-04-30T08:31:01.879Z</time></trkpt><trkpt lat="40.575592314469276" lon="9.766045872856347"><ele>9.25</ele><time>2026-04-30T08:31:02.879Z</time></trkpt><trkpt lat="40.575603952307596" lon="9.766240266784305"><ele>10.5</ele><time>2026-04-30T08:31:03.878Z</time></trkpt><trkpt lat="40.5756166012358" lon="9.766433639605992"><ele>11.75</ele><time>2026-04-30T08:31:04.879Z</time></trkpt><trkpt lat="40.57562959136429" lon="9.766625513029261"><ele>13.0</ele><time>2026-04-30T08:31:05.878Z</time></trkpt><trkpt lat="40.575642930232306" lon="9.766816605354869"><ele>13.5</ele><time>2026-04-30T08:31:06.878Z</time></trkpt><trkpt lat="40.57564953668136" lon="9.767008674110883"><ele>14.0</ele><time>2026-04-30T08:31:07.879Z</time></trkpt><trkpt lat="40.57565340369016" lon="9.767182061014976"><ele>14.5</ele><time>2026-04-30T08:31:08.879Z</time></trkpt><trkpt lat="40.575650408568805" lon="9.76735066564775"><ele>15.0</ele><time>2026-04-30T08:31:09.879Z</time></trkpt><trkpt lat="40.57564901631897" lon="9.767507441107487"><ele>15.0</ele><time>2026-04-30T08:31:10.879Z</time></trkpt><trkpt lat="40.57565182029884" lon="9.76766387335514"><ele>15.0</ele><time>2026-04-30T08:31:11.879Z</time></trkpt><trkpt lat="40.57565275731695" lon="9.76781657619013"><ele>15.0</ele><time>2026-04-30T08:31:12.879Z</time></trkpt><trkpt lat="40.57565164906808" lon="9.767971309197437"><ele>15.0</ele><time>2026-04-30T08:31:13.879Z</time></trkpt><trkpt lat="40.57565593498216" lon="9.768122115602152"><ele>15.0</ele><time>2026-04-30T08:31:14.879Z</time></trkpt><trkpt lat="40.5756588166571" lon="9.768271299500825"><ele>15.0</ele><time>2026-04-30T08:31:15.879Z</time></trkpt><trkpt lat="40.57566154321202" lon="9.768424871424202"><ele>15.0</ele><time>2026-04-30T08:31:16.879Z</time></trkpt><trkpt lat="40.575662225960976" lon="9.768576205321976"><ele>15.0</ele><time>2026-04-30T08:31:17.879Z</time></trkpt><trkpt lat="40.57565433556133" lon="9.768733085288227"><ele>15.0</ele><time>2026-04-30T08:31:18.879Z</time></trkpt><trkpt lat="40.575611740831924" lon="9.768904969410364"><ele>15.0</ele><time>2026-04-30T08:31:19.879Z</time></trkpt><trkpt lat="40.57553538118973" lon="9.769054326540475"><ele>15.0</ele><time>2026-04-30T08:31:20.879Z</time></trkpt><trkpt lat="40.5754764208736" lon="9.769230534222563"><ele>15.0</ele><time>2026-04-30T08:31:21.879Z</time></trkpt><trkpt lat="40.575405402626394" lon="9.769410110211474"><ele>18.0</ele><time>2026-04-30T08:31:22.879Z</time></trkpt><trkpt lat="40.57534159616841" lon="9.769603037218104"><ele>21.0</ele><time>2026-04-30T08:31:23.879Z</time></trkpt><trkpt lat="40.57528013470164" lon="9.769804871370905"><ele>24.0</ele><time>2026-04-30T08:31:24.879Z</time></trkpt><trkpt lat="40.5752190196152" lon="9.770008022011359"><ele>23.333333333333332</ele><time>2026-04-30T08:31:25.879Z</time></trkpt><trkpt lat="40.57515519458209" lon="9.770220334798704"><ele>22.666666666666664</ele><time>2026-04-30T08:31:26.879Z</time></trkpt><trkpt lat="40.57509064518379" lon="9.770433282111233"><ele>22.0</ele><time>2026-04-30T08:31:27.878Z</time></trkpt><trkpt lat="40.57502359883187" lon="9.770648870744852"><ele>22.0</ele><time>2026-04-30T08:31:28.878Z</time></trkpt><trkpt lat="40.574954243677624" lon="9.770869881673365"><ele>22.0</ele><time>2026-04-30T08:31:29.878Z</time></trkpt><trkpt lat="40.57488354044958" lon="9.771081063078668"><ele>22.0</ele><time>2026-04-30T08:31:30.878Z</time></trkpt><trkpt lat="40.57480569658699" lon="9.771283503061458"><ele>20.666666666666664</ele><time>2026-04-30T08:31:31.878Z</time></trkpt><trkpt lat="40.574706467494764" lon="9.771488173817511"><ele>19.333333333333332</ele><time>2026-04-30T08:31:32.878Z</time></trkpt><trkpt lat="40.574582734352255" lon="9.771661827072355"><ele>18.0</ele><time>2026-04-30T08:31:33.878Z</time></trkpt><trkpt lat="40.574473178556005" lon="9.771842667825437"><ele>20.333333333333336</ele><time>2026-04-30T08:31:34.878Z</time></trkpt><trkpt lat="40.57436300288141" lon="9.772021247413491"><ele>22.666666666666668</ele><time>2026-04-30T08:31:35.878Z</time></trkpt><trkpt lat="40.574261472154" lon="9.772187300040098"><ele>25.0</ele><time>2026-04-30T08:31:36.878Z</time></trkpt><trkpt lat="40.57417695325478" lon="9.772344131725072"><ele>25.0</ele><time>2026-04-30T08:31:37.878Z</time></trkpt><trkpt lat="40.57408385868824" lon="9.772478453349388"><ele>25.0</ele><time>2026-04-30T08:31:38.878Z</time></trkpt><trkpt lat="40.57398797366047" lon="9.772598235473502"><ele>25.0</ele><time>2026-04-30T08:31:39.878Z</time></trkpt><trkpt lat="40.57389427449761" lon="9.772704153655804"><ele>25.0</ele><time>2026-04-30T08:31:40.878Z</time></trkpt><trkpt lat="40.57381727935036" lon="9.772817799764137"><ele>24.25</ele><time>2026-04-30T08:31:41.878Z</time></trkpt><trkpt lat="40.57377588804501" lon="9.772963013501037"><ele>23.5</ele><time>2026-04-30T08:31:42.878Z</time></trkpt><trkpt lat="40.57376974492736" lon="9.773134150015665"><ele>22.75</ele><time>2026-04-30T08:31:43.878Z</time></trkpt><trkpt lat="40.57380204148831" lon="9.77329833539454"><ele>22.0</ele><time>2026-04-30T08:31:44.878Z</time></trkpt><trkpt lat="40.573824764476754" lon="9.773450080177177"><ele>23.400000000000002</ele><time>2026-04-30T08:31:45.878Z</time></trkpt><trkpt lat="40.573838705054044" lon="9.773590362605983"><ele>24.8</ele><time>2026-04-30T08:31:46.878Z</time></trkpt><trkpt lat="40.57385333664624" lon="9.773715123348632"><ele>26.2</ele><time>2026-04-30T08:31:47.878Z</time></trkpt><trkpt lat="40.57387418957956" lon="9.77382867940806"><ele>27.6</ele><time>2026-04-30T08:31:48.878Z</time></trkpt><trkpt lat="40.57391663382128" lon="9.773931265442886"><ele>29.0</ele><time>2026-04-30T08:31:49.878Z</time></trkpt><trkpt lat="40.57398167488949" lon="9.77402183066376"><ele>29.0</ele><time>2026-04-30T08:31:50.878Z</time></trkpt><trkpt lat="40.574066074161365" lon="9.774088529465011"><ele>29.0</ele><time>2026-04-30T08:31:51.878Z</time></trkpt><trkpt lat="40.57417291724074" lon="9.77410318477557"><ele>29.0</ele><time>2026-04-30T08:31:52.878Z</time></trkpt><trkpt lat="40.5742805477232" lon="9.774088587409624"><ele>29.0</ele><time>2026-04-30T08:31:53.878Z</time></trkpt><trkpt lat="40.574388192771835" lon="9.774039624230891"><ele>29.0</ele><time>2026-04-30T08:31:54.878Z</time></trkpt><trkpt lat="40.57448432126619" lon="9.774025626594762"><ele>29.0</ele><time>2026-04-30T08:31:55.878Z</time></trkpt><trkpt lat="40.5745812843664" lon="9.774061701362072"><ele>29.0</ele><time>2026-04-30T08:31:56.878Z</time></trkpt><trkpt lat="40.57468057131473" lon="9.774140317520203"><ele>29.0</ele><time>2026-04-30T08:31:57.878Z</time></trkpt><trkpt lat="40.57473955309389" lon="9.77426542541058"><ele>29.0</ele><time>2026-04-30T08:31:58.878Z</time></trkpt><trkpt lat="40.574796845126784" lon="9.774402154523578"><ele>29.0</ele><time>2026-04-30T08:31:59.878Z</time></trkpt><trkpt lat="40.57485614800411" lon="9.774533472289793"><ele>29.0</ele><time>2026-04-30T08:32:00.878Z</time></trkpt><trkpt lat="40.574880301662496" lon="9.77467592658726"><ele>29.0</ele><time>2026-04-30T08:32:01.878Z</time></trkpt><trkpt lat="40.57485152125168" lon="9.774824964391776"><ele>29.0</ele><time>2026-04-30T08:32:02.878Z</time></trkpt><trkpt lat="40.57483017403318" lon="9.77498584439344"><ele>29.0</ele><time>2026-04-30T08:32:03.878Z</time></trkpt><trkpt lat="40.5747697993437" lon="9.7751206848638"><ele>30.0</ele><time>2026-04-30T08:32:04.878Z</time></trkpt><trkpt lat="40.574740486369826" lon="9.775271916946739"><ele>31.0</ele><time>2026-04-30T08:32:05.878Z</time></trkpt><trkpt lat="40.57470390438511" lon="9.775410967260001"><ele>32.0</ele><time>2026-04-30T08:32:06.878Z</time></trkpt><trkpt lat="40.57468959248064" lon="9.775543725690472"><ele>33.0</ele><time>2026-04-30T08:32:07.878Z</time></trkpt><trkpt lat="40.57469689382011" lon="9.775674553042029"><ele>34.0</ele><time>2026-04-30T08:32:08.878Z</time></trkpt><trkpt lat="40.57472620781909" lon="9.77580076876812"><ele>34.0</ele><time>2026-04-30T08:32:09.878Z</time></trkpt><trkpt lat="40.57477250742458" lon="9.775920085741875"><ele>34.0</ele><time>2026-04-30T08:32:10.878Z</time></trkpt><trkpt lat="40.57482536172143" lon="9.776028307383452"><ele>34.0</ele><time>2026-04-30T08:32:11.878Z</time></trkpt><trkpt lat="40.574880234862164" lon="9.776143214200705"><ele>34.0</ele><time>2026-04-30T08:32:12.878Z</time></trkpt><trkpt lat="40.57492745196933" lon="9.776266592594197"><ele>34.0</ele><time>2026-04-30T08:32:13.878Z</time></trkpt><trkpt lat="40.57497343793534" lon="9.776392156192328"><ele>35.6</ele><time>2026-04-30T08:32:14.878Z</time></trkpt><trkpt lat="40.57501463506429" lon="9.776514499058317"><ele>37.2</ele><time>2026-04-30T08:32:15.878Z</time></trkpt><trkpt lat="40.57505789730155" lon="9.77662994314688"><ele>38.800000000000004</ele><time>2026-04-30T08:32:16.877Z</time></trkpt><trkpt lat="40.575104367894916" lon="9.77674299794477"><ele>40.4</ele><time>2026-04-30T08:32:17.877Z</time></trkpt><trkpt lat="40.57515151048751" lon="9.776861947032254"><ele>42.0</ele><time>2026-04-30T08:32:18.877Z</time></trkpt><trkpt lat="40.575206425888325" lon="9.776988918791929"><ele>43.5</ele><time>2026-04-30T08:32:19.877Z</time></trkpt><trkpt lat="40.57525943670455" lon="9.777124967272712"><ele>45.0</ele><time>2026-04-30T08:32:20.877Z</time></trkpt><trkpt lat="40.575314937560094" lon="9.777274290383595"><ele>46.5</ele><time>2026-04-30T08:32:21.877Z</time></trkpt><trkpt lat="40.575365536420605" lon="9.777426908469128"><ele>48.0</ele><time>2026-04-30T08:32:22.877Z</time></trkpt><trkpt lat="40.5754047705461" lon="9.777582599305406"><ele>46.5</ele><time>2026-04-30T08:32:23.877Z</time></trkpt><trkpt lat="40.57541920314287" lon="9.777738636885015"><ele>45.0</ele><time>2026-04-30T08:32:24.877Z</time></trkpt><trkpt lat="40.5754065869422" lon="9.777892695547953"><ele>43.5</ele><time>2026-04-30T08:32:25.877Z</time></trkpt><trkpt lat="40.57534942448641" lon="9.778035686887781"><ele>42.0</ele><time>2026-04-30T08:32:26.877Z</time></trkpt><trkpt lat="40.57527468631588" lon="9.778171054429151"><ele>42.0</ele><time>2026-04-30T08:32:27.877Z</time></trkpt><trkpt lat="40.57521434396366" lon="9.778307318961536"><ele>42.0</ele><time>2026-04-30T08:32:28.877Z</time></trkpt><trkpt lat="40.575138473906506" lon="9.77842491140805"><ele>42.0</ele><time>2026-04-30T08:32:29.877Z</time></trkpt><trkpt lat="40.575068919675296" lon="9.77854060155341"><ele>42.0</ele><time>2026-04-30T08:32:30.877Z</time></trkpt><trkpt lat="40.57499869140361" lon="9.77865344826455"><ele>36.75</ele><time>2026-04-30T08:32:31.877Z</time></trkpt><trkpt lat="40.57492464875699" lon="9.778755114727513"><ele>31.5</ele><time>2026-04-30T08:32:32.877Z</time></trkpt><trkpt lat="40.57483666693463" lon="9.778854252546395"><ele>26.25</ele><time>2026-04-30T08:32:33.877Z</time></trkpt><trkpt lat="40.574733281827875" lon="9.778924510618713"><ele>21.0</ele><time>2026-04-30T08:32:34.877Z</time></trkpt><trkpt lat="40.57461315640962" lon="9.778941169108732"><ele>22.4</ele><time>2026-04-30T08:32:35.877Z</time></trkpt><trkpt lat="40.57450437141323" lon="9.778955707542178"><ele>23.8</ele><time>2026-04-30T08:32:36.877Z</time></trkpt><trkpt lat="40.57440132413234" lon="9.778988854371732"><ele>25.199999999999996</ele><time>2026-04-30T08:32:37.877Z</time></trkpt><trkpt lat="40.574299377637914" lon="9.778996680010032"><ele>26.599999999999998</ele><time>2026-04-30T08:32:38.877Z</time></trkpt><trkpt lat="40.57419605514264" lon="9.779020200437541"><ele>28.0</ele><time>2026-04-30T08:32:39.877Z</time></trkpt><trkpt lat="40.57409441591635" lon="9.779050386372294"><ele>28.0</ele><time>2026-04-30T08:32:40.877Z</time></trkpt><trkpt lat="40.573992014343325" lon="9.779079986833686"><ele>27.999999999999996</ele><time>2026-04-30T08:32:41.877Z</time></trkpt><trkpt lat="40.57388923904986" lon="9.779102305606447"><ele>27.999999999999996</ele><time>2026-04-30T08:32:42.877Z</time></trkpt><trkpt lat="40.573784186053885" lon="9.779124745759853"><ele>28.0</ele><time>2026-04-30T08:32:43.877Z</time></trkpt><trkpt lat="40.57368301703933" lon="9.779151235694002"><ele>28.0</ele><time>2026-04-30T08:32:44.877Z</time></trkpt><trkpt lat="40.573583628876264" lon="9.779174394394937"><ele>29.4</ele><time>2026-04-30T08:32:45.877Z</time></trkpt><trkpt lat="40.573487765692626" lon="9.779201551182071"><ele>30.799999999999997</ele><time>2026-04-30T08:32:46.877Z</time></trkpt><trkpt lat="40.57338987290333" lon="9.779235164210878"><ele>32.2</ele><time>2026-04-30T08:32:47.877Z</time></trkpt><trkpt lat="40.57329483256866" lon="9.77927399512982"><ele>33.6</ele><time>2026-04-30T08:32:48.877Z</time></trkpt><trkpt lat="40.573196608532534" lon="9.779322708063342"><ele>35.0</ele><time>2026-04-30T08:32:49.877Z</time></trkpt><trkpt lat="40.57310100077556" lon="9.779383770147373"><ele>33.25</ele><time>2026-04-30T08:32:50.877Z</time></trkpt><trkpt lat="40.57301263131431" lon="9.779451586323566"><ele>31.5</ele><time>2026-04-30T08:32:51.877Z</time></trkpt><trkpt lat="40.57292708512443" lon="9.779530133543659"><ele>29.75</ele><time>2026-04-30T08:32:52.877Z</time></trkpt><trkpt lat="40.57283009836347" lon="9.779625193086167"><ele>28.0</ele><time>2026-04-30T08:32:53.877Z</time></trkpt><trkpt lat="40.5727231693697" lon="9.779731910168154"><ele>28.0</ele><time>2026-04-30T08:32:54.877Z</time></trkpt><trkpt lat="40.572620122240885" lon="9.779850963134836"><ele>28.0</ele><time>2026-04-30T08:32:55.877Z</time></trkpt><trkpt lat="40.572531603971235" lon="9.77998681657579"><ele>28.0</ele><time>2026-04-30T08:32:56.877Z</time></trkpt><trkpt lat="40.572460837805835" lon="9.780152454962451"><ele>28.0</ele><time>2026-04-30T08:32:57.877Z</time></trkpt><trkpt lat="40.57240102725054" lon="9.780334547828176"><ele>25.0</ele><time>2026-04-30T08:32:58.877Z</time></trkpt><trkpt lat="40.5723673580884" lon="9.780528889459832"><ele>22.0</ele><time>2026-04-30T08:32:59.877Z</time></trkpt><trkpt lat="40.57234933504154" lon="9.78073025076458"><ele>19.0</ele><time>2026-04-30T08:33:00.877Z</time></trkpt><trkpt lat="40.572337243278945" lon="9.780935722041697"><ele>17.0</ele><time>2026-04-30T08:33:01.877Z</time></trkpt><trkpt lat="40.57232346867739" lon="9.781123088720713"><ele>15.0</ele><time>2026-04-30T08:33:02.877Z</time></trkpt><trkpt lat="40.57229862943599" lon="9.781305619306135"><ele>13.0</ele><time>2026-04-30T08:33:03.878Z</time></trkpt><trkpt lat="40.57225880040663" lon="9.781474735571514"><ele>11.0</ele><time>2026-04-30T08:33:04.878Z</time></trkpt><trkpt lat="40.57218271473867" lon="9.781632507990663"><ele>11.0</ele><time>2026-04-30T08:33:05.878Z</time></trkpt><trkpt lat="40.572085046802925" lon="9.781769688608497"><ele>11.0</ele><time>2026-04-30T08:33:06.878Z</time></trkpt><trkpt lat="40.571967604852524" lon="9.781892751307534"><ele>11.0</ele><time>2026-04-30T08:33:07.878Z</time></trkpt><trkpt lat="40.57183935995557" lon="9.781996343148405"><ele>11.0</ele><time>2026-04-30T08:33:08.878Z</time></trkpt><trkpt lat="40.57170926936917" lon="9.782096766416174"><ele>11.5</ele><time>2026-04-30T08:33:09.878Z</time></trkpt><trkpt lat="40.57158261490955" lon="9.782197966568253"><ele>12.0</ele><time>2026-04-30T08:33:10.878Z</time></trkpt><trkpt lat="40.57146149080131" lon="9.782300531567916"><ele>12.5</ele><time>2026-04-30T08:33:11.878Z</time></trkpt><trkpt lat="40.57134388806189" lon="9.782405737703359"><ele>13.0</ele><time>2026-04-30T08:33:12.878Z</time></trkpt><trkpt lat="40.571226423391835" lon="9.782512933266597"><ele>13.0</ele><time>2026-04-30T08:33:13.878Z</time></trkpt><trkpt lat="40.57111155813386" lon="9.782626792500585"><ele>13.0</ele><time>2026-04-30T08:33:14.878Z</time></trkpt><trkpt lat="40.57098775702427" lon="9.782735080501682"><ele>13.0</ele><time>2026-04-30T08:33:15.878Z</time></trkpt><trkpt lat="40.5708695843377" lon="9.782838360968798"><ele>13.0</ele><time>2026-04-30T08:33:16.878Z</time></trkpt><trkpt lat="40.57074565204662" lon="9.782941460667104"><ele>13.0</ele><time>2026-04-30T08:33:17.878Z</time></trkpt><trkpt lat="40.57062153212752" lon="9.783047412512172"><ele>13.0</ele><time>2026-04-30T08:33:18.878Z</time></trkpt><trkpt lat="40.57050192782142" lon="9.783151748546725"><ele>13.0</ele><time>2026-04-30T08:33:19.878Z</time></trkpt><trkpt lat="40.57038486400645" lon="9.7832553843806"><ele>13.0</ele><time>2026-04-30T08:33:20.878Z</time></trkpt><trkpt lat="40.57027282330631" lon="9.783354717276076"><ele>13.25</ele><time>2026-04-30T08:33:21.878Z</time></trkpt><trkpt lat="40.570168446507886" lon="9.78344801422732"><ele>13.5</ele><time>2026-04-30T08:33:22.878Z</time></trkpt><trkpt lat="40.57006865553273" lon="9.78354009977042"><ele>13.75</ele><time>2026-04-30T08:33:23.878Z</time></trkpt><trkpt lat="40.56997166526799" lon="9.783630618921634"><ele>14.0</ele><time>2026-04-30T08:33:24.878Z</time></trkpt><trkpt lat="40.56988115911775" lon="9.783729691673194"><ele>14.0</ele><time>2026-04-30T08:33:25.878Z</time></trkpt><trkpt lat="40.56979479571043" lon="9.783830205270219"><ele>14.0</ele><time>2026-04-30T08:33:26.878Z</time></trkpt><trkpt lat="40.56971311200234" lon="9.783946470637115"><ele>14.0</ele><time>2026-04-30T08:33:27.878Z</time></trkpt><trkpt lat="40.56963769667218" lon="9.784071350697074"><ele>14.0</ele><time>2026-04-30T08:33:28.878Z</time></trkpt><trkpt lat="40.569565599667605" lon="9.78419615590542"><ele>16.25</ele><time>2026-04-30T08:33:29.878Z</time></trkpt><trkpt lat="40.56949005576584" lon="9.784325760827269"><ele>18.5</ele><time>2026-04-30T08:33:30.878Z</time></trkpt><trkpt lat="40.56940678555548" lon="9.784446356811374"><ele>20.75</ele><time>2026-04-30T08:33:31.878Z</time></trkpt><trkpt lat="40.56931107175069" lon="9.78456356484444"><ele>23.0</ele><time>2026-04-30T08:33:32.878Z</time></trkpt><trkpt lat="40.56920823942056" lon="9.78467847323346"><ele>23.0</ele><time>2026-04-30T08:33:33.878Z</time></trkpt><trkpt lat="40.56910455433744" lon="9.78479872755418"><ele>23.0</ele><time>2026-04-30T08:33:34.878Z</time></trkpt><trkpt lat="40.569004648342286" lon="9.784915097302218"><ele>23.0</ele><time>2026-04-30T08:33:35.878Z</time></trkpt><trkpt lat="40.568901093473364" lon="9.785041052761994"><ele>23.0</ele><time>2026-04-30T08:33:36.878Z</time></trkpt><trkpt lat="40.5687988504166" lon="9.785168359395524"><ele>24.333333333333336</ele><time>2026-04-30T08:33:37.878Z</time></trkpt><trkpt lat="40.568688421362786" lon="9.785298277631107"><ele>25.666666666666668</ele><time>2026-04-30T08:33:38.878Z</time></trkpt><trkpt lat="40.568573828286176" lon="9.785428296787593"><ele>27.0</ele><time>2026-04-30T08:33:39.878Z</time></trkpt><trkpt lat="40.568453902803846" lon="9.78555214105383"><ele>27.0</ele><time>2026-04-30T08:33:40.878Z</time></trkpt><trkpt lat="40.56831888697185" lon="9.785661289892175"><ele>27.0</ele><time>2026-04-30T08:33:41.878Z</time></trkpt><trkpt lat="40.56818077709811" lon="9.785769715388362"><ele>27.0</ele><time>2026-04-30T08:33:42.878Z</time></trkpt><trkpt lat="40.56803492897143" lon="9.785873556727333"><ele>27.0</ele><time>2026-04-30T08:33:43.878Z</time></trkpt><trkpt lat="40.56788999609277" lon="9.785976328295416"><ele>27.0</ele><time>2026-04-30T08:33:44.878Z</time></trkpt><trkpt lat="40.567744346228984" lon="9.786082427259911"><ele>27.0</ele><time>2026-04-30T08:33:45.878Z</time></trkpt><trkpt lat="40.567597901104854" lon="9.786184191966512"><ele>25.5</ele><time>2026-04-30T08:33:46.878Z</time></trkpt><trkpt lat="40.567454397273586" lon="9.786263003696998"><ele>24.0</ele><time>2026-04-30T08:33:47.877Z</time></trkpt><trkpt lat="40.56732262262771" lon="9.786353815659176"><ele>22.5</ele><time>2026-04-30T08:33:48.877Z</time></trkpt><trkpt lat="40.56720310921318" lon="9.786460589201852"><ele>21.0</ele><time>2026-04-30T08:33:49.877Z</time></trkpt><trkpt lat="40.56707172467316" lon="9.786528280833565"><ele>20.0</ele><time>2026-04-30T08:33:50.877Z</time></trkpt><trkpt lat="40.56694499339328" lon="9.786616567680644"><ele>19.0</ele><time>2026-04-30T08:33:51.877Z</time></trkpt><trkpt lat="40.566818344681295" lon="9.786705430768999"><ele>18.0</ele><time>2026-04-30T08:33:52.877Z</time></trkpt><trkpt lat="40.566700361004095" lon="9.786813006811895"><ele>17.0</ele><time>2026-04-30T08:33:53.877Z</time></trkpt><trkpt lat="40.56656019934405" lon="9.78688449202845"><ele>16.666666666666668</ele><time>2026-04-30T08:33:54.877Z</time></trkpt><trkpt lat="40.566429393451855" lon="9.786978303554879"><ele>16.333333333333332</ele><time>2026-04-30T08:33:55.877Z</time></trkpt><trkpt lat="40.566294675852944" lon="9.787067226161318"><ele>16.0</ele><time>2026-04-30T08:33:56.877Z</time></trkpt><trkpt lat="40.56616159084651" lon="9.787159726622255"><ele>14.0</ele><time>2026-04-30T08:33:57.877Z</time></trkpt><trkpt lat="40.56602210176453" lon="9.787254483750868"><ele>12.0</ele><time>2026-04-30T08:33:58.877Z</time></trkpt><trkpt lat="40.56587723513144" lon="9.787355079664495"><ele>10.0</ele><time>2026-04-30T08:33:59.877Z</time></trkpt><trkpt lat="40.565730330493246" lon="9.787461475228122"><ele>10.0</ele><time>2026-04-30T08:34:00.877Z</time></trkpt><trkpt lat="40.56558077123825" lon="9.787569601714843"><ele>10.0</ele><time>2026-04-30T08:34:01.877Z</time></trkpt><trkpt lat="40.56542577073707" lon="9.787679309358438"><ele>10.0</ele><time>2026-04-30T08:34:02.877Z</time></trkpt><trkpt lat="40.56527005004744" lon="9.787788416682627"><ele>10.0</ele><time>2026-04-30T08:34:03.877Z</time></trkpt><trkpt lat="40.56511141235343" lon="9.787899978743587"><ele>10.0</ele><time>2026-04-30T08:34:04.877Z</time></trkpt><trkpt lat="40.564958312624356" lon="9.788004531999565"><ele>10.0</ele><time>2026-04-30T08:34:05.877Z</time></trkpt><trkpt lat="40.56481904066854" lon="9.78810588038815"><ele>10.0</ele><time>2026-04-30T08:34:06.877Z</time></trkpt><trkpt lat="40.564681004268856" lon="9.788200219283596"><ele>10.0</ele><time>2026-04-30T08:34:07.877Z</time></trkpt><trkpt lat="40.564555842811124" lon="9.788289485707413"><ele>10.0</ele><time>2026-04-30T08:34:08.877Z</time></trkpt><trkpt lat="40.56443881303003" lon="9.788383687063787"><ele>10.0</ele><time>2026-04-30T08:34:09.877Z</time></trkpt><trkpt lat="40.564326448492174" lon="9.788486799131233"><ele>10.5</ele><time>2026-04-30T08:34:10.877Z</time></trkpt><trkpt lat="40.564226571978736" lon="9.788596001245352"><ele>11.0</ele><time>2026-04-30T08:34:11.877Z</time></trkpt><trkpt lat="40.56412826460326" lon="9.788711776289144"><ele>11.5</ele><time>2026-04-30T08:34:12.877Z</time></trkpt><trkpt lat="40.564021644762704" lon="9.788821538120821"><ele>12.0</ele><time>2026-04-30T08:34:13.877Z</time></trkpt><trkpt lat="40.56390796104978" lon="9.788918027029888"><ele>12.0</ele><time>2026-04-30T08:34:14.877Z</time></trkpt><trkpt lat="40.56377989882185" lon="9.78900344659051"><ele>12.0</ele><time>2026-04-30T08:34:15.877Z</time></trkpt><trkpt lat="40.5636502611575" lon="9.78908522544694"><ele>12.0</ele><time>2026-04-30T08:34:16.877Z</time></trkpt><trkpt lat="40.563509827604015" lon="9.789156905266239"><ele>12.0</ele><time>2026-04-30T08:34:17.877Z</time></trkpt><trkpt lat="40.563363359187434" lon="9.789239071058173"><ele>12.333333333333332</ele><time>2026-04-30T08:34:18.877Z</time></trkpt><trkpt lat="40.56322296683923" lon="9.78932477317907"><ele>12.666666666666666</ele><time>2026-04-30T08:34:19.877Z</time></trkpt><trkpt lat="40.56307887650035" lon="9.789408694417595"><ele>13.0</ele><time>2026-04-30T08:34:20.877Z</time></trkpt><trkpt lat="40.56293791831428" lon="9.789498099717752"><ele>13.75</ele><time>2026-04-30T08:34:21.877Z</time></trkpt><trkpt lat="40.56280809141098" lon="9.789588072000893"><ele>14.5</ele><time>2026-04-30T08:34:22.877Z</time></trkpt><trkpt lat="40.562688745850195" lon="9.78967017341469"><ele>15.25</ele><time>2026-04-30T08:34:23.877Z</time></trkpt><trkpt lat="40.562572184767056" lon="9.789743526641939"><ele>16.0</ele><time>2026-04-30T08:34:24.877Z</time></trkpt><trkpt lat="40.562465228570545" lon="9.789817084888845"><ele>16.0</ele><time>2026-04-30T08:34:25.877Z</time></trkpt><trkpt lat="40.5623608459866" lon="9.789883492266748"><ele>16.0</ele><time>2026-04-30T08:34:26.877Z</time></trkpt><trkpt lat="40.56225574695987" lon="9.789948202383982"><ele>16.0</ele><time>2026-04-30T08:34:27.877Z</time></trkpt><trkpt lat="40.56214190654137" lon="9.790004948402299"><ele>16.0</ele><time>2026-04-30T08:34:28.877Z</time></trkpt><trkpt lat="40.562013418027725" lon="9.790041655976761"><ele>16.25</ele><time>2026-04-30T08:34:29.877Z</time></trkpt><trkpt lat="40.56187433091268" lon="9.790063032021447"><ele>16.5</ele><time>2026-04-30T08:34:30.877Z</time></trkpt><trkpt lat="40.5617276549938" lon="9.790069091898367"><ele>16.75</ele><time>2026-04-30T08:34:31.877Z</time></trkpt><trkpt lat="40.561576882467776" lon="9.790073421419917"><ele>17.0</ele><time>2026-04-30T08:34:32.877Z</time></trkpt><trkpt lat="40.56143206820985" lon="9.790061400855597"><ele>17.0</ele><time>2026-04-30T08:34:33.877Z</time></trkpt><trkpt lat="40.56127325687594" lon="9.790029278776718"><ele>17.0</ele><time>2026-04-30T08:34:34.877Z</time></trkpt><trkpt lat="40.56110036967571" lon="9.78998149313955"><ele>17.0</ele><time>2026-04-30T08:34:35.877Z</time></trkpt><trkpt lat="40.56092374380905" lon="9.78992389710038"><ele>15.666666666666668</ele><time>2026-04-30T08:34:36.876Z</time></trkpt><trkpt lat="40.56075301147223" lon="9.789860232756773"><ele>14.333333333333332</ele><time>2026-04-30T08:34:37.876Z</time></trkpt><trkpt lat="40.56058351832847" lon="9.789799785179762"><ele>13.0</ele><time>2026-04-30T08:34:38.876Z</time></trkpt><trkpt lat="40.56041960695941" lon="9.789731887875803"><ele>12.666666666666666</ele><time>2026-04-30T08:34:39.876Z</time></trkpt><trkpt lat="40.56026293644142" lon="9.789659600977075"><ele>12.333333333333332</ele><time>2026-04-30T08:34:40.876Z</time></trkpt><trkpt lat="40.560103519508786" lon="9.789588374829567"><ele>12.0</ele><time>2026-04-30T08:34:41.876Z</time></trkpt><trkpt lat="40.55995290896204" lon="9.789510542509017"><ele>12.0</ele><time>2026-04-30T08:34:42.876Z</time></trkpt><trkpt lat="40.55980278489356" lon="9.789439959014192"><ele>12.0</ele><time>2026-04-30T08:34:43.876Z</time></trkpt><trkpt lat="40.55965097772944" lon="9.789378035475522"><ele>12.0</ele><time>2026-04-30T08:34:44.876Z</time></trkpt><trkpt lat="40.55949458476184" lon="9.789324259272478"><ele>12.333333333333332</ele><time>2026-04-30T08:34:45.876Z</time></trkpt><trkpt lat="40.55932895585179" lon="9.789298400683963"><ele>12.666666666666666</ele><time>2026-04-30T08:34:46.876Z</time></trkpt><trkpt lat="40.559163437361285" lon="9.789285962578445"><ele>13.0</ele><time>2026-04-30T08:34:47.876Z</time></trkpt><trkpt lat="40.5589988551914" lon="9.789280135616226"><ele>13.0</ele><time>2026-04-30T08:34:48.876Z</time></trkpt><trkpt lat="40.55883721451434" lon="9.789277116481092"><ele>13.0</ele><time>2026-04-30T08:34:49.876Z</time></trkpt><trkpt lat="40.55869675042379" lon="9.78928380443451"><ele>13.0</ele><time>2026-04-30T08:34:50.876Z</time></trkpt><trkpt lat="40.558552771317075" lon="9.789278879646137"><ele>13.0</ele><time>2026-04-30T08:34:51.876Z</time></trkpt><trkpt lat="40.55841846636958" lon="9.78926619882815"><ele>13.0</ele><time>2026-04-30T08:34:52.876Z</time></trkpt><trkpt lat="40.5582809937062" lon="9.789250749524275"><ele>13.0</ele><time>2026-04-30T08:34:53.876Z</time></trkpt><trkpt lat="40.55814651148153" lon="9.78921941731589"><ele>13.0</ele><time>2026-04-30T08:34:54.876Z</time></trkpt><trkpt lat="40.55800420076739" lon="9.789172609630453"><ele>13.0</ele><time>2026-04-30T08:34:55.876Z</time></trkpt><trkpt lat="40.557849196604295" lon="9.789114477816225"><ele>12.333333333333332</ele><time>2026-04-30T08:34:56.876Z</time></trkpt><trkpt lat="40.557681399808" lon="9.789045433252138"><ele>11.666666666666666</ele><time>2026-04-30T08:34:57.876Z</time></trkpt><trkpt lat="40.557519725150485" lon="9.788955206094826"><ele>11.0</ele><time>2026-04-30T08:34:58.876Z</time></trkpt><trkpt lat="40.55735975200636" lon="9.788890042138876"><ele>11.0</ele><time>2026-04-30T08:34:59.876Z</time></trkpt><trkpt lat="40.55721272354162" lon="9.78882734043078"><ele>11.0</ele><time>2026-04-30T08:35:00.876Z</time></trkpt><trkpt lat="40.5570733321064" lon="9.788764456513642"><ele>11.0</ele><time>2026-04-30T08:35:01.876Z</time></trkpt><trkpt lat="40.55694055271414" lon="9.788710260625779"><ele>11.0</ele><time>2026-04-30T08:35:02.876Z</time></trkpt><trkpt lat="40.556808053812276" lon="9.788654483311628"><ele>10.5</ele><time>2026-04-30T08:35:03.876Z</time></trkpt><trkpt lat="40.556676705352736" lon="9.788595014221892"><ele>10.0</ele><time>2026-04-30T08:35:04.876Z</time></trkpt><trkpt lat="40.5565391028407" lon="9.78853528282115"><ele>9.5</ele><time>2026-04-30T08:35:05.876Z</time></trkpt><trkpt lat="40.55640292202669" lon="9.788479127121077"><ele>9.0</ele><time>2026-04-30T08:35:06.876Z</time></trkpt><trkpt lat="40.55624994927103" lon="9.788437503637422"><ele>9.0</ele><time>2026-04-30T08:35:07.876Z</time></trkpt><trkpt lat="40.556064753850976" lon="9.788401942049097"><ele>9.0</ele><time>2026-04-30T08:35:08.876Z</time></trkpt><trkpt lat="40.55585659614002" lon="9.788370149304386"><ele>9.0</ele><time>2026-04-30T08:35:09.877Z</time></trkpt><trkpt lat="40.55564486389423" lon="9.78833517591798"><ele>9.0</ele><time>2026-04-30T08:35:10.876Z</time></trkpt><trkpt lat="40.5554510050584" lon="9.788300077873103"><ele>9.0</ele><time>2026-04-30T08:35:11.876Z</time></trkpt><trkpt lat="40.555273946758334" lon="9.788267131929775"><ele>9.0</ele><time>2026-04-30T08:35:12.877Z</time></trkpt><trkpt lat="40.555113868964504" lon="9.78823592792203"><ele>9.666666666666666</ele><time>2026-04-30T08:35:13.877Z</time></trkpt><trkpt lat="40.55496607744034" lon="9.788205044426393"><ele>10.333333333333332</ele><time>2026-04-30T08:35:14.877Z</time></trkpt><trkpt lat="40.55482694821693" lon="9.788152146242403"><ele>11.0</ele><time>2026-04-30T08:35:15.877Z</time></trkpt><trkpt lat="40.554682223475844" lon="9.788066555130532"><ele>10.0</ele><time>2026-04-30T08:35:16.877Z</time></trkpt><trkpt lat="40.55449860735042" lon="9.787950612002486"><ele>9.0</ele><time>2026-04-30T08:35:17.877Z</time></trkpt><trkpt lat="40.55427889004214" lon="9.78781149974035"><ele>8.0</ele><time>2026-04-30T08:35:18.877Z</time></trkpt><trkpt lat="40.5540479244194" lon="9.78768686025968"><ele>7.333333333333333</ele><time>2026-04-30T08:35:19.877Z</time></trkpt><trkpt lat="40.55385668541414" lon="9.787556531849447"><ele>6.666666666666666</ele><time>2026-04-30T08:35:20.877Z</time></trkpt><trkpt lat="40.55368286831761" lon="9.787447102095047"><ele>6.0</ele><time>2026-04-30T08:35:21.876Z</time></trkpt><trkpt lat="40.553525350308405" lon="9.787344763653008"><ele>6.0</ele><time>2026-04-30T08:35:22.877Z</time></trkpt><trkpt lat="40.55337360478253" lon="9.787242372788052"><ele>6.0</ele><time>2026-04-30T08:35:23.877Z</time></trkpt><trkpt lat="40.553230063279216" lon="9.78714704989586"><ele>6.0</ele><time>2026-04-30T08:35:24.877Z</time></trkpt><trkpt lat="40.55308475133229" lon="9.787056584766665"><ele>6.0</ele><time>2026-04-30T08:35:25.877Z</time></trkpt><trkpt lat="40.55293486671907" lon="9.786971037637317"><ele>6.0</ele><time>2026-04-30T08:35:26.877Z</time></trkpt><trkpt lat="40.55278505484517" lon="9.78690795806386"><ele>6.0</ele><time>2026-04-30T08:35:27.877Z</time></trkpt><trkpt lat="40.55263585018037" lon="9.786866509715571"><ele>6.75</ele><time>2026-04-30T08:35:28.877Z</time></trkpt><trkpt lat="40.552486750834476" lon="9.78683819849275"><ele>7.5</ele><time>2026-04-30T08:35:29.877Z</time></trkpt><trkpt lat="40.55233701333609" lon="9.786803840744208"><ele>8.25</ele><time>2026-04-30T08:35:30.877Z</time></trkpt><trkpt lat="40.552196406789236" lon="9.786769776744553"><ele>9.0</ele><time>2026-04-30T08:35:31.877Z</time></trkpt><trkpt lat="40.552070299686015" lon="9.786738590960951"><ele>8.75</ele><time>2026-04-30T08:35:32.877Z</time></trkpt><trkpt lat="40.5519447635276" lon="9.786700495322485"><ele>8.5</ele><time>2026-04-30T08:35:33.877Z</time></trkpt><trkpt lat="40.55182681237339" lon="9.786664908534453"><ele>8.25</ele><time>2026-04-30T08:35:34.877Z</time></trkpt><trkpt lat="40.551726035427556" lon="9.786619035395315"><ele>8.0</ele><time>2026-04-30T08:35:35.877Z</time></trkpt><trkpt lat="40.55163393785136" lon="9.786575525057206"><ele>8.0</ele><time>2026-04-30T08:35:36.877Z</time></trkpt><trkpt lat="40.551537137948095" lon="9.786508326168326"><ele>8.0</ele><time>2026-04-30T08:35:37.877Z</time></trkpt><trkpt lat="40.551439492797485" lon="9.786418706085604"><ele>8.0</ele><time>2026-04-30T08:35:38.877Z</time></trkpt><trkpt lat="40.551341852737245" lon="9.78631457573356"><ele>8.0</ele><time>2026-04-30T08:35:39.876Z</time></trkpt><trkpt lat="40.55123506457563" lon="9.786205765638234"><ele>7.75</ele><time>2026-04-30T08:35:40.876Z</time></trkpt><trkpt lat="40.551127040520825" lon="9.786101894345013"><ele>7.5</ele><time>2026-04-30T08:35:41.876Z</time></trkpt><trkpt lat="40.551019881513575" lon="9.786012351393254"><ele>7.25</ele><time>2026-04-30T08:35:42.876Z</time></trkpt><trkpt lat="40.5509088123862" lon="9.785929286937032"><ele>7.0</ele><time>2026-04-30T08:35:43.876Z</time></trkpt><trkpt lat="40.55077311347009" lon="9.78586290889001"><ele>6.75</ele><time>2026-04-30T08:35:44.876Z</time></trkpt><trkpt lat="40.5506371988362" lon="9.785824047009454"><ele>6.5</ele><time>2026-04-30T08:35:45.876Z</time></trkpt><trkpt lat="40.550490962202375" lon="9.785793444460513"><ele>6.25</ele><time>2026-04-30T08:35:46.876Z</time></trkpt><trkpt lat="40.550343969861636" lon="9.785761820118143"><ele>6.0</ele><time>2026-04-30T08:35:47.876Z</time></trkpt><trkpt lat="40.550200568794736" lon="9.785732983530204"><ele>6.0</ele><time>2026-04-30T08:35:48.876Z</time></trkpt><trkpt lat="40.55006090330696" lon="9.785703507437903"><ele>6.0</ele><time>2026-04-30T08:35:49.876Z</time></trkpt><trkpt lat="40.54991677271701" lon="9.785671250058124"><ele>6.0</ele><time>2026-04-30T08:35:50.876Z</time></trkpt><trkpt lat="40.54977448280056" lon="9.785634607681645"><ele>6.0</ele><time>2026-04-30T08:35:51.876Z</time></trkpt><trkpt lat="40.549620759998994" lon="9.78556974999029"><ele>6.0</ele><time>2026-04-30T08:35:52.876Z</time></trkpt><trkpt lat="40.549455525945355" lon="9.785490565339698"><ele>6.0</ele><time>2026-04-30T08:35:53.876Z</time></trkpt><trkpt lat="40.549267465494395" lon="9.785392812274447"><ele>6.0</ele><time>2026-04-30T08:35:54.876Z</time></trkpt><trkpt lat="40.54906775313499" lon="9.785289361173207"><ele>6.5</ele><time>2026-04-30T08:35:55.876Z</time></trkpt><trkpt lat="40.54885665124088" lon="9.78517594297107"><ele>7.0</ele><time>2026-04-30T08:35:56.876Z</time></trkpt><trkpt lat="40.54863749251147" lon="9.785060971858018"><ele>7.0</ele><time>2026-04-30T08:35:57.876Z</time></trkpt><trkpt lat="40.548412149047614" lon="9.78495165406195"><ele>7.0</ele><time>2026-04-30T08:35:58.876Z</time></trkpt><trkpt lat="40.54817768681485" lon="9.784840863706272"><ele>7.0</ele><time>2026-04-30T08:35:59.876Z</time></trkpt><trkpt lat="40.54794408403161" lon="9.78471852909998"><ele>7.0</ele><time>2026-04-30T08:36:00.876Z</time></trkpt><trkpt lat="40.54770588974705" lon="9.784597688748033"><ele>8.5</ele><time>2026-04-30T08:36:01.876Z</time></trkpt><trkpt lat="40.54745917881519" lon="9.784484700183615"><ele>10.0</ele><time>2026-04-30T08:36:02.876Z</time></trkpt><trkpt lat="40.547216142276284" lon="9.784363421255454"><ele>10.0</ele><time>2026-04-30T08:36:03.876Z</time></trkpt><trkpt lat="40.54696951752923" lon="9.784244107276134"><ele>10.0</ele><time>2026-04-30T08:36:04.876Z</time></trkpt><trkpt lat="40.54671953902364" lon="9.784119974947657"><ele>10.0</ele><time>2026-04-30T08:36:05.876Z</time></trkpt><trkpt lat="40.54647007199849" lon="9.784000387212952"><ele>10.0</ele><time>2026-04-30T08:36:06.876Z</time></trkpt><trkpt lat="40.54622192998053" lon="9.783883061174585"><ele>11.0</ele><time>2026-04-30T08:36:07.876Z</time></trkpt><trkpt lat="40.54598498548852" lon="9.78376677176137"><ele>12.0</ele><time>2026-04-30T08:36:08.876Z</time></trkpt><trkpt lat="40.54576633031899" lon="9.783652528775956"><ele>12.0</ele><time>2026-04-30T08:36:09.876Z</time></trkpt><trkpt lat="40.5455594166226" lon="9.783549971550421"><ele>12.0</ele><time>2026-04-30T08:36:10.876Z</time></trkpt><trkpt lat="40.54536177080697" lon="9.783452939335298"><ele>12.0</ele><time>2026-04-30T08:36:11.876Z</time></trkpt><trkpt lat="40.54517939945369" lon="9.783360752209102"><ele>11.666666666666666</ele><time>2026-04-30T08:36:12.876Z</time></trkpt><trkpt lat="40.545004591487526" lon="9.78327599260369"><ele>11.333333333333332</ele><time>2026-04-30T08:36:13.876Z</time></trkpt><trkpt lat="40.54482006057993" lon="9.783242579911274"><ele>11.0</ele><time>2026-04-30T08:36:14.876Z</time></trkpt><trkpt lat="40.54463577097553" lon="9.78324595249371"><ele>10.333333333333332</ele><time>2026-04-30T08:36:15.876Z</time></trkpt><trkpt lat="40.544450779733225" lon="9.783307588462216"><ele>9.666666666666666</ele><time>2026-04-30T08:36:16.876Z</time></trkpt><trkpt lat="40.54426068664238" lon="9.78340893821364"><ele>9.0</ele><time>2026-04-30T08:36:17.876Z</time></trkpt><trkpt lat="40.54406718538632" lon="9.783538595361348"><ele>9.0</ele><time>2026-04-30T08:36:18.876Z</time></trkpt><trkpt lat="40.543855837663635" lon="9.783683544433982"><ele>9.0</ele><time>2026-04-30T08:36:19.876Z</time></trkpt><trkpt lat="40.543632752865186" lon="9.783823579458543"><ele>6.0</ele><time>2026-04-30T08:36:20.876Z</time></trkpt><trkpt lat="40.54340217094126" lon="9.783972947526234"><ele>3.0</ele><time>2026-04-30T08:36:21.876Z</time></trkpt><trkpt lat="40.54316938393117" lon="9.784122893795349"><ele>3.0</ele><time>2026-04-30T08:36:22.876Z</time></trkpt><trkpt lat="40.54294183915689" lon="9.784266122201114"><ele>3.0</ele><time>2026-04-30T08:36:23.876Z</time></trkpt><trkpt lat="40.54271405604138" lon="9.784406621517414"><ele>5.0</ele><time>2026-04-30T08:36:24.876Z</time></trkpt><trkpt lat="40.54248721654488" lon="9.784546708852238"><ele>7.0</ele><time>2026-04-30T08:36:25.876Z</time></trkpt><trkpt lat="40.54226200769125" lon="9.784685391924416"><ele>8.0</ele><time>2026-04-30T08:36:26.876Z</time></trkpt><trkpt lat="40.54204138764434" lon="9.78482812379034"><ele>9.0</ele><time>2026-04-30T08:36:27.876Z</time></trkpt><trkpt lat="40.541823631021686" lon="9.784969455588643"><ele>9.0</ele><time>2026-04-30T08:36:28.875Z</time></trkpt><trkpt lat="40.54161188421115" lon="9.78510451282687"><ele>9.0</ele><time>2026-04-30T08:36:29.875Z</time></trkpt><trkpt lat="40.54140485370397" lon="9.785241236136152"><ele>9.0</ele><time>2026-04-30T08:36:30.875Z</time></trkpt><trkpt lat="40.54119971904334" lon="9.785382997165664"><ele>9.0</ele><time>2026-04-30T08:36:31.875Z</time></trkpt><trkpt lat="40.54098530163594" lon="9.785528031760357"><ele>9.0</ele><time>2026-04-30T08:36:32.875Z</time></trkpt><trkpt lat="40.54076895209018" lon="9.78567560694713"><ele>9.0</ele><time>2026-04-30T08:36:33.875Z</time></trkpt><trkpt lat="40.540552820809424" lon="9.785823924437787"><ele>9.5</ele><time>2026-04-30T08:36:34.875Z</time></trkpt><trkpt lat="40.540337640007046" lon="9.785974129464746"><ele>10.0</ele><time>2026-04-30T08:36:35.875Z</time></trkpt><trkpt lat="40.540125084709175" lon="9.786121709845233"><ele>10.0</ele><time>2026-04-30T08:36:36.875Z</time></trkpt><trkpt lat="40.53990593348101" lon="9.786269492520585"><ele>10.0</ele><time>2026-04-30T08:36:37.875Z</time></trkpt><trkpt lat="40.53968812482675" lon="9.786414785383565"><ele>9.5</ele><time>2026-04-30T08:36:38.875Z</time></trkpt><trkpt lat="40.53947151931692" lon="9.786575781370328"><ele>9.0</ele><time>2026-04-30T08:36:39.875Z</time></trkpt><trkpt lat="40.539248650497285" lon="9.78673416620292"><ele>10.0</ele><time>2026-04-30T08:36:40.875Z</time></trkpt><trkpt lat="40.53902068770044" lon="9.786898587707817"><ele>11.0</ele><time>2026-04-30T08:36:41.875Z</time></trkpt><trkpt lat="40.53878082872765" lon="9.787044241551529"><ele>10.5</ele><time>2026-04-30T08:36:42.875Z</time></trkpt><trkpt lat="40.538547469482566" lon="9.787220891009389"><ele>10.0</ele><time>2026-04-30T08:36:43.875Z</time></trkpt><trkpt lat="40.53831015916857" lon="9.787379729028126"><ele>10.0</ele><time>2026-04-30T08:36:44.875Z</time></trkpt><trkpt lat="40.53807239386822" lon="9.78753980497699"><ele>10.0</ele><time>2026-04-30T08:36:45.875Z</time></trkpt><trkpt lat="40.5378396539252" lon="9.787710720861632"><ele>9.0</ele><time>2026-04-30T08:36:46.875Z</time></trkpt><trkpt lat="40.53760906915903" lon="9.78787888795455"><ele>8.0</ele><time>2026-04-30T08:36:47.875Z</time></trkpt><trkpt lat="40.537376378127746" lon="9.788045043971897"><ele>8.0</ele><time>2026-04-30T08:36:48.875Z</time></trkpt><trkpt lat="40.53714345200731" lon="9.788208788233655"><ele>8.0</ele><time>2026-04-30T08:36:49.875Z</time></trkpt><trkpt lat="40.53690980754855" lon="9.788372892413566"><ele>8.5</ele><time>2026-04-30T08:36:50.875Z</time></trkpt><trkpt lat="40.536676287834226" lon="9.788537138244791"><ele>9.0</ele><time>2026-04-30T08:36:51.875Z</time></trkpt><trkpt lat="40.53644816012838" lon="9.788702444579448"><ele>10.5</ele><time>2026-04-30T08:36:52.875Z</time></trkpt><trkpt lat="40.53621618405408" lon="9.788865804011376"><ele>12.0</ele><time>2026-04-30T08:36:53.875Z</time></trkpt><trkpt lat="40.535999255942265" lon="9.789017831716832"><ele>12.0</ele><time>2026-04-30T08:36:54.875Z</time></trkpt><trkpt lat="40.53580217693086" lon="9.789162397391346"><ele>12.0</ele><time>2026-04-30T08:36:55.875Z</time></trkpt><trkpt lat="40.53562375779591" lon="9.789294223159038"><ele>12.0</ele><time>2026-04-30T08:36:56.875Z</time></trkpt><trkpt lat="40.535456942394894" lon="9.789409584908826"><ele>15.0</ele><time>2026-04-30T08:36:57.875Z</time></trkpt><trkpt lat="40.53530064395071" lon="9.789517351054592"><ele>18.0</ele><time>2026-04-30T08:36:58.875Z</time></trkpt><trkpt lat="40.53515500040252" lon="9.789619581480054"><ele>21.0</ele><time>2026-04-30T08:36:59.875Z</time></trkpt><trkpt lat="40.5350136719031" lon="9.789718075105847"><ele>21.0</ele><time>2026-04-30T08:37:00.875Z</time></trkpt><trkpt lat="40.53488240531063" lon="9.78981608922812"><ele>21.0</ele><time>2026-04-30T08:37:01.875Z</time></trkpt><trkpt lat="40.53475175612036" lon="9.789908326333892"><ele>21.0</ele><time>2026-04-30T08:37:02.875Z</time></trkpt><trkpt lat="40.53462746078667" lon="9.789992431883215"><ele>21.0</ele><time>2026-04-30T08:37:03.875Z</time></trkpt><trkpt lat="40.53450868673704" lon="9.790074924043205"><ele>20.75</ele><time>2026-04-30T08:37:04.875Z</time></trkpt><trkpt lat="40.53438163034896" lon="9.790142604469098"><ele>20.5</ele><time>2026-04-30T08:37:05.875Z</time></trkpt><trkpt lat="40.534253154509294" lon="9.790200980089244"><ele>20.25</ele><time>2026-04-30T08:37:06.875Z</time></trkpt><trkpt lat="40.53411613688056" lon="9.79025191670191"><ele>20.0</ele><time>2026-04-30T08:37:07.875Z</time></trkpt><trkpt lat="40.53396701868838" lon="9.790305546890632"><ele>19.666666666666668</ele><time>2026-04-30T08:37:08.875Z</time></trkpt><trkpt lat="40.533814862914554" lon="9.790370574730453"><ele>19.333333333333332</ele><time>2026-04-30T08:37:09.875Z</time></trkpt><trkpt lat="40.53365244131668" lon="9.790437154904744"><ele>19.0</ele><time>2026-04-30T08:37:10.875Z</time></trkpt><trkpt lat="40.53348530124495" lon="9.790501146063715"><ele>18.333333333333332</ele><time>2026-04-30T08:37:11.875Z</time></trkpt><trkpt lat="40.5333129423435" lon="9.790572421189914"><ele>17.666666666666668</ele><time>2026-04-30T08:37:12.875Z</time></trkpt><trkpt lat="40.53313773521678" lon="9.79064707541939"><ele>17.0</ele><time>2026-04-30T08:37:13.875Z</time></trkpt><trkpt lat="40.53295493654576" lon="9.790712980398071"><ele>17.666666666666668</ele><time>2026-04-30T08:37:14.875Z</time></trkpt><trkpt lat="40.53277108472057" lon="9.790778767063696"><ele>18.333333333333332</ele><time>2026-04-30T08:37:15.876Z</time></trkpt><trkpt lat="40.53258839120956" lon="9.79085242117371"><ele>19.0</ele><time>2026-04-30T08:37:16.875Z</time></trkpt><trkpt lat="40.532404525300045" lon="9.790923793149016"><ele>19.0</ele><time>2026-04-30T08:37:17.875Z</time></trkpt><trkpt lat="40.53221795594393" lon="9.790993216683828"><ele>19.0</ele><time>2026-04-30T08:37:18.875Z</time></trkpt><trkpt lat="40.532040642527726" lon="9.791071865906783"><ele>19.0</ele><time>2026-04-30T08:37:19.875Z</time></trkpt><trkpt lat="40.53186053722736" lon="9.791140588909828"><ele>19.666666666666664</ele><time>2026-04-30T08:37:20.875Z</time></trkpt><trkpt lat="40.531685539427315" lon="9.791204754484339"><ele>20.333333333333332</ele><time>2026-04-30T08:37:21.876Z</time></trkpt><trkpt lat="40.5315182562687" lon="9.79127511374987"><ele>21.0</ele><time>2026-04-30T08:37:22.875Z</time></trkpt><trkpt lat="40.531353502647406" lon="9.791341551558062"><ele>20.666666666666668</ele><time>2026-04-30T08:37:23.875Z</time></trkpt><trkpt lat="40.53119499556464" lon="9.791413357938502"><ele>20.333333333333336</ele><time>2026-04-30T08:37:24.876Z</time></trkpt><trkpt lat="40.531034209048876" lon="9.791490237582783"><ele>20.0</ele><time>2026-04-30T08:37:25.875Z</time></trkpt><trkpt lat="40.53086542510824" lon="9.79156956244984"><ele>20.0</ele><time>2026-04-30T08:37:26.875Z</time></trkpt><trkpt lat="40.530692315533294" lon="9.791653820742034"><ele>20.0</ele><time>2026-04-30T08:37:27.875Z</time></trkpt><trkpt lat="40.53051120884408" lon="9.79174197759711"><ele>20.0</ele><time>2026-04-30T08:37:28.875Z</time></trkpt><trkpt lat="40.53032467727689" lon="9.791828893710525"><ele>18.666666666666668</ele><time>2026-04-30T08:37:29.875Z</time></trkpt><trkpt lat="40.530137044888875" lon="9.79192147622997"><ele>17.333333333333332</ele><time>2026-04-30T08:37:30.875Z</time></trkpt><trkpt lat="40.52994377633417" lon="9.792013424912785"><ele>16.0</ele><time>2026-04-30T08:37:31.875Z</time></trkpt><trkpt lat="40.52975147890105" lon="9.792109241315222"><ele>17.333333333333332</ele><time>2026-04-30T08:37:32.875Z</time></trkpt><trkpt lat="40.52955426452353" lon="9.792199851230082"><ele>18.666666666666668</ele><time>2026-04-30T08:37:33.875Z</time></trkpt><trkpt lat="40.52935737028597" lon="9.792291630080927"><ele>20.0</ele><time>2026-04-30T08:37:34.875Z</time></trkpt><trkpt lat="40.52916263287878" lon="9.79238527658192"><ele>20.0</ele><time>2026-04-30T08:37:35.875Z</time></trkpt><trkpt lat="40.528960680127554" lon="9.792478895773076"><ele>20.0</ele><time>2026-04-30T08:37:36.875Z</time></trkpt><trkpt lat="40.52875886427693" lon="9.792575770464223"><ele>20.0</ele><time>2026-04-30T08:37:37.875Z</time></trkpt><trkpt lat="40.52856362364614" lon="9.792682198723195"><ele>19.0</ele><time>2026-04-30T08:37:38.875Z</time></trkpt><trkpt lat="40.52837060124109" lon="9.792821668188155"><ele>18.0</ele><time>2026-04-30T08:37:39.875Z</time></trkpt><trkpt lat="40.52817553696346" lon="9.792992519518874"><ele>18.0</ele><time>2026-04-30T08:37:40.875Z</time></trkpt><trkpt lat="40.52797791883029" lon="9.793178144441422"><ele>18.0</ele><time>2026-04-30T08:37:41.875Z</time></trkpt><trkpt lat="40.527761418704614" lon="9.793367401732384"><ele>17.5</ele><time>2026-04-30T08:37:42.875Z</time></trkpt><trkpt lat="40.527542568274754" lon="9.793563183060666"><ele>17.0</ele><time>2026-04-30T08:37:43.875Z</time></trkpt><trkpt lat="40.527321015915504" lon="9.79375980650194"><ele>17.0</ele><time>2026-04-30T08:37:44.875Z</time></trkpt><trkpt lat="40.52709725289452" lon="9.793956195345892"><ele>17.0</ele><time>2026-04-30T08:37:45.875Z</time></trkpt><trkpt lat="40.52687823162741" lon="9.794147582606534"><ele>18.0</ele><time>2026-04-30T08:37:46.875Z</time></trkpt><trkpt lat="40.52666566199903" lon="9.79434081400059"><ele>19.0</ele><time>2026-04-30T08:37:47.876Z</time></trkpt><trkpt lat="40.52645286816885" lon="9.794536483308741"><ele>19.0</ele><time>2026-04-30T08:37:48.876Z</time></trkpt><trkpt lat="40.52625258261777" lon="9.794745509941531"><ele>19.0</ele><time>2026-04-30T08:37:49.876Z</time></trkpt><trkpt lat="40.52606293842597" lon="9.79495410284983"><ele>20.0</ele><time>2026-04-30T08:37:50.876Z</time></trkpt><trkpt lat="40.525873040496535" lon="9.795158786457343"><ele>21.0</ele><time>2026-04-30T08:37:51.876Z</time></trkpt><trkpt lat="40.525688407801894" lon="9.795355136582584"><ele>21.0</ele><time>2026-04-30T08:37:52.876Z</time></trkpt><trkpt lat="40.52548955695671" lon="9.79553815392808"><ele>21.0</ele><time>2026-04-30T08:37:53.876Z</time></trkpt><trkpt lat="40.52529444015971" lon="9.795722144941623"><ele>22.0</ele><time>2026-04-30T08:37:54.876Z</time></trkpt><trkpt lat="40.52510014814618" lon="9.795910860292294"><ele>23.0</ele><time>2026-04-30T08:37:55.876Z</time></trkpt><trkpt lat="40.52490952528003" lon="9.796099759832641"><ele>23.5</ele><time>2026-04-30T08:37:56.876Z</time></trkpt><trkpt lat="40.5247216755775" lon="9.796283362156494"><ele>24.0</ele><time>2026-04-30T08:37:57.876Z</time></trkpt><trkpt lat="40.524539834318865" lon="9.796452699190324"><ele>24.0</ele><time>2026-04-30T08:37:58.876Z</time></trkpt><trkpt lat="40.52435938551291" lon="9.796607990555975"><ele>24.0</ele><time>2026-04-30T08:37:59.876Z</time></trkpt><trkpt lat="40.52416274452054" lon="9.796716640006267"><ele>24.0</ele><time>2026-04-30T08:38:00.876Z</time></trkpt><trkpt lat="40.523960854983244" lon="9.796839279041466"><ele>23.0</ele><time>2026-04-30T08:38:01.876Z</time></trkpt><trkpt lat="40.52374563145727" lon="9.796914389790883"><ele>22.0</ele><time>2026-04-30T08:38:02.876Z</time></trkpt><trkpt lat="40.5235186805486" lon="9.796948689543914"><ele>22.0</ele><time>2026-04-30T08:38:03.876Z</time></trkpt><trkpt lat="40.52328786712811" lon="9.796984714164571"><ele>22.0</ele><time>2026-04-30T08:38:04.876Z</time></trkpt><trkpt lat="40.523046495629856" lon="9.79702238668313"><ele>22.5</ele><time>2026-04-30T08:38:05.876Z</time></trkpt><trkpt lat="40.52280506300658" lon="9.797079341598314"><ele>23.0</ele><time>2026-04-30T08:38:06.876Z</time></trkpt><trkpt lat="40.522571732782104" lon="9.797113490854084"><ele>23.0</ele><time>2026-04-30T08:38:07.876Z</time></trkpt><trkpt lat="40.522354966771985" lon="9.797152378586397"><ele>23.0</ele><time>2026-04-30T08:38:08.876Z</time></trkpt><trkpt lat="40.52215651655517" lon="9.797154666557192"><ele>23.0</ele><time>2026-04-30T08:38:09.876Z</time></trkpt><trkpt lat="40.5219780747808" lon="9.797133288107934"><ele>23.666666666666668</ele><time>2026-04-30T08:38:10.876Z</time></trkpt><trkpt lat="40.52181249144646" lon="9.797036469064569"><ele>24.333333333333336</ele><time>2026-04-30T08:38:11.876Z</time></trkpt><trkpt lat="40.521650345674914" lon="9.796895618035515"><ele>25.0</ele><time>2026-04-30T08:38:12.876Z</time></trkpt><trkpt lat="40.52146203009526" lon="9.796744938993333"><ele>25.333333333333336</ele><time>2026-04-30T08:38:13.876Z</time></trkpt><trkpt lat="40.52128058297919" lon="9.796590289270657"><ele>25.666666666666664</ele><time>2026-04-30T08:38:14.876Z</time></trkpt><trkpt lat="40.52107735096079" lon="9.796483183906657"><ele>26.0</ele><time>2026-04-30T08:38:15.876Z</time></trkpt><trkpt lat="40.52085054388898" lon="9.796424125668409"><ele>28.0</ele><time>2026-04-30T08:38:16.876Z</time></trkpt><trkpt lat="40.520609178092805" lon="9.79637221781549"><ele>30.0</ele><time>2026-04-30T08:38:17.875Z</time></trkpt><trkpt lat="40.52037633806418" lon="9.796237812626703"><ele>31.5</ele><time>2026-04-30T08:38:18.875Z</time></trkpt><trkpt lat="40.520138442879016" lon="9.79609419549603"><ele>33.0</ele><time>2026-04-30T08:38:19.875Z</time></trkpt><trkpt lat="40.519883969456764" lon="9.796005987739582"><ele>37.0</ele><time>2026-04-30T08:38:20.875Z</time></trkpt><trkpt lat="40.519633177649844" lon="9.795882044381266"><ele>41.0</ele><time>2026-04-30T08:38:21.875Z</time></trkpt><trkpt lat="40.51939615514841" lon="9.795744815169908"><ele>41.0</ele><time>2026-04-30T08:38:22.875Z</time></trkpt><trkpt lat="40.519169506784934" lon="9.795610855355218"><ele>41.0</ele><time>2026-04-30T08:38:23.875Z</time></trkpt><trkpt lat="40.51895755568251" lon="9.795555494633092"><ele>41.0</ele><time>2026-04-30T08:38:24.875Z</time></trkpt><trkpt lat="40.51877072687943" lon="9.795508425158715"><ele>41.0</ele><time>2026-04-30T08:38:25.875Z</time></trkpt><trkpt lat="40.51861560632892" lon="9.79543077574025"><ele>41.0</ele><time>2026-04-30T08:38:26.875Z</time></trkpt><trkpt lat="40.51849285037351" lon="9.795313567814757"><ele>43.0</ele><time>2026-04-30T08:38:27.875Z</time></trkpt><trkpt lat="40.51839136958239" lon="9.795132795210215"><ele>45.0</ele><time>2026-04-30T08:38:28.875Z</time></trkpt><trkpt lat="40.5182691057272" lon="9.794929429160412"><ele>47.0</ele><time>2026-04-30T08:38:29.875Z</time></trkpt><trkpt lat="40.51811377722745" lon="9.794771336102304"><ele>47.0</ele><time>2026-04-30T08:38:30.875Z</time></trkpt><trkpt lat="40.517920650470735" lon="9.794604525456043"><ele>47.0</ele><time>2026-04-30T08:38:31.875Z</time></trkpt><trkpt lat="40.51769489269816" lon="9.794411244383385"><ele>44.0</ele><time>2026-04-30T08:38:32.875Z</time></trkpt><trkpt lat="40.51745569873127" lon="9.79421777195699"><ele>41.0</ele><time>2026-04-30T08:38:33.875Z</time></trkpt><trkpt lat="40.517199232142886" lon="9.794011919170018"><ele>39.5</ele><time>2026-04-30T08:38:34.875Z</time></trkpt><trkpt lat="40.516930763877134" lon="9.793796890939003"><ele>38.0</ele><time>2026-04-30T08:38:35.875Z</time></trkpt><trkpt lat="40.51665051242729" lon="9.7935976985003"><ele>39.5</ele><time>2026-04-30T08:38:36.875Z</time></trkpt><trkpt lat="40.51637092574332" lon="9.793372643917584"><ele>41.0</ele><time>2026-04-30T08:38:37.875Z</time></trkpt><trkpt lat="40.516093876391295" lon="9.793151217157854"><ele>38.0</ele><time>2026-04-30T08:38:38.875Z</time></trkpt><trkpt lat="40.51582504120657" lon="9.792942580370191"><ele>35.0</ele><time>2026-04-30T08:38:39.875Z</time></trkpt><trkpt lat="40.51555341826965" lon="9.792741716538226"><ele>34.0</ele><time>2026-04-30T08:38:40.875Z</time></trkpt><trkpt lat="40.515275941927605" lon="9.792549501668386"><ele>33.0</ele><time>2026-04-30T08:38:41.875Z</time></trkpt><trkpt lat="40.51499308402716" lon="9.792373850637418"><ele>33.0</ele><time>2026-04-30T08:38:42.875Z</time></trkpt><trkpt lat="40.51470427364646" lon="9.792205911713971"><ele>33.0</ele><time>2026-04-30T08:38:43.875Z</time></trkpt><trkpt lat="40.514415170398415" lon="9.792033576928121"><ele>31.5</ele><time>2026-04-30T08:38:44.875Z</time></trkpt><trkpt lat="40.51411824749675" lon="9.791875620594345"><ele>30.0</ele><time>2026-04-30T08:38:45.875Z</time></trkpt><trkpt lat="40.51382526046365" lon="9.791708011876713"><ele>29.0</ele><time>2026-04-30T08:38:46.875Z</time></trkpt><trkpt lat="40.513525030511026" lon="9.79154849548103"><ele>28.0</ele><time>2026-04-30T08:38:47.875Z</time></trkpt><trkpt lat="40.51322577435909" lon="9.791390147006561"><ele>28.0</ele><time>2026-04-30T08:38:48.875Z</time></trkpt><trkpt lat="40.51292782227272" lon="9.791235962151415"><ele>28.0</ele><time>2026-04-30T08:38:49.875Z</time></trkpt><trkpt lat="40.51264282731584" lon="9.791087105401093"><ele>27.5</ele><time>2026-04-30T08:38:50.875Z</time></trkpt><trkpt lat="40.51235596035142" lon="9.790934591379171"><ele>27.0</ele><time>2026-04-30T08:38:51.875Z</time></trkpt><trkpt lat="40.512083156525314" lon="9.790787201248207"><ele>26.5</ele><time>2026-04-30T08:38:52.875Z</time></trkpt><trkpt lat="40.51180742777948" lon="9.790656724345226"><ele>26.0</ele><time>2026-04-30T08:38:53.875Z</time></trkpt><trkpt lat="40.51152532749256" lon="9.790537599876375"><ele>28.0</ele><time>2026-04-30T08:38:54.875Z</time></trkpt><trkpt lat="40.511237395513064" lon="9.79042423761337"><ele>30.0</ele><time>2026-04-30T08:38:55.875Z</time></trkpt><trkpt lat="40.51095590695069" lon="9.790291946793756"><ele>28.0</ele><time>2026-04-30T08:38:56.875Z</time></trkpt><trkpt lat="40.51068148915205" lon="9.790140082528108"><ele>26.0</ele><time>2026-04-30T08:38:57.875Z</time></trkpt><trkpt lat="40.51039367588195" lon="9.789986980966088"><ele>25.5</ele><time>2026-04-30T08:38:58.875Z</time></trkpt><trkpt lat="40.51008365621583" lon="9.789853732588824"><ele>25.0</ele><time>2026-04-30T08:38:59.875Z</time></trkpt><trkpt lat="40.5097679663657" lon="9.789725223341293"><ele>24.5</ele><time>2026-04-30T08:39:00.875Z</time></trkpt><trkpt lat="40.50944642836794" lon="9.789598590517722"><ele>24.0</ele><time>2026-04-30T08:39:01.875Z</time></trkpt><trkpt lat="40.50913175133825" lon="9.789469893034822"><ele>24.0</ele><time>2026-04-30T08:39:02.875Z</time></trkpt><trkpt lat="40.50882249789253" lon="9.789344186999102"><ele>24.0</ele><time>2026-04-30T08:39:03.875Z</time></trkpt><trkpt lat="40.50853550940423" lon="9.789223926347102"><ele>21.5</ele><time>2026-04-30T08:39:04.875Z</time></trkpt><trkpt lat="40.50827180513132" lon="9.789120351485456"><ele>19.0</ele><time>2026-04-30T08:39:05.875Z</time></trkpt><trkpt lat="40.50803745811148" lon="9.789019712847734"><ele>19.333333333333332</ele><time>2026-04-30T08:39:06.874Z</time></trkpt><trkpt lat="40.507824140606814" lon="9.788924954866632"><ele>19.666666666666668</ele><time>2026-04-30T08:39:07.874Z</time></trkpt><trkpt lat="40.50761399212819" lon="9.788830065216299"><ele>20.0</ele><time>2026-04-30T08:39:08.874Z</time></trkpt><trkpt lat="40.50739951209202" lon="9.788680612138432"><ele>19.0</ele><time>2026-04-30T08:39:09.874Z</time></trkpt><trkpt lat="40.507197673675755" lon="9.788481262186258"><ele>18.0</ele><time>2026-04-30T08:39:10.874Z</time></trkpt><trkpt lat="40.50699114858651" lon="9.788266541046744"><ele>18.0</ele><time>2026-04-30T08:39:11.874Z</time></trkpt><trkpt lat="40.50677621653023" lon="9.788059980222217"><ele>18.0</ele><time>2026-04-30T08:39:12.874Z</time></trkpt><trkpt lat="40.50655204964975" lon="9.78784460935517"><ele>18.5</ele><time>2026-04-30T08:39:13.874Z</time></trkpt><trkpt lat="40.50632138030557" lon="9.787631158238867"><ele>19.0</ele><time>2026-04-30T08:39:14.874Z</time></trkpt><trkpt lat="40.506089094414584" lon="9.787407106297206"><ele>19.0</ele><time>2026-04-30T08:39:15.874Z</time></trkpt><trkpt lat="40.50585516923112" lon="9.78718090952417"><ele>19.0</ele><time>2026-04-30T08:39:16.874Z</time></trkpt><trkpt lat="40.50562325398044" lon="9.786957057853154"><ele>18.0</ele><time>2026-04-30T08:39:17.874Z</time></trkpt><trkpt lat="40.50538503532596" lon="9.786727255383543"><ele>17.0</ele><time>2026-04-30T08:39:18.874Z</time></trkpt><trkpt lat="40.50514382328141" lon="9.786503530888277"><ele>17.0</ele><time>2026-04-30T08:39:19.874Z</time></trkpt><trkpt lat="40.50490469594357" lon="9.786277273743186"><ele>17.0</ele><time>2026-04-30T08:39:20.876Z</time></trkpt><trkpt lat="40.50466875882415" lon="9.786049150518732"><ele>17.5</ele><time>2026-04-30T08:39:21.876Z</time></trkpt><trkpt lat="40.504437015158196" lon="9.785820203512326"><ele>18.0</ele><time>2026-04-30T08:39:22.876Z</time></trkpt><trkpt lat="40.50421404629601" lon="9.78561274720481"><ele>18.0</ele><time>2026-04-30T08:39:23.876Z</time></trkpt><trkpt lat="40.504011454714586" lon="9.785422341625601"><ele>18.0</ele><time>2026-04-30T08:39:24.876Z</time></trkpt><trkpt lat="40.503819239255265" lon="9.785226625890473"><ele>19.0</ele><time>2026-04-30T08:39:25.876Z</time></trkpt><trkpt lat="40.50362222725905" lon="9.785015520262208"><ele>20.0</ele><time>2026-04-30T08:39:26.876Z</time></trkpt><trkpt lat="40.50340962919982" lon="9.784781815212403"><ele>20.0</ele><time>2026-04-30T08:39:27.875Z</time></trkpt><trkpt lat="40.503190768996966" lon="9.784536795842559"><ele>20.0</ele><time>2026-04-30T08:39:28.875Z</time></trkpt><trkpt lat="40.50296973383391" lon="9.784297537615567"><ele>19.5</ele><time>2026-04-30T08:39:29.875Z</time></trkpt><trkpt lat="40.502752227374096" lon="9.784055534376444"><ele>19.0</ele><time>2026-04-30T08:39:30.875Z</time></trkpt><trkpt lat="40.502537205614225" lon="9.783817640689145"><ele>19.0</ele><time>2026-04-30T08:39:31.875Z</time></trkpt><trkpt lat="40.50232432913394" lon="9.783582146671229"><ele>19.0</ele><time>2026-04-30T08:39:32.876Z</time></trkpt><trkpt lat="40.50210884263794" lon="9.783344264826914"><ele>16.0</ele><time>2026-04-30T08:39:33.875Z</time></trkpt><trkpt lat="40.501906085014134" lon="9.783103162320359"><ele>13.0</ele><time>2026-04-30T08:39:34.875Z</time></trkpt><trkpt lat="40.501698119401304" lon="9.782848831434606"><ele>12.5</ele><time>2026-04-30T08:39:35.875Z</time></trkpt><trkpt lat="40.50149684665427" lon="9.782593863305022"><ele>12.0</ele><time>2026-04-30T08:39:36.875Z</time></trkpt><trkpt lat="40.50129598400149" lon="9.782341820655244"><ele>14.0</ele><time>2026-04-30T08:39:37.875Z</time></trkpt><trkpt lat="40.50109468005182" lon="9.782089327372601"><ele>16.0</ele><time>2026-04-30T08:39:38.875Z</time></trkpt><trkpt lat="40.500894893947695" lon="9.781836073070155"><ele>16.5</ele><time>2026-04-30T08:39:39.875Z</time></trkpt><trkpt lat="40.50069891602684" lon="9.781580621433301"><ele>17.0</ele><time>2026-04-30T08:39:40.875Z</time></trkpt><trkpt lat="40.50050176458395" lon="9.781332504375479"><ele>17.5</ele><time>2026-04-30T08:39:41.875Z</time></trkpt><trkpt lat="40.500294827871166" lon="9.781102712288751"><ele>18.0</ele><time>2026-04-30T08:39:42.875Z</time></trkpt><trkpt lat="40.50008667607266" lon="9.780886385182015"><ele>18.0</ele><time>2026-04-30T08:39:43.875Z</time></trkpt><trkpt lat="40.49988204702084" lon="9.780679960825546"><ele>18.0</ele><time>2026-04-30T08:39:44.875Z</time></trkpt><trkpt lat="40.49967292073134" lon="9.780485487186416"><ele>19.0</ele><time>2026-04-30T08:39:45.875Z</time></trkpt><trkpt lat="40.49945620880953" lon="9.780303424707125"><ele>20.0</ele><time>2026-04-30T08:39:46.875Z</time></trkpt><trkpt lat="40.49923324925971" lon="9.780135808964387"><ele>20.0</ele><time>2026-04-30T08:39:47.875Z</time></trkpt><trkpt lat="40.49901020210616" lon="9.779968554084551"><ele>20.0</ele><time>2026-04-30T08:39:48.875Z</time></trkpt><trkpt lat="40.49878952695056" lon="9.779801495178038"><ele>21.0</ele><time>2026-04-30T08:39:49.875Z</time></trkpt><trkpt lat="40.49856510116466" lon="9.779640620844557"><ele>22.0</ele><time>2026-04-30T08:39:50.875Z</time></trkpt><trkpt lat="40.4983383818162" lon="9.779475809351872"><ele>21.0</ele><time>2026-04-30T08:39:51.875Z</time></trkpt><trkpt lat="40.49811794854388" lon="9.779320161986757"><ele>20.0</ele><time>2026-04-30T08:39:52.875Z</time></trkpt><trkpt lat="40.49790922328744" lon="9.779174808254972"><ele>21.333333333333336</ele><time>2026-04-30T08:39:53.875Z</time></trkpt><trkpt lat="40.497705768016445" lon="9.779041115693376"><ele>22.666666666666668</ele><time>2026-04-30T08:39:54.875Z</time></trkpt><trkpt lat="40.49750048224748" lon="9.77894407107403"><ele>24.0</ele><time>2026-04-30T08:39:55.875Z</time></trkpt><trkpt lat="40.497300227303576" lon="9.778876486572024"><ele>24.0</ele><time>2026-04-30T08:39:56.875Z</time></trkpt><trkpt lat="40.4971105108497" lon="9.778840619180913"><ele>24.0</ele><time>2026-04-30T08:39:57.875Z</time></trkpt><trkpt lat="40.49692624612257" lon="9.778777975988035"><ele>24.0</ele><time>2026-04-30T08:39:58.875Z</time></trkpt><trkpt lat="40.49673228017757" lon="9.778672376808906"><ele>24.5</ele><time>2026-04-30T08:39:59.875Z</time></trkpt><trkpt lat="40.49653409318384" lon="9.778519144683852"><ele>25.0</ele><time>2026-04-30T08:40:00.875Z</time></trkpt><trkpt lat="40.49632715256279" lon="9.778341057365026"><ele>28.0</ele><time>2026-04-30T08:40:01.875Z</time></trkpt><trkpt lat="40.49611069510304" lon="9.778165122066984"><ele>31.0</ele><time>2026-04-30T08:40:02.875Z</time></trkpt><trkpt lat="40.49588684027269" lon="9.777987649214849"><ele>31.0</ele><time>2026-04-30T08:40:03.875Z</time></trkpt><trkpt lat="40.4956670833513" lon="9.777824385146184"><ele>31.0</ele><time>2026-04-30T08:40:04.875Z</time></trkpt><trkpt lat="40.495456077933476" lon="9.777661766013738"><ele>31.0</ele><time>2026-04-30T08:40:05.875Z</time></trkpt><trkpt lat="40.49525492913233" lon="9.777508626010558"><ele>31.0</ele><time>2026-04-30T08:40:06.875Z</time></trkpt><trkpt lat="40.495059660508105" lon="9.777379669189273"><ele>31.0</ele><time>2026-04-30T08:40:07.874Z</time></trkpt><trkpt lat="40.49485219224533" lon="9.777290570127926"><ele>31.0</ele><time>2026-04-30T08:40:08.874Z</time></trkpt><trkpt lat="40.49463063800649" lon="9.777230126392688"><ele>31.0</ele><time>2026-04-30T08:40:09.874Z</time></trkpt><trkpt lat="40.49440511962522" lon="9.777169738627487"><ele>33.0</ele><time>2026-04-30T08:40:10.874Z</time></trkpt><trkpt lat="40.49418397347561" lon="9.777105777002609"><ele>35.0</ele><time>2026-04-30T08:40:11.874Z</time></trkpt><trkpt lat="40.493950967370594" lon="9.777050332299535"><ele>37.5</ele><time>2026-04-30T08:40:12.874Z</time></trkpt><trkpt lat="40.49371846688073" lon="9.776995829506268"><ele>40.0</ele><time>2026-04-30T08:40:13.874Z</time></trkpt><trkpt lat="40.49348103718183" lon="9.776953051349366"><ele>40.0</ele><time>2026-04-30T08:40:14.874Z</time></trkpt><trkpt lat="40.493253592982136" lon="9.77691883916129"><ele>40.0</ele><time>2026-04-30T08:40:15.874Z</time></trkpt><trkpt lat="40.49301668719923" lon="9.776894707705875"><ele>40.0</ele><time>2026-04-30T08:40:16.874Z</time></trkpt><trkpt lat="40.492781150763946" lon="9.776857367492507"><ele>40.0</ele><time>2026-04-30T08:40:17.874Z</time></trkpt><trkpt lat="40.49254581562332" lon="9.776830106004045"><ele>40.0</ele><time>2026-04-30T08:40:18.874Z</time></trkpt><trkpt lat="40.49230857469334" lon="9.7768014339548"><ele>40.0</ele><time>2026-04-30T08:40:19.874Z</time></trkpt><trkpt lat="40.492067459675766" lon="9.776764875611178"><ele>40.5</ele><time>2026-04-30T08:40:20.874Z</time></trkpt><trkpt lat="40.49182278876615" lon="9.776728447254666"><ele>41.0</ele><time>2026-04-30T08:40:21.874Z</time></trkpt><trkpt lat="40.49157588501784" lon="9.77669339193309"><ele>41.0</ele><time>2026-04-30T08:40:22.874Z</time></trkpt><trkpt lat="40.491331981675" lon="9.776658031279748"><ele>41.0</ele><time>2026-04-30T08:40:23.874Z</time></trkpt><trkpt lat="40.49108930687836" lon="9.776620437259785"><ele>43.0</ele><time>2026-04-30T08:40:24.874Z</time></trkpt><trkpt lat="40.49084614526246" lon="9.77658330455307"><ele>45.0</ele><time>2026-04-30T08:40:25.874Z</time></trkpt><trkpt lat="40.49060291755352" lon="9.776546464141392"><ele>46.5</ele><time>2026-04-30T08:40:26.874Z</time></trkpt><trkpt lat="40.49035752026112" lon="9.776508184773016"><ele>48.0</ele><time>2026-04-30T08:40:27.874Z</time></trkpt><trkpt lat="40.49010827404591" lon="9.776472064379725"><ele>48.0</ele><time>2026-04-30T08:40:28.874Z</time></trkpt><trkpt lat="40.48985842328806" lon="9.776434287589796"><ele>48.0</ele><time>2026-04-30T08:40:29.874Z</time></trkpt><trkpt lat="40.48960752087602" lon="9.776397629341865"><ele>46.5</ele><time>2026-04-30T08:40:30.874Z</time></trkpt><trkpt lat="40.4893529458316" lon="9.776372503366822"><ele>45.0</ele><time>2026-04-30T08:40:31.874Z</time></trkpt><trkpt lat="40.48909480716488" lon="9.77636566995091"><ele>45.0</ele><time>2026-04-30T08:40:32.874Z</time></trkpt><trkpt lat="40.48883294303798" lon="9.776371975104393"><ele>45.0</ele><time>2026-04-30T08:40:33.874Z</time></trkpt><trkpt lat="40.48856985939858" lon="9.776379338145269"><ele>43.5</ele><time>2026-04-30T08:40:34.874Z</time></trkpt><trkpt lat="40.48830335428319" lon="9.776383046122056"><ele>42.0</ele><time>2026-04-30T08:40:35.874Z</time></trkpt><trkpt lat="40.48804233997998" lon="9.776379410433043"><ele>40.5</ele><time>2026-04-30T08:40:36.874Z</time></trkpt><trkpt lat="40.487776922275366" lon="9.776376889764155"><ele>39.0</ele><time>2026-04-30T08:40:37.874Z</time></trkpt><trkpt lat="40.48751402970996" lon="9.776378836520733"><ele>39.0</ele><time>2026-04-30T08:40:38.874Z</time></trkpt><trkpt lat="40.487249767465094" lon="9.776388990948229"><ele>39.0</ele><time>2026-04-30T08:40:39.874Z</time></trkpt><trkpt lat="40.486989540713374" lon="9.776406215335966"><ele>38.5</ele><time>2026-04-30T08:40:40.874Z</time></trkpt><trkpt lat="40.486728869344155" lon="9.776429568958354"><ele>38.0</ele><time>2026-04-30T08:40:41.874Z</time></trkpt><trkpt lat="40.48647160014233" lon="9.7764578450581"><ele>38.0</ele><time>2026-04-30T08:40:42.874Z</time></trkpt><trkpt lat="40.48621499753869" lon="9.776482684739147"><ele>38.0</ele><time>2026-04-30T08:40:43.874Z</time></trkpt><trkpt lat="40.48595650226687" lon="9.776508608307326"><ele>38.0</ele><time>2026-04-30T08:40:44.874Z</time></trkpt><trkpt lat="40.48570301699144" lon="9.776530497553402"><ele>38.0</ele><time>2026-04-30T08:40:45.874Z</time></trkpt><trkpt lat="40.48546323108871" lon="9.776554915161563"><ele>38.0</ele><time>2026-04-30T08:40:46.874Z</time></trkpt><trkpt lat="40.48523934527462" lon="9.776574920969983"><ele>38.0</ele><time>2026-04-30T08:40:47.874Z</time></trkpt><trkpt lat="40.485029417103355" lon="9.776596074622262"><ele>38.0</ele><time>2026-04-30T08:40:48.874Z</time></trkpt><trkpt lat="40.484835662876655" lon="9.776639720298595"><ele>38.0</ele><time>2026-04-30T08:40:49.874Z</time></trkpt><trkpt lat="40.484644032870385" lon="9.776748898997983"><ele>38.0</ele><time>2026-04-30T08:40:50.874Z</time></trkpt><trkpt lat="40.484462819338844" lon="9.776902290757304"><ele>38.0</ele><time>2026-04-30T08:40:51.874Z</time></trkpt><trkpt lat="40.4842846607924" lon="9.77704824382298"><ele>38.0</ele><time>2026-04-30T08:40:52.874Z</time></trkpt><trkpt lat="40.48411069032823" lon="9.77715010748337"><ele>38.0</ele><time>2026-04-30T08:40:53.874Z</time></trkpt><trkpt lat="40.48390949196858" lon="9.777173059675146"><ele>38.0</ele><time>2026-04-30T08:40:54.874Z</time></trkpt><trkpt lat="40.4836795591167" lon="9.77714795799674"><ele>38.0</ele><time>2026-04-30T08:40:55.874Z</time></trkpt><trkpt lat="40.48344498292818" lon="9.777145262223536"><ele>38.0</ele><time>2026-04-30T08:40:56.873Z</time></trkpt><trkpt lat="40.4832133894457" lon="9.777153118396578"><ele>38.0</ele><time>2026-04-30T08:40:57.873Z</time></trkpt><trkpt lat="40.48298255550141" lon="9.777169468973243"><ele>38.0</ele><time>2026-04-30T08:40:58.873Z</time></trkpt><trkpt lat="40.482746468166695" lon="9.777226786025786"><ele>36.0</ele><time>2026-04-30T08:40:59.873Z</time></trkpt><trkpt lat="40.482501006609525" lon="9.777301700539441"><ele>34.0</ele><time>2026-04-30T08:41:00.873Z</time></trkpt><trkpt lat="40.4822453371385" lon="9.777380008798344"><ele>31.0</ele><time>2026-04-30T08:41:01.873Z</time></trkpt><trkpt lat="40.48198189934822" lon="9.777454888738047"><ele>28.0</ele><time>2026-04-30T08:41:02.873Z</time></trkpt><trkpt lat="40.481712138639665" lon="9.777530976923813"><ele>28.0</ele><time>2026-04-30T08:41:03.873Z</time></trkpt><trkpt lat="40.481437922869695" lon="9.777602855268471"><ele>28.0</ele><time>2026-04-30T08:41:04.873Z</time></trkpt><trkpt lat="40.48116886889252" lon="9.777677216918079"><ele>27.0</ele><time>2026-04-30T08:41:05.873Z</time></trkpt><trkpt lat="40.48089958803624" lon="9.777750206482656"><ele>26.0</ele><time>2026-04-30T08:41:06.873Z</time></trkpt><trkpt lat="40.48063699423034" lon="9.77781947075698"><ele>27.5</ele><time>2026-04-30T08:41:07.873Z</time></trkpt><trkpt lat="40.480380885563186" lon="9.77787850921767"><ele>29.0</ele><time>2026-04-30T08:41:08.873Z</time></trkpt><trkpt lat="40.48013782028" lon="9.777909478726123"><ele>29.0</ele><time>2026-04-30T08:41:09.873Z</time></trkpt><trkpt lat="40.47989854546915" lon="9.77792989710139"><ele>29.0</ele><time>2026-04-30T08:41:10.873Z</time></trkpt><trkpt lat="40.479666377183214" lon="9.777947164332199"><ele>30.0</ele><time>2026-04-30T08:41:11.873Z</time></trkpt><trkpt lat="40.47944318713752" lon="9.777986571641073"><ele>31.0</ele><time>2026-04-30T08:41:12.873Z</time></trkpt><trkpt lat="40.47921694228862" lon="9.778052962596732"><ele>31.0</ele><time>2026-04-30T08:41:13.873Z</time></trkpt><trkpt lat="40.47896965243288" lon="9.778124462138544"><ele>31.0</ele><time>2026-04-30T08:41:14.873Z</time></trkpt><trkpt lat="40.478737753789005" lon="9.778198148497978"><ele>32.0</ele><time>2026-04-30T08:41:15.873Z</time></trkpt><trkpt lat="40.47850194239319" lon="9.778273530100932"><ele>33.0</ele><time>2026-04-30T08:41:16.873Z</time></trkpt><trkpt lat="40.47826546049973" lon="9.77835113959472"><ele>33.0</ele><time>2026-04-30T08:41:17.873Z</time></trkpt><trkpt lat="40.47802995408078" lon="9.77842478829865"><ele>33.0</ele><time>2026-04-30T08:41:18.873Z</time></trkpt><trkpt lat="40.47779560134157" lon="9.778494224692125"><ele>30.0</ele><time>2026-04-30T08:41:19.873Z</time></trkpt><trkpt lat="40.47755681548749" lon="9.778560755804802"><ele>27.0</ele><time>2026-04-30T08:41:20.873Z</time></trkpt><trkpt lat="40.47732552327961" lon="9.778625880178708"><ele>26.0</ele><time>2026-04-30T08:41:21.873Z</time></trkpt><trkpt lat="40.47709828599495" lon="9.778676829766722"><ele>25.0</ele><time>2026-04-30T08:41:22.873Z</time></trkpt><trkpt lat="40.47686827184456" lon="9.778712550864118"><ele>25.0</ele><time>2026-04-30T08:41:23.873Z</time></trkpt><trkpt lat="40.47664332896847" lon="9.778730861035978"><ele>25.0</ele><time>2026-04-30T08:41:24.873Z</time></trkpt><trkpt lat="40.47641354326932" lon="9.778751954009078"><ele>23.0</ele><time>2026-04-30T08:41:25.873Z</time></trkpt><trkpt lat="40.476176290303094" lon="9.778780572976693"><ele>21.0</ele><time>2026-04-30T08:41:26.874Z</time></trkpt><trkpt lat="40.47594283617484" lon="9.778811848390568"><ele>21.0</ele><time>2026-04-30T08:41:27.875Z</time></trkpt><trkpt lat="40.475713756115255" lon="9.77883599416321"><ele>21.0</ele><time>2026-04-30T08:41:28.875Z</time></trkpt><trkpt lat="40.47548488611484" lon="9.778861572577256"><ele>20.666666666666668</ele><time>2026-04-30T08:41:29.875Z</time></trkpt><trkpt lat="40.4752738837317" lon="9.778879932285216"><ele>20.333333333333336</ele><time>2026-04-30T08:41:30.874Z</time></trkpt><trkpt lat="40.475067834392476" lon="9.7788826585377"><ele>20.0</ele><time>2026-04-30T08:41:31.874Z</time></trkpt><trkpt lat="40.4748561855157" lon="9.778867259532793"><ele>20.0</ele><time>2026-04-30T08:41:32.875Z</time></trkpt><trkpt lat="40.47464591357782" lon="9.778835632505853"><ele>20.0</ele><time>2026-04-30T08:41:33.875Z</time></trkpt><trkpt lat="40.474436196631046" lon="9.778797961969975"><ele>20.0</ele><time>2026-04-30T08:41:34.875Z</time></trkpt><trkpt lat="40.47422327939402" lon="9.778761917184545"><ele>19.666666666666668</ele><time>2026-04-30T08:41:35.875Z</time></trkpt><trkpt lat="40.47400975550448" lon="9.778722686113625"><ele>19.333333333333332</ele><time>2026-04-30T08:41:36.875Z</time></trkpt><trkpt lat="40.47378298393585" lon="9.778684460632885"><ele>19.0</ele><time>2026-04-30T08:41:37.875Z</time></trkpt><trkpt lat="40.473549987512875" lon="9.778649242686493"><ele>19.0</ele><time>2026-04-30T08:41:38.874Z</time></trkpt><trkpt lat="40.47330454073908" lon="9.778611998541553"><ele>19.0</ele><time>2026-04-30T08:41:39.875Z</time></trkpt><trkpt lat="40.47306448892175" lon="9.778575084150916"><ele>19.0</ele><time>2026-04-30T08:41:40.875Z</time></trkpt><trkpt lat="40.47283830298054" lon="9.778535134237936"><ele>19.0</ele><time>2026-04-30T08:41:41.875Z</time></trkpt><trkpt lat="40.472630689398905" lon="9.778491824072509"><ele>19.0</ele><time>2026-04-30T08:41:42.875Z</time></trkpt><trkpt lat="40.47243106038155" lon="9.7784542396188"><ele>21.333333333333332</ele><time>2026-04-30T08:41:43.875Z</time></trkpt><trkpt lat="40.47223217163419" lon="9.778419347169585"><ele>23.666666666666664</ele><time>2026-04-30T08:41:44.875Z</time></trkpt><trkpt lat="40.47204585160458" lon="9.77838713101862"><ele>26.0</ele><time>2026-04-30T08:41:45.875Z</time></trkpt><trkpt lat="40.47187267243285" lon="9.778361030630947"><ele>26.5</ele><time>2026-04-30T08:41:46.875Z</time></trkpt><trkpt lat="40.47172328670469" lon="9.778319048214936"><ele>27.0</ele><time>2026-04-30T08:41:47.875Z</time></trkpt><trkpt lat="40.47160533967732" lon="9.778241198595666"><ele>27.5</ele><time>2026-04-30T08:41:48.875Z</time></trkpt><trkpt lat="40.47151999602386" lon="9.7781056327315"><ele>28.0</ele><time>2026-04-30T08:41:49.875Z</time></trkpt><trkpt lat="40.47146541322764" lon="9.77791555447803"><ele>28.0</ele><time>2026-04-30T08:41:50.875Z</time></trkpt><trkpt lat="40.47139802505254" lon="9.77771928386537"><ele>28.0</ele><time>2026-04-30T08:41:51.875Z</time></trkpt><trkpt lat="40.471319402535414" lon="9.777521182830304"><ele>28.0</ele><time>2026-04-30T08:41:52.875Z</time></trkpt><trkpt lat="40.47123735483166" lon="9.777306829375467"><ele>27.666666666666668</ele><time>2026-04-30T08:41:53.875Z</time></trkpt><trkpt lat="40.471148541297566" lon="9.77708490626949"><ele>27.333333333333336</ele><time>2026-04-30T08:41:54.875Z</time></trkpt><trkpt lat="40.4710598064932" lon="9.776853896755123"><ele>27.0</ele><time>2026-04-30T08:41:55.875Z</time></trkpt><trkpt lat="40.470969388550536" lon="9.776612373308005"><ele>27.0</ele><time>2026-04-30T08:41:56.875Z</time></trkpt><trkpt lat="40.47087775877059" lon="9.776368339952416"><ele>27.0</ele><time>2026-04-30T08:41:57.875Z</time></trkpt><trkpt lat="40.47078757159679" lon="9.776143799398163"><ele>27.0</ele><time>2026-04-30T08:41:58.875Z</time></trkpt><trkpt lat="40.4706995453441" lon="9.775955402612956"><ele>26.666666666666664</ele><time>2026-04-30T08:41:59.875Z</time></trkpt><trkpt lat="40.470605852731026" lon="9.775808818259186"><ele>26.333333333333332</ele><time>2026-04-30T08:42:00.875Z</time></trkpt><trkpt lat="40.47048102543317" lon="9.77571430058988"><ele>26.0</ele><time>2026-04-30T08:42:01.875Z</time></trkpt><trkpt lat="40.470317587501015" lon="9.775644281432664"><ele>27.333333333333332</ele><time>2026-04-30T08:42:02.875Z</time></trkpt><trkpt lat="40.470134664016214" lon="9.775585135128344"><ele>28.666666666666664</ele><time>2026-04-30T08:42:03.875Z</time></trkpt><trkpt lat="40.46995288045747" lon="9.775512092385254"><ele>30.0</ele><time>2026-04-30T08:42:04.874Z</time></trkpt><trkpt lat="40.46978010104645" lon="9.7754550767763"><ele>31.333333333333336</ele><time>2026-04-30T08:42:05.874Z</time></trkpt><trkpt lat="40.46960439699061" lon="9.775436750748"><ele>32.66666666666667</ele><time>2026-04-30T08:42:06.874Z</time></trkpt><trkpt lat="40.46942791699611" lon="9.775487591466"><ele>34.0</ele><time>2026-04-30T08:42:07.874Z</time></trkpt><trkpt lat="40.46927487727792" lon="9.775578206661706"><ele>34.0</ele><time>2026-04-30T08:42:08.874Z</time></trkpt><trkpt lat="40.46914277966078" lon="9.775644271681651"><ele>34.0</ele><time>2026-04-30T08:42:09.874Z</time></trkpt><trkpt lat="40.46900193185661" lon="9.775632551510304"><ele>34.0</ele><time>2026-04-30T08:42:10.874Z</time></trkpt><trkpt lat="40.46885542753047" lon="9.775547347867642"><ele>34.0</ele><time>2026-04-30T08:42:11.874Z</time></trkpt><trkpt lat="40.468693845764456" lon="9.775427343170156"><ele>35.66666666666667</ele><time>2026-04-30T08:42:12.874Z</time></trkpt><trkpt lat="40.46853973014371" lon="9.775306722643064"><ele>37.333333333333336</ele><time>2026-04-30T08:42:13.874Z</time></trkpt><trkpt lat="40.46839674617002" lon="9.775177330415781"><ele>39.0</ele><time>2026-04-30T08:42:14.874Z</time></trkpt><trkpt lat="40.46826172818436" lon="9.775073185897924"><ele>40.333333333333336</ele><time>2026-04-30T08:42:15.874Z</time></trkpt><trkpt lat="40.46811860004376" lon="9.775045408639796"><ele>41.66666666666667</ele><time>2026-04-30T08:42:16.874Z</time></trkpt><trkpt lat="40.467948369015105" lon="9.77506616313864"><ele>43.0</ele><time>2026-04-30T08:42:17.874Z</time></trkpt><trkpt lat="40.46777095080554" lon="9.775090074858431"><ele>44.333333333333336</ele><time>2026-04-30T08:42:18.874Z</time></trkpt><trkpt lat="40.467584795208744" lon="9.775085913584663"><ele>45.666666666666664</ele><time>2026-04-30T08:42:19.874Z</time></trkpt><trkpt lat="40.46737951721123" lon="9.775070231002116"><ele>47.0</ele><time>2026-04-30T08:42:20.874Z</time></trkpt><trkpt lat="40.467180210490575" lon="9.775048505463413"><ele>47.33333333333333</ele><time>2026-04-30T08:42:21.874Z</time></trkpt><trkpt lat="40.46698809941669" lon="9.775010170265048"><ele>47.666666666666664</ele><time>2026-04-30T08:42:22.874Z</time></trkpt><trkpt lat="40.4668053657496" lon="9.774971014887123"><ele>48.0</ele><time>2026-04-30T08:42:23.874Z</time></trkpt><trkpt lat="40.466620341314844" lon="9.77491944027683"><ele>48.0</ele><time>2026-04-30T08:42:24.874Z</time></trkpt><trkpt lat="40.466430065357216" lon="9.774853323614128"><ele>48.0</ele><time>2026-04-30T08:42:25.874Z</time></trkpt><trkpt lat="40.46623304271705" lon="9.774751161453358"><ele>48.0</ele><time>2026-04-30T08:42:26.874Z</time></trkpt><trkpt lat="40.46603025051509" lon="9.77464114292462"><ele>48.5</ele><time>2026-04-30T08:42:27.874Z</time></trkpt><trkpt lat="40.46581887508024" lon="9.774513235557627"><ele>49.0</ele><time>2026-04-30T08:42:28.874Z</time></trkpt><trkpt lat="40.46560000351897" lon="9.774381914549423"><ele>44.5</ele><time>2026-04-30T08:42:29.874Z</time></trkpt><trkpt lat="40.465371975221686" lon="9.774251218547716"><ele>40.0</ele><time>2026-04-30T08:42:30.874Z</time></trkpt><trkpt lat="40.46513906235823" lon="9.77412120126948"><ele>40.0</ele><time>2026-04-30T08:42:31.874Z</time></trkpt><trkpt lat="40.464900673481395" lon="9.773983209840074"><ele>40.0</ele><time>2026-04-30T08:42:32.874Z</time></trkpt><trkpt lat="40.46465625817523" lon="9.773842274474614"><ele>40.0</ele><time>2026-04-30T08:42:33.874Z</time></trkpt><trkpt lat="40.464418603651914" lon="9.773700170321224"><ele>40.0</ele><time>2026-04-30T08:42:34.874Z</time></trkpt><trkpt lat="40.46418272307031" lon="9.773556254822187"><ele>36.5</ele><time>2026-04-30T08:42:35.874Z</time></trkpt><trkpt lat="40.463958731993515" lon="9.773425997397919"><ele>33.0</ele><time>2026-04-30T08:42:36.874Z</time></trkpt><trkpt lat="40.46374143571883" lon="9.7733099120573"><ele>33.0</ele><time>2026-04-30T08:42:37.874Z</time></trkpt><trkpt lat="40.46352051109689" lon="9.773211406930416"><ele>33.0</ele><time>2026-04-30T08:42:38.874Z</time></trkpt><trkpt lat="40.46329312774582" lon="9.77314953633738"><ele>33.0</ele><time>2026-04-30T08:42:39.874Z</time></trkpt><trkpt lat="40.46304202620781" lon="9.773119438253534"><ele>33.0</ele><time>2026-04-30T08:42:40.874Z</time></trkpt><trkpt lat="40.46278471796301" lon="9.773094722842764"><ele>32.0</ele><time>2026-04-30T08:42:41.874Z</time></trkpt><trkpt lat="40.46252485395657" lon="9.773071971030015"><ele>31.0</ele><time>2026-04-30T08:42:42.874Z</time></trkpt><trkpt lat="40.46225941794295" lon="9.773016188409477"><ele>31.5</ele><time>2026-04-30T08:42:43.874Z</time></trkpt><trkpt lat="40.461991767446385" lon="9.772920320342818"><ele>32.0</ele><time>2026-04-30T08:42:44.874Z</time></trkpt><trkpt lat="40.461715552128" lon="9.772790244806606"><ele>29.5</ele><time>2026-04-30T08:42:45.874Z</time></trkpt><trkpt lat="40.461435097201054" lon="9.77266543741075"><ele>27.0</ele><time>2026-04-30T08:42:46.874Z</time></trkpt><trkpt lat="40.46113834205427" lon="9.77254211102614"><ele>27.0</ele><time>2026-04-30T08:42:47.874Z</time></trkpt><trkpt lat="40.46083730318291" lon="9.772414966825757"><ele>27.0</ele><time>2026-04-30T08:42:48.874Z</time></trkpt><trkpt lat="40.46053556555127" lon="9.77229476637981"><ele>28.5</ele><time>2026-04-30T08:42:49.874Z</time></trkpt><trkpt lat="40.460231859405994" lon="9.772176773678549"><ele>30.0</ele><time>2026-04-30T08:42:50.874Z</time></trkpt><trkpt lat="40.45992926272603" lon="9.772054155966773"><ele>30.0</ele><time>2026-04-30T08:42:51.874Z</time></trkpt><trkpt lat="40.45963081531343" lon="9.77192927020036"><ele>30.0</ele><time>2026-04-30T08:42:52.874Z</time></trkpt><trkpt lat="40.45933903464907" lon="9.771805650705664"><ele>28.5</ele><time>2026-04-30T08:42:53.873Z</time></trkpt><trkpt lat="40.45905964624409" lon="9.77169860050808"><ele>27.0</ele><time>2026-04-30T08:42:54.873Z</time></trkpt><trkpt lat="40.4587934620544" lon="9.771595971352774"><ele>25.5</ele><time>2026-04-30T08:42:55.873Z</time></trkpt><trkpt lat="40.45855565705629" lon="9.771503013382576"><ele>24.0</ele><time>2026-04-30T08:42:56.873Z</time></trkpt><trkpt lat="40.45834258796929" lon="9.771423100879659"><ele>24.0</ele><time>2026-04-30T08:42:57.873Z</time></trkpt><trkpt lat="40.458145321462084" lon="9.77133962074811"><ele>24.0</ele><time>2026-04-30T08:42:58.873Z</time></trkpt><trkpt lat="40.457942253922475" lon="9.771327015535247"><ele>24.0</ele><time>2026-04-30T08:42:59.873Z</time></trkpt><trkpt lat="40.457713760969064" lon="9.771340372970819"><ele>25.5</ele><time>2026-04-30T08:43:00.873Z</time></trkpt><trkpt lat="40.457459605927546" lon="9.771429814683962"><ele>27.0</ele><time>2026-04-30T08:43:01.873Z</time></trkpt><trkpt lat="40.457192426966685" lon="9.771571207276963"><ele>28.0</ele><time>2026-04-30T08:43:02.873Z</time></trkpt><trkpt lat="40.456906068229806" lon="9.771715130607516"><ele>29.0</ele><time>2026-04-30T08:43:03.873Z</time></trkpt><trkpt lat="40.45662238762589" lon="9.771842314395393"><ele>29.0</ele><time>2026-04-30T08:43:04.873Z</time></trkpt><trkpt lat="40.45637087553233" lon="9.771952159124009"><ele>29.0</ele><time>2026-04-30T08:43:05.873Z</time></trkpt><trkpt lat="40.45616078504746" lon="9.772025046244524"><ele>29.333333333333332</ele><time>2026-04-30T08:43:06.873Z</time></trkpt><trkpt lat="40.4559944118563" lon="9.772067179481452"><ele>29.666666666666664</ele><time>2026-04-30T08:43:07.873Z</time></trkpt><trkpt lat="40.45585306761368" lon="9.772070214009183"><ele>30.0</ele><time>2026-04-30T08:43:08.873Z</time></trkpt><trkpt lat="40.45571631593242" lon="9.771969906946735"><ele>30.333333333333336</ele><time>2026-04-30T08:43:09.873Z</time></trkpt><trkpt lat="40.45559253924637" lon="9.771810780356855"><ele>30.666666666666668</ele><time>2026-04-30T08:43:10.873Z</time></trkpt><trkpt lat="40.455488071584625" lon="9.771621384364241"><ele>31.0</ele><time>2026-04-30T08:43:11.873Z</time></trkpt><trkpt lat="40.45534837462034" lon="9.77149344695783"><ele>31.333333333333336</ele><time>2026-04-30T08:43:12.873Z</time></trkpt><trkpt lat="40.45517578534848" lon="9.771423649644385"><ele>31.666666666666664</ele><time>2026-04-30T08:43:13.873Z</time></trkpt><trkpt lat="40.45497906384052" lon="9.771447960131942"><ele>32.0</ele><time>2026-04-30T08:43:14.873Z</time></trkpt><trkpt lat="40.454746763661205" lon="9.771525484238529"><ele>30.5</ele><time>2026-04-30T08:43:15.873Z</time></trkpt><trkpt lat="40.454513784103895" lon="9.771584336935986"><ele>29.0</ele><time>2026-04-30T08:43:16.873Z</time></trkpt><trkpt lat="40.454292866298935" lon="9.771594903818356"><ele>29.0</ele><time>2026-04-30T08:43:17.873Z</time></trkpt><trkpt lat="40.45408557990042" lon="9.771561436572222"><ele>29.0</ele><time>2026-04-30T08:43:18.873Z</time></trkpt><trkpt lat="40.453866693468214" lon="9.771463301883472"><ele>29.0</ele><time>2026-04-30T08:43:19.873Z</time></trkpt><trkpt lat="40.453626122161936" lon="9.771347829313289"><ele>27.0</ele><time>2026-04-30T08:43:20.873Z</time></trkpt><trkpt lat="40.45336772032082" lon="9.771236505617091"><ele>25.0</ele><time>2026-04-30T08:43:21.873Z</time></trkpt><trkpt lat="40.453094653621555" lon="9.771120130945379"><ele>23.0</ele><time>2026-04-30T08:43:22.873Z</time></trkpt><trkpt lat="40.45280731744158" lon="9.770998701609216"><ele>21.0</ele><time>2026-04-30T08:43:23.873Z</time></trkpt><trkpt lat="40.45250845093244" lon="9.770871511803692"><ele>21.0</ele><time>2026-04-30T08:43:24.873Z</time></trkpt><trkpt lat="40.4522027802753" lon="9.770745497569493"><ele>21.0</ele><time>2026-04-30T08:43:25.873Z</time></trkpt><trkpt lat="40.45189484706619" lon="9.77061477337987"><ele>20.5</ele><time>2026-04-30T08:43:26.873Z</time></trkpt><trkpt lat="40.451608827793805" lon="9.77049890972449"><ele>20.0</ele><time>2026-04-30T08:43:27.873Z</time></trkpt><trkpt lat="40.45134141489494" lon="9.770381611530423"><ele>20.0</ele><time>2026-04-30T08:43:28.873Z</time></trkpt><trkpt lat="40.4510801270436" lon="9.770268725232361"><ele>20.0</ele><time>2026-04-30T08:43:29.873Z</time></trkpt><trkpt lat="40.450820371626506" lon="9.770154347003354"><ele>21.0</ele><time>2026-04-30T08:43:30.873Z</time></trkpt><trkpt lat="40.45055734491393" lon="9.770043689995312"><ele>22.0</ele><time>2026-04-30T08:43:31.873Z</time></trkpt><trkpt lat="40.45029045516014" lon="9.7699333846252"><ele>22.0</ele><time>2026-04-30T08:43:32.874Z</time></trkpt><trkpt lat="40.4500234062288" lon="9.76982723008518"><ele>22.0</ele><time>2026-04-30T08:43:33.873Z</time></trkpt><trkpt lat="40.44974765637858" lon="9.769713202761698"><ele>21.5</ele><time>2026-04-30T08:43:34.873Z</time></trkpt><trkpt lat="40.44947267426571" lon="9.769598952028195"><ele>21.0</ele><time>2026-04-30T08:43:35.874Z</time></trkpt><trkpt lat="40.44919417040792" lon="9.769487226124085"><ele>21.0</ele><time>2026-04-30T08:43:36.873Z</time></trkpt><trkpt lat="40.44891802132293" lon="9.769368144401382"><ele>21.0</ele><time>2026-04-30T08:43:37.873Z</time></trkpt><trkpt lat="40.44863761184838" lon="9.769248392207556"><ele>21.0</ele><time>2026-04-30T08:43:38.874Z</time></trkpt><trkpt lat="40.448357931491906" lon="9.769127453577385"><ele>21.0</ele><time>2026-04-30T08:43:39.874Z</time></trkpt><trkpt lat="40.44807507151516" lon="9.769008880079413"><ele>21.0</ele><time>2026-04-30T08:43:40.873Z</time></trkpt><trkpt lat="40.447789934447336" lon="9.76889050247896"><ele>21.0</ele><time>2026-04-30T08:43:41.874Z</time></trkpt><trkpt lat="40.447508714572294" lon="9.768771325185146"><ele>21.0</ele><time>2026-04-30T08:43:42.873Z</time></trkpt><trkpt lat="40.44722700812228" lon="9.768651159614341"><ele>21.0</ele><time>2026-04-30T08:43:43.873Z</time></trkpt><trkpt lat="40.44694702824078" lon="9.768530521816487"><ele>21.5</ele><time>2026-04-30T08:43:44.873Z</time></trkpt><trkpt lat="40.4466670826227" lon="9.768410882915003"><ele>22.0</ele><time>2026-04-30T08:43:45.873Z</time></trkpt><trkpt lat="40.4463822487014" lon="9.76829231490748"><ele>23.0</ele><time>2026-04-30T08:43:46.873Z</time></trkpt><trkpt lat="40.44610269466147" lon="9.768173615970378"><ele>24.0</ele><time>2026-04-30T08:43:47.873Z</time></trkpt><trkpt lat="40.44582852025408" lon="9.768059973464961"><ele>24.0</ele><time>2026-04-30T08:43:48.873Z</time></trkpt><trkpt lat="40.44555678500533" lon="9.767949317432311"><ele>24.0</ele><time>2026-04-30T08:43:49.873Z</time></trkpt><trkpt lat="40.44528708579979" lon="9.767841457512457"><ele>24.0</ele><time>2026-04-30T08:43:50.873Z</time></trkpt><trkpt lat="40.44502282446232" lon="9.76773653066091"><ele>24.0</ele><time>2026-04-30T08:43:51.873Z</time></trkpt><trkpt lat="40.44476028748315" lon="9.767637888832763"><ele>25.0</ele><time>2026-04-30T08:43:52.873Z</time></trkpt><trkpt lat="40.44448856295869" lon="9.767533819257848"><ele>26.0</ele><time>2026-04-30T08:43:53.873Z</time></trkpt><trkpt lat="40.44420089198881" lon="9.767425083054082"><ele>26.0</ele><time>2026-04-30T08:43:54.873Z</time></trkpt><trkpt lat="40.443912159491546" lon="9.767320927091498"><ele>26.0</ele><time>2026-04-30T08:43:55.873Z</time></trkpt><trkpt lat="40.44362948363859" lon="9.767217287299536"><ele>23.5</ele><time>2026-04-30T08:43:56.873Z</time></trkpt><trkpt lat="40.44335978462255" lon="9.767111517219712"><ele>21.0</ele><time>2026-04-30T08:43:57.873Z</time></trkpt><trkpt lat="40.443089619300274" lon="9.76701466375704"><ele>20.5</ele><time>2026-04-30T08:43:58.873Z</time></trkpt><trkpt lat="40.44282189676782" lon="9.766916973029073"><ele>20.0</ele><time>2026-04-30T08:43:59.873Z</time></trkpt><trkpt lat="40.44256449191759" lon="9.766824318721476"><ele>20.0</ele><time>2026-04-30T08:44:00.873Z</time></trkpt><trkpt lat="40.442315161524796" lon="9.766730932938827"><ele>20.0</ele><time>2026-04-30T08:44:01.873Z</time></trkpt><trkpt lat="40.442081595211945" lon="9.766638645626104"><ele>18.5</ele><time>2026-04-30T08:44:02.873Z</time></trkpt><trkpt lat="40.44185483692803" lon="9.766556794856488"><ele>17.0</ele><time>2026-04-30T08:44:03.873Z</time></trkpt><trkpt lat="40.44163588670044" lon="9.766476052014905"><ele>17.0</ele><time>2026-04-30T08:44:04.873Z</time></trkpt><trkpt lat="40.441421897533424" lon="9.766396849914273"><ele>17.0</ele><time>2026-04-30T08:44:05.873Z</time></trkpt><trkpt lat="40.44121927469781" lon="9.766317828193792"><ele>17.0</ele><time>2026-04-30T08:44:06.873Z</time></trkpt><trkpt lat="40.44102374079681" lon="9.766245990189358"><ele>16.0</ele><time>2026-04-30T08:44:07.872Z</time></trkpt><trkpt lat="40.44085349389548" lon="9.766181210453325"><ele>15.0</ele><time>2026-04-30T08:44:08.872Z</time></trkpt><trkpt lat="40.4406943940518" lon="9.766124125546328"><ele>14.0</ele><time>2026-04-30T08:44:09.872Z</time></trkpt><trkpt lat="40.4405448522095" lon="9.766068901987158"><ele>14.25</ele><time>2026-04-30T08:44:10.872Z</time></trkpt><trkpt lat="40.44040699861346" lon="9.766016819031712"><ele>14.5</ele><time>2026-04-30T08:44:11.872Z</time></trkpt><trkpt lat="40.44027880929776" lon="9.765970737156415"><ele>14.75</ele><time>2026-04-30T08:44:12.872Z</time></trkpt><trkpt lat="40.44015668613949" lon="9.7659259260067"><ele>15.0</ele><time>2026-04-30T08:44:13.872Z</time></trkpt><trkpt lat="40.44003043354286" lon="9.765870135310493"><ele>15.0</ele><time>2026-04-30T08:44:14.872Z</time></trkpt><trkpt lat="40.439892840292416" lon="9.76582431060139"><ele>15.0</ele><time>2026-04-30T08:44:15.872Z</time></trkpt><trkpt lat="40.43976283190251" lon="9.765774759534287"><ele>15.0</ele><time>2026-04-30T08:44:16.872Z</time></trkpt><trkpt lat="40.43963807660918" lon="9.765727750949578"><ele>15.0</ele><time>2026-04-30T08:44:17.872Z</time></trkpt><trkpt lat="40.439524194467054" lon="9.76568321085695"><ele>14.25</ele><time>2026-04-30T08:44:18.872Z</time></trkpt><trkpt lat="40.43941208777172" lon="9.765640418192232"><ele>13.5</ele><time>2026-04-30T08:44:19.872Z</time></trkpt><trkpt lat="40.4393012357512" lon="9.76560278558027"><ele>12.75</ele><time>2026-04-30T08:44:20.872Z</time></trkpt><trkpt lat="40.43919373444562" lon="9.765567499707526"><ele>12.0</ele><time>2026-04-30T08:44:21.872Z</time></trkpt><trkpt lat="40.439090525429265" lon="9.765524259833454"><ele>12.0</ele><time>2026-04-30T08:44:22.872Z</time></trkpt><trkpt lat="40.43899003697717" lon="9.765480281537613"><ele>12.0</ele><time>2026-04-30T08:44:23.872Z</time></trkpt><trkpt lat="40.43890055885557" lon="9.765431560924904"><ele>12.0</ele><time>2026-04-30T08:44:24.872Z</time></trkpt><trkpt lat="40.43882148510837" lon="9.765377994537095"><ele>12.0</ele><time>2026-04-30T08:44:25.872Z</time></trkpt><trkpt lat="40.438747338870584" lon="9.765324851275327"><ele>12.0</ele><time>2026-04-30T08:44:26.872Z</time></trkpt><trkpt lat="40.43867279883567" lon="9.7652729349683"><ele>11.666666666666666</ele><time>2026-04-30T08:44:27.872Z</time></trkpt><trkpt lat="40.438608766702785" lon="9.76522638985321"><ele>11.333333333333334</ele><time>2026-04-30T08:44:28.872Z</time></trkpt><trkpt lat="40.4385080372933" lon="9.76516069092285"><ele>11.0</ele><time>2026-04-30T08:44:30.872Z</time></trkpt><trkpt lat="40.438415312424326" lon="9.765104197856862"><ele>10.666666666666668</ele><time>2026-04-30T08:44:32.872Z</time></trkpt><trkpt lat="40.43834126061299" lon="9.765049863145174"><ele>10.333333333333334</ele><time>2026-04-30T08:44:34.872Z</time></trkpt><trkpt lat="40.438321013843186" lon="9.76496417485115"><ele>10.0</ele><time>2026-04-30T08:44:37.872Z</time></trkpt><trkpt lat="40.43839550650793" lon="9.764817264732985"><ele>9.5</ele><time>2026-04-30T08:44:42.872Z</time></trkpt><trkpt lat="40.43845639381854" lon="9.764748772159606"><ele>9.0</ele><time>2026-04-30T08:44:45.872Z</time></trkpt><trkpt lat="40.438509088175856" lon="9.764683370876284"><ele>8.5</ele><time>2026-04-30T08:44:47.872Z</time></trkpt><trkpt lat="40.438558660360535" lon="9.76462322928552"><ele>8.0</ele><time>2026-04-30T08:44:49.872Z</time></trkpt><trkpt lat="40.43862632717441" lon="9.764548562240613"><ele>7.500000000000001</ele><time>2026-04-30T08:44:52.872Z</time></trkpt><trkpt lat="40.438679100244336" lon="9.764478255135328"><ele>7.0</ele><time>2026-04-30T08:44:55.872Z</time></trkpt><trkpt lat="40.438611562598915" lon="9.764538625444724"><ele>7.0</ele><time>2026-04-30T08:44:59.871Z</time></trkpt><trkpt lat="40.43851162644817" lon="9.764639304540834"><ele>6.999999999999999</ele><time>2026-04-30T08:45:01.871Z</time></trkpt><trkpt lat="40.438429496484005" lon="9.764742048796927"><ele>6.999999999999999</ele><time>2026-04-30T08:45:03.871Z</time></trkpt><trkpt lat="40.438368170345555" lon="9.76484048833101"><ele>7.0</ele><time>2026-04-30T08:45:05.871Z</time></trkpt><trkpt lat="40.4383246258465" lon="9.764910591148459"><ele>7.0</ele><time>2026-04-30T08:45:07.871Z</time></trkpt><trkpt lat="40.43824437712033" lon="9.764928566907141"><ele>7.0</ele><time>2026-04-30T08:45:10.871Z</time></trkpt><trkpt lat="40.43818017246307" lon="9.764892504632838"><ele>7.0</ele><time>2026-04-30T08:45:14.871Z</time></trkpt><trkpt lat="40.438129592849506" lon="9.764834335337817"><ele>7.0</ele><time>2026-04-30T08:45:18.871Z</time></trkpt><trkpt lat="40.43806563689149" lon="9.76479212276595"><ele>7.0</ele><time>2026-04-30T08:45:59.872Z</time></trkpt><trkpt lat="40.43803536033124" lon="9.764866170464542"><ele>7.0</ele><time>2026-04-30T08:46:09.872Z</time></trkpt><trkpt lat="40.438004858911924" lon="9.764963684507658"><ele>7.0</ele><time>2026-04-30T08:46:11.872Z</time></trkpt><trkpt lat="40.43804193998601" lon="9.765040246496264"><ele>7.0</ele><time>2026-04-30T08:50:21.869Z</time></trkpt><trkpt lat="40.43815212370431" lon="9.764959753984751"><ele>7.0</ele><time>2026-04-30T08:50:40.869Z</time></trkpt><trkpt lat="40.438214436293435" lon="9.764984059990692"><ele>7.0</ele><time>2026-04-30T08:50:46.869Z</time></trkpt><trkpt lat="40.43827549619579" lon="9.76494871571653"><ele>7.0</ele><time>2026-04-30T08:50:52.869Z</time></trkpt><trkpt lat="40.43831748186094" lon="9.76501469809333"><ele>7.0</ele><time>2026-04-30T08:50:57.869Z</time></trkpt><trkpt lat="40.43836951829415" lon="9.765077690662425"><ele>7.0</ele><time>2026-04-30T08:51:03.868Z</time></trkpt><trkpt lat="40.43841732619011" lon="9.765006814232063"><ele>7.0</ele><time>2026-04-30T08:51:12.868Z</time></trkpt><trkpt lat="40.43845493174273" lon="9.764939124058364"><ele>7.0</ele><time>2026-04-30T08:51:20.868Z</time></trkpt><trkpt lat="40.4383964095317" lon="9.765030342764833"><ele>7.0</ele><time>2026-04-30T09:00:04.861Z</time></trkpt><trkpt lat="40.43833372423472" lon="9.764991285500766"><ele>7.0</ele><time>2026-04-30T09:15:05.845Z</time></trkpt><trkpt lat="40.438270925399976" lon="9.764955669097489"><ele>7.0</ele><time>2026-04-30T09:15:10.845Z</time></trkpt><trkpt lat="40.43820509876097" lon="9.764926292378389"><ele>7.0</ele><time>2026-04-30T09:15:17.845Z</time></trkpt><trkpt lat="40.438134852793915" lon="9.764936956599728"><ele>7.0</ele><time>2026-04-30T09:15:22.845Z</time></trkpt><trkpt lat="40.438060829429325" lon="9.764963842380759"><ele>7.0</ele><time>2026-04-30T09:15:28.845Z</time></trkpt><trkpt lat="40.43799195909227" lon="9.764980298836505"><ele>7.0</ele><time>2026-04-30T09:15:34.845Z</time></trkpt><trkpt lat="40.43798362171403" lon="9.764896251503206"><ele>6.6</ele><time>2026-04-30T09:20:09.842Z</time></trkpt><trkpt lat="40.437949541904636" lon="9.764825048106006"><ele>6.199999999999999</ele><time>2026-04-30T09:20:13.842Z</time></trkpt><trkpt lat="40.43788410320594" lon="9.764722514100058"><ele>5.8</ele><time>2026-04-30T09:20:16.841Z</time></trkpt><trkpt lat="40.4378013255198" lon="9.76465439150187"><ele>5.4</ele><time>2026-04-30T09:20:17.841Z</time></trkpt><trkpt lat="40.43769294493636" lon="9.764590807898294"><ele>5.0</ele><time>2026-04-30T09:20:18.841Z</time></trkpt><trkpt lat="40.43757112790345" lon="9.764514588161449"><ele>5.0</ele><time>2026-04-30T09:20:19.841Z</time></trkpt><trkpt lat="40.437445114736256" lon="9.764425339829106"><ele>5.0</ele><time>2026-04-30T09:20:20.841Z</time></trkpt><trkpt lat="40.43731691156976" lon="9.764339851235354"><ele>5.0</ele><time>2026-04-30T09:20:21.841Z</time></trkpt><trkpt lat="40.43719712323107" lon="9.76424995979057"><ele>5.0</ele><time>2026-04-30T09:20:22.841Z</time></trkpt><trkpt lat="40.43708155610083" lon="9.764153630156287"><ele>5.2</ele><time>2026-04-30T09:20:23.841Z</time></trkpt><trkpt lat="40.436978219320686" lon="9.764087672241633"><ele>5.4</ele><time>2026-04-30T09:20:24.841Z</time></trkpt><trkpt lat="40.43688003563639" lon="9.764022371237708"><ele>5.6</ele><time>2026-04-30T09:20:25.841Z</time></trkpt><trkpt lat="40.43678198992009" lon="9.763969547521222"><ele>5.8</ele><time>2026-04-30T09:20:26.841Z</time></trkpt><trkpt lat="40.43667585927236" lon="9.763940119797253"><ele>6.0</ele><time>2026-04-30T09:20:27.841Z</time></trkpt><trkpt lat="40.43656643049997" lon="9.763946995294823"><ele>6.0</ele><time>2026-04-30T09:20:28.841Z</time></trkpt><trkpt lat="40.43645259942726" lon="9.764005167307415"><ele>6.0</ele><time>2026-04-30T09:20:29.841Z</time></trkpt><trkpt lat="40.436346956541506" lon="9.764100789026823"><ele>6.0</ele><time>2026-04-30T09:20:30.841Z</time></trkpt><trkpt lat="40.43625765884228" lon="9.764229116750867"><ele>6.0</ele><time>2026-04-30T09:20:31.841Z</time></trkpt><trkpt lat="40.43618009587047" lon="9.764378981506127"><ele>6.5</ele><time>2026-04-30T09:20:32.841Z</time></trkpt><trkpt lat="40.43610306228031" lon="9.764526629994698"><ele>7.0</ele><time>2026-04-30T09:20:33.841Z</time></trkpt><trkpt lat="40.436029560910676" lon="9.76466069374472"><ele>7.5</ele><time>2026-04-30T09:20:34.841Z</time></trkpt><trkpt lat="40.43595727542827" lon="9.764790791486432"><ele>8.0</ele><time>2026-04-30T09:20:35.841Z</time></trkpt><trkpt lat="40.43588598921838" lon="9.764915396883344"><ele>8.0</ele><time>2026-04-30T09:20:36.841Z</time></trkpt><trkpt lat="40.43581779130205" lon="9.765022163111762"><ele>8.0</ele><time>2026-04-30T09:20:37.841Z</time></trkpt><trkpt lat="40.435744894223156" lon="9.765102226200685"><ele>8.0</ele><time>2026-04-30T09:20:38.841Z</time></trkpt><trkpt lat="40.43565421493221" lon="9.765152375026075"><ele>8.0</ele><time>2026-04-30T09:20:39.841Z</time></trkpt><trkpt lat="40.43554435129105" lon="9.76515936402801"><ele>8.0</ele><time>2026-04-30T09:20:40.841Z</time></trkpt><trkpt lat="40.435431336849526" lon="9.765129317129725"><ele>8.5</ele><time>2026-04-30T09:20:41.841Z</time></trkpt><trkpt lat="40.435320862688904" lon="9.765071670884376"><ele>9.0</ele><time>2026-04-30T09:20:42.841Z</time></trkpt><trkpt lat="40.43520668991387" lon="9.765008933357866"><ele>9.5</ele><time>2026-04-30T09:20:43.841Z</time></trkpt><trkpt lat="40.43508556219869" lon="9.764951733185878"><ele>10.0</ele><time>2026-04-30T09:20:44.841Z</time></trkpt><trkpt lat="40.43495824885347" lon="9.764895701336247"><ele>10.0</ele><time>2026-04-30T09:20:45.841Z</time></trkpt><trkpt lat="40.43481924193598" lon="9.764850007700526"><ele>10.0</ele><time>2026-04-30T09:20:46.841Z</time></trkpt><trkpt lat="40.43466485716158" lon="9.764831387712864"><ele>10.0</ele><time>2026-04-30T09:20:47.841Z</time></trkpt><trkpt lat="40.434506799131334" lon="9.76483365039202"><ele>10.333333333333334</ele><time>2026-04-30T09:20:48.841Z</time></trkpt><trkpt lat="40.43433508330288" lon="9.76485275336603"><ele>10.666666666666666</ele><time>2026-04-30T09:20:49.841Z</time></trkpt><trkpt lat="40.43414892236911" lon="9.764910505762323"><ele>11.0</ele><time>2026-04-30T09:20:50.841Z</time></trkpt><trkpt lat="40.43393112220862" lon="9.765006702577178"><ele>10.5</ele><time>2026-04-30T09:20:51.841Z</time></trkpt><trkpt lat="40.433688652334276" lon="9.765114815765374"><ele>10.0</ele><time>2026-04-30T09:20:52.841Z</time></trkpt><trkpt lat="40.43342074878223" lon="9.765225479299614"><ele>10.0</ele><time>2026-04-30T09:20:53.841Z</time></trkpt><trkpt lat="40.43315237356911" lon="9.76534021140632"><ele>10.0</ele><time>2026-04-30T09:20:54.841Z</time></trkpt><trkpt lat="40.43288596543419" lon="9.765455411201755"><ele>11.5</ele><time>2026-04-30T09:20:55.841Z</time></trkpt><trkpt lat="40.43263527652612" lon="9.765572295847978"><ele>13.0</ele><time>2026-04-30T09:20:56.841Z</time></trkpt><trkpt lat="40.4323676183783" lon="9.765699072013584"><ele>13.0</ele><time>2026-04-30T09:20:57.841Z</time></trkpt><trkpt lat="40.43211424454286" lon="9.765809704327042"><ele>13.0</ele><time>2026-04-30T09:20:58.841Z</time></trkpt><trkpt lat="40.43187762908883" lon="9.765919115623895"><ele>13.0</ele><time>2026-04-30T09:20:59.841Z</time></trkpt><trkpt lat="40.431670122248576" lon="9.766022164954634"><ele>13.0</ele><time>2026-04-30T09:21:00.841Z</time></trkpt><trkpt lat="40.431483853025235" lon="9.766138607271053"><ele>13.0</ele><time>2026-04-30T09:21:01.841Z</time></trkpt><trkpt lat="40.43130231516461" lon="9.76631932394224"><ele>16.5</ele><time>2026-04-30T09:21:02.84Z</time></trkpt><trkpt lat="40.43112584842332" lon="9.766556883964169"><ele>20.0</ele><time>2026-04-30T09:21:03.84Z</time></trkpt><trkpt lat="40.430925011077484" lon="9.766785731285266"><ele>15.5</ele><time>2026-04-30T09:21:04.84Z</time></trkpt><trkpt lat="40.43071145261969" lon="9.766986776140227"><ele>11.0</ele><time>2026-04-30T09:21:05.84Z</time></trkpt><trkpt lat="40.430507116591244" lon="9.767184430765775"><ele>16.5</ele><time>2026-04-30T09:21:06.84Z</time></trkpt><trkpt lat="40.430297541317" lon="9.767364062889829"><ele>22.0</ele><time>2026-04-30T09:21:07.84Z</time></trkpt><trkpt lat="40.43007941089658" lon="9.76751849048374"><ele>22.0</ele><time>2026-04-30T09:21:08.84Z</time></trkpt><trkpt lat="40.429851016251156" lon="9.767643216426944"><ele>22.0</ele><time>2026-04-30T09:21:09.84Z</time></trkpt><trkpt lat="40.42963649789479" lon="9.767751273537185"><ele>22.5</ele><time>2026-04-30T09:21:10.84Z</time></trkpt><trkpt lat="40.429417990576354" lon="9.767835103724291"><ele>23.0</ele><time>2026-04-30T09:21:11.84Z</time></trkpt><trkpt lat="40.4291836563315" lon="9.767871592591801"><ele>23.0</ele><time>2026-04-30T09:21:12.84Z</time></trkpt><trkpt lat="40.42893800287436" lon="9.767877127821613"><ele>23.0</ele><time>2026-04-30T09:21:13.84Z</time></trkpt><trkpt lat="40.428678101416125" lon="9.767834429906348"><ele>24.333333333333336</ele><time>2026-04-30T09:21:14.84Z</time></trkpt><trkpt lat="40.42843482733199" lon="9.767811804134242"><ele>25.666666666666668</ele><time>2026-04-30T09:21:15.84Z</time></trkpt><trkpt lat="40.428233309472276" lon="9.767789927806128"><ele>27.0</ele><time>2026-04-30T09:21:16.84Z</time></trkpt><trkpt lat="40.42805840516635" lon="9.76779599533482"><ele>30.0</ele><time>2026-04-30T09:21:17.84Z</time></trkpt><trkpt lat="40.427866777189756" lon="9.767867405622274"><ele>33.0</ele><time>2026-04-30T09:21:18.84Z</time></trkpt><trkpt lat="40.42765899239856" lon="9.768022918756953"><ele>36.0</ele><time>2026-04-30T09:21:19.84Z</time></trkpt><trkpt lat="40.42749186533428" lon="9.768170312860095"><ele>36.0</ele><time>2026-04-30T09:21:20.84Z</time></trkpt><trkpt lat="40.42737301823858" lon="9.768328673956123"><ele>36.0</ele><time>2026-04-30T09:21:21.84Z</time></trkpt><trkpt lat="40.42727832072861" lon="9.768481156749253"><ele>36.0</ele><time>2026-04-30T09:21:22.84Z</time></trkpt><trkpt lat="40.42719436101056" lon="9.768583159413764"><ele>36.0</ele><time>2026-04-30T09:21:23.84Z</time></trkpt><trkpt lat="40.427085542758796" lon="9.768582284206019"><ele>37.0</ele><time>2026-04-30T09:21:24.84Z</time></trkpt><trkpt lat="40.42696690186374" lon="9.768500368847267"><ele>38.0</ele><time>2026-04-30T09:21:25.84Z</time></trkpt><trkpt lat="40.426819433761985" lon="9.768381721752398"><ele>39.0</ele><time>2026-04-30T09:21:26.84Z</time></trkpt><trkpt lat="40.42663685008258" lon="9.76823064947512"><ele>39.0</ele><time>2026-04-30T09:21:27.84Z</time></trkpt><trkpt lat="40.42641984767797" lon="9.76807107076916"><ele>39.0</ele><time>2026-04-30T09:21:28.84Z</time></trkpt><trkpt lat="40.42622087382768" lon="9.76788784620857"><ele>40.5</ele><time>2026-04-30T09:21:29.84Z</time></trkpt><trkpt lat="40.42603629362026" lon="9.767699890585902"><ele>42.0</ele><time>2026-04-30T09:21:30.84Z</time></trkpt><trkpt lat="40.42587747830684" lon="9.76744468461457"><ele>42.5</ele><time>2026-04-30T09:21:31.84Z</time></trkpt><trkpt lat="40.42569194248824" lon="9.767164105573496"><ele>43.0</ele><time>2026-04-30T09:21:32.84Z</time></trkpt><trkpt lat="40.42548491000014" lon="9.766881310539123"><ele>43.0</ele><time>2026-04-30T09:21:33.84Z</time></trkpt><trkpt lat="40.425291264012024" lon="9.766577969578748"><ele>43.0</ele><time>2026-04-30T09:21:34.84Z</time></trkpt><trkpt lat="40.425093137070284" lon="9.766268808943503"><ele>43.0</ele><time>2026-04-30T09:21:35.84Z</time></trkpt><trkpt lat="40.42489704058784" lon="9.765977058271469"><ele>43.0</ele><time>2026-04-30T09:21:36.84Z</time></trkpt><trkpt lat="40.424705594175705" lon="9.765687448682561"><ele>44.0</ele><time>2026-04-30T09:21:37.84Z</time></trkpt><trkpt lat="40.42451450095581" lon="9.765399467134822"><ele>45.0</ele><time>2026-04-30T09:21:38.84Z</time></trkpt><trkpt lat="40.42432578490444" lon="9.765110836533287"><ele>45.0</ele><time>2026-04-30T09:21:39.84Z</time></trkpt><trkpt lat="40.42413839371961" lon="9.764820942890877"><ele>45.0</ele><time>2026-04-30T09:21:40.84Z</time></trkpt><trkpt lat="40.42394774826688" lon="9.764532556013622"><ele>46.5</ele><time>2026-04-30T09:21:41.84Z</time></trkpt><trkpt lat="40.4237616959358" lon="9.76424459741069"><ele>48.0</ele><time>2026-04-30T09:21:42.84Z</time></trkpt><trkpt lat="40.42357270018904" lon="9.76395561365316"><ele>48.0</ele><time>2026-04-30T09:21:43.84Z</time></trkpt><trkpt lat="40.42338124570596" lon="9.763667130101565"><ele>48.0</ele><time>2026-04-30T09:21:44.84Z</time></trkpt><trkpt lat="40.4231937917223" lon="9.763379392439719"><ele>48.0</ele><time>2026-04-30T09:21:45.84Z</time></trkpt><trkpt lat="40.4230107203319" lon="9.763097880266903"><ele>48.0</ele><time>2026-04-30T09:21:46.84Z</time></trkpt><trkpt lat="40.42285348518184" lon="9.762847318624496"><ele>48.66666666666667</ele><time>2026-04-30T09:21:47.84Z</time></trkpt><trkpt lat="40.42271743087209" lon="9.762620034028927"><ele>49.333333333333336</ele><time>2026-04-30T09:21:48.84Z</time></trkpt><trkpt lat="40.42260151252692" lon="9.762376820077662"><ele>50.0</ele><time>2026-04-30T09:21:49.84Z</time></trkpt><trkpt lat="40.4225092481788" lon="9.76210014495978"><ele>50.0</ele><time>2026-04-30T09:21:50.84Z</time></trkpt><trkpt lat="40.42245598290004" lon="9.761795530260054"><ele>50.0</ele><time>2026-04-30T09:21:51.84Z</time></trkpt><trkpt lat="40.42243830934664" lon="9.761457705430088"><ele>50.0</ele><time>2026-04-30T09:21:52.84Z</time></trkpt><trkpt lat="40.422435006840495" lon="9.761052780135905"><ele>50.0</ele><time>2026-04-30T09:21:53.84Z</time></trkpt><trkpt lat="40.42243164954707" lon="9.760605429974756"><ele>49.0</ele><time>2026-04-30T09:21:54.84Z</time></trkpt><trkpt lat="40.42242620355733" lon="9.760131522586985"><ele>48.0</ele><time>2026-04-30T09:21:55.839Z</time></trkpt><trkpt lat="40.422412578185565" lon="9.759636924291241"><ele>48.5</ele><time>2026-04-30T09:21:56.84Z</time></trkpt><trkpt lat="40.42239625582845" lon="9.759125841861515"><ele>49.0</ele><time>2026-04-30T09:21:57.84Z</time></trkpt><trkpt lat="40.42238195467141" lon="9.758625352068458"><ele>49.0</ele><time>2026-04-30T09:21:58.84Z</time></trkpt><trkpt lat="40.42237173071381" lon="9.758171375855776"><ele>49.0</ele><time>2026-04-30T09:21:59.84Z</time></trkpt><trkpt lat="40.422364785125936" lon="9.757755068369313"><ele>49.0</ele><time>2026-04-30T09:22:00.84Z</time></trkpt><trkpt lat="40.42235933121848" lon="9.757362009155045"><ele>49.0</ele><time>2026-04-30T09:22:01.84Z</time></trkpt><trkpt lat="40.42234781965903" lon="9.756971101290773"><ele>50.0</ele><time>2026-04-30T09:22:02.84Z</time></trkpt><trkpt lat="40.42233756938944" lon="9.75657602261147"><ele>51.0</ele><time>2026-04-30T09:22:03.84Z</time></trkpt><trkpt lat="40.42232775310396" lon="9.756178960050919"><ele>51.0</ele><time>2026-04-30T09:22:04.84Z</time></trkpt><trkpt lat="40.422315336187246" lon="9.755795685117787"><ele>51.0</ele><time>2026-04-30T09:22:05.84Z</time></trkpt><trkpt lat="40.42230483807605" lon="9.75542851067812"><ele>52.0</ele><time>2026-04-30T09:22:06.84Z</time></trkpt><trkpt lat="40.42229910176343" lon="9.755093374591658"><ele>53.0</ele><time>2026-04-30T09:22:07.84Z</time></trkpt><trkpt lat="40.422294415856264" lon="9.75481104339857"><ele>53.0</ele><time>2026-04-30T09:22:08.84Z</time></trkpt><trkpt lat="40.422279473036575" lon="9.754535669280912"><ele>53.0</ele><time>2026-04-30T09:22:09.84Z</time></trkpt><trkpt lat="40.422263925629764" lon="9.75421248693229"><ele>54.5</ele><time>2026-04-30T09:22:10.84Z</time></trkpt><trkpt lat="40.42226091985037" lon="9.75386924419199"><ele>56.0</ele><time>2026-04-30T09:22:11.84Z</time></trkpt><trkpt lat="40.422271556572106" lon="9.753535088535916"><ele>56.0</ele><time>2026-04-30T09:22:12.84Z</time></trkpt><trkpt lat="40.422274567786204" lon="9.753202476318735"><ele>56.0</ele><time>2026-04-30T09:22:13.84Z</time></trkpt><trkpt lat="40.42225907416496" lon="9.7528771637176"><ele>56.5</ele><time>2026-04-30T09:22:14.84Z</time></trkpt><trkpt lat="40.42224541552584" lon="9.752566771374445"><ele>57.0</ele><time>2026-04-30T09:22:15.84Z</time></trkpt><trkpt lat="40.42222458679141" lon="9.752265252759537"><ele>57.0</ele><time>2026-04-30T09:22:16.84Z</time></trkpt><trkpt lat="40.42218868697405" lon="9.75197399566635"><ele>57.0</ele><time>2026-04-30T09:22:17.84Z</time></trkpt><trkpt lat="40.4221344439873" lon="9.751690612210218"><ele>57.0</ele><time>2026-04-30T09:22:18.84Z</time></trkpt><trkpt lat="40.42206445652051" lon="9.751413516068492"><ele>54.5</ele><time>2026-04-30T09:22:19.84Z</time></trkpt><trkpt lat="40.42196755739998" lon="9.751132746587347"><ele>52.0</ele><time>2026-04-30T09:22:20.84Z</time></trkpt><trkpt lat="40.421845635283354" lon="9.750856056166084"><ele>52.0</ele><time>2026-04-30T09:22:21.84Z</time></trkpt><trkpt lat="40.42172260175927" lon="9.750575788655949"><ele>52.0</ele><time>2026-04-30T09:22:22.84Z</time></trkpt><trkpt lat="40.421601265673274" lon="9.750286701736087"><ele>54.0</ele><time>2026-04-30T09:22:23.84Z</time></trkpt><trkpt lat="40.421493345556556" lon="9.749995187956896"><ele>56.0</ele><time>2026-04-30T09:22:24.839Z</time></trkpt><trkpt lat="40.42141750465981" lon="9.749697140684303"><ele>56.0</ele><time>2026-04-30T09:22:25.839Z</time></trkpt><trkpt lat="40.42136780083857" lon="9.74941353364219"><ele>56.0</ele><time>2026-04-30T09:22:26.839Z</time></trkpt><trkpt lat="40.421332381980825" lon="9.749171375798523"><ele>56.0</ele><time>2026-04-30T09:22:27.839Z</time></trkpt><trkpt lat="40.421319333273814" lon="9.748947258516344"><ele>56.0</ele><time>2026-04-30T09:22:28.839Z</time></trkpt><trkpt lat="40.4213591633351" lon="9.748737942747429"><ele>56.0</ele><time>2026-04-30T09:22:29.839Z</time></trkpt><trkpt lat="40.421424162774876" lon="9.748546274108497"><ele>56.0</ele><time>2026-04-30T09:22:30.839Z</time></trkpt><trkpt lat="40.42146216816355" lon="9.748364664507964"><ele>56.0</ele><time>2026-04-30T09:22:31.839Z</time></trkpt><trkpt lat="40.42145959158989" lon="9.748189189891196"><ele>56.0</ele><time>2026-04-30T09:22:32.839Z</time></trkpt><trkpt lat="40.42140363338281" lon="9.748050071703975"><ele>56.0</ele><time>2026-04-30T09:22:33.839Z</time></trkpt><trkpt lat="40.4213044760964" lon="9.747957821718055"><ele>56.0</ele><time>2026-04-30T09:22:34.839Z</time></trkpt><trkpt lat="40.42115995331097" lon="9.747901499128437"><ele>57.66666666666667</ele><time>2026-04-30T09:22:35.839Z</time></trkpt><trkpt lat="40.42100434232895" lon="9.747851312862197"><ele>59.33333333333333</ele><time>2026-04-30T09:22:36.839Z</time></trkpt><trkpt lat="40.42085116718886" lon="9.7477471348412"><ele>61.0</ele><time>2026-04-30T09:22:37.839Z</time></trkpt><trkpt lat="40.420708583456616" lon="9.747580399704384"><ele>61.0</ele><time>2026-04-30T09:22:38.839Z</time></trkpt><trkpt lat="40.4205847971335" lon="9.747368152603812"><ele>61.0</ele><time>2026-04-30T09:22:39.839Z</time></trkpt><trkpt lat="40.420486833843555" lon="9.747128723657262"><ele>61.0</ele><time>2026-04-30T09:22:40.839Z</time></trkpt><trkpt lat="40.420377002458274" lon="9.746896521176204"><ele>65.5</ele><time>2026-04-30T09:22:41.839Z</time></trkpt><trkpt lat="40.420226317597695" lon="9.74667306291657"><ele>70.0</ele><time>2026-04-30T09:22:42.839Z</time></trkpt><trkpt lat="40.42004891646471" lon="9.746460685774556"><ele>70.0</ele><time>2026-04-30T09:22:43.839Z</time></trkpt><trkpt lat="40.41987104349172" lon="9.746239095463878"><ele>70.0</ele><time>2026-04-30T09:22:44.839Z</time></trkpt><trkpt lat="40.41968784810377" lon="9.74600477074138"><ele>72.0</ele><time>2026-04-30T09:22:45.839Z</time></trkpt><trkpt lat="40.41950579761582" lon="9.745762334446644"><ele>74.0</ele><time>2026-04-30T09:22:46.839Z</time></trkpt><trkpt lat="40.4193254272812" lon="9.745525437947284"><ele>74.0</ele><time>2026-04-30T09:22:47.839Z</time></trkpt><trkpt lat="40.4191583123473" lon="9.745287930526674"><ele>74.0</ele><time>2026-04-30T09:22:48.839Z</time></trkpt><trkpt lat="40.41900126325676" lon="9.745039240557933"><ele>74.0</ele><time>2026-04-30T09:22:49.839Z</time></trkpt><trkpt lat="40.41885259779154" lon="9.744777691486426"><ele>74.0</ele><time>2026-04-30T09:22:50.839Z</time></trkpt><trkpt lat="40.418713635151896" lon="9.74449709401435"><ele>74.5</ele><time>2026-04-30T09:22:51.839Z</time></trkpt><trkpt lat="40.41858632736385" lon="9.744202214605062"><ele>75.0</ele><time>2026-04-30T09:22:52.839Z</time></trkpt><trkpt lat="40.418452537705285" lon="9.74390178815679"><ele>75.0</ele><time>2026-04-30T09:22:53.839Z</time></trkpt><trkpt lat="40.41831135089635" lon="9.743598925519255"><ele>75.0</ele><time>2026-04-30T09:22:54.839Z</time></trkpt><trkpt lat="40.41817094836827" lon="9.743290860712024"><ele>75.0</ele><time>2026-04-30T09:22:55.839Z</time></trkpt><trkpt lat="40.4180281648063" lon="9.742975013531144"><ele>75.0</ele><time>2026-04-30T09:22:56.839Z</time></trkpt><trkpt lat="40.41788196769937" lon="9.742659260462334"><ele>75.0</ele><time>2026-04-30T09:22:57.839Z</time></trkpt><trkpt lat="40.41773329106015" lon="9.74233933680046"><ele>75.0</ele><time>2026-04-30T09:22:58.839Z</time></trkpt><trkpt lat="40.41758528754233" lon="9.742024655458051"><ele>76.0</ele><time>2026-04-30T09:22:59.839Z</time></trkpt><trkpt lat="40.41743685656865" lon="9.741700872651311"><ele>77.0</ele><time>2026-04-30T09:23:00.839Z</time></trkpt><trkpt lat="40.41728961030392" lon="9.741384116180216"><ele>77.0</ele><time>2026-04-30T09:23:01.839Z</time></trkpt><trkpt lat="40.41713928728118" lon="9.741063903040518"><ele>77.0</ele><time>2026-04-30T09:23:02.839Z</time></trkpt><trkpt lat="40.416992337968125" lon="9.740741385901282"><ele>77.0</ele><time>2026-04-30T09:23:03.839Z</time></trkpt><trkpt lat="40.41684569881071" lon="9.740417247930846"><ele>77.0</ele><time>2026-04-30T09:23:04.839Z</time></trkpt><trkpt lat="40.416697331280915" lon="9.7400953380021"><ele>78.0</ele><time>2026-04-30T09:23:05.839Z</time></trkpt><trkpt lat="40.416552191586234" lon="9.739781797850197"><ele>79.0</ele><time>2026-04-30T09:23:06.839Z</time></trkpt><trkpt lat="40.416411879312896" lon="9.739478179283024"><ele>79.0</ele><time>2026-04-30T09:23:07.839Z</time></trkpt><trkpt lat="40.41627501760897" lon="9.739183696661192"><ele>79.0</ele><time>2026-04-30T09:23:08.839Z</time></trkpt><trkpt lat="40.416138001518114" lon="9.738887533460252"><ele>79.0</ele><time>2026-04-30T09:23:09.838Z</time></trkpt><trkpt lat="40.415998940743904" lon="9.738592751378903"><ele>79.0</ele><time>2026-04-30T09:23:10.838Z</time></trkpt><trkpt lat="40.415860914339675" lon="9.738299600113264"><ele>79.5</ele><time>2026-04-30T09:23:11.838Z</time></trkpt><trkpt lat="40.41572563352244" lon="9.738005722828046"><ele>80.0</ele><time>2026-04-30T09:23:12.838Z</time></trkpt><trkpt lat="40.41559000449871" lon="9.737713710711944"><ele>80.5</ele><time>2026-04-30T09:23:13.838Z</time></trkpt><trkpt lat="40.41545642128426" lon="9.737422989374565"><ele>81.0</ele><time>2026-04-30T09:23:14.838Z</time></trkpt><trkpt lat="40.415319845073604" lon="9.737135105155689"><ele>82.0</ele><time>2026-04-30T09:23:15.838Z</time></trkpt><trkpt lat="40.41518620806672" lon="9.736841937433685"><ele>83.0</ele><time>2026-04-30T09:23:16.838Z</time></trkpt><trkpt lat="40.4150484645167" lon="9.736544250051008"><ele>83.0</ele><time>2026-04-30T09:23:17.838Z</time></trkpt><trkpt lat="40.41490901197595" lon="9.736247133667202"><ele>83.0</ele><time>2026-04-30T09:23:18.838Z</time></trkpt><trkpt lat="40.414771924664535" lon="9.735946513370365"><ele>82.0</ele><time>2026-04-30T09:23:19.838Z</time></trkpt><trkpt lat="40.41463118377141" lon="9.73564564808528"><ele>81.0</ele><time>2026-04-30T09:23:20.838Z</time></trkpt><trkpt lat="40.41448930492634" lon="9.735344098370863"><ele>82.5</ele><time>2026-04-30T09:23:21.838Z</time></trkpt><trkpt lat="40.41435031362829" lon="9.735046831753241"><ele>84.0</ele><time>2026-04-30T09:23:22.838Z</time></trkpt><trkpt lat="40.4142097230795" lon="9.734745652270062"><ele>84.0</ele><time>2026-04-30T09:23:23.838Z</time></trkpt><trkpt lat="40.41406992170505" lon="9.734448645713515"><ele>84.0</ele><time>2026-04-30T09:23:24.838Z</time></trkpt><trkpt lat="40.41393251160292" lon="9.734156724356524"><ele>83.0</ele><time>2026-04-30T09:23:25.838Z</time></trkpt><trkpt lat="40.41379759986911" lon="9.733862992239539"><ele>82.0</ele><time>2026-04-30T09:23:26.838Z</time></trkpt><trkpt lat="40.413664265629144" lon="9.733574000085415"><ele>83.0</ele><time>2026-04-30T09:23:27.838Z</time></trkpt><trkpt lat="40.41352822325384" lon="9.733283347276867"><ele>84.0</ele><time>2026-04-30T09:23:28.838Z</time></trkpt><trkpt lat="40.413394941949896" lon="9.73299318853799"><ele>84.5</ele><time>2026-04-30T09:23:29.838Z</time></trkpt><trkpt lat="40.41326233722914" lon="9.732705438086732"><ele>85.0</ele><time>2026-04-30T09:23:30.838Z</time></trkpt><trkpt lat="40.413127768870474" lon="9.732417543732213"><ele>85.0</ele><time>2026-04-30T09:23:31.838Z</time></trkpt><trkpt lat="40.41299263234785" lon="9.732131349919925"><ele>85.0</ele><time>2026-04-30T09:23:32.838Z</time></trkpt><trkpt lat="40.4128565953958" lon="9.73184302855542"><ele>86.5</ele><time>2026-04-30T09:23:33.838Z</time></trkpt><trkpt lat="40.412723071710445" lon="9.731554156383314"><ele>88.0</ele><time>2026-04-30T09:23:34.838Z</time></trkpt><trkpt lat="40.41258900980321" lon="9.731262682891288"><ele>88.0</ele><time>2026-04-30T09:23:35.838Z</time></trkpt><trkpt lat="40.41245269289881" lon="9.730966372045279"><ele>88.0</ele><time>2026-04-30T09:23:36.838Z</time></trkpt><trkpt lat="40.41231166857701" lon="9.73066727198949"><ele>88.0</ele><time>2026-04-30T09:23:37.838Z</time></trkpt><trkpt lat="40.4121702125914" lon="9.730362905471623"><ele>88.0</ele><time>2026-04-30T09:23:38.838Z</time></trkpt><trkpt lat="40.41203113184727" lon="9.730056908858876"><ele>87.0</ele><time>2026-04-30T09:23:39.838Z</time></trkpt><trkpt lat="40.41189272446904" lon="9.729755590118804"><ele>86.0</ele><time>2026-04-30T09:23:40.838Z</time></trkpt><trkpt lat="40.41174613219997" lon="9.729455092496096"><ele>87.0</ele><time>2026-04-30T09:23:41.838Z</time></trkpt><trkpt lat="40.41159873385345" lon="9.729167950236732"><ele>88.0</ele><time>2026-04-30T09:23:42.838Z</time></trkpt><trkpt lat="40.41144168011855" lon="9.728885247396914"><ele>87.5</ele><time>2026-04-30T09:23:43.838Z</time></trkpt><trkpt lat="40.4112790398916" lon="9.728608500282098"><ele>87.0</ele><time>2026-04-30T09:23:44.838Z</time></trkpt><trkpt lat="40.41111323799897" lon="9.728327905183063"><ele>87.0</ele><time>2026-04-30T09:23:45.838Z</time></trkpt><trkpt lat="40.41093981453667" lon="9.728047588805147"><ele>87.0</ele><time>2026-04-30T09:23:46.838Z</time></trkpt><trkpt lat="40.41076528315401" lon="9.727766727172282"><ele>87.0</ele><time>2026-04-30T09:23:47.838Z</time></trkpt><trkpt lat="40.41059172993828" lon="9.727487301322977"><ele>87.0</ele><time>2026-04-30T09:23:48.838Z</time></trkpt><trkpt lat="40.41042014200893" lon="9.727212325138193"><ele>87.0</ele><time>2026-04-30T09:23:49.838Z</time></trkpt><trkpt lat="40.41025026472415" lon="9.726938107025507"><ele>87.0</ele><time>2026-04-30T09:23:50.838Z</time></trkpt><trkpt lat="40.41007940099889" lon="9.726659878534969"><ele>87.5</ele><time>2026-04-30T09:23:51.838Z</time></trkpt><trkpt lat="40.40991022317386" lon="9.726390632962426"><ele>88.0</ele><time>2026-04-30T09:23:52.838Z</time></trkpt><trkpt lat="40.409733983124646" lon="9.726108392796066"><ele>86.5</ele><time>2026-04-30T09:23:53.838Z</time></trkpt><trkpt lat="40.409561745255765" lon="9.725831378270884"><ele>85.0</ele><time>2026-04-30T09:23:54.838Z</time></trkpt><trkpt lat="40.40938426079199" lon="9.725548906336574"><ele>85.0</ele><time>2026-04-30T09:23:55.838Z</time></trkpt><trkpt lat="40.409213249867726" lon="9.725274233502327"><ele>85.0</ele><time>2026-04-30T09:23:56.838Z</time></trkpt><trkpt lat="40.409044734993266" lon="9.72500092326046"><ele>85.5</ele><time>2026-04-30T09:23:57.838Z</time></trkpt><trkpt lat="40.40888471754204" lon="9.724743436158269"><ele>86.0</ele><time>2026-04-30T09:23:58.838Z</time></trkpt><trkpt lat="40.408729764093145" lon="9.72449366525474"><ele>84.0</ele><time>2026-04-30T09:23:59.838Z</time></trkpt><trkpt lat="40.40857070712219" lon="9.724237416744987"><ele>82.0</ele><time>2026-04-30T09:24:00.838Z</time></trkpt><trkpt lat="40.408406078229696" lon="9.723970592751261"><ele>82.0</ele><time>2026-04-30T09:24:01.838Z</time></trkpt><trkpt lat="40.408242107048885" lon="9.723713722148146"><ele>82.0</ele><time>2026-04-30T09:24:02.838Z</time></trkpt><trkpt lat="40.4080751895311" lon="9.723443788950627"><ele>80.0</ele><time>2026-04-30T09:24:03.838Z</time></trkpt><trkpt lat="40.40791384331537" lon="9.723185017642932"><ele>78.0</ele><time>2026-04-30T09:24:04.838Z</time></trkpt><trkpt lat="40.40775856025561" lon="9.722932039013386"><ele>78.0</ele><time>2026-04-30T09:24:05.838Z</time></trkpt><trkpt lat="40.407609955410834" lon="9.72269237416082"><ele>78.0</ele><time>2026-04-30T09:24:06.838Z</time></trkpt><trkpt lat="40.40746550531764" lon="9.722458501183997"><ele>78.0</ele><time>2026-04-30T09:24:07.838Z</time></trkpt><trkpt lat="40.40731863800238" lon="9.722234638440549"><ele>78.0</ele><time>2026-04-30T09:24:08.838Z</time></trkpt><trkpt lat="40.40717485838287" lon="9.72200531559177"><ele>77.0</ele><time>2026-04-30T09:24:09.838Z</time></trkpt><trkpt lat="40.40702853232458" lon="9.721772702775262"><ele>76.0</ele><time>2026-04-30T09:24:10.838Z</time></trkpt><trkpt lat="40.406885479632294" lon="9.721541595570082"><ele>76.0</ele><time>2026-04-30T09:24:11.838Z</time></trkpt><trkpt lat="40.406742129993226" lon="9.721311700942438"><ele>76.0</ele><time>2026-04-30T09:24:12.838Z</time></trkpt><trkpt lat="40.40660436278477" lon="9.721090893230702"><ele>76.0</ele><time>2026-04-30T09:24:13.838Z</time></trkpt><trkpt lat="40.40647340056431" lon="9.720876145864555"><ele>76.0</ele><time>2026-04-30T09:24:14.838Z</time></trkpt><trkpt lat="40.4063463281017" lon="9.720671758179888"><ele>76.0</ele><time>2026-04-30T09:24:15.838Z</time></trkpt><trkpt lat="40.40622756029351" lon="9.720478817003553"><ele>76.0</ele><time>2026-04-30T09:24:16.838Z</time></trkpt><trkpt lat="40.40611416620815" lon="9.72029895905152"><ele>74.66666666666666</ele><time>2026-04-30T09:24:17.838Z</time></trkpt><trkpt lat="40.40600712873077" lon="9.720126723414838"><ele>73.33333333333333</ele><time>2026-04-30T09:24:18.838Z</time></trkpt><trkpt lat="40.40590872235495" lon="9.719966699017736"><ele>72.0</ele><time>2026-04-30T09:24:19.838Z</time></trkpt><trkpt lat="40.405812937987115" lon="9.719816099620893"><ele>72.0</ele><time>2026-04-30T09:24:20.838Z</time></trkpt><trkpt lat="40.405722632620694" lon="9.719670700476101"><ele>72.0</ele><time>2026-04-30T09:24:21.838Z</time></trkpt><trkpt lat="40.40563133845991" lon="9.719535663996256"><ele>72.0</ele><time>2026-04-30T09:24:22.838Z</time></trkpt><trkpt lat="40.40552823756826" lon="9.719400925496496"><ele>72.0</ele><time>2026-04-30T09:24:23.838Z</time></trkpt><trkpt lat="40.405408437188356" lon="9.719295566041131"><ele>72.0</ele><time>2026-04-30T09:24:24.838Z</time></trkpt><trkpt lat="40.405269639948834" lon="9.719229874965183"><ele>72.0</ele><time>2026-04-30T09:24:25.838Z</time></trkpt><trkpt lat="40.405116928363974" lon="9.719207536098962"><ele>72.0</ele><time>2026-04-30T09:24:26.838Z</time></trkpt><trkpt lat="40.40495617164451" lon="9.71920342561113"><ele>72.0</ele><time>2026-04-30T09:24:27.838Z</time></trkpt><trkpt lat="40.4047826975496" lon="9.719200884220422"><ele>72.0</ele><time>2026-04-30T09:24:28.838Z</time></trkpt><trkpt lat="40.40460930243389" lon="9.719186146515453"><ele>72.0</ele><time>2026-04-30T09:24:29.838Z</time></trkpt><trkpt lat="40.4044267728203" lon="9.719161647595604"><ele>72.0</ele><time>2026-04-30T09:24:30.838Z</time></trkpt><trkpt lat="40.404241353532576" lon="9.719135869417663"><ele>72.0</ele><time>2026-04-30T09:24:31.838Z</time></trkpt><trkpt lat="40.4040564901671" lon="9.719116439018904"><ele>72.0</ele><time>2026-04-30T09:24:32.838Z</time></trkpt><trkpt lat="40.40386753881129" lon="9.719095106210407"><ele>72.33333333333333</ele><time>2026-04-30T09:24:33.838Z</time></trkpt><trkpt lat="40.40366879602961" lon="9.719076613410163"><ele>72.66666666666666</ele><time>2026-04-30T09:24:34.837Z</time></trkpt><trkpt lat="40.40344572905351" lon="9.719053600607102"><ele>73.0</ele><time>2026-04-30T09:24:35.837Z</time></trkpt><trkpt lat="40.40320550329191" lon="9.71903462915124"><ele>71.5</ele><time>2026-04-30T09:24:36.837Z</time></trkpt><trkpt lat="40.40294719886255" lon="9.719013401130688"><ele>70.0</ele><time>2026-04-30T09:24:37.837Z</time></trkpt><trkpt lat="40.40267959120762" lon="9.71898682077856"><ele>70.0</ele><time>2026-04-30T09:24:38.837Z</time></trkpt><trkpt lat="40.402397151388165" lon="9.718965215635729"><ele>70.0</ele><time>2026-04-30T09:24:39.837Z</time></trkpt><trkpt lat="40.402110886112986" lon="9.718937948131266"><ele>69.5</ele><time>2026-04-30T09:24:40.837Z</time></trkpt><trkpt lat="40.40182038836727" lon="9.718907528274862"><ele>69.0</ele><time>2026-04-30T09:24:41.837Z</time></trkpt><trkpt lat="40.401527961185955" lon="9.718869252414644"><ele>68.5</ele><time>2026-04-30T09:24:42.837Z</time></trkpt><trkpt lat="40.40123058711168" lon="9.718824465481882"><ele>68.0</ele><time>2026-04-30T09:24:43.837Z</time></trkpt><trkpt lat="40.40093201397318" lon="9.718776389262304"><ele>68.0</ele><time>2026-04-30T09:24:44.837Z</time></trkpt><trkpt lat="40.40062812202145" lon="9.718737895926768"><ele>68.0</ele><time>2026-04-30T09:24:45.837Z</time></trkpt><trkpt lat="40.40033108650077" lon="9.718703487032215"><ele>67.5</ele><time>2026-04-30T09:24:46.837Z</time></trkpt><trkpt lat="40.400036033769965" lon="9.718670704356624"><ele>67.0</ele><time>2026-04-30T09:24:47.837Z</time></trkpt><trkpt lat="40.39975973447375" lon="9.718635572623015"><ele>66.5</ele><time>2026-04-30T09:24:48.837Z</time></trkpt><trkpt lat="40.39949503609197" lon="9.718603780968076"><ele>66.0</ele><time>2026-04-30T09:24:49.837Z</time></trkpt><trkpt lat="40.399230954711584" lon="9.718574406781968"><ele>66.5</ele><time>2026-04-30T09:24:50.837Z</time></trkpt><trkpt lat="40.39896994504104" lon="9.718546674185056"><ele>67.0</ele><time>2026-04-30T09:24:51.837Z</time></trkpt><trkpt lat="40.39871134774034" lon="9.718516101368335"><ele>66.0</ele><time>2026-04-30T09:24:52.837Z</time></trkpt><trkpt lat="40.39845435098598" lon="9.718489668733913"><ele>65.0</ele><time>2026-04-30T09:24:53.837Z</time></trkpt><trkpt lat="40.39819907742295" lon="9.718453605090735"><ele>64.5</ele><time>2026-04-30T09:24:54.837Z</time></trkpt><trkpt lat="40.39794350086518" lon="9.718426174942598"><ele>64.0</ele><time>2026-04-30T09:24:55.837Z</time></trkpt><trkpt lat="40.39768816271149" lon="9.718393716060149"><ele>64.0</ele><time>2026-04-30T09:24:56.837Z</time></trkpt><trkpt lat="40.39742812316537" lon="9.718363281120418"><ele>64.0</ele><time>2026-04-30T09:24:57.837Z</time></trkpt><trkpt lat="40.39718655008505" lon="9.718340479245052"><ele>63.33333333333333</ele><time>2026-04-30T09:24:58.837Z</time></trkpt><trkpt lat="40.39696496176681" lon="9.71831185129959"><ele>62.66666666666667</ele><time>2026-04-30T09:24:59.837Z</time></trkpt><trkpt lat="40.39675957078154" lon="9.71829032086692"><ele>62.0</ele><time>2026-04-30T09:25:00.837Z</time></trkpt><trkpt lat="40.39656373788765" lon="9.718277408923694"><ele>62.0</ele><time>2026-04-30T09:25:01.837Z</time></trkpt><trkpt lat="40.3963730948571" lon="9.718245266646248"><ele>62.0</ele><time>2026-04-30T09:25:02.837Z</time></trkpt><trkpt lat="40.39617636675423" lon="9.718224505441912"><ele>62.0</ele><time>2026-04-30T09:25:03.837Z</time></trkpt><trkpt lat="40.39596926281814" lon="9.718197438912844"><ele>62.0</ele><time>2026-04-30T09:25:04.837Z</time></trkpt><trkpt lat="40.395753860082465" lon="9.718177314323649"><ele>62.0</ele><time>2026-04-30T09:25:05.837Z</time></trkpt><trkpt lat="40.39552773438998" lon="9.71815365155012"><ele>62.0</ele><time>2026-04-30T09:25:06.837Z</time></trkpt><trkpt lat="40.39529991591043" lon="9.718125846949494"><ele>62.0</ele><time>2026-04-30T09:25:07.837Z</time></trkpt><trkpt lat="40.39506466747792" lon="9.718099270942261"><ele>62.0</ele><time>2026-04-30T09:25:08.837Z</time></trkpt><trkpt lat="40.39482531679579" lon="9.718073141790466"><ele>61.5</ele><time>2026-04-30T09:25:09.837Z</time></trkpt><trkpt lat="40.39458096307521" lon="9.718046760400648"><ele>61.0</ele><time>2026-04-30T09:25:10.837Z</time></trkpt><trkpt lat="40.39433558513684" lon="9.718018358964962"><ele>61.0</ele><time>2026-04-30T09:25:11.837Z</time></trkpt><trkpt lat="40.39408977791188" lon="9.717990280857839"><ele>61.0</ele><time>2026-04-30T09:25:12.837Z</time></trkpt><trkpt lat="40.39384231682447" lon="9.717941135271188"><ele>61.0</ele><time>2026-04-30T09:25:13.837Z</time></trkpt><trkpt lat="40.39359185713497" lon="9.717912418992652"><ele>61.0</ele><time>2026-04-30T09:25:14.837Z</time></trkpt><trkpt lat="40.39333788587886" lon="9.71789903238821"><ele>61.0</ele><time>2026-04-30T09:25:15.837Z</time></trkpt><trkpt lat="40.39308401210326" lon="9.717850185465885"><ele>61.0</ele><time>2026-04-30T09:25:16.837Z</time></trkpt><trkpt lat="40.39283791097679" lon="9.717758818673476"><ele>60.5</ele><time>2026-04-30T09:25:17.837Z</time></trkpt><trkpt lat="40.39257890619618" lon="9.71767505782037"><ele>60.0</ele><time>2026-04-30T09:25:18.837Z</time></trkpt><trkpt lat="40.39231380756709" lon="9.71759136609978"><ele>59.0</ele><time>2026-04-30T09:25:19.837Z</time></trkpt><trkpt lat="40.39204335032771" lon="9.717505371932987"><ele>58.0</ele><time>2026-04-30T09:25:20.836Z</time></trkpt><trkpt lat="40.391780427714735" lon="9.71742091278284"><ele>58.0</ele><time>2026-04-30T09:25:21.836Z</time></trkpt><trkpt lat="40.39152422477132" lon="9.717338612271584"><ele>58.0</ele><time>2026-04-30T09:25:22.836Z</time></trkpt><trkpt lat="40.3912793481856" lon="9.717259950141923"><ele>57.5</ele><time>2026-04-30T09:25:23.836Z</time></trkpt><trkpt lat="40.39103543341329" lon="9.717182065030952"><ele>57.0</ele><time>2026-04-30T09:25:24.836Z</time></trkpt><trkpt lat="40.39080027587684" lon="9.717126974090139"><ele>57.0</ele><time>2026-04-30T09:25:25.836Z</time></trkpt><trkpt lat="40.39058454224943" lon="9.717058831132428"><ele>57.0</ele><time>2026-04-30T09:25:26.836Z</time></trkpt><trkpt lat="40.39038352070354" lon="9.716996116394704"><ele>57.0</ele><time>2026-04-30T09:25:27.836Z</time></trkpt><trkpt lat="40.39018874343044" lon="9.716925839706107"><ele>56.0</ele><time>2026-04-30T09:25:28.836Z</time></trkpt><trkpt lat="40.39000547683429" lon="9.716855564667302"><ele>55.0</ele><time>2026-04-30T09:25:29.836Z</time></trkpt><trkpt lat="40.3898250510196" lon="9.716775154442157"><ele>54.0</ele><time>2026-04-30T09:25:30.836Z</time></trkpt><trkpt lat="40.38964257103998" lon="9.716649377908903"><ele>52.66666666666667</ele><time>2026-04-30T09:25:31.836Z</time></trkpt><trkpt lat="40.389470964950505" lon="9.716497987718904"><ele>51.333333333333336</ele><time>2026-04-30T09:25:32.836Z</time></trkpt><trkpt lat="40.38930827945684" lon="9.716310512189922"><ele>50.0</ele><time>2026-04-30T09:25:33.836Z</time></trkpt><trkpt lat="40.38917598438313" lon="9.716072952923357"><ele>48.5</ele><time>2026-04-30T09:25:34.836Z</time></trkpt><trkpt lat="40.389053574059076" lon="9.715818365960306"><ele>47.0</ele><time>2026-04-30T09:25:35.836Z</time></trkpt><trkpt lat="40.38893447679258" lon="9.71557477340546"><ele>47.0</ele><time>2026-04-30T09:25:36.836Z</time></trkpt><trkpt lat="40.38886465141488" lon="9.71535804291291"><ele>47.0</ele><time>2026-04-30T09:25:37.836Z</time></trkpt><trkpt lat="40.38881088761081" lon="9.715157400521877"><ele>47.0</ele><time>2026-04-30T09:25:38.836Z</time></trkpt><trkpt lat="40.38881998970392" lon="9.71495241991258"><ele>46.5</ele><time>2026-04-30T09:25:39.836Z</time></trkpt><trkpt lat="40.38889065924069" lon="9.714794439485027"><ele>46.0</ele><time>2026-04-30T09:25:40.836Z</time></trkpt><trkpt lat="40.388980878743986" lon="9.714660246560817"><ele>45.5</ele><time>2026-04-30T09:25:41.836Z</time></trkpt><trkpt lat="40.38909864700201" lon="9.714535310988117"><ele>45.0</ele><time>2026-04-30T09:25:42.836Z</time></trkpt><trkpt lat="40.389227322809425" lon="9.714373136406845"><ele>43.25</ele><time>2026-04-30T09:25:43.836Z</time></trkpt><trkpt lat="40.3893622097831" lon="9.714231009114966"><ele>41.5</ele><time>2026-04-30T09:25:44.836Z</time></trkpt><trkpt lat="40.38948291237038" lon="9.714119558682057"><ele>39.75</ele><time>2026-04-30T09:25:45.836Z</time></trkpt><trkpt lat="40.38960030839065" lon="9.714063165993494"><ele>38.0</ele><time>2026-04-30T09:25:46.836Z</time></trkpt><trkpt lat="40.389723499739695" lon="9.714079189209388"><ele>38.0</ele><time>2026-04-30T09:25:47.836Z</time></trkpt><trkpt lat="40.38981414935534" lon="9.7141741420916"><ele>38.0</ele><time>2026-04-30T09:25:48.836Z</time></trkpt><trkpt lat="40.38996822300122" lon="9.714243403335189"><ele>38.0</ele><time>2026-04-30T09:25:49.836Z</time></trkpt><trkpt lat="40.390100954372485" lon="9.714241105766051"><ele>38.0</ele><time>2026-04-30T09:25:50.836Z</time></trkpt><trkpt lat="40.390221673455656" lon="9.714192820043394"><ele>38.0</ele><time>2026-04-30T09:25:51.836Z</time></trkpt><trkpt lat="40.39031926394781" lon="9.714068621972395"><ele>38.0</ele><time>2026-04-30T09:25:52.836Z</time></trkpt><trkpt lat="40.39039360568395" lon="9.713889889390778"><ele>38.0</ele><time>2026-04-30T09:25:53.836Z</time></trkpt><trkpt lat="40.390447949728994" lon="9.713634940940164"><ele>40.0</ele><time>2026-04-30T09:25:54.836Z</time></trkpt><trkpt lat="40.39051397187859" lon="9.713364798387497"><ele>42.0</ele><time>2026-04-30T09:25:55.836Z</time></trkpt><trkpt lat="40.390572011270166" lon="9.71308691165558"><ele>44.0</ele><time>2026-04-30T09:25:56.836Z</time></trkpt><trkpt lat="40.39060845422075" lon="9.712803423818038"><ele>41.0</ele><time>2026-04-30T09:25:57.836Z</time></trkpt><trkpt lat="40.39063828505697" lon="9.712528252840151"><ele>38.0</ele><time>2026-04-30T09:25:58.837Z</time></trkpt><trkpt lat="40.390678868804706" lon="9.712270416777772"><ele>35.0</ele><time>2026-04-30T09:25:59.836Z</time></trkpt><trkpt lat="40.39073037765604" lon="9.712031158809157"><ele>30.666666666666664</ele><time>2026-04-30T09:26:00.836Z</time></trkpt><trkpt lat="40.39079064692561" lon="9.711825315668756"><ele>26.333333333333332</ele><time>2026-04-30T09:26:01.837Z</time></trkpt><trkpt lat="40.39087950017871" lon="9.71167026305415"><ele>22.0</ele><time>2026-04-30T09:26:02.837Z</time></trkpt><trkpt lat="40.39099357897619" lon="9.711521836005925"><ele>22.0</ele><time>2026-04-30T09:26:03.837Z</time></trkpt><trkpt lat="40.39112781056684" lon="9.7113812027976"><ele>22.0</ele><time>2026-04-30T09:26:04.837Z</time></trkpt><trkpt lat="40.391260379314126" lon="9.711228023293039"><ele>22.0</ele><time>2026-04-30T09:26:05.837Z</time></trkpt><trkpt lat="40.391361905976844" lon="9.711020944400806"><ele>22.666666666666664</ele><time>2026-04-30T09:26:06.837Z</time></trkpt><trkpt lat="40.39142239540592" lon="9.710759930630779"><ele>23.333333333333332</ele><time>2026-04-30T09:26:07.837Z</time></trkpt><trkpt lat="40.3914564864972" lon="9.710461272002066"><ele>24.0</ele><time>2026-04-30T09:26:08.836Z</time></trkpt><trkpt lat="40.39148245267219" lon="9.710141121960357"><ele>24.0</ele><time>2026-04-30T09:26:09.836Z</time></trkpt><trkpt lat="40.39152461489417" lon="9.709818770675605"><ele>24.0</ele><time>2026-04-30T09:26:10.837Z</time></trkpt><trkpt lat="40.391570056469625" lon="9.709525158061524"><ele>20.0</ele><time>2026-04-30T09:26:11.836Z</time></trkpt><trkpt lat="40.391610673151106" lon="9.709270546047023"><ele>16.0</ele><time>2026-04-30T09:26:12.836Z</time></trkpt><trkpt lat="40.39162704328228" lon="9.709054063630804"><ele>12.0</ele><time>2026-04-30T09:26:13.836Z</time></trkpt><trkpt lat="40.39159034221026" lon="9.70884236742035"><ele>12.0</ele><time>2026-04-30T09:26:14.836Z</time></trkpt><trkpt lat="40.3915017509404" lon="9.708617906802164"><ele>12.0</ele><time>2026-04-30T09:26:15.836Z</time></trkpt><trkpt lat="40.39137776852471" lon="9.708396017815277"><ele>12.0</ele><time>2026-04-30T09:26:16.836Z</time></trkpt><trkpt lat="40.3912515976991" lon="9.708178236812776"><ele>9.0</ele><time>2026-04-30T09:26:17.836Z</time></trkpt><trkpt lat="40.39112099508759" lon="9.70798142055014"><ele>6.0</ele><time>2026-04-30T09:26:18.836Z</time></trkpt><trkpt lat="40.39095758604812" lon="9.707830602970846"><ele>3.0</ele><time>2026-04-30T09:26:19.836Z</time></trkpt><trkpt lat="40.390778329186254" lon="9.707704677256976"><ele>2.6666666666666665</ele><time>2026-04-30T09:26:20.836Z</time></trkpt><trkpt lat="40.39059782979194" lon="9.70758182126602"><ele>2.333333333333333</ele><time>2026-04-30T09:26:21.836Z</time></trkpt><trkpt lat="40.39043456188612" lon="9.707459493086958"><ele>2.0</ele><time>2026-04-30T09:26:22.836Z</time></trkpt><trkpt lat="40.39026896897718" lon="9.707336654347344"><ele>2.0</ele><time>2026-04-30T09:26:23.836Z</time></trkpt><trkpt lat="40.39011084324932" lon="9.70722237811739"><ele>2.0</ele><time>2026-04-30T09:26:24.836Z</time></trkpt><trkpt lat="40.389957355784574" lon="9.707111699895588"><ele>2.0</ele><time>2026-04-30T09:26:25.836Z</time></trkpt><trkpt lat="40.389811738621496" lon="9.70700334202973"><ele>2.333333333333333</ele><time>2026-04-30T09:26:26.836Z</time></trkpt><trkpt lat="40.38967163958417" lon="9.706896617985677"><ele>2.6666666666666665</ele><time>2026-04-30T09:26:27.836Z</time></trkpt><trkpt lat="40.389535352888636" lon="9.70679423622885"><ele>3.0</ele><time>2026-04-30T09:26:28.836Z</time></trkpt><trkpt lat="40.38940277323107" lon="9.706694479585442"><ele>3.0</ele><time>2026-04-30T09:26:29.836Z</time></trkpt><trkpt lat="40.389262693176924" lon="9.706590235713268"><ele>3.0</ele><time>2026-04-30T09:26:30.836Z</time></trkpt><trkpt lat="40.38912443290588" lon="9.706489803323366"><ele>3.0</ele><time>2026-04-30T09:26:31.836Z</time></trkpt><trkpt lat="40.388981432693036" lon="9.706383651670977"><ele>2.6666666666666665</ele><time>2026-04-30T09:26:32.836Z</time></trkpt><trkpt lat="40.38883635423569" lon="9.706274922630302"><ele>2.333333333333333</ele><time>2026-04-30T09:26:33.836Z</time></trkpt><trkpt lat="40.38868763135744" lon="9.706167966264548"><ele>2.0</ele><time>2026-04-30T09:26:34.836Z</time></trkpt><trkpt lat="40.38853461033564" lon="9.706058113904737"><ele>2.0</ele><time>2026-04-30T09:26:35.836Z</time></trkpt><trkpt lat="40.388381997926615" lon="9.705945503600883"><ele>2.0</ele><time>2026-04-30T09:26:36.836Z</time></trkpt><trkpt lat="40.38822621319241" lon="9.705833822655638"><ele>2.0</ele><time>2026-04-30T09:26:37.836Z</time></trkpt><trkpt lat="40.38807069806811" lon="9.70571702203256"><ele>2.0</ele><time>2026-04-30T09:26:38.836Z</time></trkpt><trkpt lat="40.38791193521049" lon="9.70559940396405"><ele>2.0</ele><time>2026-04-30T09:26:39.836Z</time></trkpt><trkpt lat="40.38774685056153" lon="9.705481376664066"><ele>2.0</ele><time>2026-04-30T09:26:40.836Z</time></trkpt><trkpt lat="40.38757730888272" lon="9.705370242169188"><ele>2.333333333333333</ele><time>2026-04-30T09:26:41.836Z</time></trkpt><trkpt lat="40.38742126696647" lon="9.705229090211455"><ele>2.6666666666666665</ele><time>2026-04-30T09:26:42.836Z</time></trkpt><trkpt lat="40.387247045346975" lon="9.705100232232533"><ele>3.0</ele><time>2026-04-30T09:26:43.836Z</time></trkpt><trkpt lat="40.38707327089128" lon="9.70498719763973"><ele>3.0</ele><time>2026-04-30T09:26:44.836Z</time></trkpt><trkpt lat="40.38693622559464" lon="9.70487102297842"><ele>3.0</ele><time>2026-04-30T09:26:45.836Z</time></trkpt><trkpt lat="40.3868186836787" lon="9.704779173240304"><ele>3.0</ele><time>2026-04-30T09:26:46.836Z</time></trkpt><trkpt lat="40.3867080486434" lon="9.704700511857626"><ele>3.0</ele><time>2026-04-30T09:26:47.835Z</time></trkpt><trkpt lat="40.38659981983605" lon="9.70462533023963"><ele>3.0</ele><time>2026-04-30T09:26:48.835Z</time></trkpt><trkpt lat="40.38649614780997" lon="9.704554495185322"><ele>3.0</ele><time>2026-04-30T09:26:49.835Z</time></trkpt><trkpt lat="40.38638996104948" lon="9.704477071022914"><ele>3.0</ele><time>2026-04-30T09:26:50.835Z</time></trkpt><trkpt lat="40.386270968888894" lon="9.704397640019414"><ele>3.0</ele><time>2026-04-30T09:26:51.835Z</time></trkpt><trkpt lat="40.38615458059781" lon="9.704306317549591"><ele>3.0</ele><time>2026-04-30T09:26:52.835Z</time></trkpt><trkpt lat="40.386043617743084" lon="9.704214689929293"><ele>3.0</ele><time>2026-04-30T09:26:53.835Z</time></trkpt><trkpt lat="40.38593636055072" lon="9.704135116659963"><ele>3.0</ele><time>2026-04-30T09:26:54.835Z</time></trkpt><trkpt lat="40.385839894003105" lon="9.704060001184871"><ele>3.0</ele><time>2026-04-30T09:26:55.835Z</time></trkpt><trkpt lat="40.385737600514524" lon="9.703980002620895"><ele>3.0</ele><time>2026-04-30T09:26:56.835Z</time></trkpt><trkpt lat="40.38563529555264" lon="9.703912653531232"><ele>3.0</ele><time>2026-04-30T09:26:57.835Z</time></trkpt><trkpt lat="40.385539186492274" lon="9.703847055999764"><ele>3.0</ele><time>2026-04-30T09:26:58.835Z</time></trkpt><trkpt lat="40.385448526997706" lon="9.703773244119855"><ele>3.0</ele><time>2026-04-30T09:26:59.835Z</time></trkpt><trkpt lat="40.38535333634999" lon="9.703702573886034"><ele>3.0</ele><time>2026-04-30T09:27:00.835Z</time></trkpt><trkpt lat="40.38524831344193" lon="9.703628104655388"><ele>3.0</ele><time>2026-04-30T09:27:01.835Z</time></trkpt><trkpt lat="40.38513253958998" lon="9.703544155486918"><ele>3.0</ele><time>2026-04-30T09:27:02.835Z</time></trkpt><trkpt lat="40.38500188488923" lon="9.703462634052942"><ele>3.0</ele><time>2026-04-30T09:27:03.835Z</time></trkpt><trkpt lat="40.38486425539826" lon="9.70335029156718"><ele>3.0</ele><time>2026-04-30T09:27:04.835Z</time></trkpt><trkpt lat="40.38471360695623" lon="9.703241945758972"><ele>3.666666666666667</ele><time>2026-04-30T09:27:05.835Z</time></trkpt><trkpt lat="40.3845552338983" lon="9.703113782711371"><ele>4.333333333333334</ele><time>2026-04-30T09:27:06.835Z</time></trkpt><trkpt lat="40.384391706151824" lon="9.70298246414995"><ele>5.0</ele><time>2026-04-30T09:27:07.835Z</time></trkpt><trkpt lat="40.38421764847703" lon="9.70284492031319"><ele>5.0</ele><time>2026-04-30T09:27:08.835Z</time></trkpt><trkpt lat="40.38404083084595" lon="9.702712032830915"><ele>5.0</ele><time>2026-04-30T09:27:09.835Z</time></trkpt><trkpt lat="40.383860868077164" lon="9.702580261468485"><ele>5.0</ele><time>2026-04-30T09:27:10.835Z</time></trkpt><trkpt lat="40.38367613658213" lon="9.702441609959969"><ele>5.0</ele><time>2026-04-30T09:27:11.835Z</time></trkpt><trkpt lat="40.38348774102191" lon="9.702300927169484"><ele>5.0</ele><time>2026-04-30T09:27:12.835Z</time></trkpt><trkpt lat="40.38329686716852" lon="9.702163190657128"><ele>5.0</ele><time>2026-04-30T09:27:13.835Z</time></trkpt><trkpt lat="40.38310311714551" lon="9.702022078961692"><ele>5.0</ele><time>2026-04-30T09:27:14.835Z</time></trkpt><trkpt lat="40.38291397308221" lon="9.701885567669695"><ele>5.0</ele><time>2026-04-30T09:27:15.835Z</time></trkpt><trkpt lat="40.38272321500633" lon="9.701753503514615"><ele>5.0</ele><time>2026-04-30T09:27:16.835Z</time></trkpt><trkpt lat="40.38254054943928" lon="9.701611579056026"><ele>5.0</ele><time>2026-04-30T09:27:17.835Z</time></trkpt><trkpt lat="40.38236635668845" lon="9.70147715598306"><ele>5.0</ele><time>2026-04-30T09:27:18.835Z</time></trkpt><trkpt lat="40.382193148852956" lon="9.701345514739705"><ele>5.0</ele><time>2026-04-30T09:27:19.835Z</time></trkpt><trkpt lat="40.38202206500659" lon="9.701215553930084"><ele>4.333333333333334</ele><time>2026-04-30T09:27:20.835Z</time></trkpt><trkpt lat="40.38186788273375" lon="9.701099135985174"><ele>3.666666666666667</ele><time>2026-04-30T09:27:21.835Z</time></trkpt><trkpt lat="40.38173258920629" lon="9.700994578774264"><ele>3.0</ele><time>2026-04-30T09:27:22.835Z</time></trkpt><trkpt lat="40.381609040480534" lon="9.70089828815218"><ele>3.0</ele><time>2026-04-30T09:27:23.835Z</time></trkpt><trkpt lat="40.381494372581926" lon="9.70081174242986"><ele>3.0</ele><time>2026-04-30T09:27:24.835Z</time></trkpt><trkpt lat="40.38139736047425" lon="9.700738894878093"><ele>3.0</ele><time>2026-04-30T09:27:25.835Z</time></trkpt><trkpt lat="40.38131033613119" lon="9.700675792395193"><ele>3.0</ele><time>2026-04-30T09:27:26.835Z</time></trkpt><trkpt lat="40.381232248678295" lon="9.700615977056469"><ele>3.0</ele><time>2026-04-30T09:27:27.835Z</time></trkpt><trkpt lat="40.381166954554146" lon="9.700570529830479"><ele>3.0</ele><time>2026-04-30T09:27:28.835Z</time></trkpt><trkpt lat="40.38110118206438" lon="9.70052375820559"><ele>3.0</ele><time>2026-04-30T09:27:29.835Z</time></trkpt><trkpt lat="40.381038518412225" lon="9.700478643572925"><ele>3.0</ele><time>2026-04-30T09:27:30.835Z</time></trkpt><trkpt lat="40.38096880156654" lon="9.700429282458543"><ele>3.0</ele><time>2026-04-30T09:27:31.835Z</time></trkpt><trkpt lat="40.38088576173392" lon="9.700370123561749"><ele>3.0</ele><time>2026-04-30T09:27:32.835Z</time></trkpt><trkpt lat="40.38079512319455" lon="9.700303936622616"><ele>3.0</ele><time>2026-04-30T09:27:33.834Z</time></trkpt><trkpt lat="40.38070726947272" lon="9.700240540761488"><ele>3.666666666666667</ele><time>2026-04-30T09:27:34.834Z</time></trkpt><trkpt lat="40.38062782496188" lon="9.700181246285629"><ele>4.333333333333334</ele><time>2026-04-30T09:27:35.834Z</time></trkpt><trkpt lat="40.38055126455089" lon="9.700125184965206"><ele>5.0</ele><time>2026-04-30T09:27:36.834Z</time></trkpt><trkpt lat="40.38048236238027" lon="9.700072365906715"><ele>5.666666666666667</ele><time>2026-04-30T09:27:37.834Z</time></trkpt><trkpt lat="40.38041458688954" lon="9.700015078905764"><ele>6.333333333333334</ele><time>2026-04-30T09:27:38.834Z</time></trkpt><trkpt lat="40.380348172484176" lon="9.699957619507307"><ele>7.0</ele><time>2026-04-30T09:27:39.834Z</time></trkpt><trkpt lat="40.38028509536927" lon="9.699907912520594"><ele>7.000000000000001</ele><time>2026-04-30T09:27:40.834Z</time></trkpt><trkpt lat="40.38017730258957" lon="9.699815252082283"><ele>7.0</ele><time>2026-04-30T09:27:42.834Z</time></trkpt><trkpt lat="40.380126205805254" lon="9.69976302583098"><ele>7.0</ele><time>2026-04-30T09:27:43.834Z</time></trkpt><trkpt lat="40.38007180051933" lon="9.699709240979207"><ele>7.0</ele><time>2026-04-30T09:27:44.834Z</time></trkpt><trkpt lat="40.380018371664846" lon="9.699650089276506"><ele>7.000000000000001</ele><time>2026-04-30T09:27:45.834Z</time></trkpt><trkpt lat="40.3799695831754" lon="9.69957754510515"><ele>7.0</ele><time>2026-04-30T09:27:46.834Z</time></trkpt><trkpt lat="40.37991177910045" lon="9.699510241017245"><ele>7.0</ele><time>2026-04-30T09:27:47.834Z</time></trkpt><trkpt lat="40.379828275212176" lon="9.699410220279459"><ele>6.999999999999999</ele><time>2026-04-30T09:27:49.834Z</time></trkpt><trkpt lat="40.3797412617965" lon="9.699329111899504"><ele>6.999999999999999</ele><time>2026-04-30T09:27:51.834Z</time></trkpt><trkpt lat="40.379654051628705" lon="9.699221374332032"><ele>7.0</ele><time>2026-04-30T09:27:53.834Z</time></trkpt><trkpt lat="40.37960283588584" lon="9.69915623934581"><ele>7.0</ele><time>2026-04-30T09:27:54.834Z</time></trkpt><trkpt lat="40.3795512449" lon="9.699079809576283"><ele>7.000000000000001</ele><time>2026-04-30T09:27:55.834Z</time></trkpt><trkpt lat="40.379488588647995" lon="9.699010487296393"><ele>7.0</ele><time>2026-04-30T09:27:56.834Z</time></trkpt><trkpt lat="40.37943175811426" lon="9.698946372497286"><ele>7.0</ele><time>2026-04-30T09:27:57.834Z</time></trkpt><trkpt lat="40.37937944639949" lon="9.698877066670102"><ele>7.0</ele><time>2026-04-30T09:27:58.834Z</time></trkpt><trkpt lat="40.37932641283057" lon="9.698805236028294"><ele>7.000000000000001</ele><time>2026-04-30T09:27:59.834Z</time></trkpt><trkpt lat="40.37927757326765" lon="9.698746649635776"><ele>7.0</ele><time>2026-04-30T09:28:00.834Z</time></trkpt><trkpt lat="40.37921762571592" lon="9.698675769335637"><ele>7.0</ele><time>2026-04-30T09:28:02.834Z</time></trkpt><trkpt lat="40.379171301230805" lon="9.698606128977364"><ele>7.0</ele><time>2026-04-30T09:28:06.911Z</time></trkpt><trkpt lat="40.37910501862365" lon="9.698528791394077"><ele>7.0</ele><time>2026-04-30T09:28:09.911Z</time></trkpt><trkpt lat="40.37904271548735" lon="9.698484604678058"><ele>7.0</ele><time>2026-04-30T09:28:12.911Z</time></trkpt><trkpt lat="40.37901324124543" lon="9.698562752588112"><ele>7.0</ele><time>2026-04-30T09:28:14.911Z</time></trkpt><trkpt lat="40.37903205521384" lon="9.698648933975758"><ele>7.0</ele><time>2026-04-30T09:28:23.911Z</time></trkpt><trkpt lat="40.37901299675989" lon="9.698729927747916"><ele>7.0</ele><time>2026-04-30T09:28:30.911Z</time></trkpt><trkpt lat="40.37894050702761" lon="9.698646138656585"><ele>7.0</ele><time>2026-04-30T09:28:33.911Z</time></trkpt><trkpt lat="40.3789910645573" lon="9.698740193938683"><ele>6.999999999999999</ele><time>2026-04-30T09:29:04.911Z</time></trkpt><trkpt lat="40.37892701987767" lon="9.698664765197039"><ele>6.999999999999999</ele><time>2026-04-30T09:29:10.911Z</time></trkpt><trkpt lat="40.37897162853096" lon="9.698780113756053"><ele>7.0</ele><time>2026-04-30T09:30:17.91Z</time></trkpt><trkpt lat="40.37889792387676" lon="9.698704948508187"><ele>7.0</ele><time>2026-04-30T09:30:26.911Z</time></trkpt><trkpt lat="40.37899603679016" lon="9.698825124298656"><ele>7.0</ele><time>2026-04-30T09:30:27.911Z</time></trkpt><trkpt lat="40.37889798452345" lon="9.698704864752905"><ele>7.0</ele><time>2026-04-30T09:30:33.911Z</time></trkpt><trkpt lat="40.378989427328065" lon="9.698816818304126"><ele>7.0</ele><time>2026-04-30T09:30:57.911Z</time></trkpt><trkpt lat="40.37905017206501" lon="9.699060415023263"><ele>7.0</ele><time>2026-04-30T09:34:51.91Z</time></trkpt><trkpt lat="40.37911208207716" lon="9.699044940521379"><ele>6.999999999999999</ele><time>2026-04-30T09:36:35.91Z</time></trkpt><trkpt lat="40.37917421788034" lon="9.698958432910416"><ele>6.999999999999999</ele><time>2026-04-30T09:36:41.911Z</time></trkpt><trkpt lat="40.379247337376476" lon="9.698926797538947"><ele>7.0</ele><time>2026-04-30T09:37:13.91Z</time></trkpt><trkpt lat="40.37918405476846" lon="9.698960426547616"><ele>7.0</ele><time>2026-04-30T09:37:34.91Z</time></trkpt><trkpt lat="40.37893237648137" lon="9.698628252933377"><ele>6.75</ele><time>2026-04-30T09:37:36.91Z</time></trkpt><trkpt lat="40.37886797714218" lon="9.698581060810794"><ele>6.5</ele><time>2026-04-30T09:37:38.91Z</time></trkpt><trkpt lat="40.37879907645373" lon="9.698500372428267"><ele>6.25</ele><time>2026-04-30T09:37:40.91Z</time></trkpt><trkpt lat="40.379035461720036" lon="9.698471804481583"><ele>6.0</ele><time>2026-04-30T09:37:41.91Z</time></trkpt><trkpt lat="40.378691983623106" lon="9.697400626501478"><ele>6.0</ele><time>2026-04-30T09:37:56.91Z</time></trkpt><trkpt lat="40.37868614016604" lon="9.697286764984048"><ele>6.0</ele><time>2026-04-30T09:37:58.91Z</time></trkpt><trkpt lat="40.3786388043145" lon="9.697206916595446"><ele>6.0</ele><time>2026-04-30T09:38:00.91Z</time></trkpt><trkpt lat="40.37857987232149" lon="9.697154806966848"><ele>6.0</ele><time>2026-04-30T09:38:01.91Z</time></trkpt><trkpt lat="40.37847499354881" lon="9.697092785681976"><ele>6.0</ele><time>2026-04-30T09:38:03.91Z</time></trkpt><trkpt lat="40.37840620607035" lon="9.697078011130868"><ele>6.0</ele><time>2026-04-30T09:38:04.91Z</time></trkpt><trkpt lat="40.378339311243124" lon="9.697064732038601"><ele>6.0</ele><time>2026-04-30T09:38:05.91Z</time></trkpt><trkpt lat="40.37827456821343" lon="9.697052762739363"><ele>6.0</ele><time>2026-04-30T09:38:06.91Z</time></trkpt><trkpt lat="40.378159519861065" lon="9.697032743306803"><ele>6.0</ele><time>2026-04-30T09:38:08.91Z</time></trkpt><trkpt lat="40.378053322402025" lon="9.697015805264499"><ele>6.0</ele><time>2026-04-30T09:38:10.91Z</time></trkpt><trkpt lat="40.37794036246816" lon="9.6970262330212"><ele>6.0</ele><time>2026-04-30T09:38:12.91Z</time></trkpt><trkpt lat="40.37787586114253" lon="9.697008520463786"><ele>6.166666666666667</ele><time>2026-04-30T09:38:13.91Z</time></trkpt><trkpt lat="40.37781070110016" lon="9.696990811820461"><ele>6.333333333333334</ele><time>2026-04-30T09:38:14.91Z</time></trkpt><trkpt lat="40.37774598976701" lon="9.696979176945145"><ele>6.5</ele><time>2026-04-30T09:38:15.91Z</time></trkpt><trkpt lat="40.377680363756994" lon="9.696969228990953"><ele>6.666666666666667</ele><time>2026-04-30T09:38:16.91Z</time></trkpt><trkpt lat="40.37761446814517" lon="9.696960727265006"><ele>6.833333333333334</ele><time>2026-04-30T09:38:17.91Z</time></trkpt><trkpt lat="40.377543461820245" lon="9.696950984076619"><ele>7.0</ele><time>2026-04-30T09:38:18.91Z</time></trkpt><trkpt lat="40.377428133379496" lon="9.696939213682885"><ele>7.0</ele><time>2026-04-30T09:38:20.91Z</time></trkpt><trkpt lat="40.37733146832602" lon="9.696919722492506"><ele>7.0</ele><time>2026-04-30T09:38:22.91Z</time></trkpt><trkpt lat="40.37726656779987" lon="9.696897275695951"><ele>7.0</ele><time>2026-04-30T09:38:23.909Z</time></trkpt><trkpt lat="40.3771993406341" lon="9.696882626425037"><ele>7.0</ele><time>2026-04-30T09:38:24.909Z</time></trkpt><trkpt lat="40.3771276485208" lon="9.69685681212641"><ele>7.0</ele><time>2026-04-30T09:38:25.909Z</time></trkpt><trkpt lat="40.3770652659596" lon="9.696829818530642"><ele>7.0</ele><time>2026-04-30T09:38:26.909Z</time></trkpt><trkpt lat="40.377004454848354" lon="9.696797248349338"><ele>7.0</ele><time>2026-04-30T09:38:27.909Z</time></trkpt><trkpt lat="40.376903465341556" lon="9.696708626527487"><ele>7.0</ele><time>2026-04-30T09:38:29.909Z</time></trkpt><trkpt lat="40.37684351444462" lon="9.696570833231908"><ele>7.0</ele><time>2026-04-30T09:38:31.909Z</time></trkpt><trkpt lat="40.37681697220439" lon="9.696431976468054"><ele>7.0</ele><time>2026-04-30T09:38:33.91Z</time></trkpt><trkpt lat="40.37682203314538" lon="9.696279669330366"><ele>7.0</ele><time>2026-04-30T09:38:35.91Z</time></trkpt><trkpt lat="40.37682198804736" lon="9.696134357762608"><ele>7.333333333333334</ele><time>2026-04-30T09:38:37.91Z</time></trkpt><trkpt lat="40.37682794882621" lon="9.696048234268043"><ele>7.666666666666667</ele><time>2026-04-30T09:38:39.91Z</time></trkpt><trkpt lat="40.37683136223606" lon="9.695961791464391"><ele>8.0</ele><time>2026-04-30T09:38:41.91Z</time></trkpt><trkpt lat="40.376833362700616" lon="9.695867485659766"><ele>8.333333333333334</ele><time>2026-04-30T09:38:43.91Z</time></trkpt><trkpt lat="40.37684748843662" lon="9.695754815679539"><ele>8.666666666666666</ele><time>2026-04-30T09:38:47.91Z</time></trkpt><trkpt lat="40.376848750108735" lon="9.695650981466418"><ele>9.0</ele><time>2026-04-30T09:38:49.91Z</time></trkpt><trkpt lat="40.376879111813714" lon="9.695505527114754"><ele>9.0</ele><time>2026-04-30T09:38:51.91Z</time></trkpt><trkpt lat="40.376882947325065" lon="9.695419592810048"><ele>9.0</ele><time>2026-04-30T09:38:52.91Z</time></trkpt><trkpt lat="40.376888694236946" lon="9.695307152447842"><ele>9.0</ele><time>2026-04-30T09:38:53.91Z</time></trkpt><trkpt lat="40.37689026122538" lon="9.695172890317803"><ele>9.0</ele><time>2026-04-30T09:38:54.91Z</time></trkpt><trkpt lat="40.3768959845437" lon="9.695004314408983"><ele>9.0</ele><time>2026-04-30T09:38:55.91Z</time></trkpt><trkpt lat="40.376905599465545" lon="9.694818041723602"><ele>9.333333333333334</ele><time>2026-04-30T09:38:56.91Z</time></trkpt><trkpt lat="40.37691793066969" lon="9.69461643451745"><ele>9.666666666666668</ele><time>2026-04-30T09:38:57.91Z</time></trkpt><trkpt lat="40.376933158423775" lon="9.694400503764074"><ele>10.0</ele><time>2026-04-30T09:38:58.91Z</time></trkpt><trkpt lat="40.37695106604419" lon="9.694179944372854"><ele>11.0</ele><time>2026-04-30T09:38:59.91Z</time></trkpt><trkpt lat="40.376966649091" lon="9.69394860281843"><ele>12.0</ele><time>2026-04-30T09:39:00.91Z</time></trkpt><trkpt lat="40.37698364875597" lon="9.693725882227351"><ele>13.0</ele><time>2026-04-30T09:39:01.91Z</time></trkpt><trkpt lat="40.376997776632884" lon="9.69352154494319"><ele>13.0</ele><time>2026-04-30T09:39:02.91Z</time></trkpt><trkpt lat="40.37700490332666" lon="9.693330282709862"><ele>13.0</ele><time>2026-04-30T09:39:03.91Z</time></trkpt><trkpt lat="40.376999875406916" lon="9.693145351032847"><ele>13.0</ele><time>2026-04-30T09:39:04.91Z</time></trkpt><trkpt lat="40.37697321491137" lon="9.692972641978605"><ele>13.0</ele><time>2026-04-30T09:39:05.91Z</time></trkpt><trkpt lat="40.37692159670096" lon="9.69281111555908"><ele>13.25</ele><time>2026-04-30T09:39:06.91Z</time></trkpt><trkpt lat="40.376864936502834" lon="9.692642437616492"><ele>13.5</ele><time>2026-04-30T09:39:07.91Z</time></trkpt><trkpt lat="40.37680933152166" lon="9.692471493181243"><ele>13.75</ele><time>2026-04-30T09:39:08.91Z</time></trkpt><trkpt lat="40.37675265808431" lon="9.692313914090041"><ele>14.0</ele><time>2026-04-30T09:39:09.91Z</time></trkpt><trkpt lat="40.37670154204706" lon="9.692163900769168"><ele>14.0</ele><time>2026-04-30T09:39:10.91Z</time></trkpt><trkpt lat="40.376651712172915" lon="9.692006750251274"><ele>14.0</ele><time>2026-04-30T09:39:11.91Z</time></trkpt><trkpt lat="40.376594781845675" lon="9.691846930629126"><ele>14.0</ele><time>2026-04-30T09:39:12.91Z</time></trkpt><trkpt lat="40.37653429139093" lon="9.691690573413993"><ele>14.0</ele><time>2026-04-30T09:39:13.91Z</time></trkpt><trkpt lat="40.37646682623439" lon="9.691547303087331"><ele>14.25</ele><time>2026-04-30T09:39:14.91Z</time></trkpt><trkpt lat="40.37639778965323" lon="9.69141841001775"><ele>14.5</ele><time>2026-04-30T09:39:15.91Z</time></trkpt><trkpt lat="40.376321658575456" lon="9.691285675679369"><ele>14.75</ele><time>2026-04-30T09:39:16.91Z</time></trkpt><trkpt lat="40.37623093982155" lon="9.691156011694797"><ele>15.0</ele><time>2026-04-30T09:39:17.91Z</time></trkpt><trkpt lat="40.37613930124731" lon="9.691027154751561"><ele>15.5</ele><time>2026-04-30T09:39:18.91Z</time></trkpt><trkpt lat="40.37604428522661" lon="9.69089185259757"><ele>16.0</ele><time>2026-04-30T09:39:19.91Z</time></trkpt><trkpt lat="40.37595750201231" lon="9.690748289939595"><ele>16.5</ele><time>2026-04-30T09:39:20.91Z</time></trkpt><trkpt lat="40.375894516508595" lon="9.690585219593226"><ele>17.0</ele><time>2026-04-30T09:39:21.91Z</time></trkpt><trkpt lat="40.375867821788475" lon="9.690393943035867"><ele>17.666666666666668</ele><time>2026-04-30T09:39:22.91Z</time></trkpt><trkpt lat="40.37588100665231" lon="9.690186485134802"><ele>18.333333333333332</ele><time>2026-04-30T09:39:23.91Z</time></trkpt><trkpt lat="40.37589494661911" lon="9.689987537001036"><ele>19.0</ele><time>2026-04-30T09:39:24.91Z</time></trkpt><trkpt lat="40.3759225057881" lon="9.689785568856113"><ele>19.0</ele><time>2026-04-30T09:39:25.91Z</time></trkpt><trkpt lat="40.37595600949443" lon="9.689583364665147"><ele>19.0</ele><time>2026-04-30T09:39:26.91Z</time></trkpt><trkpt lat="40.375989195303795" lon="9.689371667878978"><ele>19.0</ele><time>2026-04-30T09:39:27.91Z</time></trkpt><trkpt lat="40.37601727768119" lon="9.689161442345391"><ele>19.5</ele><time>2026-04-30T09:39:28.91Z</time></trkpt><trkpt lat="40.37604342918986" lon="9.688963624744336"><ele>20.0</ele><time>2026-04-30T09:39:29.91Z</time></trkpt><trkpt lat="40.376067101311605" lon="9.688781515553396"><ele>20.5</ele><time>2026-04-30T09:39:30.91Z</time></trkpt><trkpt lat="40.37608864495418" lon="9.688601384613131"><ele>21.0</ele><time>2026-04-30T09:39:31.91Z</time></trkpt><trkpt lat="40.37611635265632" lon="9.688416552600726"><ele>21.75</ele><time>2026-04-30T09:39:32.91Z</time></trkpt><trkpt lat="40.37613781074252" lon="9.688230479912255"><ele>22.5</ele><time>2026-04-30T09:39:33.91Z</time></trkpt><trkpt lat="40.376159200777295" lon="9.688056645649727"><ele>23.25</ele><time>2026-04-30T09:39:34.91Z</time></trkpt><trkpt lat="40.37617970346723" lon="9.687882239883667"><ele>24.0</ele><time>2026-04-30T09:39:35.91Z</time></trkpt><trkpt lat="40.376208075386245" lon="9.687704678185911"><ele>25.0</ele><time>2026-04-30T09:39:36.91Z</time></trkpt><trkpt lat="40.376224677951974" lon="9.687542422755437"><ele>26.0</ele><time>2026-04-30T09:39:37.91Z</time></trkpt><trkpt lat="40.376243021824074" lon="9.687379188771471"><ele>27.0</ele><time>2026-04-30T09:39:38.91Z</time></trkpt><trkpt lat="40.37626346398225" lon="9.687213115912757"><ele>28.0</ele><time>2026-04-30T09:39:39.91Z</time></trkpt><trkpt lat="40.376280773530944" lon="9.687049513599195"><ele>28.5</ele><time>2026-04-30T09:39:40.91Z</time></trkpt><trkpt lat="40.376293815414975" lon="9.686881624829184"><ele>29.0</ele><time>2026-04-30T09:39:41.91Z</time></trkpt><trkpt lat="40.37630374163864" lon="9.6867006296525"><ele>29.5</ele><time>2026-04-30T09:39:42.91Z</time></trkpt><trkpt lat="40.37632443641249" lon="9.68651517531445"><ele>30.0</ele><time>2026-04-30T09:39:43.91Z</time></trkpt><trkpt lat="40.3763084921348" lon="9.686325546493741"><ele>30.0</ele><time>2026-04-30T09:39:44.91Z</time></trkpt><trkpt lat="40.37627475219655" lon="9.686135735913904"><ele>30.0</ele><time>2026-04-30T09:39:45.91Z</time></trkpt><trkpt lat="40.3762306335863" lon="9.685940122823425"><ele>30.0</ele><time>2026-04-30T09:39:46.91Z</time></trkpt><trkpt lat="40.376181227369386" lon="9.685737923611017"><ele>32.0</ele><time>2026-04-30T09:39:47.91Z</time></trkpt><trkpt lat="40.37613350557424" lon="9.685528456498103"><ele>34.0</ele><time>2026-04-30T09:39:48.91Z</time></trkpt><trkpt lat="40.376087749557946" lon="9.685316941772172"><ele>36.0</ele><time>2026-04-30T09:39:49.91Z</time></trkpt><trkpt lat="40.3760419456403" lon="9.685102439319046"><ele>37.0</ele><time>2026-04-30T09:39:50.91Z</time></trkpt><trkpt lat="40.37599808769682" lon="9.684884344553227"><ele>38.0</ele><time>2026-04-30T09:39:51.91Z</time></trkpt><trkpt lat="40.37595168063119" lon="9.68467045998335"><ele>39.0</ele><time>2026-04-30T09:39:52.91Z</time></trkpt><trkpt lat="40.375903814828035" lon="9.684456643731695"><ele>39.666666666666664</ele><time>2026-04-30T09:39:53.91Z</time></trkpt><trkpt lat="40.375858032404714" lon="9.684253867036794"><ele>40.33333333333333</ele><time>2026-04-30T09:39:54.91Z</time></trkpt><trkpt lat="40.37581306042318" lon="9.684047234503021"><ele>41.0</ele><time>2026-04-30T09:39:55.91Z</time></trkpt><trkpt lat="40.375771886575436" lon="9.683837288306783"><ele>41.0</ele><time>2026-04-30T09:39:56.91Z</time></trkpt><trkpt lat="40.375730115201385" lon="9.683632131455813"><ele>41.0</ele><time>2026-04-30T09:39:57.91Z</time></trkpt><trkpt lat="40.37569041275969" lon="9.68345182512002"><ele>41.0</ele><time>2026-04-30T09:39:58.91Z</time></trkpt><trkpt lat="40.375660648969856" lon="9.683288247001773"><ele>41.0</ele><time>2026-04-30T09:39:59.91Z</time></trkpt><trkpt lat="40.37563044839083" lon="9.68314034572046"><ele>41.25</ele><time>2026-04-30T09:40:00.91Z</time></trkpt><trkpt lat="40.37560245941455" lon="9.682994738417714"><ele>41.5</ele><time>2026-04-30T09:40:01.91Z</time></trkpt><trkpt lat="40.37557175185783" lon="9.682850615737435"><ele>41.75</ele><time>2026-04-30T09:40:02.91Z</time></trkpt><trkpt lat="40.37553895488953" lon="9.682703568827169"><ele>42.0</ele><time>2026-04-30T09:40:03.91Z</time></trkpt><trkpt lat="40.37550881796702" lon="9.682560683656838"><ele>44.0</ele><time>2026-04-30T09:40:04.91Z</time></trkpt><trkpt lat="40.37547921668137" lon="9.682436644487908"><ele>46.0</ele><time>2026-04-30T09:40:05.91Z</time></trkpt><trkpt lat="40.375454334403145" lon="9.682328990403212"><ele>48.0</ele><time>2026-04-30T09:40:06.91Z</time></trkpt><trkpt lat="40.375430492354546" lon="9.682231884923805"><ele>50.0</ele><time>2026-04-30T09:40:07.91Z</time></trkpt><trkpt lat="40.3754097919518" lon="9.682145212870255"><ele>52.0</ele><time>2026-04-30T09:40:08.91Z</time></trkpt><trkpt lat="40.37538745180076" lon="9.68205551856475"><ele>54.0</ele><time>2026-04-30T09:40:09.91Z</time></trkpt><trkpt lat="40.37536350333826" lon="9.681960369026166"><ele>54.0</ele><time>2026-04-30T09:40:10.91Z</time></trkpt><trkpt lat="40.37534776844433" lon="9.681866803924903"><ele>54.00000000000001</ele><time>2026-04-30T09:40:11.91Z</time></trkpt><trkpt lat="40.37534571168295" lon="9.681780809280882"><ele>54.00000000000001</ele><time>2026-04-30T09:40:12.91Z</time></trkpt><trkpt lat="40.37539359070332" lon="9.681628669220725"><ele>54.0</ele><time>2026-04-30T09:40:14.91Z</time></trkpt><trkpt lat="40.375418821173874" lon="9.68154792657729"><ele>54.0</ele><time>2026-04-30T09:40:15.91Z</time></trkpt><trkpt lat="40.375402507378936" lon="9.681388392802742"><ele>54.0</ele><time>2026-04-30T09:40:17.91Z</time></trkpt><trkpt lat="40.37535858844738" lon="9.681318293915579"><ele>54.0</ele><time>2026-04-30T09:40:18.91Z</time></trkpt><trkpt lat="40.37529551749348" lon="9.681270739630476"><ele>54.0</ele><time>2026-04-30T09:40:19.91Z</time></trkpt><trkpt lat="40.37522164073627" lon="9.681258403236695"><ele>54.0</ele><time>2026-04-30T09:40:20.91Z</time></trkpt><trkpt lat="40.37514291335089" lon="9.681279903152088"><ele>54.0</ele><time>2026-04-30T09:40:21.91Z</time></trkpt><trkpt lat="40.3750621723467" lon="9.681326856326837"><ele>54.0</ele><time>2026-04-30T09:40:22.91Z</time></trkpt><trkpt lat="40.37498426567525" lon="9.681370014836936"><ele>54.0</ele><time>2026-04-30T09:40:23.909Z</time></trkpt><trkpt lat="40.37489861071182" lon="9.681387760223396"><ele>54.00000000000001</ele><time>2026-04-30T09:40:24.909Z</time></trkpt><trkpt lat="40.37480931633069" lon="9.681363715985784"><ele>54.00000000000001</ele><time>2026-04-30T09:40:25.909Z</time></trkpt><trkpt lat="40.374726333686354" lon="9.681306050768896"><ele>54.0</ele><time>2026-04-30T09:40:26.909Z</time></trkpt><trkpt lat="40.37463767725723" lon="9.681233858582186"><ele>54.0</ele><time>2026-04-30T09:40:27.909Z</time></trkpt><trkpt lat="40.37454303286522" lon="9.681155704629393"><ele>54.5</ele><time>2026-04-30T09:40:28.909Z</time></trkpt><trkpt lat="40.374442753188966" lon="9.681078217088524"><ele>55.0</ele><time>2026-04-30T09:40:29.909Z</time></trkpt><trkpt lat="40.37433671897365" lon="9.680997575270066"><ele>55.5</ele><time>2026-04-30T09:40:30.909Z</time></trkpt><trkpt lat="40.374232152329355" lon="9.680897761035348"><ele>56.0</ele><time>2026-04-30T09:40:31.909Z</time></trkpt><trkpt lat="40.37411804340149" lon="9.680810944374919"><ele>56.0</ele><time>2026-04-30T09:40:32.909Z</time></trkpt><trkpt lat="40.374015417984324" lon="9.680724785186088"><ele>56.0</ele><time>2026-04-30T09:40:33.909Z</time></trkpt><trkpt lat="40.37391228318897" lon="9.680647620315876"><ele>56.0</ele><time>2026-04-30T09:40:34.909Z</time></trkpt><trkpt lat="40.37381176019383" lon="9.680569668275947"><ele>56.0</ele><time>2026-04-30T09:40:35.909Z</time></trkpt><trkpt lat="40.37372010810019" lon="9.680498738883598"><ele>55.8</ele><time>2026-04-30T09:40:36.909Z</time></trkpt><trkpt lat="40.373634576242125" lon="9.680431887466636"><ele>55.599999999999994</ele><time>2026-04-30T09:40:37.909Z</time></trkpt><trkpt lat="40.37355318232355" lon="9.680367305757136"><ele>55.4</ele><time>2026-04-30T09:40:38.909Z</time></trkpt><trkpt lat="40.373459886689375" lon="9.680288898177706"><ele>55.2</ele><time>2026-04-30T09:40:39.91Z</time></trkpt><trkpt lat="40.37335563282265" lon="9.680211955448405"><ele>55.0</ele><time>2026-04-30T09:40:40.91Z</time></trkpt><trkpt lat="40.37324376896835" lon="9.680121973965301"><ele>55.0</ele><time>2026-04-30T09:40:41.91Z</time></trkpt><trkpt lat="40.373122506902355" lon="9.680027209671787"><ele>55.0</ele><time>2026-04-30T09:40:42.91Z</time></trkpt><trkpt lat="40.372988887298966" lon="9.679923568840687"><ele>55.0</ele><time>2026-04-30T09:40:43.909Z</time></trkpt><trkpt lat="40.37284733654508" lon="9.679809948190169"><ele>56.0</ele><time>2026-04-30T09:40:44.909Z</time></trkpt><trkpt lat="40.37269897019209" lon="9.679695581299402"><ele>57.0</ele><time>2026-04-30T09:40:45.91Z</time></trkpt><trkpt lat="40.37254831188517" lon="9.679572255423043"><ele>58.0</ele><time>2026-04-30T09:40:46.91Z</time></trkpt><trkpt lat="40.37240279920081" lon="9.67945657580998"><ele>58.5</ele><time>2026-04-30T09:40:47.91Z</time></trkpt><trkpt lat="40.37226594970802" lon="9.679349689319654"><ele>59.0</ele><time>2026-04-30T09:40:48.91Z</time></trkpt><trkpt lat="40.37214616314902" lon="9.67924595466372"><ele>59.5</ele><time>2026-04-30T09:40:49.909Z</time></trkpt><trkpt lat="40.372035149191404" lon="9.679157333195715"><ele>60.0</ele><time>2026-04-30T09:40:50.909Z</time></trkpt><trkpt lat="40.37192394126618" lon="9.679065640234084"><ele>60.0</ele><time>2026-04-30T09:40:51.909Z</time></trkpt><trkpt lat="40.37181340619179" lon="9.67896188222722"><ele>60.0</ele><time>2026-04-30T09:40:52.91Z</time></trkpt><trkpt lat="40.37171304969032" lon="9.678830655175336"><ele>60.0</ele><time>2026-04-30T09:40:53.91Z</time></trkpt><trkpt lat="40.371616307927695" lon="9.678683283444403"><ele>60.0</ele><time>2026-04-30T09:40:54.91Z</time></trkpt><trkpt lat="40.371525267710325" lon="9.678515925319987"><ele>61.0</ele><time>2026-04-30T09:40:55.91Z</time></trkpt><trkpt lat="40.37144514336354" lon="9.678333745868773"><ele>62.0</ele><time>2026-04-30T09:40:56.91Z</time></trkpt><trkpt lat="40.37137085794611" lon="9.67814278067774"><ele>63.0</ele><time>2026-04-30T09:40:57.91Z</time></trkpt><trkpt lat="40.371296073067946" lon="9.67796061109211"><ele>64.33333333333333</ele><time>2026-04-30T09:40:58.91Z</time></trkpt><trkpt lat="40.37121777247721" lon="9.677766097999985"><ele>65.66666666666666</ele><time>2026-04-30T09:40:59.91Z</time></trkpt><trkpt lat="40.371138773116556" lon="9.677574910918251"><ele>67.0</ele><time>2026-04-30T09:41:00.909Z</time></trkpt><trkpt lat="40.37106113892148" lon="9.67738819284125"><ele>67.0</ele><time>2026-04-30T09:41:01.909Z</time></trkpt><trkpt lat="40.37098645237216" lon="9.67720168970725"><ele>67.0</ele><time>2026-04-30T09:41:02.909Z</time></trkpt><trkpt lat="40.370912532206205" lon="9.677022701816892"><ele>67.0</ele><time>2026-04-30T09:41:03.909Z</time></trkpt><trkpt lat="40.37083687646518" lon="9.67684041191765"><ele>68.33333333333333</ele><time>2026-04-30T09:41:04.909Z</time></trkpt><trkpt lat="40.370761099969286" lon="9.676654911237598"><ele>69.66666666666667</ele><time>2026-04-30T09:41:05.909Z</time></trkpt><trkpt lat="40.37068788944497" lon="9.676462700263462"><ele>71.0</ele><time>2026-04-30T09:41:06.909Z</time></trkpt><trkpt lat="40.370614563986855" lon="9.67627243040982"><ele>71.66666666666667</ele><time>2026-04-30T09:41:07.909Z</time></trkpt><trkpt lat="40.37053118287088" lon="9.67608650931069"><ele>72.33333333333333</ele><time>2026-04-30T09:41:08.909Z</time></trkpt><trkpt lat="40.37045111579767" lon="9.675895722824967"><ele>73.0</ele><time>2026-04-30T09:41:09.909Z</time></trkpt><trkpt lat="40.37036588232386" lon="9.675705913852415"><ele>73.0</ele><time>2026-04-30T09:41:10.909Z</time></trkpt><trkpt lat="40.37028784862047" lon="9.6755056174132"><ele>73.0</ele><time>2026-04-30T09:41:11.909Z</time></trkpt><trkpt lat="40.370213040779156" lon="9.67532781853667"><ele>73.0</ele><time>2026-04-30T09:41:12.909Z</time></trkpt><trkpt lat="40.370144020773985" lon="9.675158338440125"><ele>74.25</ele><time>2026-04-30T09:41:13.91Z</time></trkpt><trkpt lat="40.370082370331886" lon="9.675007312480819"><ele>75.5</ele><time>2026-04-30T09:41:14.91Z</time></trkpt><trkpt lat="40.370018426386984" lon="9.674853408353409"><ele>76.75</ele><time>2026-04-30T09:41:15.91Z</time></trkpt><trkpt lat="40.3699547457248" lon="9.674711412656043"><ele>78.0</ele><time>2026-04-30T09:41:16.91Z</time></trkpt><trkpt lat="40.36989573513397" lon="9.674566416441447"><ele>78.25</ele><time>2026-04-30T09:41:17.91Z</time></trkpt><trkpt lat="40.3698321003095" lon="9.674414250535152"><ele>78.5</ele><time>2026-04-30T09:41:18.91Z</time></trkpt><trkpt lat="40.36976602085778" lon="9.674252333514803"><ele>78.75</ele><time>2026-04-30T09:41:19.91Z</time></trkpt><trkpt lat="40.36969754112478" lon="9.674094287665962"><ele>79.0</ele><time>2026-04-30T09:41:20.91Z</time></trkpt><trkpt lat="40.36963148146728" lon="9.673927658595286"><ele>79.0</ele><time>2026-04-30T09:41:21.91Z</time></trkpt><trkpt lat="40.36956101239512" lon="9.67376802935542"><ele>79.0</ele><time>2026-04-30T09:41:22.91Z</time></trkpt><trkpt lat="40.36949047942067" lon="9.673601551665744"><ele>79.0</ele><time>2026-04-30T09:41:23.91Z</time></trkpt><trkpt lat="40.369409295963315" lon="9.673430445975862"><ele>79.0</ele><time>2026-04-30T09:41:24.91Z</time></trkpt><trkpt lat="40.36933686396963" lon="9.673263517974705"><ele>80.33333333333333</ele><time>2026-04-30T09:41:25.91Z</time></trkpt><trkpt lat="40.369227822710414" lon="9.673121851270972"><ele>81.66666666666667</ele><time>2026-04-30T09:41:26.91Z</time></trkpt><trkpt lat="40.36910949176981" lon="9.67299458051052"><ele>83.0</ele><time>2026-04-30T09:41:27.91Z</time></trkpt><trkpt lat="40.368983774810445" lon="9.672879978385652"><ele>84.66666666666667</ele><time>2026-04-30T09:41:28.91Z</time></trkpt><trkpt lat="40.36883987189748" lon="9.672770794421767"><ele>86.33333333333333</ele><time>2026-04-30T09:41:29.91Z</time></trkpt><trkpt lat="40.368688649392794" lon="9.67266070160471"><ele>88.0</ele><time>2026-04-30T09:41:30.91Z</time></trkpt><trkpt lat="40.36853413878228" lon="9.672541718446544"><ele>88.0</ele><time>2026-04-30T09:41:31.91Z</time></trkpt><trkpt lat="40.368396661527306" lon="9.672425835150538"><ele>88.0</ele><time>2026-04-30T09:41:32.91Z</time></trkpt><trkpt lat="40.36826491295867" lon="9.672314967093069"><ele>88.0</ele><time>2026-04-30T09:41:33.91Z</time></trkpt><trkpt lat="40.368149652933646" lon="9.672214188784517"><ele>88.0</ele><time>2026-04-30T09:41:34.91Z</time></trkpt><trkpt lat="40.36804266395372" lon="9.672126791426978"><ele>88.0</ele><time>2026-04-30T09:41:35.91Z</time></trkpt><trkpt lat="40.367932509667085" lon="9.67205213502179"><ele>88.0</ele><time>2026-04-30T09:41:36.91Z</time></trkpt><trkpt lat="40.36781465524995" lon="9.671952154007018"><ele>88.0</ele><time>2026-04-30T09:41:37.91Z</time></trkpt><trkpt lat="40.367675169536234" lon="9.67185706689201"><ele>90.33333333333333</ele><time>2026-04-30T09:41:38.91Z</time></trkpt><trkpt lat="40.3675174133871" lon="9.671767694459554"><ele>92.66666666666667</ele><time>2026-04-30T09:41:39.91Z</time></trkpt><trkpt lat="40.36736378771792" lon="9.671675408822102"><ele>95.0</ele><time>2026-04-30T09:41:40.91Z</time></trkpt><trkpt lat="40.367200616395436" lon="9.671585214297622"><ele>95.0</ele><time>2026-04-30T09:41:41.91Z</time></trkpt><trkpt lat="40.36703674187438" lon="9.671499721191932"><ele>95.0</ele><time>2026-04-30T09:41:42.91Z</time></trkpt><trkpt lat="40.36687629950993" lon="9.671420405559305"><ele>95.0</ele><time>2026-04-30T09:41:43.91Z</time></trkpt><trkpt lat="40.36671949159546" lon="9.671341557120183"><ele>95.0</ele><time>2026-04-30T09:41:44.91Z</time></trkpt><trkpt lat="40.36656004503332" lon="9.671260608152819"><ele>95.0</ele><time>2026-04-30T09:41:45.91Z</time></trkpt><trkpt lat="40.366406180165654" lon="9.671180907999238"><ele>95.0</ele><time>2026-04-30T09:41:46.91Z</time></trkpt><trkpt lat="40.36625579613594" lon="9.671102039852157"><ele>96.75</ele><time>2026-04-30T09:41:47.91Z</time></trkpt><trkpt lat="40.366113905766184" lon="9.671026018898068"><ele>98.5</ele><time>2026-04-30T09:41:48.91Z</time></trkpt><trkpt lat="40.36597678639764" lon="9.670955719400686"><ele>100.25</ele><time>2026-04-30T09:41:49.91Z</time></trkpt><trkpt lat="40.36584950580202" lon="9.670890766114965"><ele>102.0</ele><time>2026-04-30T09:41:50.91Z</time></trkpt><trkpt lat="40.365736008611" lon="9.670833696268131"><ele>102.0</ele><time>2026-04-30T09:41:51.91Z</time></trkpt><trkpt lat="40.365627276782064" lon="9.670773193782459"><ele>102.0</ele><time>2026-04-30T09:41:52.91Z</time></trkpt><trkpt lat="40.36552165145593" lon="9.670715173600406"><ele>102.0</ele><time>2026-04-30T09:41:53.91Z</time></trkpt><trkpt lat="40.36541345410373" lon="9.670667258661796"><ele>102.0</ele><time>2026-04-30T09:41:54.91Z</time></trkpt><trkpt lat="40.365309704120094" lon="9.670617106077044"><ele>103.0</ele><time>2026-04-30T09:41:55.91Z</time></trkpt><trkpt lat="40.36520721564666" lon="9.670561999575444"><ele>104.0</ele><time>2026-04-30T09:41:56.91Z</time></trkpt><trkpt lat="40.36510832700052" lon="9.670504818427773"><ele>104.99999999999999</ele><time>2026-04-30T09:41:57.91Z</time></trkpt><trkpt lat="40.365012111055684" lon="9.670437865302747"><ele>106.0</ele><time>2026-04-30T09:41:58.91Z</time></trkpt><trkpt lat="40.36492290646843" lon="9.670353374490068"><ele>107.0</ele><time>2026-04-30T09:41:59.91Z</time></trkpt><trkpt lat="40.36484105248743" lon="9.670265593530278"><ele>107.0</ele><time>2026-04-30T09:42:00.91Z</time></trkpt><trkpt lat="40.364765084024064" lon="9.670166987416195"><ele>106.99999999999999</ele><time>2026-04-30T09:42:01.91Z</time></trkpt><trkpt lat="40.36469160659545" lon="9.67006061177293"><ele>106.99999999999999</ele><time>2026-04-30T09:42:02.91Z</time></trkpt><trkpt lat="40.36461924753421" lon="9.669943713773696"><ele>107.0</ele><time>2026-04-30T09:42:03.91Z</time></trkpt><trkpt lat="40.364556399336685" lon="9.669815851493249"><ele>107.0</ele><time>2026-04-30T09:42:04.91Z</time></trkpt><trkpt lat="40.36449127835224" lon="9.6696831503811"><ele>107.5</ele><time>2026-04-30T09:42:05.91Z</time></trkpt><trkpt lat="40.36442781854512" lon="9.669544407822366"><ele>108.0</ele><time>2026-04-30T09:42:06.91Z</time></trkpt><trkpt lat="40.36437238768124" lon="9.669404960326414"><ele>108.5</ele><time>2026-04-30T09:42:07.91Z</time></trkpt><trkpt lat="40.364312275155115" lon="9.669275166748816"><ele>109.0</ele><time>2026-04-30T09:42:08.91Z</time></trkpt><trkpt lat="40.36424932328302" lon="9.669146563663986"><ele>109.80000000000001</ele><time>2026-04-30T09:42:09.91Z</time></trkpt><trkpt lat="40.36417892733308" lon="9.669028460764189"><ele>110.60000000000001</ele><time>2026-04-30T09:42:10.91Z</time></trkpt><trkpt lat="40.3641038728461" lon="9.668925435709903"><ele>111.4</ele><time>2026-04-30T09:42:11.91Z</time></trkpt><trkpt lat="40.364026636876645" lon="9.668838286413475"><ele>112.2</ele><time>2026-04-30T09:42:12.91Z</time></trkpt><trkpt lat="40.3639413957299" lon="9.668765062783743"><ele>113.0</ele><time>2026-04-30T09:42:13.91Z</time></trkpt><trkpt lat="40.36384835440813" lon="9.668692702853019"><ele>113.0</ele><time>2026-04-30T09:42:14.91Z</time></trkpt><trkpt lat="40.3637528492435" lon="9.668629051344261"><ele>113.00000000000001</ele><time>2026-04-30T09:42:15.91Z</time></trkpt><trkpt lat="40.36365924894745" lon="9.668576602072875"><ele>113.00000000000001</ele><time>2026-04-30T09:42:16.91Z</time></trkpt><trkpt lat="40.36355465103623" lon="9.668531128475262"><ele>113.0</ele><time>2026-04-30T09:42:17.91Z</time></trkpt><trkpt lat="40.36345919830627" lon="9.668483351545722"><ele>113.0</ele><time>2026-04-30T09:42:18.91Z</time></trkpt><trkpt lat="40.363366195330066" lon="9.668431088601665"><ele>113.60000000000001</ele><time>2026-04-30T09:42:19.91Z</time></trkpt><trkpt lat="40.36327641120999" lon="9.668376113753045"><ele>114.20000000000002</ele><time>2026-04-30T09:42:20.91Z</time></trkpt><trkpt lat="40.36318821660184" lon="9.668310986878124"><ele>114.8</ele><time>2026-04-30T09:42:21.91Z</time></trkpt><trkpt lat="40.36310508367939" lon="9.668242126944662"><ele>115.4</ele><time>2026-04-30T09:42:22.91Z</time></trkpt><trkpt lat="40.36302298308099" lon="9.668149657735386"><ele>116.0</ele><time>2026-04-30T09:42:23.91Z</time></trkpt><trkpt lat="40.36294750365349" lon="9.668046915093926"><ele>113.0</ele><time>2026-04-30T09:42:24.91Z</time></trkpt><trkpt lat="40.36288018360286" lon="9.667925828962145"><ele>110.0</ele><time>2026-04-30T09:42:25.91Z</time></trkpt><trkpt lat="40.36281828983071" lon="9.667791970304734"><ele>107.0</ele><time>2026-04-30T09:42:26.91Z</time></trkpt><trkpt lat="40.36275514367099" lon="9.66764088110296"><ele>104.0</ele><time>2026-04-30T09:42:27.91Z</time></trkpt><trkpt lat="40.36269063431573" lon="9.667482492520728"><ele>104.25</ele><time>2026-04-30T09:42:28.91Z</time></trkpt><trkpt lat="40.3626202015785" lon="9.667321148495597"><ele>104.5</ele><time>2026-04-30T09:42:29.91Z</time></trkpt><trkpt lat="40.36255286428104" lon="9.667164717113248"><ele>104.75</ele><time>2026-04-30T09:42:30.91Z</time></trkpt><trkpt lat="40.362493351354985" lon="9.667022737000416"><ele>105.0</ele><time>2026-04-30T09:42:31.91Z</time></trkpt><trkpt lat="40.36244239772846" lon="9.66689638210271"><ele>105.0</ele><time>2026-04-30T09:42:32.91Z</time></trkpt><trkpt lat="40.36239819810712" lon="9.666776876597867"><ele>105.0</ele><time>2026-04-30T09:42:33.91Z</time></trkpt><trkpt lat="40.36236029488007" lon="9.666664605719994"><ele>105.0</ele><time>2026-04-30T09:42:34.91Z</time></trkpt><trkpt lat="40.36234381208397" lon="9.66654898779609"><ele>105.0</ele><time>2026-04-30T09:42:35.909Z</time></trkpt><trkpt lat="40.36237029612403" lon="9.66643933093659"><ele>105.0</ele><time>2026-04-30T09:42:36.909Z</time></trkpt><trkpt lat="40.362429302761655" lon="9.66634602857324"><ele>105.0</ele><time>2026-04-30T09:42:37.909Z</time></trkpt><trkpt lat="40.3624924008223" lon="9.666267719435508"><ele>105.0</ele><time>2026-04-30T09:42:38.909Z</time></trkpt><trkpt lat="40.3625344822442" lon="9.666174337047636"><ele>105.0</ele><time>2026-04-30T09:42:39.909Z</time></trkpt><trkpt lat="40.36255425046529" lon="9.666070268734549"><ele>105.0</ele><time>2026-04-30T09:42:40.909Z</time></trkpt><trkpt lat="40.362552684523784" lon="9.665955087274611"><ele>105.0</ele><time>2026-04-30T09:42:41.909Z</time></trkpt><trkpt lat="40.362531822432935" lon="9.665856431338726"><ele>105.0</ele><time>2026-04-30T09:42:42.909Z</time></trkpt><trkpt lat="40.362498008679715" lon="9.665758944300078"><ele>107.4</ele><time>2026-04-30T09:42:43.909Z</time></trkpt><trkpt lat="40.36244319127069" lon="9.665665632814163"><ele>109.8</ele><time>2026-04-30T09:42:44.909Z</time></trkpt><trkpt lat="40.362375733416044" lon="9.665572782987056"><ele>112.19999999999999</ele><time>2026-04-30T09:42:45.91Z</time></trkpt><trkpt lat="40.36231165266489" lon="9.665467422772672"><ele>114.6</ele><time>2026-04-30T09:42:46.91Z</time></trkpt><trkpt lat="40.36225361276227" lon="9.665357111716665"><ele>117.0</ele><time>2026-04-30T09:42:47.91Z</time></trkpt><trkpt lat="40.36220661057347" lon="9.665236509844895"><ele>117.39999999999999</ele><time>2026-04-30T09:42:48.91Z</time></trkpt><trkpt lat="40.36216688742396" lon="9.665118868481816"><ele>117.79999999999998</ele><time>2026-04-30T09:42:49.91Z</time></trkpt><trkpt lat="40.36212894255987" lon="9.665001579480338"><ele>118.2</ele><time>2026-04-30T09:42:50.91Z</time></trkpt><trkpt lat="40.362101040136494" lon="9.664879341453076"><ele>118.6</ele><time>2026-04-30T09:42:51.91Z</time></trkpt><trkpt lat="40.36207975130425" lon="9.664758771252105"><ele>119.0</ele><time>2026-04-30T09:42:52.91Z</time></trkpt><trkpt lat="40.36206361277292" lon="9.664632381602818"><ele>119.0</ele><time>2026-04-30T09:42:53.91Z</time></trkpt><trkpt lat="40.36205307017238" lon="9.664504123602606"><ele>119.0</ele><time>2026-04-30T09:42:54.91Z</time></trkpt><trkpt lat="40.36204090964375" lon="9.664387120349852"><ele>119.0</ele><time>2026-04-30T09:42:55.91Z</time></trkpt><trkpt lat="40.362030063129154" lon="9.664265531343565"><ele>119.0</ele><time>2026-04-30T09:42:56.91Z</time></trkpt><trkpt lat="40.362017729084435" lon="9.664145296713375"><ele>119.0</ele><time>2026-04-30T09:42:57.91Z</time></trkpt><trkpt lat="40.36200474913092" lon="9.66402404849135"><ele>119.6</ele><time>2026-04-30T09:42:58.91Z</time></trkpt><trkpt lat="40.3619902165205" lon="9.663898265978517"><ele>120.2</ele><time>2026-04-30T09:42:59.91Z</time></trkpt><trkpt lat="40.3619778032404" lon="9.663765301552639"><ele>120.79999999999998</ele><time>2026-04-30T09:43:00.91Z</time></trkpt><trkpt lat="40.36196693339944" lon="9.663626448942956"><ele>121.39999999999999</ele><time>2026-04-30T09:43:01.91Z</time></trkpt><trkpt lat="40.3619505786269" lon="9.663475867122358"><ele>122.0</ele><time>2026-04-30T09:43:02.91Z</time></trkpt><trkpt lat="40.36193026190991" lon="9.663318844655283"><ele>123.0</ele><time>2026-04-30T09:43:03.91Z</time></trkpt><trkpt lat="40.36191416308332" lon="9.663150254401849"><ele>124.0</ele><time>2026-04-30T09:43:04.91Z</time></trkpt><trkpt lat="40.36189574925166" lon="9.66296889714267"><ele>125.0</ele><time>2026-04-30T09:43:05.91Z</time></trkpt><trkpt lat="40.36188053760852" lon="9.662779400738039"><ele>126.0</ele><time>2026-04-30T09:43:06.91Z</time></trkpt><trkpt lat="40.361859391764476" lon="9.662587436582303"><ele>126.0</ele><time>2026-04-30T09:43:07.91Z</time></trkpt><trkpt lat="40.361839009502354" lon="9.662403664968272"><ele>126.0</ele><time>2026-04-30T09:43:08.91Z</time></trkpt><trkpt lat="40.361819236083186" lon="9.6622285535063"><ele>126.0</ele><time>2026-04-30T09:43:09.91Z</time></trkpt><trkpt lat="40.36179998899811" lon="9.66206383019447"><ele>126.0</ele><time>2026-04-30T09:43:10.91Z</time></trkpt><trkpt lat="40.361784353871386" lon="9.661901801890924"><ele>126.0</ele><time>2026-04-30T09:43:11.91Z</time></trkpt><trkpt lat="40.36176869275507" lon="9.66174715934644"><ele>126.0</ele><time>2026-04-30T09:43:12.91Z</time></trkpt><trkpt lat="40.3617588394631" lon="9.661597203608633"><ele>126.0</ele><time>2026-04-30T09:43:13.91Z</time></trkpt><trkpt lat="40.361748842137565" lon="9.661455925125138"><ele>126.0</ele><time>2026-04-30T09:43:14.91Z</time></trkpt><trkpt lat="40.3617363830134" lon="9.66132117485738"><ele>126.0</ele><time>2026-04-30T09:43:15.91Z</time></trkpt><trkpt lat="40.36173126354123" lon="9.66119533671544"><ele>126.19999999999999</ele><time>2026-04-30T09:43:16.91Z</time></trkpt><trkpt lat="40.361734033868125" lon="9.661072619495615"><ele>126.39999999999999</ele><time>2026-04-30T09:43:17.91Z</time></trkpt><trkpt lat="40.36175333906279" lon="9.660954200299969"><ele>126.6</ele><time>2026-04-30T09:43:18.91Z</time></trkpt><trkpt lat="40.361781032036035" lon="9.660839559467618"><ele>126.8</ele><time>2026-04-30T09:43:19.91Z</time></trkpt><trkpt lat="40.36182339337773" lon="9.660734807498285"><ele>127.0</ele><time>2026-04-30T09:43:20.91Z</time></trkpt><trkpt lat="40.36186991530361" lon="9.660636825586822"><ele>127.0</ele><time>2026-04-30T09:43:21.91Z</time></trkpt><trkpt lat="40.361898613266746" lon="9.660551579251145"><ele>127.0</ele><time>2026-04-30T09:43:22.91Z</time></trkpt><trkpt lat="40.36192011345824" lon="9.660461884301489"><ele>127.0</ele><time>2026-04-30T09:43:23.91Z</time></trkpt><trkpt lat="40.361926846784336" lon="9.660378534683678"><ele>127.0</ele><time>2026-04-30T09:43:24.91Z</time></trkpt><trkpt lat="40.361908818191786" lon="9.660298237061307"><ele>127.0</ele><time>2026-04-30T09:43:25.91Z</time></trkpt><trkpt lat="40.36187507198177" lon="9.660223691431696"><ele>127.0</ele><time>2026-04-30T09:43:26.91Z</time></trkpt><trkpt lat="40.36182634787689" lon="9.660160075831065"><ele>127.0</ele><time>2026-04-30T09:43:27.91Z</time></trkpt><trkpt lat="40.36175746833544" lon="9.66010853337087"><ele>128.2</ele><time>2026-04-30T09:43:28.91Z</time></trkpt><trkpt lat="40.3616828423107" lon="9.660069122550976"><ele>129.39999999999998</ele><time>2026-04-30T09:43:29.91Z</time></trkpt><trkpt lat="40.36160230471039" lon="9.660035255286573"><ele>130.60000000000002</ele><time>2026-04-30T09:43:30.91Z</time></trkpt><trkpt lat="40.361515494314574" lon="9.65999084981418"><ele>131.8</ele><time>2026-04-30T09:43:31.91Z</time></trkpt><trkpt lat="40.36143315899818" lon="9.659922163771729"><ele>133.0</ele><time>2026-04-30T09:43:32.91Z</time></trkpt><trkpt lat="40.36135956829064" lon="9.659832607705177"><ele>130.5</ele><time>2026-04-30T09:43:33.91Z</time></trkpt><trkpt lat="40.361297932428755" lon="9.65971170381508"><ele>128.0</ele><time>2026-04-30T09:43:34.91Z</time></trkpt><trkpt lat="40.36126199359328" lon="9.659553280779352"><ele>125.5</ele><time>2026-04-30T09:43:35.91Z</time></trkpt><trkpt lat="40.36120113773527" lon="9.659342775572933"><ele>123.0</ele><time>2026-04-30T09:43:36.91Z</time></trkpt><trkpt lat="40.36112107851667" lon="9.659110650495176"><ele>123.0</ele><time>2026-04-30T09:43:37.91Z</time></trkpt><trkpt lat="40.36105636730535" lon="9.65885654195771"><ele>123.0</ele><time>2026-04-30T09:43:38.91Z</time></trkpt><trkpt lat="40.36098879300643" lon="9.658609328128993"><ele>123.0</ele><time>2026-04-30T09:43:39.91Z</time></trkpt><trkpt lat="40.36092521032319" lon="9.658361313360153"><ele>124.33333333333334</ele><time>2026-04-30T09:43:40.91Z</time></trkpt><trkpt lat="40.36084732586527" lon="9.658127567259395"><ele>125.66666666666667</ele><time>2026-04-30T09:43:41.91Z</time></trkpt><trkpt lat="40.36074423762483" lon="9.657899565157686"><ele>127.0</ele><time>2026-04-30T09:43:42.91Z</time></trkpt><trkpt lat="40.36060915429989" lon="9.65767944701549"><ele>126.33333333333334</ele><time>2026-04-30T09:43:43.91Z</time></trkpt><trkpt lat="40.36046566724737" lon="9.657463621990784"><ele>125.66666666666666</ele><time>2026-04-30T09:43:44.91Z</time></trkpt><trkpt lat="40.3603177437508" lon="9.657245040920953"><ele>125.0</ele><time>2026-04-30T09:43:45.91Z</time></trkpt><trkpt lat="40.36017751763881" lon="9.65703282254326"><ele>127.0</ele><time>2026-04-30T09:43:46.91Z</time></trkpt><trkpt lat="40.36004993283153" lon="9.656845521487433"><ele>129.0</ele><time>2026-04-30T09:43:47.91Z</time></trkpt><trkpt lat="40.35994560267313" lon="9.656688350388619"><ele>131.0</ele><time>2026-04-30T09:43:48.91Z</time></trkpt><trkpt lat="40.35983205908319" lon="9.656560272371575"><ele>131.0</ele><time>2026-04-30T09:43:49.91Z</time></trkpt><trkpt lat="40.35969885483861" lon="9.656490354482667"><ele>131.0</ele><time>2026-04-30T09:43:50.91Z</time></trkpt><trkpt lat="40.35955128323111" lon="9.65648169509315"><ele>131.0</ele><time>2026-04-30T09:43:51.91Z</time></trkpt><trkpt lat="40.35941075216198" lon="9.656548723832497"><ele>131.0</ele><time>2026-04-30T09:43:52.91Z</time></trkpt><trkpt lat="40.3592782245604" lon="9.65667387589973"><ele>131.0</ele><time>2026-04-30T09:43:53.91Z</time></trkpt><trkpt lat="40.35917232692835" lon="9.656838659928273"><ele>131.0</ele><time>2026-04-30T09:43:54.91Z</time></trkpt><trkpt lat="40.359095229443426" lon="9.657025604770725"><ele>131.0</ele><time>2026-04-30T09:43:55.91Z</time></trkpt><trkpt lat="40.35904360903545" lon="9.657258337693493"><ele>130.33333333333331</ele><time>2026-04-30T09:43:56.91Z</time></trkpt><trkpt lat="40.35899566113052" lon="9.657492889115339"><ele>129.66666666666666</ele><time>2026-04-30T09:43:57.91Z</time></trkpt><trkpt lat="40.35892407195485" lon="9.657696466204518"><ele>129.0</ele><time>2026-04-30T09:43:58.91Z</time></trkpt><trkpt lat="40.358802825030104" lon="9.657843359671682"><ele>129.0</ele><time>2026-04-30T09:43:59.91Z</time></trkpt><trkpt lat="40.35868854128487" lon="9.657970195614313"><ele>129.0</ele><time>2026-04-30T09:44:00.909Z</time></trkpt><trkpt lat="40.358543193175805" lon="9.658091275649717"><ele>129.0</ele><time>2026-04-30T09:44:01.909Z</time></trkpt><trkpt lat="40.3583902758068" lon="9.658166188880644"><ele>129.0</ele><time>2026-04-30T09:44:02.909Z</time></trkpt><trkpt lat="40.358221094503634" lon="9.658206330624617"><ele>129.0</ele><time>2026-04-30T09:44:03.909Z</time></trkpt><trkpt lat="40.35804931628976" lon="9.658214986353245"><ele>129.0</ele><time>2026-04-30T09:44:04.909Z</time></trkpt><trkpt lat="40.357886824235514" lon="9.658147622967281"><ele>129.0</ele><time>2026-04-30T09:44:05.909Z</time></trkpt><trkpt lat="40.35775479963188" lon="9.658035619808556"><ele>129.0</ele><time>2026-04-30T09:44:06.909Z</time></trkpt><trkpt lat="40.357642073110206" lon="9.657879141936391"><ele>129.0</ele><time>2026-04-30T09:44:07.91Z</time></trkpt><trkpt lat="40.35758584040238" lon="9.657669571789269"><ele>129.0</ele><time>2026-04-30T09:44:08.91Z</time></trkpt><trkpt lat="40.3575170610885" lon="9.657443981189202"><ele>129.0</ele><time>2026-04-30T09:44:09.911Z</time></trkpt><trkpt lat="40.35742695113347" lon="9.657218349544694"><ele>129.0</ele><time>2026-04-30T09:44:10.911Z</time></trkpt><trkpt lat="40.357325088744645" lon="9.65700660535015"><ele>130.33333333333334</ele><time>2026-04-30T09:44:11.911Z</time></trkpt><trkpt lat="40.357205148159615" lon="9.656831639403906"><ele>131.66666666666669</ele><time>2026-04-30T09:44:12.912Z</time></trkpt><trkpt lat="40.35708442803561" lon="9.656696281088836"><ele>133.0</ele><time>2026-04-30T09:44:13.912Z</time></trkpt><trkpt lat="40.356972968075695" lon="9.656619992228656"><ele>133.0</ele><time>2026-04-30T09:44:14.912Z</time></trkpt><trkpt lat="40.356860371441805" lon="9.656598662007687"><ele>133.0</ele><time>2026-04-30T09:44:15.913Z</time></trkpt><trkpt lat="40.35674291966964" lon="9.656634980013346"><ele>133.0</ele><time>2026-04-30T09:44:16.913Z</time></trkpt><trkpt lat="40.35663321542601" lon="9.656700717708079"><ele>133.0</ele><time>2026-04-30T09:44:17.913Z</time></trkpt><trkpt lat="40.356542866146434" lon="9.656768679447332"><ele>133.0</ele><time>2026-04-30T09:44:18.913Z</time></trkpt><trkpt lat="40.3565035184517" lon="9.656869040216403"><ele>133.0</ele><time>2026-04-30T09:44:19.914Z</time></trkpt><trkpt lat="40.35651085660745" lon="9.65698252443152"><ele>133.0</ele><time>2026-04-30T09:44:20.914Z</time></trkpt><trkpt lat="40.356560741717736" lon="9.657132295639409"><ele>133.0</ele><time>2026-04-30T09:44:21.914Z</time></trkpt><trkpt lat="40.356644256335585" lon="9.657303360417362"><ele>131.0</ele><time>2026-04-30T09:44:22.914Z</time></trkpt><trkpt lat="40.35667628049008" lon="9.657487645960918"><ele>129.0</ele><time>2026-04-30T09:44:23.914Z</time></trkpt><trkpt lat="40.35666184916282" lon="9.657643916756754"><ele>127.0</ele><time>2026-04-30T09:44:24.914Z</time></trkpt><trkpt lat="40.35661253586041" lon="9.657804548295102"><ele>125.0</ele><time>2026-04-30T09:44:25.915Z</time></trkpt><trkpt lat="40.35649754426864" lon="9.657904324206664"><ele>126.66666666666666</ele><time>2026-04-30T09:44:26.915Z</time></trkpt><trkpt lat="40.356351412154254" lon="9.657960209972495"><ele>128.33333333333334</ele><time>2026-04-30T09:44:27.915Z</time></trkpt><trkpt lat="40.35618380969663" lon="9.658034478374097"><ele>130.0</ele><time>2026-04-30T09:44:28.915Z</time></trkpt><trkpt lat="40.356043744520804" lon="9.658129573663267"><ele>130.0</ele><time>2026-04-30T09:44:29.915Z</time></trkpt><trkpt lat="40.35592508301123" lon="9.658231363893544"><ele>130.0</ele><time>2026-04-30T09:44:30.915Z</time></trkpt><trkpt lat="40.355857853157985" lon="9.658395369166495"><ele>130.0</ele><time>2026-04-30T09:44:31.915Z</time></trkpt><trkpt lat="40.355871252893095" lon="9.65863899593524"><ele>129.33333333333334</ele><time>2026-04-30T09:44:32.915Z</time></trkpt><trkpt lat="40.35589182361382" lon="9.658911866670326"><ele>128.66666666666666</ele><time>2026-04-30T09:44:33.915Z</time></trkpt><trkpt lat="40.35591618880709" lon="9.659175999421912"><ele>128.0</ele><time>2026-04-30T09:44:34.916Z</time></trkpt><trkpt lat="40.355896541383466" lon="9.659408573773392"><ele>127.33333333333333</ele><time>2026-04-30T09:44:35.916Z</time></trkpt><trkpt lat="40.355865171590786" lon="9.659609720542726"><ele>126.66666666666666</ele><time>2026-04-30T09:44:36.916Z</time></trkpt><trkpt lat="40.355798026989156" lon="9.659787892721605"><ele>126.0</ele><time>2026-04-30T09:44:37.916Z</time></trkpt><trkpt lat="40.35569351377126" lon="9.659943517115524"><ele>126.0</ele><time>2026-04-30T09:44:38.916Z</time></trkpt><trkpt lat="40.35554453529273" lon="9.660097791886196"><ele>126.0</ele><time>2026-04-30T09:44:39.916Z</time></trkpt><trkpt lat="40.35539294011412" lon="9.66022664784596"><ele>126.0</ele><time>2026-04-30T09:44:40.916Z</time></trkpt><trkpt lat="40.35524125055747" lon="9.66029824414776"><ele>126.33333333333334</ele><time>2026-04-30T09:44:41.916Z</time></trkpt><trkpt lat="40.35507620995624" lon="9.660312641058036"><ele>126.66666666666667</ele><time>2026-04-30T09:44:42.916Z</time></trkpt><trkpt lat="40.354909993537774" lon="9.66026328672272"><ele>127.0</ele><time>2026-04-30T09:44:43.916Z</time></trkpt><trkpt lat="40.354741991021406" lon="9.660153295869655"><ele>128.0</ele><time>2026-04-30T09:44:44.916Z</time></trkpt><trkpt lat="40.354530906189055" lon="9.660008754334724"><ele>129.0</ele><time>2026-04-30T09:44:45.916Z</time></trkpt><trkpt lat="40.35428438751229" lon="9.659838759725897"><ele>129.0</ele><time>2026-04-30T09:44:46.916Z</time></trkpt><trkpt lat="40.35400932818158" lon="9.659668340843053"><ele>129.0</ele><time>2026-04-30T09:44:47.916Z</time></trkpt><trkpt lat="40.35372013005992" lon="9.659471351092819"><ele>131.0</ele><time>2026-04-30T09:44:48.916Z</time></trkpt><trkpt lat="40.35344097575343" lon="9.659268525128578"><ele>133.0</ele><time>2026-04-30T09:44:49.916Z</time></trkpt><trkpt lat="40.353185743638214" lon="9.65909362026234"><ele>132.33333333333334</ele><time>2026-04-30T09:44:50.916Z</time></trkpt><trkpt lat="40.35298293460077" lon="9.658947445371933"><ele>131.66666666666666</ele><time>2026-04-30T09:44:51.918Z</time></trkpt><trkpt lat="40.35281280452872" lon="9.658822181906539"><ele>131.0</ele><time>2026-04-30T09:44:52.917Z</time></trkpt><trkpt lat="40.35265338400312" lon="9.658699777463264"><ele>132.33333333333331</ele><time>2026-04-30T09:44:53.917Z</time></trkpt><trkpt lat="40.35250668436658" lon="9.658578530724679"><ele>133.66666666666666</ele><time>2026-04-30T09:44:54.917Z</time></trkpt><trkpt lat="40.35237859654254" lon="9.658440308332718"><ele>135.0</ele><time>2026-04-30T09:44:55.918Z</time></trkpt><trkpt lat="40.3522750860858" lon="9.658281979233587"><ele>135.0</ele><time>2026-04-30T09:44:56.918Z</time></trkpt><trkpt lat="40.35220671296106" lon="9.65809386812923"><ele>135.0</ele><time>2026-04-30T09:44:57.917Z</time></trkpt><trkpt lat="40.35211898135996" lon="9.657919702851776"><ele>135.0</ele><time>2026-04-30T09:44:58.917Z</time></trkpt><trkpt lat="40.35205105850379" lon="9.657730939570394"><ele>135.0</ele><time>2026-04-30T09:44:59.917Z</time></trkpt><trkpt lat="40.35198910215403" lon="9.657555845040028"><ele>135.0</ele><time>2026-04-30T09:45:00.917Z</time></trkpt><trkpt lat="40.35193138482993" lon="9.657404555293613"><ele>135.0</ele><time>2026-04-30T09:45:01.917Z</time></trkpt><trkpt lat="40.35186958737677" lon="9.657251421057872"><ele>135.0</ele><time>2026-04-30T09:45:02.917Z</time></trkpt><trkpt lat="40.35180932382139" lon="9.657095961135596"><ele>136.25</ele><time>2026-04-30T09:45:03.917Z</time></trkpt><trkpt lat="40.35174897083293" lon="9.656943010868925"><ele>137.5</ele><time>2026-04-30T09:45:04.918Z</time></trkpt><trkpt lat="40.35168816035195" lon="9.656797496075319"><ele>138.75</ele><time>2026-04-30T09:45:05.918Z</time></trkpt><trkpt lat="40.3516180395123" lon="9.656668724919129"><ele>140.0</ele><time>2026-04-30T09:45:06.918Z</time></trkpt><trkpt lat="40.35152727074714" lon="9.656580846747717"><ele>140.0</ele><time>2026-04-30T09:45:07.918Z</time></trkpt><trkpt lat="40.35141795037308" lon="9.65653419463946"><ele>140.0</ele><time>2026-04-30T09:45:08.918Z</time></trkpt><trkpt lat="40.351297489546" lon="9.656555483782025"><ele>140.0</ele><time>2026-04-30T09:45:09.918Z</time></trkpt><trkpt lat="40.35117869531992" lon="9.656622539311543"><ele>140.0</ele><time>2026-04-30T09:45:10.918Z</time></trkpt><trkpt lat="40.3510609553519" lon="9.656718911992275"><ele>140.5</ele><time>2026-04-30T09:45:11.918Z</time></trkpt><trkpt lat="40.35093634259246" lon="9.656790424289722"><ele>141.0</ele><time>2026-04-30T09:45:12.918Z</time></trkpt><trkpt lat="40.35080847223249" lon="9.656870581328478"><ele>141.5</ele><time>2026-04-30T09:45:13.918Z</time></trkpt><trkpt lat="40.35068523859291" lon="9.65691911196354"><ele>142.0</ele><time>2026-04-30T09:45:14.918Z</time></trkpt><trkpt lat="40.35055837923748" lon="9.656917145798971"><ele>141.75</ele><time>2026-04-30T09:45:15.918Z</time></trkpt><trkpt lat="40.35043136454416" lon="9.656860024970964"><ele>141.5</ele><time>2026-04-30T09:45:16.918Z</time></trkpt><trkpt lat="40.35033430184873" lon="9.656737752465677"><ele>141.25</ele><time>2026-04-30T09:45:17.918Z</time></trkpt><trkpt lat="40.35026673120643" lon="9.656565066765879"><ele>141.0</ele><time>2026-04-30T09:45:18.918Z</time></trkpt><trkpt lat="40.350210727551556" lon="9.656367691895634"><ele>141.0</ele><time>2026-04-30T09:45:19.918Z</time></trkpt><trkpt lat="40.350130860646686" lon="9.656174092658413"><ele>141.0</ele><time>2026-04-30T09:45:20.918Z</time></trkpt><trkpt lat="40.350051382897114" lon="9.655993423513541"><ele>141.0</ele><time>2026-04-30T09:45:21.918Z</time></trkpt><trkpt lat="40.349938793340854" lon="9.655826503736613"><ele>141.66666666666666</ele><time>2026-04-30T09:45:22.918Z</time></trkpt><trkpt lat="40.34982562332723" lon="9.655645076922779"><ele>142.33333333333331</ele><time>2026-04-30T09:45:23.918Z</time></trkpt><trkpt lat="40.34971120866214" lon="9.655466156773587"><ele>143.0</ele><time>2026-04-30T09:45:24.918Z</time></trkpt><trkpt lat="40.34958754934976" lon="9.655316703423338"><ele>144.33333333333331</ele><time>2026-04-30T09:45:25.918Z</time></trkpt><trkpt lat="40.3494537375955" lon="9.655198785866123"><ele>145.66666666666666</ele><time>2026-04-30T09:45:26.918Z</time></trkpt><trkpt lat="40.3493239968118" lon="9.655089063991644"><ele>147.0</ele><time>2026-04-30T09:45:27.918Z</time></trkpt><trkpt lat="40.34919799165709" lon="9.654991985713723"><ele>147.0</ele><time>2026-04-30T09:45:28.918Z</time></trkpt><trkpt lat="40.349081044030996" lon="9.654888214294408"><ele>147.0</ele><time>2026-04-30T09:45:29.918Z</time></trkpt><trkpt lat="40.34897447793072" lon="9.654782463191044"><ele>147.0</ele><time>2026-04-30T09:45:30.918Z</time></trkpt><trkpt lat="40.348879767502844" lon="9.654662355120985"><ele>147.0</ele><time>2026-04-30T09:45:31.918Z</time></trkpt><trkpt lat="40.348803164530906" lon="9.654530607141588"><ele>146.75</ele><time>2026-04-30T09:45:32.917Z</time></trkpt><trkpt lat="40.34873506849355" lon="9.65439124613902"><ele>146.5</ele><time>2026-04-30T09:45:33.917Z</time></trkpt><trkpt lat="40.34868331084831" lon="9.654236118200167"><ele>146.25</ele><time>2026-04-30T09:45:34.917Z</time></trkpt><trkpt lat="40.348662116792255" lon="9.654065273177187"><ele>146.0</ele><time>2026-04-30T09:45:35.917Z</time></trkpt><trkpt lat="40.34863703333139" lon="9.653890725148766"><ele>146.0</ele><time>2026-04-30T09:45:36.917Z</time></trkpt><trkpt lat="40.348645191246604" lon="9.653702673899996"><ele>146.0</ele><time>2026-04-30T09:45:37.917Z</time></trkpt><trkpt lat="40.34869027196076" lon="9.65351415000995"><ele>146.0</ele><time>2026-04-30T09:45:38.917Z</time></trkpt><trkpt lat="40.34874165791842" lon="9.653326769385963"><ele>146.0</ele><time>2026-04-30T09:45:39.917Z</time></trkpt><trkpt lat="40.34877712298543" lon="9.653127366585066"><ele>145.75</ele><time>2026-04-30T09:45:40.917Z</time></trkpt><trkpt lat="40.34883420497688" lon="9.65292906600475"><ele>145.5</ele><time>2026-04-30T09:45:41.917Z</time></trkpt><trkpt lat="40.34886610995297" lon="9.652744529140096"><ele>145.25</ele><time>2026-04-30T09:45:42.917Z</time></trkpt><trkpt lat="40.34887100900147" lon="9.652564271191181"><ele>145.0</ele><time>2026-04-30T09:45:43.917Z</time></trkpt><trkpt lat="40.348839611202216" lon="9.652387045260946"><ele>145.0</ele><time>2026-04-30T09:45:44.917Z</time></trkpt><trkpt lat="40.34877441887741" lon="9.652213415108351"><ele>145.0</ele><time>2026-04-30T09:45:45.917Z</time></trkpt><trkpt lat="40.3486847921018" lon="9.65204983341256"><ele>145.0</ele><time>2026-04-30T09:45:46.917Z</time></trkpt><trkpt lat="40.34858428680503" lon="9.651898396047999"><ele>148.25</ele><time>2026-04-30T09:45:47.917Z</time></trkpt><trkpt lat="40.34848609219933" lon="9.651747186897246"><ele>151.5</ele><time>2026-04-30T09:45:48.917Z</time></trkpt><trkpt lat="40.348401462695804" lon="9.651591974804862"><ele>154.75</ele><time>2026-04-30T09:45:49.917Z</time></trkpt><trkpt lat="40.348322453023485" lon="9.651440336593943"><ele>158.0</ele><time>2026-04-30T09:45:50.917Z</time></trkpt><trkpt lat="40.3482862146251" lon="9.651262472350775"><ele>159.25</ele><time>2026-04-30T09:45:51.917Z</time></trkpt><trkpt lat="40.34824718057592" lon="9.651099470240508"><ele>160.5</ele><time>2026-04-30T09:45:52.917Z</time></trkpt><trkpt lat="40.34825456003081" lon="9.650916312896417"><ele>161.75</ele><time>2026-04-30T09:45:53.917Z</time></trkpt><trkpt lat="40.34825348192759" lon="9.650730675808111"><ele>163.0</ele><time>2026-04-30T09:45:54.917Z</time></trkpt><trkpt lat="40.3482900560143" lon="9.650544335305437"><ele>163.0</ele><time>2026-04-30T09:45:55.917Z</time></trkpt><trkpt lat="40.34834749659143" lon="9.650364840007214"><ele>163.0</ele><time>2026-04-30T09:45:56.917Z</time></trkpt><trkpt lat="40.3484329101428" lon="9.650204918312879"><ele>163.0</ele><time>2026-04-30T09:45:57.917Z</time></trkpt><trkpt lat="40.3485159128566" lon="9.65004141818148"><ele>163.0</ele><time>2026-04-30T09:45:58.917Z</time></trkpt><trkpt lat="40.348594236282764" lon="9.649863936242628"><ele>162.33333333333334</ele><time>2026-04-30T09:45:59.917Z</time></trkpt><trkpt lat="40.348689295555936" lon="9.649681111346046"><ele>161.66666666666666</ele><time>2026-04-30T09:46:00.917Z</time></trkpt><trkpt lat="40.34878811387223" lon="9.649487963997837"><ele>161.0</ele><time>2026-04-30T09:46:01.917Z</time></trkpt><trkpt lat="40.34889156709342" lon="9.649285651302984"><ele>164.66666666666666</ele><time>2026-04-30T09:46:02.917Z</time></trkpt><trkpt lat="40.34899758769528" lon="9.649082409436582"><ele>168.33333333333334</ele><time>2026-04-30T09:46:03.917Z</time></trkpt><trkpt lat="40.34910556044697" lon="9.648872717332624"><ele>172.0</ele><time>2026-04-30T09:46:04.917Z</time></trkpt><trkpt lat="40.34921261299366" lon="9.648662327170122"><ele>170.66666666666669</ele><time>2026-04-30T09:46:05.917Z</time></trkpt><trkpt lat="40.34931493072646" lon="9.648465918574207"><ele>169.33333333333334</ele><time>2026-04-30T09:46:06.917Z</time></trkpt><trkpt lat="40.3494086259451" lon="9.648285735584443"><ele>168.0</ele><time>2026-04-30T09:46:07.917Z</time></trkpt><trkpt lat="40.3494964324435" lon="9.648123891304616"><ele>168.0</ele><time>2026-04-30T09:46:08.917Z</time></trkpt><trkpt lat="40.34957838263487" lon="9.647980997004161"><ele>168.0</ele><time>2026-04-30T09:46:09.917Z</time></trkpt><trkpt lat="40.349646991420606" lon="9.647839099256327"><ele>168.0</ele><time>2026-04-30T09:46:10.917Z</time></trkpt><trkpt lat="40.349700165619716" lon="9.647700755682358"><ele>168.0</ele><time>2026-04-30T09:46:11.917Z</time></trkpt><trkpt lat="40.34974323318824" lon="9.64753328463062"><ele>174.33333333333334</ele><time>2026-04-30T09:46:12.917Z</time></trkpt><trkpt lat="40.34977003238427" lon="9.647346747832884"><ele>180.66666666666669</ele><time>2026-04-30T09:46:13.917Z</time></trkpt><trkpt lat="40.34977231183661" lon="9.647143886891795"><ele>187.0</ele><time>2026-04-30T09:46:14.917Z</time></trkpt><trkpt lat="40.349752731192716" lon="9.646944931522194"><ele>187.25</ele><time>2026-04-30T09:46:15.917Z</time></trkpt><trkpt lat="40.34972783400264" lon="9.64677568633325"><ele>187.5</ele><time>2026-04-30T09:46:16.917Z</time></trkpt><trkpt lat="40.349710649487186" lon="9.646616154424981"><ele>187.75</ele><time>2026-04-30T09:46:17.917Z</time></trkpt><trkpt lat="40.349703461066895" lon="9.646445859419353"><ele>188.0</ele><time>2026-04-30T09:46:18.917Z</time></trkpt><trkpt lat="40.34972722617148" lon="9.646267832865444"><ele>187.75</ele><time>2026-04-30T09:46:19.917Z</time></trkpt><trkpt lat="40.34978797044352" lon="9.646104265503636"><ele>187.5</ele><time>2026-04-30T09:46:20.917Z</time></trkpt><trkpt lat="40.34987748390696" lon="9.645959118002201"><ele>187.25</ele><time>2026-04-30T09:46:21.917Z</time></trkpt><trkpt lat="40.34997596616492" lon="9.645831688792324"><ele>187.0</ele><time>2026-04-30T09:46:22.917Z</time></trkpt><trkpt lat="40.35009634269114" lon="9.645718778769114"><ele>187.0</ele><time>2026-04-30T09:46:23.917Z</time></trkpt><trkpt lat="40.35022513013288" lon="9.645607302384583"><ele>187.0</ele><time>2026-04-30T09:46:24.917Z</time></trkpt><trkpt lat="40.35035099629707" lon="9.645487550097767"><ele>187.0</ele><time>2026-04-30T09:46:25.917Z</time></trkpt><trkpt lat="40.35048091929996" lon="9.645360822418171"><ele>187.75</ele><time>2026-04-30T09:46:26.917Z</time></trkpt><trkpt lat="40.35061180155246" lon="9.64523746745995"><ele>188.5</ele><time>2026-04-30T09:46:27.917Z</time></trkpt><trkpt lat="40.35073230821583" lon="9.64512263243602"><ele>189.25</ele><time>2026-04-30T09:46:28.917Z</time></trkpt><trkpt lat="40.35084495151185" lon="9.645016973698588"><ele>190.0</ele><time>2026-04-30T09:46:29.917Z</time></trkpt><trkpt lat="40.35095795856717" lon="9.644910380660633"><ele>190.0</ele><time>2026-04-30T09:46:30.917Z</time></trkpt><trkpt lat="40.351066800382114" lon="9.644803625828988"><ele>190.0</ele><time>2026-04-30T09:46:31.917Z</time></trkpt><trkpt lat="40.351175300458195" lon="9.64469706787612"><ele>190.0</ele><time>2026-04-30T09:46:32.917Z</time></trkpt><trkpt lat="40.35128373141574" lon="9.644595257806964"><ele>190.0</ele><time>2026-04-30T09:46:33.917Z</time></trkpt><trkpt lat="40.35138514407844" lon="9.644502308022938"><ele>191.0</ele><time>2026-04-30T09:46:34.917Z</time></trkpt><trkpt lat="40.35147788513978" lon="9.644415500353764"><ele>192.0</ele><time>2026-04-30T09:46:35.917Z</time></trkpt><trkpt lat="40.35155846678851" lon="9.644319265069635"><ele>193.0</ele><time>2026-04-30T09:46:36.917Z</time></trkpt><trkpt lat="40.3516221520579" lon="9.644194378047363"><ele>194.0</ele><time>2026-04-30T09:46:37.917Z</time></trkpt><trkpt lat="40.351651509838106" lon="9.64403678810242"><ele>194.0</ele><time>2026-04-30T09:46:38.917Z</time></trkpt><trkpt lat="40.35163406988468" lon="9.643847358190047"><ele>194.0</ele><time>2026-04-30T09:46:39.917Z</time></trkpt><trkpt lat="40.35157819653614" lon="9.643642999356487"><ele>194.0</ele><time>2026-04-30T09:46:40.917Z</time></trkpt><trkpt lat="40.351495951198935" lon="9.643423614900888"><ele>193.66666666666669</ele><time>2026-04-30T09:46:41.917Z</time></trkpt><trkpt lat="40.35142516708106" lon="9.643169054737093"><ele>193.33333333333331</ele><time>2026-04-30T09:46:42.917Z</time></trkpt><trkpt lat="40.351361808882075" lon="9.642913158496397"><ele>193.0</ele><time>2026-04-30T09:46:43.917Z</time></trkpt><trkpt lat="40.35131294002165" lon="9.642687374922373"><ele>193.5</ele><time>2026-04-30T09:46:44.917Z</time></trkpt><trkpt lat="40.35126850951001" lon="9.642487815017441"><ele>194.0</ele><time>2026-04-30T09:46:45.917Z</time></trkpt><trkpt lat="40.351223411712844" lon="9.642306353871778"><ele>194.5</ele><time>2026-04-30T09:46:46.917Z</time></trkpt><trkpt lat="40.351181558260734" lon="9.642132892264245"><ele>195.0</ele><time>2026-04-30T09:46:47.917Z</time></trkpt><trkpt lat="40.351140835514066" lon="9.641967851501697"><ele>195.75</ele><time>2026-04-30T09:46:48.917Z</time></trkpt><trkpt lat="40.351101422266495" lon="9.641803098312757"><ele>196.5</ele><time>2026-04-30T09:46:49.917Z</time></trkpt><trkpt lat="40.35107685632585" lon="9.641643413247527"><ele>197.25</ele><time>2026-04-30T09:46:50.917Z</time></trkpt><trkpt lat="40.35107162208851" lon="9.641480170961403"><ele>198.0</ele><time>2026-04-30T09:46:51.917Z</time></trkpt><trkpt lat="40.35109662810559" lon="9.641326380005461"><ele>198.0</ele><time>2026-04-30T09:46:52.917Z</time></trkpt><trkpt lat="40.35117479667176" lon="9.641198709554033"><ele>198.0</ele><time>2026-04-30T09:46:53.917Z</time></trkpt><trkpt lat="40.35126670146701" lon="9.641090830850642"><ele>198.0</ele><time>2026-04-30T09:46:54.917Z</time></trkpt><trkpt lat="40.351393209334205" lon="9.640977916403932"><ele>198.0</ele><time>2026-04-30T09:46:55.917Z</time></trkpt><trkpt lat="40.3515526324415" lon="9.640853812118637"><ele>201.0</ele><time>2026-04-30T09:46:56.917Z</time></trkpt><trkpt lat="40.351740278619545" lon="9.64070643352552"><ele>204.0</ele><time>2026-04-30T09:46:57.917Z</time></trkpt><trkpt lat="40.35195506573326" lon="9.640536886918834"><ele>204.0</ele><time>2026-04-30T09:46:58.917Z</time></trkpt><trkpt lat="40.352178453332826" lon="9.640360728973963"><ele>204.0</ele><time>2026-04-30T09:46:59.917Z</time></trkpt><trkpt lat="40.35241022463839" lon="9.640178508774685"><ele>202.5</ele><time>2026-04-30T09:47:00.917Z</time></trkpt><trkpt lat="40.35262536502197" lon="9.640007443966113"><ele>201.0</ele><time>2026-04-30T09:47:01.918Z</time></trkpt><trkpt lat="40.35280543817572" lon="9.63984414457945"><ele>201.0</ele><time>2026-04-30T09:47:02.918Z</time></trkpt><trkpt lat="40.35299191454081" lon="9.639756549575127"><ele>201.0</ele><time>2026-04-30T09:47:03.917Z</time></trkpt><trkpt lat="40.35316799755861" lon="9.639696780010075"><ele>201.0</ele><time>2026-04-30T09:47:04.917Z</time></trkpt><trkpt lat="40.353346952538146" lon="9.63967540852603"><ele>204.33333333333331</ele><time>2026-04-30T09:47:05.917Z</time></trkpt><trkpt lat="40.353541080076205" lon="9.639678640739387"><ele>207.66666666666666</ele><time>2026-04-30T09:47:06.917Z</time></trkpt><trkpt lat="40.353755293227394" lon="9.639677195071991"><ele>211.0</ele><time>2026-04-30T09:47:07.918Z</time></trkpt><trkpt lat="40.35394580684736" lon="9.639631332602075"><ele>210.0</ele><time>2026-04-30T09:47:08.918Z</time></trkpt><trkpt lat="40.35411465780342" lon="9.639531094356949"><ele>209.0</ele><time>2026-04-30T09:47:09.918Z</time></trkpt><trkpt lat="40.354270272061086" lon="9.639370247676789"><ele>208.0</ele><time>2026-04-30T09:47:10.918Z</time></trkpt><trkpt lat="40.35439568621489" lon="9.639155149055219"><ele>208.0</ele><time>2026-04-30T09:47:11.918Z</time></trkpt><trkpt lat="40.354497130424804" lon="9.63891750903221"><ele>208.0</ele><time>2026-04-30T09:47:12.918Z</time></trkpt><trkpt lat="40.354555965009446" lon="9.638665590452106"><ele>208.0</ele><time>2026-04-30T09:47:13.918Z</time></trkpt><trkpt lat="40.354562421257256" lon="9.63840569360288"><ele>207.66666666666666</ele><time>2026-04-30T09:47:14.918Z</time></trkpt><trkpt lat="40.35453633486774" lon="9.638138706641797"><ele>207.33333333333331</ele><time>2026-04-30T09:47:15.918Z</time></trkpt><trkpt lat="40.354469613165215" lon="9.637849494078441"><ele>207.0</ele><time>2026-04-30T09:47:16.918Z</time></trkpt><trkpt lat="40.35434884076775" lon="9.637529624560216"><ele>207.0</ele><time>2026-04-30T09:47:17.918Z</time></trkpt><trkpt lat="40.35421897434903" lon="9.637175732833823"><ele>207.0</ele><time>2026-04-30T09:47:18.918Z</time></trkpt><trkpt lat="40.35409697248131" lon="9.63679980526814"><ele>207.0</ele><time>2026-04-30T09:47:19.918Z</time></trkpt><trkpt lat="40.353983537101136" lon="9.63643578770143"><ele>207.0</ele><time>2026-04-30T09:47:20.918Z</time></trkpt><trkpt lat="40.35387273366479" lon="9.636082937914916"><ele>209.0</ele><time>2026-04-30T09:47:21.917Z</time></trkpt><trkpt lat="40.353766232544054" lon="9.63573757990435"><ele>211.0</ele><time>2026-04-30T09:47:22.917Z</time></trkpt><trkpt lat="40.35366843343172" lon="9.635408237158178"><ele>212.5</ele><time>2026-04-30T09:47:23.917Z</time></trkpt><trkpt lat="40.35357560904819" lon="9.635106951292675"><ele>214.0</ele><time>2026-04-30T09:47:24.917Z</time></trkpt><trkpt lat="40.353489061393375" lon="9.634834195455724"><ele>214.0</ele><time>2026-04-30T09:47:25.917Z</time></trkpt><trkpt lat="40.35341591209697" lon="9.63458444678346"><ele>214.0</ele><time>2026-04-30T09:47:26.917Z</time></trkpt><trkpt lat="40.35334516638206" lon="9.634376648518515"><ele>214.0</ele><time>2026-04-30T09:47:27.917Z</time></trkpt><trkpt lat="40.35326956449008" lon="9.634212832441479"><ele>215.0</ele><time>2026-04-30T09:47:28.917Z</time></trkpt><trkpt lat="40.35316045122426" lon="9.634108817937435"><ele>216.0</ele><time>2026-04-30T09:47:29.917Z</time></trkpt><trkpt lat="40.353008160536035" lon="9.634056279793237"><ele>217.0</ele><time>2026-04-30T09:47:30.917Z</time></trkpt><trkpt lat="40.35281931657282" lon="9.63405390998946"><ele>217.66666666666666</ele><time>2026-04-30T09:47:31.917Z</time></trkpt><trkpt lat="40.352637429758765" lon="9.63407156330128"><ele>218.33333333333331</ele><time>2026-04-30T09:47:32.917Z</time></trkpt><trkpt lat="40.35248083278298" lon="9.634060061688514"><ele>219.0</ele><time>2026-04-30T09:47:33.917Z</time></trkpt><trkpt lat="40.35233982270548" lon="9.634035109168487"><ele>218.75</ele><time>2026-04-30T09:47:34.917Z</time></trkpt><trkpt lat="40.352199529633566" lon="9.634002630273665"><ele>218.5</ele><time>2026-04-30T09:47:35.917Z</time></trkpt><trkpt lat="40.35205515724756" lon="9.633948790030724"><ele>218.25</ele><time>2026-04-30T09:47:36.917Z</time></trkpt><trkpt lat="40.35192853037584" lon="9.633832704613772"><ele>218.0</ele><time>2026-04-30T09:47:37.917Z</time></trkpt><trkpt lat="40.351799014265886" lon="9.633745033006955"><ele>218.75</ele><time>2026-04-30T09:47:38.917Z</time></trkpt><trkpt lat="40.35168026563219" lon="9.633638036003124"><ele>219.5</ele><time>2026-04-30T09:47:39.917Z</time></trkpt><trkpt lat="40.35154635720241" lon="9.633574264681737"><ele>220.25</ele><time>2026-04-30T09:47:40.917Z</time></trkpt><trkpt lat="40.35139500795107" lon="9.633569508041836"><ele>221.0</ele><time>2026-04-30T09:47:41.917Z</time></trkpt><trkpt lat="40.351219211538435" lon="9.633621893583582"><ele>220.66666666666669</ele><time>2026-04-30T09:47:42.917Z</time></trkpt><trkpt lat="40.351034518246536" lon="9.633710593149067"><ele>220.33333333333331</ele><time>2026-04-30T09:47:43.917Z</time></trkpt><trkpt lat="40.35084492258501" lon="9.633793373542009"><ele>220.0</ele><time>2026-04-30T09:47:44.917Z</time></trkpt><trkpt lat="40.35065589979551" lon="9.6338619145417"><ele>220.33333333333331</ele><time>2026-04-30T09:47:45.917Z</time></trkpt><trkpt lat="40.350476534852746" lon="9.633918770006405"><ele>220.66666666666669</ele><time>2026-04-30T09:47:46.917Z</time></trkpt><trkpt lat="40.35030608481855" lon="9.633961817113414"><ele>221.0</ele><time>2026-04-30T09:47:47.917Z</time></trkpt><trkpt lat="40.35014737058541" lon="9.633939056373608"><ele>221.0</ele><time>2026-04-30T09:47:48.917Z</time></trkpt><trkpt lat="40.34999853433508" lon="9.633865784245922"><ele>221.0</ele><time>2026-04-30T09:47:49.917Z</time></trkpt><trkpt lat="40.349848475059915" lon="9.633738813981395"><ele>221.0</ele><time>2026-04-30T09:47:50.917Z</time></trkpt><trkpt lat="40.349691926380714" lon="9.633575629572665"><ele>221.33333333333334</ele><time>2026-04-30T09:47:51.917Z</time></trkpt><trkpt lat="40.3495260408437" lon="9.633418695313201"><ele>221.66666666666669</ele><time>2026-04-30T09:47:52.917Z</time></trkpt><trkpt lat="40.349358395467426" lon="9.63323752656126"><ele>222.0</ele><time>2026-04-30T09:47:53.917Z</time></trkpt><trkpt lat="40.34919145903145" lon="9.63305756118636"><ele>222.0</ele><time>2026-04-30T09:47:54.917Z</time></trkpt><trkpt lat="40.349011709296526" lon="9.632906394641847"><ele>222.0</ele><time>2026-04-30T09:47:55.917Z</time></trkpt><trkpt lat="40.34882183495141" lon="9.632793400816379"><ele>222.0</ele><time>2026-04-30T09:47:56.917Z</time></trkpt><trkpt lat="40.34860884147251" lon="9.632737730440304"><ele>224.5</ele><time>2026-04-30T09:47:57.917Z</time></trkpt><trkpt lat="40.348367981725666" lon="9.632744123774222"><ele>227.0</ele><time>2026-04-30T09:47:58.917Z</time></trkpt><trkpt lat="40.3481168089653" lon="9.632762673786445"><ele>229.0</ele><time>2026-04-30T09:47:59.917Z</time></trkpt><trkpt lat="40.347854005811676" lon="9.63278434517197"><ele>231.0</ele><time>2026-04-30T09:48:00.917Z</time></trkpt><trkpt lat="40.34759386598995" lon="9.63278717248402"><ele>231.0</ele><time>2026-04-30T09:48:01.917Z</time></trkpt><trkpt lat="40.34732726285349" lon="9.632783732187978"><ele>231.0</ele><time>2026-04-30T09:48:02.917Z</time></trkpt><trkpt lat="40.3470600950944" lon="9.632778387593735"><ele>231.0</ele><time>2026-04-30T09:48:03.917Z</time></trkpt><trkpt lat="40.34680001785993" lon="9.632771604829722"><ele>231.0</ele><time>2026-04-30T09:48:04.917Z</time></trkpt><trkpt lat="40.346563399296755" lon="9.632766982722515"><ele>231.0</ele><time>2026-04-30T09:48:05.917Z</time></trkpt><trkpt lat="40.346346060387646" lon="9.63276265449455"><ele>231.0</ele><time>2026-04-30T09:48:06.917Z</time></trkpt><trkpt lat="40.34614141002648" lon="9.632757252180777"><ele>231.0</ele><time>2026-04-30T09:48:07.917Z</time></trkpt><trkpt lat="40.345945573391276" lon="9.632751985857757"><ele>231.0</ele><time>2026-04-30T09:48:08.917Z</time></trkpt><trkpt lat="40.34576639763783" lon="9.63274825973267"><ele>231.0</ele><time>2026-04-30T09:48:09.917Z</time></trkpt><trkpt lat="40.34559525418474" lon="9.63273958367227"><ele>231.0</ele><time>2026-04-30T09:48:10.917Z</time></trkpt><trkpt lat="40.34544669753865" lon="9.632696161769218"><ele>231.66666666666669</ele><time>2026-04-30T09:48:11.917Z</time></trkpt><trkpt lat="40.345297205477905" lon="9.632639909150459"><ele>232.33333333333334</ele><time>2026-04-30T09:48:12.917Z</time></trkpt><trkpt lat="40.34514299275293" lon="9.632586302346585"><ele>233.0</ele><time>2026-04-30T09:48:13.917Z</time></trkpt><trkpt lat="40.34499225430636" lon="9.632525593559661"><ele>233.0</ele><time>2026-04-30T09:48:14.917Z</time></trkpt><trkpt lat="40.34484827239519" lon="9.63247550596313"><ele>233.0</ele><time>2026-04-30T09:48:15.917Z</time></trkpt><trkpt lat="40.34471994656692" lon="9.632426070740491"><ele>233.0</ele><time>2026-04-30T09:48:16.917Z</time></trkpt><trkpt lat="40.34459604985318" lon="9.632378446432329"><ele>233.0</ele><time>2026-04-30T09:48:17.917Z</time></trkpt><trkpt lat="40.344474012588556" lon="9.632330139085198"><ele>233.0</ele><time>2026-04-30T09:48:18.917Z</time></trkpt><trkpt lat="40.34435995152949" lon="9.632289551521348"><ele>233.0</ele><time>2026-04-30T09:48:19.917Z</time></trkpt><trkpt lat="40.34424584166051" lon="9.632247886771193"><ele>233.0</ele><time>2026-04-30T09:48:20.917Z</time></trkpt><trkpt lat="40.34412859128637" lon="9.632209633146175"><ele>233.0</ele><time>2026-04-30T09:48:21.917Z</time></trkpt><trkpt lat="40.344013306046556" lon="9.63216379981681"><ele>233.0</ele><time>2026-04-30T09:48:22.917Z</time></trkpt><trkpt lat="40.343902286466616" lon="9.632121809861575"><ele>233.0</ele><time>2026-04-30T09:48:23.917Z</time></trkpt><trkpt lat="40.34379769049151" lon="9.63208071393743"><ele>233.0</ele><time>2026-04-30T09:48:24.917Z</time></trkpt><trkpt lat="40.34370223383446" lon="9.63203023866467"><ele>233.0</ele><time>2026-04-30T09:48:25.917Z</time></trkpt><trkpt lat="40.34361216274566" lon="9.631966352649133"><ele>233.0</ele><time>2026-04-30T09:48:26.917Z</time></trkpt><trkpt lat="40.343532377636144" lon="9.631876723470716"><ele>233.25</ele><time>2026-04-30T09:48:27.917Z</time></trkpt><trkpt lat="40.343456162039224" lon="9.631758781953295"><ele>233.5</ele><time>2026-04-30T09:48:28.917Z</time></trkpt><trkpt lat="40.34339492383548" lon="9.631611948811356"><ele>233.75</ele><time>2026-04-30T09:48:29.917Z</time></trkpt><trkpt lat="40.34334281097416" lon="9.631461487018653"><ele>234.0</ele><time>2026-04-30T09:48:30.917Z</time></trkpt><trkpt lat="40.343296407189825" lon="9.631333951552062"><ele>234.0</ele><time>2026-04-30T09:48:31.917Z</time></trkpt><trkpt lat="40.343247951599906" lon="9.631216118168357"><ele>233.99999999999997</ele><time>2026-04-30T09:48:32.917Z</time></trkpt><trkpt lat="40.34320317272121" lon="9.631101970344844"><ele>233.99999999999997</ele><time>2026-04-30T09:48:33.917Z</time></trkpt><trkpt lat="40.34316025296211" lon="9.630997827668367"><ele>234.0</ele><time>2026-04-30T09:48:34.917Z</time></trkpt><trkpt lat="40.34311089596647" lon="9.6308922125755"><ele>234.0</ele><time>2026-04-30T09:48:35.917Z</time></trkpt><trkpt lat="40.34304435787307" lon="9.630788921014684"><ele>234.75</ele><time>2026-04-30T09:48:36.917Z</time></trkpt><trkpt lat="40.34295263431256" lon="9.630708270626243"><ele>235.5</ele><time>2026-04-30T09:48:37.917Z</time></trkpt><trkpt lat="40.34284927746957" lon="9.630645368084613"><ele>236.25</ele><time>2026-04-30T09:48:38.917Z</time></trkpt><trkpt lat="40.34273791682566" lon="9.630617899985873"><ele>237.0</ele><time>2026-04-30T09:48:39.917Z</time></trkpt><trkpt lat="40.342624835754215" lon="9.630619102776928"><ele>237.0</ele><time>2026-04-30T09:48:40.917Z</time></trkpt><trkpt lat="40.3425099962206" lon="9.63063581159706"><ele>237.0</ele><time>2026-04-30T09:48:41.917Z</time></trkpt><trkpt lat="40.342387821155434" lon="9.63065387029784"><ele>237.0</ele><time>2026-04-30T09:48:42.917Z</time></trkpt><trkpt lat="40.34226422357071" lon="9.630655921851556"><ele>237.0</ele><time>2026-04-30T09:48:43.917Z</time></trkpt><trkpt lat="40.34213585457976" lon="9.630657889887042"><ele>237.0</ele><time>2026-04-30T09:48:44.917Z</time></trkpt><trkpt lat="40.342018125999" lon="9.630656505221499"><ele>237.0</ele><time>2026-04-30T09:48:45.917Z</time></trkpt><trkpt lat="40.3419089685948" lon="9.630638760893842"><ele>237.0</ele><time>2026-04-30T09:48:46.917Z</time></trkpt><trkpt lat="40.34180756044551" lon="9.630601809952307"><ele>237.0</ele><time>2026-04-30T09:48:47.917Z</time></trkpt><trkpt lat="40.34171561103414" lon="9.630527647763635"><ele>237.0</ele><time>2026-04-30T09:48:48.917Z</time></trkpt><trkpt lat="40.34163885069564" lon="9.630415894516618"><ele>238.5</ele><time>2026-04-30T09:48:49.917Z</time></trkpt><trkpt lat="40.34157953523403" lon="9.630279523749858"><ele>240.0</ele><time>2026-04-30T09:48:50.917Z</time></trkpt><trkpt lat="40.34154019210249" lon="9.630125270810812"><ele>241.5</ele><time>2026-04-30T09:48:51.917Z</time></trkpt><trkpt lat="40.341513435010086" lon="9.629953084646072"><ele>243.0</ele><time>2026-04-30T09:48:52.917Z</time></trkpt><trkpt lat="40.34148146808382" lon="9.629763394065648"><ele>243.0</ele><time>2026-04-30T09:48:53.917Z</time></trkpt><trkpt lat="40.34144214384885" lon="9.62958802380703"><ele>243.0</ele><time>2026-04-30T09:48:54.917Z</time></trkpt><trkpt lat="40.34141246520131" lon="9.629413848299517"><ele>243.0</ele><time>2026-04-30T09:48:55.917Z</time></trkpt><trkpt lat="40.341384204376105" lon="9.629260162447332"><ele>243.0</ele><time>2026-04-30T09:48:56.917Z</time></trkpt><trkpt lat="40.34135723159791" lon="9.629117415648109"><ele>242.5</ele><time>2026-04-30T09:48:57.917Z</time></trkpt><trkpt lat="40.341327421414334" lon="9.628974013300539"><ele>242.0</ele><time>2026-04-30T09:48:58.917Z</time></trkpt><trkpt lat="40.341298040780316" lon="9.628825309760837"><ele>241.5</ele><time>2026-04-30T09:48:59.917Z</time></trkpt><trkpt lat="40.34127244313292" lon="9.62868130644927"><ele>241.0</ele><time>2026-04-30T09:49:00.917Z</time></trkpt><trkpt lat="40.34123796709102" lon="9.628537665034605"><ele>241.0</ele><time>2026-04-30T09:49:01.917Z</time></trkpt><trkpt lat="40.34119154093584" lon="9.62841248578059"><ele>241.00000000000003</ele><time>2026-04-30T09:49:02.917Z</time></trkpt><trkpt lat="40.34113652263029" lon="9.62829254189439"><ele>241.00000000000003</ele><time>2026-04-30T09:49:03.918Z</time></trkpt><trkpt lat="40.3410743722921" lon="9.628181231464387"><ele>241.0</ele><time>2026-04-30T09:49:04.918Z</time></trkpt><trkpt lat="40.341014568753074" lon="9.628073645028715"><ele>241.0</ele><time>2026-04-30T09:49:05.918Z</time></trkpt><trkpt lat="40.34095681004313" lon="9.627959680725748"><ele>241.0</ele><time>2026-04-30T09:49:06.918Z</time></trkpt><trkpt lat="40.34088953771768" lon="9.627857101702777"><ele>241.00000000000003</ele><time>2026-04-30T09:49:07.918Z</time></trkpt><trkpt lat="40.34082816568456" lon="9.627747273402289"><ele>241.00000000000003</ele><time>2026-04-30T09:49:08.918Z</time></trkpt><trkpt lat="40.34078792411806" lon="9.627608674730611"><ele>241.0</ele><time>2026-04-30T09:49:09.917Z</time></trkpt><trkpt lat="40.34075171540607" lon="9.627462080182408"><ele>241.0</ele><time>2026-04-30T09:49:10.918Z</time></trkpt><trkpt lat="40.34074272421562" lon="9.627313095382132"><ele>242.0</ele><time>2026-04-30T09:49:11.918Z</time></trkpt><trkpt lat="40.340758698973445" lon="9.627175698080324"><ele>243.00000000000003</ele><time>2026-04-30T09:49:12.918Z</time></trkpt><trkpt lat="40.34078447471446" lon="9.627049846791353"><ele>244.00000000000003</ele><time>2026-04-30T09:49:13.918Z</time></trkpt><trkpt lat="40.34080138060931" lon="9.626926661490016"><ele>245.0</ele><time>2026-04-30T09:49:14.918Z</time></trkpt><trkpt lat="40.34080035005591" lon="9.626801704316726"><ele>246.0</ele><time>2026-04-30T09:49:15.918Z</time></trkpt><trkpt lat="40.340773852763874" lon="9.62667127533257"><ele>246.4</ele><time>2026-04-30T09:49:16.918Z</time></trkpt><trkpt lat="40.34072139632605" lon="9.626548793364549"><ele>246.8</ele><time>2026-04-30T09:49:17.918Z</time></trkpt><trkpt lat="40.34065378296285" lon="9.626447000262559"><ele>247.20000000000002</ele><time>2026-04-30T09:49:18.918Z</time></trkpt><trkpt lat="40.3405727923936" lon="9.626364061851639"><ele>247.60000000000002</ele><time>2026-04-30T09:49:19.918Z</time></trkpt><trkpt lat="40.34047461012957" lon="9.626301747574903"><ele>248.0</ele><time>2026-04-30T09:49:20.918Z</time></trkpt><trkpt lat="40.34037657077445" lon="9.626245823085092"><ele>248.8</ele><time>2026-04-30T09:49:21.918Z</time></trkpt><trkpt lat="40.34027788982117" lon="9.626201988815907"><ele>249.60000000000002</ele><time>2026-04-30T09:49:22.918Z</time></trkpt><trkpt lat="40.34017947880539" lon="9.626141116909894"><ele>250.39999999999998</ele><time>2026-04-30T09:49:23.918Z</time></trkpt><trkpt lat="40.340077651253104" lon="9.626067878124315"><ele>251.2</ele><time>2026-04-30T09:49:24.918Z</time></trkpt><trkpt lat="40.33998319423828" lon="9.625972821430457"><ele>252.0</ele><time>2026-04-30T09:49:25.918Z</time></trkpt><trkpt lat="40.3398943448087" lon="9.625855984944234"><ele>252.0</ele><time>2026-04-30T09:49:26.918Z</time></trkpt><trkpt lat="40.33981591053978" lon="9.625740503903383"><ele>252.0</ele><time>2026-04-30T09:49:27.918Z</time></trkpt><trkpt lat="40.33974505107827" lon="9.625616790071145"><ele>252.0</ele><time>2026-04-30T09:49:28.918Z</time></trkpt><trkpt lat="40.339675164770604" lon="9.62549840644556"><ele>252.0</ele><time>2026-04-30T09:49:29.918Z</time></trkpt><trkpt lat="40.33960360808719" lon="9.625381356439714"><ele>251.6</ele><time>2026-04-30T09:49:30.918Z</time></trkpt><trkpt lat="40.339533246414796" lon="9.625277239354986"><ele>251.2</ele><time>2026-04-30T09:49:31.918Z</time></trkpt><trkpt lat="40.33946827843744" lon="9.625164793250816"><ele>250.8</ele><time>2026-04-30T09:49:32.918Z</time></trkpt><trkpt lat="40.3394032237822" lon="9.625055270001887"><ele>250.4</ele><time>2026-04-30T09:49:33.918Z</time></trkpt><trkpt lat="40.33934499664203" lon="9.624936839403606"><ele>250.0</ele><time>2026-04-30T09:49:34.918Z</time></trkpt><trkpt lat="40.33928956931249" lon="9.624821558439164"><ele>250.0</ele><time>2026-04-30T09:49:35.918Z</time></trkpt><trkpt lat="40.339235379409914" lon="9.624696186599692"><ele>250.0</ele><time>2026-04-30T09:49:36.918Z</time></trkpt><trkpt lat="40.33918164929622" lon="9.624574630326476"><ele>250.0</ele><time>2026-04-30T09:49:37.918Z</time></trkpt><trkpt lat="40.33912732395599" lon="9.624454158599406"><ele>250.0</ele><time>2026-04-30T09:49:38.918Z</time></trkpt><trkpt lat="40.339071132147794" lon="9.624345342323705"><ele>250.0</ele><time>2026-04-30T09:49:39.918Z</time></trkpt><trkpt lat="40.33901710984266" lon="9.624216477286263"><ele>251.0</ele><time>2026-04-30T09:49:40.918Z</time></trkpt><trkpt lat="40.338964045612435" lon="9.624092729263735"><ele>252.0</ele><time>2026-04-30T09:49:41.918Z</time></trkpt><trkpt lat="40.338910230898776" lon="9.623971888938948"><ele>253.0</ele><time>2026-04-30T09:49:42.918Z</time></trkpt><trkpt lat="40.33885767579622" lon="9.623851763826897"><ele>254.0</ele><time>2026-04-30T09:49:43.918Z</time></trkpt><trkpt lat="40.338809881978094" lon="9.623731841628766"><ele>255.0</ele><time>2026-04-30T09:49:44.918Z</time></trkpt><trkpt lat="40.33877391066273" lon="9.623602874316589"><ele>253.0</ele><time>2026-04-30T09:49:45.918Z</time></trkpt><trkpt lat="40.33875195241969" lon="9.623468163826491"><ele>251.0</ele><time>2026-04-30T09:49:46.918Z</time></trkpt><trkpt lat="40.338742426822684" lon="9.623330446090726"><ele>249.0</ele><time>2026-04-30T09:49:47.918Z</time></trkpt><trkpt lat="40.338742161149746" lon="9.62319091160677"><ele>247.0</ele><time>2026-04-30T09:49:48.918Z</time></trkpt><trkpt lat="40.338750042480754" lon="9.623047411928546"><ele>245.0</ele><time>2026-04-30T09:49:49.918Z</time></trkpt><trkpt lat="40.33875366685425" lon="9.622906018229497"><ele>246.2</ele><time>2026-04-30T09:49:50.918Z</time></trkpt><trkpt lat="40.33876123812264" lon="9.622775995476418"><ele>247.4</ele><time>2026-04-30T09:49:51.918Z</time></trkpt><trkpt lat="40.338758826563" lon="9.622649664071579"><ele>248.60000000000002</ele><time>2026-04-30T09:49:52.918Z</time></trkpt><trkpt lat="40.33874394809057" lon="9.622528550183313"><ele>249.8</ele><time>2026-04-30T09:49:53.918Z</time></trkpt><trkpt lat="40.338700793688076" lon="9.62242156194072"><ele>251.0</ele><time>2026-04-30T09:49:54.918Z</time></trkpt><trkpt lat="40.33862634584102" lon="9.622345144095585"><ele>251.0</ele><time>2026-04-30T09:49:55.918Z</time></trkpt><trkpt lat="40.33853875272241" lon="9.622288796771876"><ele>251.00000000000003</ele><time>2026-04-30T09:49:56.918Z</time></trkpt><trkpt lat="40.33844987530192" lon="9.622249036450327"><ele>251.00000000000003</ele><time>2026-04-30T09:49:57.918Z</time></trkpt><trkpt lat="40.33836028103933" lon="9.622222304323854"><ele>251.0</ele><time>2026-04-30T09:49:58.918Z</time></trkpt><trkpt lat="40.33827142011056" lon="9.622196892656993"><ele>251.0</ele><time>2026-04-30T09:49:59.918Z</time></trkpt><trkpt lat="40.3381855727495" lon="9.622164819507114"><ele>251.0</ele><time>2026-04-30T09:50:00.918Z</time></trkpt><trkpt lat="40.3381091039364" lon="9.622107125569324"><ele>251.00000000000003</ele><time>2026-04-30T09:50:01.918Z</time></trkpt><trkpt lat="40.33803602089246" lon="9.62201632835091"><ele>251.00000000000003</ele><time>2026-04-30T09:50:02.918Z</time></trkpt><trkpt lat="40.33797800086029" lon="9.621895074161426"><ele>251.0</ele><time>2026-04-30T09:50:03.918Z</time></trkpt><trkpt lat="40.337932843639656" lon="9.621747246901867"><ele>251.0</ele><time>2026-04-30T09:50:04.918Z</time></trkpt><trkpt lat="40.33787844428152" lon="9.621566905298033"><ele>251.5</ele><time>2026-04-30T09:50:05.918Z</time></trkpt><trkpt lat="40.3378243625988" lon="9.621288084174932"><ele>252.0</ele><time>2026-04-30T09:50:06.918Z</time></trkpt><trkpt lat="40.33777863489048" lon="9.620973580701515"><ele>252.0</ele><time>2026-04-30T09:50:07.918Z</time></trkpt><trkpt lat="40.33772694357938" lon="9.620669414028807"><ele>252.0</ele><time>2026-04-30T09:50:08.918Z</time></trkpt><trkpt lat="40.33767323486235" lon="9.620372629548273"><ele>252.66666666666669</ele><time>2026-04-30T09:50:09.918Z</time></trkpt><trkpt lat="40.337612074268456" lon="9.62009147032326"><ele>253.33333333333334</ele><time>2026-04-30T09:50:10.918Z</time></trkpt><trkpt lat="40.33757195354577" lon="9.619821036538896"><ele>254.0</ele><time>2026-04-30T09:50:11.917Z</time></trkpt><trkpt lat="40.337545431029" lon="9.619542873726676"><ele>253.0</ele><time>2026-04-30T09:50:12.917Z</time></trkpt><trkpt lat="40.337555314673395" lon="9.61925387863152"><ele>252.0</ele><time>2026-04-30T09:50:13.917Z</time></trkpt><trkpt lat="40.33760321537671" lon="9.618954609987847"><ele>251.0</ele><time>2026-04-30T09:50:14.917Z</time></trkpt><trkpt lat="40.337673372943684" lon="9.618631380204274"><ele>250.0</ele><time>2026-04-30T09:50:15.917Z</time></trkpt><trkpt lat="40.33775215337299" lon="9.61830192930244"><ele>250.0</ele><time>2026-04-30T09:50:16.917Z</time></trkpt><trkpt lat="40.33782416576212" lon="9.617965924796353"><ele>250.0</ele><time>2026-04-30T09:50:17.917Z</time></trkpt><trkpt lat="40.3378977158188" lon="9.617626446366597"><ele>248.5</ele><time>2026-04-30T09:50:18.917Z</time></trkpt><trkpt lat="40.337970114971185" lon="9.617280703469605"><ele>247.0</ele><time>2026-04-30T09:50:19.917Z</time></trkpt><trkpt lat="40.338038473333086" lon="9.616940283299284"><ele>253.0</ele><time>2026-04-30T09:50:20.917Z</time></trkpt><trkpt lat="40.33810686232" lon="9.616594321628307"><ele>259.0</ele><time>2026-04-30T09:50:21.917Z</time></trkpt><trkpt lat="40.33817654817636" lon="9.61626224377859"><ele>255.0</ele><time>2026-04-30T09:50:22.917Z</time></trkpt><trkpt lat="40.338247144684395" lon="9.615924959325408"><ele>251.0</ele><time>2026-04-30T09:50:23.917Z</time></trkpt><trkpt lat="40.33831237050204" lon="9.615596765573171"><ele>249.0</ele><time>2026-04-30T09:50:24.917Z</time></trkpt><trkpt lat="40.338380682137526" lon="9.61527462613917"><ele>247.0</ele><time>2026-04-30T09:50:25.917Z</time></trkpt><trkpt lat="40.33844406176979" lon="9.614959183032187"><ele>247.0</ele><time>2026-04-30T09:50:26.917Z</time></trkpt><trkpt lat="40.3385086329307" lon="9.614648747116085"><ele>247.0</ele><time>2026-04-30T09:50:27.917Z</time></trkpt><trkpt lat="40.33856877489823" lon="9.614331167328697"><ele>244.5</ele><time>2026-04-30T09:50:28.917Z</time></trkpt><trkpt lat="40.33862790835268" lon="9.614015005723196"><ele>242.0</ele><time>2026-04-30T09:50:29.917Z</time></trkpt><trkpt lat="40.338693691801524" lon="9.613702687729125"><ele>242.5</ele><time>2026-04-30T09:50:30.917Z</time></trkpt><trkpt lat="40.33875640443423" lon="9.613388395849173"><ele>243.0</ele><time>2026-04-30T09:50:31.917Z</time></trkpt><trkpt lat="40.33882408147293" lon="9.613077718112669"><ele>245.0</ele><time>2026-04-30T09:50:32.917Z</time></trkpt><trkpt lat="40.33888951097082" lon="9.612776509055335"><ele>247.0</ele><time>2026-04-30T09:50:33.917Z</time></trkpt><trkpt lat="40.3389476762356" lon="9.61248420583106"><ele>247.0</ele><time>2026-04-30T09:50:34.917Z</time></trkpt><trkpt lat="40.339003249691814" lon="9.61220961399475"><ele>247.0</ele><time>2026-04-30T09:50:35.917Z</time></trkpt><trkpt lat="40.33906147655875" lon="9.611937178004789"><ele>247.0</ele><time>2026-04-30T09:50:36.917Z</time></trkpt><trkpt lat="40.33910871072535" lon="9.611707566379442"><ele>246.75</ele><time>2026-04-30T09:50:37.917Z</time></trkpt><trkpt lat="40.33914153071096" lon="9.61151755549627"><ele>246.5</ele><time>2026-04-30T09:50:38.917Z</time></trkpt><trkpt lat="40.339150637164465" lon="9.611349593333127"><ele>246.25</ele><time>2026-04-30T09:50:39.917Z</time></trkpt><trkpt lat="40.33910762375906" lon="9.61117806978094"><ele>246.0</ele><time>2026-04-30T09:50:40.917Z</time></trkpt><trkpt lat="40.3390161136114" lon="9.611021443192836"><ele>244.0</ele><time>2026-04-30T09:50:41.917Z</time></trkpt><trkpt lat="40.338872710034316" lon="9.610897947224933"><ele>242.0</ele><time>2026-04-30T09:50:42.917Z</time></trkpt><trkpt lat="40.33869331731123" lon="9.610798070763789"><ele>240.0</ele><time>2026-04-30T09:50:43.917Z</time></trkpt><trkpt lat="40.338503243668974" lon="9.610692784649963"><ele>240.0</ele><time>2026-04-30T09:50:44.917Z</time></trkpt><trkpt lat="40.338319378253985" lon="9.610553212951466"><ele>240.0</ele><time>2026-04-30T09:50:45.917Z</time></trkpt><trkpt lat="40.33813892469271" lon="9.610373437316614"><ele>240.0</ele><time>2026-04-30T09:50:46.917Z</time></trkpt><trkpt lat="40.337962296846804" lon="9.61016758636491"><ele>236.5</ele><time>2026-04-30T09:50:47.917Z</time></trkpt><trkpt lat="40.337812531808375" lon="9.609916627147273"><ele>233.0</ele><time>2026-04-30T09:50:48.917Z</time></trkpt><trkpt lat="40.33766984309104" lon="9.609639639354059"><ele>237.0</ele><time>2026-04-30T09:50:49.917Z</time></trkpt><trkpt lat="40.33751494632577" lon="9.609353378073749"><ele>241.0</ele><time>2026-04-30T09:50:50.917Z</time></trkpt><trkpt lat="40.337353107046845" lon="9.609064654356121"><ele>238.0</ele><time>2026-04-30T09:50:51.917Z</time></trkpt><trkpt lat="40.33718833386883" lon="9.608779083986315"><ele>235.0</ele><time>2026-04-30T09:50:52.917Z</time></trkpt><trkpt lat="40.337018011280165" lon="9.608480444599914"><ele>235.0</ele><time>2026-04-30T09:50:53.917Z</time></trkpt><trkpt lat="40.336848577169334" lon="9.608173019613243"><ele>235.0</ele><time>2026-04-30T09:50:54.917Z</time></trkpt><trkpt lat="40.33667698197216" lon="9.607877861846955"><ele>236.0</ele><time>2026-04-30T09:50:55.917Z</time></trkpt><trkpt lat="40.33652356344921" lon="9.607592081432998"><ele>237.0</ele><time>2026-04-30T09:50:56.917Z</time></trkpt><trkpt lat="40.33638428707031" lon="9.607332799287036"><ele>236.0</ele><time>2026-04-30T09:50:57.917Z</time></trkpt><trkpt lat="40.336253681702864" lon="9.607100819637322"><ele>235.0</ele><time>2026-04-30T09:50:58.917Z</time></trkpt><trkpt lat="40.336151073668255" lon="9.60689606946658"><ele>234.0</ele><time>2026-04-30T09:50:59.917Z</time></trkpt><trkpt lat="40.33607153418565" lon="9.606691368141192"><ele>234.0</ele><time>2026-04-30T09:51:00.917Z</time></trkpt><trkpt lat="40.33602649748605" lon="9.606460411019041"><ele>234.0</ele><time>2026-04-30T09:51:01.917Z</time></trkpt><trkpt lat="40.3360217064706" lon="9.606192250677317"><ele>234.0</ele><time>2026-04-30T09:51:02.917Z</time></trkpt><trkpt lat="40.33603560693299" lon="9.605906415934827"><ele>233.5</ele><time>2026-04-30T09:51:03.917Z</time></trkpt><trkpt lat="40.33606061796409" lon="9.60557570788991"><ele>233.0</ele><time>2026-04-30T09:51:04.917Z</time></trkpt><trkpt lat="40.336077071242045" lon="9.605228957999271"><ele>232.5</ele><time>2026-04-30T09:51:05.917Z</time></trkpt><trkpt lat="40.336085145891296" lon="9.604883680166786"><ele>232.0</ele><time>2026-04-30T09:51:06.917Z</time></trkpt><trkpt lat="40.33609114100303" lon="9.604542772455513"><ele>231.5</ele><time>2026-04-30T09:51:07.917Z</time></trkpt><trkpt lat="40.33610224280036" lon="9.604224394234633"><ele>231.0</ele><time>2026-04-30T09:51:08.917Z</time></trkpt><trkpt lat="40.33610355109671" lon="9.603917190915315"><ele>230.5</ele><time>2026-04-30T09:51:09.918Z</time></trkpt><trkpt lat="40.3360952069618" lon="9.603619886127554"><ele>230.0</ele><time>2026-04-30T09:51:10.917Z</time></trkpt><trkpt lat="40.33606703474644" lon="9.603313204621603"><ele>230.0</ele><time>2026-04-30T09:51:11.917Z</time></trkpt><trkpt lat="40.33601048855665" lon="9.602992082408214"><ele>230.0</ele><time>2026-04-30T09:51:12.918Z</time></trkpt><trkpt lat="40.335935713475536" lon="9.602668765046433"><ele>229.5</ele><time>2026-04-30T09:51:13.918Z</time></trkpt><trkpt lat="40.335864889438895" lon="9.602338920236251"><ele>229.0</ele><time>2026-04-30T09:51:14.918Z</time></trkpt><trkpt lat="40.335800588372116" lon="9.602004927988729"><ele>229.0</ele><time>2026-04-30T09:51:15.917Z</time></trkpt><trkpt lat="40.33574494952793" lon="9.60168195030518"><ele>229.0</ele><time>2026-04-30T09:51:16.917Z</time></trkpt><trkpt lat="40.33569488539352" lon="9.6013908673618"><ele>229.33333333333331</ele><time>2026-04-30T09:51:17.917Z</time></trkpt><trkpt lat="40.33564441154664" lon="9.601134155212046"><ele>229.66666666666669</ele><time>2026-04-30T09:51:18.917Z</time></trkpt><trkpt lat="40.335578593613434" lon="9.60090606636879"><ele>230.0</ele><time>2026-04-30T09:51:19.917Z</time></trkpt><trkpt lat="40.33546809271005" lon="9.60069690920472"><ele>228.66666666666669</ele><time>2026-04-30T09:51:20.917Z</time></trkpt><trkpt lat="40.335314040124196" lon="9.600509998208278"><ele>227.33333333333331</ele><time>2026-04-30T09:51:21.917Z</time></trkpt><trkpt lat="40.335116860964256" lon="9.60034061401435"><ele>226.0</ele><time>2026-04-30T09:51:22.917Z</time></trkpt><trkpt lat="40.33489754875261" lon="9.600177789573722"><ele>223.5</ele><time>2026-04-30T09:51:23.917Z</time></trkpt><trkpt lat="40.33467779369871" lon="9.600003477963785"><ele>221.0</ele><time>2026-04-30T09:51:24.917Z</time></trkpt><trkpt lat="40.33444537474046" lon="9.599805700212174"><ele>221.0</ele><time>2026-04-30T09:51:25.917Z</time></trkpt><trkpt lat="40.334215220405696" lon="9.599599923287517"><ele>221.0</ele><time>2026-04-30T09:51:26.917Z</time></trkpt><trkpt lat="40.333983439999386" lon="9.599398151324248"><ele>218.5</ele><time>2026-04-30T09:51:27.917Z</time></trkpt><trkpt lat="40.33375067823197" lon="9.599191644363847"><ele>216.0</ele><time>2026-04-30T09:51:28.917Z</time></trkpt><trkpt lat="40.33351861411301" lon="9.59898781185947"><ele>216.0</ele><time>2026-04-30T09:51:29.917Z</time></trkpt><trkpt lat="40.33329981708153" lon="9.59878394262129"><ele>216.0</ele><time>2026-04-30T09:51:30.917Z</time></trkpt><trkpt lat="40.33309798168923" lon="9.598603062489097"><ele>215.5</ele><time>2026-04-30T09:51:31.917Z</time></trkpt><trkpt lat="40.33289861157454" lon="9.598442640140558"><ele>215.0</ele><time>2026-04-30T09:51:32.917Z</time></trkpt><trkpt lat="40.33269708840375" lon="9.598319366091767"><ele>215.0</ele><time>2026-04-30T09:51:33.917Z</time></trkpt><trkpt lat="40.332476433479826" lon="9.598244409041378"><ele>215.0</ele><time>2026-04-30T09:51:34.917Z</time></trkpt><trkpt lat="40.33223052735386" lon="9.598218553035803"><ele>216.0</ele><time>2026-04-30T09:51:35.917Z</time></trkpt><trkpt lat="40.33196134788877" lon="9.59820837350007"><ele>217.0</ele><time>2026-04-30T09:51:36.917Z</time></trkpt><trkpt lat="40.33169484107211" lon="9.59815365603351"><ele>217.0</ele><time>2026-04-30T09:51:37.917Z</time></trkpt><trkpt lat="40.33142983542014" lon="9.598131841952823"><ele>217.0</ele><time>2026-04-30T09:51:38.917Z</time></trkpt><trkpt lat="40.33118327141723" lon="9.598070924574156"><ele>218.0</ele><time>2026-04-30T09:51:39.917Z</time></trkpt><trkpt lat="40.330940857590946" lon="9.597949587835608"><ele>219.0</ele><time>2026-04-30T09:51:40.917Z</time></trkpt><trkpt lat="40.33068649943807" lon="9.597827278047326"><ele>221.0</ele><time>2026-04-30T09:51:41.917Z</time></trkpt><trkpt lat="40.33042168335434" lon="9.597696182975463"><ele>223.0</ele><time>2026-04-30T09:51:42.917Z</time></trkpt><trkpt lat="40.33014059565216" lon="9.597577483124365"><ele>223.0</ele><time>2026-04-30T09:51:43.917Z</time></trkpt><trkpt lat="40.329865125447256" lon="9.597435375386162"><ele>223.0</ele><time>2026-04-30T09:51:44.917Z</time></trkpt><trkpt lat="40.329575427564116" lon="9.597289624009525"><ele>224.0</ele><time>2026-04-30T09:51:45.917Z</time></trkpt><trkpt lat="40.32927756335933" lon="9.59713856006421"><ele>225.0</ele><time>2026-04-30T09:51:46.917Z</time></trkpt><trkpt lat="40.32898477090575" lon="9.596991050132731"><ele>229.0</ele><time>2026-04-30T09:51:47.917Z</time></trkpt><trkpt lat="40.328704578362895" lon="9.59684954711903"><ele>233.0</ele><time>2026-04-30T09:51:48.917Z</time></trkpt><trkpt lat="40.32842987359042" lon="9.596712012948707"><ele>233.0</ele><time>2026-04-30T09:51:49.917Z</time></trkpt><trkpt lat="40.32816960695396" lon="9.5965790673964"><ele>233.0</ele><time>2026-04-30T09:51:50.917Z</time></trkpt><trkpt lat="40.32791118768217" lon="9.596447392726338"><ele>234.0</ele><time>2026-04-30T09:51:51.917Z</time></trkpt><trkpt lat="40.32765974494777" lon="9.596314959155233"><ele>235.0</ele><time>2026-04-30T09:51:52.917Z</time></trkpt><trkpt lat="40.32740069568524" lon="9.596179917431066"><ele>237.5</ele><time>2026-04-30T09:51:53.917Z</time></trkpt><trkpt lat="40.327144181015264" lon="9.596053269061004"><ele>240.0</ele><time>2026-04-30T09:51:54.917Z</time></trkpt><trkpt lat="40.32688600731021" lon="9.595921711640564"><ele>240.0</ele><time>2026-04-30T09:51:55.917Z</time></trkpt><trkpt lat="40.3266204297819" lon="9.595794812692203"><ele>240.0</ele><time>2026-04-30T09:51:56.917Z</time></trkpt><trkpt lat="40.326360585117015" lon="9.5956592663727"><ele>242.0</ele><time>2026-04-30T09:51:57.917Z</time></trkpt><trkpt lat="40.32609259847129" lon="9.595523069645628"><ele>244.0</ele><time>2026-04-30T09:51:58.917Z</time></trkpt><trkpt lat="40.32582190908595" lon="9.595388326022778"><ele>245.0</ele><time>2026-04-30T09:51:59.917Z</time></trkpt><trkpt lat="40.3255539332431" lon="9.595250853848887"><ele>246.0</ele><time>2026-04-30T09:52:00.917Z</time></trkpt><trkpt lat="40.3252847804725" lon="9.595115345881586"><ele>246.0</ele><time>2026-04-30T09:52:01.917Z</time></trkpt><trkpt lat="40.32500518110723" lon="9.594972486572585"><ele>246.0</ele><time>2026-04-30T09:52:02.917Z</time></trkpt><trkpt lat="40.3247223492042" lon="9.594831868410411"><ele>245.5</ele><time>2026-04-30T09:52:03.917Z</time></trkpt><trkpt lat="40.32444173988222" lon="9.594690182605529"><ele>245.0</ele><time>2026-04-30T09:52:04.917Z</time></trkpt><trkpt lat="40.324167838539665" lon="9.59454940784758"><ele>247.0</ele><time>2026-04-30T09:52:05.917Z</time></trkpt><trkpt lat="40.32390288903864" lon="9.594418013063558"><ele>249.0</ele><time>2026-04-30T09:52:06.917Z</time></trkpt><trkpt lat="40.32365252564227" lon="9.59429351690306"><ele>249.5</ele><time>2026-04-30T09:52:07.917Z</time></trkpt><trkpt lat="40.323424486167106" lon="9.594169521948864"><ele>250.0</ele><time>2026-04-30T09:52:08.917Z</time></trkpt><trkpt lat="40.32322329105275" lon="9.594046086370723"><ele>250.0</ele><time>2026-04-30T09:52:09.917Z</time></trkpt><trkpt lat="40.3230577268786" lon="9.593869910193314"><ele>250.0</ele><time>2026-04-30T09:52:10.917Z</time></trkpt><trkpt lat="40.322897425483596" lon="9.593674583739244"><ele>250.0</ele><time>2026-04-30T09:52:11.917Z</time></trkpt><trkpt lat="40.32274771148241" lon="9.59344636340189"><ele>250.0</ele><time>2026-04-30T09:52:12.917Z</time></trkpt><trkpt lat="40.32262242579764" lon="9.593197017801174"><ele>250.0</ele><time>2026-04-30T09:52:13.917Z</time></trkpt><trkpt lat="40.32250364806561" lon="9.592918694607395"><ele>250.0</ele><time>2026-04-30T09:52:14.917Z</time></trkpt><trkpt lat="40.32236988560672" lon="9.592628557372754"><ele>250.0</ele><time>2026-04-30T09:52:15.917Z</time></trkpt><trkpt lat="40.32224670183509" lon="9.592314269260214"><ele>251.5</ele><time>2026-04-30T09:52:16.917Z</time></trkpt><trkpt lat="40.32212547533079" lon="9.592008246250042"><ele>253.0</ele><time>2026-04-30T09:52:17.917Z</time></trkpt><trkpt lat="40.32199595870514" lon="9.591713430678915"><ele>254.0</ele><time>2026-04-30T09:52:18.917Z</time></trkpt><trkpt lat="40.321859980682746" lon="9.591420624258156"><ele>255.0</ele><time>2026-04-30T09:52:19.917Z</time></trkpt><trkpt lat="40.32171245370396" lon="9.59112747962951"><ele>255.5</ele><time>2026-04-30T09:52:20.917Z</time></trkpt><trkpt lat="40.32153557755246" lon="9.590852816658817"><ele>256.0</ele><time>2026-04-30T09:52:21.917Z</time></trkpt><trkpt lat="40.32132853643592" lon="9.590587028363911"><ele>256.5</ele><time>2026-04-30T09:52:22.917Z</time></trkpt><trkpt lat="40.321092726100325" lon="9.590336247381346"><ele>257.0</ele><time>2026-04-30T09:52:23.917Z</time></trkpt><trkpt lat="40.32086872431679" lon="9.590102834563599"><ele>257.0</ele><time>2026-04-30T09:52:24.917Z</time></trkpt><trkpt lat="40.32067580003259" lon="9.589877846455927"><ele>257.0</ele><time>2026-04-30T09:52:25.917Z</time></trkpt><trkpt lat="40.320512794871895" lon="9.589669813775318"><ele>257.0</ele><time>2026-04-30T09:52:26.917Z</time></trkpt><trkpt lat="40.32037070110676" lon="9.589444457908613"><ele>257.0</ele><time>2026-04-30T09:52:27.917Z</time></trkpt><trkpt lat="40.32025734701867" lon="9.589182365172071"><ele>257.0</ele><time>2026-04-30T09:52:28.917Z</time></trkpt><trkpt lat="40.32015060100719" lon="9.58888727925583"><ele>257.0</ele><time>2026-04-30T09:52:29.917Z</time></trkpt><trkpt lat="40.32006917703631" lon="9.588589618850298"><ele>257.33333333333337</ele><time>2026-04-30T09:52:30.917Z</time></trkpt><trkpt lat="40.32000212500834" lon="9.588311216750764"><ele>257.6666666666667</ele><time>2026-04-30T09:52:31.917Z</time></trkpt><trkpt lat="40.31994012753525" lon="9.588034932591281"><ele>258.0</ele><time>2026-04-30T09:52:32.917Z</time></trkpt><trkpt lat="40.319910657110476" lon="9.587746292509193"><ele>258.0</ele><time>2026-04-30T09:52:33.917Z</time></trkpt><trkpt lat="40.31991910289586" lon="9.587467205680124"><ele>258.0</ele><time>2026-04-30T09:52:34.917Z</time></trkpt><trkpt lat="40.31993751501829" lon="9.587209942678664"><ele>258.0</ele><time>2026-04-30T09:52:35.917Z</time></trkpt><trkpt lat="40.31995176101066" lon="9.586973869706792"><ele>258.0</ele><time>2026-04-30T09:52:36.917Z</time></trkpt><trkpt lat="40.31993364905941" lon="9.586739674875629"><ele>258.0</ele><time>2026-04-30T09:52:37.917Z</time></trkpt><trkpt lat="40.31988632901453" lon="9.586497820415678"><ele>258.0</ele><time>2026-04-30T09:52:38.916Z</time></trkpt><trkpt lat="40.319807826451004" lon="9.586254985701565"><ele>257.0</ele><time>2026-04-30T09:52:39.916Z</time></trkpt><trkpt lat="40.31969829618957" lon="9.586024008719434"><ele>256.0</ele><time>2026-04-30T09:52:40.916Z</time></trkpt><trkpt lat="40.31957584057633" lon="9.58584301090415"><ele>255.0</ele><time>2026-04-30T09:52:41.916Z</time></trkpt><trkpt lat="40.31943416801231" lon="9.58572780883512"><ele>255.0</ele><time>2026-04-30T09:52:42.916Z</time></trkpt><trkpt lat="40.31929750179377" lon="9.58566674933328"><ele>255.0</ele><time>2026-04-30T09:52:43.916Z</time></trkpt><trkpt lat="40.319193948465035" lon="9.585649973150792"><ele>255.0</ele><time>2026-04-30T09:52:44.916Z</time></trkpt><trkpt lat="40.31911501533709" lon="9.585636084325472"><ele>255.0</ele><time>2026-04-30T09:52:46.916Z</time></trkpt><trkpt lat="40.319023482806614" lon="9.585634490303883"><ele>255.0</ele><time>2026-04-30T09:54:33Z</time></trkpt><trkpt lat="40.31893789170245" lon="9.585612708606622"><ele>254.2</ele><time>2026-04-30T09:54:35Z</time></trkpt><trkpt lat="40.3188571028547" lon="9.585593256599445"><ele>253.4</ele><time>2026-04-30T09:54:37Z</time></trkpt><trkpt lat="40.318744150504024" lon="9.585569164984813"><ele>252.60000000000002</ele><time>2026-04-30T09:54:39Z</time></trkpt><trkpt lat="40.31861637048567" lon="9.58554059052041"><ele>251.8</ele><time>2026-04-30T09:54:41Z</time></trkpt><trkpt lat="40.31854545412016" lon="9.58551969648195"><ele>251.0</ele><time>2026-04-30T09:54:42Z</time></trkpt><trkpt lat="40.31847007963049" lon="9.585492499305447"><ele>251.0</ele><time>2026-04-30T09:54:43Z</time></trkpt><trkpt lat="40.31839872919726" lon="9.585455008014643"><ele>251.00000000000003</ele><time>2026-04-30T09:54:44Z</time></trkpt><trkpt lat="40.31831867164587" lon="9.58540403629837"><ele>251.00000000000003</ele><time>2026-04-30T09:54:45Z</time></trkpt><trkpt lat="40.31823801656862" lon="9.585340182716106"><ele>251.0</ele><time>2026-04-30T09:54:46Z</time></trkpt><trkpt lat="40.318163548909226" lon="9.585257644947093"><ele>251.0</ele><time>2026-04-30T09:54:47Z</time></trkpt><trkpt lat="40.31809956637632" lon="9.585168007016355"><ele>250.50000000000003</ele><time>2026-04-30T09:54:48Z</time></trkpt><trkpt lat="40.31804061778307" lon="9.585067109211675"><ele>250.0</ele><time>2026-04-30T09:54:49Z</time></trkpt><trkpt lat="40.31798379690191" lon="9.584956978172224"><ele>249.5</ele><time>2026-04-30T09:54:50Z</time></trkpt><trkpt lat="40.31793616414943" lon="9.584850444954041"><ele>249.0</ele><time>2026-04-30T09:54:51Z</time></trkpt><trkpt lat="40.3178941121629" lon="9.584752590376535"><ele>248.50000000000003</ele><time>2026-04-30T09:54:52Z</time></trkpt><trkpt lat="40.317858147890455" lon="9.584672456014017"><ele>248.0</ele><time>2026-04-30T09:54:53Z</time></trkpt><trkpt lat="40.317826305976624" lon="9.584592857992012"><ele>248.00000000000003</ele><time>2026-04-30T09:54:54Z</time></trkpt><trkpt lat="40.317789320609215" lon="9.584514857760507"><ele>248.0</ele><time>2026-04-30T09:54:55Z</time></trkpt><trkpt lat="40.31775242376701" lon="9.584425930047201"><ele>248.0</ele><time>2026-04-30T09:54:56Z</time></trkpt><trkpt lat="40.317715702027904" lon="9.584323881367574"><ele>248.0</ele><time>2026-04-30T09:54:57Z</time></trkpt><trkpt lat="40.31767801733278" lon="9.58420841117219"><ele>248.00000000000003</ele><time>2026-04-30T09:54:58Z</time></trkpt><trkpt lat="40.31763742376046" lon="9.58407908085473"><ele>248.0</ele><time>2026-04-30T09:54:59Z</time></trkpt><trkpt lat="40.31759394770014" lon="9.58393622685855"><ele>247.5</ele><time>2026-04-30T09:55:00Z</time></trkpt><trkpt lat="40.3175505235261" lon="9.583773571400283"><ele>247.0</ele><time>2026-04-30T09:55:01Z</time></trkpt><trkpt lat="40.31750949909667" lon="9.58359306442726"><ele>246.5</ele><time>2026-04-30T09:55:02Z</time></trkpt><trkpt lat="40.317468555235635" lon="9.583392697153826"><ele>246.0</ele><time>2026-04-30T09:55:03Z</time></trkpt><trkpt lat="40.31742685884114" lon="9.58318209452123"><ele>245.0</ele><time>2026-04-30T09:55:04Z</time></trkpt><trkpt lat="40.3173856331765" lon="9.582959354552422"><ele>244.0</ele><time>2026-04-30T09:55:05Z</time></trkpt><trkpt lat="40.31733449479827" lon="9.58273047281381"><ele>243.0</ele><time>2026-04-30T09:55:06Z</time></trkpt><trkpt lat="40.317278605564134" lon="9.582516905284148"><ele>241.33333333333331</ele><time>2026-04-30T09:55:07Z</time></trkpt><trkpt lat="40.31720951948762" lon="9.582324991364166"><ele>239.66666666666666</ele><time>2026-04-30T09:55:08Z</time></trkpt><trkpt lat="40.317099719711884" lon="9.582165664751848"><ele>238.0</ele><time>2026-04-30T09:55:09Z</time></trkpt><trkpt lat="40.316956043303655" lon="9.582025203502301"><ele>238.66666666666666</ele><time>2026-04-30T09:55:10Z</time></trkpt><trkpt lat="40.31679321966026" lon="9.581908424700549"><ele>239.33333333333331</ele><time>2026-04-30T09:55:11Z</time></trkpt><trkpt lat="40.316646443565155" lon="9.581772421697092"><ele>240.0</ele><time>2026-04-30T09:55:12Z</time></trkpt><trkpt lat="40.31654279750185" lon="9.581565643183415"><ele>240.0</ele><time>2026-04-30T09:55:13Z</time></trkpt><trkpt lat="40.3164388429266" lon="9.581333658740355"><ele>240.0</ele><time>2026-04-30T09:55:14Z</time></trkpt><trkpt lat="40.31632678949168" lon="9.581092244659946"><ele>240.0</ele><time>2026-04-30T09:55:15Z</time></trkpt><trkpt lat="40.31621635892907" lon="9.580808584537811"><ele>240.0</ele><time>2026-04-30T09:55:16Z</time></trkpt><trkpt lat="40.3160985548074" lon="9.58053907478344"><ele>240.0</ele><time>2026-04-30T09:55:17Z</time></trkpt><trkpt lat="40.315978198220044" lon="9.580263694516903"><ele>240.0</ele><time>2026-04-30T09:55:18Z</time></trkpt><trkpt lat="40.31586544360397" lon="9.580007848436376"><ele>240.0</ele><time>2026-04-30T09:55:19Z</time></trkpt><trkpt lat="40.315769787205454" lon="9.579776429712988"><ele>240.0</ele><time>2026-04-30T09:55:20Z</time></trkpt><trkpt lat="40.31567937002303" lon="9.579564729988668"><ele>240.25</ele><time>2026-04-30T09:55:21Z</time></trkpt><trkpt lat="40.315594708594105" lon="9.579377956524008"><ele>240.5</ele><time>2026-04-30T09:55:22.002Z</time></trkpt><trkpt lat="40.31552483080318" lon="9.57921626126313"><ele>240.75</ele><time>2026-04-30T09:55:23.002Z</time></trkpt><trkpt lat="40.31546590818293" lon="9.579058031629504"><ele>241.0</ele><time>2026-04-30T09:55:24.002Z</time></trkpt><trkpt lat="40.31541473221291" lon="9.57890944853898"><ele>242.0</ele><time>2026-04-30T09:55:25.002Z</time></trkpt><trkpt lat="40.315375952792195" lon="9.57876158734632"><ele>243.0</ele><time>2026-04-30T09:55:26.002Z</time></trkpt><trkpt lat="40.31533650712461" lon="9.578609692210966"><ele>244.0</ele><time>2026-04-30T09:55:27.002Z</time></trkpt><trkpt lat="40.315297311015335" lon="9.578459477968128"><ele>245.0</ele><time>2026-04-30T09:55:28.002Z</time></trkpt><trkpt lat="40.31525817333815" lon="9.578308986963123"><ele>245.0</ele><time>2026-04-30T09:55:29.002Z</time></trkpt><trkpt lat="40.315213762020214" lon="9.57816103100041"><ele>245.0</ele><time>2026-04-30T09:55:30.002Z</time></trkpt><trkpt lat="40.315177570210984" lon="9.578048085871444"><ele>245.0</ele><time>2026-04-30T09:55:31.002Z</time></trkpt><trkpt lat="40.31512248193307" lon="9.57793598772168"><ele>245.0</ele><time>2026-04-30T09:55:33.001Z</time></trkpt><trkpt lat="40.31507296059706" lon="9.57783494640642"><ele>245.0</ele><time>2026-04-30T09:55:35.001Z</time></trkpt><trkpt lat="40.31499171273674" lon="9.577702899765796"><ele>245.00000000000003</ele><time>2026-04-30T09:55:37.001Z</time></trkpt><trkpt lat="40.314943310914174" lon="9.57763973935051"><ele>245.0</ele><time>2026-04-30T09:55:38.001Z</time></trkpt><trkpt lat="40.31489060062073" lon="9.577575082137745"><ele>245.0</ele><time>2026-04-30T09:55:39.001Z</time></trkpt><trkpt lat="40.31483332964047" lon="9.577505163199168"><ele>245.0</ele><time>2026-04-30T09:55:40.001Z</time></trkpt><trkpt lat="40.31477115162829" lon="9.577430990451909"><ele>245.00000000000003</ele><time>2026-04-30T09:55:41.001Z</time></trkpt><trkpt lat="40.314704550416714" lon="9.577357057881576"><ele>245.0</ele><time>2026-04-30T09:55:42.001Z</time></trkpt><trkpt lat="40.31462788034172" lon="9.577280859873406"><ele>246.0</ele><time>2026-04-30T09:55:43.001Z</time></trkpt><trkpt lat="40.31454092691042" lon="9.577201280380159"><ele>247.0</ele><time>2026-04-30T09:55:44.001Z</time></trkpt><trkpt lat="40.314443201231455" lon="9.577117981787147"><ele>248.0</ele><time>2026-04-30T09:55:45.001Z</time></trkpt><trkpt lat="40.3143350533431" lon="9.5770341812427"><ele>249.0</ele><time>2026-04-30T09:55:46.001Z</time></trkpt><trkpt lat="40.31422644482215" lon="9.576947803411285"><ele>249.0</ele><time>2026-04-30T09:55:47.001Z</time></trkpt><trkpt lat="40.31413051401055" lon="9.576869844765287"><ele>249.0</ele><time>2026-04-30T09:55:48.001Z</time></trkpt><trkpt lat="40.31403306651198" lon="9.576795456925824"><ele>249.0</ele><time>2026-04-30T09:55:49.001Z</time></trkpt><trkpt lat="40.313924609541694" lon="9.57671329091589"><ele>249.0</ele><time>2026-04-30T09:55:50.001Z</time></trkpt><trkpt lat="40.313795951467306" lon="9.576617513394144"><ele>251.0</ele><time>2026-04-30T09:55:51.001Z</time></trkpt><trkpt lat="40.313648826136664" lon="9.576519488701738"><ele>253.0</ele><time>2026-04-30T09:55:52.001Z</time></trkpt><trkpt lat="40.31351540942744" lon="9.576440218209973"><ele>255.0</ele><time>2026-04-30T09:55:53.001Z</time></trkpt><trkpt lat="40.313383476778405" lon="9.57635615940169"><ele>255.0</ele><time>2026-04-30T09:55:54.001Z</time></trkpt><trkpt lat="40.31324493157829" lon="9.576295734139373"><ele>255.0</ele><time>2026-04-30T09:55:55.001Z</time></trkpt><trkpt lat="40.313119237568806" lon="9.576234040320966"><ele>255.0</ele><time>2026-04-30T09:55:56.001Z</time></trkpt><trkpt lat="40.31299246239882" lon="9.57616968153685"><ele>255.0</ele><time>2026-04-30T09:55:57.001Z</time></trkpt><trkpt lat="40.31286983351326" lon="9.576098467259309"><ele>256.25</ele><time>2026-04-30T09:55:58.001Z</time></trkpt><trkpt lat="40.312757905119405" lon="9.576003857739934"><ele>257.5</ele><time>2026-04-30T09:55:59.001Z</time></trkpt><trkpt lat="40.31266189852707" lon="9.575883582179987"><ele>258.75</ele><time>2026-04-30T09:56:00.001Z</time></trkpt><trkpt lat="40.31260960527753" lon="9.575729335711022"><ele>260.0</ele><time>2026-04-30T09:56:01.001Z</time></trkpt><trkpt lat="40.312570524017524" lon="9.575573273061652"><ele>260.0</ele><time>2026-04-30T09:56:02.001Z</time></trkpt><trkpt lat="40.31253652743303" lon="9.575398284620672"><ele>260.0</ele><time>2026-04-30T09:56:03.001Z</time></trkpt><trkpt lat="40.31250464258997" lon="9.575229502570204"><ele>260.0</ele><time>2026-04-30T09:56:04.001Z</time></trkpt><trkpt lat="40.312471801935786" lon="9.575067194254045"><ele>260.0</ele><time>2026-04-30T09:56:05.001Z</time></trkpt><trkpt lat="40.31243540206395" lon="9.574903461507226"><ele>260.0</ele><time>2026-04-30T09:56:06.001Z</time></trkpt><trkpt lat="40.312389268951144" lon="9.574733255840242"><ele>260.0</ele><time>2026-04-30T09:56:07.001Z</time></trkpt><trkpt lat="40.31233101414129" lon="9.574564998958232"><ele>260.0</ele><time>2026-04-30T09:56:08.001Z</time></trkpt><trkpt lat="40.31225769849681" lon="9.574408950299107"><ele>260.0</ele><time>2026-04-30T09:56:09Z</time></trkpt><trkpt lat="40.31216303372626" lon="9.574263250938838"><ele>261.0</ele><time>2026-04-30T09:56:10Z</time></trkpt><trkpt lat="40.312048178309034" lon="9.574136520777685"><ele>262.0</ele><time>2026-04-30T09:56:11Z</time></trkpt><trkpt lat="40.311923690110454" lon="9.574032039274181"><ele>263.0</ele><time>2026-04-30T09:56:12Z</time></trkpt><trkpt lat="40.31178882752073" lon="9.573939344063083"><ele>263.0</ele><time>2026-04-30T09:56:13Z</time></trkpt><trkpt lat="40.31165852176" lon="9.573872855841737"><ele>263.0</ele><time>2026-04-30T09:56:14Z</time></trkpt><trkpt lat="40.311528116139456" lon="9.573831030106033"><ele>263.0</ele><time>2026-04-30T09:56:15Z</time></trkpt><trkpt lat="40.31139760587513" lon="9.573837286930054"><ele>263.0</ele><time>2026-04-30T09:56:16Z</time></trkpt><trkpt lat="40.31126851993929" lon="9.573869937885805"><ele>263.0</ele><time>2026-04-30T09:56:17Z</time></trkpt><trkpt lat="40.31113356224073" lon="9.573891372762075"><ele>263.0</ele><time>2026-04-30T09:56:18Z</time></trkpt><trkpt lat="40.31099981901334" lon="9.573936791525275"><ele>263.0</ele><time>2026-04-30T09:56:19Z</time></trkpt><trkpt lat="40.31086012984886" lon="9.573982222053617"><ele>263.0</ele><time>2026-04-30T09:56:20Z</time></trkpt><trkpt lat="40.31070966921475" lon="9.57399951522568"><ele>263.6666666666667</ele><time>2026-04-30T09:56:21Z</time></trkpt><trkpt lat="40.31053767896302" lon="9.573975119529099"><ele>264.3333333333333</ele><time>2026-04-30T09:56:22Z</time></trkpt><trkpt lat="40.31033898920782" lon="9.573953113883594"><ele>265.0</ele><time>2026-04-30T09:56:23Z</time></trkpt><trkpt lat="40.31011578706478" lon="9.573928845269682"><ele>265.0</ele><time>2026-04-30T09:56:24Z</time></trkpt><trkpt lat="40.30987375942214" lon="9.573902529781833"><ele>265.0</ele><time>2026-04-30T09:56:25Z</time></trkpt><trkpt lat="40.30961665821295" lon="9.573871315424554"><ele>266.0</ele><time>2026-04-30T09:56:26Z</time></trkpt><trkpt lat="40.30935256125643" lon="9.573840568644405"><ele>267.0</ele><time>2026-04-30T09:56:27Z</time></trkpt><trkpt lat="40.30908563906728" lon="9.573806418031504"><ele>268.5</ele><time>2026-04-30T09:56:28Z</time></trkpt><trkpt lat="40.3088286131586" lon="9.573782779975378"><ele>270.0</ele><time>2026-04-30T09:56:29Z</time></trkpt><trkpt lat="40.30859604920968" lon="9.57375367043468"><ele>270.0</ele><time>2026-04-30T09:56:30Z</time></trkpt><trkpt lat="40.30838411924859" lon="9.573709973187905"><ele>270.0</ele><time>2026-04-30T09:56:31Z</time></trkpt><trkpt lat="40.30819395899865" lon="9.573633223579456"><ele>270.0</ele><time>2026-04-30T09:56:32Z</time></trkpt><trkpt lat="40.308042510192784" lon="9.573477849813397"><ele>270.3333333333333</ele><time>2026-04-30T09:56:33Z</time></trkpt><trkpt lat="40.30791802549295" lon="9.573280614709535"><ele>270.66666666666663</ele><time>2026-04-30T09:56:34Z</time></trkpt><trkpt lat="40.30778885420283" lon="9.573042248103837"><ele>271.0</ele><time>2026-04-30T09:56:35Z</time></trkpt><trkpt lat="40.30763219281518" lon="9.57277918168236"><ele>271.0</ele><time>2026-04-30T09:56:36Z</time></trkpt><trkpt lat="40.30747321615213" lon="9.572470563616298"><ele>271.0</ele><time>2026-04-30T09:56:37Z</time></trkpt><trkpt lat="40.30729706792552" lon="9.572146253094626"><ele>273.5</ele><time>2026-04-30T09:56:38Z</time></trkpt><trkpt lat="40.307138058950834" lon="9.571861701554038"><ele>276.0</ele><time>2026-04-30T09:56:39Z</time></trkpt><trkpt lat="40.30702438213334" lon="9.571619225030556"><ele>276.0</ele><time>2026-04-30T09:56:40Z</time></trkpt><trkpt lat="40.306908059861996" lon="9.571420830390512"><ele>276.0</ele><time>2026-04-30T09:56:41Z</time></trkpt><trkpt lat="40.306764568677416" lon="9.571255990211041"><ele>276.0</ele><time>2026-04-30T09:56:42Z</time></trkpt><trkpt lat="40.30659143118552" lon="9.571126667851438"><ele>274.6666666666667</ele><time>2026-04-30T09:56:43Z</time></trkpt><trkpt lat="40.3064047996754" lon="9.57105600957011"><ele>273.33333333333337</ele><time>2026-04-30T09:56:44Z</time></trkpt><trkpt lat="40.306202251471895" lon="9.57103374007723"><ele>272.0</ele><time>2026-04-30T09:56:45Z</time></trkpt><trkpt lat="40.30600425907523" lon="9.571063026669503"><ele>272.0</ele><time>2026-04-30T09:56:46Z</time></trkpt><trkpt lat="40.30581449465105" lon="9.571136527151795"><ele>272.0</ele><time>2026-04-30T09:56:47Z</time></trkpt><trkpt lat="40.305624011685936" lon="9.571246885883527"><ele>272.0</ele><time>2026-04-30T09:56:48Z</time></trkpt><trkpt lat="40.305431609820225" lon="9.57139766264143"><ele>273.0</ele><time>2026-04-30T09:56:49Z</time></trkpt><trkpt lat="40.30523802106145" lon="9.571580384717532"><ele>274.0</ele><time>2026-04-30T09:56:50Z</time></trkpt><trkpt lat="40.30503792039939" lon="9.571758752817393"><ele>274.0</ele><time>2026-04-30T09:56:51Z</time></trkpt><trkpt lat="40.30483964822344" lon="9.571923865280299"><ele>274.0</ele><time>2026-04-30T09:56:52Z</time></trkpt><trkpt lat="40.304648479570695" lon="9.572094367397684"><ele>274.3333333333333</ele><time>2026-04-30T09:56:53Z</time></trkpt><trkpt lat="40.304467619591605" lon="9.572269399211278"><ele>274.6666666666667</ele><time>2026-04-30T09:56:54Z</time></trkpt><trkpt lat="40.304319148499516" lon="9.572445699386975"><ele>275.0</ele><time>2026-04-30T09:56:55Z</time></trkpt><trkpt lat="40.30419583350193" lon="9.572621966238057"><ele>275.0</ele><time>2026-04-30T09:56:56Z</time></trkpt><trkpt lat="40.30408834455112" lon="9.57283813071766"><ele>275.0</ele><time>2026-04-30T09:56:57Z</time></trkpt><trkpt lat="40.30398767668362" lon="9.57310387737838"><ele>275.0</ele><time>2026-04-30T09:56:58Z</time></trkpt><trkpt lat="40.303889406738115" lon="9.573390180825106"><ele>275.6666666666667</ele><time>2026-04-30T09:56:59Z</time></trkpt><trkpt lat="40.30379740559572" lon="9.573647681424042"><ele>276.3333333333333</ele><time>2026-04-30T09:57:00Z</time></trkpt><trkpt lat="40.30370409249222" lon="9.573849896699572"><ele>277.0</ele><time>2026-04-30T09:57:01Z</time></trkpt><trkpt lat="40.30363814880344" lon="9.574007446888007"><ele>277.8</ele><time>2026-04-30T09:57:02Z</time></trkpt><trkpt lat="40.30356846940166" lon="9.574128203222703"><ele>278.6</ele><time>2026-04-30T09:57:03Z</time></trkpt><trkpt lat="40.303488728815296" lon="9.574171641795507"><ele>279.40000000000003</ele><time>2026-04-30T09:57:04Z</time></trkpt><trkpt lat="40.303406371803966" lon="9.574161271003144"><ele>280.2</ele><time>2026-04-30T09:57:05Z</time></trkpt><trkpt lat="40.30332572582271" lon="9.574049137897145"><ele>281.0</ele><time>2026-04-30T09:57:06Z</time></trkpt><trkpt lat="40.303228338964544" lon="9.57396160985683"><ele>281.0</ele><time>2026-04-30T09:57:07Z</time></trkpt><trkpt lat="40.303212025113616" lon="9.573782164234391"><ele>281.0</ele><time>2026-04-30T09:57:08Z</time></trkpt><trkpt lat="40.30317501198133" lon="9.573558139702481"><ele>281.0</ele><time>2026-04-30T09:57:09Z</time></trkpt><trkpt lat="40.30314705545638" lon="9.57329164360554"><ele>279.0</ele><time>2026-04-30T09:57:10Z</time></trkpt><trkpt lat="40.30310346982743" lon="9.572994090692873"><ele>277.0</ele><time>2026-04-30T09:57:11Z</time></trkpt><trkpt lat="40.30306686364062" lon="9.572704243644843"><ele>279.75</ele><time>2026-04-30T09:57:12Z</time></trkpt><trkpt lat="40.30304182775292" lon="9.572478356138102"><ele>282.5</ele><time>2026-04-30T09:57:13Z</time></trkpt><trkpt lat="40.30301230317929" lon="9.572282675078688"><ele>285.25</ele><time>2026-04-30T09:57:14Z</time></trkpt><trkpt lat="40.30298502735252" lon="9.572126435156378"><ele>288.0</ele><time>2026-04-30T09:57:15Z</time></trkpt><trkpt lat="40.30295750074577" lon="9.571997824943521"><ele>288.0</ele><time>2026-04-30T09:57:16Z</time></trkpt><trkpt lat="40.30291734020953" lon="9.571886098333303"><ele>288.0</ele><time>2026-04-30T09:57:17Z</time></trkpt><trkpt lat="40.30286292408978" lon="9.571796003117694"><ele>288.0</ele><time>2026-04-30T09:57:18Z</time></trkpt><trkpt lat="40.302777336177826" lon="9.571732769801544"><ele>288.0</ele><time>2026-04-30T09:57:19Z</time></trkpt><trkpt lat="40.302659155939956" lon="9.571689058220842"><ele>288.0</ele><time>2026-04-30T09:57:20Z</time></trkpt><trkpt lat="40.30251970638474" lon="9.57167313357659"><ele>288.0</ele><time>2026-04-30T09:57:21Z</time></trkpt><trkpt lat="40.30238166416592" lon="9.571666581291318"><ele>288.0</ele><time>2026-04-30T09:57:22Z</time></trkpt><trkpt lat="40.30224830297571" lon="9.57165137457341"><ele>288.0</ele><time>2026-04-30T09:57:23Z</time></trkpt><trkpt lat="40.302121480884594" lon="9.571626967482745"><ele>288.0</ele><time>2026-04-30T09:57:24Z</time></trkpt><trkpt lat="40.30199763632779" lon="9.571593488909457"><ele>289.0</ele><time>2026-04-30T09:57:25Z</time></trkpt><trkpt lat="40.30187517989591" lon="9.57154135504533"><ele>290.0</ele><time>2026-04-30T09:57:26Z</time></trkpt><trkpt lat="40.30176422617811" lon="9.571449508805285"><ele>291.0</ele><time>2026-04-30T09:57:27Z</time></trkpt><trkpt lat="40.30166527054785" lon="9.571327711903235"><ele>292.0</ele><time>2026-04-30T09:57:28.001Z</time></trkpt><trkpt lat="40.30158638359978" lon="9.571190699904276"><ele>292.0</ele><time>2026-04-30T09:57:29.001Z</time></trkpt><trkpt lat="40.30151459077413" lon="9.571058012871594"><ele>292.0</ele><time>2026-04-30T09:57:30.001Z</time></trkpt><trkpt lat="40.30144639613683" lon="9.570940242589248"><ele>292.0</ele><time>2026-04-30T09:57:31.001Z</time></trkpt><trkpt lat="40.301371302769226" lon="9.570839417504866"><ele>292.0</ele><time>2026-04-30T09:57:32.001Z</time></trkpt><trkpt lat="40.301279578479175" lon="9.570774518457798"><ele>292.0</ele><time>2026-04-30T09:57:33.001Z</time></trkpt><trkpt lat="40.30117261706392" lon="9.570758609168685"><ele>291.25</ele><time>2026-04-30T09:57:34.001Z</time></trkpt><trkpt lat="40.3010632623376" lon="9.570803499511301"><ele>290.5</ele><time>2026-04-30T09:57:35.001Z</time></trkpt><trkpt lat="40.30097548854699" lon="9.570908059462813"><ele>289.75</ele><time>2026-04-30T09:57:36.001Z</time></trkpt><trkpt lat="40.300918193595535" lon="9.571039276949806"><ele>289.0</ele><time>2026-04-30T09:57:37.001Z</time></trkpt><trkpt lat="40.300891741613825" lon="9.571209071340501"><ele>291.66666666666663</ele><time>2026-04-30T09:57:38.001Z</time></trkpt><trkpt lat="40.30085296373926" lon="9.571429239928662"><ele>294.3333333333333</ele><time>2026-04-30T09:57:39.001Z</time></trkpt><trkpt lat="40.30082196921459" lon="9.571644379677139"><ele>297.0</ele><time>2026-04-30T09:57:40.001Z</time></trkpt><trkpt lat="40.30079872194082" lon="9.571804745046716"><ele>297.0</ele><time>2026-04-30T09:57:41.001Z</time></trkpt><trkpt lat="40.300774652662774" lon="9.571936059413996"><ele>297.0</ele><time>2026-04-30T09:57:42.001Z</time></trkpt><trkpt lat="40.300736330200486" lon="9.572074895087583"><ele>297.0</ele><time>2026-04-30T09:57:43.001Z</time></trkpt><trkpt lat="40.30066609709133" lon="9.572240947126826"><ele>297.0</ele><time>2026-04-30T09:57:44.001Z</time></trkpt><trkpt lat="40.30056159586588" lon="9.572467829532998"><ele>296.5</ele><time>2026-04-30T09:57:45.001Z</time></trkpt><trkpt lat="40.300427762524805" lon="9.572733406585442"><ele>296.0</ele><time>2026-04-30T09:57:46.001Z</time></trkpt><trkpt lat="40.300276589199655" lon="9.572982567536101"><ele>299.0</ele><time>2026-04-30T09:57:47.001Z</time></trkpt><trkpt lat="40.300154595345056" lon="9.573210114498538"><ele>302.0</ele><time>2026-04-30T09:57:48.001Z</time></trkpt><trkpt lat="40.30004620694797" lon="9.573394626569385"><ele>305.0</ele><time>2026-04-30T09:57:49.001Z</time></trkpt><trkpt lat="40.29996126836986" lon="9.573577275618792"><ele>307.25</ele><time>2026-04-30T09:57:50.001Z</time></trkpt><trkpt lat="40.29990253631789" lon="9.57376449412477"><ele>309.5</ele><time>2026-04-30T09:57:51.001Z</time></trkpt><trkpt lat="40.299867437725716" lon="9.573945169942187"><ele>311.75</ele><time>2026-04-30T09:57:52.001Z</time></trkpt><trkpt lat="40.29984755051221" lon="9.574120131001425"><ele>314.0</ele><time>2026-04-30T09:57:53.001Z</time></trkpt><trkpt lat="40.29982768538985" lon="9.574266230959505"><ele>314.0</ele><time>2026-04-30T09:57:54.001Z</time></trkpt><trkpt lat="40.29980789904624" lon="9.574399220099286"><ele>314.0</ele><time>2026-04-30T09:57:55.001Z</time></trkpt><trkpt lat="40.299781036359825" lon="9.574520208621156"><ele>314.0</ele><time>2026-04-30T09:57:56Z</time></trkpt><trkpt lat="40.29974994585897" lon="9.574639589465528"><ele>314.0</ele><time>2026-04-30T09:57:57Z</time></trkpt><trkpt lat="40.29969146640209" lon="9.574748140113902"><ele>314.0</ele><time>2026-04-30T09:57:58Z</time></trkpt><trkpt lat="40.2996281578806" lon="9.574902328837203"><ele>314.33333333333337</ele><time>2026-04-30T09:57:59Z</time></trkpt><trkpt lat="40.29954446510019" lon="9.575088726812622"><ele>314.6666666666667</ele><time>2026-04-30T09:58:00Z</time></trkpt><trkpt lat="40.29945849927108" lon="9.57527644463446"><ele>315.0</ele><time>2026-04-30T09:58:01Z</time></trkpt><trkpt lat="40.29939291574348" lon="9.575443220168653"><ele>316.6</ele><time>2026-04-30T09:58:02Z</time></trkpt><trkpt lat="40.29932721840417" lon="9.575554313483881"><ele>318.2</ele><time>2026-04-30T09:58:03Z</time></trkpt><trkpt lat="40.29928327442413" lon="9.57565075192929"><ele>319.79999999999995</ele><time>2026-04-30T09:58:04Z</time></trkpt><trkpt lat="40.299240872380445" lon="9.575751073131084"><ele>321.4</ele><time>2026-04-30T09:58:05Z</time></trkpt><trkpt lat="40.299194752867265" lon="9.575871620326579"><ele>323.0</ele><time>2026-04-30T09:58:06Z</time></trkpt><trkpt lat="40.29914060764286" lon="9.576001534483867"><ele>323.0</ele><time>2026-04-30T09:58:07Z</time></trkpt><trkpt lat="40.2990662386217" lon="9.5761121770596"><ele>323.0</ele><time>2026-04-30T09:58:08Z</time></trkpt><trkpt lat="40.299013990360805" lon="9.576224158744575"><ele>323.0</ele><time>2026-04-30T09:58:09Z</time></trkpt><trkpt lat="40.298965106553965" lon="9.576343359242673"><ele>323.0</ele><time>2026-04-30T09:58:10Z</time></trkpt><trkpt lat="40.298918452280425" lon="9.576471184603365"><ele>323.0</ele><time>2026-04-30T09:58:11Z</time></trkpt><trkpt lat="40.298875897153245" lon="9.576598404953234"><ele>323.79999999999995</ele><time>2026-04-30T09:58:12Z</time></trkpt><trkpt lat="40.29883431901366" lon="9.57671606678381"><ele>324.6</ele><time>2026-04-30T09:58:13Z</time></trkpt><trkpt lat="40.298791376930026" lon="9.576822579998248"><ele>325.4</ele><time>2026-04-30T09:58:14Z</time></trkpt><trkpt lat="40.298743033774024" lon="9.57692132219104"><ele>326.20000000000005</ele><time>2026-04-30T09:58:15Z</time></trkpt><trkpt lat="40.298689628514694" lon="9.577017038680372"><ele>327.0</ele><time>2026-04-30T09:58:16Z</time></trkpt><trkpt lat="40.29863787844443" lon="9.577113493131785"><ele>327.8333333333333</ele><time>2026-04-30T09:58:17Z</time></trkpt><trkpt lat="40.298579656248265" lon="9.57720696650923"><ele>328.6666666666667</ele><time>2026-04-30T09:58:18Z</time></trkpt><trkpt lat="40.298523769582914" lon="9.577297352442809"><ele>329.5</ele><time>2026-04-30T09:58:19Z</time></trkpt><trkpt lat="40.29846607337785" lon="9.577382005220256"><ele>330.33333333333337</ele><time>2026-04-30T09:58:20Z</time></trkpt><trkpt lat="40.298410917126326" lon="9.577462656022789"><ele>331.1666666666667</ele><time>2026-04-30T09:58:21Z</time></trkpt><trkpt lat="40.29835886495898" lon="9.577537804372147"><ele>332.0</ele><time>2026-04-30T09:58:22Z</time></trkpt><trkpt lat="40.298302087334605" lon="9.577612606227316"><ele>332.0</ele><time>2026-04-30T09:58:23Z</time></trkpt><trkpt lat="40.29823511969851" lon="9.577680969043938"><ele>332.0</ele><time>2026-04-30T09:58:24Z</time></trkpt><trkpt lat="40.29815163846521" lon="9.577734556400799"><ele>332.0</ele><time>2026-04-30T09:58:25Z</time></trkpt><trkpt lat="40.298060286094646" lon="9.577763164535416"><ele>332.0</ele><time>2026-04-30T09:58:26Z</time></trkpt><trkpt lat="40.29796561312178" lon="9.577751107365758"><ele>332.0</ele><time>2026-04-30T09:58:27Z</time></trkpt><trkpt lat="40.2978901345596" lon="9.57770587089812"><ele>332.6</ele><time>2026-04-30T09:58:28Z</time></trkpt><trkpt lat="40.2978322718133" lon="9.577645117871327"><ele>333.20000000000005</ele><time>2026-04-30T09:58:29Z</time></trkpt><trkpt lat="40.297784422559786" lon="9.577579633616134"><ele>333.8</ele><time>2026-04-30T09:58:30Z</time></trkpt><trkpt lat="40.2976950229453" lon="9.577482715075666"><ele>334.4</ele><time>2026-04-30T09:58:32Z</time></trkpt><trkpt lat="40.29758022413347" lon="9.577405560636997"><ele>335.0</ele><time>2026-04-30T09:58:34Z</time></trkpt><trkpt lat="40.297514959451355" lon="9.577386947223246"><ele>334.99999999999994</ele><time>2026-04-30T09:58:35Z</time></trkpt><trkpt lat="40.29744817615344" lon="9.577385808501349"><ele>335.0</ele><time>2026-04-30T09:58:36Z</time></trkpt><trkpt lat="40.297377809853785" lon="9.577403419544513"><ele>335.0</ele><time>2026-04-30T09:58:37Z</time></trkpt><trkpt lat="40.29730348933168" lon="9.577437559468212"><ele>335.0</ele><time>2026-04-30T09:58:38Z</time></trkpt><trkpt lat="40.297227595013105" lon="9.57747562078149"><ele>335.0</ele><time>2026-04-30T09:58:39Z</time></trkpt><trkpt lat="40.29715644691705" lon="9.577511225199768"><ele>334.99999999999994</ele><time>2026-04-30T09:58:40Z</time></trkpt><trkpt lat="40.29708954787456" lon="9.577543592956447"><ele>335.0</ele><time>2026-04-30T09:58:41Z</time></trkpt><trkpt lat="40.29702399273266" lon="9.577581048171837"><ele>335.5</ele><time>2026-04-30T09:58:42Z</time></trkpt><trkpt lat="40.29695527591842" lon="9.577625594400521"><ele>336.0</ele><time>2026-04-30T09:58:43Z</time></trkpt><trkpt lat="40.296890562838655" lon="9.577676891232455"><ele>336.5</ele><time>2026-04-30T09:58:44Z</time></trkpt><trkpt lat="40.29682832329723" lon="9.577737069188133"><ele>337.0</ele><time>2026-04-30T09:58:45Z</time></trkpt><trkpt lat="40.29676774273014" lon="9.577808254289668"><ele>337.5</ele><time>2026-04-30T09:58:46Z</time></trkpt><trkpt lat="40.296711563442166" lon="9.57789141371788"><ele>338.0</ele><time>2026-04-30T09:58:47Z</time></trkpt><trkpt lat="40.296656888685206" lon="9.57796824012638"><ele>339.1666666666667</ele><time>2026-04-30T09:58:48Z</time></trkpt><trkpt lat="40.29661378143785" lon="9.578057099880446"><ele>340.33333333333337</ele><time>2026-04-30T09:58:49Z</time></trkpt><trkpt lat="40.296576231140136" lon="9.578152333351191"><ele>341.5</ele><time>2026-04-30T09:58:50Z</time></trkpt><trkpt lat="40.29654756088332" lon="9.578253118681792"><ele>342.6666666666667</ele><time>2026-04-30T09:58:51Z</time></trkpt><trkpt lat="40.29652646120746" lon="9.578351478656677"><ele>343.8333333333333</ele><time>2026-04-30T09:58:52Z</time></trkpt><trkpt lat="40.29651363845742" lon="9.578444260419467"><ele>345.0</ele><time>2026-04-30T09:58:53Z</time></trkpt><trkpt lat="40.29651228413436" lon="9.578548564419348"><ele>345.0</ele><time>2026-04-30T09:58:54Z</time></trkpt><trkpt lat="40.29651974887173" lon="9.578676524739201"><ele>345.0</ele><time>2026-04-30T09:58:55Z</time></trkpt><trkpt lat="40.2965331675313" lon="9.578824109555653"><ele>345.0</ele><time>2026-04-30T09:58:56Z</time></trkpt><trkpt lat="40.29650610934435" lon="9.578993868231603"><ele>345.0</ele><time>2026-04-30T09:58:57Z</time></trkpt><trkpt lat="40.29655312025144" lon="9.579180396432148"><ele>345.0</ele><time>2026-04-30T09:58:58Z</time></trkpt><trkpt lat="40.29656922054589" lon="9.579394385856165"><ele>345.0</ele><time>2026-04-30T09:58:59Z</time></trkpt><trkpt lat="40.29658410311257" lon="9.579610260764344"><ele>345.0</ele><time>2026-04-30T09:59:00Z</time></trkpt><trkpt lat="40.29658770870061" lon="9.579812785034335"><ele>345.6666666666667</ele><time>2026-04-30T09:59:01Z</time></trkpt><trkpt lat="40.2965666055255" lon="9.580018706586939"><ele>346.33333333333337</ele><time>2026-04-30T09:59:02Z</time></trkpt><trkpt lat="40.29650324387364" lon="9.580210736839947"><ele>347.0</ele><time>2026-04-30T09:59:03Z</time></trkpt><trkpt lat="40.296413810173135" lon="9.58038262275695"><ele>347.33333333333337</ele><time>2026-04-30T09:59:04Z</time></trkpt><trkpt lat="40.29632371055199" lon="9.580548491448742"><ele>347.6666666666667</ele><time>2026-04-30T09:59:05Z</time></trkpt><trkpt lat="40.29625029099876" lon="9.58072633364864"><ele>348.0</ele><time>2026-04-30T09:59:06Z</time></trkpt><trkpt lat="40.29619621809984" lon="9.580919719595533"><ele>348.0</ele><time>2026-04-30T09:59:07Z</time></trkpt><trkpt lat="40.29615701903622" lon="9.581119828494025"><ele>348.0</ele><time>2026-04-30T09:59:08Z</time></trkpt><trkpt lat="40.29613696484192" lon="9.581327658498909"><ele>348.0</ele><time>2026-04-30T09:59:09Z</time></trkpt><trkpt lat="40.296132627030886" lon="9.581547238507202"><ele>349.3333333333333</ele><time>2026-04-30T09:59:10Z</time></trkpt><trkpt lat="40.29614202080813" lon="9.581778654783026"><ele>350.66666666666663</ele><time>2026-04-30T09:59:11Z</time></trkpt><trkpt lat="40.29615355336426" lon="9.582010219512204"><ele>352.0</ele><time>2026-04-30T09:59:12Z</time></trkpt><trkpt lat="40.29617065499347" lon="9.582251249982322"><ele>352.0</ele><time>2026-04-30T09:59:13Z</time></trkpt><trkpt lat="40.29618624317588" lon="9.582493966974058"><ele>352.0</ele><time>2026-04-30T09:59:14Z</time></trkpt><trkpt lat="40.29619864203104" lon="9.582714107705899"><ele>352.0</ele><time>2026-04-30T09:59:15Z</time></trkpt><trkpt lat="40.296187772945004" lon="9.582921601531828"><ele>353.75</ele><time>2026-04-30T09:59:16Z</time></trkpt><trkpt lat="40.29621077261031" lon="9.583122583098191"><ele>355.5</ele><time>2026-04-30T09:59:17Z</time></trkpt><trkpt lat="40.29622884322029" lon="9.583322487515177"><ele>357.25</ele><time>2026-04-30T09:59:18Z</time></trkpt><trkpt lat="40.296243341496194" lon="9.58350009100174"><ele>359.0</ele><time>2026-04-30T09:59:19Z</time></trkpt><trkpt lat="40.29625628521414" lon="9.583628696064181"><ele>361.0</ele><time>2026-04-30T09:59:20Z</time></trkpt><trkpt lat="40.296254929064" lon="9.583729546693647"><ele>363.0</ele><time>2026-04-30T09:59:21Z</time></trkpt><trkpt lat="40.29625570864294" lon="9.583840104419988"><ele>365.0</ele><time>2026-04-30T09:59:23Z</time></trkpt><trkpt lat="40.29645580403132" lon="9.583781589107325"><ele>367.0</ele><time>2026-04-30T09:59:24Z</time></trkpt><trkpt lat="40.296573370231854" lon="9.583789269061189"><ele>367.75</ele><time>2026-04-30T09:59:25Z</time></trkpt><trkpt lat="40.29666522615961" lon="9.583869365525265"><ele>368.5</ele><time>2026-04-30T09:59:26Z</time></trkpt><trkpt lat="40.29674970788871" lon="9.583979696160982"><ele>369.25</ele><time>2026-04-30T09:59:27Z</time></trkpt><trkpt lat="40.29683361352581" lon="9.584129230410007"><ele>370.0</ele><time>2026-04-30T09:59:28Z</time></trkpt><trkpt lat="40.29691022038747" lon="9.584309406263095"><ele>370.0</ele><time>2026-04-30T09:59:29Z</time></trkpt><trkpt lat="40.29698755818335" lon="9.584502492243107"><ele>370.0</ele><time>2026-04-30T09:59:30Z</time></trkpt><trkpt lat="40.29706923896449" lon="9.584714430046535"><ele>370.0</ele><time>2026-04-30T09:59:31Z</time></trkpt><trkpt lat="40.29712925380698" lon="9.584933031530703"><ele>371.3333333333333</ele><time>2026-04-30T09:59:32Z</time></trkpt><trkpt lat="40.297169757899454" lon="9.585161613751332"><ele>372.6666666666667</ele><time>2026-04-30T09:59:33Z</time></trkpt><trkpt lat="40.29722768977096" lon="9.5854001040656"><ele>374.0</ele><time>2026-04-30T09:59:34.001Z</time></trkpt><trkpt lat="40.29725641442652" lon="9.585660806043904"><ele>376.33333333333337</ele><time>2026-04-30T09:59:35Z</time></trkpt><trkpt lat="40.297301636575696" lon="9.58592550847609"><ele>378.6666666666667</ele><time>2026-04-30T09:59:36Z</time></trkpt><trkpt lat="40.29734722095084" lon="9.586188621437849"><ele>381.0</ele><time>2026-04-30T09:59:37.001Z</time></trkpt><trkpt lat="40.2973908915231" lon="9.586441928292356"><ele>382.66666666666663</ele><time>2026-04-30T09:59:38.001Z</time></trkpt><trkpt lat="40.29743430402167" lon="9.586687748478989"><ele>384.3333333333333</ele><time>2026-04-30T09:59:39.001Z</time></trkpt><trkpt lat="40.2974720146939" lon="9.586927440403494"><ele>386.0</ele><time>2026-04-30T09:59:40.001Z</time></trkpt><trkpt lat="40.29748005988939" lon="9.587156211722569"><ele>387.3333333333333</ele><time>2026-04-30T09:59:41.001Z</time></trkpt><trkpt lat="40.29745044553503" lon="9.587375347725645"><ele>388.66666666666663</ele><time>2026-04-30T09:59:42.001Z</time></trkpt><trkpt lat="40.297397543843175" lon="9.587591404141039"><ele>390.0</ele><time>2026-04-30T09:59:43.001Z</time></trkpt><trkpt lat="40.29729954477588" lon="9.587776576572287"><ele>391.33333333333337</ele><time>2026-04-30T09:59:44.001Z</time></trkpt><trkpt lat="40.29718873351552" lon="9.587961904308477"><ele>392.6666666666667</ele><time>2026-04-30T09:59:45.001Z</time></trkpt><trkpt lat="40.29706622027439" lon="9.58817552005114"><ele>394.0</ele><time>2026-04-30T09:59:46.001Z</time></trkpt><trkpt lat="40.296946161856575" lon="9.588386107271646"><ele>394.0</ele><time>2026-04-30T09:59:47.001Z</time></trkpt><trkpt lat="40.29683117228889" lon="9.58858755354185"><ele>394.0</ele><time>2026-04-30T09:59:48Z</time></trkpt><trkpt lat="40.2967191595649" lon="9.588783812155466"><ele>394.0</ele><time>2026-04-30T09:59:49Z</time></trkpt><trkpt lat="40.29661235549435" lon="9.588970261639792"><ele>395.5</ele><time>2026-04-30T09:59:50Z</time></trkpt><trkpt lat="40.296517123390686" lon="9.589136749187084"><ele>397.0</ele><time>2026-04-30T09:59:51Z</time></trkpt><trkpt lat="40.29642949380501" lon="9.589290280915566"><ele>398.5</ele><time>2026-04-30T09:59:52Z</time></trkpt><trkpt lat="40.296348068237855" lon="9.589432942785312"><ele>400.0</ele><time>2026-04-30T09:59:53Z</time></trkpt><trkpt lat="40.29626812237063" lon="9.589573724991432"><ele>401.5</ele><time>2026-04-30T09:59:54Z</time></trkpt><trkpt lat="40.29619271900847" lon="9.589706457402283"><ele>403.0</ele><time>2026-04-30T09:59:55Z</time></trkpt><trkpt lat="40.29611184631192" lon="9.589840714722959"><ele>404.5</ele><time>2026-04-30T09:59:56Z</time></trkpt><trkpt lat="40.296037783874304" lon="9.589950244179526"><ele>406.0</ele><time>2026-04-30T09:59:57Z</time></trkpt><trkpt lat="40.29596238491677" lon="9.590033391190566"><ele>406.0</ele><time>2026-04-30T09:59:58Z</time></trkpt><trkpt lat="40.295887694712036" lon="9.590103729807645"><ele>406.0</ele><time>2026-04-30T09:59:59Z</time></trkpt><trkpt lat="40.29580393141104" lon="9.590168683581798"><ele>406.0</ele><time>2026-04-30T10:00:00Z</time></trkpt><trkpt lat="40.295714792336" lon="9.590223774235303"><ele>406.0</ele><time>2026-04-30T10:00:01Z</time></trkpt><trkpt lat="40.295633832338815" lon="9.590286083287005"><ele>406.0</ele><time>2026-04-30T10:00:02Z</time></trkpt><trkpt lat="40.295541611284804" lon="9.59029794418891"><ele>407.6</ele><time>2026-04-30T10:00:03Z</time></trkpt><trkpt lat="40.29545589800636" lon="9.59034816462133"><ele>409.20000000000005</ele><time>2026-04-30T10:00:04Z</time></trkpt><trkpt lat="40.29535995713397" lon="9.590372960639959"><ele>410.79999999999995</ele><time>2026-04-30T10:00:05Z</time></trkpt><trkpt lat="40.29526620044742" lon="9.590404303750098"><ele>412.4</ele><time>2026-04-30T10:00:06Z</time></trkpt><trkpt lat="40.29516461523752" lon="9.590436247903106"><ele>414.0</ele><time>2026-04-30T10:00:07Z</time></trkpt><trkpt lat="40.295060421557054" lon="9.590470406974756"><ele>414.0</ele><time>2026-04-30T10:00:08Z</time></trkpt><trkpt lat="40.29495542092935" lon="9.590509209642267"><ele>414.0</ele><time>2026-04-30T10:00:09Z</time></trkpt><trkpt lat="40.294846843020956" lon="9.590545097030883"><ele>414.0</ele><time>2026-04-30T10:00:10Z</time></trkpt><trkpt lat="40.294736403568955" lon="9.590587757417481"><ele>414.0</ele><time>2026-04-30T10:00:11Z</time></trkpt><trkpt lat="40.29462851578701" lon="9.590648466839383"><ele>415.0</ele><time>2026-04-30T10:00:12Z</time></trkpt><trkpt lat="40.294522345017995" lon="9.590722965750533"><ele>416.0</ele><time>2026-04-30T10:00:13Z</time></trkpt><trkpt lat="40.29442212083367" lon="9.590823050612933"><ele>417.0</ele><time>2026-04-30T10:00:14Z</time></trkpt><trkpt lat="40.29432195632075" lon="9.590930340846674"><ele>418.0</ele><time>2026-04-30T10:00:15Z</time></trkpt><trkpt lat="40.29421573632228" lon="9.591043923745596"><ele>418.0</ele><time>2026-04-30T10:00:16Z</time></trkpt><trkpt lat="40.294106141424834" lon="9.591152957038474"><ele>418.0</ele><time>2026-04-30T10:00:17Z</time></trkpt><trkpt lat="40.293993693442594" lon="9.591269398771818"><ele>418.0</ele><time>2026-04-30T10:00:18Z</time></trkpt><trkpt lat="40.293879869587386" lon="9.591387069803066"><ele>418.0</ele><time>2026-04-30T10:00:19Z</time></trkpt><trkpt lat="40.29375667536152" lon="9.591503811279422"><ele>420.0</ele><time>2026-04-30T10:00:20Z</time></trkpt><trkpt lat="40.2936305324811" lon="9.591619823058394"><ele>422.0</ele><time>2026-04-30T10:00:21Z</time></trkpt><trkpt lat="40.293506703449516" lon="9.591741323373972"><ele>424.0</ele><time>2026-04-30T10:00:22Z</time></trkpt><trkpt lat="40.29338533789699" lon="9.591850332491678"><ele>424.0</ele><time>2026-04-30T10:00:23Z</time></trkpt><trkpt lat="40.29326762229322" lon="9.591957121778133"><ele>424.0</ele><time>2026-04-30T10:00:24Z</time></trkpt><trkpt lat="40.29316103008282" lon="9.592071905986117"><ele>424.0</ele><time>2026-04-30T10:00:25Z</time></trkpt><trkpt lat="40.29305692423985" lon="9.592184843736291"><ele>424.0</ele><time>2026-04-30T10:00:26Z</time></trkpt><trkpt lat="40.29296030929971" lon="9.592285938252497"><ele>425.5</ele><time>2026-04-30T10:00:27Z</time></trkpt><trkpt lat="40.2928605842503" lon="9.592387725079796"><ele>427.0</ele><time>2026-04-30T10:00:28Z</time></trkpt><trkpt lat="40.292765872404864" lon="9.592485123055857"><ele>428.5</ele><time>2026-04-30T10:00:29Z</time></trkpt><trkpt lat="40.292669531502" lon="9.592587072421916"><ele>430.0</ele><time>2026-04-30T10:00:30Z</time></trkpt><trkpt lat="40.29255935552249" lon="9.592666872683626"><ele>430.00000000000006</ele><time>2026-04-30T10:00:31Z</time></trkpt><trkpt lat="40.292472515261196" lon="9.592757200118314"><ele>430.0</ele><time>2026-04-30T10:00:32Z</time></trkpt><trkpt lat="40.29239333188793" lon="9.592837635167795"><ele>430.0</ele><time>2026-04-30T10:00:33Z</time></trkpt><trkpt lat="40.29232419460446" lon="9.59290221912863"><ele>430.0</ele><time>2026-04-30T10:00:34Z</time></trkpt><trkpt lat="40.29226851714343" lon="9.592962766305613"><ele>430.00000000000006</ele><time>2026-04-30T10:00:35Z</time></trkpt><trkpt lat="40.29221251428132" lon="9.593016462477156"><ele>430.0</ele><time>2026-04-30T10:00:36Z</time></trkpt><trkpt lat="40.29215331752553" lon="9.593070553004848"><ele>431.1666666666667</ele><time>2026-04-30T10:00:37Z</time></trkpt><trkpt lat="40.29209365317776" lon="9.593130816695387"><ele>432.33333333333337</ele><time>2026-04-30T10:00:38Z</time></trkpt><trkpt lat="40.29203338688554" lon="9.593194647419686"><ele>433.5</ele><time>2026-04-30T10:00:39Z</time></trkpt><trkpt lat="40.29197312348785" lon="9.593257407980087"><ele>434.66666666666663</ele><time>2026-04-30T10:00:40Z</time></trkpt><trkpt lat="40.29190845599355" lon="9.593319830563997"><ele>435.8333333333333</ele><time>2026-04-30T10:00:41Z</time></trkpt><trkpt lat="40.291841410362856" lon="9.593378341539424"><ele>437.0</ele><time>2026-04-30T10:00:42Z</time></trkpt><trkpt lat="40.291765324701494" lon="9.593430238946775"><ele>437.0</ele><time>2026-04-30T10:00:43Z</time></trkpt><trkpt lat="40.291678556952874" lon="9.593477683942059"><ele>437.00000000000006</ele><time>2026-04-30T10:00:44Z</time></trkpt><trkpt lat="40.29158367271592" lon="9.593519034697753"><ele>437.00000000000006</ele><time>2026-04-30T10:00:45Z</time></trkpt><trkpt lat="40.291481979705466" lon="9.59355330643165"><ele>437.0</ele><time>2026-04-30T10:00:46Z</time></trkpt><trkpt lat="40.29137035142484" lon="9.593574646588536"><ele>437.0</ele><time>2026-04-30T10:00:47Z</time></trkpt><trkpt lat="40.291253456236106" lon="9.593575079479882"><ele>437.0</ele><time>2026-04-30T10:00:48Z</time></trkpt><trkpt lat="40.29114037002443" lon="9.593574498908149"><ele>437.00000000000006</ele><time>2026-04-30T10:00:49Z</time></trkpt><trkpt lat="40.291041934214036" lon="9.593575436456057"><ele>437.00000000000006</ele><time>2026-04-30T10:00:50Z</time></trkpt><trkpt lat="40.29095011273571" lon="9.593574603263148"><ele>437.0</ele><time>2026-04-30T10:00:51Z</time></trkpt><trkpt lat="40.290868560978616" lon="9.593571989261442"><ele>437.0</ele><time>2026-04-30T10:00:52Z</time></trkpt><trkpt lat="40.290794390337396" lon="9.593560146462066"><ele>436.99999999999994</ele><time>2026-04-30T10:00:53Z</time></trkpt><trkpt lat="40.290716445036416" lon="9.593533208125999"><ele>437.0</ele><time>2026-04-30T10:00:54Z</time></trkpt><trkpt lat="40.29063987852323" lon="9.593504799681952"><ele>437.0</ele><time>2026-04-30T10:00:55Z</time></trkpt><trkpt lat="40.29056162608921" lon="9.593467251157875"><ele>437.0</ele><time>2026-04-30T10:00:56Z</time></trkpt><trkpt lat="40.290479957969865" lon="9.593422020883406"><ele>436.99999999999994</ele><time>2026-04-30T10:00:57Z</time></trkpt><trkpt lat="40.29039740781316" lon="9.593365233187765"><ele>437.0</ele><time>2026-04-30T10:00:58Z</time></trkpt><trkpt lat="40.2903147538549" lon="9.59331013493889"><ele>439.0</ele><time>2026-04-30T10:00:59Z</time></trkpt><trkpt lat="40.2902308080278" lon="9.593254702970688"><ele>441.00000000000006</ele><time>2026-04-30T10:01:00Z</time></trkpt><trkpt lat="40.29014849423496" lon="9.593178053537393"><ele>443.00000000000006</ele><time>2026-04-30T10:01:01Z</time></trkpt><trkpt lat="40.29006139202853" lon="9.593139684515966"><ele>445.0</ele><time>2026-04-30T10:01:02Z</time></trkpt><trkpt lat="40.28995375826601" lon="9.593112688987167"><ele>447.0</ele><time>2026-04-30T10:01:03Z</time></trkpt><trkpt lat="40.28985145249074" lon="9.593083420939065"><ele>447.20000000000005</ele><time>2026-04-30T10:01:04Z</time></trkpt><trkpt lat="40.289745685144105" lon="9.593065415816023"><ele>447.40000000000003</ele><time>2026-04-30T10:01:05Z</time></trkpt><trkpt lat="40.28964405784685" lon="9.593054019125987"><ele>447.59999999999997</ele><time>2026-04-30T10:01:05.999Z</time></trkpt><trkpt lat="40.28955016591421" lon="9.593040967500785"><ele>447.79999999999995</ele><time>2026-04-30T10:01:06.999Z</time></trkpt><trkpt lat="40.28946376885407" lon="9.593035312003897"><ele>448.0</ele><time>2026-04-30T10:01:07.999Z</time></trkpt><trkpt lat="40.28938086731495" lon="9.593041169850679"><ele>448.00000000000006</ele><time>2026-04-30T10:01:08.999Z</time></trkpt><trkpt lat="40.289300244540854" lon="9.593058720896973"><ele>448.0</ele><time>2026-04-30T10:01:09.999Z</time></trkpt><trkpt lat="40.28921796226735" lon="9.593089300517525"><ele>448.0</ele><time>2026-04-30T10:01:10.999Z</time></trkpt><trkpt lat="40.289140255790585" lon="9.593133781515112"><ele>448.0</ele><time>2026-04-30T10:01:11.999Z</time></trkpt><trkpt lat="40.289061475156345" lon="9.593184478137328"><ele>448.00000000000006</ele><time>2026-04-30T10:01:12.999Z</time></trkpt><trkpt lat="40.28898452912176" lon="9.593235623730001"><ele>448.0</ele><time>2026-04-30T10:01:13.999Z</time></trkpt><trkpt lat="40.28890791027087" lon="9.593290636510575"><ele>448.2</ele><time>2026-04-30T10:01:14.999Z</time></trkpt><trkpt lat="40.28882081789703" lon="9.593337186500667"><ele>448.4</ele><time>2026-04-30T10:01:15.999Z</time></trkpt><trkpt lat="40.28872549098695" lon="9.593362348902176"><ele>448.59999999999997</ele><time>2026-04-30T10:01:16.999Z</time></trkpt><trkpt lat="40.288621458314026" lon="9.59336475404453"><ele>448.79999999999995</ele><time>2026-04-30T10:01:17.999Z</time></trkpt><trkpt lat="40.28851847330435" lon="9.593357059938384"><ele>449.0</ele><time>2026-04-30T10:01:18.999Z</time></trkpt><trkpt lat="40.28841375969605" lon="9.593329651890867"><ele>449.0</ele><time>2026-04-30T10:01:19.999Z</time></trkpt><trkpt lat="40.28831161502428" lon="9.59328412289505"><ele>449.0</ele><time>2026-04-30T10:01:20.999Z</time></trkpt><trkpt lat="40.28820715363509" lon="9.593227185130434"><ele>449.0</ele><time>2026-04-30T10:01:21.999Z</time></trkpt><trkpt lat="40.2880941413874" lon="9.593174987612304"><ele>449.0</ele><time>2026-04-30T10:01:22.999Z</time></trkpt><trkpt lat="40.28797852316143" lon="9.593117186156812"><ele>452.5</ele><time>2026-04-30T10:01:23.999Z</time></trkpt><trkpt lat="40.2878539932963" lon="9.59305451914375"><ele>456.0</ele><time>2026-04-30T10:01:24.999Z</time></trkpt><trkpt lat="40.28772744530358" lon="9.592996645940786"><ele>459.5</ele><time>2026-04-30T10:01:25.999Z</time></trkpt><trkpt lat="40.2875994392382" lon="9.59293589656522"><ele>463.0</ele><time>2026-04-30T10:01:26.999Z</time></trkpt><trkpt lat="40.287462501755606" lon="9.592867903635394"><ele>458.6666666666667</ele><time>2026-04-30T10:01:27.999Z</time></trkpt><trkpt lat="40.287314452097895" lon="9.592798183796209"><ele>454.33333333333337</ele><time>2026-04-30T10:01:28.999Z</time></trkpt><trkpt lat="40.2871619570075" lon="9.592722087041489"><ele>450.0</ele><time>2026-04-30T10:01:29.999Z</time></trkpt><trkpt lat="40.28701146884559" lon="9.592649728051097"><ele>450.0</ele><time>2026-04-30T10:01:30.999Z</time></trkpt><trkpt lat="40.28686967427567" lon="9.592581336395648"><ele>450.0</ele><time>2026-04-30T10:01:31.999Z</time></trkpt><trkpt lat="40.28673937869862" lon="9.59251050550537"><ele>450.0</ele><time>2026-04-30T10:01:32.999Z</time></trkpt><trkpt lat="40.28661675822911" lon="9.592449468341375"><ele>450.0</ele><time>2026-04-30T10:01:33.999Z</time></trkpt><trkpt lat="40.28650560378608" lon="9.592401731405946"><ele>453.75</ele><time>2026-04-30T10:01:34.999Z</time></trkpt><trkpt lat="40.286402038178025" lon="9.592352531636521"><ele>457.5</ele><time>2026-04-30T10:01:35.999Z</time></trkpt><trkpt lat="40.286292324041405" lon="9.59230101982967"><ele>461.25</ele><time>2026-04-30T10:01:36.999Z</time></trkpt><trkpt lat="40.286174376770795" lon="9.592239605718262"><ele>465.0</ele><time>2026-04-30T10:01:37.999Z</time></trkpt><trkpt lat="40.28604315009641" lon="9.59218148527863"><ele>465.0</ele><time>2026-04-30T10:01:38.999Z</time></trkpt><trkpt lat="40.28592376227044" lon="9.592122730916188"><ele>465.0</ele><time>2026-04-30T10:01:40Z</time></trkpt><trkpt lat="40.28582162826759" lon="9.592074477926333"><ele>465.0</ele><time>2026-04-30T10:01:41Z</time></trkpt><trkpt lat="40.28573726274319" lon="9.592031302174394"><ele>465.0</ele><time>2026-04-30T10:01:42Z</time></trkpt><trkpt lat="40.285661820801806" lon="9.591993567105794"><ele>465.0</ele><time>2026-04-30T10:01:43Z</time></trkpt><trkpt lat="40.28559260743314" lon="9.591960814912419"><ele>460.0</ele><time>2026-04-30T10:01:44Z</time></trkpt><trkpt lat="40.28551218376092" lon="9.59193024816585"><ele>455.0</ele><time>2026-04-30T10:01:45Z</time></trkpt><trkpt lat="40.28540340296014" lon="9.591911552329991"><ele>450.0</ele><time>2026-04-30T10:01:46Z</time></trkpt><trkpt lat="40.28526720595963" lon="9.591896444941748"><ele>445.0</ele><time>2026-04-30T10:01:47Z</time></trkpt><trkpt lat="40.28511975262256" lon="9.59186798801711"><ele>445.0</ele><time>2026-04-30T10:01:48Z</time></trkpt><trkpt lat="40.28497996717325" lon="9.591824709561859"><ele>445.0</ele><time>2026-04-30T10:01:49Z</time></trkpt><trkpt lat="40.2848577053089" lon="9.59177654847272"><ele>445.0</ele><time>2026-04-30T10:01:50Z</time></trkpt><trkpt lat="40.28475062194873" lon="9.591711850051455"><ele>445.0</ele><time>2026-04-30T10:01:51Z</time></trkpt><trkpt lat="40.2846622864431" lon="9.591639699486453"><ele>446.00000000000006</ele><time>2026-04-30T10:01:52Z</time></trkpt><trkpt lat="40.284587084190704" lon="9.59157915524499"><ele>447.0</ele><time>2026-04-30T10:01:53Z</time></trkpt><trkpt lat="40.28452563082977" lon="9.5915592403903"><ele>448.0</ele><time>2026-04-30T10:01:54Z</time></trkpt><trkpt lat="40.28444357132871" lon="9.591517530101978"><ele>449.0</ele><time>2026-04-30T10:01:56Z</time></trkpt><trkpt lat="40.28436360864885" lon="9.59146528691589"><ele>450.00000000000006</ele><time>2026-04-30T10:01:58Z</time></trkpt><trkpt lat="40.284289677884395" lon="9.591421587199182"><ele>451.0</ele><time>2026-04-30T10:01:59Z</time></trkpt><trkpt lat="40.28417532202218" lon="9.59136092840635"><ele>451.0</ele><time>2026-04-30T10:02:00Z</time></trkpt><trkpt lat="40.284057671822104" lon="9.591318444399588"><ele>451.0</ele><time>2026-04-30T10:02:01Z</time></trkpt><trkpt lat="40.28394463440049" lon="9.591276014912678"><ele>451.0</ele><time>2026-04-30T10:02:02Z</time></trkpt><trkpt lat="40.28383624452208" lon="9.591260096510236"><ele>451.0</ele><time>2026-04-30T10:02:03Z</time></trkpt><trkpt lat="40.28370526625392" lon="9.591184380363442"><ele>447.5</ele><time>2026-04-30T10:02:04Z</time></trkpt><trkpt lat="40.283578655875694" lon="9.591147601656127"><ele>444.0</ele><time>2026-04-30T10:02:05Z</time></trkpt><trkpt lat="40.28344605439969" lon="9.591116259789793"><ele>440.5</ele><time>2026-04-30T10:02:06Z</time></trkpt><trkpt lat="40.28332207245085" lon="9.591092993791626"><ele>437.0</ele><time>2026-04-30T10:02:07Z</time></trkpt><trkpt lat="40.283203945207944" lon="9.591090410963751"><ele>437.0</ele><time>2026-04-30T10:02:08Z</time></trkpt><trkpt lat="40.283098567137614" lon="9.591130589035888"><ele>437.00000000000006</ele><time>2026-04-30T10:02:09Z</time></trkpt><trkpt lat="40.282994225428084" lon="9.591177071689772"><ele>437.00000000000006</ele><time>2026-04-30T10:02:10Z</time></trkpt><trkpt lat="40.28288965364123" lon="9.5912203559666"><ele>437.0</ele><time>2026-04-30T10:02:11Z</time></trkpt><trkpt lat="40.28278452700035" lon="9.591248397638392"><ele>437.0</ele><time>2026-04-30T10:02:12Z</time></trkpt><trkpt lat="40.28267818819038" lon="9.591246607038036"><ele>437.0</ele><time>2026-04-30T10:02:13Z</time></trkpt><trkpt lat="40.28257658007764" lon="9.591197308541977"><ele>437.00000000000006</ele><time>2026-04-30T10:02:14Z</time></trkpt><trkpt lat="40.28248035533046" lon="9.591132474680188"><ele>437.00000000000006</ele><time>2026-04-30T10:02:15Z</time></trkpt><trkpt lat="40.28238670331146" lon="9.59108450946062"><ele>437.0</ele><time>2026-04-30T10:02:16Z</time></trkpt><trkpt lat="40.282281347513" lon="9.59105079710659"><ele>437.0</ele><time>2026-04-30T10:02:17Z</time></trkpt><trkpt lat="40.282152035551775" lon="9.591037796851364"><ele>436.3333333333333</ele><time>2026-04-30T10:02:18Z</time></trkpt><trkpt lat="40.28197344544755" lon="9.591055166185999"><ele>435.66666666666663</ele><time>2026-04-30T10:02:19Z</time></trkpt><trkpt lat="40.28175265859993" lon="9.591047544440057"><ele>435.0</ele><time>2026-04-30T10:02:20Z</time></trkpt><trkpt lat="40.281534760592955" lon="9.591066054627843"><ele>435.33333333333337</ele><time>2026-04-30T10:02:21Z</time></trkpt><trkpt lat="40.281334617704765" lon="9.591058727229568"><ele>435.6666666666667</ele><time>2026-04-30T10:02:22Z</time></trkpt><trkpt lat="40.28113921364995" lon="9.59107106296148"><ele>436.0</ele><time>2026-04-30T10:02:23Z</time></trkpt><trkpt lat="40.280934175476794" lon="9.591111250091206"><ele>444.6666666666667</ele><time>2026-04-30T10:02:24Z</time></trkpt><trkpt lat="40.28073203565394" lon="9.59121222840121"><ele>453.33333333333337</ele><time>2026-04-30T10:02:25Z</time></trkpt><trkpt lat="40.28051917813867" lon="9.591302604134066"><ele>462.0</ele><time>2026-04-30T10:02:26Z</time></trkpt><trkpt lat="40.280295810214966" lon="9.591343188907068"><ele>462.0</ele><time>2026-04-30T10:02:27Z</time></trkpt><trkpt lat="40.28006516916668" lon="9.591368047867425"><ele>462.0</ele><time>2026-04-30T10:02:28Z</time></trkpt><trkpt lat="40.279830235059094" lon="9.59140650657181"><ele>461.5</ele><time>2026-04-30T10:02:29Z</time></trkpt><trkpt lat="40.2795906606522" lon="9.591419927489568"><ele>461.0</ele><time>2026-04-30T10:02:30Z</time></trkpt><trkpt lat="40.27934681284461" lon="9.591447791408525"><ele>461.0</ele><time>2026-04-30T10:02:31Z</time></trkpt><trkpt lat="40.27910315327567" lon="9.59148787699409"><ele>461.0</ele><time>2026-04-30T10:02:32Z</time></trkpt><trkpt lat="40.2788541783546" lon="9.591543028786434"><ele>453.5</ele><time>2026-04-30T10:02:33Z</time></trkpt><trkpt lat="40.27860705056552" lon="9.591610223310006"><ele>446.0</ele><time>2026-04-30T10:02:34Z</time></trkpt><trkpt lat="40.27835992284775" lon="9.591680729854792"><ele>446.0</ele><time>2026-04-30T10:02:35Z</time></trkpt><trkpt lat="40.27811272750101" lon="9.591751230984935"><ele>446.0</ele><time>2026-04-30T10:02:36Z</time></trkpt><trkpt lat="40.27787880146389" lon="9.591811709847041"><ele>443.5</ele><time>2026-04-30T10:02:37Z</time></trkpt><trkpt lat="40.27764582972406" lon="9.591869542328029"><ele>441.0</ele><time>2026-04-30T10:02:38Z</time></trkpt><trkpt lat="40.27741175799187" lon="9.59193131817995"><ele>437.0</ele><time>2026-04-30T10:02:39Z</time></trkpt><trkpt lat="40.277177692933" lon="9.591997680418435"><ele>433.0</ele><time>2026-04-30T10:02:40Z</time></trkpt><trkpt lat="40.27694210180974" lon="9.592060443290443"><ele>446.0</ele><time>2026-04-30T10:02:41Z</time></trkpt><trkpt lat="40.27672020440245" lon="9.592115140593112"><ele>459.0</ele><time>2026-04-30T10:02:42Z</time></trkpt><trkpt lat="40.27650915176538" lon="9.592165113387214"><ele>472.0</ele><time>2026-04-30T10:02:43Z</time></trkpt><trkpt lat="40.276320340315095" lon="9.592208124055515"><ele>472.0</ele><time>2026-04-30T10:02:44Z</time></trkpt><trkpt lat="40.27614723659165" lon="9.592235764284986"><ele>472.0</ele><time>2026-04-30T10:02:45Z</time></trkpt><trkpt lat="40.27599579951238" lon="9.592246588368603"><ele>472.0</ele><time>2026-04-30T10:02:45.999Z</time></trkpt><trkpt lat="40.275871964849905" lon="9.592248778236572"><ele>472.0</ele><time>2026-04-30T10:02:46.999Z</time></trkpt><trkpt lat="40.27577041848168" lon="9.592254404847658"><ele>472.00000000000006</ele><time>2026-04-30T10:02:47.999Z</time></trkpt><trkpt lat="40.27568333381557" lon="9.592252838544892"><ele>472.00000000000006</ele><time>2026-04-30T10:02:48.999Z</time></trkpt><trkpt lat="40.27561519952981" lon="9.592264233057621"><ele>472.0</ele><time>2026-04-30T10:02:49.999Z</time></trkpt><trkpt lat="40.2755390204432" lon="9.592422816855699"><ele>472.0</ele><time>2026-04-30T10:02:51.999Z</time></trkpt><trkpt lat="40.275528828199306" lon="9.592573474599861"><ele>473.33333333333337</ele><time>2026-04-30T10:02:52.999Z</time></trkpt><trkpt lat="40.27549587911882" lon="9.592769208812744"><ele>474.66666666666663</ele><time>2026-04-30T10:02:53.999Z</time></trkpt><trkpt lat="40.27544888111967" lon="9.593020027719401"><ele>476.0</ele><time>2026-04-30T10:02:54.999Z</time></trkpt><trkpt lat="40.27535970460904" lon="9.592844602055733"><ele>487.6</ele><time>2026-04-30T10:02:55.999Z</time></trkpt><trkpt lat="40.27532369206847" lon="9.592965924041874"><ele>499.20000000000005</ele><time>2026-04-30T10:02:56.999Z</time></trkpt><trkpt lat="40.275288059232544" lon="9.593082926134961"><ele>510.79999999999995</ele><time>2026-04-30T10:02:57.999Z</time></trkpt><trkpt lat="40.27525199326357" lon="9.593201288993932"><ele>522.4</ele><time>2026-04-30T10:02:58.999Z</time></trkpt><trkpt lat="40.27521108087173" lon="9.593335516304792"><ele>534.0</ele><time>2026-04-30T10:03:00.14Z</time></trkpt><trkpt lat="40.27517506728848" lon="9.593453684259414"><ele>534.0</ele><time>2026-04-30T10:03:01.14Z</time></trkpt><trkpt lat="40.27513898311929" lon="9.593572085011525"><ele>534.0</ele><time>2026-04-30T10:03:02.141Z</time></trkpt><trkpt lat="40.27514175961789" lon="9.594055152940951"><ele>536.8</ele><time>2026-04-30T10:03:05.837Z</time></trkpt><trkpt lat="40.2751203416053" lon="9.59417953302506"><ele>539.5999999999999</ele><time>2026-04-30T10:03:06.839Z</time></trkpt><trkpt lat="40.27509856235486" lon="9.594303107048276"><ele>542.4</ele><time>2026-04-30T10:03:07.835Z</time></trkpt><trkpt lat="40.2750760164668" lon="9.59442710943262"><ele>545.1999999999999</ele><time>2026-04-30T10:03:08.837Z</time></trkpt><trkpt lat="40.27505349982096" lon="9.594550950984718"><ele>548.0</ele><time>2026-04-30T10:03:09.837Z</time></trkpt><trkpt lat="40.275031018426105" lon="9.594674538163012"><ele>548.0</ele><time>2026-04-30T10:03:10.835Z</time></trkpt><trkpt lat="40.275007837099594" lon="9.594798360370465"><ele>548.0</ele><time>2026-04-30T10:03:11.837Z</time></trkpt><trkpt lat="40.274796371098056" lon="9.597648558313493"><ele>524.75</ele><time>2026-04-30T10:03:12.999Z</time></trkpt><trkpt lat="40.27466322275086" lon="9.597757858456145"><ele>501.5</ele><time>2026-04-30T10:03:13.999Z</time></trkpt><trkpt lat="40.27457091767176" lon="9.597902433872363"><ele>478.25</ele><time>2026-04-30T10:03:14.999Z</time></trkpt><trkpt lat="40.2744277511222" lon="9.597941569429963"><ele>455.0</ele><time>2026-04-30T10:03:15.999Z</time></trkpt><trkpt lat="40.27427572683774" lon="9.597965968582221"><ele>446.66666666666663</ele><time>2026-04-30T10:03:16.999Z</time></trkpt><trkpt lat="40.274107783540806" lon="9.59796736047773"><ele>438.33333333333337</ele><time>2026-04-30T10:03:17.999Z</time></trkpt><trkpt lat="40.27392323860212" lon="9.597872569554918"><ele>430.0</ele><time>2026-04-30T10:03:18.999Z</time></trkpt><trkpt lat="40.27367924594349" lon="9.59784900741882"><ele>428.33333333333337</ele><time>2026-04-30T10:03:19.999Z</time></trkpt><trkpt lat="40.27350306390312" lon="9.59785031220136"><ele>426.66666666666663</ele><time>2026-04-30T10:03:20.999Z</time></trkpt><trkpt lat="40.27332443003524" lon="9.597842261362993"><ele>425.0</ele><time>2026-04-30T10:03:21.999Z</time></trkpt><trkpt lat="40.27316002728264" lon="9.597843313044617"><ele>429.0</ele><time>2026-04-30T10:03:22.999Z</time></trkpt><trkpt lat="40.27300182604286" lon="9.597849495806871"><ele>433.0</ele><time>2026-04-30T10:03:23.999Z</time></trkpt><trkpt lat="40.27286737963249" lon="9.597882101157325"><ele>437.0</ele><time>2026-04-30T10:03:24.999Z</time></trkpt><trkpt lat="40.27276621360142" lon="9.597966193150983"><ele>441.0</ele><time>2026-04-30T10:03:25.999Z</time></trkpt><trkpt lat="40.272686479001294" lon="9.59814626542889"><ele>441.0</ele><time>2026-04-30T10:03:26.999Z</time></trkpt><trkpt lat="40.272634104052344" lon="9.598346269999446"><ele>441.0</ele><time>2026-04-30T10:03:27.999Z</time></trkpt><trkpt lat="40.272532692740064" lon="9.598556118491917"><ele>441.0</ele><time>2026-04-30T10:03:28.999Z</time></trkpt><trkpt lat="40.272386206818425" lon="9.59881796544935"><ele>435.0</ele><time>2026-04-30T10:03:29.999Z</time></trkpt><trkpt lat="40.27233993629694" lon="9.59903694164541"><ele>429.0</ele><time>2026-04-30T10:03:30.999Z</time></trkpt><trkpt lat="40.27247079832256" lon="9.599227362902324"><ele>423.0</ele><time>2026-04-30T10:03:34.999Z</time></trkpt><trkpt lat="40.27256937830855" lon="9.599239914465768"><ele>423.0</ele><time>2026-04-30T10:03:35.999Z</time></trkpt><trkpt lat="40.272701153865135" lon="9.599188750187038"><ele>423.0</ele><time>2026-04-30T10:03:36.999Z</time></trkpt><trkpt lat="40.27277814387321" lon="9.599051253080937"><ele>423.0</ele><time>2026-04-30T10:03:37.999Z</time></trkpt><trkpt lat="40.272805632838796" lon="9.59882685371239"><ele>423.0</ele><time>2026-04-30T10:03:38.999Z</time></trkpt><trkpt lat="40.272881771106164" lon="9.59864502476595"><ele>423.5</ele><time>2026-04-30T10:03:39.999Z</time></trkpt><trkpt lat="40.272942562484374" lon="9.598437048310036"><ele>424.0</ele><time>2026-04-30T10:03:40.999Z</time></trkpt><trkpt lat="40.27300503586697" lon="9.598355041099195"><ele>424.5</ele><time>2026-04-30T10:03:41.999Z</time></trkpt><trkpt lat="40.27306697900722" lon="9.598262963161488"><ele>425.0</ele><time>2026-04-30T10:03:42.999Z</time></trkpt><trkpt lat="40.27316338997797" lon="9.598217363137378"><ele>425.0</ele><time>2026-04-30T10:03:43.999Z</time></trkpt><trkpt lat="40.27328115965132" lon="9.598268423521391"><ele>425.0</ele><time>2026-04-30T10:03:44.999Z</time></trkpt><trkpt lat="40.27339050144529" lon="9.598303129102474"><ele>425.0</ele><time>2026-04-30T10:03:45.999Z</time></trkpt><trkpt lat="40.27345682008089" lon="9.598376583813469"><ele>425.0</ele><time>2026-04-30T10:03:46.999Z</time></trkpt><trkpt lat="40.27356326709778" lon="9.598424117376824"><ele>425.0</ele><time>2026-04-30T10:03:47.999Z</time></trkpt><trkpt lat="40.27372390409686" lon="9.598452039963076"><ele>425.0</ele><time>2026-04-30T10:03:48.999Z</time></trkpt><trkpt lat="40.2738378297509" lon="9.598537993011734"><ele>425.0</ele><time>2026-04-30T10:03:49.999Z</time></trkpt><trkpt lat="40.27390109973068" lon="9.59867480788422"><ele>425.0</ele><time>2026-04-30T10:03:50.999Z</time></trkpt><trkpt lat="40.27396015279926" lon="9.598811066378337"><ele>425.0</ele><time>2026-04-30T10:03:51.999Z</time></trkpt><trkpt lat="40.27403332748233" lon="9.598902072159586"><ele>420.8</ele><time>2026-04-30T10:03:52.999Z</time></trkpt><trkpt lat="40.274117082956224" lon="9.598976618231369"><ele>416.6</ele><time>2026-04-30T10:03:53.999Z</time></trkpt><trkpt lat="40.27422854953942" lon="9.59902456811435"><ele>412.4</ele><time>2026-04-30T10:03:54.999Z</time></trkpt><trkpt lat="40.274346836997864" lon="9.599034108531866"><ele>408.2</ele><time>2026-04-30T10:03:55.999Z</time></trkpt><trkpt lat="40.27445653538286" lon="9.599026230327988"><ele>404.0</ele><time>2026-04-30T10:03:56.999Z</time></trkpt><trkpt lat="40.27456181154148" lon="9.599020661182177"><ele>404.0</ele><time>2026-04-30T10:03:57.999Z</time></trkpt><trkpt lat="40.27465684269226" lon="9.599025485952493"><ele>404.0</ele><time>2026-04-30T10:03:58.999Z</time></trkpt><trkpt lat="40.27474573851616" lon="9.599028367342559"><ele>404.0</ele><time>2026-04-30T10:03:59.999Z</time></trkpt><trkpt lat="40.274833900618816" lon="9.599041061510661"><ele>404.0</ele><time>2026-04-30T10:04:00.999Z</time></trkpt><trkpt lat="40.2749142510062" lon="9.599081697003653"><ele>404.0</ele><time>2026-04-30T10:04:01.999Z</time></trkpt><trkpt lat="40.274993293992054" lon="9.599165227503878"><ele>405.0</ele><time>2026-04-30T10:04:02.999Z</time></trkpt><trkpt lat="40.275084284480585" lon="9.599209621776385"><ele>406.0</ele><time>2026-04-30T10:04:03.999Z</time></trkpt><trkpt lat="40.27515173703748" lon="9.599282454839887"><ele>407.0</ele><time>2026-04-30T10:04:04.999Z</time></trkpt><trkpt lat="40.27522127246708" lon="9.599333901985757"><ele>408.0</ele><time>2026-04-30T10:04:05.999Z</time></trkpt><trkpt lat="40.27528732006222" lon="9.599382769009354"><ele>409.0</ele><time>2026-04-30T10:04:06.999Z</time></trkpt><trkpt lat="40.275360363333235" lon="9.59949137787061"><ele>407.0</ele><time>2026-04-30T10:04:08.999Z</time></trkpt><trkpt lat="40.275363640373996" lon="9.599624059959362"><ele>405.0</ele><time>2026-04-30T10:04:10.999Z</time></trkpt><trkpt lat="40.27526020706503" lon="9.59972258316226"><ele>403.0</ele><time>2026-04-30T10:04:12.999Z</time></trkpt><trkpt lat="40.27517460875163" lon="9.599723711205472"><ele>401.0</ele><time>2026-04-30T10:04:13.999Z</time></trkpt><trkpt lat="40.27508700685675" lon="9.599691379806435"><ele>399.0</ele><time>2026-04-30T10:04:14.999Z</time></trkpt><trkpt lat="40.27498984759302" lon="9.599635876863779"><ele>399.0</ele><time>2026-04-30T10:04:15.999Z</time></trkpt><trkpt lat="40.274890897832705" lon="9.599580392741622"><ele>399.0</ele><time>2026-04-30T10:04:16.999Z</time></trkpt><trkpt lat="40.27479192313202" lon="9.59953432707471"><ele>399.0</ele><time>2026-04-30T10:04:17.999Z</time></trkpt><trkpt lat="40.27468907216787" lon="9.599502035927687"><ele>399.0</ele><time>2026-04-30T10:04:18.998Z</time></trkpt><trkpt lat="40.2745885367714" lon="9.599483146733832"><ele>399.0</ele><time>2026-04-30T10:04:19.998Z</time></trkpt><trkpt lat="40.27448993552231" lon="9.599477178399104"><ele>400.0</ele><time>2026-04-30T10:04:20.998Z</time></trkpt><trkpt lat="40.27439120115317" lon="9.599478737618133"><ele>401.0</ele><time>2026-04-30T10:04:21.998Z</time></trkpt><trkpt lat="40.274296993639126" lon="9.59947731030388"><ele>402.0</ele><time>2026-04-30T10:04:22.998Z</time></trkpt><trkpt lat="40.2741907406695" lon="9.599475916178037"><ele>403.0</ele><time>2026-04-30T10:04:23.998Z</time></trkpt><trkpt lat="40.27408787748086" lon="9.599466608207747"><ele>404.0</ele><time>2026-04-30T10:04:24.998Z</time></trkpt><trkpt lat="40.273989686251824" lon="9.599422838202724"><ele>403.6</ele><time>2026-04-30T10:04:25.998Z</time></trkpt><trkpt lat="40.27389394199175" lon="9.599343259811587"><ele>403.2</ele><time>2026-04-30T10:04:26.998Z</time></trkpt><trkpt lat="40.27380073172808" lon="9.59924845462997"><ele>402.8</ele><time>2026-04-30T10:04:27.998Z</time></trkpt><trkpt lat="40.273704536420595" lon="9.599192966657359"><ele>402.40000000000003</ele><time>2026-04-30T10:04:28.998Z</time></trkpt><trkpt lat="40.27360081378865" lon="9.599200874430853"><ele>402.0</ele><time>2026-04-30T10:04:29.998Z</time></trkpt><trkpt lat="40.27350542934287" lon="9.599270377315712"><ele>402.0</ele><time>2026-04-30T10:04:30.998Z</time></trkpt><trkpt lat="40.27343400052585" lon="9.59940432152872"><ele>402.0</ele><time>2026-04-30T10:04:31.998Z</time></trkpt><trkpt lat="40.27338945690653" lon="9.599565364844375"><ele>402.0</ele><time>2026-04-30T10:04:32.998Z</time></trkpt><trkpt lat="40.273367780897985" lon="9.599735696395657"><ele>402.0</ele><time>2026-04-30T10:04:33.998Z</time></trkpt><trkpt lat="40.273377237185386" lon="9.5999062669369"><ele>398.0</ele><time>2026-04-30T10:04:34.998Z</time></trkpt><trkpt lat="40.273385733141005" lon="9.600068810957032"><ele>394.0</ele><time>2026-04-30T10:04:35.998Z</time></trkpt><trkpt lat="40.27337605719786" lon="9.600221678483104"><ele>390.0</ele><time>2026-04-30T10:04:36.998Z</time></trkpt><trkpt lat="40.27338056673991" lon="9.600372143550207"><ele>386.0</ele><time>2026-04-30T10:04:37.998Z</time></trkpt><trkpt lat="40.27338360731204" lon="9.600511878956572"><ele>384.0</ele><time>2026-04-30T10:04:38.998Z</time></trkpt><trkpt lat="40.273383877305086" lon="9.600650428664578"><ele>382.0</ele><time>2026-04-30T10:04:39.998Z</time></trkpt><trkpt lat="40.273365865548186" lon="9.60077853827054"><ele>380.0</ele><time>2026-04-30T10:04:40.998Z</time></trkpt><trkpt lat="40.27332123548469" lon="9.60089730449453"><ele>378.0</ele><time>2026-04-30T10:04:41.998Z</time></trkpt><trkpt lat="40.273258236343246" lon="9.60100707575164"><ele>376.0</ele><time>2026-04-30T10:04:42.998Z</time></trkpt><trkpt lat="40.27318222564551" lon="9.601133175737388"><ele>373.75</ele><time>2026-04-30T10:04:43.998Z</time></trkpt><trkpt lat="40.27310764891378" lon="9.601257309149293"><ele>371.5</ele><time>2026-04-30T10:04:44.998Z</time></trkpt><trkpt lat="40.27303025239533" lon="9.601380089991197"><ele>369.25</ele><time>2026-04-30T10:04:45.998Z</time></trkpt><trkpt lat="40.2729469632046" lon="9.601487545003286"><ele>367.0</ele><time>2026-04-30T10:04:46.998Z</time></trkpt><trkpt lat="40.272849827699076" lon="9.601570974327606"><ele>367.0</ele><time>2026-04-30T10:04:47.998Z</time></trkpt><trkpt lat="40.272742611654486" lon="9.601625252370784"><ele>367.0</ele><time>2026-04-30T10:04:48.998Z</time></trkpt><trkpt lat="40.27262515984275" lon="9.60166378411387"><ele>367.0</ele><time>2026-04-30T10:04:49.998Z</time></trkpt><trkpt lat="40.27250183691901" lon="9.601702461784079"><ele>367.0</ele><time>2026-04-30T10:04:50.998Z</time></trkpt><trkpt lat="40.272375959384696" lon="9.601742744787538"><ele>369.0</ele><time>2026-04-30T10:04:51.998Z</time></trkpt><trkpt lat="40.27224987806032" lon="9.601783604086751"><ele>371.0</ele><time>2026-04-30T10:04:52.998Z</time></trkpt><trkpt lat="40.27211636830189" lon="9.601833328877019"><ele>373.0</ele><time>2026-04-30T10:04:53.998Z</time></trkpt><trkpt lat="40.27199024338729" lon="9.601908245523548"><ele>375.0</ele><time>2026-04-30T10:04:54.998Z</time></trkpt><trkpt lat="40.271863409725675" lon="9.601995207838561"><ele>373.5</ele><time>2026-04-30T10:04:55.998Z</time></trkpt><trkpt lat="40.27173414091517" lon="9.602088933008801"><ele>372.0</ele><time>2026-04-30T10:04:56.998Z</time></trkpt><trkpt lat="40.271602972393644" lon="9.602189615849642"><ele>370.5</ele><time>2026-04-30T10:04:57.998Z</time></trkpt><trkpt lat="40.27149452573169" lon="9.602324810106525"><ele>369.0</ele><time>2026-04-30T10:04:58.998Z</time></trkpt><trkpt lat="40.27139713056156" lon="9.60247036521788"><ele>369.0</ele><time>2026-04-30T10:04:59.998Z</time></trkpt><trkpt lat="40.2713165371962" lon="9.602643147467507"><ele>369.0</ele><time>2026-04-30T10:05:00.998Z</time></trkpt><trkpt lat="40.271221541672396" lon="9.602817299915259"><ele>369.0</ele><time>2026-04-30T10:05:01.998Z</time></trkpt><trkpt lat="40.27113553218917" lon="9.602995335544543"><ele>364.75</ele><time>2026-04-30T10:05:02.998Z</time></trkpt><trkpt lat="40.271055034830425" lon="9.603161089404708"><ele>360.5</ele><time>2026-04-30T10:05:03.998Z</time></trkpt><trkpt lat="40.27097674519476" lon="9.603320399588714"><ele>356.25</ele><time>2026-04-30T10:05:04.998Z</time></trkpt><trkpt lat="40.270916550609726" lon="9.603477020540485"><ele>352.0</ele><time>2026-04-30T10:05:05.998Z</time></trkpt><trkpt lat="40.2708449140229" lon="9.603596357127946"><ele>352.8</ele><time>2026-04-30T10:05:06.998Z</time></trkpt><trkpt lat="40.27076864548042" lon="9.603692590025156"><ele>353.6</ele><time>2026-04-30T10:05:07.998Z</time></trkpt><trkpt lat="40.270682010252806" lon="9.603752525436365"><ele>354.40000000000003</ele><time>2026-04-30T10:05:08.998Z</time></trkpt><trkpt lat="40.270600895960534" lon="9.60380148775166"><ele>355.20000000000005</ele><time>2026-04-30T10:05:09.998Z</time></trkpt><trkpt lat="40.270530013440315" lon="9.603856235767301"><ele>356.0</ele><time>2026-04-30T10:05:10.998Z</time></trkpt><trkpt lat="40.270497182248675" lon="9.603947101290096"><ele>356.0</ele><time>2026-04-30T10:05:11.998Z</time></trkpt><trkpt lat="40.270517228071824" lon="9.604051815095218"><ele>356.0</ele><time>2026-04-30T10:05:12.998Z</time></trkpt><trkpt lat="40.27057235426763" lon="9.604138566769342"><ele>356.0</ele><time>2026-04-30T10:05:13.998Z</time></trkpt><trkpt lat="40.27064138244752" lon="9.60419779060862"><ele>356.0</ele><time>2026-04-30T10:05:14.998Z</time></trkpt><trkpt lat="40.27072703298012" lon="9.604197628893099"><ele>356.0</ele><time>2026-04-30T10:05:15.998Z</time></trkpt><trkpt lat="40.27082447697699" lon="9.604121965188076"><ele>351.5</ele><time>2026-04-30T10:05:16.998Z</time></trkpt><trkpt lat="40.27092061358956" lon="9.604002500420343"><ele>347.0</ele><time>2026-04-30T10:05:17.998Z</time></trkpt><trkpt lat="40.271020679953544" lon="9.603890302269033"><ele>342.5</ele><time>2026-04-30T10:05:18.998Z</time></trkpt><trkpt lat="40.2711357800597" lon="9.603802371332215"><ele>338.0</ele><time>2026-04-30T10:05:19.998Z</time></trkpt><trkpt lat="40.27126432892139" lon="9.60372815327516"><ele>338.25</ele><time>2026-04-30T10:05:20.998Z</time></trkpt><trkpt lat="40.271395287189065" lon="9.603654320856357"><ele>338.5</ele><time>2026-04-30T10:05:21.998Z</time></trkpt><trkpt lat="40.27152224496473" lon="9.603580479891221"><ele>338.75</ele><time>2026-04-30T10:05:22.998Z</time></trkpt><trkpt lat="40.27164225498143" lon="9.6035095944414"><ele>339.0</ele><time>2026-04-30T10:05:23.998Z</time></trkpt><trkpt lat="40.2717479247702" lon="9.603443950109437"><ele>339.0</ele><time>2026-04-30T10:05:24.998Z</time></trkpt><trkpt lat="40.27184571293604" lon="9.603393764630626"><ele>339.0</ele><time>2026-04-30T10:05:25.998Z</time></trkpt><trkpt lat="40.27195141988887" lon="9.6033736456329"><ele>339.0</ele><time>2026-04-30T10:05:26.998Z</time></trkpt><trkpt lat="40.27205937518237" lon="9.603404803806473"><ele>339.0</ele><time>2026-04-30T10:05:27.998Z</time></trkpt><trkpt lat="40.27213540187144" lon="9.603515953812133"><ele>339.0</ele><time>2026-04-30T10:05:28.998Z</time></trkpt><trkpt lat="40.272215789250914" lon="9.603621597891818"><ele>335.6</ele><time>2026-04-30T10:05:29.998Z</time></trkpt><trkpt lat="40.27229479222491" lon="9.603703562139327"><ele>332.2</ele><time>2026-04-30T10:05:30.998Z</time></trkpt><trkpt lat="40.272364251230755" lon="9.603778145220403"><ele>328.8</ele><time>2026-04-30T10:05:31.998Z</time></trkpt><trkpt lat="40.272441184768496" lon="9.60383346578399"><ele>325.40000000000003</ele><time>2026-04-30T10:05:32.998Z</time></trkpt><trkpt lat="40.27252855423944" lon="9.603842041819968"><ele>322.0</ele><time>2026-04-30T10:05:33.998Z</time></trkpt><trkpt lat="40.272616445988135" lon="9.603817206901022"><ele>322.0</ele><time>2026-04-30T10:05:34.998Z</time></trkpt><trkpt lat="40.272696499844194" lon="9.603763895641976"><ele>322.0</ele><time>2026-04-30T10:05:35.998Z</time></trkpt><trkpt lat="40.272764214538" lon="9.603708151718498"><ele>322.0</ele><time>2026-04-30T10:05:36.998Z</time></trkpt><trkpt lat="40.27283901133666" lon="9.603685323343944"><ele>322.0</ele><time>2026-04-30T10:05:37.998Z</time></trkpt><trkpt lat="40.27291402851147" lon="9.60370113313511"><ele>322.0</ele><time>2026-04-30T10:05:38.998Z</time></trkpt><trkpt lat="40.27297446794732" lon="9.603790585550884"><ele>322.0</ele><time>2026-04-30T10:05:39.998Z</time></trkpt><trkpt lat="40.27299825253196" lon="9.603917562301323"><ele>322.0</ele><time>2026-04-30T10:05:40.998Z</time></trkpt><trkpt lat="40.27304907704399" lon="9.604050763709337"><ele>322.0</ele><time>2026-04-30T10:05:41.998Z</time></trkpt><trkpt lat="40.27310232201383" lon="9.604190415655177"><ele>322.0</ele><time>2026-04-30T10:05:42.998Z</time></trkpt><trkpt lat="40.273169780624784" lon="9.604317655504813"><ele>322.0</ele><time>2026-04-30T10:05:43.998Z</time></trkpt><trkpt lat="40.273231748575434" lon="9.604430401079568"><ele>322.40000000000003</ele><time>2026-04-30T10:05:44.998Z</time></trkpt><trkpt lat="40.27331521498792" lon="9.60450296945437"><ele>322.8</ele><time>2026-04-30T10:05:45.998Z</time></trkpt><trkpt lat="40.27342062676013" lon="9.604527107943637"><ele>323.2</ele><time>2026-04-30T10:05:46.998Z</time></trkpt><trkpt lat="40.273538351160774" lon="9.604512086807064"><ele>323.6</ele><time>2026-04-30T10:05:47.998Z</time></trkpt><trkpt lat="40.27364575503796" lon="9.604483535963507"><ele>324.0</ele><time>2026-04-30T10:05:48.998Z</time></trkpt><trkpt lat="40.27374835265647" lon="9.604464567997029"><ele>324.0</ele><time>2026-04-30T10:05:49.998Z</time></trkpt><trkpt lat="40.273847112192" lon="9.604459058759321"><ele>324.0</ele><time>2026-04-30T10:05:50.997Z</time></trkpt><trkpt lat="40.273945773569366" lon="9.60445266411553"><ele>324.0</ele><time>2026-04-30T10:05:51.997Z</time></trkpt><trkpt lat="40.274047025031194" lon="9.604455754406768"><ele>324.0</ele><time>2026-04-30T10:05:52.997Z</time></trkpt><trkpt lat="40.27414571573814" lon="9.60447119671735"><ele>324.0</ele><time>2026-04-30T10:05:53.997Z</time></trkpt><trkpt lat="40.27424344648702" lon="9.604524042607375"><ele>319.25</ele><time>2026-04-30T10:05:54.997Z</time></trkpt><trkpt lat="40.27433811091468" lon="9.604585036203606"><ele>314.5</ele><time>2026-04-30T10:05:55.997Z</time></trkpt><trkpt lat="40.27443300678944" lon="9.604665643570472"><ele>309.75</ele><time>2026-04-30T10:05:56.997Z</time></trkpt><trkpt lat="40.274534482876845" lon="9.604751024020162"><ele>305.0</ele><time>2026-04-30T10:05:57.997Z</time></trkpt><trkpt lat="40.27463887184227" lon="9.604840403444827"><ele>305.0</ele><time>2026-04-30T10:05:58.997Z</time></trkpt><trkpt lat="40.27474804820483" lon="9.604929328006053"><ele>305.0</ele><time>2026-04-30T10:05:59.997Z</time></trkpt><trkpt lat="40.27486100502879" lon="9.605013761548081"><ele>305.0</ele><time>2026-04-30T10:06:00.997Z</time></trkpt><trkpt lat="40.27496781270491" lon="9.60512500768231"><ele>305.0</ele><time>2026-04-30T10:06:01.997Z</time></trkpt><trkpt lat="40.27508348083418" lon="9.605187169280521"><ele>305.75</ele><time>2026-04-30T10:06:02.997Z</time></trkpt><trkpt lat="40.27519586156529" lon="9.605232807293152"><ele>306.5</ele><time>2026-04-30T10:06:03.997Z</time></trkpt><trkpt lat="40.275304857991" lon="9.605279950885219"><ele>307.25</ele><time>2026-04-30T10:06:04.997Z</time></trkpt><trkpt lat="40.27540614580447" lon="9.605328592236535"><ele>308.0</ele><time>2026-04-30T10:06:05.997Z</time></trkpt><trkpt lat="40.27550733431496" lon="9.605402289152309"><ele>307.1666666666667</ele><time>2026-04-30T10:06:06.997Z</time></trkpt><trkpt lat="40.27559431685357" lon="9.605463160136152"><ele>306.33333333333337</ele><time>2026-04-30T10:06:07.997Z</time></trkpt><trkpt lat="40.27566918564187" lon="9.605532452753993"><ele>305.5</ele><time>2026-04-30T10:06:08.997Z</time></trkpt><trkpt lat="40.27573675237964" lon="9.60559501162551"><ele>304.6666666666667</ele><time>2026-04-30T10:06:09.997Z</time></trkpt><trkpt lat="40.27580027249769" lon="9.605654047764089"><ele>303.8333333333333</ele><time>2026-04-30T10:06:10.997Z</time></trkpt><trkpt lat="40.2758480064985" lon="9.60573323027593"><ele>303.0</ele><time>2026-04-30T10:06:11.997Z</time></trkpt><trkpt lat="40.27587011726923" lon="9.605830693450029"><ele>303.0</ele><time>2026-04-30T10:06:12.997Z</time></trkpt><trkpt lat="40.275836165927245" lon="9.605934591897524"><ele>303.0</ele><time>2026-04-30T10:06:13.997Z</time></trkpt><trkpt lat="40.275765747973985" lon="9.605976350554013"><ele>303.0</ele><time>2026-04-30T10:06:14.997Z</time></trkpt><trkpt lat="40.27568175663493" lon="9.605960325846405"><ele>303.0</ele><time>2026-04-30T10:06:15.997Z</time></trkpt><trkpt lat="40.275608900120886" lon="9.60588900931802"><ele>303.0</ele><time>2026-04-30T10:06:16.997Z</time></trkpt><trkpt lat="40.27552683372241" lon="9.605875610616298"><ele>303.0</ele><time>2026-04-30T10:06:17.997Z</time></trkpt><trkpt lat="40.275440159279896" lon="9.605839121538576"><ele>301.2</ele><time>2026-04-30T10:06:18.997Z</time></trkpt><trkpt lat="40.275338167593226" lon="9.60585808059995"><ele>299.4</ele><time>2026-04-30T10:06:19.997Z</time></trkpt><trkpt lat="40.27523490304877" lon="9.605904697567784"><ele>297.59999999999997</ele><time>2026-04-30T10:06:20.997Z</time></trkpt><trkpt lat="40.275136989827494" lon="9.605984090469386"><ele>295.8</ele><time>2026-04-30T10:06:21.997Z</time></trkpt><trkpt lat="40.27501905983971" lon="9.60602051602881"><ele>294.0</ele><time>2026-04-30T10:06:22.997Z</time></trkpt><trkpt lat="40.27490153600062" lon="9.606086898665062"><ele>294.0</ele><time>2026-04-30T10:06:23.997Z</time></trkpt><trkpt lat="40.2747727492467" lon="9.606110682730275"><ele>294.0</ele><time>2026-04-30T10:06:24.997Z</time></trkpt><trkpt lat="40.2746486211845" lon="9.60611279768081"><ele>294.0</ele><time>2026-04-30T10:06:25.997Z</time></trkpt><trkpt lat="40.274532225450386" lon="9.606111818485509"><ele>294.0</ele><time>2026-04-30T10:06:26.997Z</time></trkpt><trkpt lat="40.274425195854" lon="9.606113391171197"><ele>294.2</ele><time>2026-04-30T10:06:27.997Z</time></trkpt><trkpt lat="40.274329242836025" lon="9.606119783180311"><ele>294.4</ele><time>2026-04-30T10:06:28.997Z</time></trkpt><trkpt lat="40.274239233682536" lon="9.606172881153801"><ele>294.6</ele><time>2026-04-30T10:06:29.997Z</time></trkpt><trkpt lat="40.27416467350159" lon="9.606266237120312"><ele>294.8</ele><time>2026-04-30T10:06:30.997Z</time></trkpt><trkpt lat="40.27410031684048" lon="9.60637457606488"><ele>295.0</ele><time>2026-04-30T10:06:31.997Z</time></trkpt><trkpt lat="40.27403988076255" lon="9.60649228129801"><ele>292.75</ele><time>2026-04-30T10:06:32.997Z</time></trkpt><trkpt lat="40.27396914340682" lon="9.606607262040033"><ele>290.5</ele><time>2026-04-30T10:06:33.997Z</time></trkpt><trkpt lat="40.27387045436691" lon="9.60670039598058"><ele>288.25</ele><time>2026-04-30T10:06:34.997Z</time></trkpt><trkpt lat="40.273784731917964" lon="9.606801653466471"><ele>286.0</ele><time>2026-04-30T10:06:35.997Z</time></trkpt><trkpt lat="40.273710858819896" lon="9.606894796156581"><ele>286.0</ele><time>2026-04-30T10:06:36.997Z</time></trkpt><trkpt lat="40.273635458245565" lon="9.60698943731419"><ele>286.0</ele><time>2026-04-30T10:06:37.997Z</time></trkpt><trkpt lat="40.27355707113595" lon="9.60708858418924"><ele>286.0</ele><time>2026-04-30T10:06:38.997Z</time></trkpt><trkpt lat="40.27347602541558" lon="9.607181620512083"><ele>286.0</ele><time>2026-04-30T10:06:39.997Z</time></trkpt><trkpt lat="40.27339152724038" lon="9.607259466608262"><ele>286.0</ele><time>2026-04-30T10:06:40.997Z</time></trkpt><trkpt lat="40.27330503540967" lon="9.60731877242621"><ele>283.6</ele><time>2026-04-30T10:06:41.997Z</time></trkpt><trkpt lat="40.27321167415788" lon="9.6073759993639"><ele>281.20000000000005</ele><time>2026-04-30T10:06:42.997Z</time></trkpt><trkpt lat="40.27312160487441" lon="9.607442451412895"><ele>278.79999999999995</ele><time>2026-04-30T10:06:43.997Z</time></trkpt><trkpt lat="40.27304229029058" lon="9.607532005862074"><ele>276.4</ele><time>2026-04-30T10:06:44.997Z</time></trkpt><trkpt lat="40.27297468586733" lon="9.607632939541043"><ele>274.0</ele><time>2026-04-30T10:06:45.997Z</time></trkpt><trkpt lat="40.272898670874476" lon="9.607721414761555"><ele>273.8</ele><time>2026-04-30T10:06:46.997Z</time></trkpt><trkpt lat="40.2728172096472" lon="9.607794658461737"><ele>273.59999999999997</ele><time>2026-04-30T10:06:47.997Z</time></trkpt><trkpt lat="40.27272665084709" lon="9.60782991056666"><ele>273.4</ele><time>2026-04-30T10:06:48.997Z</time></trkpt><trkpt lat="40.27261930094885" lon="9.607830414949946"><ele>273.2</ele><time>2026-04-30T10:06:49.997Z</time></trkpt><trkpt lat="40.272509879223755" lon="9.607826077710751"><ele>273.0</ele><time>2026-04-30T10:06:50.997Z</time></trkpt><trkpt lat="40.27240337998372" lon="9.607825498730278"><ele>270.8333333333333</ele><time>2026-04-30T10:06:51.997Z</time></trkpt><trkpt lat="40.27230480624128" lon="9.607832502428515"><ele>268.6666666666667</ele><time>2026-04-30T10:06:52.997Z</time></trkpt><trkpt lat="40.272215986420726" lon="9.607832948190959"><ele>266.5</ele><time>2026-04-30T10:06:53.997Z</time></trkpt><trkpt lat="40.27213259179385" lon="9.607834729804763"><ele>264.33333333333337</ele><time>2026-04-30T10:06:54.997Z</time></trkpt><trkpt lat="40.272054313196854" lon="9.607835326833397"><ele>262.1666666666667</ele><time>2026-04-30T10:06:55.997Z</time></trkpt><trkpt lat="40.27198412018795" lon="9.607844050743175"><ele>260.0</ele><time>2026-04-30T10:06:56.997Z</time></trkpt><trkpt lat="40.27192108041558" lon="9.607876600680198"><ele>259.5</ele><time>2026-04-30T10:06:57.997Z</time></trkpt><trkpt lat="40.27187601429899" lon="9.607940997841206"><ele>259.0</ele><time>2026-04-30T10:06:58.997Z</time></trkpt><trkpt lat="40.271857660954346" lon="9.60802864054525"><ele>258.5</ele><time>2026-04-30T10:06:59.997Z</time></trkpt><trkpt lat="40.27185501955048" lon="9.608124951128119"><ele>258.0</ele><time>2026-04-30T10:07:00.997Z</time></trkpt><trkpt lat="40.27189381282221" lon="9.608215177395843"><ele>257.5</ele><time>2026-04-30T10:07:01.997Z</time></trkpt><trkpt lat="40.27199463174657" lon="9.60825213011119"><ele>257.0</ele><time>2026-04-30T10:07:02.997Z</time></trkpt><trkpt lat="40.27208480296141" lon="9.608268763883471"><ele>257.0</ele><time>2026-04-30T10:07:03.997Z</time></trkpt><trkpt lat="40.27218842007222" lon="9.608286420335698"><ele>257.0</ele><time>2026-04-30T10:07:04.997Z</time></trkpt><trkpt lat="40.27229226500779" lon="9.608320707987227"><ele>257.0</ele><time>2026-04-30T10:07:05.997Z</time></trkpt><trkpt lat="40.27239041886727" lon="9.608374524079414"><ele>257.0</ele><time>2026-04-30T10:07:06.997Z</time></trkpt><trkpt lat="40.27245096797615" lon="9.608495924620673"><ele>257.0</ele><time>2026-04-30T10:07:07.997Z</time></trkpt><trkpt lat="40.27253999014424" lon="9.608597533126998"><ele>254.6</ele><time>2026-04-30T10:07:08.997Z</time></trkpt><trkpt lat="40.272641566838914" lon="9.608671616617094"><ele>252.2</ele><time>2026-04-30T10:07:09.997Z</time></trkpt><trkpt lat="40.27273573785337" lon="9.608744767022129"><ele>249.8</ele><time>2026-04-30T10:07:10.997Z</time></trkpt><trkpt lat="40.27283023680883" lon="9.6088044132641"><ele>247.4</ele><time>2026-04-30T10:07:11.997Z</time></trkpt><trkpt lat="40.27292122018024" lon="9.608856338095631"><ele>245.0</ele><time>2026-04-30T10:07:12.997Z</time></trkpt><trkpt lat="40.27300249977662" lon="9.608943216938107"><ele>245.0</ele><time>2026-04-30T10:07:13.997Z</time></trkpt><trkpt lat="40.273091458159584" lon="9.609005637687655"><ele>245.0</ele><time>2026-04-30T10:07:14.997Z</time></trkpt><trkpt lat="40.273184204865636" lon="9.609063313163858"><ele>245.0</ele><time>2026-04-30T10:07:15.997Z</time></trkpt><trkpt lat="40.27328092762319" lon="9.60910761446174"><ele>245.0</ele><time>2026-04-30T10:07:16.997Z</time></trkpt><trkpt lat="40.27337940027717" lon="9.60913900461954"><ele>245.0</ele><time>2026-04-30T10:07:17.996Z</time></trkpt><trkpt lat="40.27348176928499" lon="9.609154609654281"><ele>244.8</ele><time>2026-04-30T10:07:18.996Z</time></trkpt><trkpt lat="40.27358328652352" lon="9.609164247543319"><ele>244.6</ele><time>2026-04-30T10:07:19.996Z</time></trkpt><trkpt lat="40.2736874544331" lon="9.609165442620187"><ele>244.39999999999998</ele><time>2026-04-30T10:07:20.996Z</time></trkpt><trkpt lat="40.27378951713181" lon="9.609160254438592"><ele>244.2</ele><time>2026-04-30T10:07:21.996Z</time></trkpt><trkpt lat="40.27389377657384" lon="9.609149514440073"><ele>244.0</ele><time>2026-04-30T10:07:22.996Z</time></trkpt><trkpt lat="40.27399461772097" lon="9.609137333543051"><ele>244.0</ele><time>2026-04-30T10:07:23.996Z</time></trkpt><trkpt lat="40.27409459683658" lon="9.609126379028112"><ele>243.99999999999997</ele><time>2026-04-30T10:07:24.996Z</time></trkpt><trkpt lat="40.2741947648105" lon="9.60913089010155"><ele>243.99999999999997</ele><time>2026-04-30T10:07:25.996Z</time></trkpt><trkpt lat="40.274299330802" lon="9.609148856476338"><ele>244.0</ele><time>2026-04-30T10:07:26.996Z</time></trkpt><trkpt lat="40.27439724897307" lon="9.609176442960624"><ele>244.0</ele><time>2026-04-30T10:07:27.996Z</time></trkpt><trkpt lat="40.274498375473286" lon="9.609217072230539"><ele>244.0</ele><time>2026-04-30T10:07:28.996Z</time></trkpt><trkpt lat="40.274609161249636" lon="9.609273520057343"><ele>244.0</ele><time>2026-04-30T10:07:29.996Z</time></trkpt><trkpt lat="40.27472835253058" lon="9.609336088132995"><ele>244.0</ele><time>2026-04-30T10:07:30.996Z</time></trkpt><trkpt lat="40.27484414757056" lon="9.609403984992785"><ele>244.0</ele><time>2026-04-30T10:07:31.996Z</time></trkpt><trkpt lat="40.27495641966601" lon="9.609477133061024"><ele>240.0</ele><time>2026-04-30T10:07:32.996Z</time></trkpt><trkpt lat="40.275064985419526" lon="9.609562042541071"><ele>236.0</ele><time>2026-04-30T10:07:33.996Z</time></trkpt><trkpt lat="40.27516766415076" lon="9.609653293815859"><ele>232.0</ele><time>2026-04-30T10:07:34.996Z</time></trkpt><trkpt lat="40.27527343647542" lon="9.609739329774053"><ele>228.0</ele><time>2026-04-30T10:07:35.996Z</time></trkpt><trkpt lat="40.27538402521583" lon="9.609817755790798"><ele>228.0</ele><time>2026-04-30T10:07:36.996Z</time></trkpt><trkpt lat="40.27549131200314" lon="9.609879729437159"><ele>228.0</ele><time>2026-04-30T10:07:37.996Z</time></trkpt><trkpt lat="40.27559888921999" lon="9.609923653863575"><ele>228.0</ele><time>2026-04-30T10:07:38.996Z</time></trkpt><trkpt lat="40.27570013943544" lon="9.6099706563276"><ele>228.0</ele><time>2026-04-30T10:07:39.996Z</time></trkpt><trkpt lat="40.27579217587757" lon="9.60999530536418"><ele>228.0</ele><time>2026-04-30T10:07:40.996Z</time></trkpt><trkpt lat="40.27588221787775" lon="9.610014212757985"><ele>228.33333333333334</ele><time>2026-04-30T10:07:41.996Z</time></trkpt><trkpt lat="40.27595947543571" lon="9.610024335694348"><ele>228.66666666666669</ele><time>2026-04-30T10:07:42.996Z</time></trkpt><trkpt lat="40.27601287326152" lon="9.61008047155381"><ele>229.0</ele><time>2026-04-30T10:07:43.996Z</time></trkpt><trkpt lat="40.276038236903446" lon="9.610232625632799"><ele>229.33333333333334</ele><time>2026-04-30T10:07:45.996Z</time></trkpt><trkpt lat="40.275992926583676" lon="9.61030289953726"><ele>229.66666666666669</ele><time>2026-04-30T10:07:46.996Z</time></trkpt><trkpt lat="40.27591679315424" lon="9.61033773849616"><ele>230.0</ele><time>2026-04-30T10:07:47.996Z</time></trkpt><trkpt lat="40.27582786072828" lon="9.610323634086868"><ele>227.2</ele><time>2026-04-30T10:07:48.996Z</time></trkpt><trkpt lat="40.2757329843733" lon="9.610330940259622"><ele>224.4</ele><time>2026-04-30T10:07:49.996Z</time></trkpt><trkpt lat="40.27562808009412" lon="9.610361462251758"><ele>221.60000000000002</ele><time>2026-04-30T10:07:50.996Z</time></trkpt><trkpt lat="40.275513468962295" lon="9.610409212591422"><ele>218.8</ele><time>2026-04-30T10:07:51.996Z</time></trkpt><trkpt lat="40.27541248022733" lon="9.610475948277939"><ele>216.0</ele><time>2026-04-30T10:07:52.996Z</time></trkpt><trkpt lat="40.275302048358384" lon="9.610505153417073"><ele>216.0</ele><time>2026-04-30T10:07:53.996Z</time></trkpt><trkpt lat="40.275208762973264" lon="9.610557165050997"><ele>216.00000000000003</ele><time>2026-04-30T10:07:54.996Z</time></trkpt><trkpt lat="40.275114625077876" lon="9.610601903874313"><ele>216.00000000000003</ele><time>2026-04-30T10:07:55.996Z</time></trkpt><trkpt lat="40.27502216031113" lon="9.610646168996519"><ele>216.0</ele><time>2026-04-30T10:07:56.996Z</time></trkpt><trkpt lat="40.27493543170135" lon="9.610690050181132"><ele>216.0</ele><time>2026-04-30T10:07:57.996Z</time></trkpt><trkpt lat="40.274850257351666" lon="9.610721988744386"><ele>216.60000000000002</ele><time>2026-04-30T10:07:58.996Z</time></trkpt><trkpt lat="40.27476561951094" lon="9.610747712699194"><ele>217.20000000000002</ele><time>2026-04-30T10:07:59.996Z</time></trkpt><trkpt lat="40.27467865508657" lon="9.610772025029712"><ele>217.79999999999998</ele><time>2026-04-30T10:08:00.996Z</time></trkpt><trkpt lat="40.27459570133644" lon="9.610805468444637"><ele>218.39999999999998</ele><time>2026-04-30T10:08:01.996Z</time></trkpt><trkpt lat="40.27450999852968" lon="9.610861664709882"><ele>219.0</ele><time>2026-04-30T10:08:02.996Z</time></trkpt><trkpt lat="40.274424267459054" lon="9.61095287584822"><ele>219.0</ele><time>2026-04-30T10:08:03.996Z</time></trkpt><trkpt lat="40.27433842853182" lon="9.611071365095091"><ele>219.0</ele><time>2026-04-30T10:08:04.996Z</time></trkpt><trkpt lat="40.274247667201216" lon="9.611200304520095"><ele>219.0</ele><time>2026-04-30T10:08:05.996Z</time></trkpt><trkpt lat="40.27414690929969" lon="9.611331820162828"><ele>219.0</ele><time>2026-04-30T10:08:06.996Z</time></trkpt><trkpt lat="40.27404885660095" lon="9.611450366150185"><ele>216.75</ele><time>2026-04-30T10:08:07.996Z</time></trkpt><trkpt lat="40.273952094092124" lon="9.611549426762432"><ele>214.5</ele><time>2026-04-30T10:08:08.996Z</time></trkpt><trkpt lat="40.273853486029815" lon="9.611638285384775"><ele>212.25</ele><time>2026-04-30T10:08:09.996Z</time></trkpt><trkpt lat="40.273752983070814" lon="9.611725514858694"><ele>210.0</ele><time>2026-04-30T10:08:10.996Z</time></trkpt><trkpt lat="40.27364917737499" lon="9.611804787482459"><ele>210.0</ele><time>2026-04-30T10:08:11.996Z</time></trkpt><trkpt lat="40.273548416512206" lon="9.611883979223801"><ele>210.0</ele><time>2026-04-30T10:08:12.996Z</time></trkpt><trkpt lat="40.27344101948851" lon="9.611956941007918"><ele>210.0</ele><time>2026-04-30T10:08:13.996Z</time></trkpt><trkpt lat="40.27333080494428" lon="9.612005486804682"><ele>210.0</ele><time>2026-04-30T10:08:14.996Z</time></trkpt><trkpt lat="40.27321815825261" lon="9.612054394600197"><ele>206.75</ele><time>2026-04-30T10:08:15.996Z</time></trkpt><trkpt lat="40.273101300289056" lon="9.61210008530113"><ele>203.5</ele><time>2026-04-30T10:08:16.996Z</time></trkpt><trkpt lat="40.27299151175594" lon="9.612138256016081"><ele>200.25</ele><time>2026-04-30T10:08:17.996Z</time></trkpt><trkpt lat="40.27288071912856" lon="9.612175729495908"><ele>197.0</ele><time>2026-04-30T10:08:18.996Z</time></trkpt><trkpt lat="40.272775646367" lon="9.612222635053937"><ele>197.0</ele><time>2026-04-30T10:08:19.996Z</time></trkpt><trkpt lat="40.27267828556384" lon="9.612268003216837"><ele>197.0</ele><time>2026-04-30T10:08:20.996Z</time></trkpt><trkpt lat="40.27258317351116" lon="9.612304867202417"><ele>197.0</ele><time>2026-04-30T10:08:21.996Z</time></trkpt><trkpt lat="40.27249783875887" lon="9.612334432841015"><ele>197.0</ele><time>2026-04-30T10:08:22.996Z</time></trkpt><trkpt lat="40.272417679116614" lon="9.612359121784309"><ele>197.0</ele><time>2026-04-30T10:08:23.996Z</time></trkpt><trkpt lat="40.27233819416625" lon="9.612368105298723"><ele>197.50000000000003</ele><time>2026-04-30T10:08:24.996Z</time></trkpt><trkpt lat="40.27226615137571" lon="9.612371270040487"><ele>198.0</ele><time>2026-04-30T10:08:25.996Z</time></trkpt><trkpt lat="40.27219164227362" lon="9.612369580359656"><ele>198.5</ele><time>2026-04-30T10:08:26.996Z</time></trkpt><trkpt lat="40.27212240871741" lon="9.612376306580929"><ele>199.0</ele><time>2026-04-30T10:08:27.996Z</time></trkpt><trkpt lat="40.272055293051565" lon="9.612392601332662"><ele>199.50000000000003</ele><time>2026-04-30T10:08:28.996Z</time></trkpt><trkpt lat="40.271972161495704" lon="9.61250469961344"><ele>200.0</ele><time>2026-04-30T10:08:30.996Z</time></trkpt><trkpt lat="40.27197261989989" lon="9.612611277320635"><ele>200.0</ele><time>2026-04-30T10:08:31.996Z</time></trkpt><trkpt lat="40.272008190565835" lon="9.612708357568765"><ele>200.0</ele><time>2026-04-30T10:08:32.996Z</time></trkpt><trkpt lat="40.27206885533912" lon="9.612798539728193"><ele>200.0</ele><time>2026-04-30T10:08:33.996Z</time></trkpt><trkpt lat="40.27218432369861" lon="9.612805591778796"><ele>200.0</ele><time>2026-04-30T10:08:34.996Z</time></trkpt><trkpt lat="40.27229290453758" lon="9.612800882513648"><ele>200.0</ele><time>2026-04-30T10:08:35.996Z</time></trkpt><trkpt lat="40.27240513161589" lon="9.612805157894174"><ele>197.0</ele><time>2026-04-30T10:08:36.996Z</time></trkpt><trkpt lat="40.27251054284468" lon="9.612832325245298"><ele>194.0</ele><time>2026-04-30T10:08:37.996Z</time></trkpt><trkpt lat="40.27260103214404" lon="9.612898997658371"><ele>191.0</ele><time>2026-04-30T10:08:38.996Z</time></trkpt><trkpt lat="40.272695556864704" lon="9.612951593858066"><ele>188.0</ele><time>2026-04-30T10:08:39.996Z</time></trkpt><trkpt lat="40.27278670632746" lon="9.612995815236719"><ele>185.0</ele><time>2026-04-30T10:08:40.996Z</time></trkpt><trkpt lat="40.27287131467832" lon="9.613049910736184"><ele>185.0</ele><time>2026-04-30T10:08:41.996Z</time></trkpt><trkpt lat="40.27295311398405" lon="9.613113614397955"><ele>185.0</ele><time>2026-04-30T10:08:42.996Z</time></trkpt><trkpt lat="40.27303444731725" lon="9.613178982110552"><ele>185.0</ele><time>2026-04-30T10:08:43.996Z</time></trkpt><trkpt lat="40.27311271481801" lon="9.613248467061267"><ele>185.0</ele><time>2026-04-30T10:08:44.996Z</time></trkpt><trkpt lat="40.27318989140893" lon="9.61331356225228"><ele>185.0</ele><time>2026-04-30T10:08:45.995Z</time></trkpt><trkpt lat="40.273264356819" lon="9.613385659050664"><ele>185.0</ele><time>2026-04-30T10:08:46.995Z</time></trkpt><trkpt lat="40.273339994790476" lon="9.613445141719383"><ele>185.0</ele><time>2026-04-30T10:08:47.995Z</time></trkpt><trkpt lat="40.273418910274046" lon="9.613508496568514"><ele>185.0</ele><time>2026-04-30T10:08:48.995Z</time></trkpt><trkpt lat="40.27350258422825" lon="9.613573434826733"><ele>185.0</ele><time>2026-04-30T10:08:49.995Z</time></trkpt><trkpt lat="40.27359229829861" lon="9.613633613743968"><ele>185.0</ele><time>2026-04-30T10:08:50.995Z</time></trkpt><trkpt lat="40.27368381864388" lon="9.613685607667685"><ele>183.0</ele><time>2026-04-30T10:08:51.995Z</time></trkpt><trkpt lat="40.27377700658111" lon="9.613724468419104"><ele>181.0</ele><time>2026-04-30T10:08:52.995Z</time></trkpt><trkpt lat="40.27387351709296" lon="9.613752407008262"><ele>179.0</ele><time>2026-04-30T10:08:53.995Z</time></trkpt><trkpt lat="40.273969851865914" lon="9.613769938150686"><ele>177.0</ele><time>2026-04-30T10:08:54.995Z</time></trkpt><trkpt lat="40.27406709995476" lon="9.613786132566325"><ele>175.0</ele><time>2026-04-30T10:08:55.995Z</time></trkpt><trkpt lat="40.27416185691226" lon="9.613800038844547"><ele>174.8</ele><time>2026-04-30T10:08:56.995Z</time></trkpt><trkpt lat="40.274256690460085" lon="9.613816752564427"><ele>174.6</ele><time>2026-04-30T10:08:57.995Z</time></trkpt><trkpt lat="40.27435219775154" lon="9.61383570905218"><ele>174.39999999999998</ele><time>2026-04-30T10:08:58.995Z</time></trkpt><trkpt lat="40.274446099592815" lon="9.61385472217317"><ele>174.2</ele><time>2026-04-30T10:08:59.995Z</time></trkpt><trkpt lat="40.27453800149154" lon="9.613878354131227"><ele>174.0</ele><time>2026-04-30T10:09:00.995Z</time></trkpt><trkpt lat="40.27464064416985" lon="9.61391043763741"><ele>174.0</ele><time>2026-04-30T10:09:01.995Z</time></trkpt><trkpt lat="40.27474674698779" lon="9.613953164832152"><ele>174.0</ele><time>2026-04-30T10:09:02.995Z</time></trkpt><trkpt lat="40.27486222342065" lon="9.61400326794976"><ele>174.0</ele><time>2026-04-30T10:09:03.995Z</time></trkpt><trkpt lat="40.27498361527356" lon="9.614059941707012"><ele>174.0</ele><time>2026-04-30T10:09:04.995Z</time></trkpt><trkpt lat="40.27510481229364" lon="9.614137886736584"><ele>173.0</ele><time>2026-04-30T10:09:05.995Z</time></trkpt><trkpt lat="40.27521858438988" lon="9.614220595621836"><ele>172.0</ele><time>2026-04-30T10:09:06.995Z</time></trkpt><trkpt lat="40.27533594286824" lon="9.614308084555585"><ele>171.0</ele><time>2026-04-30T10:09:07.995Z</time></trkpt><trkpt lat="40.275456757046484" lon="9.614367260454754"><ele>170.0</ele><time>2026-04-30T10:09:08.995Z</time></trkpt><trkpt lat="40.27558534818581" lon="9.61439425804372"><ele>169.75</ele><time>2026-04-30T10:09:09.995Z</time></trkpt><trkpt lat="40.27570859872157" lon="9.614419330119777"><ele>169.5</ele><time>2026-04-30T10:09:10.995Z</time></trkpt><trkpt lat="40.27583494508899" lon="9.614433962316692"><ele>169.25</ele><time>2026-04-30T10:09:11.995Z</time></trkpt><trkpt lat="40.275957288402964" lon="9.614419751106489"><ele>169.0</ele><time>2026-04-30T10:09:12.995Z</time></trkpt><trkpt lat="40.27607581813867" lon="9.614396791177745"><ele>169.0</ele><time>2026-04-30T10:09:13.995Z</time></trkpt><trkpt lat="40.276192037791624" lon="9.61437544711616"><ele>169.0</ele><time>2026-04-30T10:09:14.995Z</time></trkpt><trkpt lat="40.276309972152575" lon="9.614370262875768"><ele>169.0</ele><time>2026-04-30T10:09:15.995Z</time></trkpt><trkpt lat="40.27642034764351" lon="9.614367891704864"><ele>169.0</ele><time>2026-04-30T10:09:16.995Z</time></trkpt><trkpt lat="40.27653582717346" lon="9.61437987752532"><ele>168.39999999999998</ele><time>2026-04-30T10:09:17.995Z</time></trkpt><trkpt lat="40.276648049360546" lon="9.614396898125094"><ele>167.8</ele><time>2026-04-30T10:09:18.995Z</time></trkpt><trkpt lat="40.2767544977233" lon="9.614436007403258"><ele>167.2</ele><time>2026-04-30T10:09:19.995Z</time></trkpt><trkpt lat="40.27685373547907" lon="9.614474469168279"><ele>166.60000000000002</ele><time>2026-04-30T10:09:20.995Z</time></trkpt><trkpt lat="40.27695126988157" lon="9.614527020796256"><ele>166.0</ele><time>2026-04-30T10:09:21.995Z</time></trkpt><trkpt lat="40.27704846053953" lon="9.614574187332712"><ele>163.75</ele><time>2026-04-30T10:09:22.995Z</time></trkpt><trkpt lat="40.2771581190675" lon="9.61462881603489"><ele>161.5</ele><time>2026-04-30T10:09:23.995Z</time></trkpt><trkpt lat="40.277270305223645" lon="9.614696048293506"><ele>159.25</ele><time>2026-04-30T10:09:24.995Z</time></trkpt><trkpt lat="40.27737832685788" lon="9.614776771519804"><ele>157.0</ele><time>2026-04-30T10:09:25.995Z</time></trkpt><trkpt lat="40.27747702600267" lon="9.614868393639314"><ele>157.0</ele><time>2026-04-30T10:09:26.995Z</time></trkpt><trkpt lat="40.27756785595012" lon="9.614975317561251"><ele>157.0</ele><time>2026-04-30T10:09:27.995Z</time></trkpt><trkpt lat="40.277654974763514" lon="9.615083077445076"><ele>157.0</ele><time>2026-04-30T10:09:28.995Z</time></trkpt><trkpt lat="40.27773275534626" lon="9.615207556896625"><ele>157.0</ele><time>2026-04-30T10:09:29.995Z</time></trkpt><trkpt lat="40.27782318473112" lon="9.615328980884236"><ele>155.6</ele><time>2026-04-30T10:09:30.995Z</time></trkpt><trkpt lat="40.27791034542435" lon="9.615435681130355"><ele>154.2</ele><time>2026-04-30T10:09:31.995Z</time></trkpt><trkpt lat="40.277995740906974" lon="9.615536555692728"><ele>152.8</ele><time>2026-04-30T10:09:32.995Z</time></trkpt><trkpt lat="40.27807597276774" lon="9.615625154554785"><ele>151.4</ele><time>2026-04-30T10:09:33.995Z</time></trkpt><trkpt lat="40.27815328732699" lon="9.61570243278896"><ele>150.0</ele><time>2026-04-30T10:09:34.995Z</time></trkpt><trkpt lat="40.27822766168422" lon="9.615778345229957"><ele>150.0</ele><time>2026-04-30T10:09:35.995Z</time></trkpt><trkpt lat="40.27829748402525" lon="9.615862477026562"><ele>150.0</ele><time>2026-04-30T10:09:36.995Z</time></trkpt><trkpt lat="40.278373026569405" lon="9.615944431889856"><ele>150.0</ele><time>2026-04-30T10:09:37.995Z</time></trkpt><trkpt lat="40.2784454536606" lon="9.616029214510016"><ele>150.0</ele><time>2026-04-30T10:09:38.995Z</time></trkpt><trkpt lat="40.27851662455437" lon="9.616123491122059"><ele>150.0</ele><time>2026-04-30T10:09:39.995Z</time></trkpt><trkpt lat="40.27858469392884" lon="9.61621822397418"><ele>147.25</ele><time>2026-04-30T10:09:40.995Z</time></trkpt><trkpt lat="40.27865757650877" lon="9.616319830395991"><ele>144.5</ele><time>2026-04-30T10:09:41.995Z</time></trkpt><trkpt lat="40.278730436680775" lon="9.61642831855535"><ele>141.75</ele><time>2026-04-30T10:09:42.995Z</time></trkpt><trkpt lat="40.27880057337373" lon="9.616548618008405"><ele>139.0</ele><time>2026-04-30T10:09:43.995Z</time></trkpt><trkpt lat="40.278871831937906" lon="9.616675640972641"><ele>140.0</ele><time>2026-04-30T10:09:44.995Z</time></trkpt><trkpt lat="40.27893951038186" lon="9.616822830760286"><ele>141.0</ele><time>2026-04-30T10:09:45.995Z</time></trkpt><trkpt lat="40.278999564572686" lon="9.616976583349482"><ele>142.0</ele><time>2026-04-30T10:09:46.995Z</time></trkpt><trkpt lat="40.27905538857037" lon="9.617131448081347"><ele>143.0</ele><time>2026-04-30T10:09:47.995Z</time></trkpt><trkpt lat="40.27910752764346" lon="9.617283528775596"><ele>141.0</ele><time>2026-04-30T10:09:48.995Z</time></trkpt><trkpt lat="40.279157785996844" lon="9.617429249145701"><ele>139.0</ele><time>2026-04-30T10:09:49.995Z</time></trkpt><trkpt lat="40.279204855888246" lon="9.617572180069564"><ele>137.0</ele><time>2026-04-30T10:09:50.995Z</time></trkpt><trkpt lat="40.2792473378004" lon="9.617700212124078"><ele>135.0</ele><time>2026-04-30T10:09:51.995Z</time></trkpt><trkpt lat="40.27926924450471" lon="9.617831298506887"><ele>133.83333333333334</ele><time>2026-04-30T10:09:52.995Z</time></trkpt><trkpt lat="40.279312732843" lon="9.617936016275603"><ele>132.66666666666666</ele><time>2026-04-30T10:09:53.995Z</time></trkpt><trkpt lat="40.279350806796494" lon="9.618029883379263"><ele>131.5</ele><time>2026-04-30T10:09:54.995Z</time></trkpt><trkpt lat="40.279382423143055" lon="9.618115966358806"><ele>130.33333333333331</ele><time>2026-04-30T10:09:55.995Z</time></trkpt><trkpt lat="40.27941499855377" lon="9.61821706746777"><ele>129.16666666666666</ele><time>2026-04-30T10:09:56.995Z</time></trkpt><trkpt lat="40.27944241364905" lon="9.618307911714739"><ele>128.0</ele><time>2026-04-30T10:09:57.995Z</time></trkpt><trkpt lat="40.279471157595815" lon="9.61839650578411"><ele>128.0</ele><time>2026-04-30T10:09:58.995Z</time></trkpt><trkpt lat="40.27950393642551" lon="9.618484196024577"><ele>127.99999999999999</ele><time>2026-04-30T10:09:59.995Z</time></trkpt><trkpt lat="40.27954198421238" lon="9.618558928065099"><ele>128.0</ele><time>2026-04-30T10:10:00.995Z</time></trkpt><trkpt lat="40.27957135342378" lon="9.618642283748914"><ele>128.0</ele><time>2026-04-30T10:10:01.995Z</time></trkpt><trkpt lat="40.279592525779094" lon="9.618723866807425"><ele>127.99999999999999</ele><time>2026-04-30T10:10:02.995Z</time></trkpt><trkpt lat="40.2796092533581" lon="9.61880959318255"><ele>128.0</ele><time>2026-04-30T10:10:03.995Z</time></trkpt><trkpt lat="40.279618823453966" lon="9.618895354402543"><ele>128.0</ele><time>2026-04-30T10:10:04.995Z</time></trkpt><trkpt lat="40.27959758979952" lon="9.61899079011925"><ele>128.33333333333331</ele><time>2026-04-30T10:10:05.995Z</time></trkpt><trkpt lat="40.279636411648994" lon="9.619083650318984"><ele>128.66666666666666</ele><time>2026-04-30T10:10:06.995Z</time></trkpt><trkpt lat="40.27967529482069" lon="9.619173689305935"><ele>129.0</ele><time>2026-04-30T10:10:07.995Z</time></trkpt><trkpt lat="40.27972911512818" lon="9.619254315333912"><ele>129.33333333333334</ele><time>2026-04-30T10:10:08.995Z</time></trkpt><trkpt lat="40.27978743980043" lon="9.61933135842795"><ele>129.66666666666669</ele><time>2026-04-30T10:10:09.995Z</time></trkpt><trkpt lat="40.27982915704106" lon="9.61943267775665"><ele>130.0</ele><time>2026-04-30T10:10:10.995Z</time></trkpt><trkpt lat="40.27987193037477" lon="9.619540410204962"><ele>128.6</ele><time>2026-04-30T10:10:11.995Z</time></trkpt><trkpt lat="40.27989896925947" lon="9.619662491301598"><ele>127.2</ele><time>2026-04-30T10:10:12.995Z</time></trkpt><trkpt lat="40.279940269071616" lon="9.61978066856345"><ele>125.80000000000001</ele><time>2026-04-30T10:10:13.995Z</time></trkpt><trkpt lat="40.279978886822185" lon="9.619888969355465"><ele>124.4</ele><time>2026-04-30T10:10:14.994Z</time></trkpt><trkpt lat="40.280015518402955" lon="9.6199939800243"><ele>123.0</ele><time>2026-04-30T10:10:15.994Z</time></trkpt><trkpt lat="40.28005014989575" lon="9.620095781697321"><ele>123.0</ele><time>2026-04-30T10:10:16.994Z</time></trkpt><trkpt lat="40.28009006006672" lon="9.620196721119544"><ele>123.0</ele><time>2026-04-30T10:10:17.994Z</time></trkpt><trkpt lat="40.280130871111076" lon="9.620298040152454"><ele>123.0</ele><time>2026-04-30T10:10:18.994Z</time></trkpt><trkpt lat="40.280166444109774" lon="9.620391737615593"><ele>123.0</ele><time>2026-04-30T10:10:19.994Z</time></trkpt><trkpt lat="40.28020240021934" lon="9.620486056394553"><ele>123.0</ele><time>2026-04-30T10:10:20.994Z</time></trkpt><trkpt lat="40.28024159600745" lon="9.620576899937046"><ele>123.0</ele><time>2026-04-30T10:10:21.994Z</time></trkpt><trkpt lat="40.28027503129198" lon="9.620655149040141"><ele>121.66666666666667</ele><time>2026-04-30T10:10:22.994Z</time></trkpt><trkpt lat="40.28031112370778" lon="9.620738990719286"><ele>120.33333333333334</ele><time>2026-04-30T10:10:24.994Z</time></trkpt><trkpt lat="40.28035142139936" lon="9.620835132206627"><ele>119.0</ele><time>2026-04-30T10:10:27.994Z</time></trkpt><trkpt lat="40.28038471853861" lon="9.620912219291133"><ele>117.66666666666667</ele><time>2026-04-30T10:10:29.994Z</time></trkpt><trkpt lat="40.280420060977015" lon="9.621009420249939"><ele>116.33333333333334</ele><time>2026-04-30T10:10:31.994Z</time></trkpt><trkpt lat="40.28051220736417" lon="9.6210152617892"><ele>115.0</ele><time>2026-04-30T10:10:33.994Z</time></trkpt><trkpt lat="40.28053965503757" lon="9.620920330099533"><ele>115.00000000000001</ele><time>2026-04-30T10:10:36.994Z</time></trkpt><trkpt lat="40.280454883468586" lon="9.620817669596068"><ele>115.0</ele><time>2026-04-30T10:10:38.994Z</time></trkpt><trkpt lat="40.28038820995062" lon="9.620757983817274"><ele>115.0</ele><time>2026-04-30T10:10:40.994Z</time></trkpt><trkpt lat="40.280335501607844" lon="9.620666584681041"><ele>115.0</ele><time>2026-04-30T10:15:03.992Z</time></trkpt><trkpt lat="40.280300094126225" lon="9.620596837451123"><ele>115.00000000000001</ele><time>2026-04-30T10:15:04.992Z</time></trkpt><trkpt lat="40.28026299153088" lon="9.620510650962249"><ele>115.0</ele><time>2026-04-30T10:15:05.992Z</time></trkpt><trkpt lat="40.28022638278903" lon="9.620424150231887"><ele>115.0</ele><time>2026-04-30T10:15:06.992Z</time></trkpt><trkpt lat="40.28017939875922" lon="9.62031950275013"><ele>115.0</ele><time>2026-04-30T10:15:07.992Z</time></trkpt><trkpt lat="40.28013254020797" lon="9.620198814446727"><ele>115.0</ele><time>2026-04-30T10:15:08.992Z</time></trkpt><trkpt lat="40.28008137960692" lon="9.620065845188753"><ele>115.0</ele><time>2026-04-30T10:15:09.992Z</time></trkpt><trkpt lat="40.28003357389728" lon="9.61993976722204"><ele>115.0</ele><time>2026-04-30T10:15:10.992Z</time></trkpt><trkpt lat="40.27999482588037" lon="9.619828366615627"><ele>116.33333333333334</ele><time>2026-04-30T10:15:11.992Z</time></trkpt><trkpt lat="40.27995975272111" lon="9.619723806103396"><ele>117.66666666666667</ele><time>2026-04-30T10:15:12.992Z</time></trkpt><trkpt lat="40.27992887013467" lon="9.619628944162791"><ele>119.0</ele><time>2026-04-30T10:15:13.992Z</time></trkpt><trkpt lat="40.27990245029556" lon="9.619534274005748"><ele>120.33333333333334</ele><time>2026-04-30T10:15:14.992Z</time></trkpt><trkpt lat="40.279871427437314" lon="9.619445622968216"><ele>121.66666666666667</ele><time>2026-04-30T10:15:15.992Z</time></trkpt><trkpt lat="40.27984582122918" lon="9.619362277493883"><ele>123.0</ele><time>2026-04-30T10:15:16.992Z</time></trkpt><trkpt lat="40.27982337188333" lon="9.619275168067155"><ele>122.83333333333333</ele><time>2026-04-30T10:15:17.992Z</time></trkpt><trkpt lat="40.2798078293906" lon="9.619186026865087"><ele>122.66666666666666</ele><time>2026-04-30T10:15:18.992Z</time></trkpt><trkpt lat="40.279798289423404" lon="9.619089145008484"><ele>122.5</ele><time>2026-04-30T10:15:19.992Z</time></trkpt><trkpt lat="40.27978415380336" lon="9.618986782547472"><ele>122.33333333333333</ele><time>2026-04-30T10:15:20.992Z</time></trkpt><trkpt lat="40.279747626463326" lon="9.618887850160364"><ele>122.16666666666666</ele><time>2026-04-30T10:15:21.992Z</time></trkpt><trkpt lat="40.279682626673804" lon="9.618792939204447"><ele>122.0</ele><time>2026-04-30T10:15:22.992Z</time></trkpt><trkpt lat="40.27961560154614" lon="9.618683184137703"><ele>123.5</ele><time>2026-04-30T10:15:23.992Z</time></trkpt><trkpt lat="40.279562951234475" lon="9.618550899737029"><ele>125.0</ele><time>2026-04-30T10:15:24.992Z</time></trkpt><trkpt lat="40.27951135326092" lon="9.618393536108917"><ele>126.5</ele><time>2026-04-30T10:15:25.992Z</time></trkpt><trkpt lat="40.2794526240529" lon="9.61821745058311"><ele>128.0</ele><time>2026-04-30T10:15:26.992Z</time></trkpt><trkpt lat="40.27938904480614" lon="9.618037128162559"><ele>128.0</ele><time>2026-04-30T10:15:27.992Z</time></trkpt><trkpt lat="40.279323250226454" lon="9.61785162079332"><ele>128.0</ele><time>2026-04-30T10:15:28.992Z</time></trkpt><trkpt lat="40.27925760802168" lon="9.617661458479084"><ele>128.0</ele><time>2026-04-30T10:15:29.992Z</time></trkpt><trkpt lat="40.279189969511926" lon="9.617457294677385"><ele>130.33333333333331</ele><time>2026-04-30T10:15:30.992Z</time></trkpt><trkpt lat="40.27911794361163" lon="9.617245414401932"><ele>132.66666666666666</ele><time>2026-04-30T10:15:31.992Z</time></trkpt><trkpt lat="40.27904028161828" lon="9.617024767070129"><ele>135.0</ele><time>2026-04-30T10:15:32.992Z</time></trkpt><trkpt lat="40.27895789198715" lon="9.616800375019343"><ele>136.33333333333334</ele><time>2026-04-30T10:15:33.992Z</time></trkpt><trkpt lat="40.278868329342366" lon="9.616580403073108"><ele>137.66666666666669</ele><time>2026-04-30T10:15:34.992Z</time></trkpt><trkpt lat="40.27874951419035" lon="9.61636855593918"><ele>139.0</ele><time>2026-04-30T10:15:35.992Z</time></trkpt><trkpt lat="40.278602508626946" lon="9.616152282730337"><ele>144.5</ele><time>2026-04-30T10:15:36.992Z</time></trkpt><trkpt lat="40.27842229372454" lon="9.615938154203352"><ele>150.0</ele><time>2026-04-30T10:15:37.992Z</time></trkpt><trkpt lat="40.2782286473355" lon="9.615722490525018"><ele>148.5</ele><time>2026-04-30T10:15:38.992Z</time></trkpt><trkpt lat="40.27804080263163" lon="9.615513406428768"><ele>147.0</ele><time>2026-04-30T10:15:39.992Z</time></trkpt><trkpt lat="40.277870607482576" lon="9.615315776348577"><ele>150.33333333333334</ele><time>2026-04-30T10:15:40.992Z</time></trkpt><trkpt lat="40.277714967896365" lon="9.615131440474865"><ele>153.66666666666669</ele><time>2026-04-30T10:15:41.992Z</time></trkpt><trkpt lat="40.2775748804023" lon="9.614948973087222"><ele>157.0</ele><time>2026-04-30T10:15:42.992Z</time></trkpt><trkpt lat="40.2774391430403" lon="9.61479546614541"><ele>157.0</ele><time>2026-04-30T10:15:43.992Z</time></trkpt><trkpt lat="40.27730007437364" lon="9.614668547104692"><ele>157.0</ele><time>2026-04-30T10:15:44.992Z</time></trkpt><trkpt lat="40.27712645349754" lon="9.614576640889004"><ele>157.0</ele><time>2026-04-30T10:15:45.992Z</time></trkpt><trkpt lat="40.27693991471105" lon="9.614489418619591"><ele>160.0</ele><time>2026-04-30T10:15:46.992Z</time></trkpt><trkpt lat="40.27675561051104" lon="9.61440696548178"><ele>163.0</ele><time>2026-04-30T10:15:47.992Z</time></trkpt><trkpt lat="40.27655983767171" lon="9.614347794621029"><ele>166.0</ele><time>2026-04-30T10:15:48.992Z</time></trkpt><trkpt lat="40.27636655442363" lon="9.614307763946714"><ele>167.0</ele><time>2026-04-30T10:15:49.992Z</time></trkpt><trkpt lat="40.27618978209246" lon="9.614308863432594"><ele>168.0</ele><time>2026-04-30T10:15:50.992Z</time></trkpt><trkpt lat="40.2760283313023" lon="9.61434543570128"><ele>169.0</ele><time>2026-04-30T10:15:51.992Z</time></trkpt><trkpt lat="40.27588199160037" lon="9.614396722606692"><ele>169.0</ele><time>2026-04-30T10:15:52.992Z</time></trkpt><trkpt lat="40.27574089144471" lon="9.614410304318357"><ele>169.0</ele><time>2026-04-30T10:15:53.992Z</time></trkpt><trkpt lat="40.27560635088072" lon="9.614354639098908"><ele>169.0</ele><time>2026-04-30T10:15:54.992Z</time></trkpt><trkpt lat="40.275458317272744" lon="9.61431182978711"><ele>169.0</ele><time>2026-04-30T10:15:55.992Z</time></trkpt><trkpt lat="40.27530273040802" lon="9.614263320725641"><ele>169.33333333333334</ele><time>2026-04-30T10:15:56.992Z</time></trkpt><trkpt lat="40.275161518509385" lon="9.614134781758413"><ele>169.66666666666666</ele><time>2026-04-30T10:15:57.992Z</time></trkpt><trkpt lat="40.27498386298113" lon="9.614027311797667"><ele>170.0</ele><time>2026-04-30T10:15:58.992Z</time></trkpt><trkpt lat="40.274792355847616" lon="9.613926807729207"><ele>172.0</ele><time>2026-04-30T10:15:59.992Z</time></trkpt><trkpt lat="40.274572655155296" lon="9.613846822644692"><ele>174.0</ele><time>2026-04-30T10:16:00.992Z</time></trkpt><trkpt lat="40.27434329928433" lon="9.613802640186952"><ele>174.0</ele><time>2026-04-30T10:16:01.992Z</time></trkpt><trkpt lat="40.27411507100702" lon="9.613755947015745"><ele>174.0</ele><time>2026-04-30T10:16:02.992Z</time></trkpt><trkpt lat="40.27390602225597" lon="9.613710577374595"><ele>174.0</ele><time>2026-04-30T10:16:03.992Z</time></trkpt><trkpt lat="40.2737152322582" lon="9.613658240769375"><ele>177.66666666666666</ele><time>2026-04-30T10:16:04.992Z</time></trkpt><trkpt lat="40.27354359267629" lon="9.613542448343937"><ele>181.33333333333331</ele><time>2026-04-30T10:16:05.992Z</time></trkpt><trkpt lat="40.273359551566685" lon="9.613410206999438"><ele>185.0</ele><time>2026-04-30T10:16:06.992Z</time></trkpt><trkpt lat="40.27315702844118" lon="9.61326036909318"><ele>185.0</ele><time>2026-04-30T10:16:07.992Z</time></trkpt><trkpt lat="40.272961776530835" lon="9.61308692850462"><ele>185.0</ele><time>2026-04-30T10:16:08.992Z</time></trkpt><trkpt lat="40.272771923899406" lon="9.612939576798416"><ele>185.0</ele><time>2026-04-30T10:16:09.992Z</time></trkpt><trkpt lat="40.272597675261544" lon="9.612835184083226"><ele>185.0</ele><time>2026-04-30T10:16:10.992Z</time></trkpt><trkpt lat="40.272426764862196" lon="9.61276107321191"><ele>185.0</ele><time>2026-04-30T10:16:11.992Z</time></trkpt><trkpt lat="40.27226587008737" lon="9.612723286785533"><ele>188.0</ele><time>2026-04-30T10:16:12.992Z</time></trkpt><trkpt lat="40.27212628472281" lon="9.612698483319395"><ele>191.0</ele><time>2026-04-30T10:16:13.992Z</time></trkpt><trkpt lat="40.27202395157487" lon="9.612675592474252"><ele>194.0</ele><time>2026-04-30T10:16:14.992Z</time></trkpt><trkpt lat="40.271967223440946" lon="9.612600925638263"><ele>197.0</ele><time>2026-04-30T10:16:15.992Z</time></trkpt><trkpt lat="40.27196665835208" lon="9.61250215842185"><ele>200.0</ele><time>2026-04-30T10:16:16.992Z</time></trkpt><trkpt lat="40.27202567024738" lon="9.612416123028892"><ele>200.0</ele><time>2026-04-30T10:16:17.992Z</time></trkpt><trkpt lat="40.27214986864563" lon="9.612389442200428"><ele>200.0</ele><time>2026-04-30T10:16:18.992Z</time></trkpt><trkpt lat="40.272314275291286" lon="9.612392179150497"><ele>200.0</ele><time>2026-04-30T10:16:19.992Z</time></trkpt><trkpt lat="40.27251191986612" lon="9.612370874036216"><ele>199.0</ele><time>2026-04-30T10:16:20.992Z</time></trkpt><trkpt lat="40.27270839038513" lon="9.612317454544213"><ele>198.0</ele><time>2026-04-30T10:16:21.992Z</time></trkpt><trkpt lat="40.27293346300183" lon="9.612218096214235"><ele>197.0</ele><time>2026-04-30T10:16:22.992Z</time></trkpt><trkpt lat="40.273165999533184" lon="9.612126661938916"><ele>196.66666666666669</ele><time>2026-04-30T10:16:23.992Z</time></trkpt><trkpt lat="40.27337879221513" lon="9.612034163042413"><ele>196.33333333333331</ele><time>2026-04-30T10:16:24.992Z</time></trkpt><trkpt lat="40.27357911857487" lon="9.61192167181656"><ele>196.0</ele><time>2026-04-30T10:16:25.992Z</time></trkpt><trkpt lat="40.273762983666984" lon="9.611782591874572"><ele>201.5</ele><time>2026-04-30T10:16:26.992Z</time></trkpt><trkpt lat="40.273937854048555" lon="9.611614181458414"><ele>207.0</ele><time>2026-04-30T10:16:27.992Z</time></trkpt><trkpt lat="40.27411620047433" lon="9.611413020646514"><ele>207.0</ele><time>2026-04-30T10:16:28.992Z</time></trkpt><trkpt lat="40.27428843329935" lon="9.611181127764446"><ele>207.0</ele><time>2026-04-30T10:16:29.992Z</time></trkpt><trkpt lat="40.274444997699966" lon="9.610975975218864"><ele>210.0</ele><time>2026-04-30T10:16:30.991Z</time></trkpt><trkpt lat="40.27459053671071" lon="9.610830785978807"><ele>213.0</ele><time>2026-04-30T10:16:31.991Z</time></trkpt><trkpt lat="40.27474908664529" lon="9.610798875117474"><ele>216.0</ele><time>2026-04-30T10:16:32.991Z</time></trkpt><trkpt lat="40.27494354711802" lon="9.610729531819194"><ele>216.0</ele><time>2026-04-30T10:16:33.991Z</time></trkpt><trkpt lat="40.27518286018079" lon="9.610620750539193"><ele>216.0</ele><time>2026-04-30T10:16:34.991Z</time></trkpt><trkpt lat="40.27542359395818" lon="9.610483096102138"><ele>216.0</ele><time>2026-04-30T10:16:35.991Z</time></trkpt><trkpt lat="40.27563336613167" lon="9.610385464181336"><ele>216.0</ele><time>2026-04-30T10:16:36.991Z</time></trkpt><trkpt lat="40.275805566471284" lon="9.61035768152654"><ele>216.0</ele><time>2026-04-30T10:16:37.991Z</time></trkpt><trkpt lat="40.27592958971679" lon="9.610357445479682"><ele>216.0</ele><time>2026-04-30T10:16:38.991Z</time></trkpt><trkpt lat="40.27602114004219" lon="9.61033929754821"><ele>216.00000000000003</ele><time>2026-04-30T10:16:39.991Z</time></trkpt><trkpt lat="40.276078056814534" lon="9.610283265196985"><ele>216.00000000000003</ele><time>2026-04-30T10:16:40.991Z</time></trkpt><trkpt lat="40.27610153035503" lon="9.610164143059235"><ele>216.0</ele><time>2026-04-30T10:16:41.991Z</time></trkpt><trkpt lat="40.27606718939681" lon="9.610035458414563"><ele>216.0</ele><time>2026-04-30T10:16:42.991Z</time></trkpt><trkpt lat="40.27597456630997" lon="9.609943580454015"><ele>220.0</ele><time>2026-04-30T10:16:43.991Z</time></trkpt><trkpt lat="40.2758507012745" lon="9.60990685156879"><ele>224.0</ele><time>2026-04-30T10:16:44.991Z</time></trkpt><trkpt lat="40.27566650857997" lon="9.609917873962475"><ele>228.0</ele><time>2026-04-30T10:16:45.991Z</time></trkpt><trkpt lat="40.275480835016026" lon="9.60987312575248"><ele>228.0</ele><time>2026-04-30T10:16:46.991Z</time></trkpt><trkpt lat="40.27529892210265" lon="9.609716843888206"><ele>228.0</ele><time>2026-04-30T10:16:47.991Z</time></trkpt><trkpt lat="40.2750818358037" lon="9.609535567976401"><ele>234.0</ele><time>2026-04-30T10:16:48.991Z</time></trkpt><trkpt lat="40.27485341538486" lon="9.60936208183687"><ele>240.0</ele><time>2026-04-30T10:16:49.991Z</time></trkpt><trkpt lat="40.27461822534664" lon="9.609249634060916"><ele>241.33333333333331</ele><time>2026-04-30T10:16:50.991Z</time></trkpt><trkpt lat="40.274415699720116" lon="9.609141467311948"><ele>242.66666666666666</ele><time>2026-04-30T10:16:51.991Z</time></trkpt><trkpt lat="40.27422965652868" lon="9.609078982706132"><ele>244.0</ele><time>2026-04-30T10:16:52.991Z</time></trkpt><trkpt lat="40.27403099795761" lon="9.60905507202141"><ele>246.5</ele><time>2026-04-30T10:16:53.991Z</time></trkpt><trkpt lat="40.273804892510796" lon="9.609084991918776"><ele>249.0</ele><time>2026-04-30T10:16:54.991Z</time></trkpt><trkpt lat="40.273563909292555" lon="9.609105171985316"><ele>249.0</ele><time>2026-04-30T10:16:55.991Z</time></trkpt><trkpt lat="40.27336150278041" lon="9.609070077296838"><ele>249.0</ele><time>2026-04-30T10:16:56.991Z</time></trkpt><trkpt lat="40.27318542876452" lon="9.60900801321019"><ele>249.0</ele><time>2026-04-30T10:16:57.991Z</time></trkpt><trkpt lat="40.27300252394375" lon="9.608887455091773"><ele>247.66666666666669</ele><time>2026-04-30T10:16:58.991Z</time></trkpt><trkpt lat="40.272804095631024" lon="9.608745265503563"><ele>246.33333333333334</ele><time>2026-04-30T10:16:59.991Z</time></trkpt><trkpt lat="40.27261066228894" lon="9.608620751526772"><ele>245.0</ele><time>2026-04-30T10:17:00.991Z</time></trkpt><trkpt lat="40.27247052881673" lon="9.608460318814046"><ele>248.0</ele><time>2026-04-30T10:17:01.991Z</time></trkpt><trkpt lat="40.272354194098" lon="9.608318192016991"><ele>251.0</ele><time>2026-04-30T10:17:02.991Z</time></trkpt><trkpt lat="40.2722263932821" lon="9.608232192042163"><ele>254.0</ele><time>2026-04-30T10:17:03.991Z</time></trkpt><trkpt lat="40.27208480300205" lon="9.608198086638845"><ele>257.0</ele><time>2026-04-30T10:17:04.991Z</time></trkpt><trkpt lat="40.27196089881386" lon="9.608179255004307"><ele>257.0</ele><time>2026-04-30T10:17:05.991Z</time></trkpt><trkpt lat="40.27188092854174" lon="9.608115853637761"><ele>257.0</ele><time>2026-04-30T10:17:06.991Z</time></trkpt><trkpt lat="40.27185600367629" lon="9.608019131899196"><ele>257.0</ele><time>2026-04-30T10:17:07.991Z</time></trkpt><trkpt lat="40.271888974019234" lon="9.607909889167706"><ele>257.0</ele><time>2026-04-30T10:17:08.991Z</time></trkpt><trkpt lat="40.2719881851364" lon="9.607844794792822"><ele>257.0</ele><time>2026-04-30T10:17:09.991Z</time></trkpt><trkpt lat="40.27214373210056" lon="9.607888095677648"><ele>258.0</ele><time>2026-04-30T10:17:10.991Z</time></trkpt><trkpt lat="40.272343978743926" lon="9.607868491657086"><ele>259.0</ele><time>2026-04-30T10:17:11.991Z</time></trkpt><trkpt lat="40.27257401156563" lon="9.607879059031113"><ele>260.0</ele><time>2026-04-30T10:17:12.991Z</time></trkpt><trkpt lat="40.27275156877232" lon="9.607864762391964"><ele>263.25</ele><time>2026-04-30T10:17:13.991Z</time></trkpt><trkpt lat="40.27289299348257" lon="9.607825051446543"><ele>266.5</ele><time>2026-04-30T10:17:14.991Z</time></trkpt><trkpt lat="40.27300443533109" lon="9.607732040312255"><ele>269.75</ele><time>2026-04-30T10:17:15.991Z</time></trkpt><trkpt lat="40.27309193437287" lon="9.607603809109568"><ele>273.0</ele><time>2026-04-30T10:17:16.991Z</time></trkpt><trkpt lat="40.273183535856866" lon="9.607443651998853"><ele>273.3333333333333</ele><time>2026-04-30T10:17:17.991Z</time></trkpt><trkpt lat="40.27331546252716" lon="9.60735420302134"><ele>273.66666666666663</ele><time>2026-04-30T10:17:18.991Z</time></trkpt><trkpt lat="40.2734772224447" lon="9.607215528684499"><ele>274.0</ele><time>2026-04-30T10:17:19.991Z</time></trkpt><trkpt lat="40.27365612528763" lon="9.60703652364712"><ele>277.5</ele><time>2026-04-30T10:17:20.991Z</time></trkpt><trkpt lat="40.27383217029079" lon="9.606813066981001"><ele>281.0</ele><time>2026-04-30T10:17:21.991Z</time></trkpt><trkpt lat="40.274000643659335" lon="9.60656796032149"><ele>281.0</ele><time>2026-04-30T10:17:22.991Z</time></trkpt><trkpt lat="40.27413379206575" lon="9.60635169908323"><ele>281.0</ele><time>2026-04-30T10:17:23.991Z</time></trkpt><trkpt lat="40.27423744796016" lon="9.606193329090608"><ele>281.0</ele><time>2026-04-30T10:17:24.991Z</time></trkpt><trkpt lat="40.27436783284228" lon="9.606119454851648"><ele>285.33333333333337</ele><time>2026-04-30T10:17:25.991Z</time></trkpt><trkpt lat="40.27450528627046" lon="9.606149402856305"><ele>289.6666666666667</ele><time>2026-04-30T10:17:26.991Z</time></trkpt><trkpt lat="40.27468599056529" lon="9.606139672610565"><ele>294.0</ele><time>2026-04-30T10:17:27.991Z</time></trkpt><trkpt lat="40.27488953862511" lon="9.606100036362461"><ele>294.0</ele><time>2026-04-30T10:17:28.991Z</time></trkpt><trkpt lat="40.27509058791728" lon="9.606020925824666"><ele>294.0</ele><time>2026-04-30T10:17:29.991Z</time></trkpt><trkpt lat="40.275276281918835" lon="9.60592195501717"><ele>294.0</ele><time>2026-04-30T10:17:30.991Z</time></trkpt><trkpt lat="40.27543403588317" lon="9.605882063529375"><ele>294.0</ele><time>2026-04-30T10:17:31.991Z</time></trkpt><trkpt lat="40.27556835653752" lon="9.605893571813866"><ele>294.0</ele><time>2026-04-30T10:17:32.991Z</time></trkpt><trkpt lat="40.27567823234143" lon="9.60598195936998"><ele>294.0</ele><time>2026-04-30T10:17:33.991Z</time></trkpt><trkpt lat="40.27578177365554" lon="9.606010922797578"><ele>294.0</ele><time>2026-04-30T10:17:34.991Z</time></trkpt><trkpt lat="40.27586146221041" lon="9.605983110995023"><ele>296.25</ele><time>2026-04-30T10:17:35.991Z</time></trkpt><trkpt lat="40.27591949502243" lon="9.605894814084166"><ele>298.5</ele><time>2026-04-30T10:17:36.991Z</time></trkpt><trkpt lat="40.2759356493233" lon="9.605762667177014"><ele>300.75</ele><time>2026-04-30T10:17:37.991Z</time></trkpt><trkpt lat="40.275881664178925" lon="9.60562894445457"><ele>303.0</ele><time>2026-04-30T10:17:38.991Z</time></trkpt><trkpt lat="40.27576135954057" lon="9.605498941801418"><ele>304.6666666666667</ele><time>2026-04-30T10:17:39.991Z</time></trkpt><trkpt lat="40.27557878488887" lon="9.605392359268787"><ele>306.33333333333337</ele><time>2026-04-30T10:17:40.991Z</time></trkpt><trkpt lat="40.27537134015415" lon="9.605257025725964"><ele>308.0</ele><time>2026-04-30T10:17:41.991Z</time></trkpt><trkpt lat="40.275119267677084" lon="9.6051509451527"><ele>308.0</ele><time>2026-04-30T10:17:42.991Z</time></trkpt><trkpt lat="40.27485895109276" lon="9.604972906275515"><ele>308.0</ele><time>2026-04-30T10:17:43.991Z</time></trkpt><trkpt lat="40.27462107693862" lon="9.604775192718847"><ele>307.0</ele><time>2026-04-30T10:17:44.991Z</time></trkpt><trkpt lat="40.27441264074993" lon="9.604620402611069"><ele>306.0</ele><time>2026-04-30T10:17:45.991Z</time></trkpt><trkpt lat="40.274249441197846" lon="9.604483368304187"><ele>305.0</ele><time>2026-04-30T10:17:46.991Z</time></trkpt><trkpt lat="40.274087620270436" lon="9.60440009844472"><ele>311.33333333333337</ele><time>2026-04-30T10:17:47.991Z</time></trkpt><trkpt lat="40.273905320116675" lon="9.604383346207825"><ele>317.6666666666667</ele><time>2026-04-30T10:17:48.991Z</time></trkpt><trkpt lat="40.27371131314392" lon="9.604413016673801"><ele>324.0</ele><time>2026-04-30T10:17:49.991Z</time></trkpt><trkpt lat="40.27352343273658" lon="9.604442628480315"><ele>324.0</ele><time>2026-04-30T10:17:50.991Z</time></trkpt><trkpt lat="40.27336106513856" lon="9.604444810256078"><ele>324.0</ele><time>2026-04-30T10:17:51.991Z</time></trkpt><trkpt lat="40.2732494581403" lon="9.604392972479374"><ele>324.0</ele><time>2026-04-30T10:17:52.991Z</time></trkpt><trkpt lat="40.27317115533338" lon="9.604295162601241"><ele>324.0</ele><time>2026-04-30T10:17:53.991Z</time></trkpt><trkpt lat="40.2731221598273" lon="9.604144826809572"><ele>323.5</ele><time>2026-04-30T10:17:54.991Z</time></trkpt><trkpt lat="40.27304221460205" lon="9.603935200386221"><ele>323.0</ele><time>2026-04-30T10:17:55.991Z</time></trkpt><trkpt lat="40.27296478776833" lon="9.60375529257039"><ele>322.5</ele><time>2026-04-30T10:17:56.991Z</time></trkpt><trkpt lat="40.27289013407896" lon="9.60364526122507"><ele>322.0</ele><time>2026-04-30T10:17:57.991Z</time></trkpt><trkpt lat="40.27279127982642" lon="9.603612328198745"><ele>322.0</ele><time>2026-04-30T10:17:58.991Z</time></trkpt><trkpt lat="40.27266498744864" lon="9.603659572764982"><ele>322.0</ele><time>2026-04-30T10:17:59.991Z</time></trkpt><trkpt lat="40.27252539974736" lon="9.603774483354611"><ele>322.0</ele><time>2026-04-30T10:18:00.991Z</time></trkpt><trkpt lat="40.27239719515281" lon="9.603793057856542"><ele>322.0</ele><time>2026-04-30T10:18:01.991Z</time></trkpt><trkpt lat="40.27229033528179" lon="9.603682322650972"><ele>326.25</ele><time>2026-04-30T10:18:02.99Z</time></trkpt><trkpt lat="40.27218256107683" lon="9.603526706249035"><ele>330.5</ele><time>2026-04-30T10:18:03.99Z</time></trkpt><trkpt lat="40.27205806641212" lon="9.603407471359791"><ele>334.75</ele><time>2026-04-30T10:18:04.99Z</time></trkpt><trkpt lat="40.271942936422214" lon="9.603335222645434"><ele>339.0</ele><time>2026-04-30T10:18:05.99Z</time></trkpt><trkpt lat="40.27180203254397" lon="9.60334713143667"><ele>339.0</ele><time>2026-04-30T10:18:06.99Z</time></trkpt><trkpt lat="40.271643271457386" lon="9.603430602097648"><ele>339.0</ele><time>2026-04-30T10:18:07.99Z</time></trkpt><trkpt lat="40.27148976143744" lon="9.603554122827923"><ele>339.0</ele><time>2026-04-30T10:18:08.99Z</time></trkpt><trkpt lat="40.27134191382589" lon="9.603652245427892"><ele>338.6666666666667</ele><time>2026-04-30T10:18:09.99Z</time></trkpt><trkpt lat="40.27119142049099" lon="9.603728422667814"><ele>338.33333333333337</ele><time>2026-04-30T10:18:10.99Z</time></trkpt><trkpt lat="40.27103995560444" lon="9.603820070197882"><ele>338.0</ele><time>2026-04-30T10:18:11.99Z</time></trkpt><trkpt lat="40.27089454102926" lon="9.603914793437854"><ele>338.0</ele><time>2026-04-30T10:18:12.99Z</time></trkpt><trkpt lat="40.27078345867796" lon="9.6040513965275"><ele>338.0</ele><time>2026-04-30T10:18:13.99Z</time></trkpt><trkpt lat="40.27069805857775" lon="9.604140023031707"><ele>338.0</ele><time>2026-04-30T10:18:14.99Z</time></trkpt><trkpt lat="40.27061576153386" lon="9.604170541244663"><ele>338.0</ele><time>2026-04-30T10:18:15.99Z</time></trkpt><trkpt lat="40.27053516913993" lon="9.604100725137265"><ele>338.0</ele><time>2026-04-30T10:18:16.99Z</time></trkpt><trkpt lat="40.27053797289586" lon="9.60397303350336"><ele>338.0</ele><time>2026-04-30T10:18:17.99Z</time></trkpt><trkpt lat="40.27054872400067" lon="9.6038232414425"><ele>338.0</ele><time>2026-04-30T10:18:18.99Z</time></trkpt><trkpt lat="40.270668917286386" lon="9.603742440661234"><ele>338.0</ele><time>2026-04-30T10:18:19.99Z</time></trkpt><trkpt lat="40.27080546885555" lon="9.603680321401095"><ele>338.0</ele><time>2026-04-30T10:18:20.99Z</time></trkpt><trkpt lat="40.270909209284625" lon="9.603520842891694"><ele>342.6666666666667</ele><time>2026-04-30T10:18:21.99Z</time></trkpt><trkpt lat="40.271024856620215" lon="9.603327717503548"><ele>347.3333333333333</ele><time>2026-04-30T10:18:22.99Z</time></trkpt><trkpt lat="40.27112958148525" lon="9.603081427663668"><ele>352.0</ele><time>2026-04-30T10:18:23.99Z</time></trkpt><trkpt lat="40.271254093660794" lon="9.602831460850547"><ele>352.66666666666663</ele><time>2026-04-30T10:18:24.99Z</time></trkpt><trkpt lat="40.271377444110264" lon="9.602586358089088"><ele>353.3333333333333</ele><time>2026-04-30T10:18:25.99Z</time></trkpt><trkpt lat="40.271495881157016" lon="9.602371468553546"><ele>354.0</ele><time>2026-04-30T10:18:26.99Z</time></trkpt><trkpt lat="40.271642661305926" lon="9.602206946764632"><ele>354.0</ele><time>2026-04-30T10:18:27.99Z</time></trkpt><trkpt lat="40.27181262921785" lon="9.602081234000064"><ele>354.0</ele><time>2026-04-30T10:18:28.99Z</time></trkpt><trkpt lat="40.27201218604427" lon="9.60194251302994"><ele>354.0</ele><time>2026-04-30T10:18:29.99Z</time></trkpt><trkpt lat="40.27222378487531" lon="9.601837753335676"><ele>358.3333333333333</ele><time>2026-04-30T10:18:30.99Z</time></trkpt><trkpt lat="40.272434870019794" lon="9.60176868104798"><ele>362.66666666666663</ele><time>2026-04-30T10:18:31.99Z</time></trkpt><trkpt lat="40.2726460530535" lon="9.601702061587993"><ele>367.0</ele><time>2026-04-30T10:18:32.99Z</time></trkpt><trkpt lat="40.27282234257105" lon="9.601614967846178"><ele>367.0</ele><time>2026-04-30T10:18:33.99Z</time></trkpt><trkpt lat="40.27297179127289" lon="9.601526704134084"><ele>367.0</ele><time>2026-04-30T10:18:34.99Z</time></trkpt><trkpt lat="40.27310400669552" lon="9.601391356855043"><ele>367.0</ele><time>2026-04-30T10:18:35.99Z</time></trkpt><trkpt lat="40.27321601287465" lon="9.601187533829199"><ele>370.0</ele><time>2026-04-30T10:18:36.99Z</time></trkpt><trkpt lat="40.27331661251333" lon="9.600975854378978"><ele>373.0</ele><time>2026-04-30T10:18:37.99Z</time></trkpt><trkpt lat="40.27339736638157" lon="9.600800461134169"><ele>376.0</ele><time>2026-04-30T10:18:38.99Z</time></trkpt><trkpt lat="40.273442497558456" lon="9.600626076929885"><ele>376.0</ele><time>2026-04-30T10:18:39.99Z</time></trkpt><trkpt lat="40.27345180404806" lon="9.60043506726825"><ele>376.0</ele><time>2026-04-30T10:18:40.99Z</time></trkpt><trkpt lat="40.27341419455645" lon="9.600190366291839"><ele>376.0</ele><time>2026-04-30T10:18:41.99Z</time></trkpt><trkpt lat="40.27340073121932" lon="9.599928370889993"><ele>379.3333333333333</ele><time>2026-04-30T10:18:42.99Z</time></trkpt><trkpt lat="40.27339331102498" lon="9.59968891622009"><ele>382.66666666666663</ele><time>2026-04-30T10:18:43.99Z</time></trkpt><trkpt lat="40.2734507930292" lon="9.599491049539173"><ele>386.0</ele><time>2026-04-30T10:18:44.99Z</time></trkpt><trkpt lat="40.27349859288756" lon="9.599329380022684"><ele>389.20000000000005</ele><time>2026-04-30T10:18:45.99Z</time></trkpt><trkpt lat="40.273572760800235" lon="9.599238237608459"><ele>392.40000000000003</ele><time>2026-04-30T10:18:46.99Z</time></trkpt><trkpt lat="40.27366768425243" lon="9.599220033888194"><ele>395.6</ele><time>2026-04-30T10:18:47.99Z</time></trkpt><trkpt lat="40.27374703459931" lon="9.599258478501714"><ele>398.8</ele><time>2026-04-30T10:18:48.99Z</time></trkpt><trkpt lat="40.27383701002416" lon="9.599340592971433"><ele>402.0</ele><time>2026-04-30T10:18:49.99Z</time></trkpt><trkpt lat="40.273990032882296" lon="9.599455146678686"><ele>396.0</ele><time>2026-04-30T10:18:50.99Z</time></trkpt><trkpt lat="40.27417646939216" lon="9.599501998838301"><ele>390.0</ele><time>2026-04-30T10:18:51.99Z</time></trkpt><trkpt lat="40.27437912335138" lon="9.599523959372174"><ele>384.0</ele><time>2026-04-30T10:18:52.99Z</time></trkpt><trkpt lat="40.274592760938425" lon="9.599529951394981"><ele>389.0</ele><time>2026-04-30T10:18:53.99Z</time></trkpt><trkpt lat="40.27479704216311" lon="9.599573625103515"><ele>394.0</ele><time>2026-04-30T10:18:54.99Z</time></trkpt><trkpt lat="40.27497032896126" lon="9.599657213743173"><ele>399.0</ele><time>2026-04-30T10:18:55.99Z</time></trkpt><trkpt lat="40.27512045182434" lon="9.599731168423462"><ele>399.0</ele><time>2026-04-30T10:18:56.99Z</time></trkpt><trkpt lat="40.27523912440714" lon="9.599775766528447"><ele>399.0</ele><time>2026-04-30T10:18:57.99Z</time></trkpt><trkpt lat="40.27534112650795" lon="9.599742198716324"><ele>399.0</ele><time>2026-04-30T10:18:58.99Z</time></trkpt><trkpt lat="40.275421822430786" lon="9.599691823535066"><ele>399.0</ele><time>2026-04-30T10:18:59.99Z</time></trkpt><trkpt lat="40.27547165240848" lon="9.5995884604583"><ele>399.0</ele><time>2026-04-30T10:19:00.99Z</time></trkpt><trkpt lat="40.27541064335634" lon="9.599410136040522"><ele>402.33333333333337</ele><time>2026-04-30T10:19:01.99Z</time></trkpt><trkpt lat="40.2752984142302" lon="9.599271555111292"><ele>405.6666666666667</ele><time>2026-04-30T10:19:02.99Z</time></trkpt><trkpt lat="40.275143430274106" lon="9.59916903129291"><ele>409.0</ele><time>2026-04-30T10:19:03.99Z</time></trkpt><trkpt lat="40.2749764037988" lon="9.599081410578679"><ele>409.0</ele><time>2026-04-30T10:19:04.99Z</time></trkpt><trkpt lat="40.27482702604191" lon="9.598992259525787"><ele>409.0</ele><time>2026-04-30T10:19:05.99Z</time></trkpt><trkpt lat="40.27466807327554" lon="9.59896742926883"><ele>409.0</ele><time>2026-04-30T10:19:06.99Z</time></trkpt><trkpt lat="40.274479061824216" lon="9.598979168750633"><ele>407.33333333333337</ele><time>2026-04-30T10:19:07.99Z</time></trkpt><trkpt lat="40.27430803203383" lon="9.598965069392143"><ele>405.66666666666663</ele><time>2026-04-30T10:19:08.99Z</time></trkpt><trkpt lat="40.27415778493642" lon="9.598930521872129"><ele>404.0</ele><time>2026-04-30T10:19:09.99Z</time></trkpt><trkpt lat="40.274036047254945" lon="9.598874161220126"><ele>404.0</ele><time>2026-04-30T10:19:10.99Z</time></trkpt><trkpt lat="40.27395035029252" lon="9.598764578926511"><ele>404.0</ele><time>2026-04-30T10:19:11.99Z</time></trkpt><trkpt lat="40.273891401699736" lon="9.598590169019399"><ele>404.0</ele><time>2026-04-30T10:19:12.99Z</time></trkpt><trkpt lat="40.27377955629561" lon="9.598455749624542"><ele>404.0</ele><time>2026-04-30T10:19:13.99Z</time></trkpt><trkpt lat="40.27364475708155" lon="9.598338958840293"><ele>411.0</ele><time>2026-04-30T10:19:14.99Z</time></trkpt><trkpt lat="40.27347544844602" lon="9.598254913391541"><ele>418.0</ele><time>2026-04-30T10:19:15.99Z</time></trkpt><trkpt lat="40.273290068332884" lon="9.598206292381409"><ele>425.0</ele><time>2026-04-30T10:19:16.99Z</time></trkpt><trkpt lat="40.273134278202114" lon="9.59816820496907"><ele>424.5</ele><time>2026-04-30T10:19:17.99Z</time></trkpt><trkpt lat="40.273018218838764" lon="9.598189928578584"><ele>424.0</ele><time>2026-04-30T10:19:18.99Z</time></trkpt><trkpt lat="40.2729225839095" lon="9.598275232858212"><ele>423.5</ele><time>2026-04-30T10:19:19.99Z</time></trkpt><trkpt lat="40.272846288030976" lon="9.598448307628788"><ele>423.0</ele><time>2026-04-30T10:19:20.99Z</time></trkpt><trkpt lat="40.2727858918882" lon="9.59868246216463"><ele>423.0</ele><time>2026-04-30T10:19:21.99Z</time></trkpt><trkpt lat="40.27268608919573" lon="9.598899207892698"><ele>423.0</ele><time>2026-04-30T10:19:22.99Z</time></trkpt><trkpt lat="40.27260666964801" lon="9.599074824948428"><ele>423.0</ele><time>2026-04-30T10:19:23.99Z</time></trkpt><trkpt lat="40.27255203503863" lon="9.59917040065701"><ele>423.0</ele><time>2026-04-30T10:19:24.99Z</time></trkpt><trkpt lat="40.27248197142451" lon="9.59920611670987"><ele>423.0</ele><time>2026-04-30T10:19:25.99Z</time></trkpt><trkpt lat="40.27240801209443" lon="9.599165959140894"><ele>423.0</ele><time>2026-04-30T10:19:26.99Z</time></trkpt><trkpt lat="40.2723683863567" lon="9.599028374336276"><ele>423.0</ele><time>2026-04-30T10:19:27.99Z</time></trkpt><trkpt lat="40.27238989156212" lon="9.598854569466157"><ele>423.0</ele><time>2026-04-30T10:19:28.989Z</time></trkpt><trkpt lat="40.27250281792499" lon="9.59870144710315"><ele>429.0</ele><time>2026-04-30T10:19:29.989Z</time></trkpt><trkpt lat="40.272594950717526" lon="9.598480542078889"><ele>435.0</ele><time>2026-04-30T10:19:30.989Z</time></trkpt><trkpt lat="40.27270279441972" lon="9.598250560414066"><ele>441.0</ele><time>2026-04-30T10:19:31.989Z</time></trkpt><trkpt lat="40.27279532185905" lon="9.59806034534444"><ele>441.0</ele><time>2026-04-30T10:19:32.989Z</time></trkpt><trkpt lat="40.27291033741122" lon="9.59794666433833"><ele>441.0</ele><time>2026-04-30T10:19:33.989Z</time></trkpt><trkpt lat="40.27303902093122" lon="9.59790411609007"><ele>441.0</ele><time>2026-04-30T10:19:34.989Z</time></trkpt><trkpt lat="40.2732009999539" lon="9.597888895178585"><ele>441.0</ele><time>2026-04-30T10:19:35.989Z</time></trkpt><trkpt lat="40.27341131309664" lon="9.597895288486749"><ele>435.5</ele><time>2026-04-30T10:19:36.989Z</time></trkpt><trkpt lat="40.27367493544189" lon="9.597886098082245"><ele>430.0</ele><time>2026-04-30T10:19:37.989Z</time></trkpt><trkpt lat="40.27394290793056" lon="9.597899513830633"><ele>430.0</ele><time>2026-04-30T10:19:38.989Z</time></trkpt><trkpt lat="40.27417545028584" lon="9.597929419920911"><ele>430.0</ele><time>2026-04-30T10:19:39.989Z</time></trkpt><trkpt lat="40.27437455983528" lon="9.597928756962343"><ele>430.0</ele><time>2026-04-30T10:19:40.989Z</time></trkpt><trkpt lat="40.27454706625658" lon="9.597908557958144"><ele>430.0</ele><time>2026-04-30T10:19:41.989Z</time></trkpt><trkpt lat="40.27468409893439" lon="9.597845500225883"><ele>430.0</ele><time>2026-04-30T10:19:42.989Z</time></trkpt><trkpt lat="40.274804622483536" lon="9.597722819773363"><ele>430.0</ele><time>2026-04-30T10:19:43.989Z</time></trkpt><trkpt lat="40.27489532315795" lon="9.597552735851735"><ele>438.6666666666667</ele><time>2026-04-30T10:19:44.989Z</time></trkpt><trkpt lat="40.27495952019211" lon="9.597350384125575"><ele>447.33333333333337</ele><time>2026-04-30T10:19:45.989Z</time></trkpt><trkpt lat="40.27499098452382" lon="9.597099500692588"><ele>456.0</ele><time>2026-04-30T10:19:46.989Z</time></trkpt><trkpt lat="40.27502874870283" lon="9.59683745938681"><ele>464.66666666666663</ele><time>2026-04-30T10:19:47.989Z</time></trkpt><trkpt lat="40.27507072929342" lon="9.596569839791142"><ele>473.3333333333333</ele><time>2026-04-30T10:19:48.989Z</time></trkpt><trkpt lat="40.27510276322566" lon="9.596318394066431"><ele>482.0</ele><time>2026-04-30T10:19:49.989Z</time></trkpt><trkpt lat="40.27515042111712" lon="9.596057283586314"><ele>497.5</ele><time>2026-04-30T10:19:50.989Z</time></trkpt><trkpt lat="40.275180262081484" lon="9.595752820096864"><ele>513.0</ele><time>2026-04-30T10:19:51.989Z</time></trkpt><trkpt lat="40.27522451052267" lon="9.595435873444806"><ele>530.5</ele><time>2026-04-30T10:19:52.989Z</time></trkpt><trkpt lat="40.27526571981789" lon="9.595140326622323"><ele>548.0</ele><time>2026-04-30T10:19:53.989Z</time></trkpt><trkpt lat="40.275305512986414" lon="9.594838653841219"><ele>476.0</ele><time>2026-04-30T10:19:55.145Z</time></trkpt><trkpt lat="40.275546430216444" lon="9.592690021288782"><ele>474.66666666666663</ele><time>2026-04-30T10:19:58.826Z</time></trkpt><trkpt lat="40.27561188411656" lon="9.59233127182605"><ele>473.33333333333337</ele><time>2026-04-30T10:20:05.989Z</time></trkpt><trkpt lat="40.27565647762055" lon="9.592164288920774"><ele>472.0</ele><time>2026-04-30T10:20:06.989Z</time></trkpt><trkpt lat="40.27561614728595" lon="9.592325342317652"><ele>472.0</ele><time>2026-04-30T10:20:09.989Z</time></trkpt><trkpt lat="40.27563836103911" lon="9.592225792833084"><ele>472.0</ele><time>2026-04-30T10:20:16.989Z</time></trkpt><trkpt lat="40.27553564698107" lon="9.592213636849392"><ele>472.0</ele><time>2026-04-30T10:20:18.989Z</time></trkpt><trkpt lat="40.27537500021349" lon="9.592195791742324"><ele>472.0</ele><time>2026-04-30T10:20:19.989Z</time></trkpt><trkpt lat="40.2752349656553" lon="9.592186226033112"><ele>473.33333333333337</ele><time>2026-04-30T10:20:20.989Z</time></trkpt><trkpt lat="40.27506741399783" lon="9.592161220028737"><ele>474.66666666666663</ele><time>2026-04-30T10:20:21.989Z</time></trkpt><trkpt lat="40.27489792634937" lon="9.592099949727249"><ele>476.0</ele><time>2026-04-30T10:20:22.989Z</time></trkpt><trkpt lat="40.27472937385532" lon="9.59198828753338"><ele>473.3333333333333</ele><time>2026-04-30T10:20:23.989Z</time></trkpt><trkpt lat="40.2745547488119" lon="9.591847787905586"><ele>470.66666666666663</ele><time>2026-04-30T10:20:24.989Z</time></trkpt><trkpt lat="40.27437449687322" lon="9.591683257174653"><ele>468.0</ele><time>2026-04-30T10:20:25.989Z</time></trkpt><trkpt lat="40.27418747494857" lon="9.591509293727624"><ele>468.0</ele><time>2026-04-30T10:20:26.989Z</time></trkpt><trkpt lat="40.27401825800106" lon="9.591298377226048"><ele>468.0</ele><time>2026-04-30T10:20:27.989Z</time></trkpt><trkpt lat="40.27385874122682" lon="9.591072557202537"><ele>470.5</ele><time>2026-04-30T10:20:28.989Z</time></trkpt><trkpt lat="40.273694510375655" lon="9.590840725609985"><ele>473.0</ele><time>2026-04-30T10:20:29.989Z</time></trkpt><trkpt lat="40.273535913002" lon="9.590615896597955"><ele>473.0</ele><time>2026-04-30T10:20:30.989Z</time></trkpt><trkpt lat="40.273382492903906" lon="9.590392333763083"><ele>473.0</ele><time>2026-04-30T10:20:31.989Z</time></trkpt><trkpt lat="40.273282604241366" lon="9.590202880614443"><ele>473.0</ele><time>2026-04-30T10:20:32.989Z</time></trkpt><trkpt lat="40.27323476283379" lon="9.589994816419699"><ele>467.66666666666663</ele><time>2026-04-30T10:20:33.989Z</time></trkpt><trkpt lat="40.27320043870192" lon="9.58976927275606"><ele>462.33333333333337</ele><time>2026-04-30T10:20:34.989Z</time></trkpt><trkpt lat="40.273162246578586" lon="9.589512347004646"><ele>457.0</ele><time>2026-04-30T10:20:35.989Z</time></trkpt><trkpt lat="40.27311554690539" lon="9.589292293190786"><ele>463.5</ele><time>2026-04-30T10:20:36.989Z</time></trkpt><trkpt lat="40.27306699270954" lon="9.589095661540926"><ele>470.0</ele><time>2026-04-30T10:20:37.989Z</time></trkpt><trkpt lat="40.273004327843175" lon="9.588919153839953"><ele>476.5</ele><time>2026-04-30T10:20:38.989Z</time></trkpt><trkpt lat="40.27290775558369" lon="9.588784222708288"><ele>483.0</ele><time>2026-04-30T10:20:39.989Z</time></trkpt><trkpt lat="40.27278942103444" lon="9.588676293816544"><ele>477.75</ele><time>2026-04-30T10:20:40.989Z</time></trkpt><trkpt lat="40.272638419738875" lon="9.588605907636154"><ele>472.5</ele><time>2026-04-30T10:20:41.989Z</time></trkpt><trkpt lat="40.27253032653618" lon="9.58848520847198"><ele>467.25</ele><time>2026-04-30T10:20:42.989Z</time></trkpt><trkpt lat="40.272465091586504" lon="9.588334245126573"><ele>462.0</ele><time>2026-04-30T10:20:43.989Z</time></trkpt><trkpt lat="40.27244994674137" lon="9.588165507479934"><ele>462.0</ele><time>2026-04-30T10:20:44.989Z</time></trkpt><trkpt lat="40.272452252296404" lon="9.587985704511453"><ele>462.0</ele><time>2026-04-30T10:20:45.989Z</time></trkpt><trkpt lat="40.27239271174845" lon="9.587820425753549"><ele>462.0</ele><time>2026-04-30T10:20:46.989Z</time></trkpt><trkpt lat="40.27229291731665" lon="9.587689762799972"><ele>462.0</ele><time>2026-04-30T10:20:47.989Z</time></trkpt><trkpt lat="40.272154713384666" lon="9.587571618764159"><ele>464.66666666666663</ele><time>2026-04-30T10:20:48.989Z</time></trkpt><trkpt lat="40.271989897800374" lon="9.58746950597821"><ele>467.3333333333333</ele><time>2026-04-30T10:20:49.989Z</time></trkpt><trkpt lat="40.27180933550328" lon="9.587387911407461"><ele>470.0</ele><time>2026-04-30T10:20:50.989Z</time></trkpt><trkpt lat="40.2716452474546" lon="9.58730600722626"><ele>470.0</ele><time>2026-04-30T10:20:51.989Z</time></trkpt><trkpt lat="40.27155143450012" lon="9.587178638127813"><ele>470.0</ele><time>2026-04-30T10:20:52.989Z</time></trkpt><trkpt lat="40.27148657356742" lon="9.58703470546264"><ele>470.0</ele><time>2026-04-30T10:20:53.989Z</time></trkpt><trkpt lat="40.27140505228486" lon="9.58686371094683"><ele>470.0</ele><time>2026-04-30T10:20:54.989Z</time></trkpt><trkpt lat="40.27131312382002" lon="9.58665043642919"><ele>471.3333333333333</ele><time>2026-04-30T10:20:55.989Z</time></trkpt><trkpt lat="40.27124863997811" lon="9.586419720297412"><ele>472.66666666666663</ele><time>2026-04-30T10:20:56.989Z</time></trkpt><trkpt lat="40.27120490547509" lon="9.58617283841618"><ele>474.0</ele><time>2026-04-30T10:20:57.989Z</time></trkpt><trkpt lat="40.27116054977485" lon="9.585943712485932"><ele>474.0</ele><time>2026-04-30T10:20:58.989Z</time></trkpt><trkpt lat="40.271089191238595" lon="9.585739437469378"><ele>474.0</ele><time>2026-04-30T10:20:59.989Z</time></trkpt><trkpt lat="40.2709757031506" lon="9.585561885137174"><ele>474.0</ele><time>2026-04-30T10:21:00.988Z</time></trkpt><trkpt lat="40.27085922069551" lon="9.585390990200201"><ele>478.5</ele><time>2026-04-30T10:21:01.988Z</time></trkpt><trkpt lat="40.270802186647884" lon="9.585196730787658"><ele>483.0</ele><time>2026-04-30T10:21:02.988Z</time></trkpt><trkpt lat="40.270754591160696" lon="9.58501369045446"><ele>487.5</ele><time>2026-04-30T10:21:03.988Z</time></trkpt><trkpt lat="40.27069195605946" lon="9.584856881437844"><ele>492.0</ele><time>2026-04-30T10:21:04.988Z</time></trkpt><trkpt lat="40.27057659828022" lon="9.584757875794331"><ele>492.0</ele><time>2026-04-30T10:21:05.988Z</time></trkpt><trkpt lat="40.2704277772194" lon="9.584663648944266"><ele>492.0</ele><time>2026-04-30T10:21:06.988Z</time></trkpt><trkpt lat="40.2702734763593" lon="9.584531164925835"><ele>492.0</ele><time>2026-04-30T10:21:07.988Z</time></trkpt><trkpt lat="40.270118905239066" lon="9.584344373255433"><ele>483.0</ele><time>2026-04-30T10:21:08.988Z</time></trkpt><trkpt lat="40.269963046857036" lon="9.584154217270864"><ele>474.0</ele><time>2026-04-30T10:21:09.988Z</time></trkpt><trkpt lat="40.269858645159" lon="9.583970470282916"><ele>465.0</ele><time>2026-04-30T10:21:10.988Z</time></trkpt><trkpt lat="40.26977870346161" lon="9.58379722130504"><ele>464.75</ele><time>2026-04-30T10:21:11.988Z</time></trkpt><trkpt lat="40.2696779956634" lon="9.583675741510902"><ele>464.5</ele><time>2026-04-30T10:21:12.988Z</time></trkpt><trkpt lat="40.26955621864408" lon="9.583577335550045"><ele>464.25</ele><time>2026-04-30T10:21:13.988Z</time></trkpt><trkpt lat="40.26939261087651" lon="9.583522222765245"><ele>464.0</ele><time>2026-04-30T10:21:14.988Z</time></trkpt><trkpt lat="40.269236500359995" lon="9.583467327454203"><ele>464.0</ele><time>2026-04-30T10:21:15.988Z</time></trkpt><trkpt lat="40.269121443950624" lon="9.583365646175741"><ele>464.0</ele><time>2026-04-30T10:21:16.988Z</time></trkpt><trkpt lat="40.269057945272515" lon="9.583212036685275"><ele>464.0</ele><time>2026-04-30T10:21:17.988Z</time></trkpt><trkpt lat="40.26898978914613" lon="9.583071609829442"><ele>464.0</ele><time>2026-04-30T10:21:18.988Z</time></trkpt><trkpt lat="40.26887646621504" lon="9.58298471462566"><ele>471.3333333333333</ele><time>2026-04-30T10:21:19.988Z</time></trkpt><trkpt lat="40.26872787816616" lon="9.58295554018273"><ele>478.66666666666663</ele><time>2026-04-30T10:21:20.988Z</time></trkpt><trkpt lat="40.268558242439234" lon="9.582995969120768"><ele>486.0</ele><time>2026-04-30T10:21:21.988Z</time></trkpt><trkpt lat="40.26842798455868" lon="9.582942749898516"><ele>485.0</ele><time>2026-04-30T10:21:22.988Z</time></trkpt><trkpt lat="40.268366937766885" lon="9.582809067863142"><ele>484.0</ele><time>2026-04-30T10:21:23.988Z</time></trkpt><trkpt lat="40.26822672541639" lon="9.58264426009488"><ele>483.0</ele><time>2026-04-30T10:21:24.988Z</time></trkpt><trkpt lat="40.26801924338866" lon="9.582480060765574"><ele>483.0</ele><time>2026-04-30T10:21:25.988Z</time></trkpt><trkpt lat="40.26780294202489" lon="9.582294081748033"><ele>483.0</ele><time>2026-04-30T10:21:26.988Z</time></trkpt><trkpt lat="40.26758924965168" lon="9.582091399522685"><ele>484.0</ele><time>2026-04-30T10:21:27.988Z</time></trkpt><trkpt lat="40.26736458146982" lon="9.5819195393809"><ele>485.0</ele><time>2026-04-30T10:21:28.988Z</time></trkpt><trkpt lat="40.26716466043722" lon="9.581739618244024"><ele>485.0</ele><time>2026-04-30T10:21:29.988Z</time></trkpt><trkpt lat="40.266987375214676" lon="9.581577510882791"><ele>485.0</ele><time>2026-04-30T10:21:30.988Z</time></trkpt><trkpt lat="40.26686437737776" lon="9.581378307750025"><ele>485.0</ele><time>2026-04-30T10:21:31.988Z</time></trkpt><trkpt lat="40.266744839603334" lon="9.581185887388221"><ele>483.0</ele><time>2026-04-30T10:21:32.988Z</time></trkpt><trkpt lat="40.26661294920464" lon="9.581040579031965"><ele>481.0</ele><time>2026-04-30T10:21:33.988Z</time></trkpt><trkpt lat="40.26646363286696" lon="9.580920109848583"><ele>479.0</ele><time>2026-04-30T10:21:34.988Z</time></trkpt><trkpt lat="40.266275603863896" lon="9.580847426859883"><ele>479.0</ele><time>2026-04-30T10:21:35.988Z</time></trkpt><trkpt lat="40.266087509967875" lon="9.58077623917332"><ele>479.0</ele><time>2026-04-30T10:21:36.988Z</time></trkpt><trkpt lat="40.265935097534154" lon="9.580677123924833"><ele>479.0</ele><time>2026-04-30T10:21:37.988Z</time></trkpt><trkpt lat="40.26582752950686" lon="9.580491440919232"><ele>478.0</ele><time>2026-04-30T10:21:38.988Z</time></trkpt><trkpt lat="40.265688815622646" lon="9.580292656807769"><ele>477.0</ele><time>2026-04-30T10:21:39.988Z</time></trkpt><trkpt lat="40.265528364461595" lon="9.580087455496265"><ele>476.0</ele><time>2026-04-30T10:21:40.988Z</time></trkpt><trkpt lat="40.26540653044547" lon="9.579899169361765"><ele>476.0</ele><time>2026-04-30T10:21:41.988Z</time></trkpt><trkpt lat="40.26529995283441" lon="9.579762073994283"><ele>476.0</ele><time>2026-04-30T10:21:42.988Z</time></trkpt><trkpt lat="40.265201789920305" lon="9.579698196731314"><ele>476.0</ele><time>2026-04-30T10:21:43.988Z</time></trkpt><trkpt lat="40.265086448750914" lon="9.579694271198434"><ele>476.0</ele><time>2026-04-30T10:21:44.988Z</time></trkpt><trkpt lat="40.2649330342731" lon="9.579752531445381"><ele>477.0</ele><time>2026-04-30T10:21:45.988Z</time></trkpt><trkpt lat="40.26475902732408" lon="9.579865472402904"><ele>478.0</ele><time>2026-04-30T10:21:46.988Z</time></trkpt><trkpt lat="40.26459253271674" lon="9.57994225401672"><ele>479.0</ele><time>2026-04-30T10:21:47.988Z</time></trkpt><trkpt lat="40.26444426379048" lon="9.57990163160064"><ele>479.0</ele><time>2026-04-30T10:21:48.988Z</time></trkpt><trkpt lat="40.26428622772124" lon="9.579836495618482"><ele>479.0</ele><time>2026-04-30T10:21:49.988Z</time></trkpt><trkpt lat="40.264101329587746" lon="9.579776713150157"><ele>479.0</ele><time>2026-04-30T10:21:50.988Z</time></trkpt><trkpt lat="40.2639210715873" lon="9.579698986468443"><ele>481.66666666666663</ele><time>2026-04-30T10:21:51.988Z</time></trkpt><trkpt lat="40.26375203445904" lon="9.579676441443004"><ele>484.33333333333337</ele><time>2026-04-30T10:21:53.001Z</time></trkpt><trkpt lat="40.26358306419629" lon="9.57971215898858"><ele>487.0</ele><time>2026-04-30T10:21:54.001Z</time></trkpt><trkpt lat="40.26340829968075" lon="9.57976888795065"><ele>487.0</ele><time>2026-04-30T10:21:55.001Z</time></trkpt><trkpt lat="40.26322110968085" lon="9.579729546382689"><ele>487.0</ele><time>2026-04-30T10:21:56.001Z</time></trkpt><trkpt lat="40.263004250709514" lon="9.579714217095354"><ele>487.0</ele><time>2026-04-30T10:21:57.001Z</time></trkpt><trkpt lat="40.26280598032028" lon="9.579726994695205"><ele>489.33333333333337</ele><time>2026-04-30T10:21:58.001Z</time></trkpt><trkpt lat="40.262617649102175" lon="9.579695018600242"><ele>491.66666666666663</ele><time>2026-04-30T10:21:59.001Z</time></trkpt><trkpt lat="40.26243738008974" lon="9.579588319564587"><ele>494.0</ele><time>2026-04-30T10:22:00.001Z</time></trkpt><trkpt lat="40.262224879317706" lon="9.579488032754696"><ele>486.66666666666663</ele><time>2026-04-30T10:22:01.001Z</time></trkpt><trkpt lat="40.262042567797955" lon="9.579348063291498"><ele>479.33333333333337</ele><time>2026-04-30T10:22:02.001Z</time></trkpt><trkpt lat="40.2618862914876" lon="9.579220741304026"><ele>472.0</ele><time>2026-04-30T10:22:03.001Z</time></trkpt><trkpt lat="40.26173084812925" lon="9.579140935689319"><ele>472.0</ele><time>2026-04-30T10:22:04.001Z</time></trkpt><trkpt lat="40.26155737240943" lon="9.579136487064856"><ele>472.0</ele><time>2026-04-30T10:22:05.001Z</time></trkpt><trkpt lat="40.2613536851178" lon="9.579157931549888"><ele>472.0</ele><time>2026-04-30T10:22:06.001Z</time></trkpt><trkpt lat="40.261167809593005" lon="9.579097054566567"><ele>480.0</ele><time>2026-04-30T10:22:07.001Z</time></trkpt><trkpt lat="40.26097807272247" lon="9.578965155909609"><ele>488.0</ele><time>2026-04-30T10:22:08.001Z</time></trkpt><trkpt lat="40.260739695589116" lon="9.578861908283798"><ele>495.5</ele><time>2026-04-30T10:22:09.001Z</time></trkpt><trkpt lat="40.260494792501184" lon="9.57875918517343"><ele>503.0</ele><time>2026-04-30T10:22:10.001Z</time></trkpt><trkpt lat="40.26024371130552" lon="9.578659562170412"><ele>493.0</ele><time>2026-04-30T10:22:11.001Z</time></trkpt><trkpt lat="40.2600396015198" lon="9.578583242604486"><ele>483.0</ele><time>2026-04-30T10:22:12.001Z</time></trkpt><trkpt lat="40.25988709415539" lon="9.578506551435105"><ele>473.0</ele><time>2026-04-30T10:22:13.001Z</time></trkpt><trkpt lat="40.25979790925025" lon="9.578379619669077"><ele>472.0</ele><time>2026-04-30T10:22:14.001Z</time></trkpt><trkpt lat="40.25973718072338" lon="9.57824114939402"><ele>471.0</ele><time>2026-04-30T10:22:15.001Z</time></trkpt><trkpt lat="40.259722917083835" lon="9.57805501098111"><ele>470.0</ele><time>2026-04-30T10:22:16.001Z</time></trkpt><trkpt lat="40.259645082439945" lon="9.577914604474831"><ele>469.0</ele><time>2026-04-30T10:22:17.001Z</time></trkpt><trkpt lat="40.25955324207191" lon="9.577803070772866"><ele>469.0</ele><time>2026-04-30T10:22:18.001Z</time></trkpt><trkpt lat="40.25942785741384" lon="9.577723324504017"><ele>469.0</ele><time>2026-04-30T10:22:19.001Z</time></trkpt><trkpt lat="40.25930160061666" lon="9.577681495941857"><ele>469.0</ele><time>2026-04-30T10:22:20.001Z</time></trkpt><trkpt lat="40.25915780159557" lon="9.577702551692651"><ele>469.0</ele><time>2026-04-30T10:22:21.001Z</time></trkpt><trkpt lat="40.259008796292875" lon="9.577740020750495"><ele>472.33333333333337</ele><time>2026-04-30T10:22:22.001Z</time></trkpt><trkpt lat="40.25886486736186" lon="9.577737122132659"><ele>475.66666666666663</ele><time>2026-04-30T10:22:23.001Z</time></trkpt><trkpt lat="40.25871660712917" lon="9.577649443300857"><ele>479.0</ele><time>2026-04-30T10:22:24.001Z</time></trkpt><trkpt lat="40.25854562266739" lon="9.577568430273011"><ele>479.0</ele><time>2026-04-30T10:22:25.001Z</time></trkpt><trkpt lat="40.25834134961623" lon="9.577548929403921"><ele>479.0</ele><time>2026-04-30T10:22:26.001Z</time></trkpt><trkpt lat="40.25810711561776" lon="9.577518023286837"><ele>479.0</ele><time>2026-04-30T10:22:27.001Z</time></trkpt><trkpt lat="40.2578404710716" lon="9.577480313165477"><ele>489.0</ele><time>2026-04-30T10:22:28.001Z</time></trkpt><trkpt lat="40.25758793819294" lon="9.577422625722493"><ele>499.0</ele><time>2026-04-30T10:22:29.001Z</time></trkpt><trkpt lat="40.257377039374646" lon="9.577346686581226"><ele>504.33333333333337</ele><time>2026-04-30T10:22:30.001Z</time></trkpt><trkpt lat="40.257185020978525" lon="9.577254176173717"><ele>509.66666666666663</ele><time>2026-04-30T10:22:31.001Z</time></trkpt><trkpt lat="40.25698755207899" lon="9.57720404836783"><ele>515.0</ele><time>2026-04-30T10:22:32.001Z</time></trkpt><trkpt lat="40.25677908562258" lon="9.577194996277345"><ele>515.0</ele><time>2026-04-30T10:22:33.001Z</time></trkpt><trkpt lat="40.25656974359921" lon="9.57721288948031"><ele>515.0</ele><time>2026-04-30T10:22:34.001Z</time></trkpt><trkpt lat="40.25636824539295" lon="9.577201713185298"><ele>515.0</ele><time>2026-04-30T10:22:35.001Z</time></trkpt><trkpt lat="40.256187439468185" lon="9.577148903218369"><ele>517.6666666666666</ele><time>2026-04-30T10:22:36.001Z</time></trkpt><trkpt lat="40.25601611740697" lon="9.57702151168431"><ele>520.3333333333334</ele><time>2026-04-30T10:22:37.001Z</time></trkpt><trkpt lat="40.255820225358455" lon="9.57697318212571"><ele>523.0</ele><time>2026-04-30T10:22:38.001Z</time></trkpt><trkpt lat="40.25561737722413" lon="9.576919100080923"><ele>523.0</ele><time>2026-04-30T10:22:39.002Z</time></trkpt><trkpt lat="40.25543034728681" lon="9.576859768606901"><ele>523.0</ele><time>2026-04-30T10:22:40.003Z</time></trkpt><trkpt lat="40.255307851408816" lon="9.576732866585143"><ele>523.0</ele><time>2026-04-30T10:22:41.003Z</time></trkpt><trkpt lat="40.255213327449916" lon="9.576584815208447"><ele>523.0</ele><time>2026-04-30T10:22:42.003Z</time></trkpt><trkpt lat="40.25509015401261" lon="9.576389584154237"><ele>523.0</ele><time>2026-04-30T10:22:43.002Z</time></trkpt><trkpt lat="40.25492473540868" lon="9.576212149343183"><ele>523.0</ele><time>2026-04-30T10:22:44.002Z</time></trkpt><trkpt lat="40.25476079542135" lon="9.576045551058268"><ele>525.0</ele><time>2026-04-30T10:22:45.003Z</time></trkpt><trkpt lat="40.254602473952716" lon="9.575894517242295"><ele>527.0</ele><time>2026-04-30T10:22:46.003Z</time></trkpt><trkpt lat="40.25449549035209" lon="9.575722196628668"><ele>529.0</ele><time>2026-04-30T10:22:47.003Z</time></trkpt><trkpt lat="40.25446247513314" lon="9.575553474671661"><ele>529.0</ele><time>2026-04-30T10:22:48.002Z</time></trkpt><trkpt lat="40.25441469063905" lon="9.575369210536932"><ele>529.0</ele><time>2026-04-30T10:22:49.002Z</time></trkpt><trkpt lat="40.25434939237349" lon="9.575237312558864"><ele>529.0</ele><time>2026-04-30T10:22:50.002Z</time></trkpt><trkpt lat="40.254272364198386" lon="9.575126692200337"><ele>529.0</ele><time>2026-04-30T10:22:51.003Z</time></trkpt><trkpt lat="40.25414908767156" lon="9.575066366329661"><ele>528.0</ele><time>2026-04-30T10:22:52.003Z</time></trkpt><trkpt lat="40.25396848897367" lon="9.575056474478227"><ele>527.0</ele><time>2026-04-30T10:22:53.003Z</time></trkpt><trkpt lat="40.25373237680627" lon="9.575063113113101"><ele>526.0</ele><time>2026-04-30T10:22:54.003Z</time></trkpt><trkpt lat="40.25350768277336" lon="9.575043441211818"><ele>526.0</ele><time>2026-04-30T10:22:55.003Z</time></trkpt><trkpt lat="40.25329276965224" lon="9.574958777393183"><ele>526.0</ele><time>2026-04-30T10:22:56.003Z</time></trkpt><trkpt lat="40.253072119431174" lon="9.574852778787209"><ele>535.0</ele><time>2026-04-30T10:22:57.003Z</time></trkpt><trkpt lat="40.25284691740256" lon="9.574743611103697"><ele>544.0</ele><time>2026-04-30T10:22:58.003Z</time></trkpt><trkpt lat="40.25262800780633" lon="9.574627571463434"><ele>540.3333333333334</ele><time>2026-04-30T10:22:59.003Z</time></trkpt><trkpt lat="40.25242726767691" lon="9.574493684049838"><ele>536.6666666666666</ele><time>2026-04-30T10:23:00.003Z</time></trkpt><trkpt lat="40.252233706192285" lon="9.574377857128383"><ele>533.0</ele><time>2026-04-30T10:23:01.003Z</time></trkpt><trkpt lat="40.25204547804486" lon="9.574325125241222"><ele>533.0</ele><time>2026-04-30T10:23:02.003Z</time></trkpt><trkpt lat="40.25187264775975" lon="9.574260056155081"><ele>533.0</ele><time>2026-04-30T10:23:03.003Z</time></trkpt><trkpt lat="40.25173686390752" lon="9.574131583980364"><ele>533.0</ele><time>2026-04-30T10:23:04.003Z</time></trkpt><trkpt lat="40.25158370736409" lon="9.57400645045523"><ele>539.6666666666666</ele><time>2026-04-30T10:23:05.003Z</time></trkpt><trkpt lat="40.25143639761487" lon="9.57392900961989"><ele>546.3333333333334</ele><time>2026-04-30T10:23:06.003Z</time></trkpt><trkpt lat="40.25128184262732" lon="9.573873176882632"><ele>553.0</ele><time>2026-04-30T10:23:07.003Z</time></trkpt><trkpt lat="40.25111113254445" lon="9.573837165168257"><ele>553.0</ele><time>2026-04-30T10:23:08.003Z</time></trkpt><trkpt lat="40.25096686298384" lon="9.573751943962288"><ele>553.0</ele><time>2026-04-30T10:23:09.003Z</time></trkpt><trkpt lat="40.250853614977565" lon="9.573635945591658"><ele>553.0</ele><time>2026-04-30T10:23:10.003Z</time></trkpt><trkpt lat="40.25075600976592" lon="9.573510616606319"><ele>553.0</ele><time>2026-04-30T10:23:11.003Z</time></trkpt><trkpt lat="40.250623909203206" lon="9.573451978673496"><ele>548.75</ele><time>2026-04-30T10:23:12.003Z</time></trkpt><trkpt lat="40.25048319096417" lon="9.573437146270845"><ele>544.5</ele><time>2026-04-30T10:23:13.003Z</time></trkpt><trkpt lat="40.25032602035269" lon="9.573415466967468"><ele>540.25</ele><time>2026-04-30T10:23:14.003Z</time></trkpt><trkpt lat="40.250185146286015" lon="9.57336091684774"><ele>536.0</ele><time>2026-04-30T10:23:15.003Z</time></trkpt><trkpt lat="40.25006362678434" lon="9.573279237725139"><ele>536.0</ele><time>2026-04-30T10:23:16.003Z</time></trkpt><trkpt lat="40.249946089112015" lon="9.573198876870624"><ele>536.0</ele><time>2026-04-30T10:23:17.003Z</time></trkpt><trkpt lat="40.2498295437343" lon="9.573115102919688"><ele>536.0</ele><time>2026-04-30T10:23:18.003Z</time></trkpt><trkpt lat="40.24970916463896" lon="9.57302453058406"><ele>536.0</ele><time>2026-04-30T10:23:19.003Z</time></trkpt><trkpt lat="40.24958267483482" lon="9.572954729791837"><ele>542.25</ele><time>2026-04-30T10:23:20.003Z</time></trkpt><trkpt lat="40.24944705910144" lon="9.572913755464391"><ele>548.5</ele><time>2026-04-30T10:23:21.003Z</time></trkpt><trkpt lat="40.2493038994292" lon="9.572911592415696"><ele>554.75</ele><time>2026-04-30T10:23:22.003Z</time></trkpt><trkpt lat="40.24916103472081" lon="9.572914611879076"><ele>561.0</ele><time>2026-04-30T10:23:23.003Z</time></trkpt><trkpt lat="40.249022398336905" lon="9.572915254509512"><ele>557.0</ele><time>2026-04-30T10:23:24.002Z</time></trkpt><trkpt lat="40.248890352134076" lon="9.572895435338818"><ele>553.0</ele><time>2026-04-30T10:23:25.002Z</time></trkpt><trkpt lat="40.24876307862446" lon="9.572850472221061"><ele>549.0</ele><time>2026-04-30T10:23:26.002Z</time></trkpt><trkpt lat="40.24862902291494" lon="9.572784583635917"><ele>545.0</ele><time>2026-04-30T10:23:27.002Z</time></trkpt><trkpt lat="40.24850279717928" lon="9.572712905958987"><ele>545.0</ele><time>2026-04-30T10:23:28.002Z</time></trkpt><trkpt lat="40.248373920009705" lon="9.572636625251384"><ele>545.0</ele><time>2026-04-30T10:23:29.002Z</time></trkpt><trkpt lat="40.248245760253596" lon="9.572533603072557"><ele>545.0</ele><time>2026-04-30T10:23:30.002Z</time></trkpt><trkpt lat="40.24812081266614" lon="9.572419752369502"><ele>545.0</ele><time>2026-04-30T10:23:31.002Z</time></trkpt><trkpt lat="40.24800399045238" lon="9.572304905335455"><ele>542.75</ele><time>2026-04-30T10:23:32.002Z</time></trkpt><trkpt lat="40.2478927097517" lon="9.572196113746777"><ele>540.5</ele><time>2026-04-30T10:23:33.002Z</time></trkpt><trkpt lat="40.247792747709084" lon="9.572085650287624"><ele>538.25</ele><time>2026-04-30T10:23:34.002Z</time></trkpt><trkpt lat="40.24769676996478" lon="9.572005927016052"><ele>536.0</ele><time>2026-04-30T10:23:35.002Z</time></trkpt><trkpt lat="40.24758947123146" lon="9.571951913368364"><ele>536.0</ele><time>2026-04-30T10:23:36.002Z</time></trkpt><trkpt lat="40.24747753798084" lon="9.571917007313658"><ele>536.0</ele><time>2026-04-30T10:23:37.002Z</time></trkpt><trkpt lat="40.24735838049663" lon="9.571905077500148"><ele>536.0</ele><time>2026-04-30T10:23:38.002Z</time></trkpt><trkpt lat="40.24723892102522" lon="9.571901299143544"><ele>536.0</ele><time>2026-04-30T10:23:39.002Z</time></trkpt><trkpt lat="40.24712353380907" lon="9.571890886969324"><ele>542.0</ele><time>2026-04-30T10:23:40.002Z</time></trkpt><trkpt lat="40.247014168288295" lon="9.571814676769469"><ele>548.0</ele><time>2026-04-30T10:23:41.002Z</time></trkpt><trkpt lat="40.24690718958324" lon="9.571713987440589"><ele>554.0</ele><time>2026-04-30T10:23:42.002Z</time></trkpt><trkpt lat="40.24681532768065" lon="9.571603785205111"><ele>560.0</ele><time>2026-04-30T10:23:43.002Z</time></trkpt><trkpt lat="40.246716902023564" lon="9.571475733818941"><ele>560.0</ele><time>2026-04-30T10:23:44.002Z</time></trkpt><trkpt lat="40.24659521622631" lon="9.571365253352786"><ele>560.0</ele><time>2026-04-30T10:23:45.002Z</time></trkpt><trkpt lat="40.246450526990635" lon="9.571263227796697"><ele>560.0</ele><time>2026-04-30T10:23:46.002Z</time></trkpt><trkpt lat="40.246296866350576" lon="9.571153545538293"><ele>559.0</ele><time>2026-04-30T10:23:47.002Z</time></trkpt><trkpt lat="40.24613925816966" lon="9.571043665031336"><ele>558.0</ele><time>2026-04-30T10:23:48.002Z</time></trkpt><trkpt lat="40.24598516772365" lon="9.570931252054287"><ele>557.0</ele><time>2026-04-30T10:23:49.002Z</time></trkpt><trkpt lat="40.24583576112904" lon="9.570792710852468"><ele>557.0</ele><time>2026-04-30T10:23:50.002Z</time></trkpt><trkpt lat="40.24570070735201" lon="9.570659580601431"><ele>557.0</ele><time>2026-04-30T10:23:51.002Z</time></trkpt><trkpt lat="40.2455712686615" lon="9.570535590746275"><ele>557.0</ele><time>2026-04-30T10:23:52.002Z</time></trkpt><trkpt lat="40.24544610248033" lon="9.570436532142633"><ele>558.5</ele><time>2026-04-30T10:23:53.002Z</time></trkpt><trkpt lat="40.24532404040932" lon="9.570334711484321"><ele>560.0</ele><time>2026-04-30T10:23:54.002Z</time></trkpt><trkpt lat="40.245205351582655" lon="9.570229892828882"><ele>561.5</ele><time>2026-04-30T10:23:55.002Z</time></trkpt><trkpt lat="40.24509548799215" lon="9.5701073842592"><ele>563.0</ele><time>2026-04-30T10:23:56.002Z</time></trkpt><trkpt lat="40.2450074591655" lon="9.569941882568981"><ele>563.0</ele><time>2026-04-30T10:23:57.002Z</time></trkpt><trkpt lat="40.24488249244725" lon="9.569811358820433"><ele>563.0</ele><time>2026-04-30T10:23:58.002Z</time></trkpt><trkpt lat="40.244752588589584" lon="9.569660719381732"><ele>563.0</ele><time>2026-04-30T10:23:59.002Z</time></trkpt><trkpt lat="40.24461156778267" lon="9.569511426808585"><ele>563.25</ele><time>2026-04-30T10:24:00.002Z</time></trkpt><trkpt lat="40.24447302360568" lon="9.569372901050958"><ele>563.5</ele><time>2026-04-30T10:24:01.002Z</time></trkpt><trkpt lat="40.24435683147972" lon="9.569249811627525"><ele>563.75</ele><time>2026-04-30T10:24:02.002Z</time></trkpt><trkpt lat="40.24426236495959" lon="9.569145175847268"><ele>564.0</ele><time>2026-04-30T10:24:03.002Z</time></trkpt><trkpt lat="40.24418093360339" lon="9.569062050493173"><ele>564.0</ele><time>2026-04-30T10:24:04.002Z</time></trkpt><trkpt lat="40.244109687148224" lon="9.568982529558195"><ele>564.0</ele><time>2026-04-30T10:24:05.002Z</time></trkpt><trkpt lat="40.24403832623236" lon="9.56890147195166"><ele>564.0</ele><time>2026-04-30T10:24:06.002Z</time></trkpt><trkpt lat="40.24394520932679" lon="9.568793854183136"><ele>564.0</ele><time>2026-04-30T10:24:07.002Z</time></trkpt><trkpt lat="40.24384161769474" lon="9.568684826885775"><ele>564.0</ele><time>2026-04-30T10:24:08.002Z</time></trkpt><trkpt lat="40.24373476234523" lon="9.568587505838606"><ele>561.6666666666666</ele><time>2026-04-30T10:24:09.002Z</time></trkpt><trkpt lat="40.24360373099561" lon="9.568519974865117"><ele>559.3333333333333</ele><time>2026-04-30T10:24:10.002Z</time></trkpt><trkpt lat="40.24342329225231" lon="9.568451957291357"><ele>557.0</ele><time>2026-04-30T10:24:11.002Z</time></trkpt><trkpt lat="40.24321447690818" lon="9.568386405750852"><ele>570.0</ele><time>2026-04-30T10:24:12.002Z</time></trkpt><trkpt lat="40.243029981304915" lon="9.568281892596135"><ele>583.0</ele><time>2026-04-30T10:24:13.002Z</time></trkpt><trkpt lat="40.242858789311754" lon="9.568142250788107"><ele>596.0</ele><time>2026-04-30T10:24:14.002Z</time></trkpt><trkpt lat="40.24268056279562" lon="9.56798322868415"><ele>597.0</ele><time>2026-04-30T10:24:15.002Z</time></trkpt><trkpt lat="40.24248130988655" lon="9.567836364908459"><ele>598.0</ele><time>2026-04-30T10:24:16.002Z</time></trkpt><trkpt lat="40.24228030417354" lon="9.56769165100773"><ele>598.0</ele><time>2026-04-30T10:24:17.002Z</time></trkpt><trkpt lat="40.242105711797464" lon="9.567565177684799"><ele>598.0</ele><time>2026-04-30T10:24:18.002Z</time></trkpt><trkpt lat="40.24197482435868" lon="9.567442489074875"><ele>598.0</ele><time>2026-04-30T10:24:19.002Z</time></trkpt><trkpt lat="40.241891107015654" lon="9.567319683276772"><ele>598.0</ele><time>2026-04-30T10:24:20.002Z</time></trkpt><trkpt lat="40.241880181057724" lon="9.56715126202725"><ele>598.0</ele><time>2026-04-30T10:24:21.002Z</time></trkpt><trkpt lat="40.24187180332198" lon="9.566975768306387"><ele>598.0</ele><time>2026-04-30T10:24:22.002Z</time></trkpt><trkpt lat="40.241806714496796" lon="9.566815711839286"><ele>598.0</ele><time>2026-04-30T10:24:23.002Z</time></trkpt><trkpt lat="40.24172484584071" lon="9.566625927762535"><ele>591.0</ele><time>2026-04-30T10:24:24.002Z</time></trkpt><trkpt lat="40.24159991456614" lon="9.566449743108109"><ele>584.0</ele><time>2026-04-30T10:24:25.002Z</time></trkpt><trkpt lat="40.24145355185375" lon="9.566298387859032"><ele>577.0</ele><time>2026-04-30T10:24:26.002Z</time></trkpt><trkpt lat="40.24128500748207" lon="9.566173075147939"><ele>574.6666666666667</ele><time>2026-04-30T10:24:27.002Z</time></trkpt><trkpt lat="40.241095437392296" lon="9.566067273104293"><ele>572.3333333333334</ele><time>2026-04-30T10:24:28.002Z</time></trkpt><trkpt lat="40.24086513120732" lon="9.565980491326055"><ele>570.0</ele><time>2026-04-30T10:24:29.002Z</time></trkpt><trkpt lat="40.24061185328771" lon="9.565900114941668"><ele>587.0</ele><time>2026-04-30T10:24:30.002Z</time></trkpt><trkpt lat="40.24037893691575" lon="9.56580044150476"><ele>604.0</ele><time>2026-04-30T10:24:31.002Z</time></trkpt><trkpt lat="40.24016218846908" lon="9.565687883801735"><ele>604.0</ele><time>2026-04-30T10:24:32.002Z</time></trkpt><trkpt lat="40.239960908532844" lon="9.565557764704884"><ele>604.0</ele><time>2026-04-30T10:24:33.002Z</time></trkpt><trkpt lat="40.23978498036484" lon="9.56540985627511"><ele>604.0</ele><time>2026-04-30T10:24:34.002Z</time></trkpt><trkpt lat="40.23963099779807" lon="9.565263920515095"><ele>605.0</ele><time>2026-04-30T10:24:35.002Z</time></trkpt><trkpt lat="40.239502433241555" lon="9.565095663814226"><ele>606.0</ele><time>2026-04-30T10:24:36.002Z</time></trkpt><trkpt lat="40.23937460073591" lon="9.564932204127755"><ele>607.0</ele><time>2026-04-30T10:24:37.002Z</time></trkpt><trkpt lat="40.23922757631488" lon="9.5648356923893"><ele>607.0</ele><time>2026-04-30T10:24:38.002Z</time></trkpt><trkpt lat="40.23905138225278" lon="9.5647556924041"><ele>607.0</ele><time>2026-04-30T10:24:39.002Z</time></trkpt><trkpt lat="40.238866681804275" lon="9.564646971847576"><ele>607.0</ele><time>2026-04-30T10:24:40.002Z</time></trkpt><trkpt lat="40.23870034419904" lon="9.564507250913385"><ele>611.0</ele><time>2026-04-30T10:24:41.002Z</time></trkpt><trkpt lat="40.23855064739966" lon="9.56434151936157"><ele>615.0</ele><time>2026-04-30T10:24:42.002Z</time></trkpt><trkpt lat="40.23841709650389" lon="9.56414245477593"><ele>619.0</ele><time>2026-04-30T10:24:43.002Z</time></trkpt><trkpt lat="40.23829620318033" lon="9.56393392260223"><ele>619.0</ele><time>2026-04-30T10:24:44.002Z</time></trkpt><trkpt lat="40.238200510589735" lon="9.563707183290958"><ele>619.0</ele><time>2026-04-30T10:24:45.003Z</time></trkpt><trkpt lat="40.23812096738516" lon="9.563474683772721"><ele>619.0</ele><time>2026-04-30T10:24:46.003Z</time></trkpt><trkpt lat="40.23804160070912" lon="9.563244602711025"><ele>624.0</ele><time>2026-04-30T10:24:47.003Z</time></trkpt><trkpt lat="40.23793621881315" lon="9.563022366420943"><ele>629.0</ele><time>2026-04-30T10:24:48.003Z</time></trkpt><trkpt lat="40.23780708636335" lon="9.562806052912459"><ele>634.0</ele><time>2026-04-30T10:24:49.002Z</time></trkpt><trkpt lat="40.23765911187072" lon="9.56259536762073"><ele>639.0</ele><time>2026-04-30T10:24:50.002Z</time></trkpt><trkpt lat="40.23747957152642" lon="9.562395043722653"><ele>644.0</ele><time>2026-04-30T10:24:51.003Z</time></trkpt><trkpt lat="40.237268510249564" lon="9.562210974905385"><ele>628.0</ele><time>2026-04-30T10:24:52.003Z</time></trkpt><trkpt lat="40.23703514893384" lon="9.562020660815126"><ele>612.0</ele><time>2026-04-30T10:24:53.003Z</time></trkpt><trkpt lat="40.23681869701493" lon="9.561837919562265"><ele>612.0</ele><time>2026-04-30T10:24:54.003Z</time></trkpt><trkpt lat="40.23661961178071" lon="9.561654152730169"><ele>612.0</ele><time>2026-04-30T10:24:55.002Z</time></trkpt><trkpt lat="40.236460538867405" lon="9.56144789780617"><ele>613.6666666666666</ele><time>2026-04-30T10:24:56.002Z</time></trkpt><trkpt lat="40.236325248670816" lon="9.561243931974973"><ele>615.3333333333333</ele><time>2026-04-30T10:24:57.003Z</time></trkpt><trkpt lat="40.23618748154743" lon="9.56105376996502"><ele>617.0</ele><time>2026-04-30T10:24:58.002Z</time></trkpt><trkpt lat="40.23607220325189" lon="9.560877194525604"><ele>617.0</ele><time>2026-04-30T10:24:59.002Z</time></trkpt><trkpt lat="40.235921807109506" lon="9.560729120348913"><ele>617.0</ele><time>2026-04-30T10:25:00.002Z</time></trkpt><trkpt lat="40.23573233335645" lon="9.560617748634177"><ele>617.0</ele><time>2026-04-30T10:25:01.002Z</time></trkpt><trkpt lat="40.23551647087293" lon="9.560529700132781"><ele>633.5</ele><time>2026-04-30T10:25:02.002Z</time></trkpt><trkpt lat="40.235274206660186" lon="9.560454111290424"><ele>650.0</ele><time>2026-04-30T10:25:03.002Z</time></trkpt><trkpt lat="40.23503307232591" lon="9.560387292575014"><ele>644.0</ele><time>2026-04-30T10:25:04.002Z</time></trkpt><trkpt lat="40.234838096460656" lon="9.560241281869388"><ele>638.0</ele><time>2026-04-30T10:25:05.002Z</time></trkpt><trkpt lat="40.23465358183055" lon="9.560065129744277"><ele>638.0</ele><time>2026-04-30T10:25:06.002Z</time></trkpt><trkpt lat="40.23445182669003" lon="9.559879355015982"><ele>638.0</ele><time>2026-04-30T10:25:07.002Z</time></trkpt><trkpt lat="40.23422287149994" lon="9.559678161865856"><ele>641.0</ele><time>2026-04-30T10:25:08.002Z</time></trkpt><trkpt lat="40.23397836945081" lon="9.55952427881015"><ele>644.0</ele><time>2026-04-30T10:25:09.002Z</time></trkpt><trkpt lat="40.233783632724084" lon="9.55937049737933"><ele>644.0</ele><time>2026-04-30T10:25:10.002Z</time></trkpt><trkpt lat="40.233644149650345" lon="9.559179627634128"><ele>644.0</ele><time>2026-04-30T10:25:11.002Z</time></trkpt><trkpt lat="40.23348781597828" lon="9.558981870672138"><ele>644.0</ele><time>2026-04-30T10:25:12.002Z</time></trkpt><trkpt lat="40.233305844678284" lon="9.558855810871389"><ele>644.0</ele><time>2026-04-30T10:25:13.002Z</time></trkpt><trkpt lat="40.23316448818227" lon="9.558729310934947"><ele>644.0</ele><time>2026-04-30T10:25:14.002Z</time></trkpt><trkpt lat="40.23308404483051" lon="9.558578189022379"><ele>644.0</ele><time>2026-04-30T10:25:15.002Z</time></trkpt><trkpt lat="40.23305316592057" lon="9.558428289016735"><ele>644.0</ele><time>2026-04-30T10:25:16.002Z</time></trkpt><trkpt lat="40.233032995315064" lon="9.558248735214947"><ele>646.3333333333333</ele><time>2026-04-30T10:25:17.002Z</time></trkpt><trkpt lat="40.23295757117472" lon="9.558107491409956"><ele>648.6666666666666</ele><time>2026-04-30T10:25:18.002Z</time></trkpt><trkpt lat="40.232838579422754" lon="9.557970749575261"><ele>651.0</ele><time>2026-04-30T10:25:19.002Z</time></trkpt><trkpt lat="40.232649807595735" lon="9.557847036713481"><ele>640.5</ele><time>2026-04-30T10:25:20.002Z</time></trkpt><trkpt lat="40.23243059019906" lon="9.557725932938597"><ele>630.0</ele><time>2026-04-30T10:25:21.002Z</time></trkpt><trkpt lat="40.232203408314184" lon="9.557631607634914"><ele>630.0</ele><time>2026-04-30T10:25:22.002Z</time></trkpt><trkpt lat="40.23200786659208" lon="9.557555019240718"><ele>630.0</ele><time>2026-04-30T10:25:23.002Z</time></trkpt><trkpt lat="40.23184043518173" lon="9.557491350167256"><ele>630.0</ele><time>2026-04-30T10:25:24.002Z</time></trkpt><trkpt lat="40.231698608380675" lon="9.557463319192212"><ele>630.0</ele><time>2026-04-30T10:25:25.002Z</time></trkpt><trkpt lat="40.231570040858855" lon="9.557502651416188"><ele>630.0</ele><time>2026-04-30T10:25:26.002Z</time></trkpt><trkpt lat="40.23145487059476" lon="9.557566444894308"><ele>630.0</ele><time>2026-04-30T10:25:27.002Z</time></trkpt><trkpt lat="40.231342895192036" lon="9.557543371525862"><ele>630.0</ele><time>2026-04-30T10:25:28.002Z</time></trkpt><trkpt lat="40.231255443836" lon="9.557424358933545"><ele>627.75</ele><time>2026-04-30T10:25:29.002Z</time></trkpt><trkpt lat="40.231175998110835" lon="9.557285106904533"><ele>625.5</ele><time>2026-04-30T10:25:30.002Z</time></trkpt><trkpt lat="40.231099775306674" lon="9.557165713895596"><ele>623.25</ele><time>2026-04-30T10:25:31.002Z</time></trkpt><trkpt lat="40.23101930943262" lon="9.557067333908625"><ele>621.0</ele><time>2026-04-30T10:25:32.002Z</time></trkpt><trkpt lat="40.23093824870794" lon="9.556978069914523"><ele>621.0</ele><time>2026-04-30T10:25:33.002Z</time></trkpt><trkpt lat="40.230842404585246" lon="9.556907421335954"><ele>621.0</ele><time>2026-04-30T10:25:34.002Z</time></trkpt><trkpt lat="40.23072184167781" lon="9.556877638489027"><ele>621.0</ele><time>2026-04-30T10:25:35.002Z</time></trkpt><trkpt lat="40.23058884777694" lon="9.55686286848816"><ele>621.0</ele><time>2026-04-30T10:25:36.002Z</time></trkpt><trkpt lat="40.23046298709194" lon="9.556854097230328"><ele>624.2</ele><time>2026-04-30T10:25:37.002Z</time></trkpt><trkpt lat="40.230356775477915" lon="9.55683160732941"><ele>627.4000000000001</ele><time>2026-04-30T10:25:38.002Z</time></trkpt><trkpt lat="40.23026959839408" lon="9.556802925609082"><ele>630.6</ele><time>2026-04-30T10:25:39.002Z</time></trkpt><trkpt lat="40.23018964448061" lon="9.556769358180594"><ele>633.8000000000001</ele><time>2026-04-30T10:25:40.002Z</time></trkpt><trkpt lat="40.230108895386934" lon="9.556726656726257"><ele>637.0</ele><time>2026-04-30T10:25:41.002Z</time></trkpt><trkpt lat="40.23001761720275" lon="9.55668198792921"><ele>637.0</ele><time>2026-04-30T10:25:42.002Z</time></trkpt><trkpt lat="40.22991718618888" lon="9.556620816506408"><ele>637.0</ele><time>2026-04-30T10:25:43.002Z</time></trkpt><trkpt lat="40.22982296348355" lon="9.556550064287515"><ele>637.0</ele><time>2026-04-30T10:25:44.002Z</time></trkpt><trkpt lat="40.229736054928026" lon="9.5564617155941"><ele>637.0</ele><time>2026-04-30T10:25:45.002Z</time></trkpt><trkpt lat="40.22966366145997" lon="9.556372686043625"><ele>637.0</ele><time>2026-04-30T10:25:46.002Z</time></trkpt><trkpt lat="40.22959450728194" lon="9.556288253928772"><ele>639.8333333333334</ele><time>2026-04-30T10:25:47.002Z</time></trkpt><trkpt lat="40.22952775862904" lon="9.556215559075783"><ele>642.6666666666667</ele><time>2026-04-30T10:25:48.002Z</time></trkpt><trkpt lat="40.22945413579347" lon="9.556174061348539"><ele>645.5</ele><time>2026-04-30T10:25:49.002Z</time></trkpt><trkpt lat="40.22937435173365" lon="9.55616095695082"><ele>648.3333333333334</ele><time>2026-04-30T10:25:50.002Z</time></trkpt><trkpt lat="40.22929237330411" lon="9.556170968570509"><ele>651.1666666666666</ele><time>2026-04-30T10:25:51.002Z</time></trkpt><trkpt lat="40.22921813883385" lon="9.556212291457143"><ele>654.0</ele><time>2026-04-30T10:25:52.002Z</time></trkpt><trkpt lat="40.229148077763305" lon="9.556268014525397"><ele>654.0</ele><time>2026-04-30T10:25:53.002Z</time></trkpt><trkpt lat="40.229083379777364" lon="9.55632250342204"><ele>654.0</ele><time>2026-04-30T10:25:54.002Z</time></trkpt><trkpt lat="40.229013625755016" lon="9.55637017155662"><ele>654.0</ele><time>2026-04-30T10:25:55.002Z</time></trkpt><trkpt lat="40.228930852746174" lon="9.556384928025532"><ele>654.0</ele><time>2026-04-30T10:25:56.002Z</time></trkpt><trkpt lat="40.22883876454865" lon="9.556364488891932"><ele>654.0</ele><time>2026-04-30T10:25:57.002Z</time></trkpt><trkpt lat="40.22874949450019" lon="9.55632591660748"><ele>654.0</ele><time>2026-04-30T10:25:58.002Z</time></trkpt><trkpt lat="40.228654131667795" lon="9.556282713033363"><ele>656.4000000000001</ele><time>2026-04-30T10:25:59.002Z</time></trkpt><trkpt lat="40.228550706681844" lon="9.556240658336883"><ele>658.8</ele><time>2026-04-30T10:26:00.001Z</time></trkpt><trkpt lat="40.2284453636901" lon="9.556202015592179"><ele>661.2</ele><time>2026-04-30T10:26:01.001Z</time></trkpt><trkpt lat="40.22834341350958" lon="9.556162264942559"><ele>663.5999999999999</ele><time>2026-04-30T10:26:02.001Z</time></trkpt><trkpt lat="40.22824464342121" lon="9.556110594367725"><ele>666.0</ele><time>2026-04-30T10:26:03.001Z</time></trkpt><trkpt lat="40.228153804252536" lon="9.556046986872147"><ele>664.75</ele><time>2026-04-30T10:26:04.001Z</time></trkpt><trkpt lat="40.22806405325454" lon="9.555965153923044"><ele>663.5</ele><time>2026-04-30T10:26:05.001Z</time></trkpt><trkpt lat="40.22797096484635" lon="9.555873519321823"><ele>662.25</ele><time>2026-04-30T10:26:06.001Z</time></trkpt><trkpt lat="40.22787078809028" lon="9.555777398965954"><ele>661.0</ele><time>2026-04-30T10:26:07.001Z</time></trkpt><trkpt lat="40.22775415654547" lon="9.55568910579875"><ele>661.0</ele><time>2026-04-30T10:26:08.001Z</time></trkpt><trkpt lat="40.227616000608194" lon="9.555610378204959"><ele>661.0</ele><time>2026-04-30T10:26:09.001Z</time></trkpt><trkpt lat="40.227461571695066" lon="9.55554377627354"><ele>661.0</ele><time>2026-04-30T10:26:10.001Z</time></trkpt><trkpt lat="40.22729442319867" lon="9.555477085141879"><ele>668.6666666666667</ele><time>2026-04-30T10:26:11.001Z</time></trkpt><trkpt lat="40.22711838504423" lon="9.555410092952062"><ele>676.3333333333334</ele><time>2026-04-30T10:26:12.001Z</time></trkpt><trkpt lat="40.226943632989205" lon="9.555348475505841"><ele>684.0</ele><time>2026-04-30T10:26:13.001Z</time></trkpt><trkpt lat="40.2267645043489" lon="9.555282253726666"><ele>673.6666666666666</ele><time>2026-04-30T10:26:14.001Z</time></trkpt><trkpt lat="40.22657352686804" lon="9.555208696778"><ele>663.3333333333333</ele><time>2026-04-30T10:26:15.001Z</time></trkpt><trkpt lat="40.22635614116121" lon="9.55512283196648"><ele>653.0</ele><time>2026-04-30T10:26:16.001Z</time></trkpt><trkpt lat="40.22617279489803" lon="9.55504683269597"><ele>653.0</ele><time>2026-04-30T10:26:17.001Z</time></trkpt><trkpt lat="40.22597935656098" lon="9.554976114598826"><ele>653.0</ele><time>2026-04-30T10:26:18.001Z</time></trkpt><trkpt lat="40.225785949067394" lon="9.55492303541745"><ele>653.0</ele><time>2026-04-30T10:26:19.001Z</time></trkpt><trkpt lat="40.22561046030234" lon="9.554885225973022"><ele>658.3333333333333</ele><time>2026-04-30T10:26:20.001Z</time></trkpt><trkpt lat="40.22546487584342" lon="9.554835504272036"><ele>663.6666666666666</ele><time>2026-04-30T10:26:21.001Z</time></trkpt><trkpt lat="40.22534321154438" lon="9.554730043389208"><ele>669.0</ele><time>2026-04-30T10:26:22.001Z</time></trkpt><trkpt lat="40.2252354186559" lon="9.554571723002827"><ele>666.6666666666666</ele><time>2026-04-30T10:26:23.001Z</time></trkpt><trkpt lat="40.225071169700406" lon="9.554420446303405"><ele>664.3333333333333</ele><time>2026-04-30T10:26:24.001Z</time></trkpt><trkpt lat="40.22486153058856" lon="9.554303999068674"><ele>662.0</ele><time>2026-04-30T10:26:25.001Z</time></trkpt><trkpt lat="40.2246182740498" lon="9.554199847213138"><ele>662.0</ele><time>2026-04-30T10:26:26.001Z</time></trkpt><trkpt lat="40.22438561773877" lon="9.554121647573513"><ele>662.0</ele><time>2026-04-30T10:26:27.001Z</time></trkpt><trkpt lat="40.224187850356486" lon="9.554036044873452"><ele>662.0</ele><time>2026-04-30T10:26:28.001Z</time></trkpt><trkpt lat="40.22401291830887" lon="9.553935857642145"><ele>666.6666666666666</ele><time>2026-04-30T10:26:29.001Z</time></trkpt><trkpt lat="40.22383223763788" lon="9.55385397161992"><ele>671.3333333333334</ele><time>2026-04-30T10:26:30.001Z</time></trkpt><trkpt lat="40.22363788118036" lon="9.553824151579864"><ele>676.0</ele><time>2026-04-30T10:26:31.001Z</time></trkpt><trkpt lat="40.22343771169334" lon="9.553837336504087"><ele>676.0</ele><time>2026-04-30T10:26:32.001Z</time></trkpt><trkpt lat="40.2232296355358" lon="9.553902786514485"><ele>676.0</ele><time>2026-04-30T10:26:33.001Z</time></trkpt><trkpt lat="40.22301905203777" lon="9.553932437814199"><ele>676.0</ele><time>2026-04-30T10:26:34.001Z</time></trkpt><trkpt lat="40.22281220148188" lon="9.55391685240606"><ele>678.3333333333334</ele><time>2026-04-30T10:26:35.001Z</time></trkpt><trkpt lat="40.22260501377789" lon="9.55385799163943"><ele>680.6666666666666</ele><time>2026-04-30T10:26:36.001Z</time></trkpt><trkpt lat="40.222381251297534" lon="9.553823613938235"><ele>683.0</ele><time>2026-04-30T10:26:37.001Z</time></trkpt><trkpt lat="40.222120734896436" lon="9.553837135019926"><ele>684.0</ele><time>2026-04-30T10:26:38.001Z</time></trkpt><trkpt lat="40.22185018917494" lon="9.5538430492716"><ele>685.0</ele><time>2026-04-30T10:26:39.001Z</time></trkpt><trkpt lat="40.22158742543364" lon="9.553844176150983"><ele>687.6666666666667</ele><time>2026-04-30T10:26:40.001Z</time></trkpt><trkpt lat="40.22134095208196" lon="9.553807468873869"><ele>690.3333333333334</ele><time>2026-04-30T10:26:41.001Z</time></trkpt><trkpt lat="40.22114577611971" lon="9.553773427657093"><ele>693.0</ele><time>2026-04-30T10:26:42.001Z</time></trkpt><trkpt lat="40.22097683668598" lon="9.553747829640127"><ele>693.0</ele><time>2026-04-30T10:26:43.001Z</time></trkpt><trkpt lat="40.22082518410235" lon="9.55375647950377"><ele>693.0</ele><time>2026-04-30T10:26:44.001Z</time></trkpt><trkpt lat="40.22066996540388" lon="9.553815583420464"><ele>693.0</ele><time>2026-04-30T10:26:45.001Z</time></trkpt><trkpt lat="40.22053533385993" lon="9.553926470334277"><ele>695.3333333333334</ele><time>2026-04-30T10:26:46.001Z</time></trkpt><trkpt lat="40.220365031077" lon="9.553905111669238"><ele>697.6666666666667</ele><time>2026-04-30T10:26:47.001Z</time></trkpt><trkpt lat="40.22014815054836" lon="9.553879264252062"><ele>700.0</ele><time>2026-04-30T10:26:48.001Z</time></trkpt><trkpt lat="40.21992687736783" lon="9.553874931945408"><ele>711.0</ele><time>2026-04-30T10:26:49.001Z</time></trkpt><trkpt lat="40.219736012971985" lon="9.553843050132274"><ele>722.0</ele><time>2026-04-30T10:26:50.001Z</time></trkpt><trkpt lat="40.21958330317987" lon="9.553800770241638"><ele>733.0</ele><time>2026-04-30T10:26:51.003Z</time></trkpt><trkpt lat="40.21948314069291" lon="9.55372017496858"><ele>720.25</ele><time>2026-04-30T10:26:52.003Z</time></trkpt><trkpt lat="40.219405317913015" lon="9.553624209433393"><ele>707.5</ele><time>2026-04-30T10:26:53.003Z</time></trkpt><trkpt lat="40.21934749951492" lon="9.55345810863558"><ele>694.75</ele><time>2026-04-30T10:26:54.003Z</time></trkpt><trkpt lat="40.21925703265697" lon="9.5533269657581"><ele>682.0</ele><time>2026-04-30T10:26:55.003Z</time></trkpt><trkpt lat="40.21915542778218" lon="9.553253089384466"><ele>682.0</ele><time>2026-04-30T10:26:56.003Z</time></trkpt><trkpt lat="40.21902075194062" lon="9.553242607532948"><ele>682.0</ele><time>2026-04-30T10:26:57.003Z</time></trkpt><trkpt lat="40.21884445529676" lon="9.553240729848172"><ele>682.0</ele><time>2026-04-30T10:26:58.002Z</time></trkpt><trkpt lat="40.21868429903516" lon="9.553181506640316"><ele>692.6666666666667</ele><time>2026-04-30T10:26:59.002Z</time></trkpt><trkpt lat="40.21853912705843" lon="9.55303870226528"><ele>703.3333333333334</ele><time>2026-04-30T10:27:00.003Z</time></trkpt><trkpt lat="40.218378796525144" lon="9.552945541035601"><ele>714.0</ele><time>2026-04-30T10:27:01.003Z</time></trkpt><trkpt lat="40.2182148678903" lon="9.552904720100475"><ele>708.0</ele><time>2026-04-30T10:27:02.003Z</time></trkpt><trkpt lat="40.21802643935597" lon="9.552895312097494"><ele>702.0</ele><time>2026-04-30T10:27:03.003Z</time></trkpt><trkpt lat="40.217845686090705" lon="9.552877632342488"><ele>696.0</ele><time>2026-04-30T10:27:04.003Z</time></trkpt><trkpt lat="40.21767364508762" lon="9.552795657949108"><ele>696.0</ele><time>2026-04-30T10:27:05.003Z</time></trkpt><trkpt lat="40.21752714210974" lon="9.552671106568969"><ele>696.0</ele><time>2026-04-30T10:27:06.003Z</time></trkpt><trkpt lat="40.217379226989976" lon="9.552513362071048"><ele>696.0</ele><time>2026-04-30T10:27:07.003Z</time></trkpt><trkpt lat="40.21722952635471" lon="9.5523721466382"><ele>701.3333333333334</ele><time>2026-04-30T10:27:08.003Z</time></trkpt><trkpt lat="40.217069054314635" lon="9.552239329230368"><ele>706.6666666666667</ele><time>2026-04-30T10:27:09.003Z</time></trkpt><trkpt lat="40.21688352932737" lon="9.552156208514091"><ele>712.0</ele><time>2026-04-30T10:27:10.003Z</time></trkpt><trkpt lat="40.21667861679895" lon="9.552109266250653"><ele>717.3333333333334</ele><time>2026-04-30T10:27:11.003Z</time></trkpt><trkpt lat="40.216462348906795" lon="9.55211058981114"><ele>722.6666666666666</ele><time>2026-04-30T10:27:12.003Z</time></trkpt><trkpt lat="40.21623885662878" lon="9.552151306733156"><ele>728.0</ele><time>2026-04-30T10:27:13.003Z</time></trkpt><trkpt lat="40.21601470032836" lon="9.552171384253194"><ele>728.0</ele><time>2026-04-30T10:27:14.003Z</time></trkpt><trkpt lat="40.215807389003906" lon="9.552141568458692"><ele>728.0</ele><time>2026-04-30T10:27:15.003Z</time></trkpt><trkpt lat="40.21560130347874" lon="9.55207981457922"><ele>728.0</ele><time>2026-04-30T10:27:16.003Z</time></trkpt><trkpt lat="40.215404506887864" lon="9.551987506253145"><ele>719.3333333333333</ele><time>2026-04-30T10:27:17.003Z</time></trkpt><trkpt lat="40.215234587177584" lon="9.551880188879732"><ele>710.6666666666666</ele><time>2026-04-30T10:27:18.003Z</time></trkpt><trkpt lat="40.215082774133" lon="9.551771370347291"><ele>702.0</ele><time>2026-04-30T10:27:19.003Z</time></trkpt><trkpt lat="40.214943824653936" lon="9.551708958184463"><ele>706.3333333333334</ele><time>2026-04-30T10:27:20.003Z</time></trkpt><trkpt lat="40.21477998266698" lon="9.551714086302134"><ele>710.6666666666667</ele><time>2026-04-30T10:27:21.003Z</time></trkpt><trkpt lat="40.21458583377183" lon="9.551742751630764"><ele>715.0</ele><time>2026-04-30T10:27:22.003Z</time></trkpt><trkpt lat="40.214379426585936" lon="9.551756126851808"><ele>715.0</ele><time>2026-04-30T10:27:23.003Z</time></trkpt><trkpt lat="40.21418072472439" lon="9.551750459395121"><ele>715.0</ele><time>2026-04-30T10:27:24.003Z</time></trkpt><trkpt lat="40.21398684311693" lon="9.551678579999427"><ele>715.0</ele><time>2026-04-30T10:27:25.003Z</time></trkpt><trkpt lat="40.2137892967051" lon="9.55156423793732"><ele>730.0</ele><time>2026-04-30T10:27:26.003Z</time></trkpt><trkpt lat="40.21357368622219" lon="9.551438522880346"><ele>745.0</ele><time>2026-04-30T10:27:27.003Z</time></trkpt><trkpt lat="40.21332902907845" lon="9.551275667816737"><ele>740.0</ele><time>2026-04-30T10:27:28.003Z</time></trkpt><trkpt lat="40.213084583158306" lon="9.55110941915495"><ele>735.0</ele><time>2026-04-30T10:27:29.002Z</time></trkpt><trkpt lat="40.21286601192991" lon="9.550966264371501"><ele>735.0</ele><time>2026-04-30T10:27:30.002Z</time></trkpt><trkpt lat="40.2126929519093" lon="9.550789193957948"><ele>735.0</ele><time>2026-04-30T10:27:31.002Z</time></trkpt><trkpt lat="40.212531972160455" lon="9.550611300242506"><ele>735.0</ele><time>2026-04-30T10:27:32.002Z</time></trkpt><trkpt lat="40.212367195898125" lon="9.550411660859693"><ele>741.3333333333334</ele><time>2026-04-30T10:27:33.002Z</time></trkpt><trkpt lat="40.21219676315867" lon="9.550214288484673"><ele>747.6666666666667</ele><time>2026-04-30T10:27:34.002Z</time></trkpt><trkpt lat="40.212034507551756" lon="9.55001890091205"><ele>754.0</ele><time>2026-04-30T10:27:35.002Z</time></trkpt><trkpt lat="40.21186461000991" lon="9.549842352378782"><ele>754.0</ele><time>2026-04-30T10:27:36.002Z</time></trkpt><trkpt lat="40.211702821098406" lon="9.549668481569267"><ele>754.0</ele><time>2026-04-30T10:27:37.002Z</time></trkpt><trkpt lat="40.21158960481616" lon="9.549437123097393"><ele>754.0</ele><time>2026-04-30T10:27:38.002Z</time></trkpt><trkpt lat="40.21145289465124" lon="9.549230343287602"><ele>758.0</ele><time>2026-04-30T10:27:39.002Z</time></trkpt><trkpt lat="40.211317394178224" lon="9.549040116555924"><ele>762.0</ele><time>2026-04-30T10:27:40.002Z</time></trkpt><trkpt lat="40.21118364486584" lon="9.548865782031413"><ele>766.0</ele><time>2026-04-30T10:27:41.002Z</time></trkpt><trkpt lat="40.211022745642836" lon="9.54870629864136"><ele>766.0</ele><time>2026-04-30T10:27:42.002Z</time></trkpt><trkpt lat="40.21083151126679" lon="9.54855835782823"><ele>766.0</ele><time>2026-04-30T10:27:43.002Z</time></trkpt><trkpt lat="40.210611583561736" lon="9.548407555531027"><ele>766.0</ele><time>2026-04-30T10:27:44.002Z</time></trkpt><trkpt lat="40.210406433159974" lon="9.548254983111"><ele>766.0</ele><time>2026-04-30T10:27:45.002Z</time></trkpt><trkpt lat="40.21022455214335" lon="9.548111238785792"><ele>766.0</ele><time>2026-04-30T10:27:46.002Z</time></trkpt><trkpt lat="40.210096623217595" lon="9.547908081466147"><ele>770.3333333333334</ele><time>2026-04-30T10:27:47.002Z</time></trkpt><trkpt lat="40.209979143381496" lon="9.54768735213415"><ele>774.6666666666667</ele><time>2026-04-30T10:27:48.002Z</time></trkpt><trkpt lat="40.20982009353037" lon="9.547474859272448"><ele>779.0</ele><time>2026-04-30T10:27:49.002Z</time></trkpt><trkpt lat="40.209645577808175" lon="9.547263920426778"><ele>779.0</ele><time>2026-04-30T10:27:50.002Z</time></trkpt><trkpt lat="40.20944790969197" lon="9.54705375142626"><ele>779.0</ele><time>2026-04-30T10:27:51.002Z</time></trkpt><trkpt lat="40.20927673436843" lon="9.546816830648623"><ele>766.5</ele><time>2026-04-30T10:27:52.002Z</time></trkpt><trkpt lat="40.20912728685711" lon="9.546562844598341"><ele>754.0</ele><time>2026-04-30T10:27:53.002Z</time></trkpt><trkpt lat="40.2090005429906" lon="9.54627141306798"><ele>768.5</ele><time>2026-04-30T10:27:54.002Z</time></trkpt><trkpt lat="40.20884554583478" lon="9.54600153130781"><ele>783.0</ele><time>2026-04-30T10:27:55.002Z</time></trkpt><trkpt lat="40.20871445809854" lon="9.545732844087427"><ele>783.0</ele><time>2026-04-30T10:27:56.002Z</time></trkpt><trkpt lat="40.20859379002227" lon="9.54549668327765"><ele>783.0</ele><time>2026-04-30T10:27:57.002Z</time></trkpt><trkpt lat="40.20849175911106" lon="9.545294730882832"><ele>783.0</ele><time>2026-04-30T10:27:58.002Z</time></trkpt><trkpt lat="40.20840307882584" lon="9.545116976132967"><ele>783.0</ele><time>2026-04-30T10:27:59.002Z</time></trkpt><trkpt lat="40.20830939734392" lon="9.544966381778398"><ele>783.0</ele><time>2026-04-30T10:28:00.002Z</time></trkpt><trkpt lat="40.208190459155034" lon="9.544863557558733"><ele>783.0</ele><time>2026-04-30T10:28:01.002Z</time></trkpt><trkpt lat="40.20802232515032" lon="9.544797787474783"><ele>783.0</ele><time>2026-04-30T10:28:02.002Z</time></trkpt><trkpt lat="40.20781031274364" lon="9.5447485791614"><ele>783.0</ele><time>2026-04-30T10:28:03.002Z</time></trkpt><trkpt lat="40.20756873569313" lon="9.544685424464662"><ele>791.5</ele><time>2026-04-30T10:28:04.002Z</time></trkpt><trkpt lat="40.207309208553205" lon="9.544626507660777"><ele>800.0</ele><time>2026-04-30T10:28:05.002Z</time></trkpt><trkpt lat="40.20704932206581" lon="9.544557452694656"><ele>779.5</ele><time>2026-04-30T10:28:06.002Z</time></trkpt><trkpt lat="40.206802197160314" lon="9.544480904942958"><ele>759.0</ele><time>2026-04-30T10:28:07.002Z</time></trkpt><trkpt lat="40.20656880821399" lon="9.544399628496722"><ele>762.3333333333333</ele><time>2026-04-30T10:28:08.002Z</time></trkpt><trkpt lat="40.2063483988644" lon="9.544332992871386"><ele>765.6666666666666</ele><time>2026-04-30T10:28:09.002Z</time></trkpt><trkpt lat="40.20613403714996" lon="9.544298030243127"><ele>769.0</ele><time>2026-04-30T10:28:10.002Z</time></trkpt><trkpt lat="40.20591626363103" lon="9.544313687706275"><ele>769.0</ele><time>2026-04-30T10:28:11.002Z</time></trkpt><trkpt lat="40.20570165297044" lon="9.544351661866049"><ele>769.0</ele><time>2026-04-30T10:28:12.002Z</time></trkpt><trkpt lat="40.20551527145543" lon="9.544370802368427"><ele>769.0</ele><time>2026-04-30T10:28:13.002Z</time></trkpt><trkpt lat="40.205367029140405" lon="9.544358500375102"><ele>776.6666666666666</ele><time>2026-04-30T10:28:14.002Z</time></trkpt><trkpt lat="40.205235399249126" lon="9.544272862480948"><ele>784.3333333333333</ele><time>2026-04-30T10:28:15.002Z</time></trkpt><trkpt lat="40.205127893235414" lon="9.544120787001985"><ele>792.0</ele><time>2026-04-30T10:28:16.002Z</time></trkpt><trkpt lat="40.20500260387231" lon="9.543980057881218"><ele>792.0</ele><time>2026-04-30T10:28:17.002Z</time></trkpt><trkpt lat="40.20488221999128" lon="9.543838120413952"><ele>792.0</ele><time>2026-04-30T10:28:18.002Z</time></trkpt><trkpt lat="40.20473479020293" lon="9.543771293218393"><ele>792.0</ele><time>2026-04-30T10:28:19.002Z</time></trkpt><trkpt lat="40.204546080164306" lon="9.543720319630806"><ele>787.3333333333333</ele><time>2026-04-30T10:28:20.002Z</time></trkpt><trkpt lat="40.204362695410005" lon="9.543645766897312"><ele>782.6666666666666</ele><time>2026-04-30T10:28:21.002Z</time></trkpt><trkpt lat="40.20420584669011" lon="9.543468356035033"><ele>778.0</ele><time>2026-04-30T10:28:22.002Z</time></trkpt><trkpt lat="40.20401123495165" lon="9.543340869382048"><ele>790.3333333333333</ele><time>2026-04-30T10:28:23.002Z</time></trkpt><trkpt lat="40.20383907585964" lon="9.543219103250758"><ele>802.6666666666667</ele><time>2026-04-30T10:28:24.002Z</time></trkpt><trkpt lat="40.203674256652995" lon="9.543143789420956"><ele>815.0</ele><time>2026-04-30T10:28:25.002Z</time></trkpt><trkpt lat="40.203526142534905" lon="9.543046467944384"><ele>819.0</ele><time>2026-04-30T10:28:26.002Z</time></trkpt><trkpt lat="40.20338384454482" lon="9.542862113631095"><ele>823.0</ele><time>2026-04-30T10:28:27.002Z</time></trkpt><trkpt lat="40.20323518075675" lon="9.542662584977704"><ele>827.0</ele><time>2026-04-30T10:28:28.002Z</time></trkpt><trkpt lat="40.20308552490329" lon="9.542467912733876"><ele>827.0</ele><time>2026-04-30T10:28:29.002Z</time></trkpt><trkpt lat="40.20295803322375" lon="9.542298689787117"><ele>827.0</ele><time>2026-04-30T10:28:30.002Z</time></trkpt><trkpt lat="40.20286263171681" lon="9.54212693771499"><ele>827.0</ele><time>2026-04-30T10:28:31.002Z</time></trkpt><trkpt lat="40.2027919762681" lon="9.541944789954345"><ele>818.75</ele><time>2026-04-30T10:28:32.002Z</time></trkpt><trkpt lat="40.20274487083563" lon="9.541780957099549"><ele>810.5</ele><time>2026-04-30T10:28:33.002Z</time></trkpt><trkpt lat="40.20266766535816" lon="9.541654997891932"><ele>802.25</ele><time>2026-04-30T10:28:34.002Z</time></trkpt><trkpt lat="40.20254626695446" lon="9.541585333940315"><ele>794.0</ele><time>2026-04-30T10:28:35.002Z</time></trkpt><trkpt lat="40.20238498565085" lon="9.541568413139947"><ele>800.6666666666667</ele><time>2026-04-30T10:28:36.002Z</time></trkpt><trkpt lat="40.20219131324566" lon="9.541595866004796"><ele>807.3333333333333</ele><time>2026-04-30T10:28:37.002Z</time></trkpt><trkpt lat="40.20198949819872" lon="9.541600182765881"><ele>814.0</ele><time>2026-04-30T10:28:38.002Z</time></trkpt><trkpt lat="40.20179360725218" lon="9.541568930870659"><ele>814.0</ele><time>2026-04-30T10:28:39.002Z</time></trkpt><trkpt lat="40.201627742474116" lon="9.541529874821835"><ele>814.0</ele><time>2026-04-30T10:28:40.002Z</time></trkpt><trkpt lat="40.20148898627983" lon="9.541466065318964"><ele>814.0</ele><time>2026-04-30T10:28:41.002Z</time></trkpt><trkpt lat="40.20137501464479" lon="9.541342265447035"><ele>812.75</ele><time>2026-04-30T10:28:42.002Z</time></trkpt><trkpt lat="40.201292589364236" lon="9.541191358519368"><ele>811.5</ele><time>2026-04-30T10:28:43.002Z</time></trkpt><trkpt lat="40.201253685892375" lon="9.541012473150156"><ele>810.25</ele><time>2026-04-30T10:28:44.002Z</time></trkpt><trkpt lat="40.201202321388315" lon="9.540862125449356"><ele>809.0</ele><time>2026-04-30T10:28:45.002Z</time></trkpt><trkpt lat="40.20110963920971" lon="9.540743028064927"><ele>809.0</ele><time>2026-04-30T10:28:46.002Z</time></trkpt><trkpt lat="40.20098097646166" lon="9.540673290848618"><ele>809.0</ele><time>2026-04-30T10:28:47.002Z</time></trkpt><trkpt lat="40.20084863074241" lon="9.540641634289674"><ele>809.0</ele><time>2026-04-30T10:28:48.002Z</time></trkpt><trkpt lat="40.20070581104768" lon="9.540659222570174"><ele>809.0</ele><time>2026-04-30T10:28:49.002Z</time></trkpt><trkpt lat="40.200554516760356" lon="9.54073288718483"><ele>811.25</ele><time>2026-04-30T10:28:50.002Z</time></trkpt><trkpt lat="40.20043278702706" lon="9.540848174022448"><ele>813.5</ele><time>2026-04-30T10:28:51.002Z</time></trkpt><trkpt lat="40.2003263623503" lon="9.540917413450337"><ele>815.75</ele><time>2026-04-30T10:28:52.002Z</time></trkpt><trkpt lat="40.200232970670314" lon="9.540933115160145"><ele>818.0</ele><time>2026-04-30T10:28:53.002Z</time></trkpt><trkpt lat="40.2001336043552" lon="9.540905383606667"><ele>818.0</ele><time>2026-04-30T10:28:54.002Z</time></trkpt><trkpt lat="40.200026066565584" lon="9.540828951089207"><ele>818.0</ele><time>2026-04-30T10:28:55.002Z</time></trkpt><trkpt lat="40.199921357614556" lon="9.540720501669465"><ele>818.0</ele><time>2026-04-30T10:28:56.002Z</time></trkpt><trkpt lat="40.199830483547515" lon="9.540601770209808"><ele>818.0</ele><time>2026-04-30T10:28:57.003Z</time></trkpt><trkpt lat="40.19974274412731" lon="9.540496496807648"><ele>819.5000000000001</ele><time>2026-04-30T10:28:58.003Z</time></trkpt><trkpt lat="40.1996604435629" lon="9.540442228721588"><ele>821.0</ele><time>2026-04-30T10:28:59.003Z</time></trkpt><trkpt lat="40.19958685731591" lon="9.540411037549077"><ele>822.5</ele><time>2026-04-30T10:29:00.003Z</time></trkpt><trkpt lat="40.199525309395824" lon="9.540366022104399"><ele>824.0</ele><time>2026-04-30T10:29:01.003Z</time></trkpt><trkpt lat="40.19947183287563" lon="9.540316678373742"><ele>825.5000000000001</ele><time>2026-04-30T10:29:02.003Z</time></trkpt><trkpt lat="40.199421301011434" lon="9.540225275334247"><ele>827.0</ele><time>2026-04-30T10:29:03.003Z</time></trkpt><trkpt lat="40.19939398330331" lon="9.540105487102915"><ele>827.0</ele><time>2026-04-30T10:29:04.003Z</time></trkpt><trkpt lat="40.199404768372574" lon="9.539973903409622"><ele>827.0</ele><time>2026-04-30T10:29:05.003Z</time></trkpt><trkpt lat="40.1994319289874" lon="9.53983846714663"><ele>827.0</ele><time>2026-04-30T10:29:06.004Z</time></trkpt><trkpt lat="40.19943855599892" lon="9.539701189334963"><ele>827.0</ele><time>2026-04-30T10:29:07.003Z</time></trkpt><trkpt lat="40.199420845023276" lon="9.539564098645435"><ele>827.0</ele><time>2026-04-30T10:29:08.003Z</time></trkpt><trkpt lat="40.19936724278227" lon="9.539438801120173"><ele>824.5</ele><time>2026-04-30T10:29:09.003Z</time></trkpt><trkpt lat="40.19928618572006" lon="9.539326649404854"><ele>822.0</ele><time>2026-04-30T10:29:10.004Z</time></trkpt><trkpt lat="40.19918670435561" lon="9.5392397113134"><ele>819.5</ele><time>2026-04-30T10:29:11.004Z</time></trkpt><trkpt lat="40.19908319134869" lon="9.53917737688291"><ele>817.0</ele><time>2026-04-30T10:29:12.004Z</time></trkpt><trkpt lat="40.19897173292602" lon="9.539138282834054"><ele>817.0</ele><time>2026-04-30T10:29:13.004Z</time></trkpt><trkpt lat="40.198851432608436" lon="9.539144663992893"><ele>817.0</ele><time>2026-04-30T10:29:14.004Z</time></trkpt><trkpt lat="40.19875202392773" lon="9.539176625816502"><ele>817.0</ele><time>2026-04-30T10:29:15.004Z</time></trkpt><trkpt lat="40.1986693409463" lon="9.539232441015876"><ele>817.0</ele><time>2026-04-30T10:29:16.004Z</time></trkpt><trkpt lat="40.19859337473771" lon="9.539277599376948"><ele>817.0</ele><time>2026-04-30T10:29:17.004Z</time></trkpt><trkpt lat="40.198522703500664" lon="9.53931074275645"><ele>816.9999999999999</ele><time>2026-04-30T10:29:18.004Z</time></trkpt><trkpt lat="40.19845156451386" lon="9.539332853543259"><ele>817.0</ele><time>2026-04-30T10:29:19.004Z</time></trkpt><trkpt lat="40.19838311210501" lon="9.539328924527544"><ele>817.0</ele><time>2026-04-30T10:29:20.004Z</time></trkpt><trkpt lat="40.1983171671265" lon="9.539289914590894"><ele>817.0</ele><time>2026-04-30T10:29:21.004Z</time></trkpt><trkpt lat="40.19825902570507" lon="9.539230699554073"><ele>816.9999999999999</ele><time>2026-04-30T10:29:22.004Z</time></trkpt><trkpt lat="40.198198729978394" lon="9.539152378509609"><ele>817.0</ele><time>2026-04-30T10:29:23.004Z</time></trkpt><trkpt lat="40.19813849823691" lon="9.53905252561544"><ele>819.2</ele><time>2026-04-30T10:29:24.004Z</time></trkpt><trkpt lat="40.19807835673675" lon="9.538950370439466"><ele>821.4000000000001</ele><time>2026-04-30T10:29:25.004Z</time></trkpt><trkpt lat="40.19801520778315" lon="9.53884974187249"><ele>823.5999999999999</ele><time>2026-04-30T10:29:26.004Z</time></trkpt><trkpt lat="40.19795565979903" lon="9.538758166100475"><ele>825.8</ele><time>2026-04-30T10:29:27.004Z</time></trkpt><trkpt lat="40.19789449248886" lon="9.538685409334366"><ele>828.0</ele><time>2026-04-30T10:29:28.003Z</time></trkpt><trkpt lat="40.19782971980715" lon="9.538607292713378"><ele>828.0</ele><time>2026-04-30T10:29:29.003Z</time></trkpt><trkpt lat="40.197741227316605" lon="9.538554011100103"><ele>828.0</ele><time>2026-04-30T10:29:30.003Z</time></trkpt><trkpt lat="40.19764529310488" lon="9.538508449110468"><ele>828.0</ele><time>2026-04-30T10:29:31.003Z</time></trkpt><trkpt lat="40.197541626586776" lon="9.538474677936227"><ele>828.0</ele><time>2026-04-30T10:29:32.003Z</time></trkpt><trkpt lat="40.19745978532167" lon="9.53838986661485"><ele>828.0</ele><time>2026-04-30T10:29:33.003Z</time></trkpt><trkpt lat="40.19740295459962" lon="9.538281972785551"><ele>828.0</ele><time>2026-04-30T10:29:34.003Z</time></trkpt><trkpt lat="40.197373797405895" lon="9.53815501960854"><ele>828.0</ele><time>2026-04-30T10:29:35.003Z</time></trkpt><trkpt lat="40.19737660735461" lon="9.538020929500354"><ele>828.0</ele><time>2026-04-30T10:29:36.003Z</time></trkpt><trkpt lat="40.197398285652376" lon="9.537887416671875"><ele>828.0</ele><time>2026-04-30T10:29:37.003Z</time></trkpt><trkpt lat="40.19741401079041" lon="9.537742896833551"><ele>828.0</ele><time>2026-04-30T10:29:38.003Z</time></trkpt><trkpt lat="40.197414868017" lon="9.537607957482736"><ele>827.0</ele><time>2026-04-30T10:29:39.003Z</time></trkpt><trkpt lat="40.19743432775223" lon="9.537484667173791"><ele>826.0</ele><time>2026-04-30T10:29:40.003Z</time></trkpt><trkpt lat="40.19743203906533" lon="9.537377749620047"><ele>825.0</ele><time>2026-04-30T10:29:41.003Z</time></trkpt><trkpt lat="40.19742162278826" lon="9.53728130769807"><ele>824.0</ele><time>2026-04-30T10:29:42.003Z</time></trkpt><trkpt lat="40.197411360615966" lon="9.537181761023076"><ele>823.0</ele><time>2026-04-30T10:29:43.003Z</time></trkpt><trkpt lat="40.19740486277775" lon="9.537079224945181"><ele>822.0</ele><time>2026-04-30T10:29:44.003Z</time></trkpt><trkpt lat="40.1973973771191" lon="9.536974528450848"><ele>822.0</ele><time>2026-04-30T10:29:45.003Z</time></trkpt><trkpt lat="40.19738599620731" lon="9.53686861934675"><ele>822.0</ele><time>2026-04-30T10:29:46.003Z</time></trkpt><trkpt lat="40.19737635201197" lon="9.53676315474462"><ele>822.0</ele><time>2026-04-30T10:29:47.003Z</time></trkpt><trkpt lat="40.19737341011535" lon="9.536653664908656"><ele>822.0</ele><time>2026-04-30T10:29:48.003Z</time></trkpt><trkpt lat="40.197374445301094" lon="9.536541103708085"><ele>822.0</ele><time>2026-04-30T10:29:49.003Z</time></trkpt><trkpt lat="40.19737933949615" lon="9.536426864279283"><ele>822.0</ele><time>2026-04-30T10:29:50.003Z</time></trkpt><trkpt lat="40.19738566847902" lon="9.536314022019106"><ele>822.1428571428571</ele><time>2026-04-30T10:29:51.003Z</time></trkpt><trkpt lat="40.19738312475664" lon="9.536206956373853"><ele>822.2857142857142</ele><time>2026-04-30T10:29:52.003Z</time></trkpt><trkpt lat="40.19737253580445" lon="9.536108109950955"><ele>822.4285714285714</ele><time>2026-04-30T10:29:53.003Z</time></trkpt><trkpt lat="40.19734200690134" lon="9.5360197174559"><ele>822.5714285714286</ele><time>2026-04-30T10:29:54.003Z</time></trkpt><trkpt lat="40.19729328543067" lon="9.535953535285483"><ele>822.7142857142858</ele><time>2026-04-30T10:29:55.003Z</time></trkpt><trkpt lat="40.197234148010175" lon="9.535910425281362"><ele>822.8571428571429</ele><time>2026-04-30T10:29:56.003Z</time></trkpt><trkpt lat="40.197158404962074" lon="9.53589054946041"><ele>823.0</ele><time>2026-04-30T10:29:57.003Z</time></trkpt><trkpt lat="40.19706946552861" lon="9.535900649192156"><ele>821.0</ele><time>2026-04-30T10:29:58.003Z</time></trkpt><trkpt lat="40.196971982452986" lon="9.535941632910678"><ele>819.0</ele><time>2026-04-30T10:29:59.003Z</time></trkpt><trkpt lat="40.19687404035692" lon="9.535985581185003"><ele>817.0</ele><time>2026-04-30T10:30:00.003Z</time></trkpt><trkpt lat="40.19676474914972" lon="9.53601806273645"><ele>815.0</ele><time>2026-04-30T10:30:01.003Z</time></trkpt><trkpt lat="40.19666298154659" lon="9.536070812140368"><ele>813.0</ele><time>2026-04-30T10:30:02.003Z</time></trkpt><trkpt lat="40.19656467709251" lon="9.536123144838214"><ele>815.0</ele><time>2026-04-30T10:30:03.003Z</time></trkpt><trkpt lat="40.19646532526409" lon="9.536175602397012"><ele>817.0</ele><time>2026-04-30T10:30:04.003Z</time></trkpt><trkpt lat="40.19636345956101" lon="9.536235632607735"><ele>819.0</ele><time>2026-04-30T10:30:05.003Z</time></trkpt><trkpt lat="40.19626210707447" lon="9.536296489408677"><ele>821.0</ele><time>2026-04-30T10:30:06.003Z</time></trkpt><trkpt lat="40.19616296672702" lon="9.536362690433778"><ele>823.0</ele><time>2026-04-30T10:30:07.003Z</time></trkpt><trkpt lat="40.196065228364674" lon="9.536432228369222"><ele>823.0</ele><time>2026-04-30T10:30:08.003Z</time></trkpt><trkpt lat="40.19598039611023" lon="9.53652192297947"><ele>823.0</ele><time>2026-04-30T10:30:09.003Z</time></trkpt><trkpt lat="40.19589594291667" lon="9.536635160357307"><ele>823.0</ele><time>2026-04-30T10:30:10.003Z</time></trkpt><trkpt lat="40.19582014421503" lon="9.536760588558154"><ele>823.0</ele><time>2026-04-30T10:30:11.003Z</time></trkpt><trkpt lat="40.195748779563715" lon="9.536897992920188"><ele>823.0</ele><time>2026-04-30T10:30:12.003Z</time></trkpt><trkpt lat="40.19567640379686" lon="9.537040187324708"><ele>823.0</ele><time>2026-04-30T10:30:13.003Z</time></trkpt><trkpt lat="40.19559290733265" lon="9.537172015322797"><ele>823.0</ele><time>2026-04-30T10:30:14.003Z</time></trkpt><trkpt lat="40.19549985185089" lon="9.537294307083753"><ele>823.0</ele><time>2026-04-30T10:30:15.003Z</time></trkpt><trkpt lat="40.19539180238093" lon="9.537383789071903"><ele>826.5999999999999</ele><time>2026-04-30T10:30:16.003Z</time></trkpt><trkpt lat="40.19528814907362" lon="9.537442588557298"><ele>830.1999999999999</ele><time>2026-04-30T10:30:17.003Z</time></trkpt><trkpt lat="40.19518961069526" lon="9.537481595819791"><ele>833.8</ele><time>2026-04-30T10:30:18.003Z</time></trkpt><trkpt lat="40.195090540329495" lon="9.537478838745072"><ele>837.4</ele><time>2026-04-30T10:30:19.003Z</time></trkpt><trkpt lat="40.19499849221754" lon="9.53741130253566"><ele>841.0</ele><time>2026-04-30T10:30:20.003Z</time></trkpt><trkpt lat="40.19493079713754" lon="9.537298378690018"><ele>841.0</ele><time>2026-04-30T10:30:21.003Z</time></trkpt><trkpt lat="40.1948658293703" lon="9.53718549493719"><ele>841.0</ele><time>2026-04-30T10:30:22.003Z</time></trkpt><trkpt lat="40.1947712476179" lon="9.537101948174287"><ele>841.0</ele><time>2026-04-30T10:30:23.003Z</time></trkpt><trkpt lat="40.19465219906618" lon="9.537042157913953"><ele>841.0</ele><time>2026-04-30T10:30:24.003Z</time></trkpt><trkpt lat="40.19452845410319" lon="9.537011726285135"><ele>842.5</ele><time>2026-04-30T10:30:25.003Z</time></trkpt><trkpt lat="40.19440393042743" lon="9.536996609793706"><ele>844.0</ele><time>2026-04-30T10:30:26.003Z</time></trkpt><trkpt lat="40.19429086540537" lon="9.537004559014276"><ele>845.5</ele><time>2026-04-30T10:30:27.003Z</time></trkpt><trkpt lat="40.19418675778259" lon="9.537067034144018"><ele>847.0</ele><time>2026-04-30T10:30:28.003Z</time></trkpt><trkpt lat="40.194096695494345" lon="9.53716256902646"><ele>847.0</ele><time>2026-04-30T10:30:29.003Z</time></trkpt><trkpt lat="40.19401621040735" lon="9.53726858313062"><ele>847.0</ele><time>2026-04-30T10:30:30.003Z</time></trkpt><trkpt lat="40.19392970855143" lon="9.537352537289946"><ele>847.0</ele><time>2026-04-30T10:30:31.003Z</time></trkpt><trkpt lat="40.19382358232223" lon="9.537361375222998"><ele>847.0</ele><time>2026-04-30T10:30:32.003Z</time></trkpt><trkpt lat="40.19372778932598" lon="9.537309195151654"><ele>847.0</ele><time>2026-04-30T10:30:33.003Z</time></trkpt><trkpt lat="40.19363867648249" lon="9.537215095039068"><ele>848.6</ele><time>2026-04-30T10:30:34.003Z</time></trkpt><trkpt lat="40.193558656396426" lon="9.53711077622816"><ele>850.2</ele><time>2026-04-30T10:30:35.003Z</time></trkpt><trkpt lat="40.1934776122422" lon="9.537015414124065"><ele>851.8</ele><time>2026-04-30T10:30:36.003Z</time></trkpt><trkpt lat="40.19339710078997" lon="9.536932230325165"><ele>853.4</ele><time>2026-04-30T10:30:37.003Z</time></trkpt><trkpt lat="40.1933202125124" lon="9.536852577743689"><ele>855.0</ele><time>2026-04-30T10:30:38.003Z</time></trkpt><trkpt lat="40.193247182683855" lon="9.536752088255918"><ele>855.2</ele><time>2026-04-30T10:30:39.003Z</time></trkpt><trkpt lat="40.19317320925926" lon="9.536668216370929"><ele>855.4</ele><time>2026-04-30T10:30:40.003Z</time></trkpt><trkpt lat="40.19310314172369" lon="9.536587987158764"><ele>855.5999999999999</ele><time>2026-04-30T10:30:41.003Z</time></trkpt><trkpt lat="40.19303259632234" lon="9.536507403366256"><ele>855.8</ele><time>2026-04-30T10:30:42.003Z</time></trkpt><trkpt lat="40.19296494187408" lon="9.536435398653726"><ele>856.0</ele><time>2026-04-30T10:30:43.003Z</time></trkpt><trkpt lat="40.19289868224351" lon="9.536361965282492"><ele>855.9999999999999</ele><time>2026-04-30T10:30:44.003Z</time></trkpt><trkpt lat="40.19283862295185" lon="9.536284195628905"><ele>856.0</ele><time>2026-04-30T10:30:45.003Z</time></trkpt><trkpt lat="40.192788486886414" lon="9.536194655386364"><ele>856.0</ele><time>2026-04-30T10:30:46.003Z</time></trkpt><trkpt lat="40.192763673001274" lon="9.536085871659331"><ele>856.0</ele><time>2026-04-30T10:30:47.003Z</time></trkpt><trkpt lat="40.19276019120039" lon="9.535959865511344"><ele>855.9999999999999</ele><time>2026-04-30T10:30:48.003Z</time></trkpt><trkpt lat="40.19275078049889" lon="9.535838697804698"><ele>856.0</ele><time>2026-04-30T10:30:49.003Z</time></trkpt><trkpt lat="40.192714219252416" lon="9.535730163964987"><ele>849.1999999999999</ele><time>2026-04-30T10:30:50.003Z</time></trkpt><trkpt lat="40.192643383953786" lon="9.53565320142089"><ele>842.3999999999999</ele><time>2026-04-30T10:30:51.003Z</time></trkpt><trkpt lat="40.19256153337624" lon="9.535605149769646"><ele>835.6</ele><time>2026-04-30T10:30:52.003Z</time></trkpt><trkpt lat="40.192460973320834" lon="9.535586123852553"><ele>828.8</ele><time>2026-04-30T10:30:53.003Z</time></trkpt><trkpt lat="40.19234676004777" lon="9.535599200244445"><ele>822.0</ele><time>2026-04-30T10:30:54.003Z</time></trkpt><trkpt lat="40.192232245216324" lon="9.53562984694526"><ele>821.0</ele><time>2026-04-30T10:30:55.003Z</time></trkpt><trkpt lat="40.19211728231412" lon="9.535648396032265"><ele>820.0</ele><time>2026-04-30T10:30:56.003Z</time></trkpt><trkpt lat="40.1920037411878" lon="9.535687196314852"><ele>819.0</ele><time>2026-04-30T10:30:57.003Z</time></trkpt><trkpt lat="40.191888010810366" lon="9.535748490315477"><ele>818.0</ele><time>2026-04-30T10:30:58.003Z</time></trkpt><trkpt lat="40.19177557956307" lon="9.535811596101064"><ele>818.0</ele><time>2026-04-30T10:30:59.002Z</time></trkpt><trkpt lat="40.19165995284551" lon="9.535879614851488"><ele>818.0</ele><time>2026-04-30T10:31:00.002Z</time></trkpt><trkpt lat="40.19154097586962" lon="9.535940936922946"><ele>818.0</ele><time>2026-04-30T10:31:01.002Z</time></trkpt><trkpt lat="40.19142164355137" lon="9.536001148933329"><ele>818.0</ele><time>2026-04-30T10:31:02.002Z</time></trkpt><trkpt lat="40.191297448535984" lon="9.536061931327724"><ele>811.75</ele><time>2026-04-30T10:31:03.004Z</time></trkpt><trkpt lat="40.191181278909625" lon="9.536125506305043"><ele>805.5</ele><time>2026-04-30T10:31:04.003Z</time></trkpt><trkpt lat="40.191077764174935" lon="9.536197680789359"><ele>799.25</ele><time>2026-04-30T10:31:05.003Z</time></trkpt><trkpt lat="40.19098129343927" lon="9.536274358653388"><ele>793.0</ele><time>2026-04-30T10:31:06.004Z</time></trkpt><trkpt lat="40.19089449427828" lon="9.536356302984748"><ele>802.5999999999999</ele><time>2026-04-30T10:31:07.003Z</time></trkpt><trkpt lat="40.190807381536075" lon="9.536427151093509"><ele>812.1999999999999</ele><time>2026-04-30T10:31:08.003Z</time></trkpt><trkpt lat="40.19071740728206" lon="9.536470685474626"><ele>821.8</ele><time>2026-04-30T10:31:09.003Z</time></trkpt><trkpt lat="40.19062058114388" lon="9.536480836694112"><ele>831.4</ele><time>2026-04-30T10:31:10.003Z</time></trkpt><trkpt lat="40.190526945977304" lon="9.536465167595285"><ele>841.0</ele><time>2026-04-30T10:31:11.003Z</time></trkpt><trkpt lat="40.190442230210785" lon="9.536482385221758"><ele>841.0</ele><time>2026-04-30T10:31:12.004Z</time></trkpt><trkpt lat="40.19036084895374" lon="9.53651600412946"><ele>841.0</ele><time>2026-04-30T10:31:13.003Z</time></trkpt><trkpt lat="40.1902872771338" lon="9.53655458134533"><ele>841.0</ele><time>2026-04-30T10:31:14.003Z</time></trkpt><trkpt lat="40.1902185719323" lon="9.53658155434195"><ele>841.0</ele><time>2026-04-30T10:31:15.004Z</time></trkpt><trkpt lat="40.19015028310836" lon="9.53658232314584"><ele>841.0</ele><time>2026-04-30T10:31:16.003Z</time></trkpt><trkpt lat="40.190088784822876" lon="9.536552326574668"><ele>841.0</ele><time>2026-04-30T10:31:17.003Z</time></trkpt><trkpt lat="40.19003234690945" lon="9.536480864825164"><ele>841.0</ele><time>2026-04-30T10:31:18.003Z</time></trkpt><trkpt lat="40.18998843497377" lon="9.536391943516632"><ele>841.0</ele><time>2026-04-30T10:31:19.003Z</time></trkpt><trkpt lat="40.189943335276205" lon="9.536293080751978"><ele>841.0</ele><time>2026-04-30T10:31:20.003Z</time></trkpt><trkpt lat="40.189896134064895" lon="9.536190488136953"><ele>841.0</ele><time>2026-04-30T10:31:21.003Z</time></trkpt><trkpt lat="40.189854791993355" lon="9.536074984097054"><ele>841.0</ele><time>2026-04-30T10:31:22.003Z</time></trkpt><trkpt lat="40.189801859428826" lon="9.535980753151186"><ele>841.0</ele><time>2026-04-30T10:31:23.003Z</time></trkpt><trkpt lat="40.18972102407296" lon="9.535906069637225"><ele>838.0</ele><time>2026-04-30T10:31:24.003Z</time></trkpt><trkpt lat="40.18961798031324" lon="9.535854431291735"><ele>835.0</ele><time>2026-04-30T10:31:25.003Z</time></trkpt><trkpt lat="40.189500928572244" lon="9.535802926181798"><ele>832.0</ele><time>2026-04-30T10:31:26.003Z</time></trkpt><trkpt lat="40.18938964685813" lon="9.535742025255121"><ele>829.0</ele><time>2026-04-30T10:31:27.003Z</time></trkpt><trkpt lat="40.189287281607044" lon="9.535682804491856"><ele>829.0</ele><time>2026-04-30T10:31:28.003Z</time></trkpt><trkpt lat="40.18918808127308" lon="9.535624138283767"><ele>829.0</ele><time>2026-04-30T10:31:29.003Z</time></trkpt><trkpt lat="40.18909122947777" lon="9.53557558817835"><ele>829.0</ele><time>2026-04-30T10:31:30.003Z</time></trkpt><trkpt lat="40.18898930058309" lon="9.535557707378077"><ele>829.0</ele><time>2026-04-30T10:31:31.003Z</time></trkpt><trkpt lat="40.188884820345066" lon="9.535584120968736"><ele>829.0</ele><time>2026-04-30T10:31:32.003Z</time></trkpt><trkpt lat="40.1887719634014" lon="9.53563556722143"><ele>828.0</ele><time>2026-04-30T10:31:33.003Z</time></trkpt><trkpt lat="40.188653494227914" lon="9.535701922798873"><ele>827.0</ele><time>2026-04-30T10:31:34.003Z</time></trkpt><trkpt lat="40.18854042345087" lon="9.535789505068674"><ele>826.0</ele><time>2026-04-30T10:31:35.003Z</time></trkpt><trkpt lat="40.18843325090961" lon="9.53588001039319"><ele>825.0</ele><time>2026-04-30T10:31:36.003Z</time></trkpt><trkpt lat="40.188333569965835" lon="9.535971641254001"><ele>825.0</ele><time>2026-04-30T10:31:37.003Z</time></trkpt><trkpt lat="40.1882357566695" lon="9.53604065827604"><ele>825.0</ele><time>2026-04-30T10:31:38.003Z</time></trkpt><trkpt lat="40.188138975391716" lon="9.536095441828115"><ele>825.0</ele><time>2026-04-30T10:31:39.003Z</time></trkpt><trkpt lat="40.188032158980434" lon="9.536105165152202"><ele>825.0</ele><time>2026-04-30T10:31:40.003Z</time></trkpt><trkpt lat="40.18792094260276" lon="9.536054794043375"><ele>825.0</ele><time>2026-04-30T10:31:41.003Z</time></trkpt><trkpt lat="40.18781499534009" lon="9.535970816624735"><ele>826.5</ele><time>2026-04-30T10:31:42.003Z</time></trkpt><trkpt lat="40.18770924431205" lon="9.535880858743523"><ele>828.0</ele><time>2026-04-30T10:31:43.003Z</time></trkpt><trkpt lat="40.18760335671263" lon="9.535781686014005"><ele>829.5</ele><time>2026-04-30T10:31:44.003Z</time></trkpt><trkpt lat="40.18751307701804" lon="9.535677082852242"><ele>831.0</ele><time>2026-04-30T10:31:45.003Z</time></trkpt><trkpt lat="40.18743040657545" lon="9.535577339549532"><ele>830.5999999999999</ele><time>2026-04-30T10:31:46.003Z</time></trkpt><trkpt lat="40.18734023669553" lon="9.535503585264328"><ele>830.2</ele><time>2026-04-30T10:31:47.003Z</time></trkpt><trkpt lat="40.187235879141596" lon="9.53547118418497"><ele>829.8</ele><time>2026-04-30T10:31:48.003Z</time></trkpt><trkpt lat="40.187127069728824" lon="9.535498401095312"><ele>829.4000000000001</ele><time>2026-04-30T10:31:49.003Z</time></trkpt><trkpt lat="40.187017744784676" lon="9.535572292838316"><ele>829.0</ele><time>2026-04-30T10:31:50.003Z</time></trkpt><trkpt lat="40.18689953768856" lon="9.53568372521995"><ele>829.0</ele><time>2026-04-30T10:31:51.003Z</time></trkpt><trkpt lat="40.18677042126783" lon="9.535805091157181"><ele>829.0</ele><time>2026-04-30T10:31:52.003Z</time></trkpt><trkpt lat="40.18665024099871" lon="9.535925023336128"><ele>829.0</ele><time>2026-04-30T10:31:53.003Z</time></trkpt><trkpt lat="40.18654043282827" lon="9.53601234934483"><ele>829.0</ele><time>2026-04-30T10:31:54.003Z</time></trkpt><trkpt lat="40.186466937188925" lon="9.536105290286999"><ele>831.6</ele><time>2026-04-30T10:31:55.003Z</time></trkpt><trkpt lat="40.18639956323297" lon="9.53619044910141"><ele>834.2</ele><time>2026-04-30T10:31:56.003Z</time></trkpt><trkpt lat="40.18632730281427" lon="9.536261540617247"><ele>836.8000000000001</ele><time>2026-04-30T10:31:57.003Z</time></trkpt><trkpt lat="40.18624116829524" lon="9.536306526409346"><ele>839.4000000000001</ele><time>2026-04-30T10:31:58.003Z</time></trkpt><trkpt lat="40.18614602006183" lon="9.536311705140703"><ele>842.0</ele><time>2026-04-30T10:31:59.003Z</time></trkpt><trkpt lat="40.18605545606432" lon="9.536275719625596"><ele>842.0</ele><time>2026-04-30T10:32:00.003Z</time></trkpt><trkpt lat="40.18597870890541" lon="9.536193553227443"><ele>842.0</ele><time>2026-04-30T10:32:01.003Z</time></trkpt><trkpt lat="40.185929551108664" lon="9.536068970325392"><ele>842.0</ele><time>2026-04-30T10:32:02.002Z</time></trkpt><trkpt lat="40.185849242606736" lon="9.535982790441649"><ele>842.0</ele><time>2026-04-30T10:32:03.002Z</time></trkpt><trkpt lat="40.18576718410466" lon="9.535908780364409"><ele>842.0</ele><time>2026-04-30T10:32:04.002Z</time></trkpt><trkpt lat="40.185691496647486" lon="9.535840287094185"><ele>847.0</ele><time>2026-04-30T10:32:05.002Z</time></trkpt><trkpt lat="40.185648109333044" lon="9.535750207116296"><ele>852.0</ele><time>2026-04-30T10:32:06.002Z</time></trkpt><trkpt lat="40.18563751673279" lon="9.535612506427903"><ele>857.0</ele><time>2026-04-30T10:32:07.002Z</time></trkpt><trkpt lat="40.18564309625606" lon="9.535472883865335"><ele>862.0</ele><time>2026-04-30T10:32:08.002Z</time></trkpt><trkpt lat="40.18565420961503" lon="9.535330998013478"><ele>867.0</ele><time>2026-04-30T10:32:09.002Z</time></trkpt><trkpt lat="40.18565861219372" lon="9.535180291660668"><ele>867.0</ele><time>2026-04-30T10:32:10.002Z</time></trkpt><trkpt lat="40.1856471632737" lon="9.535020373796335"><ele>867.0</ele><time>2026-04-30T10:32:11.002Z</time></trkpt><trkpt lat="40.18561092474911" lon="9.534865565363386"><ele>867.0</ele><time>2026-04-30T10:32:12.002Z</time></trkpt><trkpt lat="40.185560319757634" lon="9.534724207979073"><ele>867.0</ele><time>2026-04-30T10:32:13.002Z</time></trkpt><trkpt lat="40.18551309415421" lon="9.534590139802717"><ele>861.2</ele><time>2026-04-30T10:32:14.002Z</time></trkpt><trkpt lat="40.18547582380306" lon="9.534466072068176"><ele>855.4000000000001</ele><time>2026-04-30T10:32:15.002Z</time></trkpt><trkpt lat="40.18542188228242" lon="9.534359416747485"><ele>849.5999999999999</ele><time>2026-04-30T10:32:16.002Z</time></trkpt><trkpt lat="40.185333630083825" lon="9.53428706680278"><ele>843.8</ele><time>2026-04-30T10:32:17.002Z</time></trkpt><trkpt lat="40.185217683716765" lon="9.534279338240731"><ele>838.0</ele><time>2026-04-30T10:32:18.002Z</time></trkpt><trkpt lat="40.185083772346644" lon="9.534300726483592"><ele>838.0</ele><time>2026-04-30T10:32:19.002Z</time></trkpt><trkpt lat="40.184914165324564" lon="9.534337960183475"><ele>838.0</ele><time>2026-04-30T10:32:20.002Z</time></trkpt><trkpt lat="40.18475863060555" lon="9.534357902705006"><ele>838.0</ele><time>2026-04-30T10:32:21.002Z</time></trkpt><trkpt lat="40.184634455339804" lon="9.534371902208164"><ele>845.25</ele><time>2026-04-30T10:32:22.002Z</time></trkpt><trkpt lat="40.18454126722222" lon="9.534320998734694"><ele>852.5</ele><time>2026-04-30T10:32:23.002Z</time></trkpt><trkpt lat="40.184481587054144" lon="9.534217246894974"><ele>859.75</ele><time>2026-04-30T10:32:24.002Z</time></trkpt><trkpt lat="40.184470576112034" lon="9.5340512894643"><ele>867.0</ele><time>2026-04-30T10:32:25.002Z</time></trkpt><trkpt lat="40.18442289693185" lon="9.533876928285924"><ele>863.75</ele><time>2026-04-30T10:32:26.002Z</time></trkpt><trkpt lat="40.1843572330477" lon="9.533714069995943"><ele>860.5</ele><time>2026-04-30T10:32:27.002Z</time></trkpt><trkpt lat="40.184254632912484" lon="9.533577416301389"><ele>857.25</ele><time>2026-04-30T10:32:28.002Z</time></trkpt><trkpt lat="40.184121200574914" lon="9.53347748442992"><ele>854.0</ele><time>2026-04-30T10:32:29.002Z</time></trkpt><trkpt lat="40.18396743267327" lon="9.53341348643705"><ele>854.0</ele><time>2026-04-30T10:32:30.002Z</time></trkpt><trkpt lat="40.183818847947755" lon="9.533380609835945"><ele>854.0</ele><time>2026-04-30T10:32:31.002Z</time></trkpt><trkpt lat="40.18365998811785" lon="9.533323632936511"><ele>854.0</ele><time>2026-04-30T10:32:32.002Z</time></trkpt><trkpt lat="40.18343898776954" lon="9.533271804581863"><ele>854.0</ele><time>2026-04-30T10:32:33.002Z</time></trkpt><trkpt lat="40.18321170553904" lon="9.533243965196522"><ele>854.0</ele><time>2026-04-30T10:32:34.002Z</time></trkpt><trkpt lat="40.18300553063466" lon="9.533218078082324"><ele>854.0</ele><time>2026-04-30T10:32:35.002Z</time></trkpt><trkpt lat="40.18281276444161" lon="9.533196379364215"><ele>859.0</ele><time>2026-04-30T10:32:36.002Z</time></trkpt><trkpt lat="40.182622018402604" lon="9.53316359343749"><ele>864.0</ele><time>2026-04-30T10:32:37.002Z</time></trkpt><trkpt lat="40.18244464340286" lon="9.533084334603704"><ele>869.0</ele><time>2026-04-30T10:32:38.002Z</time></trkpt><trkpt lat="40.18226098566923" lon="9.53299439618869"><ele>871.3333333333334</ele><time>2026-04-30T10:32:39.002Z</time></trkpt><trkpt lat="40.182085874538664" lon="9.532905780244182"><ele>873.6666666666667</ele><time>2026-04-30T10:32:40.002Z</time></trkpt><trkpt lat="40.18192637598679" lon="9.532851192037853"><ele>876.0</ele><time>2026-04-30T10:32:41.002Z</time></trkpt><trkpt lat="40.18179361893231" lon="9.53278881529059"><ele>878.25</ele><time>2026-04-30T10:32:42.002Z</time></trkpt><trkpt lat="40.18166329682974" lon="9.532785127418046"><ele>880.5</ele><time>2026-04-30T10:32:43.002Z</time></trkpt><trkpt lat="40.1815250543932" lon="9.532830184818298"><ele>882.75</ele><time>2026-04-30T10:32:44.002Z</time></trkpt><trkpt lat="40.18138940706905" lon="9.53292667992263"><ele>885.0</ele><time>2026-04-30T10:32:45.002Z</time></trkpt><trkpt lat="40.18124432229578" lon="9.53299615888086"><ele>885.0</ele><time>2026-04-30T10:32:46.002Z</time></trkpt><trkpt lat="40.18109333813054" lon="9.532970626306046"><ele>885.0</ele><time>2026-04-30T10:32:47.002Z</time></trkpt><trkpt lat="40.1809248159657" lon="9.532915805211607"><ele>885.0</ele><time>2026-04-30T10:32:48.002Z</time></trkpt><trkpt lat="40.18073357532424" lon="9.532859837700645"><ele>871.3333333333333</ele><time>2026-04-30T10:32:49.002Z</time></trkpt><trkpt lat="40.180547379131845" lon="9.532795676681864"><ele>857.6666666666666</ele><time>2026-04-30T10:32:50.002Z</time></trkpt><trkpt lat="40.180370346160025" lon="9.532745670977336"><ele>844.0</ele><time>2026-04-30T10:32:51.002Z</time></trkpt><trkpt lat="40.18018532519377" lon="9.532736115296284"><ele>844.0</ele><time>2026-04-30T10:32:52.002Z</time></trkpt><trkpt lat="40.17999511177279" lon="9.532773614137186"><ele>844.0</ele><time>2026-04-30T10:32:53.002Z</time></trkpt><trkpt lat="40.179798620578275" lon="9.532812537807441"><ele>844.0</ele><time>2026-04-30T10:32:54.002Z</time></trkpt><trkpt lat="40.17960680200662" lon="9.532826025130587"><ele>850.6666666666666</ele><time>2026-04-30T10:32:55.002Z</time></trkpt><trkpt lat="40.17943128366448" lon="9.532773207649512"><ele>857.3333333333333</ele><time>2026-04-30T10:32:56.002Z</time></trkpt><trkpt lat="40.17927888012676" lon="9.532732775781025"><ele>864.0</ele><time>2026-04-30T10:32:57.002Z</time></trkpt><trkpt lat="40.179149147762004" lon="9.53268284517012"><ele>864.0</ele><time>2026-04-30T10:32:58.002Z</time></trkpt><trkpt lat="40.179052680233305" lon="9.532564376886315"><ele>864.0</ele><time>2026-04-30T10:32:59.002Z</time></trkpt><trkpt lat="40.17901450782844" lon="9.53239725873268"><ele>864.0</ele><time>2026-04-30T10:33:00.002Z</time></trkpt><trkpt lat="40.1790180586738" lon="9.532225027567705"><ele>864.0</ele><time>2026-04-30T10:33:01.002Z</time></trkpt><trkpt lat="40.17906309964643" lon="9.53203488308867"><ele>861.6666666666667</ele><time>2026-04-30T10:33:02.002Z</time></trkpt><trkpt lat="40.179071083952714" lon="9.531825593239237"><ele>859.3333333333334</ele><time>2026-04-30T10:33:03.002Z</time></trkpt><trkpt lat="40.17906134445082" lon="9.531590172295475"><ele>857.0</ele><time>2026-04-30T10:33:04.002Z</time></trkpt><trkpt lat="40.17903382837593" lon="9.531351860989"><ele>860.3333333333334</ele><time>2026-04-30T10:33:05.002Z</time></trkpt><trkpt lat="40.17907671176195" lon="9.531109531197908"><ele>863.6666666666667</ele><time>2026-04-30T10:33:06.002Z</time></trkpt><trkpt lat="40.17912552592628" lon="9.530853339900611"><ele>867.0</ele><time>2026-04-30T10:33:07.002Z</time></trkpt><trkpt lat="40.17919614782709" lon="9.53062861713743"><ele>867.0</ele><time>2026-04-30T10:33:08.002Z</time></trkpt><trkpt lat="40.17927754594707" lon="9.530434494469645"><ele>867.0</ele><time>2026-04-30T10:33:09.003Z</time></trkpt><trkpt lat="40.179334538536374" lon="9.53026698502298"><ele>867.0</ele><time>2026-04-30T10:33:10.003Z</time></trkpt><trkpt lat="40.179342873297415" lon="9.5301163835098"><ele>867.0</ele><time>2026-04-30T10:33:11.003Z</time></trkpt><trkpt lat="40.179286096553234" lon="9.529971051959336"><ele>867.3333333333333</ele><time>2026-04-30T10:33:12.004Z</time></trkpt><trkpt lat="40.17918122243945" lon="9.529807446144186"><ele>867.6666666666666</ele><time>2026-04-30T10:33:13.003Z</time></trkpt><trkpt lat="40.179070847792794" lon="9.52963098540384"><ele>868.0</ele><time>2026-04-30T10:33:14.003Z</time></trkpt><trkpt lat="40.17898941780293" lon="9.52943605646333"><ele>870.75</ele><time>2026-04-30T10:33:15.004Z</time></trkpt><trkpt lat="40.17893453021165" lon="9.52926897269038"><ele>873.5</ele><time>2026-04-30T10:33:16.004Z</time></trkpt><trkpt lat="40.178855363824454" lon="9.529144302176555"><ele>876.25</ele><time>2026-04-30T10:33:17.004Z</time></trkpt><trkpt lat="40.17874759947164" lon="9.529055826013554"><ele>879.0</ele><time>2026-04-30T10:33:18.003Z</time></trkpt><trkpt lat="40.178594171221704" lon="9.52903860976699"><ele>879.0</ele><time>2026-04-30T10:33:19.004Z</time></trkpt><trkpt lat="40.17841961610257" lon="9.529032867751033"><ele>879.0</ele><time>2026-04-30T10:33:20.004Z</time></trkpt><trkpt lat="40.17828405154613" lon="9.528938046528136"><ele>879.0</ele><time>2026-04-30T10:33:21.004Z</time></trkpt><trkpt lat="40.17813730898484" lon="9.528802154109435"><ele>881.0</ele><time>2026-04-30T10:33:22.004Z</time></trkpt><trkpt lat="40.177987772728734" lon="9.52866435388111"><ele>883.0</ele><time>2026-04-30T10:33:23.004Z</time></trkpt><trkpt lat="40.17783320896958" lon="9.528522321544479"><ele>885.0</ele><time>2026-04-30T10:33:24.004Z</time></trkpt><trkpt lat="40.17772045733618" lon="9.528317095377517"><ele>885.0</ele><time>2026-04-30T10:33:25.004Z</time></trkpt><trkpt lat="40.17757648512568" lon="9.528124103455804"><ele>885.0</ele><time>2026-04-30T10:33:26.004Z</time></trkpt><trkpt lat="40.17745295898859" lon="9.527908771894058"><ele>885.0</ele><time>2026-04-30T10:33:27.004Z</time></trkpt><trkpt lat="40.17732873086301" lon="9.527707151920064"><ele>888.6666666666667</ele><time>2026-04-30T10:33:28.004Z</time></trkpt><trkpt lat="40.17720935453866" lon="9.527538412465427"><ele>892.3333333333334</ele><time>2026-04-30T10:33:29.004Z</time></trkpt><trkpt lat="40.177079413813736" lon="9.527402102056323"><ele>896.0</ele><time>2026-04-30T10:33:30.004Z</time></trkpt><trkpt lat="40.176916249819584" lon="9.52730417079505"><ele>896.0</ele><time>2026-04-30T10:33:31.004Z</time></trkpt><trkpt lat="40.17674116633054" lon="9.527212151682255"><ele>896.0</ele><time>2026-04-30T10:33:32.004Z</time></trkpt><trkpt lat="40.17656141363765" lon="9.527115038364114"><ele>896.0</ele><time>2026-04-30T10:33:33.004Z</time></trkpt><trkpt lat="40.176389673855084" lon="9.52704243839128"><ele>898.75</ele><time>2026-04-30T10:33:34.004Z</time></trkpt><trkpt lat="40.17622889494193" lon="9.527002250839683"><ele>901.5</ele><time>2026-04-30T10:33:35.004Z</time></trkpt><trkpt lat="40.17609838939431" lon="9.52700159089409"><ele>904.25</ele><time>2026-04-30T10:33:36.004Z</time></trkpt><trkpt lat="40.17598120714708" lon="9.527055653297623"><ele>907.0</ele><time>2026-04-30T10:33:37.004Z</time></trkpt><trkpt lat="40.17586641998757" lon="9.527158305216938"><ele>907.0</ele><time>2026-04-30T10:33:38.004Z</time></trkpt><trkpt lat="40.17575175800363" lon="9.527277540551546"><ele>907.0</ele><time>2026-04-30T10:33:39.004Z</time></trkpt><trkpt lat="40.17563070257134" lon="9.527326323181201"><ele>907.0</ele><time>2026-04-30T10:33:40.004Z</time></trkpt><trkpt lat="40.17550187666343" lon="9.527237276938063"><ele>907.0</ele><time>2026-04-30T10:33:41.004Z</time></trkpt><trkpt lat="40.17531651248794" lon="9.52719766693217"><ele>908.0</ele><time>2026-04-30T10:33:42.004Z</time></trkpt><trkpt lat="40.17511342361809" lon="9.527228706724"><ele>909.0</ele><time>2026-04-30T10:33:43.004Z</time></trkpt><trkpt lat="40.174894117081" lon="9.527210977915773"><ele>910.0</ele><time>2026-04-30T10:33:44.004Z</time></trkpt><trkpt lat="40.17466237414408" lon="9.52712895354817"><ele>913.0</ele><time>2026-04-30T10:33:45.004Z</time></trkpt><trkpt lat="40.174403338625446" lon="9.527080537699813"><ele>916.0</ele><time>2026-04-30T10:33:46.004Z</time></trkpt><trkpt lat="40.17414899057916" lon="9.527008093475084"><ele>903.5</ele><time>2026-04-30T10:33:47.004Z</time></trkpt><trkpt lat="40.173905696190985" lon="9.526943819203707"><ele>891.0</ele><time>2026-04-30T10:33:48.004Z</time></trkpt><trkpt lat="40.173684147276916" lon="9.526884495716827"><ele>891.0</ele><time>2026-04-30T10:33:49.004Z</time></trkpt><trkpt lat="40.17348232457416" lon="9.526838188277466"><ele>891.0</ele><time>2026-04-30T10:33:50.004Z</time></trkpt><trkpt lat="40.17328937182151" lon="9.526801032468908"><ele>891.0</ele><time>2026-04-30T10:33:51.004Z</time></trkpt><trkpt lat="40.173093054766596" lon="9.526809599093635"><ele>895.6666666666667</ele><time>2026-04-30T10:33:52.004Z</time></trkpt><trkpt lat="40.17289834726191" lon="9.526878955557818"><ele>900.3333333333334</ele><time>2026-04-30T10:33:53.004Z</time></trkpt><trkpt lat="40.1726880173655" lon="9.526940636932608"><ele>905.0</ele><time>2026-04-30T10:33:54.004Z</time></trkpt><trkpt lat="40.17247539254509" lon="9.52697884720787"><ele>904.6666666666667</ele><time>2026-04-30T10:33:55.004Z</time></trkpt><trkpt lat="40.17226446413985" lon="9.527030057133752"><ele>904.3333333333333</ele><time>2026-04-30T10:33:56.004Z</time></trkpt><trkpt lat="40.17204648822414" lon="9.527079150952021"><ele>904.0</ele><time>2026-04-30T10:33:57.004Z</time></trkpt><trkpt lat="40.17183345304615" lon="9.527118299456122"><ele>904.0</ele><time>2026-04-30T10:33:58.004Z</time></trkpt><trkpt lat="40.17162729145966" lon="9.527127996309545"><ele>904.0</ele><time>2026-04-30T10:33:59.004Z</time></trkpt><trkpt lat="40.17142676116507" lon="9.527072570408855"><ele>904.0</ele><time>2026-04-30T10:34:00.004Z</time></trkpt><trkpt lat="40.17121494709454" lon="9.526999737296036"><ele>903.6666666666666</ele><time>2026-04-30T10:34:01.004Z</time></trkpt><trkpt lat="40.17099123561537" lon="9.526940846715819"><ele>903.3333333333333</ele><time>2026-04-30T10:34:02.004Z</time></trkpt><trkpt lat="40.17080003004215" lon="9.526845609957"><ele>903.0</ele><time>2026-04-30T10:34:03.004Z</time></trkpt><trkpt lat="40.17064555248036" lon="9.526754618675948"><ele>903.0</ele><time>2026-04-30T10:34:04.004Z</time></trkpt><trkpt lat="40.17053704397219" lon="9.5266090106049"><ele>903.0</ele><time>2026-04-30T10:34:05.004Z</time></trkpt><trkpt lat="40.170440117985315" lon="9.52643693589032"><ele>903.0</ele><time>2026-04-30T10:34:06.004Z</time></trkpt><trkpt lat="40.1703582633591" lon="9.52621934809094"><ele>906.3333333333333</ele><time>2026-04-30T10:34:07.004Z</time></trkpt><trkpt lat="40.1702645604763" lon="9.525995724635944"><ele>909.6666666666666</ele><time>2026-04-30T10:34:08.004Z</time></trkpt><trkpt lat="40.17018565646624" lon="9.525820572755729"><ele>913.0</ele><time>2026-04-30T10:34:09.004Z</time></trkpt><trkpt lat="40.1700927158334" lon="9.525723491352647"><ele>913.0</ele><time>2026-04-30T10:34:10.004Z</time></trkpt><trkpt lat="40.169985016721135" lon="9.525702398684892"><ele>913.0</ele><time>2026-04-30T10:34:11.004Z</time></trkpt><trkpt lat="40.16985802171289" lon="9.525759196657946"><ele>913.0</ele><time>2026-04-30T10:34:12.004Z</time></trkpt><trkpt lat="40.169761972561915" lon="9.525890633988917"><ele>913.0</ele><time>2026-04-30T10:34:13.004Z</time></trkpt><trkpt lat="40.16969650548952" lon="9.526094996142241"><ele>916.6666666666666</ele><time>2026-04-30T10:34:14.004Z</time></trkpt><trkpt lat="40.16964699942314" lon="9.526330855058381"><ele>920.3333333333333</ele><time>2026-04-30T10:34:15.004Z</time></trkpt><trkpt lat="40.169553368776825" lon="9.526528115630093"><ele>924.0</ele><time>2026-04-30T10:34:16.004Z</time></trkpt><trkpt lat="40.1694306699853" lon="9.526706040780624"><ele>924.0</ele><time>2026-04-30T10:34:17.004Z</time></trkpt><trkpt lat="40.16927357099393" lon="9.526845278266428"><ele>924.0</ele><time>2026-04-30T10:34:18.004Z</time></trkpt><trkpt lat="40.1690749530431" lon="9.527018161054993"><ele>924.0</ele><time>2026-04-30T10:34:19.004Z</time></trkpt><trkpt lat="40.16885045002969" lon="9.527214837708762"><ele>925.5</ele><time>2026-04-30T10:34:20.004Z</time></trkpt><trkpt lat="40.16860631358065" lon="9.527425244237747"><ele>927.0</ele><time>2026-04-30T10:34:21.004Z</time></trkpt><trkpt lat="40.1683601801707" lon="9.5276399148013"><ele>927.5</ele><time>2026-04-30T10:34:22.004Z</time></trkpt><trkpt lat="40.16813820172136" lon="9.527827771540677"><ele>928.0</ele><time>2026-04-30T10:34:23.004Z</time></trkpt><trkpt lat="40.16791219743826" lon="9.527966906689379"><ele>928.0</ele><time>2026-04-30T10:34:24.004Z</time></trkpt><trkpt lat="40.167662073808074" lon="9.528078797885607"><ele>928.0</ele><time>2026-04-30T10:34:25.004Z</time></trkpt><trkpt lat="40.167398902815194" lon="9.528195914747718"><ele>931.5</ele><time>2026-04-30T10:34:26.004Z</time></trkpt><trkpt lat="40.16715031001335" lon="9.528305575943698"><ele>935.0</ele><time>2026-04-30T10:34:27.004Z</time></trkpt><trkpt lat="40.16692199614282" lon="9.528387514848838"><ele>935.0</ele><time>2026-04-30T10:34:28.004Z</time></trkpt><trkpt lat="40.16670417543799" lon="9.52840939714867"><ele>935.0</ele><time>2026-04-30T10:34:29.004Z</time></trkpt><trkpt lat="40.16647718515331" lon="9.528408186753127"><ele>935.0</ele><time>2026-04-30T10:34:30.004Z</time></trkpt><trkpt lat="40.166261828305714" lon="9.528419952353387"><ele>936.3333333333334</ele><time>2026-04-30T10:34:31.004Z</time></trkpt><trkpt lat="40.166056182625674" lon="9.528422610853838"><ele>937.6666666666667</ele><time>2026-04-30T10:34:32.004Z</time></trkpt><trkpt lat="40.16586576534737" lon="9.528534830416302"><ele>939.0</ele><time>2026-04-30T10:34:33.004Z</time></trkpt><trkpt lat="40.165685084666165" lon="9.528663334485321"><ele>935.6666666666667</ele><time>2026-04-30T10:34:34.004Z</time></trkpt><trkpt lat="40.165508709934365" lon="9.52880055401359"><ele>932.3333333333334</ele><time>2026-04-30T10:34:35.004Z</time></trkpt><trkpt lat="40.165312975110396" lon="9.528860396949579"><ele>929.0</ele><time>2026-04-30T10:34:36.003Z</time></trkpt><trkpt lat="40.16511107170564" lon="9.528878149445134"><ele>929.0</ele><time>2026-04-30T10:34:37.003Z</time></trkpt><trkpt lat="40.164883269424514" lon="9.52888117512954"><ele>929.0</ele><time>2026-04-30T10:34:38.003Z</time></trkpt><trkpt lat="40.1646344044154" lon="9.528884480560563"><ele>931.0</ele><time>2026-04-30T10:34:39.003Z</time></trkpt><trkpt lat="40.164391725211544" lon="9.528887705316954"><ele>933.0</ele><time>2026-04-30T10:34:40.003Z</time></trkpt><trkpt lat="40.16416424580567" lon="9.528898911218475"><ele>933.0</ele><time>2026-04-30T10:34:41.003Z</time></trkpt><trkpt lat="40.1639687919299" lon="9.52882234683601"><ele>933.0</ele><time>2026-04-30T10:34:42.003Z</time></trkpt><trkpt lat="40.16378864010069" lon="9.52873488644495"><ele>933.0</ele><time>2026-04-30T10:34:43.003Z</time></trkpt><trkpt lat="40.163633544356536" lon="9.528615606746019"><ele>935.3333333333333</ele><time>2026-04-30T10:34:44.003Z</time></trkpt><trkpt lat="40.16353306178741" lon="9.52845206909742"><ele>937.6666666666666</ele><time>2026-04-30T10:34:45.003Z</time></trkpt><trkpt lat="40.163477963811786" lon="9.528263061408706"><ele>940.0</ele><time>2026-04-30T10:34:46.003Z</time></trkpt><trkpt lat="40.16344243260807" lon="9.52804427322144"><ele>938.0</ele><time>2026-04-30T10:34:47.003Z</time></trkpt><trkpt lat="40.163401048755155" lon="9.527831512352515"><ele>936.0</ele><time>2026-04-30T10:34:48.003Z</time></trkpt><trkpt lat="40.16332208645215" lon="9.527641090558285"><ele>934.0</ele><time>2026-04-30T10:34:49.003Z</time></trkpt><trkpt lat="40.1631855302143" lon="9.52748895841285"><ele>934.0</ele><time>2026-04-30T10:34:50.003Z</time></trkpt><trkpt lat="40.16302000238621" lon="9.52734782875596"><ele>934.0</ele><time>2026-04-30T10:34:51.003Z</time></trkpt><trkpt lat="40.162860059227064" lon="9.527199195652944"><ele>934.0</ele><time>2026-04-30T10:34:52.003Z</time></trkpt><trkpt lat="40.16274053816846" lon="9.527057222788242"><ele>936.25</ele><time>2026-04-30T10:34:53.003Z</time></trkpt><trkpt lat="40.162657034291726" lon="9.526906630280976"><ele>938.5</ele><time>2026-04-30T10:34:54.003Z</time></trkpt><trkpt lat="40.16261807236021" lon="9.52672352280946"><ele>940.75</ele><time>2026-04-30T10:34:55.003Z</time></trkpt><trkpt lat="40.1626276684032" lon="9.526517958634027"><ele>943.0</ele><time>2026-04-30T10:34:56.003Z</time></trkpt><trkpt lat="40.1627079537776" lon="9.526313566673396"><ele>940.3333333333333</ele><time>2026-04-30T10:34:57.003Z</time></trkpt><trkpt lat="40.16280289487426" lon="9.526083163970108"><ele>937.6666666666667</ele><time>2026-04-30T10:34:58.003Z</time></trkpt><trkpt lat="40.16291428538213" lon="9.52581795158701"><ele>935.0</ele><time>2026-04-30T10:34:59.003Z</time></trkpt><trkpt lat="40.16301523562403" lon="9.525579682290292"><ele>935.0</ele><time>2026-04-30T10:35:00.003Z</time></trkpt><trkpt lat="40.163075758139215" lon="9.525396987180425"><ele>935.0</ele><time>2026-04-30T10:35:01.003Z</time></trkpt><trkpt lat="40.16309103454898" lon="9.525249462601641"><ele>935.0</ele><time>2026-04-30T10:35:02.003Z</time></trkpt><trkpt lat="40.16304845981083" lon="9.525105388184995"><ele>935.0</ele><time>2026-04-30T10:35:03.003Z</time></trkpt><trkpt lat="40.16293783972909" lon="9.52498543346465"><ele>937.0</ele><time>2026-04-30T10:35:04.003Z</time></trkpt><trkpt lat="40.16288262751088" lon="9.524824864091483"><ele>939.0</ele><time>2026-04-30T10:35:05.003Z</time></trkpt><trkpt lat="40.16280148661825" lon="9.524662818822273"><ele>941.0</ele><time>2026-04-30T10:35:06.003Z</time></trkpt><trkpt lat="40.16269147633416" lon="9.524451666262717"><ele>926.0</ele><time>2026-04-30T10:35:07.003Z</time></trkpt><trkpt lat="40.16222126983764" lon="9.524486315970401"><ele>926.0</ele><time>2026-04-30T10:35:08.003Z</time></trkpt><trkpt lat="40.162111953673666" lon="9.52430795764279"><ele>926.0</ele><time>2026-04-30T10:35:09.003Z</time></trkpt><trkpt lat="40.16204535559879" lon="9.524130028704088"><ele>926.0</ele><time>2026-04-30T10:35:10.003Z</time></trkpt><trkpt lat="40.16201704112412" lon="9.523918287961799"><ele>929.3333333333334</ele><time>2026-04-30T10:35:11.003Z</time></trkpt><trkpt lat="40.161992502386454" lon="9.523694581968106"><ele>932.6666666666667</ele><time>2026-04-30T10:35:12.003Z</time></trkpt><trkpt lat="40.16190797695149" lon="9.523499999103153"><ele>936.0</ele><time>2026-04-30T10:35:13.003Z</time></trkpt><trkpt lat="40.16183576749127" lon="9.523330845104171"><ele>936.0</ele><time>2026-04-30T10:35:14.003Z</time></trkpt><trkpt lat="40.161819700093744" lon="9.523145739251197"><ele>936.0</ele><time>2026-04-30T10:35:15.004Z</time></trkpt><trkpt lat="40.16186703624427" lon="9.522931449702574"><ele>936.0</ele><time>2026-04-30T10:35:16.004Z</time></trkpt><trkpt lat="40.16196328573032" lon="9.522689570895553"><ele>933.6666666666667</ele><time>2026-04-30T10:35:17.004Z</time></trkpt><trkpt lat="40.162077705059744" lon="9.522450032800098"><ele>931.3333333333334</ele><time>2026-04-30T10:35:18.004Z</time></trkpt><trkpt lat="40.16215601603813" lon="9.522241737789683"><ele>929.0</ele><time>2026-04-30T10:35:19.004Z</time></trkpt><trkpt lat="40.162169094180925" lon="9.522042963278905"><ele>928.6666666666667</ele><time>2026-04-30T10:35:20.004Z</time></trkpt><trkpt lat="40.162113035271844" lon="9.521834597961186"><ele>928.3333333333333</ele><time>2026-04-30T10:35:21.004Z</time></trkpt><trkpt lat="40.16205384923456" lon="9.521609851472796"><ele>928.0</ele><time>2026-04-30T10:35:22.004Z</time></trkpt><trkpt lat="40.16204097296327" lon="9.52138945062067"><ele>927.6666666666666</ele><time>2026-04-30T10:35:23.004Z</time></trkpt><trkpt lat="40.16210261884756" lon="9.521141346561501"><ele>927.3333333333333</ele><time>2026-04-30T10:35:24.004Z</time></trkpt><trkpt lat="40.162216155809105" lon="9.520885094082756"><ele>927.0</ele><time>2026-04-30T10:35:25.004Z</time></trkpt><trkpt lat="40.16236410249343" lon="9.520612577192752"><ele>937.6666666666667</ele><time>2026-04-30T10:35:26.004Z</time></trkpt><trkpt lat="40.162483635276786" lon="9.520356551599921"><ele>948.3333333333334</ele><time>2026-04-30T10:35:27.004Z</time></trkpt><trkpt lat="40.162555595547225" lon="9.520140456997654"><ele>959.0</ele><time>2026-04-30T10:35:28.003Z</time></trkpt><trkpt lat="40.16259658929694" lon="9.519956846366732"><ele>959.0</ele><time>2026-04-30T10:35:29.003Z</time></trkpt><trkpt lat="40.162603850618794" lon="9.519786752427015"><ele>959.0</ele><time>2026-04-30T10:35:30.003Z</time></trkpt><trkpt lat="40.16255874873073" lon="9.519620851420243"><ele>959.0</ele><time>2026-04-30T10:35:31.003Z</time></trkpt><trkpt lat="40.162450107644055" lon="9.519480887262414"><ele>959.0</ele><time>2026-04-30T10:35:32.003Z</time></trkpt><trkpt lat="40.16230217190643" lon="9.51938071291072"><ele>963.3333333333334</ele><time>2026-04-30T10:35:33.003Z</time></trkpt><trkpt lat="40.16211723961265" lon="9.519318908410819"><ele>967.6666666666667</ele><time>2026-04-30T10:35:34.003Z</time></trkpt><trkpt lat="40.1618739361978" lon="9.519316269582433"><ele>972.0</ele><time>2026-04-30T10:35:35.003Z</time></trkpt><trkpt lat="40.161592723901066" lon="9.519357795511734"><ele>975.0</ele><time>2026-04-30T10:35:36.003Z</time></trkpt><trkpt lat="40.16128749607737" lon="9.519390856220248"><ele>978.0</ele><time>2026-04-30T10:35:37.003Z</time></trkpt><trkpt lat="40.1610211052718" lon="9.519405803741833"><ele>978.0</ele><time>2026-04-30T10:35:38.003Z</time></trkpt><trkpt lat="40.16080900923504" lon="9.519410558347039"><ele>978.0</ele><time>2026-04-30T10:35:39.003Z</time></trkpt><trkpt lat="40.16061184360766" lon="9.519417689416118"><ele>978.0</ele><time>2026-04-30T10:35:40.003Z</time></trkpt><trkpt lat="40.16041376691069" lon="9.51942438319517"><ele>978.6666666666667</ele><time>2026-04-30T10:35:41.003Z</time></trkpt><trkpt lat="40.16020998775219" lon="9.519435392185827"><ele>979.3333333333334</ele><time>2026-04-30T10:35:42.003Z</time></trkpt><trkpt lat="40.1600150173453" lon="9.519441425670482"><ele>980.0</ele><time>2026-04-30T10:35:43.003Z</time></trkpt><trkpt lat="40.159828857542635" lon="9.519440443757913"><ele>975.0</ele><time>2026-04-30T10:35:44.003Z</time></trkpt><trkpt lat="40.1596458685528" lon="9.519422739802861"><ele>970.0</ele><time>2026-04-30T10:35:45.003Z</time></trkpt><trkpt lat="40.15946014431035" lon="9.519367753585403"><ele>965.0</ele><time>2026-04-30T10:35:46.003Z</time></trkpt><trkpt lat="40.159273616127365" lon="9.519258714437951"><ele>965.0</ele><time>2026-04-30T10:35:47.003Z</time></trkpt><trkpt lat="40.1590780999752" lon="9.519095416297898"><ele>965.0</ele><time>2026-04-30T10:35:48.003Z</time></trkpt><trkpt lat="40.15889641655919" lon="9.518918303703039"><ele>961.6666666666667</ele><time>2026-04-30T10:35:49.003Z</time></trkpt><trkpt lat="40.15874358991792" lon="9.518756690103855"><ele>958.3333333333333</ele><time>2026-04-30T10:35:50.003Z</time></trkpt><trkpt lat="40.15861894425339" lon="9.518584296567623"><ele>955.0</ele><time>2026-04-30T10:35:51.003Z</time></trkpt><trkpt lat="40.15852500510178" lon="9.518378858463603"><ele>955.0</ele><time>2026-04-30T10:35:52.003Z</time></trkpt><trkpt lat="40.15846394067833" lon="9.518121466852975"><ele>955.0</ele><time>2026-04-30T10:35:53.003Z</time></trkpt><trkpt lat="40.15841201346961" lon="9.517846613448135"><ele>955.0</ele><time>2026-04-30T10:35:54.003Z</time></trkpt><trkpt lat="40.15835674717746" lon="9.517575994741202"><ele>959.0</ele><time>2026-04-30T10:35:55.003Z</time></trkpt><trkpt lat="40.15830733115593" lon="9.517312397007311"><ele>963.0</ele><time>2026-04-30T10:35:56.003Z</time></trkpt><trkpt lat="40.15827648266062" lon="9.517064403017043"><ele>967.0</ele><time>2026-04-30T10:35:57.003Z</time></trkpt><trkpt lat="40.15826864994076" lon="9.516836930614556"><ele>967.3333333333333</ele><time>2026-04-30T10:35:58.003Z</time></trkpt><trkpt lat="40.15830265376028" lon="9.51661162774737"><ele>967.6666666666667</ele><time>2026-04-30T10:35:59.003Z</time></trkpt><trkpt lat="40.15839883159602" lon="9.516393026872409"><ele>968.0</ele><time>2026-04-30T10:36:00.003Z</time></trkpt><trkpt lat="40.15849200039587" lon="9.516179632962253"><ele>962.0</ele><time>2026-04-30T10:36:01.003Z</time></trkpt><trkpt lat="40.158605343173804" lon="9.51600459157178"><ele>956.0</ele><time>2026-04-30T10:36:02.003Z</time></trkpt><trkpt lat="40.15876586305191" lon="9.515892245411761"><ele>950.0</ele><time>2026-04-30T10:36:03.003Z</time></trkpt><trkpt lat="40.15896140296108" lon="9.515777452685665"><ele>964.5</ele><time>2026-04-30T10:36:04.003Z</time></trkpt><trkpt lat="40.15916725046624" lon="9.515650314605539"><ele>979.0</ele><time>2026-04-30T10:36:05.003Z</time></trkpt><trkpt lat="40.15938286244668" lon="9.515551639315017"><ele>979.0</ele><time>2026-04-30T10:36:06.003Z</time></trkpt><trkpt lat="40.15956485351552" lon="9.515438654454517"><ele>979.0</ele><time>2026-04-30T10:36:07.003Z</time></trkpt><trkpt lat="40.15973383852326" lon="9.515282240858184"><ele>979.0</ele><time>2026-04-30T10:36:08.003Z</time></trkpt><trkpt lat="40.15989764891013" lon="9.515068437560481"><ele>978.0</ele><time>2026-04-30T10:36:09.003Z</time></trkpt><trkpt lat="40.16006219029329" lon="9.514834688941432"><ele>977.0</ele><time>2026-04-30T10:36:10.003Z</time></trkpt><trkpt lat="40.16025872786819" lon="9.51464040689603"><ele>966.5</ele><time>2026-04-30T10:36:11.003Z</time></trkpt><trkpt lat="40.16046975094504" lon="9.51447145772836"><ele>956.0</ele><time>2026-04-30T10:36:12.003Z</time></trkpt><trkpt lat="40.16069104137414" lon="9.514344362171384"><ele>966.5</ele><time>2026-04-30T10:36:13.003Z</time></trkpt><trkpt lat="40.16089336277888" lon="9.514189769211423"><ele>977.0</ele><time>2026-04-30T10:36:14.003Z</time></trkpt><trkpt lat="40.16107051415524" lon="9.513973337535534"><ele>970.0</ele><time>2026-04-30T10:36:15.003Z</time></trkpt><trkpt lat="40.16123747724505" lon="9.513711218949434"><ele>963.0</ele><time>2026-04-30T10:36:16.003Z</time></trkpt><trkpt lat="40.16142377433659" lon="9.513414502552257"><ele>974.5</ele><time>2026-04-30T10:36:17.003Z</time></trkpt><trkpt lat="40.16161460763807" lon="9.513141423630579"><ele>986.0</ele><time>2026-04-30T10:36:18.003Z</time></trkpt><trkpt lat="40.161798899058454" lon="9.512906559167865"><ele>982.3333333333334</ele><time>2026-04-30T10:36:19.003Z</time></trkpt><trkpt lat="40.16194576970484" lon="9.512675153779385"><ele>978.6666666666667</ele><time>2026-04-30T10:36:20.003Z</time></trkpt><trkpt lat="40.1620726771861" lon="9.512478841885388"><ele>975.0</ele><time>2026-04-30T10:36:21.003Z</time></trkpt><trkpt lat="40.16215742995838" lon="9.51229160610724"><ele>975.0</ele><time>2026-04-30T10:36:22.003Z</time></trkpt><trkpt lat="40.16217539822636" lon="9.512100016932871"><ele>975.0</ele><time>2026-04-30T10:36:23.003Z</time></trkpt><trkpt lat="40.16214215472817" lon="9.511891634925508"><ele>975.0</ele><time>2026-04-30T10:36:24.003Z</time></trkpt><trkpt lat="40.16207273888922" lon="9.511638477005667"><ele>977.0</ele><time>2026-04-30T10:36:25.003Z</time></trkpt><trkpt lat="40.16199827741039" lon="9.511351230031083"><ele>979.0</ele><time>2026-04-30T10:36:26.003Z</time></trkpt><trkpt lat="40.16192605628929" lon="9.511043077567898"><ele>984.0</ele><time>2026-04-30T10:36:27.003Z</time></trkpt><trkpt lat="40.16185429128598" lon="9.510726334931366"><ele>989.0</ele><time>2026-04-30T10:36:28.003Z</time></trkpt><trkpt lat="40.16178616651769" lon="9.51041092251956"><ele>988.3333333333334</ele><time>2026-04-30T10:36:29.003Z</time></trkpt><trkpt lat="40.16171719964031" lon="9.510131045035765"><ele>987.6666666666667</ele><time>2026-04-30T10:36:30.003Z</time></trkpt><trkpt lat="40.16164311952604" lon="9.50989304135816"><ele>987.0</ele><time>2026-04-30T10:36:31.003Z</time></trkpt><trkpt lat="40.161549893029004" lon="9.509693694348213"><ele>987.6666666666667</ele><time>2026-04-30T10:36:32.003Z</time></trkpt><trkpt lat="40.161435659099205" lon="9.50953349260705"><ele>988.3333333333334</ele><time>2026-04-30T10:36:33.003Z</time></trkpt><trkpt lat="40.16129579347341" lon="9.50942567359933"><ele>989.0</ele><time>2026-04-30T10:36:34.003Z</time></trkpt><trkpt lat="40.16113346640993" lon="9.509385620437309"><ele>989.0</ele><time>2026-04-30T10:36:35.003Z</time></trkpt><trkpt lat="40.160947883541276" lon="9.509393558896779"><ele>989.0</ele><time>2026-04-30T10:36:36.003Z</time></trkpt><trkpt lat="40.16074885275049" lon="9.509381556740061"><ele>989.0</ele><time>2026-04-30T10:36:37.003Z</time></trkpt><trkpt lat="40.16057007832698" lon="9.50927695029999"><ele>995.6666666666667</ele><time>2026-04-30T10:36:38.003Z</time></trkpt><trkpt lat="40.160399998045186" lon="9.509130433437614"><ele>1002.3333333333333</ele><time>2026-04-30T10:36:39.002Z</time></trkpt><trkpt lat="40.16024936427791" lon="9.508973245103105"><ele>1009.0</ele><time>2026-04-30T10:36:40.002Z</time></trkpt><trkpt lat="40.16011066670107" lon="9.508811118324697"><ele>1007.3333333333333</ele><time>2026-04-30T10:36:41.002Z</time></trkpt><trkpt lat="40.15994861796367" lon="9.508696467087185"><ele>1005.6666666666667</ele><time>2026-04-30T10:36:42.002Z</time></trkpt><trkpt lat="40.159764803519884" lon="9.508634756646543"><ele>1004.0</ele><time>2026-04-30T10:36:43.002Z</time></trkpt><trkpt lat="40.15956830715758" lon="9.508599781033098"><ele>1004.0</ele><time>2026-04-30T10:36:44.002Z</time></trkpt><trkpt lat="40.159388669827166" lon="9.508563377803311"><ele>1004.0</ele><time>2026-04-30T10:36:45.002Z</time></trkpt><trkpt lat="40.159226686595574" lon="9.508505147718454"><ele>1004.0</ele><time>2026-04-30T10:36:46.002Z</time></trkpt><trkpt lat="40.15907438211253" lon="9.508402450412637"><ele>1004.6666666666667</ele><time>2026-04-30T10:36:47.002Z</time></trkpt><trkpt lat="40.158952288135524" lon="9.508251268978498"><ele>1005.3333333333333</ele><time>2026-04-30T10:36:48.002Z</time></trkpt><trkpt lat="40.158823765302984" lon="9.508118634514625"><ele>1006.0</ele><time>2026-04-30T10:36:49.002Z</time></trkpt><trkpt lat="40.15870692746976" lon="9.507989882619365"><ele>1006.75</ele><time>2026-04-30T10:36:50.002Z</time></trkpt><trkpt lat="40.15859167437396" lon="9.50787712920145"><ele>1007.5</ele><time>2026-04-30T10:36:51.002Z</time></trkpt><trkpt lat="40.15847758561422" lon="9.507760053579869"><ele>1008.25</ele><time>2026-04-30T10:36:52.002Z</time></trkpt><trkpt lat="40.15836840398544" lon="9.507640114820402"><ele>1009.0</ele><time>2026-04-30T10:36:53.002Z</time></trkpt><trkpt lat="40.158258708249306" lon="9.507523945661902"><ele>1008.0</ele><time>2026-04-30T10:36:54.002Z</time></trkpt><trkpt lat="40.15814100230368" lon="9.507408881829324"><ele>1007.0</ele><time>2026-04-30T10:36:55.002Z</time></trkpt><trkpt lat="40.15801281557912" lon="9.50731263826451"><ele>1006.0</ele><time>2026-04-30T10:36:56.002Z</time></trkpt><trkpt lat="40.15787290386222" lon="9.507237059521833"><ele>1005.0</ele><time>2026-04-30T10:36:57.002Z</time></trkpt><trkpt lat="40.157724695302704" lon="9.507174317768916"><ele>1005.0</ele><time>2026-04-30T10:36:58.002Z</time></trkpt><trkpt lat="40.15757368800886" lon="9.507128875602351"><ele>1005.0</ele><time>2026-04-30T10:36:59.002Z</time></trkpt><trkpt lat="40.1574172581578" lon="9.507079500635346"><ele>1005.0</ele><time>2026-04-30T10:37:00.002Z</time></trkpt><trkpt lat="40.15725934617795" lon="9.50702917386765"><ele>1013.3333333333333</ele><time>2026-04-30T10:37:01.002Z</time></trkpt><trkpt lat="40.1571028445016" lon="9.506972224834103"><ele>1021.6666666666666</ele><time>2026-04-30T10:37:02.002Z</time></trkpt><trkpt lat="40.15694978821136" lon="9.506921744777257"><ele>1030.0</ele><time>2026-04-30T10:37:03.002Z</time></trkpt><trkpt lat="40.15678963465514" lon="9.506908012363484"><ele>1030.0</ele><time>2026-04-30T10:37:04.002Z</time></trkpt><trkpt lat="40.15662910622216" lon="9.50691249823573"><ele>1030.0</ele><time>2026-04-30T10:37:05.002Z</time></trkpt><trkpt lat="40.15647551538434" lon="9.506944026379262"><ele>1030.0</ele><time>2026-04-30T10:37:06.002Z</time></trkpt><trkpt lat="40.15633400405398" lon="9.506986821673042"><ele>1032.25</ele><time>2026-04-30T10:37:07.002Z</time></trkpt><trkpt lat="40.15621518555454" lon="9.507048270054387"><ele>1034.5</ele><time>2026-04-30T10:37:08.002Z</time></trkpt><trkpt lat="40.15609538096043" lon="9.507100318439042"><ele>1036.75</ele><time>2026-04-30T10:37:09.002Z</time></trkpt><trkpt lat="40.15597202228727" lon="9.50714316261193"><ele>1039.0</ele><time>2026-04-30T10:37:10.002Z</time></trkpt><trkpt lat="40.15584707335275" lon="9.507162651895815"><ele>1032.75</ele><time>2026-04-30T10:37:11.002Z</time></trkpt><trkpt lat="40.15572413240242" lon="9.507167437126679"><ele>1026.5</ele><time>2026-04-30T10:37:12.002Z</time></trkpt><trkpt lat="40.15560680006594" lon="9.507166244240329"><ele>1020.25</ele><time>2026-04-30T10:37:13.002Z</time></trkpt><trkpt lat="40.15548837926477" lon="9.507168911126515"><ele>1014.0</ele><time>2026-04-30T10:37:14.002Z</time></trkpt><trkpt lat="40.15537493758592" lon="9.507171255263332"><ele>1014.0</ele><time>2026-04-30T10:37:15.002Z</time></trkpt><trkpt lat="40.15525554823358" lon="9.507188008444714"><ele>1014.0</ele><time>2026-04-30T10:37:16.002Z</time></trkpt><trkpt lat="40.1551317108709" lon="9.507215080143236"><ele>1014.0</ele><time>2026-04-30T10:37:17.002Z</time></trkpt><trkpt lat="40.155001229968725" lon="9.507253343815679"><ele>1014.0</ele><time>2026-04-30T10:37:18.002Z</time></trkpt><trkpt lat="40.154863820873715" lon="9.50729036201115"><ele>1017.0</ele><time>2026-04-30T10:37:19.002Z</time></trkpt><trkpt lat="40.154723935999755" lon="9.5073409562688"><ele>1020.0</ele><time>2026-04-30T10:37:20.002Z</time></trkpt><trkpt lat="40.15458585689597" lon="9.507390595729404"><ele>1023.0</ele><time>2026-04-30T10:37:21.004Z</time></trkpt><trkpt lat="40.154450290784034" lon="9.507444280387318"><ele>1026.0</ele><time>2026-04-30T10:37:22.004Z</time></trkpt><trkpt lat="40.154315622839256" lon="9.507493388332591"><ele>1026.0</ele><time>2026-04-30T10:37:23.004Z</time></trkpt><trkpt lat="40.154180582119494" lon="9.507546938170242"><ele>1026.0</ele><time>2026-04-30T10:37:24.004Z</time></trkpt><trkpt lat="40.15404958226282" lon="9.507593612921628"><ele>1026.0</ele><time>2026-04-30T10:37:25.004Z</time></trkpt><trkpt lat="40.15391684196826" lon="9.507641326804555"><ele>1026.0</ele><time>2026-04-30T10:37:26.004Z</time></trkpt><trkpt lat="40.153780939530684" lon="9.507684923747144"><ele>1025.75</ele><time>2026-04-30T10:37:27.005Z</time></trkpt><trkpt lat="40.153642834986385" lon="9.507718237368044"><ele>1025.5</ele><time>2026-04-30T10:37:28.004Z</time></trkpt><trkpt lat="40.15349947820394" lon="9.507738423030716"><ele>1025.25</ele><time>2026-04-30T10:37:29.004Z</time></trkpt><trkpt lat="40.1533514095832" lon="9.507733886813348"><ele>1025.0</ele><time>2026-04-30T10:37:30.004Z</time></trkpt><trkpt lat="40.15320536251561" lon="9.507710260854486"><ele>1022.6666666666667</ele><time>2026-04-30T10:37:31.005Z</time></trkpt><trkpt lat="40.15305400168987" lon="9.507669382677818"><ele>1020.3333333333333</ele><time>2026-04-30T10:37:32.005Z</time></trkpt><trkpt lat="40.15289895234546" lon="9.507617145931036"><ele>1018.0</ele><time>2026-04-30T10:37:33.005Z</time></trkpt><trkpt lat="40.15274355784829" lon="9.507560173962169"><ele>1018.0</ele><time>2026-04-30T10:37:34.003Z</time></trkpt><trkpt lat="40.15258279188882" lon="9.507505214235092"><ele>1018.0</ele><time>2026-04-30T10:37:35.003Z</time></trkpt><trkpt lat="40.152410136374364" lon="9.507460199662953"><ele>1018.0</ele><time>2026-04-30T10:37:36.003Z</time></trkpt><trkpt lat="40.15222982865268" lon="9.50742676751204"><ele>1015.6666666666666</ele><time>2026-04-30T10:37:37.003Z</time></trkpt><trkpt lat="40.1520434933346" lon="9.507410912861037"><ele>1013.3333333333333</ele><time>2026-04-30T10:37:38.003Z</time></trkpt><trkpt lat="40.15186205655343" lon="9.507411808378547"><ele>1011.0</ele><time>2026-04-30T10:37:39.003Z</time></trkpt><trkpt lat="40.151688972857876" lon="9.507418810318812"><ele>1009.3333333333333</ele><time>2026-04-30T10:37:40.003Z</time></trkpt><trkpt lat="40.15151585604355" lon="9.507426938429697"><ele>1007.6666666666666</ele><time>2026-04-30T10:37:41.003Z</time></trkpt><trkpt lat="40.15134501689672" lon="9.50743462451053"><ele>1006.0</ele><time>2026-04-30T10:37:42.003Z</time></trkpt><trkpt lat="40.15117374534216" lon="9.507432838253962"><ele>1006.0</ele><time>2026-04-30T10:37:43.003Z</time></trkpt><trkpt lat="40.15100209625564" lon="9.507418611328008"><ele>1006.0</ele><time>2026-04-30T10:37:44.003Z</time></trkpt><trkpt lat="40.15083419745447" lon="9.50737781657891"><ele>1006.0</ele><time>2026-04-30T10:37:45.003Z</time></trkpt><trkpt lat="40.150665499248674" lon="9.50731349243434"><ele>1002.0</ele><time>2026-04-30T10:37:46.003Z</time></trkpt><trkpt lat="40.150498595800904" lon="9.507233350681808"><ele>998.0</ele><time>2026-04-30T10:37:47.003Z</time></trkpt><trkpt lat="40.150322548218185" lon="9.507145074732076"><ele>994.0</ele><time>2026-04-30T10:37:48.003Z</time></trkpt><trkpt lat="40.15014314647656" lon="9.50706077479359"><ele>1000.3333333333333</ele><time>2026-04-30T10:37:49.003Z</time></trkpt><trkpt lat="40.14996192039136" lon="9.506965716224382"><ele>1006.6666666666667</ele><time>2026-04-30T10:37:50.003Z</time></trkpt><trkpt lat="40.149771589048754" lon="9.50688195419129"><ele>1013.0</ele><time>2026-04-30T10:37:51.003Z</time></trkpt><trkpt lat="40.149566166335035" lon="9.506840023172229"><ele>1013.0</ele><time>2026-04-30T10:37:52.003Z</time></trkpt><trkpt lat="40.14937460946385" lon="9.506800795613904"><ele>1013.0</ele><time>2026-04-30T10:37:53.003Z</time></trkpt><trkpt lat="40.14918076079288" lon="9.506769763116202"><ele>1013.0</ele><time>2026-04-30T10:37:54.003Z</time></trkpt><trkpt lat="40.14898767172441" lon="9.506741816278804"><ele>1007.6666666666667</ele><time>2026-04-30T10:37:55.003Z</time></trkpt><trkpt lat="40.14879036890716" lon="9.506721355334538"><ele>1002.3333333333333</ele><time>2026-04-30T10:37:56.003Z</time></trkpt><trkpt lat="40.14859348905507" lon="9.506683580342608"><ele>997.0</ele><time>2026-04-30T10:37:57.003Z</time></trkpt><trkpt lat="40.148394013105985" lon="9.506639130325203"><ele>992.0</ele><time>2026-04-30T10:37:58.003Z</time></trkpt><trkpt lat="40.14819265635707" lon="9.506588282240882"><ele>987.0</ele><time>2026-04-30T10:37:59.003Z</time></trkpt><trkpt lat="40.14798998632795" lon="9.506535029179362"><ele>982.0</ele><time>2026-04-30T10:38:00.003Z</time></trkpt><trkpt lat="40.14778040992003" lon="9.506462638634776"><ele>982.0</ele><time>2026-04-30T10:38:01.003Z</time></trkpt><trkpt lat="40.14756938013718" lon="9.506384324176722"><ele>982.0</ele><time>2026-04-30T10:38:02.003Z</time></trkpt><trkpt lat="40.147356055525044" lon="9.506306402192623"><ele>982.0</ele><time>2026-04-30T10:38:03.003Z</time></trkpt><trkpt lat="40.14714497560931" lon="9.50622933018182"><ele>988.3333333333333</ele><time>2026-04-30T10:38:04.003Z</time></trkpt><trkpt lat="40.14693092133616" lon="9.506165357071938"><ele>994.6666666666667</ele><time>2026-04-30T10:38:05.003Z</time></trkpt><trkpt lat="40.14672441042593" lon="9.50612398612318"><ele>1001.0</ele><time>2026-04-30T10:38:06.003Z</time></trkpt><trkpt lat="40.1465137851381" lon="9.506126103496063"><ele>1001.0</ele><time>2026-04-30T10:38:07.003Z</time></trkpt><trkpt lat="40.146301012937286" lon="9.50614814978592"><ele>1001.0</ele><time>2026-04-30T10:38:08.003Z</time></trkpt><trkpt lat="40.146095218284856" lon="9.506159585605065"><ele>1001.0</ele><time>2026-04-30T10:38:09.003Z</time></trkpt><trkpt lat="40.145891044874666" lon="9.50616879309722"><ele>997.0</ele><time>2026-04-30T10:38:10.003Z</time></trkpt><trkpt lat="40.14568688630972" lon="9.506164767601645"><ele>993.0</ele><time>2026-04-30T10:38:11.003Z</time></trkpt><trkpt lat="40.14549229207708" lon="9.506166852154468"><ele>989.0</ele><time>2026-04-30T10:38:12.003Z</time></trkpt><trkpt lat="40.14530033129396" lon="9.506147308731848"><ele>989.0</ele><time>2026-04-30T10:38:13.003Z</time></trkpt><trkpt lat="40.14511718612608" lon="9.506075667321383"><ele>989.0</ele><time>2026-04-30T10:38:14.003Z</time></trkpt><trkpt lat="40.144947704295404" lon="9.505976354526883"><ele>989.0</ele><time>2026-04-30T10:38:15.003Z</time></trkpt><trkpt lat="40.144780001042406" lon="9.50585689887925"><ele>982.3333333333334</ele><time>2026-04-30T10:38:16.003Z</time></trkpt><trkpt lat="40.14460778642404" lon="9.505758443963046"><ele>975.6666666666667</ele><time>2026-04-30T10:38:17.003Z</time></trkpt><trkpt lat="40.14443463836699" lon="9.505670789066242"><ele>969.0</ele><time>2026-04-30T10:38:18.003Z</time></trkpt><trkpt lat="40.14425354433269" lon="9.505628282810054"><ele>969.0</ele><time>2026-04-30T10:38:19.003Z</time></trkpt><trkpt lat="40.14405954378838" lon="9.50561751361222"><ele>969.0</ele><time>2026-04-30T10:38:20.003Z</time></trkpt><trkpt lat="40.14385981156021" lon="9.505641554382288"><ele>969.0</ele><time>2026-04-30T10:38:21.003Z</time></trkpt><trkpt lat="40.143660404493204" lon="9.505686538437276"><ele>968.0</ele><time>2026-04-30T10:38:22.003Z</time></trkpt><trkpt lat="40.1434592682248" lon="9.505711141716287"><ele>967.0</ele><time>2026-04-30T10:38:23.003Z</time></trkpt><trkpt lat="40.143260329219245" lon="9.505693722865097"><ele>966.0</ele><time>2026-04-30T10:38:24.003Z</time></trkpt><trkpt lat="40.143031488096405" lon="9.505652190127101"><ele>959.0</ele><time>2026-04-30T10:38:25.003Z</time></trkpt><trkpt lat="40.14280216905041" lon="9.505635813432976"><ele>952.0</ele><time>2026-04-30T10:38:26.003Z</time></trkpt><trkpt lat="40.14258171805181" lon="9.505659389397323"><ele>957.5</ele><time>2026-04-30T10:38:27.003Z</time></trkpt><trkpt lat="40.14235036304203" lon="9.505712639012623"><ele>963.0</ele><time>2026-04-30T10:38:28.003Z</time></trkpt><trkpt lat="40.14211630509762" lon="9.505773202770168"><ele>963.0</ele><time>2026-04-30T10:38:29.003Z</time></trkpt><trkpt lat="40.14188246224345" lon="9.505827646487985"><ele>963.0</ele><time>2026-04-30T10:38:30.003Z</time></trkpt><trkpt lat="40.14165252498695" lon="9.505876767810795"><ele>960.5</ele><time>2026-04-30T10:38:31.003Z</time></trkpt><trkpt lat="40.141414150130416" lon="9.505894354356478"><ele>958.0</ele><time>2026-04-30T10:38:32.003Z</time></trkpt><trkpt lat="40.14118053613516" lon="9.505880423520049"><ele>958.0</ele><time>2026-04-30T10:38:33.003Z</time></trkpt><trkpt lat="40.14095109613122" lon="9.505840035921723"><ele>958.0</ele><time>2026-04-30T10:38:34.003Z</time></trkpt><trkpt lat="40.1407041421672" lon="9.505794627231262"><ele>955.0</ele><time>2026-04-30T10:38:35.003Z</time></trkpt><trkpt lat="40.14045488856233" lon="9.505760446085255"><ele>952.0</ele><time>2026-04-30T10:38:36.003Z</time></trkpt><trkpt lat="40.14020276613071" lon="9.505744678322166"><ele>952.0</ele><time>2026-04-30T10:38:37.003Z</time></trkpt><trkpt lat="40.139948012372805" lon="9.505734584220441"><ele>952.0</ele><time>2026-04-30T10:38:38.003Z</time></trkpt><trkpt lat="40.13969120985945" lon="9.5057437979816"><ele>948.5</ele><time>2026-04-30T10:38:39.003Z</time></trkpt><trkpt lat="40.139441056444966" lon="9.505732468078145"><ele>945.0</ele><time>2026-04-30T10:38:40.003Z</time></trkpt><trkpt lat="40.1391960802033" lon="9.505709907831607"><ele>947.5</ele><time>2026-04-30T10:38:41.003Z</time></trkpt><trkpt lat="40.138958323676675" lon="9.50568730332272"><ele>950.0</ele><time>2026-04-30T10:38:42.003Z</time></trkpt><trkpt lat="40.138724345536055" lon="9.50570076125513"><ele>950.0</ele><time>2026-04-30T10:38:43.003Z</time></trkpt><trkpt lat="40.138495312899344" lon="9.50576817878861"><ele>950.0</ele><time>2026-04-30T10:38:44.003Z</time></trkpt><trkpt lat="40.138263775678844" lon="9.505856281853722"><ele>961.5</ele><time>2026-04-30T10:38:45.003Z</time></trkpt><trkpt lat="40.13803747106258" lon="9.505965107043565"><ele>973.0</ele><time>2026-04-30T10:38:46.003Z</time></trkpt><trkpt lat="40.13780322280715" lon="9.506068433985828"><ele>973.0</ele><time>2026-04-30T10:38:47.003Z</time></trkpt><trkpt lat="40.1375688453524" lon="9.506160494426572"><ele>973.0</ele><time>2026-04-30T10:38:48.003Z</time></trkpt><trkpt lat="40.13732280796804" lon="9.506209708835842"><ele>954.0</ele><time>2026-04-30T10:38:49.003Z</time></trkpt><trkpt lat="40.13707409637304" lon="9.506308196670764"><ele>935.0</ele><time>2026-04-30T10:38:50.003Z</time></trkpt><trkpt lat="40.13683353433153" lon="9.50640685547862"><ele>935.0</ele><time>2026-04-30T10:38:51.003Z</time></trkpt><trkpt lat="40.13659232757455" lon="9.506499167220824"><ele>935.0</ele><time>2026-04-30T10:38:52.003Z</time></trkpt><trkpt lat="40.13634805626122" lon="9.506592651800329"><ele>939.5</ele><time>2026-04-30T10:38:53.003Z</time></trkpt><trkpt lat="40.13611965610048" lon="9.506654622854184"><ele>944.0</ele><time>2026-04-30T10:38:54.003Z</time></trkpt><trkpt lat="40.135894762775784" lon="9.506718235535917"><ele>949.0</ele><time>2026-04-30T10:38:55.003Z</time></trkpt><trkpt lat="40.13568917180902" lon="9.506768647442494"><ele>954.0</ele><time>2026-04-30T10:38:56.003Z</time></trkpt><trkpt lat="40.13547807230604" lon="9.506784788412098"><ele>959.0</ele><time>2026-04-30T10:38:57.003Z</time></trkpt><trkpt lat="40.13528867054332" lon="9.506697323047007"><ele>959.0</ele><time>2026-04-30T10:38:58.003Z</time></trkpt><trkpt lat="40.13508253301435" lon="9.506814199552391"><ele>959.0</ele><time>2026-04-30T10:38:59.003Z</time></trkpt><trkpt lat="40.13488825949011" lon="9.506863794125026"><ele>959.0</ele><time>2026-04-30T10:39:00.003Z</time></trkpt><trkpt lat="40.13469049025081" lon="9.506905834500389"><ele>959.3333333333334</ele><time>2026-04-30T10:39:01.003Z</time></trkpt><trkpt lat="40.13448967846927" lon="9.50691124950125"><ele>959.6666666666667</ele><time>2026-04-30T10:39:02.003Z</time></trkpt><trkpt lat="40.13429760685736" lon="9.506794931979782"><ele>960.0</ele><time>2026-04-30T10:39:03.003Z</time></trkpt><trkpt lat="40.13409709327244" lon="9.506698201525941"><ele>958.0</ele><time>2026-04-30T10:39:04.003Z</time></trkpt><trkpt lat="40.133891384777904" lon="9.50663890804006"><ele>956.0</ele><time>2026-04-30T10:39:05.003Z</time></trkpt><trkpt lat="40.13367068660196" lon="9.506617767257127"><ele>954.0</ele><time>2026-04-30T10:39:06.003Z</time></trkpt><trkpt lat="40.13345473451297" lon="9.506620056136143"><ele>954.0</ele><time>2026-04-30T10:39:07.003Z</time></trkpt><trkpt lat="40.133240005821754" lon="9.506639925697732"><ele>954.0</ele><time>2026-04-30T10:39:08.003Z</time></trkpt><trkpt lat="40.13302266474903" lon="9.5066660176449"><ele>954.0</ele><time>2026-04-30T10:39:09.003Z</time></trkpt><trkpt lat="40.13280796189453" lon="9.50669457827017"><ele>964.0</ele><time>2026-04-30T10:39:10.002Z</time></trkpt><trkpt lat="40.132585785498684" lon="9.506714699614983"><ele>974.0</ele><time>2026-04-30T10:39:11.002Z</time></trkpt><trkpt lat="40.13235251466035" lon="9.50673453291449"><ele>980.5</ele><time>2026-04-30T10:39:12.002Z</time></trkpt><trkpt lat="40.132131541249414" lon="9.50676264945039"><ele>987.0</ele><time>2026-04-30T10:39:13.002Z</time></trkpt><trkpt lat="40.1319092779392" lon="9.506833222645776"><ele>987.0</ele><time>2026-04-30T10:39:14.002Z</time></trkpt><trkpt lat="40.13169437350036" lon="9.506918526312859"><ele>987.0</ele><time>2026-04-30T10:39:15.002Z</time></trkpt><trkpt lat="40.13149650605934" lon="9.50702172141139"><ele>987.0</ele><time>2026-04-30T10:39:16.002Z</time></trkpt><trkpt lat="40.13129372682942" lon="9.50709891879073"><ele>972.0</ele><time>2026-04-30T10:39:17.002Z</time></trkpt><trkpt lat="40.131083015042684" lon="9.507134954758664"><ele>957.0</ele><time>2026-04-30T10:39:18.002Z</time></trkpt><trkpt lat="40.130870689922396" lon="9.50715230252554"><ele>942.0</ele><time>2026-04-30T10:39:19.002Z</time></trkpt><trkpt lat="40.13066623422128" lon="9.507135834380458"><ele>942.0</ele><time>2026-04-30T10:39:20.002Z</time></trkpt><trkpt lat="40.130452134979116" lon="9.50711238240838"><ele>942.0</ele><time>2026-04-30T10:39:21.002Z</time></trkpt><trkpt lat="40.130254342980216" lon="9.507069005661064"><ele>942.0</ele><time>2026-04-30T10:39:22.002Z</time></trkpt><trkpt lat="40.13002311406681" lon="9.507224751053934"><ele>949.0</ele><time>2026-04-30T10:39:23.002Z</time></trkpt><trkpt lat="40.12980290704897" lon="9.507270505515402"><ele>956.0</ele><time>2026-04-30T10:39:24.002Z</time></trkpt><trkpt lat="40.129579408853175" lon="9.507348357314624"><ele>956.0</ele><time>2026-04-30T10:39:25.002Z</time></trkpt><trkpt lat="40.12935687863302" lon="9.507416177544544"><ele>956.0</ele><time>2026-04-30T10:39:26.002Z</time></trkpt><trkpt lat="40.1291383596202" lon="9.507468561612027"><ele>961.3333333333334</ele><time>2026-04-30T10:39:27.004Z</time></trkpt><trkpt lat="40.12894292386044" lon="9.507517037875314"><ele>966.6666666666667</ele><time>2026-04-30T10:39:28.004Z</time></trkpt><trkpt lat="40.12877115538267" lon="9.50760070555148"><ele>972.0</ele><time>2026-04-30T10:39:29.004Z</time></trkpt><trkpt lat="40.128614182832095" lon="9.507699829077247"><ele>972.0</ele><time>2026-04-30T10:39:30.005Z</time></trkpt><trkpt lat="40.12843693284171" lon="9.507760410468446"><ele>972.0</ele><time>2026-04-30T10:39:31.004Z</time></trkpt><trkpt lat="40.12823581514132" lon="9.50777890375025"><ele>972.0</ele><time>2026-04-30T10:39:32.004Z</time></trkpt><trkpt lat="40.12800950599468" lon="9.507799685939316"><ele>980.5</ele><time>2026-04-30T10:39:33.004Z</time></trkpt><trkpt lat="40.127765896368636" lon="9.507867508172476"><ele>989.0</ele><time>2026-04-30T10:39:34.004Z</time></trkpt><trkpt lat="40.12753465937442" lon="9.50795371402428"><ele>971.5</ele><time>2026-04-30T10:39:35.004Z</time></trkpt><trkpt lat="40.1273091390984" lon="9.50803902356622"><ele>954.0</ele><time>2026-04-30T10:39:36.004Z</time></trkpt><trkpt lat="40.12709829953596" lon="9.508112258158699"><ele>954.0</ele><time>2026-04-30T10:39:37.004Z</time></trkpt><trkpt lat="40.126892388513475" lon="9.50818997219369"><ele>954.0</ele><time>2026-04-30T10:39:38.004Z</time></trkpt><trkpt lat="40.12670057042381" lon="9.508277427000118"><ele>954.0</ele><time>2026-04-30T10:39:39.004Z</time></trkpt><trkpt lat="40.126519096871746" lon="9.508364026892243"><ele>958.6666666666667</ele><time>2026-04-30T10:39:40.005Z</time></trkpt><trkpt lat="40.126334883179666" lon="9.508431801037057"><ele>963.3333333333334</ele><time>2026-04-30T10:39:41.005Z</time></trkpt><trkpt lat="40.126147809244166" lon="9.50849011419948"><ele>968.0</ele><time>2026-04-30T10:39:42.005Z</time></trkpt><trkpt lat="40.125972373544805" lon="9.508550338984234"><ele>968.0</ele><time>2026-04-30T10:39:43.005Z</time></trkpt><trkpt lat="40.12581564779754" lon="9.508617992825199"><ele>968.0</ele><time>2026-04-30T10:39:44.005Z</time></trkpt><trkpt lat="40.12566972841152" lon="9.508673902458533"><ele>968.0</ele><time>2026-04-30T10:39:45.005Z</time></trkpt><trkpt lat="40.12554970558511" lon="9.508716683924986"><ele>968.0</ele><time>2026-04-30T10:39:46.005Z</time></trkpt><trkpt lat="40.1254450004656" lon="9.50874691626624"><ele>971.75</ele><time>2026-04-30T10:39:47.005Z</time></trkpt><trkpt lat="40.12533949798695" lon="9.508749078536669"><ele>975.5</ele><time>2026-04-30T10:39:48.005Z</time></trkpt><trkpt lat="40.12523095243573" lon="9.508726422136"><ele>979.25</ele><time>2026-04-30T10:39:49.005Z</time></trkpt><trkpt lat="40.12511319519178" lon="9.508731746494215"><ele>983.0</ele><time>2026-04-30T10:39:50.005Z</time></trkpt><trkpt lat="40.12499266973668" lon="9.508773637428218"><ele>973.25</ele><time>2026-04-30T10:39:51.005Z</time></trkpt><trkpt lat="40.12486836231063" lon="9.508833403374592"><ele>963.5</ele><time>2026-04-30T10:39:52.005Z</time></trkpt><trkpt lat="40.12474888941081" lon="9.508900257089064"><ele>953.75</ele><time>2026-04-30T10:39:53.005Z</time></trkpt><trkpt lat="40.12462503864971" lon="9.508970195132571"><ele>944.0</ele><time>2026-04-30T10:39:54.005Z</time></trkpt><trkpt lat="40.12449442167472" lon="9.509035820110418"><ele>944.0</ele><time>2026-04-30T10:39:55.005Z</time></trkpt><trkpt lat="40.124373998072834" lon="9.509094877586488"><ele>944.0</ele><time>2026-04-30T10:39:56.005Z</time></trkpt><trkpt lat="40.12425047822386" lon="9.509151585934134"><ele>944.0</ele><time>2026-04-30T10:39:57.005Z</time></trkpt><trkpt lat="40.12412746681758" lon="9.509189671414116"><ele>944.0</ele><time>2026-04-30T10:39:58.005Z</time></trkpt><trkpt lat="40.12400323372349" lon="9.509218340581876"><ele>947.3333333333334</ele><time>2026-04-30T10:39:59.005Z</time></trkpt><trkpt lat="40.12387324174825" lon="9.50926032186791"><ele>950.6666666666667</ele><time>2026-04-30T10:40:00.005Z</time></trkpt><trkpt lat="40.12371903247573" lon="9.509266388255407"><ele>954.0</ele><time>2026-04-30T10:40:01.005Z</time></trkpt><trkpt lat="40.12353165924653" lon="9.509309412050628"><ele>954.0</ele><time>2026-04-30T10:40:02.005Z</time></trkpt><trkpt lat="40.123310227640516" lon="9.509358590922098"><ele>954.0</ele><time>2026-04-30T10:40:03.005Z</time></trkpt><trkpt lat="40.12306230683762" lon="9.50938066515658"><ele>959.0</ele><time>2026-04-30T10:40:04.005Z</time></trkpt><trkpt lat="40.12279213843049" lon="9.509413980159556"><ele>964.0</ele><time>2026-04-30T10:40:05.005Z</time></trkpt><trkpt lat="40.122513859907656" lon="9.50949189029321"><ele>966.5</ele><time>2026-04-30T10:40:06.005Z</time></trkpt><trkpt lat="40.122234749509204" lon="9.50953432664167"><ele>969.0</ele><time>2026-04-30T10:40:07.005Z</time></trkpt><trkpt lat="40.121957605661855" lon="9.509546386298402"><ele>969.0</ele><time>2026-04-30T10:40:08.005Z</time></trkpt><trkpt lat="40.12168157465263" lon="9.50951239954713"><ele>969.0</ele><time>2026-04-30T10:40:09.005Z</time></trkpt><trkpt lat="40.121401289712004" lon="9.509524690007554"><ele>968.5</ele><time>2026-04-30T10:40:10.005Z</time></trkpt><trkpt lat="40.121130908245554" lon="9.509567405493813"><ele>968.0</ele><time>2026-04-30T10:40:11.005Z</time></trkpt><trkpt lat="40.12085820320018" lon="9.509592445769595"><ele>939.5</ele><time>2026-04-30T10:40:12.005Z</time></trkpt><trkpt lat="40.120603307340964" lon="9.509625045844437"><ele>911.0</ele><time>2026-04-30T10:40:13.005Z</time></trkpt><trkpt lat="40.1203495985178" lon="9.509652481739927"><ele>911.0</ele><time>2026-04-30T10:40:14.005Z</time></trkpt><trkpt lat="40.12012264052961" lon="9.509690188208094"><ele>911.0</ele><time>2026-04-30T10:40:15.005Z</time></trkpt><trkpt lat="40.11993257867964" lon="9.509744065182739"><ele>911.0</ele><time>2026-04-30T10:40:16.005Z</time></trkpt><trkpt lat="40.119758514702596" lon="9.509755386012014"><ele>914.5</ele><time>2026-04-30T10:40:17.005Z</time></trkpt><trkpt lat="40.11959926359872" lon="9.509700607969265"><ele>918.0</ele><time>2026-04-30T10:40:18.005Z</time></trkpt><trkpt lat="40.11946294330376" lon="9.509692674714055"><ele>921.5</ele><time>2026-04-30T10:40:19.004Z</time></trkpt><trkpt lat="40.119337773853744" lon="9.509738341356554"><ele>925.0</ele><time>2026-04-30T10:40:20.004Z</time></trkpt><trkpt lat="40.11920324218925" lon="9.509894892602844"><ele>947.0</ele><time>2026-04-30T10:40:21.004Z</time></trkpt><trkpt lat="40.11903325294424" lon="9.510069168526508"><ele>969.0</ele><time>2026-04-30T10:40:22.004Z</time></trkpt><trkpt lat="40.118828423977504" lon="9.51025214402105"><ele>947.5</ele><time>2026-04-30T10:40:23.004Z</time></trkpt><trkpt lat="40.118601331491824" lon="9.510434781714537"><ele>926.0</ele><time>2026-04-30T10:40:24.004Z</time></trkpt><trkpt lat="40.11841788824301" lon="9.510672524465395"><ele>926.0</ele><time>2026-04-30T10:40:25.004Z</time></trkpt><trkpt lat="40.11824156090818" lon="9.510893637343697"><ele>926.0</ele><time>2026-04-30T10:40:26.004Z</time></trkpt><trkpt lat="40.11805383326814" lon="9.511071448223237"><ele>922.0</ele><time>2026-04-30T10:40:27.004Z</time></trkpt><trkpt lat="40.11784037614691" lon="9.51123821236661"><ele>918.0</ele><time>2026-04-30T10:40:28.004Z</time></trkpt><trkpt lat="40.11762351740156" lon="9.511404154920928"><ele>918.0</ele><time>2026-04-30T10:40:29.004Z</time></trkpt><trkpt lat="40.117417309156856" lon="9.511558738721545"><ele>918.0</ele><time>2026-04-30T10:40:30.004Z</time></trkpt><trkpt lat="40.11723456560533" lon="9.511703768741418"><ele>924.3333333333333</ele><time>2026-04-30T10:40:31.004Z</time></trkpt><trkpt lat="40.117049847960466" lon="9.511803515103853"><ele>930.6666666666666</ele><time>2026-04-30T10:40:32.004Z</time></trkpt><trkpt lat="40.11686750476906" lon="9.511842444799207"><ele>937.0</ele><time>2026-04-30T10:40:33.004Z</time></trkpt><trkpt lat="40.11668201726047" lon="9.511866173529036"><ele>943.3333333333333</ele><time>2026-04-30T10:40:34.004Z</time></trkpt><trkpt lat="40.11649017772293" lon="9.511916718811978"><ele>949.6666666666667</ele><time>2026-04-30T10:40:35.004Z</time></trkpt><trkpt lat="40.11628924019598" lon="9.511985841050743"><ele>956.0</ele><time>2026-04-30T10:40:36.004Z</time></trkpt><trkpt lat="40.11608792169268" lon="9.512127303845805"><ele>941.0</ele><time>2026-04-30T10:40:37.004Z</time></trkpt><trkpt lat="40.11587584436337" lon="9.512229285896106"><ele>926.0</ele><time>2026-04-30T10:40:38.004Z</time></trkpt><trkpt lat="40.11562660303423" lon="9.51232609770587"><ele>926.0</ele><time>2026-04-30T10:40:39.004Z</time></trkpt><trkpt lat="40.11534867226491" lon="9.512415977372838"><ele>926.0</ele><time>2026-04-30T10:40:40.004Z</time></trkpt><trkpt lat="40.115055118044445" lon="9.51254540448119"><ele>933.5</ele><time>2026-04-30T10:40:41.004Z</time></trkpt><trkpt lat="40.11475151596019" lon="9.512721409222497"><ele>941.0</ele><time>2026-04-30T10:40:42.004Z</time></trkpt><trkpt lat="40.114435612130364" lon="9.512904920130632"><ele>932.5</ele><time>2026-04-30T10:40:43.004Z</time></trkpt><trkpt lat="40.11412886290851" lon="9.513077764500572"><ele>924.0</ele><time>2026-04-30T10:40:44.004Z</time></trkpt><trkpt lat="40.113859878147984" lon="9.513238555316192"><ele>924.0</ele><time>2026-04-30T10:40:45.004Z</time></trkpt><trkpt lat="40.11362598915547" lon="9.513387175241983"><ele>924.0</ele><time>2026-04-30T10:40:46.004Z</time></trkpt><trkpt lat="40.11340636953099" lon="9.513541955656818"><ele>919.0</ele><time>2026-04-30T10:40:47.004Z</time></trkpt><trkpt lat="40.11319964581934" lon="9.51372499384678"><ele>914.0</ele><time>2026-04-30T10:40:48.004Z</time></trkpt><trkpt lat="40.112996433950656" lon="9.513940697310868"><ele>914.0</ele><time>2026-04-30T10:40:49.004Z</time></trkpt><trkpt lat="40.11278588881223" lon="9.51415552022586"><ele>914.0</ele><time>2026-04-30T10:40:50.004Z</time></trkpt><trkpt lat="40.112579420195516" lon="9.514363921930777"><ele>914.5</ele><time>2026-04-30T10:40:51.004Z</time></trkpt><trkpt lat="40.112376939263136" lon="9.51456546738395"><ele>915.0</ele><time>2026-04-30T10:40:52.004Z</time></trkpt><trkpt lat="40.11219012575109" lon="9.514763435831846"><ele>906.5</ele><time>2026-04-30T10:40:53.004Z</time></trkpt><trkpt lat="40.1120106731365" lon="9.51497923847539"><ele>898.0</ele><time>2026-04-30T10:40:54.004Z</time></trkpt><trkpt lat="40.11184541355031" lon="9.515224616902765"><ele>900.5</ele><time>2026-04-30T10:40:55.004Z</time></trkpt><trkpt lat="40.11169368830631" lon="9.515487176697746"><ele>903.0</ele><time>2026-04-30T10:40:56.004Z</time></trkpt><trkpt lat="40.11155011689846" lon="9.51574711819634"><ele>894.0</ele><time>2026-04-30T10:40:57.004Z</time></trkpt><trkpt lat="40.11142650219315" lon="9.515983867842671"><ele>885.0</ele><time>2026-04-30T10:40:58.004Z</time></trkpt><trkpt lat="40.111341942156606" lon="9.516210458765823"><ele>876.0</ele><time>2026-04-30T10:40:59.004Z</time></trkpt><trkpt lat="40.11127959145903" lon="9.516440156632665"><ele>876.0</ele><time>2026-04-30T10:41:00.004Z</time></trkpt><trkpt lat="40.11122239936839" lon="9.516651514021214"><ele>876.0</ele><time>2026-04-30T10:41:01.004Z</time></trkpt><trkpt lat="40.11114773987881" lon="9.516824233988503"><ele>876.0</ele><time>2026-04-30T10:41:02.004Z</time></trkpt><trkpt lat="40.111036723289985" lon="9.516953672133441"><ele>876.0</ele><time>2026-04-30T10:41:03.004Z</time></trkpt><trkpt lat="40.11090136745551" lon="9.517064853488352"><ele>876.0</ele><time>2026-04-30T10:41:04.004Z</time></trkpt><trkpt lat="40.11079854082285" lon="9.517230990478193"><ele>876.0</ele><time>2026-04-30T10:41:05.004Z</time></trkpt><trkpt lat="40.110721632686136" lon="9.517466227117007"><ele>873.0</ele><time>2026-04-30T10:41:06.004Z</time></trkpt><trkpt lat="40.110675762273864" lon="9.51773977209326"><ele>870.0</ele><time>2026-04-30T10:41:07.004Z</time></trkpt><trkpt lat="40.110637673302584" lon="9.518003167291926"><ele>867.0</ele><time>2026-04-30T10:41:08.004Z</time></trkpt><trkpt lat="40.110570837447156" lon="9.5182123640516"><ele>867.0</ele><time>2026-04-30T10:41:09.004Z</time></trkpt><trkpt lat="40.11045957079076" lon="9.518390543764227"><ele>867.0</ele><time>2026-04-30T10:41:10.004Z</time></trkpt><trkpt lat="40.1102857685129" lon="9.51855036945445"><ele>867.0</ele><time>2026-04-30T10:41:11.004Z</time></trkpt><trkpt lat="40.11009815962585" lon="9.51871427886431"><ele>866.3333333333333</ele><time>2026-04-30T10:41:12.004Z</time></trkpt><trkpt lat="40.10991529691828" lon="9.518863811506007"><ele>865.6666666666666</ele><time>2026-04-30T10:41:13.004Z</time></trkpt><trkpt lat="40.109721283022566" lon="9.518976491979211"><ele>865.0</ele><time>2026-04-30T10:41:14.004Z</time></trkpt><trkpt lat="40.10950803765255" lon="9.519067489415317"><ele>865.0</ele><time>2026-04-30T10:41:15.004Z</time></trkpt><trkpt lat="40.10931646821169" lon="9.519186120280576"><ele>865.0</ele><time>2026-04-30T10:41:16.004Z</time></trkpt><trkpt lat="40.10913789369927" lon="9.51934987911172"><ele>865.0</ele><time>2026-04-30T10:41:17.004Z</time></trkpt><trkpt lat="40.10896497789062" lon="9.51954054143454"><ele>859.5</ele><time>2026-04-30T10:41:18.004Z</time></trkpt><trkpt lat="40.10880250742663" lon="9.519745526564535"><ele>854.0</ele><time>2026-04-30T10:41:19.004Z</time></trkpt><trkpt lat="40.10864007332144" lon="9.519961055548666"><ele>854.0</ele><time>2026-04-30T10:41:20.004Z</time></trkpt><trkpt lat="40.10847973565295" lon="9.520165640699252"><ele>854.0</ele><time>2026-04-30T10:41:21.004Z</time></trkpt><trkpt lat="40.108317717297545" lon="9.520350670577436"><ele>854.0</ele><time>2026-04-30T10:41:22.004Z</time></trkpt><trkpt lat="40.10816591514918" lon="9.520498345112786"><ele>856.3333333333334</ele><time>2026-04-30T10:41:23.004Z</time></trkpt><trkpt lat="40.10800732005113" lon="9.52060446045502"><ele>858.6666666666667</ele><time>2026-04-30T10:41:24.004Z</time></trkpt><trkpt lat="40.107823703675415" lon="9.520663018783655"><ele>861.0</ele><time>2026-04-30T10:41:25.004Z</time></trkpt><trkpt lat="40.10763128396007" lon="9.52071143503712"><ele>861.0</ele><time>2026-04-30T10:41:26.004Z</time></trkpt><trkpt lat="40.107460020117166" lon="9.52078099688648"><ele>861.0</ele><time>2026-04-30T10:41:27.004Z</time></trkpt><trkpt lat="40.10730077237676" lon="9.520886996399327"><ele>861.0</ele><time>2026-04-30T10:41:28.004Z</time></trkpt><trkpt lat="40.1071552715256" lon="9.521040004607444"><ele>858.6666666666667</ele><time>2026-04-30T10:41:29.004Z</time></trkpt><trkpt lat="40.10701242663813" lon="9.52125098667985"><ele>856.3333333333334</ele><time>2026-04-30T10:41:30.004Z</time></trkpt><trkpt lat="40.106861545588856" lon="9.521459825209561"><ele>854.0</ele><time>2026-04-30T10:41:31.004Z</time></trkpt><trkpt lat="40.106710850670126" lon="9.52165381952832"><ele>846.0</ele><time>2026-04-30T10:41:32.004Z</time></trkpt><trkpt lat="40.10657502933009" lon="9.521842962356759"><ele>838.0</ele><time>2026-04-30T10:41:33.005Z</time></trkpt><trkpt lat="40.106463581062535" lon="9.52206064809388"><ele>830.0</ele><time>2026-04-30T10:41:34.004Z</time></trkpt><trkpt lat="40.10637224217979" lon="9.522310812921946"><ele>830.0</ele><time>2026-04-30T10:41:35.004Z</time></trkpt><trkpt lat="40.106285636198116" lon="9.52255878627051"><ele>830.0</ele><time>2026-04-30T10:41:36.005Z</time></trkpt><trkpt lat="40.10617517180475" lon="9.522788971139859"><ele>830.0</ele><time>2026-04-30T10:41:37.004Z</time></trkpt><trkpt lat="40.10602687052271" lon="9.52300200389036"><ele>828.0</ele><time>2026-04-30T10:41:38.004Z</time></trkpt><trkpt lat="40.105857534683494" lon="9.523170695981923"><ele>826.0</ele><time>2026-04-30T10:41:39.004Z</time></trkpt><trkpt lat="40.10568677486705" lon="9.523314783081961"><ele>824.0</ele><time>2026-04-30T10:41:40.005Z</time></trkpt><trkpt lat="40.105499710834984" lon="9.523440061094885"><ele>824.0</ele><time>2026-04-30T10:41:41.005Z</time></trkpt><trkpt lat="40.1053222964168" lon="9.523565484824518"><ele>824.0</ele><time>2026-04-30T10:41:42.005Z</time></trkpt><trkpt lat="40.1051525441536" lon="9.52368531258205"><ele>824.0</ele><time>2026-04-30T10:41:43.004Z</time></trkpt><trkpt lat="40.10500744412809" lon="9.523809074998445"><ele>819.6666666666667</ele><time>2026-04-30T10:41:44.004Z</time></trkpt><trkpt lat="40.10489005379971" lon="9.523972355288985"><ele>815.3333333333333</ele><time>2026-04-30T10:41:45.005Z</time></trkpt><trkpt lat="40.10480253975316" lon="9.524176068086467"><ele>811.0</ele><time>2026-04-30T10:41:46.004Z</time></trkpt><trkpt lat="40.10475801361242" lon="9.52437120182413"><ele>811.0</ele><time>2026-04-30T10:41:47.004Z</time></trkpt><trkpt lat="40.10475660352917" lon="9.524553023037345"><ele>811.0</ele><time>2026-04-30T10:41:48.004Z</time></trkpt><trkpt lat="40.10480446491483" lon="9.524718450245379"><ele>811.0</ele><time>2026-04-30T10:41:49.004Z</time></trkpt><trkpt lat="40.10490115328118" lon="9.524855244130622"><ele>811.0</ele><time>2026-04-30T10:41:50.004Z</time></trkpt><trkpt lat="40.10503573505767" lon="9.524927943429626"><ele>817.6666666666666</ele><time>2026-04-30T10:41:51.004Z</time></trkpt><trkpt lat="40.10521974090109" lon="9.524950864631586"><ele>824.3333333333333</ele><time>2026-04-30T10:41:52.004Z</time></trkpt><trkpt lat="40.10542395072736" lon="9.524930686683192"><ele>831.0</ele><time>2026-04-30T10:41:53.004Z</time></trkpt><trkpt lat="40.10564002400734" lon="9.524930983137715"><ele>831.6666666666667</ele><time>2026-04-30T10:41:54.004Z</time></trkpt><trkpt lat="40.10583244124133" lon="9.524947918636384"><ele>832.3333333333334</ele><time>2026-04-30T10:41:55.004Z</time></trkpt><trkpt lat="40.106009282066246" lon="9.524988506436596"><ele>833.0</ele><time>2026-04-30T10:41:56.004Z</time></trkpt><trkpt lat="40.10617456401249" lon="9.525075731221314"><ele>833.0</ele><time>2026-04-30T10:41:57.004Z</time></trkpt><trkpt lat="40.106303389313425" lon="9.525247089389177"><ele>833.0</ele><time>2026-04-30T10:41:58.004Z</time></trkpt><trkpt lat="40.10639736012298" lon="9.525446358734737"><ele>833.0</ele><time>2026-04-30T10:41:59.004Z</time></trkpt><trkpt lat="40.106475916193546" lon="9.525672888862818"><ele>827.6666666666667</ele><time>2026-04-30T10:42:00.004Z</time></trkpt><trkpt lat="40.10652120511204" lon="9.525902377490556"><ele>822.3333333333333</ele><time>2026-04-30T10:42:01.004Z</time></trkpt><trkpt lat="40.10651878736931" lon="9.526135658240019"><ele>817.0</ele><time>2026-04-30T10:42:02.004Z</time></trkpt><trkpt lat="40.10646939579767" lon="9.52636300664407"><ele>817.0</ele><time>2026-04-30T10:42:03.004Z</time></trkpt><trkpt lat="40.10634701350928" lon="9.526530021134855"><ele>817.0</ele><time>2026-04-30T10:42:04.004Z</time></trkpt><trkpt lat="40.106226361319976" lon="9.526708329960584"><ele>817.0</ele><time>2026-04-30T10:42:05.004Z</time></trkpt><trkpt lat="40.10608076029052" lon="9.526837434387929"><ele>817.0</ele><time>2026-04-30T10:42:06.004Z</time></trkpt><trkpt lat="40.10591556606109" lon="9.526873556165768"><ele>817.0</ele><time>2026-04-30T10:42:07.004Z</time></trkpt><trkpt lat="40.10573191603975" lon="9.526905937293641"><ele>817.0</ele><time>2026-04-30T10:42:08.004Z</time></trkpt><trkpt lat="40.10554111387859" lon="9.526956054212452"><ele>817.3333333333333</ele><time>2026-04-30T10:42:09.004Z</time></trkpt><trkpt lat="40.10535583554323" lon="9.526996859242109"><ele>817.6666666666667</ele><time>2026-04-30T10:42:10.004Z</time></trkpt><trkpt lat="40.10516907352026" lon="9.527083275107158"><ele>818.0</ele><time>2026-04-30T10:42:11.004Z</time></trkpt><trkpt lat="40.10499414050502" lon="9.527217877128692"><ele>808.6666666666667</ele><time>2026-04-30T10:42:12.004Z</time></trkpt><trkpt lat="40.1048363251967" lon="9.527363461642764"><ele>799.3333333333333</ele><time>2026-04-30T10:42:13.004Z</time></trkpt><trkpt lat="40.1047005542726" lon="9.527513553062336"><ele>790.0</ele><time>2026-04-30T10:42:14.004Z</time></trkpt><trkpt lat="40.10459062982345" lon="9.52769248850784"><ele>791.6666666666666</ele><time>2026-04-30T10:42:15.004Z</time></trkpt><trkpt lat="40.10450732023807" lon="9.527916450183135"><ele>793.3333333333333</ele><time>2026-04-30T10:42:16.004Z</time></trkpt><trkpt lat="40.104450406587574" lon="9.528162757884747"><ele>795.0</ele><time>2026-04-30T10:42:17.004Z</time></trkpt><trkpt lat="40.10441742711434" lon="9.528395466319319"><ele>795.0</ele><time>2026-04-30T10:42:18.004Z</time></trkpt><trkpt lat="40.10441757470581" lon="9.528636165714332"><ele>795.0</ele><time>2026-04-30T10:42:19.004Z</time></trkpt><trkpt lat="40.10446280478262" lon="9.528903503046651"><ele>795.0</ele><time>2026-04-30T10:42:20.004Z</time></trkpt><trkpt lat="40.10453599597247" lon="9.529180838470188"><ele>794.0</ele><time>2026-04-30T10:42:21.004Z</time></trkpt><trkpt lat="40.10458986678852" lon="9.529479647918746"><ele>793.0</ele><time>2026-04-30T10:42:22.004Z</time></trkpt><trkpt lat="40.10464458176345" lon="9.529761283473766"><ele>792.3333333333333</ele><time>2026-04-30T10:42:23.004Z</time></trkpt><trkpt lat="40.104694984929395" lon="9.530016296015475"><ele>791.6666666666667</ele><time>2026-04-30T10:42:24.004Z</time></trkpt><trkpt lat="40.10473232520561" lon="9.530228629256543"><ele>791.0</ele><time>2026-04-30T10:42:25.004Z</time></trkpt><trkpt lat="40.10473379682113" lon="9.530393830057978"><ele>789.8</ele><time>2026-04-30T10:42:26.004Z</time></trkpt><trkpt lat="40.104713915149006" lon="9.530526933893926"><ele>788.5999999999999</ele><time>2026-04-30T10:42:27.004Z</time></trkpt><trkpt lat="40.10462065580018" lon="9.5305773279935"><ele>787.4</ele><time>2026-04-30T10:42:28.004Z</time></trkpt><trkpt lat="40.104525872568644" lon="9.530613455729984"><ele>786.2</ele><time>2026-04-30T10:42:29.004Z</time></trkpt><trkpt lat="40.10441947033171" lon="9.530574580982558"><ele>785.0</ele><time>2026-04-30T10:42:30.004Z</time></trkpt><trkpt lat="40.104326281029756" lon="9.530474434716462"><ele>786.5</ele><time>2026-04-30T10:42:31.004Z</time></trkpt><trkpt lat="40.10428143344684" lon="9.530319075931628"><ele>788.0</ele><time>2026-04-30T10:42:32.004Z</time></trkpt><trkpt lat="40.10426335587232" lon="9.530138826764265"><ele>789.5</ele><time>2026-04-30T10:42:33.004Z</time></trkpt><trkpt lat="40.10429811449005" lon="9.52994348089731"><ele>791.0</ele><time>2026-04-30T10:42:34.004Z</time></trkpt><trkpt lat="40.104339895875654" lon="9.52976045875308"><ele>791.0</ele><time>2026-04-30T10:42:35.004Z</time></trkpt><trkpt lat="40.10434862867657" lon="9.529604913279158"><ele>791.0</ele><time>2026-04-30T10:42:36.004Z</time></trkpt><trkpt lat="40.10431265698894" lon="9.529475615356581"><ele>791.0</ele><time>2026-04-30T10:42:37.004Z</time></trkpt><trkpt lat="40.10422230598328" lon="9.529404780862238"><ele>791.0</ele><time>2026-04-30T10:42:38.004Z</time></trkpt><trkpt lat="40.10410521497517" lon="9.529403423798456"><ele>791.0</ele><time>2026-04-30T10:42:39.004Z</time></trkpt><trkpt lat="40.10399786910261" lon="9.529454179097478"><ele>788.75</ele><time>2026-04-30T10:42:40.004Z</time></trkpt><trkpt lat="40.10392090534382" lon="9.529562711714869"><ele>786.5</ele><time>2026-04-30T10:42:41.004Z</time></trkpt><trkpt lat="40.103882553101066" lon="9.529736016567389"><ele>784.25</ele><time>2026-04-30T10:42:42.004Z</time></trkpt><trkpt lat="40.10385429335772" lon="9.529925127008223"><ele>782.0</ele><time>2026-04-30T10:42:43.004Z</time></trkpt><trkpt lat="40.10380215626672" lon="9.530101838823212"><ele>782.0</ele><time>2026-04-30T10:42:44.004Z</time></trkpt><trkpt lat="40.10371152321172" lon="9.530227105340282"><ele>782.0</ele><time>2026-04-30T10:42:45.004Z</time></trkpt><trkpt lat="40.10359467232693" lon="9.53028563462233"><ele>782.0</ele><time>2026-04-30T10:42:46.004Z</time></trkpt><trkpt lat="40.103452996499726" lon="9.53028335201759"><ele>782.0</ele><time>2026-04-30T10:42:47.004Z</time></trkpt><trkpt lat="40.10327607477927" lon="9.530236033570537"><ele>780.3333333333334</ele><time>2026-04-30T10:42:48.004Z</time></trkpt><trkpt lat="40.10306991777303" lon="9.530195415536234"><ele>778.6666666666667</ele><time>2026-04-30T10:42:49.004Z</time></trkpt><trkpt lat="40.10284355981199" lon="9.530132372301786"><ele>777.0</ele><time>2026-04-30T10:42:50.004Z</time></trkpt><trkpt lat="40.10260607653706" lon="9.530082510860765"><ele>776.3333333333333</ele><time>2026-04-30T10:42:51.003Z</time></trkpt><trkpt lat="40.10238278972791" lon="9.530031996013655"><ele>775.6666666666666</ele><time>2026-04-30T10:42:52.003Z</time></trkpt><trkpt lat="40.10221602901313" lon="9.52999065106049"><ele>775.0</ele><time>2026-04-30T10:42:53.003Z</time></trkpt><trkpt lat="40.10209298984461" lon="9.529945511267922"><ele>775.0</ele><time>2026-04-30T10:42:54.003Z</time></trkpt><trkpt lat="40.10198164820321" lon="9.529867439852593"><ele>775.0</ele><time>2026-04-30T10:42:55.003Z</time></trkpt><trkpt lat="40.10190038878027" lon="9.52972522954"><ele>775.0</ele><time>2026-04-30T10:42:56.003Z</time></trkpt><trkpt lat="40.10185633536862" lon="9.529532573345175"><ele>775.0</ele><time>2026-04-30T10:42:57.003Z</time></trkpt><trkpt lat="40.101863503561816" lon="9.529314614366927"><ele>773.5</ele><time>2026-04-30T10:42:58.003Z</time></trkpt><trkpt lat="40.10189247841796" lon="9.529096488049937"><ele>772.0</ele><time>2026-04-30T10:42:59.003Z</time></trkpt><trkpt lat="40.10188673345544" lon="9.528911880975519"><ele>770.5</ele><time>2026-04-30T10:43:00.003Z</time></trkpt><trkpt lat="40.10183296625119" lon="9.52876218623276"><ele>769.0</ele><time>2026-04-30T10:43:01.003Z</time></trkpt><trkpt lat="40.10174014561974" lon="9.528649392835868"><ele>764.0</ele><time>2026-04-30T10:43:02.003Z</time></trkpt><trkpt lat="40.10161675197445" lon="9.528585711058945"><ele>759.0</ele><time>2026-04-30T10:43:03.003Z</time></trkpt><trkpt lat="40.10147131826109" lon="9.528578307805969"><ele>754.0</ele><time>2026-04-30T10:43:04.003Z</time></trkpt><trkpt lat="40.10130121587711" lon="9.52862261321387"><ele>754.3333333333334</ele><time>2026-04-30T10:43:05.003Z</time></trkpt><trkpt lat="40.1011052127638" lon="9.52868841625406"><ele>754.6666666666666</ele><time>2026-04-30T10:43:06.003Z</time></trkpt><trkpt lat="40.10089344924009" lon="9.528775071964718"><ele>755.0</ele><time>2026-04-30T10:43:07.003Z</time></trkpt><trkpt lat="40.100671212978966" lon="9.528857917725674"><ele>755.0</ele><time>2026-04-30T10:43:08.003Z</time></trkpt><trkpt lat="40.10044119256568" lon="9.528925973244847"><ele>755.0</ele><time>2026-04-30T10:43:09.003Z</time></trkpt><trkpt lat="40.100217531917046" lon="9.52898179039551"><ele>755.0</ele><time>2026-04-30T10:43:10.003Z</time></trkpt><trkpt lat="40.100000365104854" lon="9.529015272364608"><ele>755.0</ele><time>2026-04-30T10:43:11.003Z</time></trkpt><trkpt lat="40.099792536345724" lon="9.529063314180572"><ele>755.0</ele><time>2026-04-30T10:43:12.003Z</time></trkpt><trkpt lat="40.09959035702364" lon="9.529123992515604"><ele>749.5</ele><time>2026-04-30T10:43:13.003Z</time></trkpt><trkpt lat="40.09938034739633" lon="9.529243017876338"><ele>744.0</ele><time>2026-04-30T10:43:14.003Z</time></trkpt><trkpt lat="40.0991801271715" lon="9.529382742463808"><ele>742.6666666666666</ele><time>2026-04-30T10:43:15.003Z</time></trkpt><trkpt lat="40.098984196794575" lon="9.52952050809317"><ele>741.3333333333333</ele><time>2026-04-30T10:43:16.003Z</time></trkpt><trkpt lat="40.098796421508865" lon="9.529639116919055"><ele>740.0</ele><time>2026-04-30T10:43:17.003Z</time></trkpt><trkpt lat="40.098608645880844" lon="9.529749081392518"><ele>740.0</ele><time>2026-04-30T10:43:18.003Z</time></trkpt><trkpt lat="40.09842254236232" lon="9.529859232397618"><ele>740.0</ele><time>2026-04-30T10:43:19.003Z</time></trkpt><trkpt lat="40.09824207228036" lon="9.529959234343915"><ele>740.0</ele><time>2026-04-30T10:43:20.003Z</time></trkpt><trkpt lat="40.098054147840415" lon="9.530049650814552"><ele>739.6666666666666</ele><time>2026-04-30T10:43:21.003Z</time></trkpt><trkpt lat="40.09785487998168" lon="9.530129344701468"><ele>739.3333333333334</ele><time>2026-04-30T10:43:22.003Z</time></trkpt><trkpt lat="40.09765231542791" lon="9.53015453358987"><ele>739.0</ele><time>2026-04-30T10:43:23.003Z</time></trkpt><trkpt lat="40.097441948258904" lon="9.53016498183002"><ele>736.6666666666667</ele><time>2026-04-30T10:43:24.003Z</time></trkpt><trkpt lat="40.097227778208875" lon="9.530183141553062"><ele>734.3333333333334</ele><time>2026-04-30T10:43:25.003Z</time></trkpt><trkpt lat="40.0970236420083" lon="9.530183600477274"><ele>732.0</ele><time>2026-04-30T10:43:26.003Z</time></trkpt><trkpt lat="40.09683625083754" lon="9.530188767450191"><ele>732.0</ele><time>2026-04-30T10:43:27.003Z</time></trkpt><trkpt lat="40.0966767702332" lon="9.530202182600918"><ele>732.0</ele><time>2026-04-30T10:43:28.003Z</time></trkpt><trkpt lat="40.09652766186711" lon="9.530249812737226"><ele>732.0</ele><time>2026-04-30T10:43:29.003Z</time></trkpt><trkpt lat="40.0964054829817" lon="9.530346247097564"><ele>730.25</ele><time>2026-04-30T10:43:30.003Z</time></trkpt><trkpt lat="40.096316008002226" lon="9.530487600899344"><ele>728.5</ele><time>2026-04-30T10:43:31.003Z</time></trkpt><trkpt lat="40.096250865750456" lon="9.530657211953788"><ele>726.75</ele><time>2026-04-30T10:43:32.003Z</time></trkpt><trkpt lat="40.09621359108601" lon="9.530842396259697"><ele>725.0</ele><time>2026-04-30T10:43:33.003Z</time></trkpt><trkpt lat="40.096201661417325" lon="9.53103593286329"><ele>725.0</ele><time>2026-04-30T10:43:34.003Z</time></trkpt><trkpt lat="40.0962107392536" lon="9.531234302061954"><ele>725.0</ele><time>2026-04-30T10:43:35.003Z</time></trkpt><trkpt lat="40.096210573615785" lon="9.531441529253538"><ele>725.0</ele><time>2026-04-30T10:43:36.003Z</time></trkpt><trkpt lat="40.096212310476226" lon="9.531618484750277"><ele>725.0</ele><time>2026-04-30T10:43:37.003Z</time></trkpt><trkpt lat="40.096204842731765" lon="9.53175455769018"><ele>725.0</ele><time>2026-04-30T10:43:38.003Z</time></trkpt><trkpt lat="40.096201459434226" lon="9.531858544106232"><ele>725.0</ele><time>2026-04-30T10:43:39.005Z</time></trkpt><trkpt lat="40.09619249074305" lon="9.531981246281784"><ele>725.0</ele><time>2026-04-30T10:43:41.004Z</time></trkpt><trkpt lat="40.09617990726182" lon="9.53207316487199"><ele>725.0</ele><time>2026-04-30T10:43:45.005Z</time></trkpt><trkpt lat="40.096170509542205" lon="9.532171027196567"><ele>725.0</ele><time>2026-04-30T10:44:11.004Z</time></trkpt><trkpt lat="40.096127003586226" lon="9.5322549283745"><ele>725.0</ele><time>2026-04-30T10:44:13.004Z</time></trkpt><trkpt lat="40.09609756229758" lon="9.532329112312333"><ele>724.8333333333333</ele><time>2026-04-30T10:44:14.004Z</time></trkpt><trkpt lat="40.096081770847604" lon="9.532416123304735"><ele>724.6666666666666</ele><time>2026-04-30T10:44:15.004Z</time></trkpt><trkpt lat="40.096070673442455" lon="9.532500013515747"><ele>724.5</ele><time>2026-04-30T10:44:16.004Z</time></trkpt><trkpt lat="40.09604636923173" lon="9.53258058322781"><ele>724.3333333333334</ele><time>2026-04-30T10:44:18.004Z</time></trkpt><trkpt lat="40.09598036356566" lon="9.532653095376121"><ele>724.1666666666667</ele><time>2026-04-30T10:44:21.004Z</time></trkpt><trkpt lat="40.09591195019962" lon="9.532699322493215"><ele>724.0</ele><time>2026-04-30T10:44:24.004Z</time></trkpt><trkpt lat="40.09610575071931" lon="9.532784040406591"><ele>724.0</ele><time>2026-04-30T10:44:27.004Z</time></trkpt><trkpt lat="40.09611752885585" lon="9.532675577167632"><ele>724.0</ele><time>2026-04-30T10:44:30.004Z</time></trkpt><trkpt lat="40.09612375905519" lon="9.532592760019167"><ele>724.0</ele><time>2026-04-30T10:44:31.004Z</time></trkpt><trkpt lat="40.09612496974305" lon="9.532501182917256"><ele>724.0</ele><time>2026-04-30T10:44:32.004Z</time></trkpt><trkpt lat="40.09612617770574" lon="9.532409815735017"><ele>724.0</ele><time>2026-04-30T10:44:33.004Z</time></trkpt><trkpt lat="40.09612781299231" lon="9.53227368754816"><ele>724.0</ele><time>2026-04-30T10:44:35.004Z</time></trkpt><trkpt lat="40.09617237600332" lon="9.532190571389133"><ele>724.0</ele><time>2026-04-30T10:44:40.004Z</time></trkpt><trkpt lat="40.09620440711952" lon="9.532102242438174"><ele>724.0</ele><time>2026-04-30T10:44:42.005Z</time></trkpt><trkpt lat="40.09621931159426" lon="9.531928471833167"><ele>724.0</ele><time>2026-04-30T10:44:44.005Z</time></trkpt><trkpt lat="40.09622947572112" lon="9.531790940630975"><ele>724.0</ele><time>2026-04-30T10:44:45.005Z</time></trkpt><trkpt lat="40.096236926632926" lon="9.53162531136246"><ele>724.0</ele><time>2026-04-30T10:44:46.005Z</time></trkpt><trkpt lat="40.096239074041094" lon="9.531432170989438"><ele>724.25</ele><time>2026-04-30T10:44:47.005Z</time></trkpt><trkpt lat="40.09624215680536" lon="9.531243963606888"><ele>724.5</ele><time>2026-04-30T10:44:48.005Z</time></trkpt><trkpt lat="40.096245337128664" lon="9.531050577278835"><ele>724.75</ele><time>2026-04-30T10:44:49.005Z</time></trkpt><trkpt lat="40.09625596568102" lon="9.530871237135006"><ele>725.0</ele><time>2026-04-30T10:44:50.005Z</time></trkpt><trkpt lat="40.096280209457554" lon="9.530694285322689"><ele>725.0</ele><time>2026-04-30T10:44:51.005Z</time></trkpt><trkpt lat="40.096340845504436" lon="9.530531179547097"><ele>725.0</ele><time>2026-04-30T10:44:52.005Z</time></trkpt><trkpt lat="40.0964426662544" lon="9.530389270350504"><ele>725.0</ele><time>2026-04-30T10:44:53.005Z</time></trkpt><trkpt lat="40.09656526058712" lon="9.530281575859012"><ele>725.0</ele><time>2026-04-30T10:44:54.005Z</time></trkpt><trkpt lat="40.09669747689911" lon="9.530220258481672"><ele>727.3333333333333</ele><time>2026-04-30T10:44:55.005Z</time></trkpt><trkpt lat="40.0968463554619" lon="9.530205386073733"><ele>729.6666666666666</ele><time>2026-04-30T10:44:56.005Z</time></trkpt><trkpt lat="40.09701590589971" lon="9.530214816221475"><ele>732.0</ele><time>2026-04-30T10:44:57.005Z</time></trkpt><trkpt lat="40.09719707454508" lon="9.530217878512408"><ele>732.0</ele><time>2026-04-30T10:44:58.005Z</time></trkpt><trkpt lat="40.09737571598015" lon="9.530215315186025"><ele>732.0</ele><time>2026-04-30T10:44:59.005Z</time></trkpt><trkpt lat="40.097536362218584" lon="9.530209096469685"><ele>732.0</ele><time>2026-04-30T10:45:00.005Z</time></trkpt><trkpt lat="40.09769699934104" lon="9.530190516622504"><ele>734.3333333333334</ele><time>2026-04-30T10:45:01.005Z</time></trkpt><trkpt lat="40.097858384609005" lon="9.530153951226515"><ele>736.6666666666667</ele><time>2026-04-30T10:45:02.005Z</time></trkpt><trkpt lat="40.098021618764676" lon="9.530101953710508"><ele>739.0</ele><time>2026-04-30T10:45:03.005Z</time></trkpt><trkpt lat="40.09818486337891" lon="9.530030866553941"><ele>739.3333333333334</ele><time>2026-04-30T10:45:04.005Z</time></trkpt><trkpt lat="40.09834045496357" lon="9.52994347463439"><ele>739.6666666666666</ele><time>2026-04-30T10:45:05.005Z</time></trkpt><trkpt lat="40.098479249083645" lon="9.529859507069887"><ele>740.0</ele><time>2026-04-30T10:45:06.005Z</time></trkpt><trkpt lat="40.098610799554" lon="9.529782147084363"><ele>740.0</ele><time>2026-04-30T10:45:07.005Z</time></trkpt><trkpt lat="40.09873294998902" lon="9.529711728967607"><ele>740.0</ele><time>2026-04-30T10:45:08.005Z</time></trkpt><trkpt lat="40.098846504826916" lon="9.529637545590463"><ele>740.0</ele><time>2026-04-30T10:45:09.005Z</time></trkpt><trkpt lat="40.0989569799102" lon="9.52956773790064"><ele>740.0</ele><time>2026-04-30T10:45:10.005Z</time></trkpt><trkpt lat="40.09906184161586" lon="9.529500669024888"><ele>740.8</ele><time>2026-04-30T10:45:11.005Z</time></trkpt><trkpt lat="40.09915494419691" lon="9.529445995047487"><ele>741.6</ele><time>2026-04-30T10:45:12.005Z</time></trkpt><trkpt lat="40.09923931113567" lon="9.52939632920948"><ele>742.4000000000001</ele><time>2026-04-30T10:45:13.005Z</time></trkpt><trkpt lat="40.099308841018555" lon="9.529352648526718"><ele>743.2</ele><time>2026-04-30T10:45:14.005Z</time></trkpt><trkpt lat="40.09941300726659" lon="9.529321821821203"><ele>744.0</ele><time>2026-04-30T10:45:16.005Z</time></trkpt><trkpt lat="40.09947607715042" lon="9.529376074373745"><ele>744.0000000000001</ele><time>2026-04-30T10:45:19.004Z</time></trkpt><trkpt lat="40.09953085981927" lon="9.529321932726006"><ele>744.0</ele><time>2026-04-30T10:45:24.004Z</time></trkpt><trkpt lat="40.09959429511631" lon="9.529285540391223"><ele>744.0</ele><time>2026-04-30T10:45:28.004Z</time></trkpt><trkpt lat="40.09953339393445" lon="9.529320478885905"><ele>744.0</ele><time>2026-04-30T10:48:15.006Z</time></trkpt><trkpt lat="40.09952674265914" lon="9.529431050762744"><ele>744.0</ele><time>2026-04-30T10:48:23.006Z</time></trkpt><trkpt lat="40.099586352938395" lon="9.529403859506777"><ele>744.0000000000001</ele><time>2026-04-30T10:48:45.006Z</time></trkpt><trkpt lat="40.09965306520814" lon="9.529370084782284"><ele>744.0</ele><time>2026-04-30T10:48:51.006Z</time></trkpt><trkpt lat="40.099592185826744" lon="9.529422479726332"><ele>744.0000000000001</ele><time>2026-04-30T10:49:05.006Z</time></trkpt><trkpt lat="40.099549747663204" lon="9.529484040668006"><ele>744.0</ele><time>2026-04-30T10:51:41.005Z</time></trkpt><trkpt lat="40.099582920428865" lon="9.529401084096582"><ele>744.0</ele><time>2026-04-30T10:53:42.005Z</time></trkpt><trkpt lat="40.0996519367414" lon="9.529351825604403"><ele>744.0</ele><time>2026-04-30T10:53:47.005Z</time></trkpt><trkpt lat="40.099579153814844" lon="9.529372500576548"><ele>744.0</ele><time>2026-04-30T10:57:02Z</time></trkpt><trkpt lat="40.09952100008415" lon="9.52942232205681"><ele>744.0000000000001</ele><time>2026-04-30T10:57:08.999Z</time></trkpt><trkpt lat="40.0995096929506" lon="9.529529934393459"><ele>744.0</ele><time>2026-04-30T10:57:17.999Z</time></trkpt><trkpt lat="40.09953579927832" lon="9.529624101505183"><ele>744.0000000000001</ele><time>2026-04-30T10:57:20.999Z</time></trkpt><trkpt lat="40.09956198757776" lon="9.529720533994116"><ele>744.0</ele><time>2026-04-30T10:57:25.999Z</time></trkpt><trkpt lat="40.09962244203835" lon="9.529761408861873"><ele>744.0</ele><time>2026-04-30T12:44:33.001Z</time></trkpt><trkpt lat="40.09959259820612" lon="9.529850485976318"><ele>744.0</ele><time>2026-04-30T12:44:41.001Z</time></trkpt><trkpt lat="40.09962683740056" lon="9.529771437133329"><ele>744.0</ele><time>2026-04-30T12:48:41.999Z</time></trkpt><trkpt lat="40.099651883364466" lon="9.529685722154703"><ele>744.0000000000001</ele><time>2026-04-30T12:49:04.999Z</time></trkpt><trkpt lat="40.099677223324925" lon="9.52961024286093"><ele>744.0</ele><time>2026-04-30T12:49:11.999Z</time></trkpt><trkpt lat="40.09960496991323" lon="9.529551646188532"><ele>744.0000000000001</ele><time>2026-04-30T12:49:39Z</time></trkpt><trkpt lat="40.0996468646179" lon="9.529449321831747"><ele>744.0</ele><time>2026-04-30T12:50:10Z</time></trkpt><trkpt lat="40.09959472822104" lon="9.529512338240988"><ele>744.0</ele><time>2026-04-30T12:50:48Z</time></trkpt><trkpt lat="40.099531508560986" lon="9.529510181957516"><ele>744.0</ele><time>2026-04-30T12:50:59Z</time></trkpt><trkpt lat="40.099463086378265" lon="9.529516492300134"><ele>744.0</ele><time>2026-04-30T12:51:06Z</time></trkpt><trkpt lat="40.09937985577149" lon="9.529509876461699"><ele>744.0000000000001</ele><time>2026-04-30T12:51:11Z</time></trkpt><trkpt lat="40.09944342688558" lon="9.529515006686427"><ele>744.0</ele><time>2026-04-30T12:51:41.999Z</time></trkpt><trkpt lat="40.09953511571029" lon="9.529522045594462"><ele>744.0</ele><time>2026-04-30T12:51:44Z</time></trkpt><trkpt lat="40.09964053842858" lon="9.529481622517315"><ele>744.0</ele><time>2026-04-30T12:51:57.002Z</time></trkpt><trkpt lat="40.09969359897975" lon="9.529548136906653"><ele>744.0</ele><time>2026-04-30T12:52:01.002Z</time></trkpt><trkpt lat="40.09963974248025" lon="9.529494639034397"><ele>744.0</ele><time>2026-04-30T12:52:15.001Z</time></trkpt><trkpt lat="40.0995757773102" lon="9.529464801406135"><ele>744.0</ele><time>2026-04-30T12:52:23.001Z</time></trkpt><trkpt lat="40.09959969756241" lon="9.529381217640228"><ele>744.0</ele><time>2026-04-30T12:52:34.001Z</time></trkpt><trkpt lat="40.099647683479695" lon="9.529324184961407"><ele>744.0</ele><time>2026-04-30T12:52:49.001Z</time></trkpt><trkpt lat="40.09958111339198" lon="9.52936166016182"><ele>744.0</ele><time>2026-04-30T12:54:14.001Z</time></trkpt><trkpt lat="40.09953574015227" lon="9.52942831227385"><ele>744.0</ele><time>2026-04-30T12:54:50Z</time></trkpt><trkpt lat="40.099552326289306" lon="9.529520320793761"><ele>744.0</ele><time>2026-04-30T12:54:54Z</time></trkpt><trkpt lat="40.099581416384986" lon="9.529611849283057"><ele>744.0</ele><time>2026-04-30T12:54:57Z</time></trkpt><trkpt lat="40.099608244534934" lon="9.529686397217363"><ele>744.0</ele><time>2026-04-30T12:55:03Z</time></trkpt><trkpt lat="40.09962610983282" lon="9.529812642082737"><ele>744.0000000000001</ele><time>2026-04-30T12:56:06.001Z</time></trkpt><trkpt lat="40.09958584620813" lon="9.529718979172074"><ele>744.0</ele><time>2026-04-30T12:57:05Z</time></trkpt><trkpt lat="40.0995723118553" lon="9.529630417559453"><ele>744.0</ele><time>2026-04-30T12:57:14Z</time></trkpt><trkpt lat="40.09957719987573" lon="9.52953793017466"><ele>744.0</ele><time>2026-04-30T12:57:24Z</time></trkpt><trkpt lat="40.099560663871394" lon="9.529448370915825"><ele>744.0</ele><time>2026-04-30T12:57:31Z</time></trkpt><trkpt lat="40.09960387978003" lon="9.529378877990656"><ele>744.0000000000001</ele><time>2026-04-30T12:57:38Z</time></trkpt><trkpt lat="40.09955009288232" lon="9.529313864100848"><ele>744.0</ele><time>2026-04-30T13:06:42Z</time></trkpt><trkpt lat="40.099479408535764" lon="9.529305805993157"><ele>744.0</ele><time>2026-04-30T13:06:47Z</time></trkpt><trkpt lat="40.099427619746756" lon="9.529245755100861"><ele>744.0</ele><time>2026-04-30T13:08:42Z</time></trkpt><trkpt lat="40.0993381284635" lon="9.529259875486803"><ele>744.0</ele><time>2026-04-30T13:08:44Z</time></trkpt><trkpt lat="40.099239952394754" lon="9.529332807641497"><ele>744.0</ele><time>2026-04-30T13:08:46Z</time></trkpt><trkpt lat="40.099131877195575" lon="9.529400196630899"><ele>744.0</ele><time>2026-04-30T13:08:48Z</time></trkpt><trkpt lat="40.09907284949884" lon="9.529433422118078"><ele>743.3333333333334</ele><time>2026-04-30T13:08:49Z</time></trkpt><trkpt lat="40.0990094726362" lon="9.529465616184757"><ele>742.6666666666666</ele><time>2026-04-30T13:08:50Z</time></trkpt><trkpt lat="40.098945064629845" lon="9.529502476457019"><ele>742.0</ele><time>2026-04-30T13:08:51Z</time></trkpt><trkpt lat="40.09887812576987" lon="9.529538855057385"><ele>741.3333333333333</ele><time>2026-04-30T13:08:52Z</time></trkpt><trkpt lat="40.09880792334448" lon="9.52958534409238"><ele>740.6666666666666</ele><time>2026-04-30T13:08:53Z</time></trkpt><trkpt lat="40.09873634296387" lon="9.529636285042649"><ele>740.0</ele><time>2026-04-30T13:08:54Z</time></trkpt><trkpt lat="40.098661174422425" lon="9.529681983541538"><ele>740.0</ele><time>2026-04-30T13:08:55Z</time></trkpt><trkpt lat="40.098576493869245" lon="9.529732425112535"><ele>740.0</ele><time>2026-04-30T13:08:56Z</time></trkpt><trkpt lat="40.098486989318744" lon="9.529786892587184"><ele>740.0</ele><time>2026-04-30T13:08:57Z</time></trkpt><trkpt lat="40.09839984826307" lon="9.529841710511628"><ele>740.0</ele><time>2026-04-30T13:08:58Z</time></trkpt><trkpt lat="40.09831737669808" lon="9.529892590945494"><ele>740.0</ele><time>2026-04-30T13:08:59Z</time></trkpt><trkpt lat="40.09823378127261" lon="9.529934981398782"><ele>739.8333333333333</ele><time>2026-04-30T13:09:00Z</time></trkpt><trkpt lat="40.09814818296326" lon="9.529969845059494"><ele>739.6666666666666</ele><time>2026-04-30T13:09:01Z</time></trkpt><trkpt lat="40.09806552232722" lon="9.530002777170266"><ele>739.5</ele><time>2026-04-30T13:09:02Z</time></trkpt><trkpt lat="40.097983844256426" lon="9.530032121762149"><ele>739.3333333333334</ele><time>2026-04-30T13:09:03Z</time></trkpt><trkpt lat="40.09790354762082" lon="9.530059296173885"><ele>739.1666666666667</ele><time>2026-04-30T13:09:04Z</time></trkpt><trkpt lat="40.097822246443364" lon="9.530084927606326"><ele>739.0</ele><time>2026-04-30T13:09:05Z</time></trkpt><trkpt lat="40.097725912362414" lon="9.530105753077825"><ele>739.0</ele><time>2026-04-30T13:09:06Z</time></trkpt><trkpt lat="40.09761872775994" lon="9.530119925037491"><ele>739.0</ele><time>2026-04-30T13:09:07Z</time></trkpt><trkpt lat="40.09750702350871" lon="9.5301288808927"><ele>739.0</ele><time>2026-04-30T13:09:08Z</time></trkpt><trkpt lat="40.097394083316324" lon="9.530129313813266"><ele>739.0</ele><time>2026-04-30T13:09:09Z</time></trkpt><trkpt lat="40.09728349213005" lon="9.530128666952015"><ele>739.0</ele><time>2026-04-30T13:09:10Z</time></trkpt><trkpt lat="40.09717750529072" lon="9.530132765503609"><ele>737.6</ele><time>2026-04-30T13:09:11Z</time></trkpt><trkpt lat="40.097076445468424" lon="9.5301388700521"><ele>736.2</ele><time>2026-04-30T13:09:12Z</time></trkpt><trkpt lat="40.09697966186956" lon="9.530144520812316"><ele>734.8000000000001</ele><time>2026-04-30T13:09:13Z</time></trkpt><trkpt lat="40.09687888484362" lon="9.530147268381654"><ele>733.4000000000001</ele><time>2026-04-30T13:09:14Z</time></trkpt><trkpt lat="40.09677661159625" lon="9.530156562553055"><ele>732.0</ele><time>2026-04-30T13:09:15Z</time></trkpt><trkpt lat="40.096672747770846" lon="9.53017901599913"><ele>730.25</ele><time>2026-04-30T13:09:16Z</time></trkpt><trkpt lat="40.09657168530115" lon="9.530220407546024"><ele>728.5</ele><time>2026-04-30T13:09:17Z</time></trkpt><trkpt lat="40.09647751212043" lon="9.5302973136612"><ele>726.75</ele><time>2026-04-30T13:09:17.999Z</time></trkpt><trkpt lat="40.09638951971255" lon="9.53041353819854"><ele>725.0</ele><time>2026-04-30T13:09:18.999Z</time></trkpt><trkpt lat="40.096316970612975" lon="9.53055890942125"><ele>725.0</ele><time>2026-04-30T13:09:19.999Z</time></trkpt><trkpt lat="40.09624606092475" lon="9.53071919212643"><ele>725.0</ele><time>2026-04-30T13:09:20.999Z</time></trkpt><trkpt lat="40.096219088154" lon="9.53091941582227"><ele>725.0</ele><time>2026-04-30T13:09:21.999Z</time></trkpt><trkpt lat="40.0962157785813" lon="9.531117536280709"><ele>725.0</ele><time>2026-04-30T13:09:22.999Z</time></trkpt><trkpt lat="40.09621256704025" lon="9.531328562306834"><ele>725.0</ele><time>2026-04-30T13:09:23.999Z</time></trkpt><trkpt lat="40.09621035076484" lon="9.531539543127174"><ele>725.0</ele><time>2026-04-30T13:09:24.999Z</time></trkpt><trkpt lat="40.09620818734451" lon="9.531745490201095"><ele>725.0</ele><time>2026-04-30T13:09:25.999Z</time></trkpt><trkpt lat="40.0962061958406" lon="9.53195350008649"><ele>724.75</ele><time>2026-04-30T13:09:26.999Z</time></trkpt><trkpt lat="40.096204288088195" lon="9.53215009006533"><ele>724.5</ele><time>2026-04-30T13:09:27.999Z</time></trkpt><trkpt lat="40.09621859085844" lon="9.532331628932129"><ele>724.25</ele><time>2026-04-30T13:09:28.999Z</time></trkpt><trkpt lat="40.09621601178073" lon="9.532507104013218"><ele>724.0</ele><time>2026-04-30T13:09:29.999Z</time></trkpt><trkpt lat="40.096213724279245" lon="9.532678260487463"><ele>724.0</ele><time>2026-04-30T13:09:30.999Z</time></trkpt><trkpt lat="40.0962107512411" lon="9.532842820943713"><ele>724.0</ele><time>2026-04-30T13:09:31.999Z</time></trkpt><trkpt lat="40.0962071101406" lon="9.532999196513138"><ele>724.0</ele><time>2026-04-30T13:09:32.999Z</time></trkpt><trkpt lat="40.096204561409785" lon="9.533144869909226"><ele>724.0</ele><time>2026-04-30T13:09:33.999Z</time></trkpt><trkpt lat="40.096200319975246" lon="9.533280468174263"><ele>724.4000000000001</ele><time>2026-04-30T13:09:34.999Z</time></trkpt><trkpt lat="40.09618922296526" lon="9.53340794671128"><ele>724.8</ele><time>2026-04-30T13:09:35.999Z</time></trkpt><trkpt lat="40.09616424484185" lon="9.533528463813454"><ele>725.2</ele><time>2026-04-30T13:09:36.999Z</time></trkpt><trkpt lat="40.096115546645464" lon="9.533646486875398"><ele>725.5999999999999</ele><time>2026-04-30T13:09:37.999Z</time></trkpt><trkpt lat="40.09604574969019" lon="9.533752027689673"><ele>726.0</ele><time>2026-04-30T13:09:38.999Z</time></trkpt><trkpt lat="40.09595929880277" lon="9.533846981828054"><ele>726.0</ele><time>2026-04-30T13:09:39.999Z</time></trkpt><trkpt lat="40.095857982443235" lon="9.533933989580296"><ele>726.0</ele><time>2026-04-30T13:09:40.999Z</time></trkpt><trkpt lat="40.09575215177361" lon="9.534015709852213"><ele>726.0</ele><time>2026-04-30T13:09:41.999Z</time></trkpt><trkpt lat="40.0956414454972" lon="9.534096034659088"><ele>726.0</ele><time>2026-04-30T13:09:42.999Z</time></trkpt><trkpt lat="40.095524099346505" lon="9.534190694640843"><ele>726.0</ele><time>2026-04-30T13:09:43.999Z</time></trkpt><trkpt lat="40.095409287543546" lon="9.534287663195958"><ele>726.0</ele><time>2026-04-30T13:09:44.999Z</time></trkpt><trkpt lat="40.095292680729514" lon="9.534392938010727"><ele>726.0</ele><time>2026-04-30T13:09:45.999Z</time></trkpt><trkpt lat="40.095190233559954" lon="9.534520447295444"><ele>726.0</ele><time>2026-04-30T13:09:46.999Z</time></trkpt><trkpt lat="40.095104476965155" lon="9.534677091167836"><ele>725.0</ele><time>2026-04-30T13:09:47.999Z</time></trkpt><trkpt lat="40.095054367912645" lon="9.534866086698525"><ele>724.0</ele><time>2026-04-30T13:09:48.999Z</time></trkpt><trkpt lat="40.095014714112786" lon="9.53506961719394"><ele>723.0</ele><time>2026-04-30T13:09:49.999Z</time></trkpt><trkpt lat="40.09497939720433" lon="9.535273243492659"><ele>722.6666666666666</ele><time>2026-04-30T13:09:50.999Z</time></trkpt><trkpt lat="40.09493439857267" lon="9.535474012750146"><ele>722.3333333333333</ele><time>2026-04-30T13:09:51.999Z</time></trkpt><trkpt lat="40.0948832307829" lon="9.53567311957416"><ele>722.0</ele><time>2026-04-30T13:09:52.999Z</time></trkpt><trkpt lat="40.09483286507706" lon="9.535875378109067"><ele>721.75</ele><time>2026-04-30T13:09:53.999Z</time></trkpt><trkpt lat="40.09478374434717" lon="9.536057887411724"><ele>721.5</ele><time>2026-04-30T13:09:54.999Z</time></trkpt><trkpt lat="40.094739358732" lon="9.536239658591342"><ele>721.25</ele><time>2026-04-30T13:09:55.999Z</time></trkpt><trkpt lat="40.09469787712062" lon="9.536409671563623"><ele>721.0</ele><time>2026-04-30T13:09:56.999Z</time></trkpt><trkpt lat="40.09465672828427" lon="9.536579961332455"><ele>721.0</ele><time>2026-04-30T13:09:57.999Z</time></trkpt><trkpt lat="40.09461448120494" lon="9.536756765424869"><ele>721.0</ele><time>2026-04-30T13:09:58.999Z</time></trkpt><trkpt lat="40.09457764926131" lon="9.536933212375452"><ele>721.0</ele><time>2026-04-30T13:09:59.999Z</time></trkpt><trkpt lat="40.094558198142416" lon="9.537108905185299"><ele>721.0</ele><time>2026-04-30T13:10:00.999Z</time></trkpt><trkpt lat="40.09456228260952" lon="9.537290167529264"><ele>721.0</ele><time>2026-04-30T13:10:01.999Z</time></trkpt><trkpt lat="40.094582022616194" lon="9.53747069715006"><ele>721.0</ele><time>2026-04-30T13:10:02.999Z</time></trkpt><trkpt lat="40.09461683909573" lon="9.537649232344702"><ele>721.0</ele><time>2026-04-30T13:10:03.999Z</time></trkpt><trkpt lat="40.09466411784018" lon="9.53781890301654"><ele>721.0</ele><time>2026-04-30T13:10:04.999Z</time></trkpt><trkpt lat="40.09472842458195" lon="9.537977079174679"><ele>721.25</ele><time>2026-04-30T13:10:05.999Z</time></trkpt><trkpt lat="40.09480678338221" lon="9.538124471738206"><ele>721.5</ele><time>2026-04-30T13:10:06.999Z</time></trkpt><trkpt lat="40.09490594876376" lon="9.53827017348268"><ele>721.75</ele><time>2026-04-30T13:10:07.999Z</time></trkpt><trkpt lat="40.09501411732971" lon="9.538408025318292"><ele>722.0</ele><time>2026-04-30T13:10:08.999Z</time></trkpt><trkpt lat="40.09512484640431" lon="9.538551226250362"><ele>722.3333333333333</ele><time>2026-04-30T13:10:09.999Z</time></trkpt><trkpt lat="40.095241308095005" lon="9.538693856455177"><ele>722.6666666666666</ele><time>2026-04-30T13:10:10.999Z</time></trkpt><trkpt lat="40.09535927411814" lon="9.538840235260881"><ele>723.0</ele><time>2026-04-30T13:10:11.999Z</time></trkpt><trkpt lat="40.09547986224353" lon="9.538988895632015"><ele>722.3333333333334</ele><time>2026-04-30T13:10:12.999Z</time></trkpt><trkpt lat="40.09560284145076" lon="9.539145159172742"><ele>721.6666666666667</ele><time>2026-04-30T13:10:13.999Z</time></trkpt><trkpt lat="40.09571506466458" lon="9.539304151439012"><ele>721.0</ele><time>2026-04-30T13:10:14.999Z</time></trkpt><trkpt lat="40.09582696439967" lon="9.53944337464005"><ele>720.75</ele><time>2026-04-30T13:10:15.999Z</time></trkpt><trkpt lat="40.09592603528207" lon="9.539566487225748"><ele>720.5</ele><time>2026-04-30T13:10:16.999Z</time></trkpt><trkpt lat="40.0960303844536" lon="9.539661109325277"><ele>720.25</ele><time>2026-04-30T13:10:17.999Z</time></trkpt><trkpt lat="40.09615095816591" lon="9.539696941107156"><ele>720.0</ele><time>2026-04-30T13:10:18.999Z</time></trkpt><trkpt lat="40.09628642172681" lon="9.539676268379988"><ele>720.0</ele><time>2026-04-30T13:10:19.999Z</time></trkpt><trkpt lat="40.09642726389469" lon="9.539618373841636"><ele>720.0</ele><time>2026-04-30T13:10:20.999Z</time></trkpt><trkpt lat="40.096568343368375" lon="9.53955667191287"><ele>720.0</ele><time>2026-04-30T13:10:21.999Z</time></trkpt><trkpt lat="40.09670815612597" lon="9.5395288046764"><ele>720.0</ele><time>2026-04-30T13:10:22.999Z</time></trkpt><trkpt lat="40.096848181366326" lon="9.539538813257218"><ele>720.75</ele><time>2026-04-30T13:10:23.999Z</time></trkpt><trkpt lat="40.09696938561307" lon="9.539626145230212"><ele>721.5</ele><time>2026-04-30T13:10:24.999Z</time></trkpt><trkpt lat="40.097081338398354" lon="9.539736148008283"><ele>722.25</ele><time>2026-04-30T13:10:25.999Z</time></trkpt><trkpt lat="40.09716373087375" lon="9.539896286864115"><ele>723.0</ele><time>2026-04-30T13:10:26.999Z</time></trkpt><trkpt lat="40.09718221191482" lon="9.540090371774815"><ele>723.0</ele><time>2026-04-30T13:10:27.999Z</time></trkpt><trkpt lat="40.09717989741731" lon="9.54029125005867"><ele>723.0</ele><time>2026-04-30T13:10:28.999Z</time></trkpt><trkpt lat="40.097165745217794" lon="9.540528735039265"><ele>723.0</ele><time>2026-04-30T13:10:29.999Z</time></trkpt><trkpt lat="40.09714306516381" lon="9.5407737058999"><ele>723.3333333333334</ele><time>2026-04-30T13:10:30.999Z</time></trkpt><trkpt lat="40.09709036231324" lon="9.54099344949528"><ele>723.6666666666667</ele><time>2026-04-30T13:10:31.999Z</time></trkpt><trkpt lat="40.09701608838673" lon="9.541224726478747"><ele>724.0</ele><time>2026-04-30T13:10:32.999Z</time></trkpt><trkpt lat="40.09694313558296" lon="9.541462211940306"><ele>724.6666666666667</ele><time>2026-04-30T13:10:33.999Z</time></trkpt><trkpt lat="40.096900372455224" lon="9.5417135605156"><ele>725.3333333333334</ele><time>2026-04-30T13:10:34.998Z</time></trkpt><trkpt lat="40.09690133618913" lon="9.541976473953019"><ele>726.0</ele><time>2026-04-30T13:10:35.998Z</time></trkpt><trkpt lat="40.09691334679603" lon="9.542248235646246"><ele>726.3333333333334</ele><time>2026-04-30T13:10:37Z</time></trkpt><trkpt lat="40.09692361890559" lon="9.542518294748797"><ele>726.6666666666667</ele><time>2026-04-30T13:10:38Z</time></trkpt><trkpt lat="40.09693407364891" lon="9.542806209854051"><ele>727.0</ele><time>2026-04-30T13:10:39Z</time></trkpt><trkpt lat="40.09694456025184" lon="9.543095002387842"><ele>727.0</ele><time>2026-04-30T13:10:39.999Z</time></trkpt><trkpt lat="40.09695321211379" lon="9.543365532614628"><ele>727.0</ele><time>2026-04-30T13:10:41Z</time></trkpt><trkpt lat="40.096958431342706" lon="9.54363127350359"><ele>727.0</ele><time>2026-04-30T13:10:42Z</time></trkpt><trkpt lat="40.09694136421763" lon="9.543885299590153"><ele>724.6666666666667</ele><time>2026-04-30T13:10:42.999Z</time></trkpt><trkpt lat="40.096889154685314" lon="9.54411471064081"><ele>722.3333333333334</ele><time>2026-04-30T13:10:44Z</time></trkpt><trkpt lat="40.09683572763612" lon="9.544321600348898"><ele>720.0</ele><time>2026-04-30T13:10:45Z</time></trkpt><trkpt lat="40.0968064901795" lon="9.544508815341285"><ele>719.25</ele><time>2026-04-30T13:10:46Z</time></trkpt><trkpt lat="40.09679684599138" lon="9.544674872045197"><ele>718.5</ele><time>2026-04-30T13:10:46.999Z</time></trkpt><trkpt lat="40.096826887519725" lon="9.544834116667209"><ele>717.75</ele><time>2026-04-30T13:10:47.999Z</time></trkpt><trkpt lat="40.09692687837104" lon="9.54495761884359"><ele>717.0</ele><time>2026-04-30T13:10:48.999Z</time></trkpt><trkpt lat="40.09703954232405" lon="9.545068562107716"><ele>717.0</ele><time>2026-04-30T13:10:49.997Z</time></trkpt><trkpt lat="40.09716199891113" lon="9.54517698694672"><ele>717.0</ele><time>2026-04-30T13:10:50.995Z</time></trkpt><trkpt lat="40.09723279279795" lon="9.545326709203012"><ele>717.0</ele><time>2026-04-30T13:10:51.993Z</time></trkpt><trkpt lat="40.0972600865772" lon="9.545501746787929"><ele>717.0</ele><time>2026-04-30T13:10:52.991Z</time></trkpt><trkpt lat="40.09723181443345" lon="9.545703701610458"><ele>717.4000000000001</ele><time>2026-04-30T13:10:53.989Z</time></trkpt><trkpt lat="40.09721464978085" lon="9.545879326301622"><ele>717.8000000000001</ele><time>2026-04-30T13:10:54.988Z</time></trkpt><trkpt lat="40.097211675522594" lon="9.546009954983004"><ele>718.2</ele><time>2026-04-30T13:10:55.986Z</time></trkpt><trkpt lat="40.0971856843309" lon="9.546114821424025"><ele>718.6</ele><time>2026-04-30T13:10:56.985Z</time></trkpt><trkpt lat="40.09717705363679" lon="9.546207093611944"><ele>719.0</ele><time>2026-04-30T13:10:57.983Z</time></trkpt><trkpt lat="40.09716596562818" lon="9.546357782760007"><ele>717.5</ele><time>2026-04-30T13:10:59.981Z</time></trkpt><trkpt lat="40.09714954084567" lon="9.546505612090359"><ele>716.0</ele><time>2026-04-30T13:11:01.979Z</time></trkpt><trkpt lat="40.09713946222365" lon="9.546659094198358"><ele>714.5</ele><time>2026-04-30T13:11:03.977Z</time></trkpt><trkpt lat="40.09712674866858" lon="9.546834736033492"><ele>713.0</ele><time>2026-04-30T13:11:05.975Z</time></trkpt><trkpt lat="40.09711979907188" lon="9.546949474550892"><ele>712.5</ele><time>2026-04-30T13:11:06.974Z</time></trkpt><trkpt lat="40.09710321902875" lon="9.547087337356794"><ele>712.0</ele><time>2026-04-30T13:11:07.973Z</time></trkpt><trkpt lat="40.09708613129589" lon="9.547243266852313"><ele>711.5</ele><time>2026-04-30T13:11:08.973Z</time></trkpt><trkpt lat="40.09706977432735" lon="9.547400472926636"><ele>711.0</ele><time>2026-04-30T13:11:09.972Z</time></trkpt><trkpt lat="40.09705576123587" lon="9.547568054389352"><ele>711.0</ele><time>2026-04-30T13:11:10.972Z</time></trkpt><trkpt lat="40.09704297027577" lon="9.547735171553681"><ele>711.0</ele><time>2026-04-30T13:11:11.971Z</time></trkpt><trkpt lat="40.09702817107909" lon="9.54789946110241"><ele>711.0</ele><time>2026-04-30T13:11:12.97Z</time></trkpt><trkpt lat="40.09701100964835" lon="9.548060337482077"><ele>711.0</ele><time>2026-04-30T13:11:13.97Z</time></trkpt><trkpt lat="40.096998786897316" lon="9.548201114197935"><ele>710.1999999999999</ele><time>2026-04-30T13:11:14.969Z</time></trkpt><trkpt lat="40.09698069575803" lon="9.548324606811303"><ele>709.4</ele><time>2026-04-30T13:11:15.969Z</time></trkpt><trkpt lat="40.09695247108534" lon="9.54844236740199"><ele>708.6</ele><time>2026-04-30T13:11:16.969Z</time></trkpt><trkpt lat="40.0969168089255" lon="9.548556636825133"><ele>707.8</ele><time>2026-04-30T13:11:17.968Z</time></trkpt><trkpt lat="40.096882717685844" lon="9.548672430186357"><ele>707.0</ele><time>2026-04-30T13:11:18.968Z</time></trkpt><trkpt lat="40.09684896833803" lon="9.548789619106467"><ele>705.6666666666666</ele><time>2026-04-30T13:11:19.968Z</time></trkpt><trkpt lat="40.09681553337868" lon="9.548904453410891"><ele>704.3333333333333</ele><time>2026-04-30T13:11:20.967Z</time></trkpt><trkpt lat="40.09678599801802" lon="9.549018485385034"><ele>703.0</ele><time>2026-04-30T13:11:21.967Z</time></trkpt><trkpt lat="40.09675775155377" lon="9.549123438360805"><ele>701.6666666666666</ele><time>2026-04-30T13:11:22.967Z</time></trkpt><trkpt lat="40.09672016356818" lon="9.549221280522305"><ele>700.3333333333334</ele><time>2026-04-30T13:11:23.966Z</time></trkpt><trkpt lat="40.096696652272385" lon="9.54932422630025"><ele>699.0</ele><time>2026-04-30T13:11:24.966Z</time></trkpt><trkpt lat="40.096667357200374" lon="9.549429745317815"><ele>699.0</ele><time>2026-04-30T13:11:25.966Z</time></trkpt><trkpt lat="40.09663755679054" lon="9.549536892533299"><ele>699.0</ele><time>2026-04-30T13:11:26.966Z</time></trkpt><trkpt lat="40.0966049826393" lon="9.549649461968297"><ele>699.0</ele><time>2026-04-30T13:11:27.965Z</time></trkpt><trkpt lat="40.09657190664927" lon="9.549766079504364"><ele>699.0</ele><time>2026-04-30T13:11:28.965Z</time></trkpt><trkpt lat="40.0965278314916" lon="9.549879494599931"><ele>699.0</ele><time>2026-04-30T13:11:29.965Z</time></trkpt><trkpt lat="40.096494387182766" lon="9.549993039864093"><ele>699.3333333333334</ele><time>2026-04-30T13:11:30.965Z</time></trkpt><trkpt lat="40.09646140883128" lon="9.550096488311242"><ele>699.6666666666666</ele><time>2026-04-30T13:11:31.965Z</time></trkpt><trkpt lat="40.09643319910006" lon="9.550206656264724"><ele>700.0</ele><time>2026-04-30T13:11:32.964Z</time></trkpt><trkpt lat="40.096401917451665" lon="9.550314580471483"><ele>700.3333333333333</ele><time>2026-04-30T13:11:33.964Z</time></trkpt><trkpt lat="40.0963614718993" lon="9.550419832360502"><ele>700.6666666666666</ele><time>2026-04-30T13:11:34.964Z</time></trkpt><trkpt lat="40.09630274737586" lon="9.550517076353279"><ele>701.0</ele><time>2026-04-30T13:11:35.964Z</time></trkpt><trkpt lat="40.09621291699371" lon="9.550583883790654"><ele>698.75</ele><time>2026-04-30T13:11:36.964Z</time></trkpt><trkpt lat="40.09609888614826" lon="9.550612185929891"><ele>696.5</ele><time>2026-04-30T13:11:37.964Z</time></trkpt><trkpt lat="40.09597218757094" lon="9.55062152262483"><ele>694.25</ele><time>2026-04-30T13:11:38.964Z</time></trkpt><trkpt lat="40.09584962915868" lon="9.550615147850701"><ele>692.0</ele><time>2026-04-30T13:11:39.964Z</time></trkpt><trkpt lat="40.09572392648207" lon="9.550616316203662"><ele>692.0</ele><time>2026-04-30T13:11:40.963Z</time></trkpt><trkpt lat="40.0956067089151" lon="9.550651585687252"><ele>692.0</ele><time>2026-04-30T13:11:41.963Z</time></trkpt><trkpt lat="40.09550291603541" lon="9.550726086117054"><ele>692.0</ele><time>2026-04-30T13:11:42.963Z</time></trkpt><trkpt lat="40.095433042703895" lon="9.55083953061998"><ele>692.0</ele><time>2026-04-30T13:11:43.963Z</time></trkpt><trkpt lat="40.09539657029822" lon="9.551002804843524"><ele>692.0</ele><time>2026-04-30T13:11:44.963Z</time></trkpt><trkpt lat="40.095388821631815" lon="9.551189055321428"><ele>692.0</ele><time>2026-04-30T13:11:45.963Z</time></trkpt><trkpt lat="40.09539055724661" lon="9.551381038816967"><ele>692.0</ele><time>2026-04-30T13:11:46.963Z</time></trkpt><trkpt lat="40.09537043001891" lon="9.551574439606393"><ele>692.0</ele><time>2026-04-30T13:11:47.963Z</time></trkpt><trkpt lat="40.09535592823346" lon="9.55177329237595"><ele>692.3333333333333</ele><time>2026-04-30T13:11:48.963Z</time></trkpt><trkpt lat="40.09533999761056" lon="9.55198753611754"><ele>692.6666666666666</ele><time>2026-04-30T13:11:49.963Z</time></trkpt><trkpt lat="40.09532361406424" lon="9.552202932282766"><ele>693.0</ele><time>2026-04-30T13:11:50.963Z</time></trkpt><trkpt lat="40.09530398628866" lon="9.55241315422297"><ele>693.0</ele><time>2026-04-30T13:11:51.963Z</time></trkpt><trkpt lat="40.095287242294404" lon="9.552619604041118"><ele>693.0</ele><time>2026-04-30T13:11:52.962Z</time></trkpt><trkpt lat="40.095272801311886" lon="9.552807380089611"><ele>693.0</ele><time>2026-04-30T13:11:53.962Z</time></trkpt><trkpt lat="40.09527792512671" lon="9.552985952473643"><ele>693.0</ele><time>2026-04-30T13:11:54.962Z</time></trkpt><trkpt lat="40.095316861469065" lon="9.553151667005423"><ele>694.25</ele><time>2026-04-30T13:11:55.962Z</time></trkpt><trkpt lat="40.0954031667139" lon="9.553285161610681"><ele>695.5</ele><time>2026-04-30T13:11:56.962Z</time></trkpt><trkpt lat="40.09553131061091" lon="9.553368237164847"><ele>696.75</ele><time>2026-04-30T13:11:57.962Z</time></trkpt><trkpt lat="40.09568610532077" lon="9.553390239252948"><ele>698.0</ele><time>2026-04-30T13:11:58.962Z</time></trkpt><trkpt lat="40.09583106747619" lon="9.55340089634509"><ele>698.0</ele><time>2026-04-30T13:11:59.962Z</time></trkpt><trkpt lat="40.09596750842731" lon="9.553457238137895"><ele>698.0</ele><time>2026-04-30T13:12:00.962Z</time></trkpt><trkpt lat="40.09609697020176" lon="9.553504859869895"><ele>698.0</ele><time>2026-04-30T13:12:01.962Z</time></trkpt><trkpt lat="40.09622226647093" lon="9.553581853828199"><ele>698.0</ele><time>2026-04-30T13:12:02.962Z</time></trkpt><trkpt lat="40.096314513991196" lon="9.553712938653945"><ele>699.6666666666666</ele><time>2026-04-30T13:12:03.962Z</time></trkpt><trkpt lat="40.09640688715291" lon="9.553863803160583"><ele>701.3333333333334</ele><time>2026-04-30T13:12:04.962Z</time></trkpt><trkpt lat="40.09650001638753" lon="9.5540229740563"><ele>703.0</ele><time>2026-04-30T13:12:05.962Z</time></trkpt><trkpt lat="40.09659328899674" lon="9.554182389917845"><ele>703.0</ele><time>2026-04-30T13:12:06.962Z</time></trkpt><trkpt lat="40.09669075140784" lon="9.554347688412099"><ele>703.0</ele><time>2026-04-30T13:12:07.962Z</time></trkpt><trkpt lat="40.0967894626788" lon="9.554514495862158"><ele>703.0</ele><time>2026-04-30T13:12:08.962Z</time></trkpt><trkpt lat="40.09688921242863" lon="9.554688123535543"><ele>704.6666666666667</ele><time>2026-04-30T13:12:09.962Z</time></trkpt><trkpt lat="40.09698733825997" lon="9.554860428846403"><ele>706.3333333333334</ele><time>2026-04-30T13:12:10.962Z</time></trkpt><trkpt lat="40.097082218106245" lon="9.555030341875957"><ele>708.0</ele><time>2026-04-30T13:12:11.962Z</time></trkpt><trkpt lat="40.09716833484742" lon="9.555205501414013"><ele>709.6666666666666</ele><time>2026-04-30T13:12:12.962Z</time></trkpt><trkpt lat="40.09719790118478" lon="9.555416809650698"><ele>711.3333333333333</ele><time>2026-04-30T13:12:13.962Z</time></trkpt><trkpt lat="40.097219765621844" lon="9.555628898099592"><ele>713.0</ele><time>2026-04-30T13:12:14.962Z</time></trkpt><trkpt lat="40.0972379070489" lon="9.5558504901715"><ele>713.0</ele><time>2026-04-30T13:12:15.961Z</time></trkpt><trkpt lat="40.097266121676455" lon="9.55607186554322"><ele>713.0</ele><time>2026-04-30T13:12:16.961Z</time></trkpt><trkpt lat="40.0972797033658" lon="9.556283920243814"><ele>713.0</ele><time>2026-04-30T13:12:17.961Z</time></trkpt><trkpt lat="40.097297280316496" lon="9.55649541847863"><ele>714.3333333333333</ele><time>2026-04-30T13:12:18.961Z</time></trkpt><trkpt lat="40.097316159116026" lon="9.556709251225149"><ele>715.6666666666666</ele><time>2026-04-30T13:12:19.961Z</time></trkpt><trkpt lat="40.09731989599868" lon="9.5569268816988"><ele>717.0</ele><time>2026-04-30T13:12:20.961Z</time></trkpt><trkpt lat="40.09734907738841" lon="9.557153597856752"><ele>717.0</ele><time>2026-04-30T13:12:21.961Z</time></trkpt><trkpt lat="40.097324958190995" lon="9.557381750723547"><ele>717.0</ele><time>2026-04-30T13:12:22.961Z</time></trkpt><trkpt lat="40.09727702823772" lon="9.5576065543494"><ele>717.0</ele><time>2026-04-30T13:12:23.961Z</time></trkpt><trkpt lat="40.09720672589048" lon="9.557824054725472"><ele>715.6666666666666</ele><time>2026-04-30T13:12:24.961Z</time></trkpt><trkpt lat="40.09713549128387" lon="9.558057189459559"><ele>714.3333333333333</ele><time>2026-04-30T13:12:25.961Z</time></trkpt><trkpt lat="40.09705468852558" lon="9.558268218320462"><ele>713.0</ele><time>2026-04-30T13:12:26.961Z</time></trkpt><trkpt lat="40.09697807646646" lon="9.558480143316995"><ele>713.0</ele><time>2026-04-30T13:12:27.961Z</time></trkpt><trkpt lat="40.09690378315444" lon="9.558677623245444"><ele>713.0</ele><time>2026-04-30T13:12:28.961Z</time></trkpt><trkpt lat="40.096848045489395" lon="9.558847703336248"><ele>713.0</ele><time>2026-04-30T13:12:29.961Z</time></trkpt><trkpt lat="40.096989398157156" lon="9.559080530699134"><ele>713.6666666666666</ele><time>2026-04-30T13:12:30.961Z</time></trkpt><trkpt lat="40.09708909588681" lon="9.559254265695168"><ele>714.3333333333334</ele><time>2026-04-30T13:12:31.961Z</time></trkpt><trkpt lat="40.09718422903469" lon="9.559426595511425"><ele>715.0</ele><time>2026-04-30T13:12:32.961Z</time></trkpt><trkpt lat="40.09726412266834" lon="9.559613157894033"><ele>716.5</ele><time>2026-04-30T13:12:33.961Z</time></trkpt><trkpt lat="40.09732172034796" lon="9.559797024069022"><ele>718.0</ele><time>2026-04-30T13:12:34.961Z</time></trkpt><trkpt lat="40.097350284711105" lon="9.55998676645811"><ele>719.5</ele><time>2026-04-30T13:12:35.961Z</time></trkpt><trkpt lat="40.097340384691364" lon="9.560178667710357"><ele>721.0</ele><time>2026-04-30T13:12:36.961Z</time></trkpt><trkpt lat="40.09729681858176" lon="9.560362226624902"><ele>721.25</ele><time>2026-04-30T13:12:37.961Z</time></trkpt><trkpt lat="40.097259574732426" lon="9.560535686464199"><ele>721.5</ele><time>2026-04-30T13:12:38.961Z</time></trkpt><trkpt lat="40.09727489372714" lon="9.56070683680686"><ele>721.75</ele><time>2026-04-30T13:12:39.961Z</time></trkpt><trkpt lat="40.09735109315309" lon="9.560858428587107"><ele>722.0</ele><time>2026-04-30T13:12:40.961Z</time></trkpt><trkpt lat="40.09746890794974" lon="9.560971642952703"><ele>720.3333333333333</ele><time>2026-04-30T13:12:41.961Z</time></trkpt><trkpt lat="40.09760721705634" lon="9.561036336668321"><ele>718.6666666666666</ele><time>2026-04-30T13:12:42.962Z</time></trkpt><trkpt lat="40.0977720107841" lon="9.561055962917571"><ele>717.0</ele><time>2026-04-30T13:12:43.961Z</time></trkpt><trkpt lat="40.097941479262786" lon="9.561072927871985"><ele>717.0</ele><time>2026-04-30T13:12:44.961Z</time></trkpt><trkpt lat="40.09810901471865" lon="9.561115472658665"><ele>717.0</ele><time>2026-04-30T13:12:45.961Z</time></trkpt><trkpt lat="40.09826843302181" lon="9.561180906357771"><ele>717.0</ele><time>2026-04-30T13:12:46.962Z</time></trkpt><trkpt lat="40.09838220542751" lon="9.561284505221996"><ele>719.25</ele><time>2026-04-30T13:12:47.962Z</time></trkpt><trkpt lat="40.098450087396095" lon="9.561431094675507"><ele>721.5</ele><time>2026-04-30T13:12:48.962Z</time></trkpt><trkpt lat="40.09848597044189" lon="9.561588164811994"><ele>723.75</ele><time>2026-04-30T13:12:49.962Z</time></trkpt><trkpt lat="40.09850529979962" lon="9.561741146481616"><ele>726.0</ele><time>2026-04-30T13:12:50.962Z</time></trkpt><trkpt lat="40.098545348379645" lon="9.561912599903655"><ele>727.0</ele><time>2026-04-30T13:12:51.961Z</time></trkpt><trkpt lat="40.09859707277838" lon="9.562095668862716"><ele>728.0</ele><time>2026-04-30T13:12:52.961Z</time></trkpt><trkpt lat="40.098638703349636" lon="9.562283504111523"><ele>729.0</ele><time>2026-04-30T13:12:53.961Z</time></trkpt><trkpt lat="40.09864432145686" lon="9.56246370524578"><ele>730.0</ele><time>2026-04-30T13:12:54.961Z</time></trkpt><trkpt lat="40.09859606688331" lon="9.562636682708249"><ele>730.0</ele><time>2026-04-30T13:12:55.962Z</time></trkpt><trkpt lat="40.09851552616935" lon="9.562816726948178"><ele>730.0</ele><time>2026-04-30T13:12:56.962Z</time></trkpt><trkpt lat="40.09843278671195" lon="9.563005865591826"><ele>730.0</ele><time>2026-04-30T13:12:57.962Z</time></trkpt><trkpt lat="40.098358667797164" lon="9.563207811638524"><ele>729.0</ele><time>2026-04-30T13:12:58.962Z</time></trkpt><trkpt lat="40.09827506366686" lon="9.563421628028435"><ele>728.0</ele><time>2026-04-30T13:12:59.962Z</time></trkpt><trkpt lat="40.098188765605336" lon="9.56364368334369"><ele>727.0</ele><time>2026-04-30T13:13:00.962Z</time></trkpt><trkpt lat="40.098103267171396" lon="9.563868813872192"><ele>730.3333333333334</ele><time>2026-04-30T13:13:01.962Z</time></trkpt><trkpt lat="40.098017252871294" lon="9.564090557817002"><ele>733.6666666666666</ele><time>2026-04-30T13:13:02.962Z</time></trkpt><trkpt lat="40.09795167546416" lon="9.564286259979431"><ele>737.0</ele><time>2026-04-30T13:13:03.962Z</time></trkpt><trkpt lat="40.097932802166255" lon="9.564453941971223"><ele>736.5</ele><time>2026-04-30T13:13:04.962Z</time></trkpt><trkpt lat="40.09797426890066" lon="9.564594542373456"><ele>736.0</ele><time>2026-04-30T13:13:05.962Z</time></trkpt><trkpt lat="40.09808425874866" lon="9.564707237391199"><ele>735.5</ele><time>2026-04-30T13:13:06.962Z</time></trkpt><trkpt lat="40.09822526698451" lon="9.564809261364552"><ele>735.0</ele><time>2026-04-30T13:13:07.962Z</time></trkpt><trkpt lat="40.098393180460384" lon="9.564918732287804"><ele>735.0</ele><time>2026-04-30T13:13:08.962Z</time></trkpt><trkpt lat="40.0985511235825" lon="9.56505495076579"><ele>735.0</ele><time>2026-04-30T13:13:09.961Z</time></trkpt><trkpt lat="40.09868608066885" lon="9.56521473254147"><ele>735.0</ele><time>2026-04-30T13:13:10.961Z</time></trkpt><trkpt lat="40.098800227519575" lon="9.565404246787304"><ele>738.3333333333334</ele><time>2026-04-30T13:13:11.961Z</time></trkpt><trkpt lat="40.098884726034086" lon="9.565636288588198"><ele>741.6666666666667</ele><time>2026-04-30T13:13:12.961Z</time></trkpt><trkpt lat="40.09894431964003" lon="9.56589701739985"><ele>745.0</ele><time>2026-04-30T13:13:13.961Z</time></trkpt><trkpt lat="40.09901661655088" lon="9.566120094357567"><ele>744.3333333333334</ele><time>2026-04-30T13:13:14.961Z</time></trkpt><trkpt lat="40.09911173316864" lon="9.566307386971918"><ele>743.6666666666666</ele><time>2026-04-30T13:13:15.961Z</time></trkpt><trkpt lat="40.0992405666994" lon="9.566445272650027"><ele>743.0</ele><time>2026-04-30T13:13:16.961Z</time></trkpt><trkpt lat="40.09941435190217" lon="9.566525269521856"><ele>743.0</ele><time>2026-04-30T13:13:17.961Z</time></trkpt><trkpt lat="40.09957619451669" lon="9.566633045412953"><ele>743.0</ele><time>2026-04-30T13:13:18.961Z</time></trkpt><trkpt lat="40.09970284711371" lon="9.566811853637608"><ele>743.0</ele><time>2026-04-30T13:13:19.961Z</time></trkpt><trkpt lat="40.099803786079846" lon="9.567039983353345"><ele>746.3333333333333</ele><time>2026-04-30T13:13:20.961Z</time></trkpt><trkpt lat="40.099850865663534" lon="9.567293372835485"><ele>749.6666666666666</ele><time>2026-04-30T13:13:21.961Z</time></trkpt><trkpt lat="40.09986748513453" lon="9.567532950722857"><ele>753.0</ele><time>2026-04-30T13:13:22.961Z</time></trkpt><trkpt lat="40.099856755727814" lon="9.567752381280728"><ele>752.0</ele><time>2026-04-30T13:13:23.961Z</time></trkpt><trkpt lat="40.09980636102692" lon="9.567949012030713"><ele>751.0</ele><time>2026-04-30T13:13:24.961Z</time></trkpt><trkpt lat="40.099702589072855" lon="9.5681045684126"><ele>750.0</ele><time>2026-04-30T13:13:25.961Z</time></trkpt><trkpt lat="40.099565447287254" lon="9.568234601714407"><ele>750.0</ele><time>2026-04-30T13:13:26.961Z</time></trkpt><trkpt lat="40.0993928592713" lon="9.568363675564768"><ele>750.0</ele><time>2026-04-30T13:13:27.961Z</time></trkpt><trkpt lat="40.09918806544333" lon="9.568501060159248"><ele>750.0</ele><time>2026-04-30T13:13:28.961Z</time></trkpt><trkpt lat="40.0989707440177" lon="9.568654975687169"><ele>753.5</ele><time>2026-04-30T13:13:29.961Z</time></trkpt><trkpt lat="40.09875882618484" lon="9.568811430449351"><ele>757.0</ele><time>2026-04-30T13:13:30.961Z</time></trkpt><trkpt lat="40.09856523876833" lon="9.568978231927574"><ele>757.0</ele><time>2026-04-30T13:13:31.961Z</time></trkpt><trkpt lat="40.09838852665214" lon="9.56917920955287"><ele>757.0</ele><time>2026-04-30T13:13:32.961Z</time></trkpt><trkpt lat="40.0982374039093" lon="9.569425020899997"><ele>762.0</ele><time>2026-04-30T13:13:33.961Z</time></trkpt><trkpt lat="40.098104442955794" lon="9.569688817449975"><ele>767.0</ele><time>2026-04-30T13:13:34.961Z</time></trkpt><trkpt lat="40.09796457055891" lon="9.56995273588071"><ele>767.0</ele><time>2026-04-30T13:13:35.961Z</time></trkpt><trkpt lat="40.097832766819685" lon="9.570217611012419"><ele>767.0</ele><time>2026-04-30T13:13:36.961Z</time></trkpt><trkpt lat="40.09772807243034" lon="9.570491042054734"><ele>760.0</ele><time>2026-04-30T13:13:37.961Z</time></trkpt><trkpt lat="40.09766316296892" lon="9.570778347971387"><ele>753.0</ele><time>2026-04-30T13:13:38.961Z</time></trkpt><trkpt lat="40.09760467345943" lon="9.571068722065851"><ele>751.6666666666666</ele><time>2026-04-30T13:13:39.961Z</time></trkpt><trkpt lat="40.09755488207573" lon="9.57133538304928"><ele>750.3333333333333</ele><time>2026-04-30T13:13:40.961Z</time></trkpt><trkpt lat="40.097523490460524" lon="9.571578269588445"><ele>749.0</ele><time>2026-04-30T13:13:41.961Z</time></trkpt><trkpt lat="40.097524851792805" lon="9.571795367269354"><ele>749.0</ele><time>2026-04-30T13:13:42.961Z</time></trkpt><trkpt lat="40.09757542797227" lon="9.572001781440672"><ele>749.0</ele><time>2026-04-30T13:13:43.961Z</time></trkpt><trkpt lat="40.0976657474095" lon="9.572183194944852"><ele>749.0</ele><time>2026-04-30T13:13:44.961Z</time></trkpt><trkpt lat="40.09773290936005" lon="9.572362331863038"><ele>749.3333333333333</ele><time>2026-04-30T13:13:45.961Z</time></trkpt><trkpt lat="40.0977418574374" lon="9.572572895149605"><ele>749.6666666666666</ele><time>2026-04-30T13:13:46.961Z</time></trkpt><trkpt lat="40.09771067319205" lon="9.572815721074095"><ele>750.0</ele><time>2026-04-30T13:13:47.961Z</time></trkpt><trkpt lat="40.09767477433584" lon="9.573069936550286"><ele>752.0</ele><time>2026-04-30T13:13:48.961Z</time></trkpt><trkpt lat="40.09763373906335" lon="9.573304275105182"><ele>754.0</ele><time>2026-04-30T13:13:49.961Z</time></trkpt><trkpt lat="40.09755142406916" lon="9.573498451516095"><ele>756.0</ele><time>2026-04-30T13:13:50.961Z</time></trkpt><trkpt lat="40.09742904133532" lon="9.57367486773165"><ele>752.3333333333334</ele><time>2026-04-30T13:13:51.961Z</time></trkpt><trkpt lat="40.09729643339967" lon="9.573833679982576"><ele>748.6666666666667</ele><time>2026-04-30T13:13:52.96Z</time></trkpt><trkpt lat="40.09718593618265" lon="9.573982912915108"><ele>745.0</ele><time>2026-04-30T13:13:53.96Z</time></trkpt><trkpt lat="40.09712748488778" lon="9.574119166342811"><ele>745.0</ele><time>2026-04-30T13:13:54.96Z</time></trkpt><trkpt lat="40.09713738039725" lon="9.574259752327702"><ele>745.0</ele><time>2026-04-30T13:13:55.96Z</time></trkpt><trkpt lat="40.09721598762407" lon="9.574391792613605"><ele>745.0</ele><time>2026-04-30T13:13:56.96Z</time></trkpt><trkpt lat="40.09735304805422" lon="9.574498703707699"><ele>745.0</ele><time>2026-04-30T13:13:57.96Z</time></trkpt><trkpt lat="40.09754273304914" lon="9.57459361395633"><ele>747.5</ele><time>2026-04-30T13:13:58.96Z</time></trkpt><trkpt lat="40.09775800776899" lon="9.57468169040832"><ele>750.0</ele><time>2026-04-30T13:13:59.96Z</time></trkpt><trkpt lat="40.09798531790895" lon="9.574770690032326"><ele>750.0</ele><time>2026-04-30T13:14:00.96Z</time></trkpt><trkpt lat="40.09821376875458" lon="9.574864198371811"><ele>750.0</ele><time>2026-04-30T13:14:01.96Z</time></trkpt><trkpt lat="40.09843354237222" lon="9.574974901871718"><ele>755.0</ele><time>2026-04-30T13:14:02.96Z</time></trkpt><trkpt lat="40.098617523538515" lon="9.575084030670627"><ele>760.0</ele><time>2026-04-30T13:14:03.96Z</time></trkpt><trkpt lat="40.098772104733364" lon="9.575195420460936"><ele>765.0</ele><time>2026-04-30T13:14:04.96Z</time></trkpt><trkpt lat="40.09889626380215" lon="9.57533280570042"><ele>766.0</ele><time>2026-04-30T13:14:05.96Z</time></trkpt><trkpt lat="40.09900550537431" lon="9.575521600951376"><ele>767.0</ele><time>2026-04-30T13:14:06.96Z</time></trkpt><trkpt lat="40.09908917948472" lon="9.57574267006384"><ele>768.0</ele><time>2026-04-30T13:14:07.96Z</time></trkpt><trkpt lat="40.09917326704946" lon="9.575934483106952"><ele>768.0</ele><time>2026-04-30T13:14:08.96Z</time></trkpt><trkpt lat="40.099281245193296" lon="9.576081987468015"><ele>768.0</ele><time>2026-04-30T13:14:09.96Z</time></trkpt><trkpt lat="40.09942153927782" lon="9.57620848037604"><ele>768.0</ele><time>2026-04-30T13:14:10.96Z</time></trkpt><trkpt lat="40.09956984480918" lon="9.576286211991308"><ele>760.6666666666666</ele><time>2026-04-30T13:14:11.96Z</time></trkpt><trkpt lat="40.09971978102969" lon="9.576316338484252"><ele>753.3333333333333</ele><time>2026-04-30T13:14:12.96Z</time></trkpt><trkpt lat="40.09988262576434" lon="9.576288323976891"><ele>746.0</ele><time>2026-04-30T13:14:13.96Z</time></trkpt><trkpt lat="40.100059068862876" lon="9.576219868737969"><ele>755.0</ele><time>2026-04-30T13:14:14.96Z</time></trkpt><trkpt lat="40.100248580987895" lon="9.5761501307598"><ele>764.0</ele><time>2026-04-30T13:14:15.96Z</time></trkpt><trkpt lat="40.10044207880151" lon="9.576103210120003"><ele>773.0</ele><time>2026-04-30T13:14:16.96Z</time></trkpt><trkpt lat="40.10063578541992" lon="9.576068570493574"><ele>772.25</ele><time>2026-04-30T13:14:17.96Z</time></trkpt><trkpt lat="40.10080488352778" lon="9.576054922053412"><ele>771.5</ele><time>2026-04-30T13:14:18.96Z</time></trkpt><trkpt lat="40.10094878420106" lon="9.576031407758256"><ele>770.75</ele><time>2026-04-30T13:14:19.96Z</time></trkpt><trkpt lat="40.10105331142576" lon="9.576009850903386"><ele>770.0</ele><time>2026-04-30T13:14:20.96Z</time></trkpt><trkpt lat="40.101134188592845" lon="9.576054905351912"><ele>770.0</ele><time>2026-04-30T13:14:21.96Z</time></trkpt><trkpt lat="40.10116265668157" lon="9.576153101469913"><ele>770.0</ele><time>2026-04-30T13:14:22.96Z</time></trkpt><trkpt lat="40.101153853465284" lon="9.576308890597295"><ele>770.0</ele><time>2026-04-30T13:14:23.96Z</time></trkpt><trkpt lat="40.101096739770185" lon="9.576479280709195"><ele>770.0</ele><time>2026-04-30T13:14:24.96Z</time></trkpt><trkpt lat="40.10101772372663" lon="9.576665935977067"><ele>765.6666666666667</ele><time>2026-04-30T13:14:25.96Z</time></trkpt><trkpt lat="40.100951115877066" lon="9.576870344499895"><ele>761.3333333333334</ele><time>2026-04-30T13:14:26.96Z</time></trkpt><trkpt lat="40.10095223608466" lon="9.577094615975113"><ele>757.0</ele><time>2026-04-30T13:14:27.96Z</time></trkpt><trkpt lat="40.10099055378795" lon="9.577316499255701"><ele>752.0</ele><time>2026-04-30T13:14:28.96Z</time></trkpt><trkpt lat="40.10106153937682" lon="9.57750233059531"><ele>747.0</ele><time>2026-04-30T13:14:29.96Z</time></trkpt><trkpt lat="40.101178216580344" lon="9.577652074970867"><ele>742.0</ele><time>2026-04-30T13:14:30.96Z</time></trkpt><trkpt lat="40.101326508571525" lon="9.577764589265634"><ele>742.0</ele><time>2026-04-30T13:14:31.96Z</time></trkpt><trkpt lat="40.10148133677719" lon="9.577849243614217"><ele>742.0</ele><time>2026-04-30T13:14:32.96Z</time></trkpt><trkpt lat="40.1016326394628" lon="9.577906142114166"><ele>742.0</ele><time>2026-04-30T13:14:33.96Z</time></trkpt><trkpt lat="40.10175588398976" lon="9.57795896206616"><ele>742.5</ele><time>2026-04-30T13:14:34.96Z</time></trkpt><trkpt lat="40.10186102485634" lon="9.578034448795052"><ele>743.0</ele><time>2026-04-30T13:14:35.959Z</time></trkpt><trkpt lat="40.10193951701019" lon="9.57817252145785"><ele>743.5</ele><time>2026-04-30T13:14:36.959Z</time></trkpt><trkpt lat="40.101979946746646" lon="9.578330793153336"><ele>744.0</ele><time>2026-04-30T13:14:37.959Z</time></trkpt><trkpt lat="40.10197960073637" lon="9.57849939980968"><ele>744.0</ele><time>2026-04-30T13:14:38.959Z</time></trkpt><trkpt lat="40.10196690341035" lon="9.57865517084414"><ele>744.0</ele><time>2026-04-30T13:14:39.959Z</time></trkpt><trkpt lat="40.10194299102252" lon="9.578804330683978"><ele>744.0</ele><time>2026-04-30T13:14:40.959Z</time></trkpt><trkpt lat="40.10190697116498" lon="9.578942161486035"><ele>744.0</ele><time>2026-04-30T13:14:41.959Z</time></trkpt><trkpt lat="40.10188318918812" lon="9.579072258660936"><ele>742.0</ele><time>2026-04-30T13:14:42.959Z</time></trkpt><trkpt lat="40.1018548986793" lon="9.579188289496551"><ele>740.0</ele><time>2026-04-30T13:14:43.959Z</time></trkpt><trkpt lat="40.10182707337838" lon="9.579304261552048"><ele>738.0</ele><time>2026-04-30T13:14:44.959Z</time></trkpt><trkpt lat="40.101819251899336" lon="9.57942463525916"><ele>736.0</ele><time>2026-04-30T13:14:45.959Z</time></trkpt><trkpt lat="40.10183081014341" lon="9.579539791987873"><ele>734.0</ele><time>2026-04-30T13:14:46.959Z</time></trkpt><trkpt lat="40.1018481500925" lon="9.579645340478297"><ele>732.5</ele><time>2026-04-30T13:14:47.959Z</time></trkpt><trkpt lat="40.10187856107656" lon="9.579737029853696"><ele>731.0</ele><time>2026-04-30T13:14:48.96Z</time></trkpt><trkpt lat="40.101899354272625" lon="9.579838039309436"><ele>729.5</ele><time>2026-04-30T13:14:49.96Z</time></trkpt><trkpt lat="40.101935340614276" lon="9.579934250095791"><ele>728.0</ele><time>2026-04-30T13:14:50.96Z</time></trkpt><trkpt lat="40.101979284381315" lon="9.580038793111356"><ele>726.5</ele><time>2026-04-30T13:14:51.96Z</time></trkpt><trkpt lat="40.10203865318533" lon="9.580129088467466"><ele>725.0</ele><time>2026-04-30T13:14:52.96Z</time></trkpt><trkpt lat="40.102116448399" lon="9.580193555360845"><ele>725.0</ele><time>2026-04-30T13:14:53.96Z</time></trkpt><trkpt lat="40.10220406223215" lon="9.580188601412944"><ele>725.0</ele><time>2026-04-30T13:14:54.96Z</time></trkpt><trkpt lat="40.10230046336614" lon="9.580168086212087"><ele>725.0</ele><time>2026-04-30T13:14:55.96Z</time></trkpt><trkpt lat="40.1023710097483" lon="9.58017124480124"><ele>725.0</ele><time>2026-04-30T13:14:56.96Z</time></trkpt><trkpt lat="40.10248297570244" lon="9.580123369019887"><ele>725.0</ele><time>2026-04-30T13:14:57.96Z</time></trkpt><trkpt lat="40.10259571457401" lon="9.580085051428085"><ele>729.75</ele><time>2026-04-30T13:14:58.96Z</time></trkpt><trkpt lat="40.10271263279635" lon="9.580061857211653"><ele>734.5</ele><time>2026-04-30T13:14:59.96Z</time></trkpt><trkpt lat="40.10283278360381" lon="9.580053786066983"><ele>739.25</ele><time>2026-04-30T13:15:00.96Z</time></trkpt><trkpt lat="40.10295061528802" lon="9.580027951710875"><ele>744.0</ele><time>2026-04-30T13:15:01.96Z</time></trkpt><trkpt lat="40.103083451444284" lon="9.579995625054677"><ele>744.0</ele><time>2026-04-30T13:15:02.96Z</time></trkpt><trkpt lat="40.10319825083682" lon="9.579969513073221"><ele>744.0</ele><time>2026-04-30T13:15:03.96Z</time></trkpt><trkpt lat="40.103307771722555" lon="9.579943637551187"><ele>744.0</ele><time>2026-04-30T13:15:04.96Z</time></trkpt><trkpt lat="40.10341348206773" lon="9.579922806023172"><ele>744.0</ele><time>2026-04-30T13:15:05.96Z</time></trkpt><trkpt lat="40.10351227671198" lon="9.579921458931034"><ele>744.0</ele><time>2026-04-30T13:15:06.96Z</time></trkpt><trkpt lat="40.10360191440124" lon="9.579922104323066"><ele>743.0</ele><time>2026-04-30T13:15:07.96Z</time></trkpt><trkpt lat="40.103689333151635" lon="9.579931469047073"><ele>742.0</ele><time>2026-04-30T13:15:08.96Z</time></trkpt><trkpt lat="40.103777565708505" lon="9.579952067030254"><ele>741.0</ele><time>2026-04-30T13:15:09.96Z</time></trkpt><trkpt lat="40.10386704929954" lon="9.579978966258548"><ele>740.0</ele><time>2026-04-30T13:15:10.96Z</time></trkpt><trkpt lat="40.103955679902455" lon="9.580009696206503"><ele>739.0</ele><time>2026-04-30T13:15:11.96Z</time></trkpt><trkpt lat="40.10404551460585" lon="9.580056652762728"><ele>740.8333333333334</ele><time>2026-04-30T13:15:12.96Z</time></trkpt><trkpt lat="40.10412574024505" lon="9.58008895169906"><ele>742.6666666666667</ele><time>2026-04-30T13:15:13.96Z</time></trkpt><trkpt lat="40.10417779891082" lon="9.580186472112548"><ele>744.5</ele><time>2026-04-30T13:15:14.96Z</time></trkpt><trkpt lat="40.1042349880672" lon="9.580236208971527"><ele>746.3333333333334</ele><time>2026-04-30T13:15:15.96Z</time></trkpt><trkpt lat="40.10428417482514" lon="9.580371771276482"><ele>748.1666666666666</ele><time>2026-04-30T13:15:17.96Z</time></trkpt><trkpt lat="40.10431908979995" lon="9.580461981688394"><ele>750.0</ele><time>2026-04-30T13:15:18.96Z</time></trkpt><trkpt lat="40.10437159649068" lon="9.580603593102682"><ele>743.5</ele><time>2026-04-30T13:15:19.96Z</time></trkpt><trkpt lat="40.10444706392347" lon="9.580700536238902"><ele>737.0</ele><time>2026-04-30T13:15:20.96Z</time></trkpt><trkpt lat="40.10454335896816" lon="9.580774449932825"><ele>730.5</ele><time>2026-04-30T13:15:21.96Z</time></trkpt><trkpt lat="40.104647730584" lon="9.580828803331187"><ele>724.0</ele><time>2026-04-30T13:15:22.96Z</time></trkpt><trkpt lat="40.10476309028145" lon="9.580877761365237"><ele>724.0</ele><time>2026-04-30T13:15:23.96Z</time></trkpt><trkpt lat="40.104891118893505" lon="9.58091748860696"><ele>724.0</ele><time>2026-04-30T13:15:24.96Z</time></trkpt><trkpt lat="40.10499867554024" lon="9.580975755000285"><ele>724.0</ele><time>2026-04-30T13:15:25.959Z</time></trkpt><trkpt lat="40.10509516784337" lon="9.58099891414369"><ele>724.0</ele><time>2026-04-30T13:15:26.959Z</time></trkpt><trkpt lat="40.10517257815105" lon="9.58103807810573"><ele>724.0</ele><time>2026-04-30T13:15:27.959Z</time></trkpt><trkpt lat="40.10523870521976" lon="9.581108036244542"><ele>724.8000000000001</ele><time>2026-04-30T13:15:28.959Z</time></trkpt><trkpt lat="40.10526817641676" lon="9.581220780423251"><ele>725.6</ele><time>2026-04-30T13:15:29.959Z</time></trkpt><trkpt lat="40.10521503942315" lon="9.581347565856708"><ele>726.4</ele><time>2026-04-30T13:15:30.959Z</time></trkpt><trkpt lat="40.10519050742554" lon="9.58149994415328"><ele>727.2</ele><time>2026-04-30T13:15:31.959Z</time></trkpt><trkpt lat="40.10516627050283" lon="9.581645620631045"><ele>728.0</ele><time>2026-04-30T13:15:32.959Z</time></trkpt><trkpt lat="40.10514244352729" lon="9.581780413126667"><ele>728.0</ele><time>2026-04-30T13:15:33.959Z</time></trkpt><trkpt lat="40.10511953576717" lon="9.581903332749725"><ele>728.0</ele><time>2026-04-30T13:15:34.959Z</time></trkpt><trkpt lat="40.10508548006994" lon="9.582000755748524"><ele>728.0</ele><time>2026-04-30T13:15:35.959Z</time></trkpt><trkpt lat="40.105037299546325" lon="9.582059491378182"><ele>728.0</ele><time>2026-04-30T13:15:36.959Z</time></trkpt><trkpt lat="40.10497473616175" lon="9.582122616753114"><ele>728.0</ele><time>2026-04-30T13:15:38.959Z</time></trkpt><trkpt lat="40.10491030747941" lon="9.58213370928725"><ele>728.0</ele><time>2026-04-30T13:15:40.959Z</time></trkpt><trkpt lat="40.10487252398977" lon="9.582200724358014"><ele>724.8</ele><time>2026-04-30T13:18:04.958Z</time></trkpt><trkpt lat="40.10483844090325" lon="9.582316530948434"><ele>721.5999999999999</ele><time>2026-04-30T13:18:08.957Z</time></trkpt><trkpt lat="40.10476992708612" lon="9.582447551355115"><ele>718.4000000000001</ele><time>2026-04-30T13:18:10.957Z</time></trkpt><trkpt lat="40.104711061063284" lon="9.582510561308055"><ele>715.2</ele><time>2026-04-30T13:18:11.957Z</time></trkpt><trkpt lat="40.10462663464348" lon="9.582556563290188"><ele>712.0</ele><time>2026-04-30T13:18:12.957Z</time></trkpt><trkpt lat="40.10452423304721" lon="9.582564854413919"><ele>712.0</ele><time>2026-04-30T13:18:13.957Z</time></trkpt><trkpt lat="40.10441331999941" lon="9.582560362358803"><ele>712.0</ele><time>2026-04-30T13:18:14.957Z</time></trkpt><trkpt lat="40.10429981027564" lon="9.582596733127572"><ele>712.0</ele><time>2026-04-30T13:18:15.957Z</time></trkpt><trkpt lat="40.1041780845323" lon="9.582715002896983"><ele>712.0</ele><time>2026-04-30T13:18:16.957Z</time></trkpt><trkpt lat="40.10406494765884" lon="9.582839167384853"><ele>711.0</ele><time>2026-04-30T13:18:17.957Z</time></trkpt><trkpt lat="40.103938451761735" lon="9.582984902895669"><ele>710.0</ele><time>2026-04-30T13:18:18.957Z</time></trkpt><trkpt lat="40.10381023985042" lon="9.583128120608812"><ele>709.0</ele><time>2026-04-30T13:18:19.957Z</time></trkpt><trkpt lat="40.10366921371221" lon="9.583262320728261"><ele>709.0</ele><time>2026-04-30T13:18:20.957Z</time></trkpt><trkpt lat="40.10353233368586" lon="9.583385345866956"><ele>709.0</ele><time>2026-04-30T13:18:21.957Z</time></trkpt><trkpt lat="40.103402950771034" lon="9.583491199968767"><ele>709.0</ele><time>2026-04-30T13:18:22.957Z</time></trkpt><trkpt lat="40.1032717182058" lon="9.583595099454406"><ele>702.0</ele><time>2026-04-30T13:18:23.957Z</time></trkpt><trkpt lat="40.103169146804966" lon="9.583715187509062"><ele>695.0</ele><time>2026-04-30T13:18:24.957Z</time></trkpt><trkpt lat="40.103108182743476" lon="9.583849437681437"><ele>688.0</ele><time>2026-04-30T13:18:25.957Z</time></trkpt><trkpt lat="40.10309468375299" lon="9.583992443751374"><ele>681.0</ele><time>2026-04-30T13:18:26.957Z</time></trkpt><trkpt lat="40.103124831003925" lon="9.584136274940454"><ele>681.0</ele><time>2026-04-30T13:18:27.957Z</time></trkpt><trkpt lat="40.10319417744206" lon="9.584285926853076"><ele>681.0</ele><time>2026-04-30T13:18:28.957Z</time></trkpt><trkpt lat="40.103295185652875" lon="9.584420006573504"><ele>681.0</ele><time>2026-04-30T13:18:29.957Z</time></trkpt><trkpt lat="40.10342557707701" lon="9.584527065183114"><ele>681.0</ele><time>2026-04-30T13:18:30.957Z</time></trkpt><trkpt lat="40.103578763689384" lon="9.584629103195201"><ele>683.6666666666666</ele><time>2026-04-30T13:18:31.957Z</time></trkpt><trkpt lat="40.10370288609477" lon="9.58478482152785"><ele>686.3333333333333</ele><time>2026-04-30T13:18:32.957Z</time></trkpt><trkpt lat="40.10382293931836" lon="9.584918376608139"><ele>689.0</ele><time>2026-04-30T13:18:33.957Z</time></trkpt><trkpt lat="40.10384920599673" lon="9.585095260949538"><ele>689.0</ele><time>2026-04-30T13:18:34.957Z</time></trkpt><trkpt lat="40.10388546156708" lon="9.585283733045863"><ele>689.0</ele><time>2026-04-30T13:18:35.957Z</time></trkpt><trkpt lat="40.10390994877891" lon="9.585476777395515"><ele>689.0</ele><time>2026-04-30T13:18:36.957Z</time></trkpt><trkpt lat="40.10389344937556" lon="9.58564020195939"><ele>689.0</ele><time>2026-04-30T13:18:37.957Z</time></trkpt><trkpt lat="40.10384903793764" lon="9.585772938855108"><ele>685.25</ele><time>2026-04-30T13:18:38.957Z</time></trkpt><trkpt lat="40.1037466493946" lon="9.585859790429552"><ele>681.5</ele><time>2026-04-30T13:18:39.957Z</time></trkpt><trkpt lat="40.10369562391491" lon="9.585981142113772"><ele>677.75</ele><time>2026-04-30T13:18:40.957Z</time></trkpt><trkpt lat="40.10369206302906" lon="9.586105729165904"><ele>674.0</ele><time>2026-04-30T13:18:41.957Z</time></trkpt><trkpt lat="40.103771568495674" lon="9.586242763714369"><ele>673.75</ele><time>2026-04-30T13:18:42.957Z</time></trkpt><trkpt lat="40.10384250118867" lon="9.58638735959148"><ele>673.5</ele><time>2026-04-30T13:18:43.957Z</time></trkpt><trkpt lat="40.10386508757252" lon="9.586563643218785"><ele>673.25</ele><time>2026-04-30T13:18:44.957Z</time></trkpt><trkpt lat="40.10385963617371" lon="9.586736411348022"><ele>673.0</ele><time>2026-04-30T13:18:45.957Z</time></trkpt><trkpt lat="40.103821050559866" lon="9.586885894820307"><ele>673.75</ele><time>2026-04-30T13:18:46.957Z</time></trkpt><trkpt lat="40.10376367762799" lon="9.587015861267826"><ele>674.5</ele><time>2026-04-30T13:18:47.957Z</time></trkpt><trkpt lat="40.10372168398258" lon="9.58716639104145"><ele>675.25</ele><time>2026-04-30T13:18:48.957Z</time></trkpt><trkpt lat="40.10367606183319" lon="9.587294983539643"><ele>676.0</ele><time>2026-04-30T13:18:49.957Z</time></trkpt><trkpt lat="40.10363990395908" lon="9.587429589496113"><ele>676.0</ele><time>2026-04-30T13:18:50.957Z</time></trkpt><trkpt lat="40.1036539340691" lon="9.587593350685164"><ele>676.0</ele><time>2026-04-30T13:18:51.956Z</time></trkpt><trkpt lat="40.10372453071851" lon="9.58773841333002"><ele>676.0</ele><time>2026-04-30T13:18:52.956Z</time></trkpt><trkpt lat="40.10377991662805" lon="9.587879149671233"><ele>676.0</ele><time>2026-04-30T13:18:53.956Z</time></trkpt><trkpt lat="40.10382600005635" lon="9.588009758948512"><ele>675.5999999999999</ele><time>2026-04-30T13:18:54.956Z</time></trkpt><trkpt lat="40.103810415283135" lon="9.588140191309034"><ele>675.2</ele><time>2026-04-30T13:18:55.956Z</time></trkpt><trkpt lat="40.10376182036212" lon="9.588247466197753"><ele>674.8</ele><time>2026-04-30T13:18:56.956Z</time></trkpt><trkpt lat="40.10372628748408" lon="9.58839135300508"><ele>674.4000000000001</ele><time>2026-04-30T13:18:57.956Z</time></trkpt><trkpt lat="40.10367869015853" lon="9.588536571165978"><ele>674.0</ele><time>2026-04-30T13:18:58.956Z</time></trkpt><trkpt lat="40.10364874640292" lon="9.588680121122769"><ele>675.75</ele><time>2026-04-30T13:18:59.956Z</time></trkpt><trkpt lat="40.103640640674904" lon="9.58883280957824"><ele>677.5</ele><time>2026-04-30T13:19:00.957Z</time></trkpt><trkpt lat="40.10367082023122" lon="9.588985910108686"><ele>679.25</ele><time>2026-04-30T13:19:01.957Z</time></trkpt><trkpt lat="40.103683805200305" lon="9.589140499517011"><ele>681.0</ele><time>2026-04-30T13:19:02.956Z</time></trkpt><trkpt lat="40.10366593928126" lon="9.589284894558029"><ele>681.0</ele><time>2026-04-30T13:19:03.957Z</time></trkpt><trkpt lat="40.10362482492064" lon="9.589439311874061"><ele>681.0</ele><time>2026-04-30T13:19:04.956Z</time></trkpt><trkpt lat="40.10353393036141" lon="9.589586316835284"><ele>681.0</ele><time>2026-04-30T13:19:05.956Z</time></trkpt><trkpt lat="40.10344024553434" lon="9.589716404911547"><ele>681.0</ele><time>2026-04-30T13:19:06.957Z</time></trkpt><trkpt lat="40.1033400471105" lon="9.589838143824"><ele>681.75</ele><time>2026-04-30T13:19:07.957Z</time></trkpt><trkpt lat="40.10325898364698" lon="9.589970484791335"><ele>682.5</ele><time>2026-04-30T13:19:08.957Z</time></trkpt><trkpt lat="40.1031751125789" lon="9.590119340427314"><ele>683.25</ele><time>2026-04-30T13:19:09.957Z</time></trkpt><trkpt lat="40.10309049150265" lon="9.590267579772673"><ele>684.0</ele><time>2026-04-30T13:19:10.956Z</time></trkpt><trkpt lat="40.10300040768587" lon="9.590431159894807"><ele>684.0</ele><time>2026-04-30T13:19:11.956Z</time></trkpt><trkpt lat="40.1029136086834" lon="9.590582605570033"><ele>684.0</ele><time>2026-04-30T13:19:12.957Z</time></trkpt><trkpt lat="40.102832461149" lon="9.59072337325702"><ele>684.0</ele><time>2026-04-30T13:19:13.956Z</time></trkpt><trkpt lat="40.10274573558439" lon="9.590848648011947"><ele>684.0</ele><time>2026-04-30T13:19:14.956Z</time></trkpt><trkpt lat="40.10266123525859" lon="9.590954121681875"><ele>684.0</ele><time>2026-04-30T13:19:15.956Z</time></trkpt><trkpt lat="40.10257276438488" lon="9.591052502763594"><ele>684.0</ele><time>2026-04-30T13:19:16.956Z</time></trkpt><trkpt lat="40.102495501427995" lon="9.591164179232292"><ele>684.0</ele><time>2026-04-30T13:19:17.956Z</time></trkpt><trkpt lat="40.102438874506504" lon="9.591277358310169"><ele>684.0</ele><time>2026-04-30T13:19:18.956Z</time></trkpt><trkpt lat="40.102389279020855" lon="9.591385776364241"><ele>684.0</ele><time>2026-04-30T13:19:19.956Z</time></trkpt><trkpt lat="40.10235086394452" lon="9.59149376191854"><ele>681.6</ele><time>2026-04-30T13:19:20.956Z</time></trkpt><trkpt lat="40.10230785163156" lon="9.591584746087769"><ele>679.2</ele><time>2026-04-30T13:19:21.956Z</time></trkpt><trkpt lat="40.102244968691615" lon="9.591666014659639"><ele>676.8000000000001</ele><time>2026-04-30T13:19:22.956Z</time></trkpt><trkpt lat="40.10216174977514" lon="9.591733253247446"><ele>674.4000000000001</ele><time>2026-04-30T13:19:23.956Z</time></trkpt><trkpt lat="40.102071959882686" lon="9.591785565257968"><ele>672.0</ele><time>2026-04-30T13:19:24.956Z</time></trkpt><trkpt lat="40.10198420903737" lon="9.591848021517142"><ele>672.0</ele><time>2026-04-30T13:19:25.956Z</time></trkpt><trkpt lat="40.10190326949872" lon="9.591928098324638"><ele>672.0</ele><time>2026-04-30T13:19:26.956Z</time></trkpt><trkpt lat="40.10181799590866" lon="9.592037834032293"><ele>672.0</ele><time>2026-04-30T13:19:27.956Z</time></trkpt><trkpt lat="40.10173059848356" lon="9.59218147600758"><ele>672.0</ele><time>2026-04-30T13:19:28.956Z</time></trkpt><trkpt lat="40.101608634167874" lon="9.59235785322562"><ele>669.0</ele><time>2026-04-30T13:19:29.956Z</time></trkpt><trkpt lat="40.10147423779256" lon="9.592580162968257"><ele>666.0</ele><time>2026-04-30T13:19:30.956Z</time></trkpt><trkpt lat="40.10133664967097" lon="9.592792417424373"><ele>663.0</ele><time>2026-04-30T13:19:31.956Z</time></trkpt><trkpt lat="40.101199811673794" lon="9.59298856797983"><ele>673.0</ele><time>2026-04-30T13:19:32.956Z</time></trkpt><trkpt lat="40.10107251743095" lon="9.593173773652104"><ele>683.0</ele><time>2026-04-30T13:19:33.956Z</time></trkpt><trkpt lat="40.10094498632203" lon="9.593375200307174"><ele>693.0</ele><time>2026-04-30T13:19:34.956Z</time></trkpt><trkpt lat="40.100802177080766" lon="9.59359021998924"><ele>693.5</ele><time>2026-04-30T13:19:35.956Z</time></trkpt><trkpt lat="40.10063173015838" lon="9.593789112655832"><ele>694.0</ele><time>2026-04-30T13:19:36.956Z</time></trkpt><trkpt lat="40.10042271085073" lon="9.59394186684314"><ele>694.0</ele><time>2026-04-30T13:19:37.956Z</time></trkpt><trkpt lat="40.10019848962499" lon="9.594074750318539"><ele>694.0</ele><time>2026-04-30T13:19:38.956Z</time></trkpt><trkpt lat="40.09998372464005" lon="9.594203681839398"><ele>681.5</ele><time>2026-04-30T13:19:39.956Z</time></trkpt><trkpt lat="40.099776593885224" lon="9.594334639699603"><ele>669.0</ele><time>2026-04-30T13:19:40.956Z</time></trkpt><trkpt lat="40.09957790700605" lon="9.594475715210267"><ele>672.0</ele><time>2026-04-30T13:19:41.956Z</time></trkpt><trkpt lat="40.09937320368064" lon="9.594616300811227"><ele>675.0</ele><time>2026-04-30T13:19:42.956Z</time></trkpt><trkpt lat="40.099180300258666" lon="9.594746640320166"><ele>678.0</ele><time>2026-04-30T13:19:43.956Z</time></trkpt><trkpt lat="40.09901568167948" lon="9.594886854284054"><ele>678.0</ele><time>2026-04-30T13:19:44.956Z</time></trkpt><trkpt lat="40.09885948785053" lon="9.59501308945433"><ele>678.0</ele><time>2026-04-30T13:19:45.956Z</time></trkpt><trkpt lat="40.09873093415928" lon="9.595157730801144"><ele>678.0</ele><time>2026-04-30T13:19:46.955Z</time></trkpt><trkpt lat="40.09861542993848" lon="9.595341917340972"><ele>682.0</ele><time>2026-04-30T13:19:47.955Z</time></trkpt><trkpt lat="40.09852624934594" lon="9.595581074252115"><ele>686.0</ele><time>2026-04-30T13:19:48.955Z</time></trkpt><trkpt lat="40.09843927835612" lon="9.595827109877385"><ele>690.0</ele><time>2026-04-30T13:19:49.955Z</time></trkpt><trkpt lat="40.098360729103824" lon="9.596035816826971"><ele>693.75</ele><time>2026-04-30T13:19:50.955Z</time></trkpt><trkpt lat="40.09827563251574" lon="9.59620958631142"><ele>697.5</ele><time>2026-04-30T13:19:51.955Z</time></trkpt><trkpt lat="40.098181642251696" lon="9.59633520732227"><ele>701.25</ele><time>2026-04-30T13:19:52.955Z</time></trkpt><trkpt lat="40.09805075886018" lon="9.596412217433283"><ele>705.0</ele><time>2026-04-30T13:19:53.955Z</time></trkpt><trkpt lat="40.09790326405636" lon="9.596427364778464"><ele>705.0</ele><time>2026-04-30T13:19:54.955Z</time></trkpt><trkpt lat="40.097732288508915" lon="9.596437786727076"><ele>705.0</ele><time>2026-04-30T13:19:55.955Z</time></trkpt><trkpt lat="40.097544815228666" lon="9.596415246447068"><ele>705.0</ele><time>2026-04-30T13:19:56.955Z</time></trkpt><trkpt lat="40.09734367687385" lon="9.596401880980538"><ele>706.3333333333334</ele><time>2026-04-30T13:19:57.955Z</time></trkpt><trkpt lat="40.097133151902874" lon="9.59639020738856"><ele>707.6666666666667</ele><time>2026-04-30T13:19:58.955Z</time></trkpt><trkpt lat="40.09690746297194" lon="9.596385813340179"><ele>709.0</ele><time>2026-04-30T13:19:59.955Z</time></trkpt><trkpt lat="40.09667281525395" lon="9.596386296227069"><ele>710.0</ele><time>2026-04-30T13:20:00.955Z</time></trkpt><trkpt lat="40.09643459652953" lon="9.596365145012186"><ele>711.0</ele><time>2026-04-30T13:20:01.955Z</time></trkpt><trkpt lat="40.0961902960434" lon="9.596381681473483"><ele>711.0</ele><time>2026-04-30T13:20:02.955Z</time></trkpt><trkpt lat="40.09596207987107" lon="9.596368725706167"><ele>711.0</ele><time>2026-04-30T13:20:03.955Z</time></trkpt><trkpt lat="40.09574854655553" lon="9.596298746312115"><ele>711.0</ele><time>2026-04-30T13:20:04.955Z</time></trkpt><trkpt lat="40.095540424903305" lon="9.596246339443788"><ele>710.6666666666666</ele><time>2026-04-30T13:20:05.955Z</time></trkpt><trkpt lat="40.09533695468966" lon="9.596237786981312"><ele>710.3333333333333</ele><time>2026-04-30T13:20:06.955Z</time></trkpt><trkpt lat="40.095124135660726" lon="9.596232205680998"><ele>710.0</ele><time>2026-04-30T13:20:07.955Z</time></trkpt><trkpt lat="40.094908813074376" lon="9.59631770603308"><ele>701.0</ele><time>2026-04-30T13:20:08.955Z</time></trkpt><trkpt lat="40.094687462783874" lon="9.596398406455608"><ele>692.0</ele><time>2026-04-30T13:20:09.955Z</time></trkpt><trkpt lat="40.09447689615252" lon="9.596506982368032"><ele>692.0</ele><time>2026-04-30T13:20:10.955Z</time></trkpt><trkpt lat="40.09427751617122" lon="9.596574480271835"><ele>692.0</ele><time>2026-04-30T13:20:11.955Z</time></trkpt><trkpt lat="40.094088969760534" lon="9.59663315130401"><ele>692.0</ele><time>2026-04-30T13:20:12.955Z</time></trkpt><trkpt lat="40.09390204026244" lon="9.596703657249371"><ele>693.3333333333333</ele><time>2026-04-30T13:20:13.955Z</time></trkpt><trkpt lat="40.09373313403139" lon="9.596845981115445"><ele>694.6666666666666</ele><time>2026-04-30T13:20:14.955Z</time></trkpt><trkpt lat="40.09357727501858" lon="9.597017739256605"><ele>696.0</ele><time>2026-04-30T13:20:15.955Z</time></trkpt><trkpt lat="40.09342421865778" lon="9.597193205128539"><ele>696.0</ele><time>2026-04-30T13:20:16.955Z</time></trkpt><trkpt lat="40.0932679662626" lon="9.597418197360597"><ele>696.0</ele><time>2026-04-30T13:20:17.955Z</time></trkpt><trkpt lat="40.09309698704529" lon="9.59761979774522"><ele>697.0</ele><time>2026-04-30T13:20:18.955Z</time></trkpt><trkpt lat="40.09293244960026" lon="9.597819725926565"><ele>698.0</ele><time>2026-04-30T13:20:19.955Z</time></trkpt><trkpt lat="40.092749717906976" lon="9.597981525290137"><ele>699.0</ele><time>2026-04-30T13:20:20.955Z</time></trkpt><trkpt lat="40.092542500985964" lon="9.598137224146775"><ele>685.0</ele><time>2026-04-30T13:20:21.955Z</time></trkpt><trkpt lat="40.09231886427828" lon="9.598257060024839"><ele>671.0</ele><time>2026-04-30T13:20:22.955Z</time></trkpt><trkpt lat="40.0921111939319" lon="9.598373026330759"><ele>671.0</ele><time>2026-04-30T13:20:23.955Z</time></trkpt><trkpt lat="40.09189652629206" lon="9.59852189117901"><ele>671.0</ele><time>2026-04-30T13:20:24.955Z</time></trkpt><trkpt lat="40.09168985103209" lon="9.59867385484952"><ele>682.5</ele><time>2026-04-30T13:20:25.955Z</time></trkpt><trkpt lat="40.09147845475152" lon="9.598809021143893"><ele>694.0</ele><time>2026-04-30T13:20:26.955Z</time></trkpt><trkpt lat="40.091278952267054" lon="9.598937935605631"><ele>694.0</ele><time>2026-04-30T13:20:27.955Z</time></trkpt><trkpt lat="40.09108801638224" lon="9.599066496113155"><ele>694.0</ele><time>2026-04-30T13:20:28.955Z</time></trkpt><trkpt lat="40.090921743648636" lon="9.599171601935494"><ele>694.0</ele><time>2026-04-30T13:20:29.954Z</time></trkpt><trkpt lat="40.0907352074339" lon="9.599210206423905"><ele>687.3333333333334</ele><time>2026-04-30T13:20:30.954Z</time></trkpt><trkpt lat="40.09054195167272" lon="9.599237188738837"><ele>680.6666666666666</ele><time>2026-04-30T13:20:31.954Z</time></trkpt><trkpt lat="40.09036745904976" lon="9.59931302919963"><ele>674.0</ele><time>2026-04-30T13:20:32.954Z</time></trkpt><trkpt lat="40.09018839390733" lon="9.599398597344365"><ele>671.6666666666666</ele><time>2026-04-30T13:20:33.954Z</time></trkpt><trkpt lat="40.09001928083633" lon="9.599541307214023"><ele>669.3333333333334</ele><time>2026-04-30T13:20:34.954Z</time></trkpt><trkpt lat="40.08986428515245" lon="9.599704313018123"><ele>667.0</ele><time>2026-04-30T13:20:35.954Z</time></trkpt><trkpt lat="40.089727108690575" lon="9.59994285839103"><ele>667.0</ele><time>2026-04-30T13:20:36.954Z</time></trkpt><trkpt lat="40.08956636961226" lon="9.600181456090752"><ele>667.0</ele><time>2026-04-30T13:20:37.954Z</time></trkpt><trkpt lat="40.089365171445976" lon="9.600372635575843"><ele>667.0</ele><time>2026-04-30T13:20:38.954Z</time></trkpt><trkpt lat="40.08914680080885" lon="9.60058265269442"><ele>667.0</ele><time>2026-04-30T13:20:39.954Z</time></trkpt><trkpt lat="40.088918774572875" lon="9.600803244589986"><ele>667.0</ele><time>2026-04-30T13:20:40.954Z</time></trkpt><trkpt lat="40.088689328708284" lon="9.601025782988831"><ele>667.0</ele><time>2026-04-30T13:20:41.954Z</time></trkpt><trkpt lat="40.08844270154636" lon="9.60126535056003"><ele>663.5</ele><time>2026-04-30T13:20:42.954Z</time></trkpt><trkpt lat="40.0881416710776" lon="9.601554661117714"><ele>660.0</ele><time>2026-04-30T13:20:43.954Z</time></trkpt><trkpt lat="40.08787489650171" lon="9.601810884541056"><ele>661.5</ele><time>2026-04-30T13:20:44.954Z</time></trkpt><trkpt lat="40.0876310612353" lon="9.602045076162026"><ele>663.0</ele><time>2026-04-30T13:20:45.954Z</time></trkpt><trkpt lat="40.08738087377528" lon="9.602250990737057"><ele>663.0</ele><time>2026-04-30T13:20:46.954Z</time></trkpt><trkpt lat="40.08714934588497" lon="9.60245961832993"><ele>663.0</ele><time>2026-04-30T13:20:47.954Z</time></trkpt><trkpt lat="40.08696224199924" lon="9.602621530249303"><ele>663.0</ele><time>2026-04-30T13:20:48.954Z</time></trkpt><trkpt lat="40.086792984463685" lon="9.602766024414384"><ele>663.0</ele><time>2026-04-30T13:20:49.954Z</time></trkpt><trkpt lat="40.08665901861291" lon="9.602902667945099"><ele>663.0</ele><time>2026-04-30T13:20:50.954Z</time></trkpt><trkpt lat="40.08657919331738" lon="9.603022069721433"><ele>662.2</ele><time>2026-04-30T13:20:51.954Z</time></trkpt><trkpt lat="40.086492253930956" lon="9.603043856856072"><ele>661.4</ele><time>2026-04-30T13:20:52.954Z</time></trkpt><trkpt lat="40.08639109368561" lon="9.602933362899073"><ele>660.6</ele><time>2026-04-30T13:20:53.954Z</time></trkpt><trkpt lat="40.086318437678685" lon="9.602835568848738"><ele>659.8000000000001</ele><time>2026-04-30T13:20:54.954Z</time></trkpt><trkpt lat="40.086242036586334" lon="9.602725630587857"><ele>659.0</ele><time>2026-04-30T13:20:55.954Z</time></trkpt><trkpt lat="40.08613135033303" lon="9.602645391263442"><ele>659.0</ele><time>2026-04-30T13:20:56.954Z</time></trkpt><trkpt lat="40.08599087828053" lon="9.602625381360085"><ele>659.0</ele><time>2026-04-30T13:20:57.954Z</time></trkpt><trkpt lat="40.085849671891765" lon="9.602690484170534"><ele>659.0</ele><time>2026-04-30T13:20:58.954Z</time></trkpt><trkpt lat="40.0856907745854" lon="9.602787104506094"><ele>671.0</ele><time>2026-04-30T13:20:59.954Z</time></trkpt><trkpt lat="40.08551473357614" lon="9.60290861699491"><ele>683.0</ele><time>2026-04-30T13:21:00.954Z</time></trkpt><trkpt lat="40.08534423248124" lon="9.602976179296185"><ele>695.0</ele><time>2026-04-30T13:21:01.954Z</time></trkpt><trkpt lat="40.08519186075732" lon="9.602958597707987"><ele>695.0</ele><time>2026-04-30T13:21:02.954Z</time></trkpt><trkpt lat="40.08505378005037" lon="9.602872155662629"><ele>695.0</ele><time>2026-04-30T13:21:03.954Z</time></trkpt><trkpt lat="40.08488942054718" lon="9.60274509278007"><ele>695.0</ele><time>2026-04-30T13:21:04.954Z</time></trkpt><trkpt lat="40.084706290234706" lon="9.602634848502975"><ele>688.0</ele><time>2026-04-30T13:21:05.954Z</time></trkpt><trkpt lat="40.08450952068748" lon="9.602528346299511"><ele>681.0</ele><time>2026-04-30T13:21:06.955Z</time></trkpt><trkpt lat="40.084328115463975" lon="9.602436359794618"><ele>674.0</ele><time>2026-04-30T13:21:07.955Z</time></trkpt><trkpt lat="40.084181340768225" lon="9.602378569052547"><ele>671.75</ele><time>2026-04-30T13:21:08.955Z</time></trkpt><trkpt lat="40.08406500560901" lon="9.602301955878195"><ele>669.5</ele><time>2026-04-30T13:21:09.955Z</time></trkpt><trkpt lat="40.0839725799114" lon="9.602148596690917"><ele>667.25</ele><time>2026-04-30T13:21:10.955Z</time></trkpt><trkpt lat="40.08389714558644" lon="9.601950763445391"><ele>665.0</ele><time>2026-04-30T13:21:11.955Z</time></trkpt><trkpt lat="40.08381348166313" lon="9.601795261773228"><ele>662.5</ele><time>2026-04-30T13:21:12.955Z</time></trkpt><trkpt lat="40.083719505343616" lon="9.601678863074865"><ele>660.0</ele><time>2026-04-30T13:21:13.955Z</time></trkpt><trkpt lat="40.0835898224067" lon="9.601624774337035"><ele>657.5</ele><time>2026-04-30T13:21:14.955Z</time></trkpt><trkpt lat="40.08344879518434" lon="9.601641132635502"><ele>655.0</ele><time>2026-04-30T13:21:15.955Z</time></trkpt><trkpt lat="40.083303749148435" lon="9.601730997243276"><ele>655.75</ele><time>2026-04-30T13:21:16.955Z</time></trkpt><trkpt lat="40.08317342615321" lon="9.601860091664834"><ele>656.5</ele><time>2026-04-30T13:21:17.955Z</time></trkpt><trkpt lat="40.08304823374864" lon="9.601955855826201"><ele>657.25</ele><time>2026-04-30T13:21:18.955Z</time></trkpt><trkpt lat="40.082908286275874" lon="9.60197616778218"><ele>658.0</ele><time>2026-04-30T13:21:19.955Z</time></trkpt><trkpt lat="40.082725031477146" lon="9.601913057745708"><ele>658.0</ele><time>2026-04-30T13:21:20.955Z</time></trkpt><trkpt lat="40.08251287187563" lon="9.601838190924205"><ele>658.0</ele><time>2026-04-30T13:21:21.955Z</time></trkpt><trkpt lat="40.082307501560145" lon="9.601820894719134"><ele>658.0</ele><time>2026-04-30T13:21:22.955Z</time></trkpt><trkpt lat="40.082104797035115" lon="9.601864298412044"><ele>657.3333333333334</ele><time>2026-04-30T13:21:23.955Z</time></trkpt><trkpt lat="40.08192930722209" lon="9.601974832790942"><ele>656.6666666666666</ele><time>2026-04-30T13:21:24.955Z</time></trkpt><trkpt lat="40.08176770449911" lon="9.60210337994954"><ele>656.0</ele><time>2026-04-30T13:21:25.955Z</time></trkpt><trkpt lat="40.081629692397385" lon="9.602201914760908"><ele>658.0</ele><time>2026-04-30T13:21:26.955Z</time></trkpt><trkpt lat="40.08149659203767" lon="9.602228113439091"><ele>660.0</ele><time>2026-04-30T13:21:27.955Z</time></trkpt><trkpt lat="40.08136174470425" lon="9.602189050993887"><ele>662.0</ele><time>2026-04-30T13:21:28.955Z</time></trkpt><trkpt lat="40.08125157518405" lon="9.602085619570065"><ele>664.0</ele><time>2026-04-30T13:21:29.955Z</time></trkpt><trkpt lat="40.08113588066035" lon="9.60200239006471"><ele>664.0</ele><time>2026-04-30T13:21:30.955Z</time></trkpt><trkpt lat="40.0809829218972" lon="9.602024701355036"><ele>664.0</ele><time>2026-04-30T13:21:31.955Z</time></trkpt><trkpt lat="40.08080744194511" lon="9.60210341330207"><ele>664.0</ele><time>2026-04-30T13:21:32.955Z</time></trkpt><trkpt lat="40.08063506777605" lon="9.602197454600738"><ele>667.6666666666667</ele><time>2026-04-30T13:21:33.955Z</time></trkpt><trkpt lat="40.08047474941891" lon="9.60223727881993"><ele>671.3333333333334</ele><time>2026-04-30T13:21:34.955Z</time></trkpt><trkpt lat="40.08032382294754" lon="9.602221405814639"><ele>675.0</ele><time>2026-04-30T13:21:35.954Z</time></trkpt><trkpt lat="40.080158511510604" lon="9.602152725854877"><ele>675.0</ele><time>2026-04-30T13:21:36.954Z</time></trkpt><trkpt lat="40.07997406775442" lon="9.60210821219868"><ele>675.0</ele><time>2026-04-30T13:21:37.954Z</time></trkpt><trkpt lat="40.07977092866591" lon="9.602123609045034"><ele>675.0</ele><time>2026-04-30T13:21:38.954Z</time></trkpt><trkpt lat="40.079556492000414" lon="9.60217919249813"><ele>680.0</ele><time>2026-04-30T13:21:39.954Z</time></trkpt><trkpt lat="40.0793260459571" lon="9.602256732388971"><ele>685.0</ele><time>2026-04-30T13:21:40.954Z</time></trkpt><trkpt lat="40.07909479865731" lon="9.602362699185653"><ele>690.6666666666667</ele><time>2026-04-30T13:21:41.954Z</time></trkpt><trkpt lat="40.078893867800474" lon="9.602489563228218"><ele>696.3333333333334</ele><time>2026-04-30T13:21:42.954Z</time></trkpt><trkpt lat="40.07873146615176" lon="9.602619139963382"><ele>702.0</ele><time>2026-04-30T13:21:43.954Z</time></trkpt><trkpt lat="40.07861746223142" lon="9.60276469077266"><ele>699.3333333333334</ele><time>2026-04-30T13:21:44.954Z</time></trkpt><trkpt lat="40.07853263560172" lon="9.60294394597644"><ele>696.6666666666667</ele><time>2026-04-30T13:21:45.954Z</time></trkpt><trkpt lat="40.07846818905817" lon="9.60316694372934"><ele>694.0</ele><time>2026-04-30T13:21:46.954Z</time></trkpt><trkpt lat="40.07839745608766" lon="9.603429454063422"><ele>693.0</ele><time>2026-04-30T13:21:47.954Z</time></trkpt><trkpt lat="40.078328273729326" lon="9.603690587809428"><ele>692.0</ele><time>2026-04-30T13:21:48.954Z</time></trkpt><trkpt lat="40.078267308923934" lon="9.603930965143348"><ele>691.0</ele><time>2026-04-30T13:21:49.954Z</time></trkpt><trkpt lat="40.07821657338201" lon="9.604147350148066"><ele>696.25</ele><time>2026-04-30T13:21:50.954Z</time></trkpt><trkpt lat="40.078187409510164" lon="9.604354664217123"><ele>701.5</ele><time>2026-04-30T13:21:51.954Z</time></trkpt><trkpt lat="40.07815679398013" lon="9.604538366113077"><ele>706.75</ele><time>2026-04-30T13:21:52.954Z</time></trkpt><trkpt lat="40.078101045436185" lon="9.60467390732338"><ele>712.0</ele><time>2026-04-30T13:21:53.954Z</time></trkpt><trkpt lat="40.07801514463079" lon="9.604746683328218"><ele>712.0</ele><time>2026-04-30T13:21:54.954Z</time></trkpt><trkpt lat="40.077912438776124" lon="9.60471907828277"><ele>712.0</ele><time>2026-04-30T13:21:55.954Z</time></trkpt><trkpt lat="40.07783075674992" lon="9.60463620580134"><ele>712.0</ele><time>2026-04-30T13:21:56.954Z</time></trkpt><trkpt lat="40.07779077484108" lon="9.604516133627982"><ele>712.0</ele><time>2026-04-30T13:21:57.954Z</time></trkpt><trkpt lat="40.077810802953934" lon="9.604365173329468"><ele>712.0</ele><time>2026-04-30T13:21:58.954Z</time></trkpt><trkpt lat="40.07788053059966" lon="9.604203783196887"><ele>712.0</ele><time>2026-04-30T13:21:59.954Z</time></trkpt><trkpt lat="40.07795873644394" lon="9.6040095969277"><ele>712.0</ele><time>2026-04-30T13:22:00.954Z</time></trkpt><trkpt lat="40.078009833232294" lon="9.60382806980931"><ele>712.0</ele><time>2026-04-30T13:22:01.954Z</time></trkpt><trkpt lat="40.07803643428643" lon="9.603664007589698"><ele>712.0</ele><time>2026-04-30T13:22:02.954Z</time></trkpt><trkpt lat="40.07801482881233" lon="9.603488191231607"><ele>712.0</ele><time>2026-04-30T13:22:03.954Z</time></trkpt><trkpt lat="40.077946780543996" lon="9.603275699628915"><ele>712.0</ele><time>2026-04-30T13:22:04.954Z</time></trkpt><trkpt lat="40.077867242303114" lon="9.603039735068997"><ele>712.0</ele><time>2026-04-30T13:22:05.954Z</time></trkpt><trkpt lat="40.077804325231725" lon="9.602817837756092"><ele>712.0</ele><time>2026-04-30T13:22:06.954Z</time></trkpt><trkpt lat="40.07774246276823" lon="9.602623075647967"><ele>712.0</ele><time>2026-04-30T13:22:07.954Z</time></trkpt><trkpt lat="40.07768722220401" lon="9.602466626903343"><ele>712.0</ele><time>2026-04-30T13:22:08.954Z</time></trkpt><trkpt lat="40.077606006622545" lon="9.602363895355435"><ele>712.0</ele><time>2026-04-30T13:22:09.954Z</time></trkpt><trkpt lat="40.0774925695434" lon="9.60231642220079"><ele>709.25</ele><time>2026-04-30T13:22:10.954Z</time></trkpt><trkpt lat="40.077367037766585" lon="9.60233163881779"><ele>706.5</ele><time>2026-04-30T13:22:11.954Z</time></trkpt><trkpt lat="40.07725452036899" lon="9.602411565357682"><ele>703.75</ele><time>2026-04-30T13:22:12.954Z</time></trkpt><trkpt lat="40.07718148445755" lon="9.602536732380166"><ele>701.0</ele><time>2026-04-30T13:22:13.954Z</time></trkpt><trkpt lat="40.07713924046426" lon="9.60273480930402"><ele>702.3333333333333</ele><time>2026-04-30T13:22:14.954Z</time></trkpt><trkpt lat="40.07711316436633" lon="9.602981167482351"><ele>703.6666666666666</ele><time>2026-04-30T13:22:15.954Z</time></trkpt><trkpt lat="40.07707031884224" lon="9.603214882392095"><ele>705.0</ele><time>2026-04-30T13:22:16.954Z</time></trkpt><trkpt lat="40.076989785509696" lon="9.603399517955118"><ele>705.0</ele><time>2026-04-30T13:22:17.954Z</time></trkpt><trkpt lat="40.07686807838955" lon="9.603543788379566"><ele>705.0</ele><time>2026-04-30T13:22:18.953Z</time></trkpt><trkpt lat="40.076714262058665" lon="9.603665293937956"><ele>705.0</ele><time>2026-04-30T13:22:19.953Z</time></trkpt><trkpt lat="40.07652380689419" lon="9.603796499821259"><ele>706.5</ele><time>2026-04-30T13:22:20.953Z</time></trkpt><trkpt lat="40.07631032025933" lon="9.603931435156658"><ele>708.0</ele><time>2026-04-30T13:22:21.953Z</time></trkpt><trkpt lat="40.07611278583163" lon="9.604100797582495"><ele>708.0</ele><time>2026-04-30T13:22:22.953Z</time></trkpt><trkpt lat="40.07593350441913" lon="9.604278982583299"><ele>708.0</ele><time>2026-04-30T13:22:23.953Z</time></trkpt><trkpt lat="40.07577632300528" lon="9.604477452477628"><ele>708.0</ele><time>2026-04-30T13:22:24.953Z</time></trkpt><trkpt lat="40.075617291913396" lon="9.604630520582237"><ele>709.6666666666666</ele><time>2026-04-30T13:22:25.953Z</time></trkpt><trkpt lat="40.07542078656521" lon="9.60472758061499"><ele>711.3333333333333</ele><time>2026-04-30T13:22:26.953Z</time></trkpt><trkpt lat="40.07521554879068" lon="9.604809699659771"><ele>713.0</ele><time>2026-04-30T13:22:27.953Z</time></trkpt><trkpt lat="40.07503307235141" lon="9.604914265827286"><ele>710.6666666666666</ele><time>2026-04-30T13:22:28.953Z</time></trkpt><trkpt lat="40.07488019704049" lon="9.60503531119124"><ele>708.3333333333334</ele><time>2026-04-30T13:22:29.953Z</time></trkpt><trkpt lat="40.0747503822255" lon="9.60520728120879"><ele>706.0</ele><time>2026-04-30T13:22:30.953Z</time></trkpt><trkpt lat="40.0746294724443" lon="9.605426632832954"><ele>706.0</ele><time>2026-04-30T13:22:31.953Z</time></trkpt><trkpt lat="40.07449759071257" lon="9.605661595514936"><ele>706.0</ele><time>2026-04-30T13:22:32.953Z</time></trkpt><trkpt lat="40.07436097483381" lon="9.605879760657434"><ele>706.0</ele><time>2026-04-30T13:22:33.953Z</time></trkpt><trkpt lat="40.07423926201139" lon="9.606075028414148"><ele>709.0</ele><time>2026-04-30T13:22:34.953Z</time></trkpt><trkpt lat="40.07415379147369" lon="9.606273458176243"><ele>712.0</ele><time>2026-04-30T13:22:35.953Z</time></trkpt><trkpt lat="40.07410481266136" lon="9.606505982571534"><ele>715.0</ele><time>2026-04-30T13:22:36.953Z</time></trkpt><trkpt lat="40.07408474193654" lon="9.606765113623222"><ele>708.0</ele><time>2026-04-30T13:22:37.953Z</time></trkpt><trkpt lat="40.07407864977002" lon="9.607043572870213"><ele>701.0</ele><time>2026-04-30T13:22:38.953Z</time></trkpt><trkpt lat="40.0740489314868" lon="9.60730369904707"><ele>694.0</ele><time>2026-04-30T13:22:39.953Z</time></trkpt><trkpt lat="40.07401263717587" lon="9.607535044351133"><ele>694.0</ele><time>2026-04-30T13:22:40.953Z</time></trkpt><trkpt lat="40.07394761085091" lon="9.607725538557862"><ele>694.0</ele><time>2026-04-30T13:22:41.953Z</time></trkpt><trkpt lat="40.07382137322246" lon="9.60789472045333"><ele>694.0</ele><time>2026-04-30T13:22:42.953Z</time></trkpt><trkpt lat="40.07367343889434" lon="9.608051467536168"><ele>693.0</ele><time>2026-04-30T13:22:43.953Z</time></trkpt><trkpt lat="40.073522043191545" lon="9.608191597473146"><ele>692.0</ele><time>2026-04-30T13:22:44.953Z</time></trkpt><trkpt lat="40.073362755105464" lon="9.60831788955557"><ele>691.0</ele><time>2026-04-30T13:22:45.953Z</time></trkpt><trkpt lat="40.07323605355264" lon="9.608456686917343"><ele>691.0</ele><time>2026-04-30T13:22:46.953Z</time></trkpt><trkpt lat="40.07315628593273" lon="9.608625276281415"><ele>691.0</ele><time>2026-04-30T13:22:47.953Z</time></trkpt><trkpt lat="40.07313351707464" lon="9.608817750873111"><ele>691.0</ele><time>2026-04-30T13:22:48.953Z</time></trkpt><trkpt lat="40.0731440015986" lon="9.609004294130022"><ele>691.0</ele><time>2026-04-30T13:22:49.953Z</time></trkpt><trkpt lat="40.07312862628008" lon="9.609174224247695"><ele>695.25</ele><time>2026-04-30T13:22:50.953Z</time></trkpt><trkpt lat="40.0730670398878" lon="9.609319631288189"><ele>699.5</ele><time>2026-04-30T13:22:51.953Z</time></trkpt><trkpt lat="40.0729613692802" lon="9.609437969636657"><ele>703.75</ele><time>2026-04-30T13:22:52.953Z</time></trkpt><trkpt lat="40.072851275303215" lon="9.609522101177044"><ele>708.0</ele><time>2026-04-30T13:22:53.953Z</time></trkpt><trkpt lat="40.072717196456374" lon="9.609536075856715"><ele>707.6666666666666</ele><time>2026-04-30T13:22:54.953Z</time></trkpt><trkpt lat="40.07257110824426" lon="9.609503200260937"><ele>707.3333333333333</ele><time>2026-04-30T13:22:55.953Z</time></trkpt><trkpt lat="40.07241021169064" lon="9.609446828083168"><ele>707.0</ele><time>2026-04-30T13:22:56.953Z</time></trkpt><trkpt lat="40.07222860231719" lon="9.609425216824986"><ele>707.0</ele><time>2026-04-30T13:22:57.953Z</time></trkpt><trkpt lat="40.07202639274456" lon="9.60945206522613"><ele>707.0</ele><time>2026-04-30T13:22:58.953Z</time></trkpt><trkpt lat="40.071812680856986" lon="9.609530041211846"><ele>707.0</ele><time>2026-04-30T13:22:59.953Z</time></trkpt><trkpt lat="40.071618150476034" lon="9.60963477320788"><ele>713.3333333333333</ele><time>2026-04-30T13:23:00.952Z</time></trkpt><trkpt lat="40.07142477941198" lon="9.609667282253175"><ele>719.6666666666666</ele><time>2026-04-30T13:23:01.952Z</time></trkpt><trkpt lat="40.07123917407685" lon="9.60963083869954"><ele>726.0</ele><time>2026-04-30T13:23:02.952Z</time></trkpt><trkpt lat="40.07105086781983" lon="9.609550658158794"><ele>721.6666666666666</ele><time>2026-04-30T13:23:03.952Z</time></trkpt><trkpt lat="40.07088569152563" lon="9.609436524556063"><ele>717.3333333333333</ele><time>2026-04-30T13:23:04.952Z</time></trkpt><trkpt lat="40.07071815429503" lon="9.609355210023848"><ele>713.0</ele><time>2026-04-30T13:23:05.952Z</time></trkpt><trkpt lat="40.070550031207866" lon="9.609332824120434"><ele>710.3333333333333</ele><time>2026-04-30T13:23:06.952Z</time></trkpt><trkpt lat="40.070371072416755" lon="9.609385507790966"><ele>707.6666666666666</ele><time>2026-04-30T13:23:07.952Z</time></trkpt><trkpt lat="40.07018361169766" lon="9.609492664676337"><ele>705.0</ele><time>2026-04-30T13:23:08.952Z</time></trkpt><trkpt lat="40.06997313822663" lon="9.609631783253079"><ele>707.3333333333334</ele><time>2026-04-30T13:23:09.952Z</time></trkpt><trkpt lat="40.06975943754203" lon="9.609741278943607"><ele>709.6666666666667</ele><time>2026-04-30T13:23:10.952Z</time></trkpt><trkpt lat="40.06955719403366" lon="9.609837514209437"><ele>712.0</ele><time>2026-04-30T13:23:11.952Z</time></trkpt><trkpt lat="40.06939252559983" lon="9.609918469316362"><ele>712.0</ele><time>2026-04-30T13:23:12.953Z</time></trkpt><trkpt lat="40.069258945038165" lon="9.610004262752758"><ele>712.0</ele><time>2026-04-30T13:23:13.953Z</time></trkpt><trkpt lat="40.06915325042484" lon="9.610113783643566"><ele>712.0</ele><time>2026-04-30T13:23:14.953Z</time></trkpt><trkpt lat="40.0690882479471" lon="9.610275864221355"><ele>712.0</ele><time>2026-04-30T13:23:15.954Z</time></trkpt><trkpt lat="40.06900230632903" lon="9.610432698565859"><ele>712.0</ele><time>2026-04-30T13:23:16.953Z</time></trkpt><trkpt lat="40.06887358918554" lon="9.610539997549811"><ele>712.0</ele><time>2026-04-30T13:23:17.953Z</time></trkpt><trkpt lat="40.068711073324835" lon="9.610617960008089"><ele>712.0</ele><time>2026-04-30T13:23:18.954Z</time></trkpt><trkpt lat="40.06857887155796" lon="9.610723575415902"><ele>712.0</ele><time>2026-04-30T13:23:19.953Z</time></trkpt><trkpt lat="40.068495236639706" lon="9.610869058616112"><ele>712.0</ele><time>2026-04-30T13:23:20.953Z</time></trkpt><trkpt lat="40.06843101397449" lon="9.611077083197053"><ele>712.0</ele><time>2026-04-30T13:23:21.954Z</time></trkpt><trkpt lat="40.068316022994445" lon="9.611233185262028"><ele>713.0</ele><time>2026-04-30T13:23:22.954Z</time></trkpt><trkpt lat="40.06819558840876" lon="9.611361738163424"><ele>714.0</ele><time>2026-04-30T13:23:23.954Z</time></trkpt><trkpt lat="40.06803118567787" lon="9.611457713441956"><ele>715.0</ele><time>2026-04-30T13:23:24.954Z</time></trkpt><trkpt lat="40.067826384890594" lon="9.611520581477725"><ele>715.0</ele><time>2026-04-30T13:23:25.954Z</time></trkpt><trkpt lat="40.0676150385372" lon="9.611589011417554"><ele>715.0</ele><time>2026-04-30T13:23:26.954Z</time></trkpt><trkpt lat="40.067438452672064" lon="9.611674848785325"><ele>715.0</ele><time>2026-04-30T13:23:27.954Z</time></trkpt><trkpt lat="40.067283155696536" lon="9.611772645345297"><ele>712.25</ele><time>2026-04-30T13:23:28.954Z</time></trkpt><trkpt lat="40.067159693174" lon="9.611857538463491"><ele>709.5</ele><time>2026-04-30T13:23:29.954Z</time></trkpt><trkpt lat="40.06703631700374" lon="9.611852466763807"><ele>706.75</ele><time>2026-04-30T13:23:30.955Z</time></trkpt><trkpt lat="40.066875677334636" lon="9.611871398957351"><ele>704.0</ele><time>2026-04-30T13:23:31.955Z</time></trkpt><trkpt lat="40.06669063210209" lon="9.61191668162596"><ele>709.6666666666666</ele><time>2026-04-30T13:23:32.955Z</time></trkpt><trkpt lat="40.066510095894884" lon="9.61201631537694"><ele>715.3333333333334</ele><time>2026-04-30T13:23:33.955Z</time></trkpt><trkpt lat="40.066335932227176" lon="9.612148277338592"><ele>721.0</ele><time>2026-04-30T13:23:34.955Z</time></trkpt><trkpt lat="40.06613318736722" lon="9.612210588859057"><ele>721.0</ele><time>2026-04-30T13:23:35.955Z</time></trkpt><trkpt lat="40.06592519243006" lon="9.61226367933718"><ele>721.0</ele><time>2026-04-30T13:23:36.955Z</time></trkpt><trkpt lat="40.06575074585328" lon="9.612337884743775"><ele>721.0</ele><time>2026-04-30T13:23:37.954Z</time></trkpt><trkpt lat="40.065616068378496" lon="9.61242217925539"><ele>720.5</ele><time>2026-04-30T13:23:38.954Z</time></trkpt><trkpt lat="40.065492965077674" lon="9.612485633299285"><ele>720.0</ele><time>2026-04-30T13:23:39.954Z</time></trkpt><trkpt lat="40.065367918886075" lon="9.612490531992822"><ele>719.5</ele><time>2026-04-30T13:23:40.954Z</time></trkpt><trkpt lat="40.065240442874014" lon="9.612409719703308"><ele>719.0</ele><time>2026-04-30T13:23:41.954Z</time></trkpt><trkpt lat="40.065100864186256" lon="9.612345984451986"><ele>720.0</ele><time>2026-04-30T13:23:42.954Z</time></trkpt><trkpt lat="40.06493957470891" lon="9.61232603105672"><ele>721.0</ele><time>2026-04-30T13:23:43.954Z</time></trkpt><trkpt lat="40.06475122910288" lon="9.612350235099145"><ele>722.0</ele><time>2026-04-30T13:23:44.954Z</time></trkpt><trkpt lat="40.06453533801077" lon="9.612400524576861"><ele>722.0</ele><time>2026-04-30T13:23:45.954Z</time></trkpt><trkpt lat="40.064321855025455" lon="9.612442145254388"><ele>722.0</ele><time>2026-04-30T13:23:46.954Z</time></trkpt><trkpt lat="40.06412520638897" lon="9.612484353996466"><ele>722.0</ele><time>2026-04-30T13:23:47.954Z</time></trkpt><trkpt lat="40.06392956593437" lon="9.612514110564991"><ele>722.6666666666666</ele><time>2026-04-30T13:23:48.954Z</time></trkpt><trkpt lat="40.06374457677804" lon="9.612555267346343"><ele>723.3333333333334</ele><time>2026-04-30T13:23:49.954Z</time></trkpt><trkpt lat="40.06355730363537" lon="9.612627869470764"><ele>724.0</ele><time>2026-04-30T13:23:50.954Z</time></trkpt><trkpt lat="40.06339034519387" lon="9.61276792730597"><ele>719.3333333333334</ele><time>2026-04-30T13:23:51.954Z</time></trkpt><trkpt lat="40.06324314743372" lon="9.612929841777824"><ele>714.6666666666666</ele><time>2026-04-30T13:23:52.954Z</time></trkpt><trkpt lat="40.06310311940702" lon="9.613083922443291"><ele>710.0</ele><time>2026-04-30T13:23:53.954Z</time></trkpt><trkpt lat="40.0629580780263" lon="9.613195893866997"><ele>710.0</ele><time>2026-04-30T13:23:54.954Z</time></trkpt><trkpt lat="40.062796281740574" lon="9.61324753871218"><ele>710.0</ele><time>2026-04-30T13:23:55.954Z</time></trkpt><trkpt lat="40.06262557705087" lon="9.613324832045663"><ele>710.0</ele><time>2026-04-30T13:23:56.954Z</time></trkpt><trkpt lat="40.06244151853634" lon="9.613357672613533"><ele>707.3333333333333</ele><time>2026-04-30T13:23:57.954Z</time></trkpt><trkpt lat="40.06224707608641" lon="9.613363463280123"><ele>704.6666666666666</ele><time>2026-04-30T13:23:58.954Z</time></trkpt><trkpt lat="40.06202907465989" lon="9.613348765875948"><ele>702.0</ele><time>2026-04-30T13:23:59.954Z</time></trkpt><trkpt lat="40.06181125252699" lon="9.61332466621902"><ele>704.6666666666666</ele><time>2026-04-30T13:24:00.954Z</time></trkpt><trkpt lat="40.0615986985172" lon="9.613285803412941"><ele>707.3333333333333</ele><time>2026-04-30T13:24:01.954Z</time></trkpt><trkpt lat="40.061410579451874" lon="9.613226832782932"><ele>710.0</ele><time>2026-04-30T13:24:02.954Z</time></trkpt><trkpt lat="40.06126274078774" lon="9.613179353470233"><ele>710.0</ele><time>2026-04-30T13:24:03.954Z</time></trkpt><trkpt lat="40.0611486661945" lon="9.613195954872083"><ele>710.0</ele><time>2026-04-30T13:24:04.954Z</time></trkpt><trkpt lat="40.061038708437316" lon="9.613314908003215"><ele>710.0</ele><time>2026-04-30T13:24:05.954Z</time></trkpt><trkpt lat="40.06092773478402" lon="9.61351950150404"><ele>710.0</ele><time>2026-04-30T13:24:06.954Z</time></trkpt><trkpt lat="40.060782841145745" lon="9.613699810404217"><ele>705.0</ele><time>2026-04-30T13:24:07.954Z</time></trkpt><trkpt lat="40.060640304805204" lon="9.61385626255747"><ele>700.0</ele><time>2026-04-30T13:24:08.954Z</time></trkpt><trkpt lat="40.06050434109772" lon="9.613985909935497"><ele>695.0</ele><time>2026-04-30T13:24:09.954Z</time></trkpt><trkpt lat="40.06037534783371" lon="9.614065031830972"><ele>695.0</ele><time>2026-04-30T13:24:10.954Z</time></trkpt><trkpt lat="40.06022496135678" lon="9.614077315365147"><ele>695.0</ele><time>2026-04-30T13:24:11.954Z</time></trkpt><trkpt lat="40.06006539154957" lon="9.614083345427801"><ele>695.0</ele><time>2026-04-30T13:24:12.954Z</time></trkpt><trkpt lat="40.05994991707137" lon="9.614134083125666"><ele>695.0</ele><time>2026-04-30T13:24:13.954Z</time></trkpt><trkpt lat="40.05983704710454" lon="9.614242306962343"><ele>692.3333333333333</ele><time>2026-04-30T13:24:14.954Z</time></trkpt><trkpt lat="40.059766470458875" lon="9.614431108826476"><ele>689.6666666666666</ele><time>2026-04-30T13:24:15.954Z</time></trkpt><trkpt lat="40.05965684581243" lon="9.61456914611091"><ele>687.0</ele><time>2026-04-30T13:24:16.954Z</time></trkpt><trkpt lat="40.05953905222934" lon="9.614686307932756"><ele>687.0</ele><time>2026-04-30T13:24:17.954Z</time></trkpt><trkpt lat="40.05939691764104" lon="9.614793860075"><ele>687.0</ele><time>2026-04-30T13:24:18.954Z</time></trkpt><trkpt lat="40.05925929835728" lon="9.614913086833203"><ele>687.0</ele><time>2026-04-30T13:24:19.953Z</time></trkpt><trkpt lat="40.059110447436346" lon="9.614975332415373"><ele>686.3333333333334</ele><time>2026-04-30T13:24:20.953Z</time></trkpt><trkpt lat="40.058945827043146" lon="9.614992694579467"><ele>685.6666666666667</ele><time>2026-04-30T13:24:21.953Z</time></trkpt><trkpt lat="40.05876622589477" lon="9.615033768959274"><ele>685.0</ele><time>2026-04-30T13:24:22.953Z</time></trkpt><trkpt lat="40.05857131027237" lon="9.615052606355043"><ele>685.0</ele><time>2026-04-30T13:24:23.953Z</time></trkpt><trkpt lat="40.05839051182345" lon="9.615070249106072"><ele>685.0</ele><time>2026-04-30T13:24:24.953Z</time></trkpt><trkpt lat="40.05823328290501" lon="9.615055388801439"><ele>685.0</ele><time>2026-04-30T13:24:25.953Z</time></trkpt><trkpt lat="40.05807556932553" lon="9.614980214859312"><ele>679.6666666666667</ele><time>2026-04-30T13:24:26.953Z</time></trkpt><trkpt lat="40.057917340700655" lon="9.614863895974056"><ele>674.3333333333334</ele><time>2026-04-30T13:24:27.953Z</time></trkpt><trkpt lat="40.05778258650729" lon="9.614715709466813"><ele>669.0</ele><time>2026-04-30T13:24:28.953Z</time></trkpt><trkpt lat="40.05766953831361" lon="9.614607166842788"><ele>669.0</ele><time>2026-04-30T13:24:29.953Z</time></trkpt><trkpt lat="40.057555439714086" lon="9.614569406317242"><ele>669.0</ele><time>2026-04-30T13:24:30.953Z</time></trkpt><trkpt lat="40.05743097298966" lon="9.614637978243431"><ele>669.0</ele><time>2026-04-30T13:24:31.953Z</time></trkpt><trkpt lat="40.05729602086128" lon="9.614740505600276"><ele>669.0</ele><time>2026-04-30T13:24:32.953Z</time></trkpt><trkpt lat="40.05715519330055" lon="9.614791826525416"><ele>666.3333333333334</ele><time>2026-04-30T13:24:33.953Z</time></trkpt><trkpt lat="40.05699875060249" lon="9.614798362604425"><ele>663.6666666666667</ele><time>2026-04-30T13:24:34.953Z</time></trkpt><trkpt lat="40.0568396467874" lon="9.614728359752762"><ele>661.0</ele><time>2026-04-30T13:24:35.953Z</time></trkpt><trkpt lat="40.05667812072473" lon="9.614660168083914"><ele>662.0</ele><time>2026-04-30T13:24:36.953Z</time></trkpt><trkpt lat="40.056530731954496" lon="9.6145518250942"><ele>663.0</ele><time>2026-04-30T13:24:37.953Z</time></trkpt><trkpt lat="40.05637834339053" lon="9.614496426901226"><ele>664.0</ele><time>2026-04-30T13:24:38.953Z</time></trkpt><trkpt lat="40.0562333617024" lon="9.614507466155164"><ele>664.0</ele><time>2026-04-30T13:24:39.953Z</time></trkpt><trkpt lat="40.05608224141218" lon="9.614603240359866"><ele>664.0</ele><time>2026-04-30T13:24:40.953Z</time></trkpt><trkpt lat="40.05591178418534" lon="9.61474508661426"><ele>664.0</ele><time>2026-04-30T13:24:41.953Z</time></trkpt><trkpt lat="40.05573914012862" lon="9.614849783570158"><ele>668.0</ele><time>2026-04-30T13:24:42.953Z</time></trkpt><trkpt lat="40.055554629383" lon="9.614978737503979"><ele>672.0</ele><time>2026-04-30T13:24:43.953Z</time></trkpt><trkpt lat="40.05538039249206" lon="9.615118850454396"><ele>676.0</ele><time>2026-04-30T13:24:44.953Z</time></trkpt><trkpt lat="40.05524495651951" lon="9.615226762932563"><ele>674.0</ele><time>2026-04-30T13:24:45.953Z</time></trkpt><trkpt lat="40.05513583437657" lon="9.61532143004152"><ele>672.0</ele><time>2026-04-30T13:24:46.953Z</time></trkpt><trkpt lat="40.055068713940955" lon="9.61539956731678"><ele>670.0</ele><time>2026-04-30T13:24:47.953Z</time></trkpt><trkpt lat="40.055036634508326" lon="9.615512063222312"><ele>668.0</ele><time>2026-04-30T13:24:48.953Z</time></trkpt><trkpt lat="40.05504544042474" lon="9.615658350064036"><ele>666.0</ele><time>2026-04-30T13:24:49.953Z</time></trkpt><trkpt lat="40.05515402608478" lon="9.615787667590912"><ele>666.0</ele><time>2026-04-30T13:24:50.953Z</time></trkpt><trkpt lat="40.055289748884185" lon="9.615872446502399"><ele>666.0</ele><time>2026-04-30T13:24:51.953Z</time></trkpt><trkpt lat="40.05541614568518" lon="9.615963125522377"><ele>666.0</ele><time>2026-04-30T13:24:52.953Z</time></trkpt><trkpt lat="40.05551355757148" lon="9.616080300155444"><ele>666.0</ele><time>2026-04-30T13:24:53.953Z</time></trkpt><trkpt lat="40.05558596598993" lon="9.616239855524887"><ele>669.0</ele><time>2026-04-30T13:24:54.953Z</time></trkpt><trkpt lat="40.05564105719097" lon="9.616464061018375"><ele>672.0</ele><time>2026-04-30T13:24:55.953Z</time></trkpt><trkpt lat="40.05572830248798" lon="9.61670065118911"><ele>675.0</ele><time>2026-04-30T13:24:56.953Z</time></trkpt><trkpt lat="40.05581279867846" lon="9.616895020403266"><ele>667.0</ele><time>2026-04-30T13:24:57.953Z</time></trkpt><trkpt lat="40.055870070985655" lon="9.617069389613256"><ele>659.0</ele><time>2026-04-30T13:24:58.953Z</time></trkpt><trkpt lat="40.05589424342059" lon="9.617269303582423"><ele>651.0</ele><time>2026-04-30T13:24:59.953Z</time></trkpt><trkpt lat="40.05590558507286" lon="9.617489543459659"><ele>651.0</ele><time>2026-04-30T13:25:00.952Z</time></trkpt><trkpt lat="40.055889814776705" lon="9.617715695045552"><ele>651.0</ele><time>2026-04-30T13:25:01.952Z</time></trkpt><trkpt lat="40.05583805687623" lon="9.61793545197187"><ele>651.0</ele><time>2026-04-30T13:25:02.952Z</time></trkpt><trkpt lat="40.05578168022879" lon="9.618184751984263"><ele>650.6666666666666</ele><time>2026-04-30T13:25:03.952Z</time></trkpt><trkpt lat="40.05573493219179" lon="9.618431412345751"><ele>650.3333333333333</ele><time>2026-04-30T13:25:04.952Z</time></trkpt><trkpt lat="40.05570558365051" lon="9.618661627770042"><ele>650.0</ele><time>2026-04-30T13:25:05.952Z</time></trkpt><trkpt lat="40.05570925654196" lon="9.618891272857995"><ele>647.6666666666666</ele><time>2026-04-30T13:25:06.952Z</time></trkpt><trkpt lat="40.05579147053401" lon="9.619080274032449"><ele>645.3333333333334</ele><time>2026-04-30T13:25:07.952Z</time></trkpt><trkpt lat="40.05587056709066" lon="9.619290433308494"><ele>643.0</ele><time>2026-04-30T13:25:08.952Z</time></trkpt><trkpt lat="40.055965031577465" lon="9.619488425405292"><ele>643.0</ele><time>2026-04-30T13:25:09.952Z</time></trkpt><trkpt lat="40.056034574519465" lon="9.619702550264606"><ele>643.0</ele><time>2026-04-30T13:25:10.952Z</time></trkpt><trkpt lat="40.05609061087366" lon="9.619946221605034"><ele>643.0</ele><time>2026-04-30T13:25:11.952Z</time></trkpt><trkpt lat="40.05614325902735" lon="9.62019769567882"><ele>643.0</ele><time>2026-04-30T13:25:12.952Z</time></trkpt><trkpt lat="40.05617520703623" lon="9.62045902707394"><ele>643.0</ele><time>2026-04-30T13:25:13.952Z</time></trkpt><trkpt lat="40.05620934054227" lon="9.620730060257218"><ele>643.0</ele><time>2026-04-30T13:25:14.952Z</time></trkpt><trkpt lat="40.05626095176317" lon="9.621003107797089"><ele>645.6666666666667</ele><time>2026-04-30T13:25:15.952Z</time></trkpt><trkpt lat="40.05634191439197" lon="9.621276703953614"><ele>648.3333333333334</ele><time>2026-04-30T13:25:16.952Z</time></trkpt><trkpt lat="40.05642251876338" lon="9.621521132755738"><ele>651.0</ele><time>2026-04-30T13:25:17.952Z</time></trkpt><trkpt lat="40.05649323259409" lon="9.621732301421835"><ele>651.0</ele><time>2026-04-30T13:25:18.953Z</time></trkpt><trkpt lat="40.056585637080175" lon="9.621894480808544"><ele>651.0</ele><time>2026-04-30T13:25:19.952Z</time></trkpt><trkpt lat="40.05668880695204" lon="9.622028006974528"><ele>651.0</ele><time>2026-04-30T13:25:20.952Z</time></trkpt><trkpt lat="40.05680209949872" lon="9.62212386142547"><ele>651.0</ele><time>2026-04-30T13:25:21.953Z</time></trkpt><trkpt lat="40.05686636601431" lon="9.622258537307824"><ele>643.0</ele><time>2026-04-30T13:25:22.953Z</time></trkpt><trkpt lat="40.05691054477953" lon="9.622424057885304"><ele>635.0</ele><time>2026-04-30T13:25:23.953Z</time></trkpt><trkpt lat="40.056914301002855" lon="9.622618717919217"><ele>627.0</ele><time>2026-04-30T13:25:24.953Z</time></trkpt><trkpt lat="40.0568827291657" lon="9.62284341624678"><ele>624.6666666666666</ele><time>2026-04-30T13:25:25.953Z</time></trkpt><trkpt lat="40.056824793154135" lon="9.623089451798982"><ele>622.3333333333333</ele><time>2026-04-30T13:25:26.953Z</time></trkpt><trkpt lat="40.05676984748204" lon="9.623341651090003"><ele>620.0</ele><time>2026-04-30T13:25:27.953Z</time></trkpt><trkpt lat="40.05675129431055" lon="9.623580077412797"><ele>617.3333333333333</ele><time>2026-04-30T13:25:28.953Z</time></trkpt><trkpt lat="40.05675359827143" lon="9.623802049586132"><ele>614.6666666666666</ele><time>2026-04-30T13:25:29.953Z</time></trkpt><trkpt lat="40.05674389647885" lon="9.623997884718522"><ele>612.0</ele><time>2026-04-30T13:25:30.953Z</time></trkpt><trkpt lat="40.056723108827036" lon="9.624201715611804"><ele>612.0</ele><time>2026-04-30T13:25:31.953Z</time></trkpt><trkpt lat="40.0566955451469" lon="9.624415493071952"><ele>612.0</ele><time>2026-04-30T13:25:32.953Z</time></trkpt><trkpt lat="40.05661428809918" lon="9.624603541632224"><ele>612.0</ele><time>2026-04-30T13:25:33.953Z</time></trkpt><trkpt lat="40.056519282883215" lon="9.624767662619062"><ele>607.6666666666666</ele><time>2026-04-30T13:25:34.953Z</time></trkpt><trkpt lat="40.056374078899985" lon="9.624876808221211"><ele>603.3333333333333</ele><time>2026-04-30T13:25:35.953Z</time></trkpt><trkpt lat="40.05623211774412" lon="9.624954831638659"><ele>599.0</ele><time>2026-04-30T13:25:36.953Z</time></trkpt><trkpt lat="40.05608157719" lon="9.624990018158922"><ele>599.0</ele><time>2026-04-30T13:25:37.953Z</time></trkpt><trkpt lat="40.05591158512829" lon="9.624983391305738"><ele>599.0</ele><time>2026-04-30T13:25:38.953Z</time></trkpt><trkpt lat="40.055755939120274" lon="9.624959253371198"><ele>599.0</ele><time>2026-04-30T13:25:39.953Z</time></trkpt><trkpt lat="40.05563362927626" lon="9.624902862708153"><ele>597.75</ele><time>2026-04-30T13:25:40.953Z</time></trkpt><trkpt lat="40.05551810961689" lon="9.6247822483695"><ele>596.5</ele><time>2026-04-30T13:25:41.953Z</time></trkpt><trkpt lat="40.055398133948444" lon="9.624689081186457"><ele>595.25</ele><time>2026-04-30T13:25:42.953Z</time></trkpt><trkpt lat="40.055246461130494" lon="9.624668382155676"><ele>594.0</ele><time>2026-04-30T13:25:43.953Z</time></trkpt><trkpt lat="40.055084766558075" lon="9.624720935967325"><ele>589.6666666666666</ele><time>2026-04-30T13:25:44.953Z</time></trkpt><trkpt lat="40.05494069779042" lon="9.6248437919718"><ele>585.3333333333333</ele><time>2026-04-30T13:25:45.953Z</time></trkpt><trkpt lat="40.054807314387276" lon="9.625029187337214"><ele>581.0</ele><time>2026-04-30T13:25:46.953Z</time></trkpt><trkpt lat="40.054706918652535" lon="9.625225182190093"><ele>579.0</ele><time>2026-04-30T13:25:47.953Z</time></trkpt><trkpt lat="40.05463137461391" lon="9.625367180172475"><ele>577.0</ele><time>2026-04-30T13:25:48.953Z</time></trkpt><trkpt lat="40.05457798333247" lon="9.625488694294488"><ele>575.0</ele><time>2026-04-30T13:25:49.952Z</time></trkpt><trkpt lat="40.054539877733916" lon="9.625634723358916"><ele>573.0</ele><time>2026-04-30T13:25:50.952Z</time></trkpt><trkpt lat="40.054503893758316" lon="9.625784914252977"><ele>573.0</ele><time>2026-04-30T13:25:51.952Z</time></trkpt><trkpt lat="40.054464930886475" lon="9.625925028252894"><ele>573.0</ele><time>2026-04-30T13:25:52.952Z</time></trkpt><trkpt lat="40.05441951880726" lon="9.626072058445255"><ele>573.0</ele><time>2026-04-30T13:25:53.952Z</time></trkpt><trkpt lat="40.05437467438982" lon="9.626230256067581"><ele>573.0</ele><time>2026-04-30T13:25:54.952Z</time></trkpt><trkpt lat="40.054341315481025" lon="9.626408826392739"><ele>572.6666666666666</ele><time>2026-04-30T13:25:55.952Z</time></trkpt><trkpt lat="40.054332769146704" lon="9.626610906063847"><ele>572.3333333333333</ele><time>2026-04-30T13:25:56.952Z</time></trkpt><trkpt lat="40.0543757756137" lon="9.626812265675971"><ele>572.0</ele><time>2026-04-30T13:25:57.952Z</time></trkpt><trkpt lat="40.054425155228486" lon="9.626979927765607"><ele>572.0</ele><time>2026-04-30T13:25:58.952Z</time></trkpt><trkpt lat="40.05443825362773" lon="9.627153094984385"><ele>572.0</ele><time>2026-04-30T13:25:59.952Z</time></trkpt><trkpt lat="40.054402420008955" lon="9.627347255159139"><ele>572.0</ele><time>2026-04-30T13:26:00.952Z</time></trkpt><trkpt lat="40.054337696329796" lon="9.627534142247049"><ele>572.0</ele><time>2026-04-30T13:26:01.952Z</time></trkpt><trkpt lat="40.05426489194368" lon="9.627704792467826"><ele>577.3333333333333</ele><time>2026-04-30T13:26:02.952Z</time></trkpt><trkpt lat="40.05416825037964" lon="9.627873066390361"><ele>582.6666666666666</ele><time>2026-04-30T13:26:03.952Z</time></trkpt><trkpt lat="40.05405357409791" lon="9.62801987677272"><ele>588.0</ele><time>2026-04-30T13:26:04.952Z</time></trkpt><trkpt lat="40.053920922748134" lon="9.628125793455416"><ele>579.0</ele><time>2026-04-30T13:26:05.952Z</time></trkpt><trkpt lat="40.05379952452441" lon="9.628193947470919"><ele>570.0</ele><time>2026-04-30T13:26:06.952Z</time></trkpt><trkpt lat="40.05370253186093" lon="9.628277137397749"><ele>561.0</ele><time>2026-04-30T13:26:07.952Z</time></trkpt><trkpt lat="40.05364301322845" lon="9.628405496734128"><ele>552.0</ele><time>2026-04-30T13:26:08.952Z</time></trkpt><trkpt lat="40.053632297418204" lon="9.62855581046623"><ele>552.0</ele><time>2026-04-30T13:26:09.952Z</time></trkpt><trkpt lat="40.05366199993984" lon="9.62872650352805"><ele>552.0</ele><time>2026-04-30T13:26:10.952Z</time></trkpt><trkpt lat="40.05371107816278" lon="9.628907244919535"><ele>552.0</ele><time>2026-04-30T13:26:11.952Z</time></trkpt><trkpt lat="40.0537484334487" lon="9.629122230313337"><ele>552.0</ele><time>2026-04-30T13:26:12.952Z</time></trkpt><trkpt lat="40.05373375440664" lon="9.629351687361247"><ele>552.0</ele><time>2026-04-30T13:26:13.952Z</time></trkpt><trkpt lat="40.05370075197729" lon="9.62958779756511"><ele>552.0</ele><time>2026-04-30T13:26:14.952Z</time></trkpt><trkpt lat="40.05364347819123" lon="9.629835952087063"><ele>552.6666666666666</ele><time>2026-04-30T13:26:15.952Z</time></trkpt><trkpt lat="40.053588567754545" lon="9.630080982784882"><ele>553.3333333333333</ele><time>2026-04-30T13:26:16.952Z</time></trkpt><trkpt lat="40.05355707445202" lon="9.630320641652155"><ele>554.0</ele><time>2026-04-30T13:26:17.952Z</time></trkpt><trkpt lat="40.0535409525029" lon="9.630539279528822"><ele>557.3333333333333</ele><time>2026-04-30T13:26:18.952Z</time></trkpt><trkpt lat="40.05349764603861" lon="9.630740708505366"><ele>560.6666666666666</ele><time>2026-04-30T13:26:19.952Z</time></trkpt><trkpt lat="40.05339380561173" lon="9.6309050477908"><ele>564.0</ele><time>2026-04-30T13:26:20.952Z</time></trkpt><trkpt lat="40.053267566799654" lon="9.6310493286469"><ele>554.3333333333334</ele><time>2026-04-30T13:26:21.952Z</time></trkpt><trkpt lat="40.05316235709169" lon="9.631223877714351"><ele>544.6666666666667</ele><time>2026-04-30T13:26:22.952Z</time></trkpt><trkpt lat="40.05308320180384" lon="9.631445634152428"><ele>535.0</ele><time>2026-04-30T13:26:23.952Z</time></trkpt><trkpt lat="40.0530218124107" lon="9.631685759781528"><ele>535.0</ele><time>2026-04-30T13:26:24.952Z</time></trkpt><trkpt lat="40.05295731933856" lon="9.631910105530665"><ele>535.0</ele><time>2026-04-30T13:26:25.952Z</time></trkpt><trkpt lat="40.052869157594166" lon="9.632099456195942"><ele>535.0</ele><time>2026-04-30T13:26:26.952Z</time></trkpt><trkpt lat="40.052738449919275" lon="9.632265790800092"><ele>535.6666666666667</ele><time>2026-04-30T13:26:27.952Z</time></trkpt><trkpt lat="40.05258798478181" lon="9.632419703457343"><ele>536.3333333333334</ele><time>2026-04-30T13:26:28.952Z</time></trkpt><trkpt lat="40.052446860864606" lon="9.632588408574351"><ele>537.0</ele><time>2026-04-30T13:26:29.952Z</time></trkpt><trkpt lat="40.05231557785621" lon="9.632761178055475"><ele>541.3333333333334</ele><time>2026-04-30T13:26:30.952Z</time></trkpt><trkpt lat="40.05219335290078" lon="9.632919095533788"><ele>545.6666666666667</ele><time>2026-04-30T13:26:31.952Z</time></trkpt><trkpt lat="40.05209662987139" lon="9.633079253168097"><ele>550.0</ele><time>2026-04-30T13:26:32.951Z</time></trkpt><trkpt lat="40.05202497882843" lon="9.633266008234644"><ele>550.0</ele><time>2026-04-30T13:26:33.951Z</time></trkpt><trkpt lat="40.051980536483896" lon="9.633482298936471"><ele>550.0</ele><time>2026-04-30T13:26:34.951Z</time></trkpt><trkpt lat="40.05194948363353" lon="9.633690333808563"><ele>550.0</ele><time>2026-04-30T13:26:35.951Z</time></trkpt><trkpt lat="40.051925010418266" lon="9.63390144547737"><ele>550.0</ele><time>2026-04-30T13:26:36.951Z</time></trkpt><trkpt lat="40.0519289883321" lon="9.634113787982722"><ele>550.0</ele><time>2026-04-30T13:26:37.951Z</time></trkpt><trkpt lat="40.05197345297998" lon="9.634324254108387"><ele>550.0</ele><time>2026-04-30T13:26:38.951Z</time></trkpt><trkpt lat="40.05204989650436" lon="9.634511940473947"><ele>547.6</ele><time>2026-04-30T13:26:39.951Z</time></trkpt><trkpt lat="40.0521350326191" lon="9.63466940183183"><ele>545.2</ele><time>2026-04-30T13:26:40.951Z</time></trkpt><trkpt lat="40.05220183580205" lon="9.634798616263852"><ele>542.8</ele><time>2026-04-30T13:26:41.951Z</time></trkpt><trkpt lat="40.052226979275346" lon="9.634921698679712"><ele>540.4</ele><time>2026-04-30T13:26:42.951Z</time></trkpt><trkpt lat="40.05219244012005" lon="9.635021131650328"><ele>538.0</ele><time>2026-04-30T13:26:43.951Z</time></trkpt><trkpt lat="40.05211245270929" lon="9.635091859380783"><ele>538.0</ele><time>2026-04-30T13:26:44.951Z</time></trkpt><trkpt lat="40.0520035998237" lon="9.635141793177132"><ele>538.0</ele><time>2026-04-30T13:26:45.951Z</time></trkpt><trkpt lat="40.051907052984276" lon="9.635214179261462"><ele>538.0</ele><time>2026-04-30T13:26:46.951Z</time></trkpt><trkpt lat="40.051844181962494" lon="9.635321530083448"><ele>538.0</ele><time>2026-04-30T13:26:47.951Z</time></trkpt><trkpt lat="40.051849517294634" lon="9.635477723780294"><ele>537.25</ele><time>2026-04-30T13:26:48.951Z</time></trkpt><trkpt lat="40.05191186887069" lon="9.635639564625414"><ele>536.5</ele><time>2026-04-30T13:26:49.951Z</time></trkpt><trkpt lat="40.052007680898136" lon="9.635790829783112"><ele>535.75</ele><time>2026-04-30T13:26:50.951Z</time></trkpt><trkpt lat="40.05211239692289" lon="9.635937826228655"><ele>535.0</ele><time>2026-04-30T13:26:51.951Z</time></trkpt><trkpt lat="40.05217136935951" lon="9.636070165963408"><ele>536.25</ele><time>2026-04-30T13:26:52.951Z</time></trkpt><trkpt lat="40.05217272068973" lon="9.636200393660562"><ele>537.5</ele><time>2026-04-30T13:26:53.951Z</time></trkpt><trkpt lat="40.052100416321075" lon="9.636308861967082"><ele>538.75</ele><time>2026-04-30T13:26:54.951Z</time></trkpt><trkpt lat="40.051996197704014" lon="9.636411199149409"><ele>540.0</ele><time>2026-04-30T13:26:55.951Z</time></trkpt><trkpt lat="40.051888401297845" lon="9.636569548570739"><ele>540.0</ele><time>2026-04-30T13:26:56.951Z</time></trkpt><trkpt lat="40.05179349652503" lon="9.636779111514175"><ele>540.0</ele><time>2026-04-30T13:26:57.951Z</time></trkpt><trkpt lat="40.05173982528309" lon="9.637015333147401"><ele>540.0</ele><time>2026-04-30T13:26:58.951Z</time></trkpt><trkpt lat="40.051727593044035" lon="9.637248704553084"><ele>544.0</ele><time>2026-04-30T13:26:59.951Z</time></trkpt><trkpt lat="40.05171030207126" lon="9.637455617628735"><ele>548.0</ele><time>2026-04-30T13:27:00.951Z</time></trkpt><trkpt lat="40.05164062879104" lon="9.637637735113584"><ele>552.0</ele><time>2026-04-30T13:27:01.951Z</time></trkpt><trkpt lat="40.05152961520832" lon="9.637796825597686"><ele>543.25</ele><time>2026-04-30T13:27:02.951Z</time></trkpt><trkpt lat="40.051411583409966" lon="9.637917225345397"><ele>534.5</ele><time>2026-04-30T13:27:03.951Z</time></trkpt><trkpt lat="40.05130226849005" lon="9.638028024859125"><ele>525.75</ele><time>2026-04-30T13:27:04.951Z</time></trkpt><trkpt lat="40.051208478036926" lon="9.638167631208326"><ele>517.0</ele><time>2026-04-30T13:27:05.951Z</time></trkpt><trkpt lat="40.051134006819325" lon="9.638362890070413"><ele>517.0</ele><time>2026-04-30T13:27:06.951Z</time></trkpt><trkpt lat="40.051061488767644" lon="9.638578182523561"><ele>517.0</ele><time>2026-04-30T13:27:07.951Z</time></trkpt><trkpt lat="40.05098419502738" lon="9.63879826675815"><ele>517.0</ele><time>2026-04-30T13:27:08.951Z</time></trkpt><trkpt lat="40.050907811679856" lon="9.639006877366056"><ele>523.25</ele><time>2026-04-30T13:27:09.951Z</time></trkpt><trkpt lat="40.050839188449196" lon="9.639177383855625"><ele>529.5</ele><time>2026-04-30T13:27:10.951Z</time></trkpt><trkpt lat="40.05077758895472" lon="9.639338253356025"><ele>535.75</ele><time>2026-04-30T13:27:11.951Z</time></trkpt><trkpt lat="40.050736629259035" lon="9.63950504245681"><ele>542.0</ele><time>2026-04-30T13:27:12.951Z</time></trkpt><trkpt lat="40.05072022831966" lon="9.6397007754432"><ele>525.6666666666666</ele><time>2026-04-30T13:27:13.951Z</time></trkpt><trkpt lat="40.05072037638438" lon="9.639926046045307"><ele>509.33333333333337</ele><time>2026-04-30T13:27:14.95Z</time></trkpt><trkpt lat="40.050721440557865" lon="9.640173154923596"><ele>493.0</ele><time>2026-04-30T13:27:15.95Z</time></trkpt><trkpt lat="40.05071830112797" lon="9.640436046065167"><ele>493.0</ele><time>2026-04-30T13:27:16.95Z</time></trkpt><trkpt lat="40.05070748980018" lon="9.640710810187947"><ele>493.0</ele><time>2026-04-30T13:27:17.95Z</time></trkpt><trkpt lat="40.05068212023586" lon="9.640989895898208"><ele>493.0</ele><time>2026-04-30T13:27:18.95Z</time></trkpt><trkpt lat="40.05066206178854" lon="9.641282410010731"><ele>495.0</ele><time>2026-04-30T13:27:19.95Z</time></trkpt><trkpt lat="40.05065539559942" lon="9.641577679321657"><ele>497.0</ele><time>2026-04-30T13:27:20.95Z</time></trkpt><trkpt lat="40.05064512456956" lon="9.641850804223035"><ele>499.0</ele><time>2026-04-30T13:27:21.95Z</time></trkpt><trkpt lat="40.05063099311184" lon="9.64210345762144"><ele>501.6666666666667</ele><time>2026-04-30T13:27:22.95Z</time></trkpt><trkpt lat="40.05059335665083" lon="9.642355941322737"><ele>504.33333333333337</ele><time>2026-04-30T13:27:23.95Z</time></trkpt><trkpt lat="40.05052523964173" lon="9.642580161900927"><ele>507.0</ele><time>2026-04-30T13:27:24.952Z</time></trkpt><trkpt lat="40.05045023573071" lon="9.642813838927811"><ele>512.3333333333334</ele><time>2026-04-30T13:27:25.952Z</time></trkpt><trkpt lat="40.05038237651657" lon="9.643054136602004"><ele>517.6666666666667</ele><time>2026-04-30T13:27:26.952Z</time></trkpt><trkpt lat="40.05031746296833" lon="9.643291208155588"><ele>523.0</ele><time>2026-04-30T13:27:27.952Z</time></trkpt><trkpt lat="40.0502559704988" lon="9.643516980450416"><ele>529.0</ele><time>2026-04-30T13:27:28.951Z</time></trkpt><trkpt lat="40.05017511576351" lon="9.643720846394125"><ele>535.0</ele><time>2026-04-30T13:27:29.951Z</time></trkpt><trkpt lat="40.05007078491365" lon="9.643915498382944"><ele>541.0</ele><time>2026-04-30T13:27:30.952Z</time></trkpt><trkpt lat="40.04993726934141" lon="9.644109017519934"><ele>532.3333333333334</ele><time>2026-04-30T13:27:31.951Z</time></trkpt><trkpt lat="40.04979824548382" lon="9.644318779459434"><ele>523.6666666666666</ele><time>2026-04-30T13:27:32.951Z</time></trkpt><trkpt lat="40.04965713444521" lon="9.644554881552324"><ele>515.0</ele><time>2026-04-30T13:27:33.952Z</time></trkpt><trkpt lat="40.04951405152269" lon="9.644806345372205"><ele>515.0</ele><time>2026-04-30T13:27:34.951Z</time></trkpt><trkpt lat="40.04936568418055" lon="9.64506371911425"><ele>515.0</ele><time>2026-04-30T13:27:35.951Z</time></trkpt><trkpt lat="40.04921309542457" lon="9.64532633583333"><ele>503.5</ele><time>2026-04-30T13:27:36.951Z</time></trkpt><trkpt lat="40.04906261985407" lon="9.645595877480767"><ele>492.0</ele><time>2026-04-30T13:27:37.951Z</time></trkpt><trkpt lat="40.04890416477648" lon="9.645864702218391"><ele>504.5</ele><time>2026-04-30T13:27:38.951Z</time></trkpt><trkpt lat="40.04875433569601" lon="9.646140568804075"><ele>517.0</ele><time>2026-04-30T13:27:39.951Z</time></trkpt><trkpt lat="40.04861196850263" lon="9.646404524016802"><ele>517.0</ele><time>2026-04-30T13:27:40.951Z</time></trkpt><trkpt lat="40.04848534250509" lon="9.646653043217714"><ele>517.0</ele><time>2026-04-30T13:27:41.951Z</time></trkpt><trkpt lat="40.048361854039285" lon="9.646877164233478"><ele>517.0</ele><time>2026-04-30T13:27:42.951Z</time></trkpt><trkpt lat="40.04824645833761" lon="9.647083624790728"><ele>503.0</ele><time>2026-04-30T13:27:43.951Z</time></trkpt><trkpt lat="40.04814284195784" lon="9.647265120668957"><ele>489.0</ele><time>2026-04-30T13:27:44.951Z</time></trkpt><trkpt lat="40.04805287936518" lon="9.647439218645614"><ele>475.0</ele><time>2026-04-30T13:27:45.951Z</time></trkpt><trkpt lat="40.04798280271693" lon="9.647633505465643"><ele>481.0</ele><time>2026-04-30T13:27:46.951Z</time></trkpt><trkpt lat="40.047942202867446" lon="9.647870421169767"><ele>487.0</ele><time>2026-04-30T13:27:47.951Z</time></trkpt><trkpt lat="40.047913620994834" lon="9.64812714432329"><ele>493.0</ele><time>2026-04-30T13:27:48.951Z</time></trkpt><trkpt lat="40.04786583087577" lon="9.648372187136687"><ele>493.0</ele><time>2026-04-30T13:27:49.951Z</time></trkpt><trkpt lat="40.04779877536145" lon="9.64859696029892"><ele>493.0</ele><time>2026-04-30T13:27:50.951Z</time></trkpt><trkpt lat="40.04771551250566" lon="9.648791168041154"><ele>493.0</ele><time>2026-04-30T13:27:51.951Z</time></trkpt><trkpt lat="40.04761939630477" lon="9.648952252493611"><ele>490.6666666666667</ele><time>2026-04-30T13:27:52.951Z</time></trkpt><trkpt lat="40.047496930895946" lon="9.649070263238348"><ele>488.33333333333337</ele><time>2026-04-30T13:27:53.951Z</time></trkpt><trkpt lat="40.047352736989986" lon="9.649136930128764"><ele>486.0</ele><time>2026-04-30T13:27:54.951Z</time></trkpt><trkpt lat="40.04719258395498" lon="9.649196124075193"><ele>486.0</ele><time>2026-04-30T13:27:55.951Z</time></trkpt><trkpt lat="40.047040546957994" lon="9.649312800921876"><ele>486.0</ele><time>2026-04-30T13:27:56.951Z</time></trkpt><trkpt lat="40.04689860208214" lon="9.6494937958158"><ele>486.0</ele><time>2026-04-30T13:27:57.951Z</time></trkpt><trkpt lat="40.04676781873379" lon="9.649710911076582"><ele>488.66666666666663</ele><time>2026-04-30T13:27:58.951Z</time></trkpt><trkpt lat="40.04662450391744" lon="9.649926491135414"><ele>491.3333333333333</ele><time>2026-04-30T13:27:59.951Z</time></trkpt><trkpt lat="40.04647325971514" lon="9.650150012166158"><ele>494.0</ele><time>2026-04-30T13:28:00.951Z</time></trkpt><trkpt lat="40.04631927868329" lon="9.650389123806155"><ele>494.0</ele><time>2026-04-30T13:28:01.951Z</time></trkpt><trkpt lat="40.046161773325075" lon="9.650624696274718"><ele>494.0</ele><time>2026-04-30T13:28:02.95Z</time></trkpt><trkpt lat="40.04599995426144" lon="9.650845751106655"><ele>494.0</ele><time>2026-04-30T13:28:03.95Z</time></trkpt><trkpt lat="40.04584561409676" lon="9.651069058471181"><ele>494.0</ele><time>2026-04-30T13:28:04.95Z</time></trkpt><trkpt lat="40.045694600284534" lon="9.651294165149801"><ele>484.0</ele><time>2026-04-30T13:28:05.95Z</time></trkpt><trkpt lat="40.04555695198121" lon="9.651537464213959"><ele>474.0</ele><time>2026-04-30T13:28:06.95Z</time></trkpt><trkpt lat="40.04543253223327" lon="9.651805851561637"><ele>482.5</ele><time>2026-04-30T13:28:07.95Z</time></trkpt><trkpt lat="40.045318515248184" lon="9.652095146782871"><ele>491.0</ele><time>2026-04-30T13:28:08.95Z</time></trkpt><trkpt lat="40.045201271308734" lon="9.652387774750622"><ele>491.0</ele><time>2026-04-30T13:28:09.95Z</time></trkpt><trkpt lat="40.04507485900415" lon="9.652686704870215"><ele>491.0</ele><time>2026-04-30T13:28:10.95Z</time></trkpt><trkpt lat="40.044936374260864" lon="9.652982701257152"><ele>483.0</ele><time>2026-04-30T13:28:11.95Z</time></trkpt><trkpt lat="40.0447892955503" lon="9.653272940830856"><ele>475.0</ele><time>2026-04-30T13:28:12.95Z</time></trkpt><trkpt lat="40.04464756512092" lon="9.653552099123734"><ele>488.5</ele><time>2026-04-30T13:28:13.95Z</time></trkpt><trkpt lat="40.04451114183343" lon="9.653814991556546"><ele>502.0</ele><time>2026-04-30T13:28:14.95Z</time></trkpt><trkpt lat="40.04436841767701" lon="9.654052534845135"><ele>502.0</ele><time>2026-04-30T13:28:15.95Z</time></trkpt><trkpt lat="40.044216976606904" lon="9.6542745660691"><ele>502.0</ele><time>2026-04-30T13:28:16.95Z</time></trkpt><trkpt lat="40.04403774643991" lon="9.654456650710667"><ele>500.0</ele><time>2026-04-30T13:28:17.95Z</time></trkpt><trkpt lat="40.04382412960563" lon="9.65459526200609"><ele>498.0</ele><time>2026-04-30T13:28:18.95Z</time></trkpt><trkpt lat="40.04361933101227" lon="9.654747642340215"><ele>498.0</ele><time>2026-04-30T13:28:19.95Z</time></trkpt><trkpt lat="40.04341559890681" lon="9.654887977980348"><ele>498.0</ele><time>2026-04-30T13:28:20.95Z</time></trkpt><trkpt lat="40.04323401460684" lon="9.655018112649534"><ele>498.0</ele><time>2026-04-30T13:28:21.95Z</time></trkpt><trkpt lat="40.043069881087" lon="9.655131235857127"><ele>499.0</ele><time>2026-04-30T13:28:22.95Z</time></trkpt><trkpt lat="40.042899852720865" lon="9.655230731067281"><ele>500.0</ele><time>2026-04-30T13:28:23.95Z</time></trkpt><trkpt lat="40.04274168522865" lon="9.655352340144745"><ele>501.0</ele><time>2026-04-30T13:28:24.95Z</time></trkpt><trkpt lat="40.04259443277683" lon="9.655478057926056"><ele>501.0</ele><time>2026-04-30T13:28:25.95Z</time></trkpt><trkpt lat="40.042475651904965" lon="9.655637233079394"><ele>501.0</ele><time>2026-04-30T13:28:26.95Z</time></trkpt><trkpt lat="40.04238732714722" lon="9.655831008105105"><ele>501.0</ele><time>2026-04-30T13:28:27.95Z</time></trkpt><trkpt lat="40.042290551879546" lon="9.656042598114594"><ele>501.66666666666663</ele><time>2026-04-30T13:28:28.95Z</time></trkpt><trkpt lat="40.04215590406809" lon="9.656179513471638"><ele>502.3333333333333</ele><time>2026-04-30T13:28:29.95Z</time></trkpt><trkpt lat="40.04200171759417" lon="9.656257998939456"><ele>503.0</ele><time>2026-04-30T13:28:30.95Z</time></trkpt><trkpt lat="40.04184384395316" lon="9.656297775527172"><ele>503.0</ele><time>2026-04-30T13:28:31.95Z</time></trkpt><trkpt lat="40.04167060671957" lon="9.656355127615713"><ele>503.0</ele><time>2026-04-30T13:28:32.95Z</time></trkpt><trkpt lat="40.04149601894226" lon="9.65644946051543"><ele>503.0</ele><time>2026-04-30T13:28:33.95Z</time></trkpt><trkpt lat="40.041319402419376" lon="9.6565671272911"><ele>501.3333333333333</ele><time>2026-04-30T13:28:34.95Z</time></trkpt><trkpt lat="40.041138043395115" lon="9.6567120883122"><ele>499.66666666666663</ele><time>2026-04-30T13:28:35.95Z</time></trkpt><trkpt lat="40.04094681473901" lon="9.65684604966914"><ele>498.0</ele><time>2026-04-30T13:28:36.95Z</time></trkpt><trkpt lat="40.04075939330719" lon="9.656988720616571"><ele>498.0</ele><time>2026-04-30T13:28:37.95Z</time></trkpt><trkpt lat="40.04056463538321" lon="9.65712910952938"><ele>498.0</ele><time>2026-04-30T13:28:38.95Z</time></trkpt><trkpt lat="40.04038030539491" lon="9.657276658055668"><ele>498.0</ele><time>2026-04-30T13:28:39.95Z</time></trkpt><trkpt lat="40.04022424794624" lon="9.657420610021404"><ele>498.0</ele><time>2026-04-30T13:28:40.95Z</time></trkpt><trkpt lat="40.04006697197687" lon="9.657530958803147"><ele>498.0</ele><time>2026-04-30T13:28:41.95Z</time></trkpt><trkpt lat="40.03989361966593" lon="9.657602558573512"><ele>498.0</ele><time>2026-04-30T13:28:42.95Z</time></trkpt><trkpt lat="40.03970482398025" lon="9.657652914895243"><ele>492.33333333333337</ele><time>2026-04-30T13:28:43.95Z</time></trkpt><trkpt lat="40.03951380628054" lon="9.657710040123524"><ele>486.6666666666667</ele><time>2026-04-30T13:28:44.95Z</time></trkpt><trkpt lat="40.039333491234615" lon="9.657782695767727"><ele>481.0</ele><time>2026-04-30T13:28:45.95Z</time></trkpt><trkpt lat="40.03916452080047" lon="9.65786471650837"><ele>491.33333333333337</ele><time>2026-04-30T13:28:46.949Z</time></trkpt><trkpt lat="40.038995707414976" lon="9.65793180151141"><ele>501.66666666666663</ele><time>2026-04-30T13:28:47.949Z</time></trkpt><trkpt lat="40.03884161474901" lon="9.658000502932623"><ele>512.0</ele><time>2026-04-30T13:28:48.949Z</time></trkpt><trkpt lat="40.03868133212878" lon="9.6580548356711"><ele>512.0</ele><time>2026-04-30T13:28:49.949Z</time></trkpt><trkpt lat="40.038506213976795" lon="9.658036195848592"><ele>512.0</ele><time>2026-04-30T13:28:50.949Z</time></trkpt><trkpt lat="40.03833324746043" lon="9.658061890476015"><ele>512.0</ele><time>2026-04-30T13:28:51.949Z</time></trkpt><trkpt lat="40.038173837681754" lon="9.658098226625778"><ele>508.5</ele><time>2026-04-30T13:28:52.949Z</time></trkpt><trkpt lat="40.03802761407161" lon="9.658148079365645"><ele>505.0</ele><time>2026-04-30T13:28:53.949Z</time></trkpt><trkpt lat="40.037877825318745" lon="9.658169839559557"><ele>501.5</ele><time>2026-04-30T13:28:54.949Z</time></trkpt><trkpt lat="40.037737112627426" lon="9.658171188681216"><ele>498.0</ele><time>2026-04-30T13:28:55.949Z</time></trkpt><trkpt lat="40.03760717922734" lon="9.658109962017457"><ele>498.0</ele><time>2026-04-30T13:28:56.949Z</time></trkpt><trkpt lat="40.0374783073465" lon="9.658101842767135"><ele>498.0</ele><time>2026-04-30T13:28:57.949Z</time></trkpt><trkpt lat="40.03735313869468" lon="9.658130194588995"><ele>498.0</ele><time>2026-04-30T13:28:58.949Z</time></trkpt><trkpt lat="40.037245596256064" lon="9.658155402752678"><ele>498.0</ele><time>2026-04-30T13:28:59.949Z</time></trkpt><trkpt lat="40.037139440613494" lon="9.658182576234523"><ele>497.59999999999997</ele><time>2026-04-30T13:29:00.949Z</time></trkpt><trkpt lat="40.037035767266154" lon="9.65818722185784"><ele>497.19999999999993</ele><time>2026-04-30T13:29:01.949Z</time></trkpt><trkpt lat="40.03693216935406" lon="9.658162252900452"><ele>496.8</ele><time>2026-04-30T13:29:02.949Z</time></trkpt><trkpt lat="40.03681278158337" lon="9.658189624046612"><ele>496.4</ele><time>2026-04-30T13:29:03.949Z</time></trkpt><trkpt lat="40.03670767006948" lon="9.658149232596411"><ele>496.0</ele><time>2026-04-30T13:29:04.949Z</time></trkpt><trkpt lat="40.036593756413026" lon="9.65810824837225"><ele>493.0</ele><time>2026-04-30T13:29:05.949Z</time></trkpt><trkpt lat="40.036479551696345" lon="9.65811146513542"><ele>490.0</ele><time>2026-04-30T13:29:06.949Z</time></trkpt><trkpt lat="40.03637139139754" lon="9.658158827791594"><ele>487.0</ele><time>2026-04-30T13:29:07.949Z</time></trkpt><trkpt lat="40.03624377805623" lon="9.65820760927871"><ele>484.0</ele><time>2026-04-30T13:29:08.949Z</time></trkpt><trkpt lat="40.03613728553843" lon="9.658278256845145"><ele>484.0</ele><time>2026-04-30T13:29:09.949Z</time></trkpt><trkpt lat="40.03603439122325" lon="9.65837571155336"><ele>484.0</ele><time>2026-04-30T13:29:10.949Z</time></trkpt><trkpt lat="40.035936247109866" lon="9.6584536394507"><ele>484.0</ele><time>2026-04-30T13:29:11.949Z</time></trkpt><trkpt lat="40.03585647329375" lon="9.658550809992086"><ele>484.0</ele><time>2026-04-30T13:29:12.949Z</time></trkpt><trkpt lat="40.03579254144005" lon="9.658685918917472"><ele>478.75</ele><time>2026-04-30T13:29:13.949Z</time></trkpt><trkpt lat="40.035737500467725" lon="9.658848105363226"><ele>473.5</ele><time>2026-04-30T13:29:14.949Z</time></trkpt><trkpt lat="40.035679144980705" lon="9.659021366098253"><ele>468.25</ele><time>2026-04-30T13:29:15.949Z</time></trkpt><trkpt lat="40.03562059172533" lon="9.659189072826226"><ele>463.0</ele><time>2026-04-30T13:29:16.949Z</time></trkpt><trkpt lat="40.03556460693351" lon="9.659337286919168"><ele>467.5</ele><time>2026-04-30T13:29:17.949Z</time></trkpt><trkpt lat="40.03550836642412" lon="9.65947528766992"><ele>472.0</ele><time>2026-04-30T13:29:18.949Z</time></trkpt><trkpt lat="40.035448005619244" lon="9.659608361681851"><ele>476.5</ele><time>2026-04-30T13:29:19.949Z</time></trkpt><trkpt lat="40.03538173499871" lon="9.65973797825989"><ele>481.0</ele><time>2026-04-30T13:29:20.949Z</time></trkpt><trkpt lat="40.035287178249106" lon="9.659861654693122"><ele>481.0</ele><time>2026-04-30T13:29:21.949Z</time></trkpt><trkpt lat="40.03518189437089" lon="9.659983384532017"><ele>481.0</ele><time>2026-04-30T13:29:22.949Z</time></trkpt><trkpt lat="40.03507993959251" lon="9.660108989376294"><ele>481.0</ele><time>2026-04-30T13:29:23.949Z</time></trkpt><trkpt lat="40.0349812643684" lon="9.66023663462148"><ele>481.0</ele><time>2026-04-30T13:29:24.949Z</time></trkpt><trkpt lat="40.034885489951" lon="9.660355271717052"><ele>481.25</ele><time>2026-04-30T13:29:25.949Z</time></trkpt><trkpt lat="40.0347881814358" lon="9.660470073166355"><ele>481.5</ele><time>2026-04-30T13:29:26.949Z</time></trkpt><trkpt lat="40.03469364328647" lon="9.660583215409256"><ele>481.75</ele><time>2026-04-30T13:29:27.949Z</time></trkpt><trkpt lat="40.034593730495395" lon="9.660676389543715"><ele>482.0</ele><time>2026-04-30T13:29:28.949Z</time></trkpt><trkpt lat="40.034480072444524" lon="9.660748403552544"><ele>482.0</ele><time>2026-04-30T13:29:29.949Z</time></trkpt><trkpt lat="40.034351816525536" lon="9.660814624809179"><ele>482.0</ele><time>2026-04-30T13:29:30.95Z</time></trkpt><trkpt lat="40.0342086376241" lon="9.660855565841304"><ele>482.0</ele><time>2026-04-30T13:29:31.95Z</time></trkpt><trkpt lat="40.034058861053985" lon="9.660890967272602"><ele>482.0</ele><time>2026-04-30T13:29:32.95Z</time></trkpt><trkpt lat="40.03389667919658" lon="9.660930216460587"><ele>484.0</ele><time>2026-04-30T13:29:33.951Z</time></trkpt><trkpt lat="40.03374736514748" lon="9.661055444354584"><ele>486.0</ele><time>2026-04-30T13:29:34.95Z</time></trkpt><trkpt lat="40.03360657208821" lon="9.661163786411436"><ele>488.0</ele><time>2026-04-30T13:29:35.95Z</time></trkpt><trkpt lat="40.03348042386419" lon="9.661266211600033"><ele>488.0</ele><time>2026-04-30T13:29:36.95Z</time></trkpt><trkpt lat="40.03335545441652" lon="9.661361133906706"><ele>488.0</ele><time>2026-04-30T13:29:37.95Z</time></trkpt><trkpt lat="40.03323383373247" lon="9.661433966247914"><ele>488.0</ele><time>2026-04-30T13:29:38.95Z</time></trkpt><trkpt lat="40.03312054491364" lon="9.661520888438842"><ele>488.0</ele><time>2026-04-30T13:29:39.95Z</time></trkpt><trkpt lat="40.03301614078619" lon="9.661607540257071"><ele>487.25</ele><time>2026-04-30T13:29:40.95Z</time></trkpt><trkpt lat="40.03291942790976" lon="9.661716634164131"><ele>486.5</ele><time>2026-04-30T13:29:41.95Z</time></trkpt><trkpt lat="40.032840245896764" lon="9.66183588886457"><ele>485.75</ele><time>2026-04-30T13:29:42.95Z</time></trkpt><trkpt lat="40.03277410415633" lon="9.661971874863378"><ele>485.0</ele><time>2026-04-30T13:29:43.95Z</time></trkpt><trkpt lat="40.03269129779488" lon="9.66207024168138"><ele>485.0</ele><time>2026-04-30T13:29:44.95Z</time></trkpt><trkpt lat="40.03263018461144" lon="9.662189471342957"><ele>485.0</ele><time>2026-04-30T13:29:45.95Z</time></trkpt><trkpt lat="40.03256929269025" lon="9.66230083314119"><ele>485.0</ele><time>2026-04-30T13:29:46.95Z</time></trkpt><trkpt lat="40.032504005185494" lon="9.662393263934383"><ele>485.0</ele><time>2026-04-30T13:29:47.95Z</time></trkpt><trkpt lat="40.03243206403243" lon="9.662478057020959"><ele>485.0</ele><time>2026-04-30T13:29:48.95Z</time></trkpt><trkpt lat="40.03236728837397" lon="9.662561795379254"><ele>484.49999999999994</ele><time>2026-04-30T13:29:49.95Z</time></trkpt><trkpt lat="40.032299005958976" lon="9.662633918449222"><ele>484.0</ele><time>2026-04-30T13:29:50.949Z</time></trkpt><trkpt lat="40.0322303628591" lon="9.662709585561132"><ele>483.5</ele><time>2026-04-30T13:29:51.949Z</time></trkpt><trkpt lat="40.03217254638682" lon="9.662803981070159"><ele>483.0</ele><time>2026-04-30T13:29:52.949Z</time></trkpt><trkpt lat="40.03211900600924" lon="9.662888131499527"><ele>482.49999999999994</ele><time>2026-04-30T13:29:53.949Z</time></trkpt><trkpt lat="40.03205783918273" lon="9.662947813354563"><ele>482.0</ele><time>2026-04-30T13:29:54.949Z</time></trkpt><trkpt lat="40.032000164761264" lon="9.663005140395434"><ele>482.0</ele><time>2026-04-30T13:29:55.949Z</time></trkpt><trkpt lat="40.03194893817909" lon="9.66305576468628"><ele>482.00000000000006</ele><time>2026-04-30T13:29:56.949Z</time></trkpt><trkpt lat="40.031893704622846" lon="9.663109400078847"><ele>482.0</ele><time>2026-04-30T13:29:57.949Z</time></trkpt><trkpt lat="40.031834993176574" lon="9.663162235399891"><ele>482.0</ele><time>2026-04-30T13:29:58.949Z</time></trkpt><trkpt lat="40.03176130950479" lon="9.663181981849725"><ele>482.00000000000006</ele><time>2026-04-30T13:29:59.949Z</time></trkpt><trkpt lat="40.03169333222658" lon="9.663229735712184"><ele>482.0</ele><time>2026-04-30T13:30:00.949Z</time></trkpt><trkpt lat="40.031627516408925" lon="9.663282928282463"><ele>482.0</ele><time>2026-04-30T13:30:01.949Z</time></trkpt><trkpt lat="40.031567608300215" lon="9.66334554444684"><ele>481.8571428571429</ele><time>2026-04-30T13:30:02.949Z</time></trkpt><trkpt lat="40.031513752474666" lon="9.663417310772685"><ele>481.7142857142858</ele><time>2026-04-30T13:30:03.949Z</time></trkpt><trkpt lat="40.03146315559511" lon="9.663493875135412"><ele>481.57142857142856</ele><time>2026-04-30T13:30:04.949Z</time></trkpt><trkpt lat="40.03142399648911" lon="9.663574570917579"><ele>481.42857142857144</ele><time>2026-04-30T13:30:05.949Z</time></trkpt><trkpt lat="40.03136731970632" lon="9.663633845376655"><ele>481.2857142857143</ele><time>2026-04-30T13:30:06.949Z</time></trkpt><trkpt lat="40.03131008940246" lon="9.663691934339946"><ele>481.1428571428571</ele><time>2026-04-30T13:30:07.949Z</time></trkpt><trkpt lat="40.03127237924895" lon="9.663778615964015"><ele>480.99999999999994</ele><time>2026-04-30T13:30:08.949Z</time></trkpt><trkpt lat="40.03124100708065" lon="9.663866175858152"><ele>481.0</ele><time>2026-04-30T13:30:09.949Z</time></trkpt><trkpt lat="40.03115957660787" lon="9.663980674890368"><ele>481.0</ele><time>2026-04-30T13:30:11.949Z</time></trkpt><trkpt lat="40.031110290933924" lon="9.664089358762673"><ele>481.0</ele><time>2026-04-30T13:30:13.949Z</time></trkpt><trkpt lat="40.03099750759635" lon="9.664181883193697"><ele>481.0</ele><time>2026-04-30T13:30:15.949Z</time></trkpt><trkpt lat="40.030933802891205" lon="9.664229336984036"><ele>481.0</ele><time>2026-04-30T13:30:16.949Z</time></trkpt><trkpt lat="40.030865334056415" lon="9.664258291193534"><ele>481.1666666666667</ele><time>2026-04-30T13:30:17.949Z</time></trkpt><trkpt lat="40.03079393122459" lon="9.664282921774808"><ele>481.33333333333337</ele><time>2026-04-30T13:30:18.949Z</time></trkpt><trkpt lat="40.03072704482311" lon="9.664285272842406"><ele>481.5</ele><time>2026-04-30T13:30:19.949Z</time></trkpt><trkpt lat="40.03064973986217" lon="9.66432555249921"><ele>481.66666666666663</ele><time>2026-04-30T13:30:20.949Z</time></trkpt><trkpt lat="40.030569454448596" lon="9.664359052266725"><ele>481.8333333333333</ele><time>2026-04-30T13:30:21.949Z</time></trkpt><trkpt lat="40.03048863647958" lon="9.664401614216477"><ele>482.0</ele><time>2026-04-30T13:30:22.949Z</time></trkpt><trkpt lat="40.03040982882937" lon="9.664458948528155"><ele>481.99999999999994</ele><time>2026-04-30T13:30:23.949Z</time></trkpt><trkpt lat="40.03033799530607" lon="9.664523755768714"><ele>482.0</ele><time>2026-04-30T13:30:24.949Z</time></trkpt><trkpt lat="40.03026195149158" lon="9.664574148023327"><ele>482.0</ele><time>2026-04-30T13:30:25.949Z</time></trkpt><trkpt lat="40.03019500410518" lon="9.664627890139789"><ele>482.0</ele><time>2026-04-30T13:30:26.949Z</time></trkpt><trkpt lat="40.030113455242386" lon="9.664655984430633"><ele>481.99999999999994</ele><time>2026-04-30T13:30:27.949Z</time></trkpt><trkpt lat="40.03004826539258" lon="9.66470556691039"><ele>482.0</ele><time>2026-04-30T13:30:28.949Z</time></trkpt><trkpt lat="40.029976208743676" lon="9.664760059926477"><ele>478.16666666666663</ele><time>2026-04-30T13:30:29.949Z</time></trkpt><trkpt lat="40.02991569487139" lon="9.664827679886114"><ele>474.3333333333333</ele><time>2026-04-30T13:30:30.949Z</time></trkpt><trkpt lat="40.02985951121956" lon="9.664913958013024"><ele>470.5</ele><time>2026-04-30T13:30:31.949Z</time></trkpt><trkpt lat="40.02981176727797" lon="9.664985483281498"><ele>466.66666666666663</ele><time>2026-04-30T13:30:32.949Z</time></trkpt><trkpt lat="40.029783255211065" lon="9.665065069160786"><ele>462.8333333333333</ele><time>2026-04-30T13:30:33.948Z</time></trkpt><trkpt lat="40.0297471870831" lon="9.665151551584103"><ele>459.0</ele><time>2026-04-30T13:30:46.948Z</time></trkpt><trkpt lat="40.02969107237444" lon="9.665264973404831"><ele>461.3333333333333</ele><time>2026-04-30T13:30:48.948Z</time></trkpt><trkpt lat="40.0296432960791" lon="9.665329620887473"><ele>463.66666666666663</ele><time>2026-04-30T13:30:49.948Z</time></trkpt><trkpt lat="40.02959590644838" lon="9.665397835744997"><ele>466.0</ele><time>2026-04-30T13:30:50.948Z</time></trkpt><trkpt lat="40.02952271729121" lon="9.665539959929419"><ele>468.3333333333333</ele><time>2026-04-30T13:30:52.948Z</time></trkpt><trkpt lat="40.02948673821036" lon="9.665616596393086"><ele>470.66666666666663</ele><time>2026-04-30T13:30:53.948Z</time></trkpt><trkpt lat="40.029440973637094" lon="9.665702623958708"><ele>473.0</ele><time>2026-04-30T13:30:54.948Z</time></trkpt><trkpt lat="40.029390500695776" lon="9.665779819401154"><ele>472.99999999999994</ele><time>2026-04-30T13:30:55.948Z</time></trkpt><trkpt lat="40.02933050385515" lon="9.66584893200698"><ele>473.0</ele><time>2026-04-30T13:30:56.948Z</time></trkpt><trkpt lat="40.0292714105158" lon="9.665914887325544"><ele>473.0</ele><time>2026-04-30T13:30:57.948Z</time></trkpt><trkpt lat="40.02920283919123" lon="9.665971935567798"><ele>473.0</ele><time>2026-04-30T13:30:58.948Z</time></trkpt><trkpt lat="40.02912680211755" lon="9.666013241720547"><ele>472.99999999999994</ele><time>2026-04-30T13:30:59.948Z</time></trkpt><trkpt lat="40.02905995967385" lon="9.666057954001863"><ele>473.0</ele><time>2026-04-30T13:31:00.948Z</time></trkpt><trkpt lat="40.02898767715422" lon="9.666097266769977"><ele>472.0</ele><time>2026-04-30T13:31:01.948Z</time></trkpt><trkpt lat="40.028916625235894" lon="9.666147893664757"><ele>470.99999999999994</ele><time>2026-04-30T13:31:02.948Z</time></trkpt><trkpt lat="40.028850530914816" lon="9.666206572849868"><ele>469.99999999999994</ele><time>2026-04-30T13:31:03.948Z</time></trkpt><trkpt lat="40.02878945644664" lon="9.66627926061206"><ele>469.0</ele><time>2026-04-30T13:31:04.948Z</time></trkpt><trkpt lat="40.028724061515476" lon="9.666377896307477"><ele>468.0</ele><time>2026-04-30T13:31:07.948Z</time></trkpt><trkpt lat="40.02860668425985" lon="9.6664910187024"><ele>468.0</ele><time>2026-04-30T13:31:09.948Z</time></trkpt><trkpt lat="40.0285026001131" lon="9.66660404170035"><ele>468.0</ele><time>2026-04-30T13:31:10.948Z</time></trkpt><trkpt lat="40.028376134916215" lon="9.666656018797745"><ele>468.0</ele><time>2026-04-30T13:31:11.948Z</time></trkpt><trkpt lat="40.02824818367544" lon="9.666706465999768"><ele>468.0</ele><time>2026-04-30T13:31:12.948Z</time></trkpt><trkpt lat="40.02812558606432" lon="9.666752170357558"><ele>463.2</ele><time>2026-04-30T13:31:13.948Z</time></trkpt><trkpt lat="40.02800852773014" lon="9.666790841653844"><ele>458.4</ele><time>2026-04-30T13:31:14.948Z</time></trkpt><trkpt lat="40.02789581960145" lon="9.666814893546015"><ele>453.59999999999997</ele><time>2026-04-30T13:31:15.947Z</time></trkpt><trkpt lat="40.02779235151237" lon="9.666849732132256"><ele>448.79999999999995</ele><time>2026-04-30T13:31:16.947Z</time></trkpt><trkpt lat="40.02769772718397" lon="9.666895441190375"><ele>444.0</ele><time>2026-04-30T13:31:17.947Z</time></trkpt><trkpt lat="40.027596686018434" lon="9.666934930299812"><ele>443.0</ele><time>2026-04-30T13:31:18.947Z</time></trkpt><trkpt lat="40.027507131812186" lon="9.666998764399349"><ele>442.0</ele><time>2026-04-30T13:31:19.947Z</time></trkpt><trkpt lat="40.02743035247981" lon="9.667094351606599"><ele>441.0</ele><time>2026-04-30T13:31:20.947Z</time></trkpt><trkpt lat="40.0273608946611" lon="9.667212492040111"><ele>440.0</ele><time>2026-04-30T13:31:21.947Z</time></trkpt><trkpt lat="40.027257293362936" lon="9.66734729825339"><ele>440.0</ele><time>2026-04-30T13:31:22.947Z</time></trkpt><trkpt lat="40.027146771498224" lon="9.667474141006235"><ele>440.0</ele><time>2026-04-30T13:31:23.947Z</time></trkpt><trkpt lat="40.027032795867974" lon="9.66760348749404"><ele>440.0</ele><time>2026-04-30T13:31:24.947Z</time></trkpt><trkpt lat="40.026937505533695" lon="9.667743584717302"><ele>440.0</ele><time>2026-04-30T13:31:25.947Z</time></trkpt><trkpt lat="40.02684350700724" lon="9.667881598686847"><ele>438.5</ele><time>2026-04-30T13:31:26.947Z</time></trkpt><trkpt lat="40.02674618327" lon="9.668020242495691"><ele>437.0</ele><time>2026-04-30T13:31:27.947Z</time></trkpt><trkpt lat="40.02664517733206" lon="9.668164353397984"><ele>435.5</ele><time>2026-04-30T13:31:28.947Z</time></trkpt><trkpt lat="40.026540114957214" lon="9.668309527542695"><ele>434.0</ele><time>2026-04-30T13:31:29.947Z</time></trkpt><trkpt lat="40.02644175611087" lon="9.668465027242322"><ele>438.3333333333333</ele><time>2026-04-30T13:31:30.947Z</time></trkpt><trkpt lat="40.026348494295455" lon="9.668630887697516"><ele>442.66666666666663</ele><time>2026-04-30T13:31:31.947Z</time></trkpt><trkpt lat="40.02626376964683" lon="9.668808690931636"><ele>447.0</ele><time>2026-04-30T13:31:32.947Z</time></trkpt><trkpt lat="40.026181216400175" lon="9.668976779021659"><ele>447.0</ele><time>2026-04-30T13:31:33.947Z</time></trkpt><trkpt lat="40.02610375068521" lon="9.669131350906477"><ele>447.0</ele><time>2026-04-30T13:31:34.947Z</time></trkpt><trkpt lat="40.02601865516078" lon="9.669268109397121"><ele>447.0</ele><time>2026-04-30T13:31:35.947Z</time></trkpt><trkpt lat="40.025916983256636" lon="9.669383866380723"><ele>447.0</ele><time>2026-04-30T13:31:36.948Z</time></trkpt><trkpt lat="40.025791285964566" lon="9.669461799137093"><ele>444.33333333333337</ele><time>2026-04-30T13:31:37.948Z</time></trkpt><trkpt lat="40.0256516798885" lon="9.669516567417293"><ele>441.6666666666667</ele><time>2026-04-30T13:31:38.948Z</time></trkpt><trkpt lat="40.02550855790854" lon="9.669575487330823"><ele>439.0</ele><time>2026-04-30T13:31:39.949Z</time></trkpt><trkpt lat="40.02536666459663" lon="9.669659497230235"><ele>439.0</ele><time>2026-04-30T13:31:40.949Z</time></trkpt><trkpt lat="40.02524964426451" lon="9.669763156540263"><ele>439.0</ele><time>2026-04-30T13:31:41.949Z</time></trkpt><trkpt lat="40.02514373635935" lon="9.669878539404616"><ele>439.0</ele><time>2026-04-30T13:31:42.948Z</time></trkpt><trkpt lat="40.02504327220696" lon="9.670020457630793"><ele>439.0</ele><time>2026-04-30T13:31:43.948Z</time></trkpt><trkpt lat="40.02495960192981" lon="9.670196774253503"><ele>438.0</ele><time>2026-04-30T13:31:44.948Z</time></trkpt><trkpt lat="40.02488571054829" lon="9.67038599531704"><ele>437.0</ele><time>2026-04-30T13:31:45.949Z</time></trkpt><trkpt lat="40.02481424219974" lon="9.670556142378203"><ele>436.0</ele><time>2026-04-30T13:31:46.948Z</time></trkpt><trkpt lat="40.02472126722393" lon="9.670699159502458"><ele>436.0</ele><time>2026-04-30T13:31:47.948Z</time></trkpt><trkpt lat="40.02458939830115" lon="9.670789443789369"><ele>436.0</ele><time>2026-04-30T13:31:48.948Z</time></trkpt><trkpt lat="40.024442346540575" lon="9.670832563905755"><ele>436.0</ele><time>2026-04-30T13:31:49.948Z</time></trkpt><trkpt lat="40.02429513925778" lon="9.670854625969405"><ele>436.0</ele><time>2026-04-30T13:31:50.948Z</time></trkpt><trkpt lat="40.024129093843555" lon="9.670837514591652"><ele>428.33333333333337</ele><time>2026-04-30T13:31:51.948Z</time></trkpt><trkpt lat="40.02396630776206" lon="9.67082664293462"><ele>420.66666666666663</ele><time>2026-04-30T13:31:52.948Z</time></trkpt><trkpt lat="40.0238223440054" lon="9.670878957236043"><ele>413.0</ele><time>2026-04-30T13:31:53.948Z</time></trkpt><trkpt lat="40.02367358343855" lon="9.670971382927863"><ele>408.66666666666663</ele><time>2026-04-30T13:31:54.948Z</time></trkpt><trkpt lat="40.02352560738744" lon="9.671110068210025"><ele>404.33333333333337</ele><time>2026-04-30T13:31:55.948Z</time></trkpt><trkpt lat="40.023377880580355" lon="9.67127038588289"><ele>400.0</ele><time>2026-04-30T13:31:56.948Z</time></trkpt><trkpt lat="40.023252174582176" lon="9.671446148206226"><ele>400.0</ele><time>2026-04-30T13:31:57.948Z</time></trkpt><trkpt lat="40.02312776940902" lon="9.671611828611598"><ele>400.0</ele><time>2026-04-30T13:31:58.948Z</time></trkpt><trkpt lat="40.02301378155884" lon="9.671808514252566"><ele>400.0</ele><time>2026-04-30T13:31:59.948Z</time></trkpt><trkpt lat="40.0229060162354" lon="9.672028265124199"><ele>408.6666666666667</ele><time>2026-04-30T13:32:00.948Z</time></trkpt><trkpt lat="40.02278826012968" lon="9.672231981940167"><ele>417.33333333333337</ele><time>2026-04-30T13:32:01.948Z</time></trkpt><trkpt lat="40.02264915695322" lon="9.67241988627178"><ele>426.0</ele><time>2026-04-30T13:32:02.948Z</time></trkpt><trkpt lat="40.0224854279066" lon="9.672575241001445"><ele>419.66666666666663</ele><time>2026-04-30T13:32:03.948Z</time></trkpt><trkpt lat="40.02232790818639" lon="9.672728190670904"><ele>413.3333333333333</ele><time>2026-04-30T13:32:04.948Z</time></trkpt><trkpt lat="40.02217991358916" lon="9.672885421052664"><ele>407.0</ele><time>2026-04-30T13:32:05.948Z</time></trkpt><trkpt lat="40.02204159934973" lon="9.673058568912536"><ele>407.0</ele><time>2026-04-30T13:32:06.948Z</time></trkpt><trkpt lat="40.02192894008853" lon="9.673259128263629"><ele>407.0</ele><time>2026-04-30T13:32:07.948Z</time></trkpt><trkpt lat="40.02182415224187" lon="9.673482909145907"><ele>407.0</ele><time>2026-04-30T13:32:08.948Z</time></trkpt><trkpt lat="40.02169795421831" lon="9.673675444725811"><ele>405.3333333333333</ele><time>2026-04-30T13:32:09.948Z</time></trkpt><trkpt lat="40.021561118917326" lon="9.67382777012155"><ele>403.66666666666663</ele><time>2026-04-30T13:32:10.948Z</time></trkpt><trkpt lat="40.02144051165812" lon="9.673961313278284"><ele>402.0</ele><time>2026-04-30T13:32:11.948Z</time></trkpt><trkpt lat="40.02134150082515" lon="9.67409368218317"><ele>402.0</ele><time>2026-04-30T13:32:12.948Z</time></trkpt><trkpt lat="40.021246065587775" lon="9.674211623310313"><ele>402.0</ele><time>2026-04-30T13:32:13.948Z</time></trkpt><trkpt lat="40.02116665531764" lon="9.674338020129174"><ele>402.0</ele><time>2026-04-30T13:32:14.948Z</time></trkpt><trkpt lat="40.02108500183757" lon="9.674465734522833"><ele>402.0</ele><time>2026-04-30T13:32:15.948Z</time></trkpt><trkpt lat="40.02100308238861" lon="9.674599925443424"><ele>405.75</ele><time>2026-04-30T13:32:16.948Z</time></trkpt><trkpt lat="40.020919486599254" lon="9.674744853830283"><ele>409.5</ele><time>2026-04-30T13:32:17.948Z</time></trkpt><trkpt lat="40.02084566278811" lon="9.67491219931428"><ele>413.25</ele><time>2026-04-30T13:32:18.948Z</time></trkpt><trkpt lat="40.020777079744" lon="9.675101593051238"><ele>417.0</ele><time>2026-04-30T13:32:19.948Z</time></trkpt><trkpt lat="40.02071691702153" lon="9.675315463867625"><ele>404.0</ele><time>2026-04-30T13:32:20.947Z</time></trkpt><trkpt lat="40.02066485890703" lon="9.675545211032945"><ele>391.0</ele><time>2026-04-30T13:32:21.947Z</time></trkpt><trkpt lat="40.0206217309764" lon="9.675782282694552"><ele>378.0</ele><time>2026-04-30T13:32:22.947Z</time></trkpt><trkpt lat="40.020578722768796" lon="9.67601104334637"><ele>379.0</ele><time>2026-04-30T13:32:23.947Z</time></trkpt><trkpt lat="40.020539301552645" lon="9.676211882733238"><ele>380.0</ele><time>2026-04-30T13:32:24.947Z</time></trkpt><trkpt lat="40.020503048470076" lon="9.676385782579866"><ele>381.0</ele><time>2026-04-30T13:32:25.947Z</time></trkpt><trkpt lat="40.020457825063566" lon="9.676538528081444"><ele>382.0</ele><time>2026-04-30T13:32:26.947Z</time></trkpt><trkpt lat="40.02039310043385" lon="9.676666296988662"><ele>382.0</ele><time>2026-04-30T13:32:27.947Z</time></trkpt><trkpt lat="40.02035462038814" lon="9.676801123904264"><ele>382.0</ele><time>2026-04-30T13:32:28.947Z</time></trkpt><trkpt lat="40.02031064251645" lon="9.67692691836334"><ele>382.0</ele><time>2026-04-30T13:32:29.947Z</time></trkpt><trkpt lat="40.020311605293415" lon="9.67706677983437"><ele>382.0</ele><time>2026-04-30T13:32:30.947Z</time></trkpt><trkpt lat="40.0203288044667" lon="9.677212900893092"><ele>382.0</ele><time>2026-04-30T13:32:31.947Z</time></trkpt><trkpt lat="40.02031368180125" lon="9.677342074531426"><ele>385.0</ele><time>2026-04-30T13:32:32.947Z</time></trkpt><trkpt lat="40.02028938548386" lon="9.67745531191746"><ele>388.0</ele><time>2026-04-30T13:32:33.947Z</time></trkpt><trkpt lat="40.02024758445797" lon="9.677555661167217"><ele>391.0</ele><time>2026-04-30T13:32:34.947Z</time></trkpt><trkpt lat="40.020189281472646" lon="9.67764874218364"><ele>394.0</ele><time>2026-04-30T13:32:35.947Z</time></trkpt><trkpt lat="40.02011043209526" lon="9.677718366431506"><ele>397.0</ele><time>2026-04-30T13:32:36.947Z</time></trkpt><trkpt lat="40.020020036986374" lon="9.67778256483474"><ele>399.0</ele><time>2026-04-30T13:32:37.947Z</time></trkpt><trkpt lat="40.01994255797015" lon="9.67786337953037"><ele>401.0</ele><time>2026-04-30T13:32:38.947Z</time></trkpt><trkpt lat="40.019873186963906" lon="9.67795869557375"><ele>403.0</ele><time>2026-04-30T13:32:39.947Z</time></trkpt><trkpt lat="40.01981132156441" lon="9.678071628757513"><ele>405.0</ele><time>2026-04-30T13:32:40.947Z</time></trkpt><trkpt lat="40.01975884326843" lon="9.678194070002931"><ele>407.0</ele><time>2026-04-30T13:32:41.947Z</time></trkpt><trkpt lat="40.01969898037529" lon="9.678298706291377"><ele>407.0</ele><time>2026-04-30T13:32:42.947Z</time></trkpt><trkpt lat="40.019631305543015" lon="9.678386149934033"><ele>407.0</ele><time>2026-04-30T13:32:43.947Z</time></trkpt><trkpt lat="40.01953513797106" lon="9.678422427637829"><ele>407.0</ele><time>2026-04-30T13:32:44.947Z</time></trkpt><trkpt lat="40.01943312862475" lon="9.678405056879383"><ele>407.0</ele><time>2026-04-30T13:32:45.947Z</time></trkpt><trkpt lat="40.01931741299557" lon="9.678348774477483"><ele>407.0</ele><time>2026-04-30T13:32:46.947Z</time></trkpt><trkpt lat="40.01919887780649" lon="9.67829657847519"><ele>406.0</ele><time>2026-04-30T13:32:47.947Z</time></trkpt><trkpt lat="40.01907062634393" lon="9.67826723835713"><ele>405.0</ele><time>2026-04-30T13:32:48.947Z</time></trkpt><trkpt lat="40.01893795010814" lon="9.678233242455391"><ele>404.0</ele><time>2026-04-30T13:32:49.947Z</time></trkpt><trkpt lat="40.01881188841887" lon="9.678210109482348"><ele>403.0</ele><time>2026-04-30T13:32:50.947Z</time></trkpt><trkpt lat="40.018676091360305" lon="9.678184505317692"><ele>403.0</ele><time>2026-04-30T13:32:51.947Z</time></trkpt><trkpt lat="40.0185335430172" lon="9.67816939938542"><ele>403.0</ele><time>2026-04-30T13:32:52.947Z</time></trkpt><trkpt lat="40.01838362574388" lon="9.678165021689288"><ele>403.0</ele><time>2026-04-30T13:32:53.947Z</time></trkpt><trkpt lat="40.018231694052645" lon="9.678176801558557"><ele>403.0</ele><time>2026-04-30T13:32:54.947Z</time></trkpt><trkpt lat="40.018086395775896" lon="9.678199771202618"><ele>402.4</ele><time>2026-04-30T13:32:55.947Z</time></trkpt><trkpt lat="40.017954647265796" lon="9.678215604514497"><ele>401.79999999999995</ele><time>2026-04-30T13:32:56.947Z</time></trkpt><trkpt lat="40.017850683176675" lon="9.67822902015529"><ele>401.2</ele><time>2026-04-30T13:32:57.947Z</time></trkpt><trkpt lat="40.017753889052884" lon="9.678238727375918"><ele>400.6</ele><time>2026-04-30T13:32:58.947Z</time></trkpt><trkpt lat="40.01765326240093" lon="9.678219504747513"><ele>400.0</ele><time>2026-04-30T13:32:59.947Z</time></trkpt><trkpt lat="40.017566444659586" lon="9.678156462468248"><ele>400.00000000000006</ele><time>2026-04-30T13:33:00.947Z</time></trkpt><trkpt lat="40.01748820243546" lon="9.678071541315118"><ele>400.0</ele><time>2026-04-30T13:33:01.946Z</time></trkpt><trkpt lat="40.01742649648833" lon="9.678001814387706"><ele>400.0</ele><time>2026-04-30T13:33:02.946Z</time></trkpt><trkpt lat="40.01736250082031" lon="9.677963360713301"><ele>400.0</ele><time>2026-04-30T13:33:03.946Z</time></trkpt><trkpt lat="40.01727687375639" lon="9.677955952129016"><ele>400.00000000000006</ele><time>2026-04-30T13:33:04.946Z</time></trkpt><trkpt lat="40.0171828743492" lon="9.677988448583607"><ele>400.0</ele><time>2026-04-30T13:33:05.946Z</time></trkpt><trkpt lat="40.01708925007071" lon="9.67805845461912"><ele>396.2</ele><time>2026-04-30T13:33:06.946Z</time></trkpt><trkpt lat="40.01700331366564" lon="9.678157411314748"><ele>392.4</ele><time>2026-04-30T13:33:07.946Z</time></trkpt><trkpt lat="40.01692374760326" lon="9.678255494647134"><ele>388.6</ele><time>2026-04-30T13:33:08.946Z</time></trkpt><trkpt lat="40.0168489171863" lon="9.67835384349207"><ele>384.8</ele><time>2026-04-30T13:33:09.946Z</time></trkpt><trkpt lat="40.0167744320876" lon="9.678440152754675"><ele>381.0</ele><time>2026-04-30T13:33:10.946Z</time></trkpt><trkpt lat="40.016702092285975" lon="9.678522813510469"><ele>379.4</ele><time>2026-04-30T13:33:11.946Z</time></trkpt><trkpt lat="40.01661895941902" lon="9.678592456133323"><ele>377.8</ele><time>2026-04-30T13:33:12.946Z</time></trkpt><trkpt lat="40.01651906890196" lon="9.678625994330414"><ele>376.2</ele><time>2026-04-30T13:33:13.946Z</time></trkpt><trkpt lat="40.016408068413064" lon="9.678637946539391"><ele>374.59999999999997</ele><time>2026-04-30T13:33:14.946Z</time></trkpt><trkpt lat="40.01629719065091" lon="9.678629865405997"><ele>373.0</ele><time>2026-04-30T13:33:15.946Z</time></trkpt><trkpt lat="40.01619084270121" lon="9.678625730221759"><ele>373.0</ele><time>2026-04-30T13:33:16.946Z</time></trkpt><trkpt lat="40.016087140306404" lon="9.678624851687456"><ele>373.0</ele><time>2026-04-30T13:33:17.946Z</time></trkpt><trkpt lat="40.015982386389275" lon="9.67861749579112"><ele>373.0</ele><time>2026-04-30T13:33:18.946Z</time></trkpt><trkpt lat="40.01587686257718" lon="9.678594243963595"><ele>373.0</ele><time>2026-04-30T13:33:19.946Z</time></trkpt><trkpt lat="40.01577466529066" lon="9.678550250022639"><ele>373.0</ele><time>2026-04-30T13:33:20.946Z</time></trkpt><trkpt lat="40.015676289007466" lon="9.67852285005495"><ele>371.4</ele><time>2026-04-30T13:33:21.946Z</time></trkpt><trkpt lat="40.015578337856304" lon="9.678531108299167"><ele>369.79999999999995</ele><time>2026-04-30T13:33:22.946Z</time></trkpt><trkpt lat="40.01547989916908" lon="9.678571315083126"><ele>368.2</ele><time>2026-04-30T13:33:23.946Z</time></trkpt><trkpt lat="40.01538874346178" lon="9.678607449004588"><ele>366.6</ele><time>2026-04-30T13:33:24.946Z</time></trkpt><trkpt lat="40.01529987204798" lon="9.678614708814099"><ele>365.0</ele><time>2026-04-30T13:33:25.946Z</time></trkpt><trkpt lat="40.01521393815346" lon="9.678600237286227"><ele>365.0</ele><time>2026-04-30T13:33:26.946Z</time></trkpt><trkpt lat="40.01512524687357" lon="9.678565304714743"><ele>365.0</ele><time>2026-04-30T13:33:27.946Z</time></trkpt><trkpt lat="40.01503608197202" lon="9.678494377787962"><ele>365.0</ele><time>2026-04-30T13:33:28.946Z</time></trkpt><trkpt lat="40.014942116646964" lon="9.67842355130357"><ele>365.0</ele><time>2026-04-30T13:33:29.946Z</time></trkpt><trkpt lat="40.01483402788787" lon="9.678377644640099"><ele>365.0</ele><time>2026-04-30T13:33:30.946Z</time></trkpt><trkpt lat="40.014716900598145" lon="9.678365100536334"><ele>365.0</ele><time>2026-04-30T13:33:31.946Z</time></trkpt><trkpt lat="40.014598922548394" lon="9.678384640002283"><ele>365.0</ele><time>2026-04-30T13:33:32.946Z</time></trkpt><trkpt lat="40.01448444457383" lon="9.678429451708698"><ele>365.0</ele><time>2026-04-30T13:33:33.946Z</time></trkpt><trkpt lat="40.01437934509046" lon="9.678490673334947"><ele>365.0</ele><time>2026-04-30T13:33:34.946Z</time></trkpt><trkpt lat="40.014286789982826" lon="9.678547489197317"><ele>365.0</ele><time>2026-04-30T13:33:35.946Z</time></trkpt><trkpt lat="40.01420235589015" lon="9.678585396559333"><ele>365.0</ele><time>2026-04-30T13:33:36.946Z</time></trkpt><trkpt lat="40.01411686311814" lon="9.678578141578871"><ele>365.0</ele><time>2026-04-30T13:33:37.946Z</time></trkpt><trkpt lat="40.01404172947258" lon="9.678519221223125"><ele>365.0</ele><time>2026-04-30T13:33:38.946Z</time></trkpt><trkpt lat="40.01398221853804" lon="9.67841440899212"><ele>365.0</ele><time>2026-04-30T13:33:39.946Z</time></trkpt><trkpt lat="40.01395115455654" lon="9.678277739125045"><ele>367.0</ele><time>2026-04-30T13:33:40.946Z</time></trkpt><trkpt lat="40.01394823640881" lon="9.678127149899586"><ele>369.0</ele><time>2026-04-30T13:33:41.946Z</time></trkpt><trkpt lat="40.013947345627564" lon="9.677968862635819"><ele>371.0</ele><time>2026-04-30T13:33:42.947Z</time></trkpt><trkpt lat="40.01391837526604" lon="9.677810255636873"><ele>373.0</ele><time>2026-04-30T13:33:43.947Z</time></trkpt><trkpt lat="40.01385523264174" lon="9.67766556201141"><ele>373.0</ele><time>2026-04-30T13:33:44.946Z</time></trkpt><trkpt lat="40.013777519697925" lon="9.677541489689165"><ele>373.0</ele><time>2026-04-30T13:33:45.947Z</time></trkpt><trkpt lat="40.01368631242237" lon="9.677442578828561"><ele>373.0</ele><time>2026-04-30T13:33:46.946Z</time></trkpt><trkpt lat="40.01359354905403" lon="9.67736258056092"><ele>373.0</ele><time>2026-04-30T13:33:47.946Z</time></trkpt><trkpt lat="40.01350420410861" lon="9.677287167007469"><ele>373.0</ele><time>2026-04-30T13:33:48.947Z</time></trkpt><trkpt lat="40.0134333420475" lon="9.677212003557147"><ele>373.0</ele><time>2026-04-30T13:33:49.947Z</time></trkpt><trkpt lat="40.01338200625583" lon="9.677128053921262"><ele>373.0</ele><time>2026-04-30T13:33:50.947Z</time></trkpt><trkpt lat="40.01334504177356" lon="9.677019512033793"><ele>373.0</ele><time>2026-04-30T13:33:51.947Z</time></trkpt><trkpt lat="40.0133420517766" lon="9.676896008067908"><ele>373.0</ele><time>2026-04-30T13:33:52.948Z</time></trkpt><trkpt lat="40.01339075963285" lon="9.676778308935617"><ele>371.5</ele><time>2026-04-30T13:33:53.947Z</time></trkpt><trkpt lat="40.01346248272116" lon="9.67668619850793"><ele>370.0</ele><time>2026-04-30T13:33:54.947Z</time></trkpt><trkpt lat="40.01356074025848" lon="9.676560229344378"><ele>368.5</ele><time>2026-04-30T13:33:55.947Z</time></trkpt><trkpt lat="40.013643672657835" lon="9.676423965859202"><ele>367.0</ele><time>2026-04-30T13:33:56.947Z</time></trkpt><trkpt lat="40.01372438664354" lon="9.676294621160565"><ele>367.0</ele><time>2026-04-30T13:33:57.947Z</time></trkpt><trkpt lat="40.01379120926049" lon="9.676162910099993"><ele>367.0</ele><time>2026-04-30T13:33:58.947Z</time></trkpt><trkpt lat="40.0138303586326" lon="9.676039031998648"><ele>367.0</ele><time>2026-04-30T13:33:59.947Z</time></trkpt><trkpt lat="40.01385790148575" lon="9.67591536035328"><ele>367.0</ele><time>2026-04-30T13:34:00.947Z</time></trkpt><trkpt lat="40.01387631063305" lon="9.675781667073817"><ele>367.0</ele><time>2026-04-30T13:34:01.947Z</time></trkpt><trkpt lat="40.01387397826718" lon="9.675645764109259"><ele>366.40000000000003</ele><time>2026-04-30T13:34:02.947Z</time></trkpt><trkpt lat="40.01385559276454" lon="9.675513708559633"><ele>365.8</ele><time>2026-04-30T13:34:03.947Z</time></trkpt><trkpt lat="40.01381174703753" lon="9.675392557589486"><ele>365.2</ele><time>2026-04-30T13:34:04.947Z</time></trkpt><trkpt lat="40.01374898182808" lon="9.675295063395513"><ele>364.6</ele><time>2026-04-30T13:34:05.947Z</time></trkpt><trkpt lat="40.01367665004808" lon="9.67521720257055"><ele>364.0</ele><time>2026-04-30T13:34:06.947Z</time></trkpt><trkpt lat="40.013604590846484" lon="9.675162736357555"><ele>362.3333333333333</ele><time>2026-04-30T13:34:07.947Z</time></trkpt><trkpt lat="40.01354595303191" lon="9.675096153046512"><ele>360.66666666666663</ele><time>2026-04-30T13:34:08.947Z</time></trkpt><trkpt lat="40.01351350197146" lon="9.67499941616266"><ele>359.0</ele><time>2026-04-30T13:34:09.947Z</time></trkpt><trkpt lat="40.01352449780852" lon="9.67489144791809"><ele>357.3333333333333</ele><time>2026-04-30T13:34:10.947Z</time></trkpt><trkpt lat="40.01355891033416" lon="9.674786805402778"><ele>355.6666666666667</ele><time>2026-04-30T13:34:11.947Z</time></trkpt><trkpt lat="40.01359814575523" lon="9.674677742170871"><ele>354.0</ele><time>2026-04-30T13:34:12.947Z</time></trkpt><trkpt lat="40.01363522839405" lon="9.674576720328728"><ele>354.0</ele><time>2026-04-30T13:34:13.947Z</time></trkpt><trkpt lat="40.01366388121763" lon="9.674486114028177"><ele>354.0</ele><time>2026-04-30T13:34:14.947Z</time></trkpt><trkpt lat="40.01366804881137" lon="9.67439620766889"><ele>354.0</ele><time>2026-04-30T13:34:15.947Z</time></trkpt><trkpt lat="40.013654732658814" lon="9.674298053907735"><ele>354.0</ele><time>2026-04-30T13:34:16.947Z</time></trkpt><trkpt lat="40.01362160627873" lon="9.674200778824758"><ele>354.0</ele><time>2026-04-30T13:34:17.947Z</time></trkpt><trkpt lat="40.0135606388095" lon="9.674106264312107"><ele>354.0</ele><time>2026-04-30T13:34:18.947Z</time></trkpt><trkpt lat="40.01348462806039" lon="9.674010650413226"><ele>351.79999999999995</ele><time>2026-04-30T13:34:19.947Z</time></trkpt><trkpt lat="40.0134009379218" lon="9.673931012043788"><ele>349.59999999999997</ele><time>2026-04-30T13:34:20.947Z</time></trkpt><trkpt lat="40.01334069957852" lon="9.67381896142974"><ele>347.4</ele><time>2026-04-30T13:34:21.946Z</time></trkpt><trkpt lat="40.01330141596185" lon="9.673685878494904"><ele>345.2</ele><time>2026-04-30T13:34:22.946Z</time></trkpt><trkpt lat="40.01326814211324" lon="9.673544764445785"><ele>343.0</ele><time>2026-04-30T13:34:23.946Z</time></trkpt><trkpt lat="40.01323255987785" lon="9.673411914417803"><ele>342.79999999999995</ele><time>2026-04-30T13:34:24.946Z</time></trkpt><trkpt lat="40.013157245806326" lon="9.673293833272623"><ele>342.6</ele><time>2026-04-30T13:34:25.946Z</time></trkpt><trkpt lat="40.01306999190253" lon="9.67318719158787"><ele>342.4</ele><time>2026-04-30T13:34:26.946Z</time></trkpt><trkpt lat="40.01299037275559" lon="9.673087168507548"><ele>342.20000000000005</ele><time>2026-04-30T13:34:27.946Z</time></trkpt><trkpt lat="40.012919694988746" lon="9.672998145363147"><ele>342.0</ele><time>2026-04-30T13:34:28.946Z</time></trkpt><trkpt lat="40.012856419797764" lon="9.672911472173785"><ele>342.0</ele><time>2026-04-30T13:34:29.946Z</time></trkpt><trkpt lat="40.01279183960335" lon="9.672827447913093"><ele>342.0</ele><time>2026-04-30T13:34:30.946Z</time></trkpt><trkpt lat="40.012719215669385" lon="9.672753479909607"><ele>342.0</ele><time>2026-04-30T13:34:31.946Z</time></trkpt><trkpt lat="40.0126349840196" lon="9.672701269154599"><ele>342.0</ele><time>2026-04-30T13:34:32.946Z</time></trkpt><trkpt lat="40.012539716989764" lon="9.672673697177862"><ele>342.0</ele><time>2026-04-30T13:34:33.946Z</time></trkpt><trkpt lat="40.01244526020725" lon="9.672681277090607"><ele>341.5</ele><time>2026-04-30T13:34:34.946Z</time></trkpt><trkpt lat="40.01235246932867" lon="9.67271987541577"><ele>341.0</ele><time>2026-04-30T13:34:35.946Z</time></trkpt><trkpt lat="40.012270668276166" lon="9.672778535860104"><ele>340.5</ele><time>2026-04-30T13:34:36.946Z</time></trkpt><trkpt lat="40.012216378152104" lon="9.67285013316143"><ele>340.0</ele><time>2026-04-30T13:34:37.946Z</time></trkpt><trkpt lat="40.01216741709897" lon="9.67290325062483"><ele>339.5</ele><time>2026-04-30T13:34:38.946Z</time></trkpt><trkpt lat="40.01212218099446" lon="9.67296563866793"><ele>339.0</ele><time>2026-04-30T13:34:39.946Z</time></trkpt><trkpt lat="40.012062975843634" lon="9.673018679892873"><ele>339.0</ele><time>2026-04-30T13:34:40.946Z</time></trkpt><trkpt lat="40.011993833223364" lon="9.673044154511995"><ele>339.0</ele><time>2026-04-30T13:34:41.946Z</time></trkpt><trkpt lat="40.01191472817928" lon="9.673024587357125"><ele>339.0</ele><time>2026-04-30T13:34:42.946Z</time></trkpt><trkpt lat="40.01182630864689" lon="9.672958195938717"><ele>339.0</ele><time>2026-04-30T13:34:43.946Z</time></trkpt><trkpt lat="40.011718632662706" lon="9.672855243778363"><ele>339.0</ele><time>2026-04-30T13:34:44.946Z</time></trkpt><trkpt lat="40.01160306100143" lon="9.67275044025913"><ele>337.75</ele><time>2026-04-30T13:34:45.946Z</time></trkpt><trkpt lat="40.011481335990844" lon="9.672644729012914"><ele>336.5</ele><time>2026-04-30T13:34:46.946Z</time></trkpt><trkpt lat="40.01136616148688" lon="9.672544812245588"><ele>335.25</ele><time>2026-04-30T13:34:47.946Z</time></trkpt><trkpt lat="40.01125571068934" lon="9.672453267897582"><ele>334.0</ele><time>2026-04-30T13:34:48.946Z</time></trkpt><trkpt lat="40.01115872480545" lon="9.67236151085479"><ele>334.0</ele><time>2026-04-30T13:34:49.946Z</time></trkpt><trkpt lat="40.01110257955754" lon="9.672244609797865"><ele>334.0</ele><time>2026-04-30T13:34:50.946Z</time></trkpt><trkpt lat="40.01105110396177" lon="9.672113777944759"><ele>334.0</ele><time>2026-04-30T13:34:51.946Z</time></trkpt><trkpt lat="40.011000189000434" lon="9.67198489786886"><ele>334.0</ele><time>2026-04-30T13:34:52.946Z</time></trkpt><trkpt lat="40.01094288972329" lon="9.671861397903662"><ele>334.0</ele><time>2026-04-30T13:34:53.946Z</time></trkpt><trkpt lat="40.01091280922624" lon="9.671731398996357"><ele>330.25</ele><time>2026-04-30T13:34:54.946Z</time></trkpt><trkpt lat="40.010926060616384" lon="9.671591231899253"><ele>326.5</ele><time>2026-04-30T13:34:55.946Z</time></trkpt><trkpt lat="40.01092583376036" lon="9.671447782146316"><ele>322.75</ele><time>2026-04-30T13:34:56.946Z</time></trkpt><trkpt lat="40.0109536753222" lon="9.671304000309568"><ele>319.0</ele><time>2026-04-30T13:34:57.946Z</time></trkpt><trkpt lat="40.010995500140005" lon="9.67115266902277"><ele>319.0</ele><time>2026-04-30T13:34:58.946Z</time></trkpt><trkpt lat="40.01104393370455" lon="9.671004034586954"><ele>319.0</ele><time>2026-04-30T13:34:59.946Z</time></trkpt><trkpt lat="40.01109857695712" lon="9.670856225355948"><ele>319.0</ele><time>2026-04-30T13:35:00.946Z</time></trkpt><trkpt lat="40.01115724671545" lon="9.670709932243321"><ele>319.0</ele><time>2026-04-30T13:35:01.946Z</time></trkpt><trkpt lat="40.01121712342374" lon="9.67056475363879"><ele>319.0</ele><time>2026-04-30T13:35:02.946Z</time></trkpt><trkpt lat="40.011276856296305" lon="9.67041916993514"><ele>319.0</ele><time>2026-04-30T13:35:03.945Z</time></trkpt><trkpt lat="40.011329036417024" lon="9.670272552615106"><ele>319.0</ele><time>2026-04-30T13:35:04.945Z</time></trkpt><trkpt lat="40.011369504825886" lon="9.670125477865621"><ele>319.0</ele><time>2026-04-30T13:35:05.945Z</time></trkpt><trkpt lat="40.01137276201679" lon="9.669975476350555"><ele>317.0</ele><time>2026-04-30T13:35:06.945Z</time></trkpt><trkpt lat="40.01135164232441" lon="9.669837186848778"><ele>315.0</ele><time>2026-04-30T13:35:07.945Z</time></trkpt><trkpt lat="40.01129040765655" lon="9.669703609554052"><ele>313.0</ele><time>2026-04-30T13:35:08.945Z</time></trkpt><trkpt lat="40.01120203231664" lon="9.66960697908598"><ele>311.0</ele><time>2026-04-30T13:35:09.945Z</time></trkpt><trkpt lat="40.011103476114634" lon="9.669515219612135"><ele>306.0</ele><time>2026-04-30T13:35:10.945Z</time></trkpt><trkpt lat="40.01099674902352" lon="9.669434832343551"><ele>301.0</ele><time>2026-04-30T13:35:11.945Z</time></trkpt><trkpt lat="40.01090924716655" lon="9.669307226434636"><ele>296.0</ele><time>2026-04-30T13:35:12.945Z</time></trkpt><trkpt lat="40.010841691612086" lon="9.669152134077587"><ele>291.0</ele><time>2026-04-30T13:35:13.945Z</time></trkpt><trkpt lat="40.01079433724018" lon="9.66897922460663"><ele>289.5</ele><time>2026-04-30T13:35:14.945Z</time></trkpt><trkpt lat="40.010740374912764" lon="9.66881729085745"><ele>288.0</ele><time>2026-04-30T13:35:15.945Z</time></trkpt><trkpt lat="40.01069211254621" lon="9.668689645098"><ele>286.5</ele><time>2026-04-30T13:35:16.945Z</time></trkpt><trkpt lat="40.01064587206202" lon="9.668558824108974"><ele>285.0</ele><time>2026-04-30T13:35:17.945Z</time></trkpt><trkpt lat="40.01058519515778" lon="9.668446050671529"><ele>282.8</ele><time>2026-04-30T13:35:18.945Z</time></trkpt><trkpt lat="40.01050458280676" lon="9.66835538526259"><ele>280.6</ele><time>2026-04-30T13:35:19.945Z</time></trkpt><trkpt lat="40.01040741188221" lon="9.668274329721521"><ele>278.4</ele><time>2026-04-30T13:35:20.945Z</time></trkpt><trkpt lat="40.010299435416684" lon="9.66821612018215"><ele>276.2</ele><time>2026-04-30T13:35:21.945Z</time></trkpt><trkpt lat="40.010207855645255" lon="9.668185682139622"><ele>274.0</ele><time>2026-04-30T13:35:22.945Z</time></trkpt><trkpt lat="40.010119234869684" lon="9.668173092032676"><ele>274.0</ele><time>2026-04-30T13:35:23.945Z</time></trkpt><trkpt lat="40.01004060392948" lon="9.668199427241406"><ele>274.0</ele><time>2026-04-30T13:35:24.945Z</time></trkpt><trkpt lat="40.00997451502015" lon="9.668278933839698"><ele>274.0</ele><time>2026-04-30T13:35:25.945Z</time></trkpt><trkpt lat="40.00993992433771" lon="9.668397676093232"><ele>274.0</ele><time>2026-04-30T13:35:26.945Z</time></trkpt><trkpt lat="40.00993959511243" lon="9.668538848968318"><ele>274.0</ele><time>2026-04-30T13:35:27.945Z</time></trkpt><trkpt lat="40.0099575820701" lon="9.66868467642428"><ele>266.59999999999997</ele><time>2026-04-30T13:35:28.945Z</time></trkpt><trkpt lat="40.009977990176125" lon="9.668823823624246"><ele>259.2</ele><time>2026-04-30T13:35:29.945Z</time></trkpt><trkpt lat="40.009977987675065" lon="9.668954074547829"><ele>251.79999999999998</ele><time>2026-04-30T13:35:30.945Z</time></trkpt><trkpt lat="40.009951888643926" lon="9.6690732222456"><ele>244.39999999999998</ele><time>2026-04-30T13:35:31.945Z</time></trkpt><trkpt lat="40.0098953500025" lon="9.66918004990445"><ele>237.0</ele><time>2026-04-30T13:35:32.945Z</time></trkpt><trkpt lat="40.009806419833005" lon="9.669278671979542"><ele>237.0</ele><time>2026-04-30T13:35:33.945Z</time></trkpt><trkpt lat="40.00973623204103" lon="9.66939011773634"><ele>237.0</ele><time>2026-04-30T13:35:34.945Z</time></trkpt><trkpt lat="40.00968091135283" lon="9.669514764979628"><ele>237.0</ele><time>2026-04-30T13:35:35.945Z</time></trkpt><trkpt lat="40.009636220858646" lon="9.66966029349566"><ele>237.0</ele><time>2026-04-30T13:35:36.945Z</time></trkpt><trkpt lat="40.00961761003519" lon="9.669822142938177"><ele>241.2</ele><time>2026-04-30T13:35:37.945Z</time></trkpt><trkpt lat="40.00957691976864" lon="9.669976194317297"><ele>245.39999999999998</ele><time>2026-04-30T13:35:38.945Z</time></trkpt><trkpt lat="40.009540646703876" lon="9.670120533221573"><ele>249.60000000000002</ele><time>2026-04-30T13:35:39.945Z</time></trkpt><trkpt lat="40.00950664127767" lon="9.670252775058938"><ele>253.8</ele><time>2026-04-30T13:35:40.945Z</time></trkpt><trkpt lat="40.00947437027143" lon="9.670365191722475"><ele>258.0</ele><time>2026-04-30T13:35:41.945Z</time></trkpt><trkpt lat="40.00943213610537" lon="9.670458496965557"><ele>260.75</ele><time>2026-04-30T13:35:42.945Z</time></trkpt><trkpt lat="40.00936508128925" lon="9.670536677126005"><ele>263.5</ele><time>2026-04-30T13:35:43.945Z</time></trkpt><trkpt lat="40.00927110172347" lon="9.670592431518864"><ele>266.25</ele><time>2026-04-30T13:35:44.945Z</time></trkpt><trkpt lat="40.00915422259561" lon="9.67063630075779"><ele>269.0</ele><time>2026-04-30T13:35:45.945Z</time></trkpt><trkpt lat="40.00899760870946" lon="9.670684231268527"><ele>269.0</ele><time>2026-04-30T13:35:46.944Z</time></trkpt><trkpt lat="40.00882422034963" lon="9.670764593142374"><ele>269.0</ele><time>2026-04-30T13:35:47.944Z</time></trkpt><trkpt lat="40.008640534580714" lon="9.670834341674478"><ele>269.0</ele><time>2026-04-30T13:35:48.946Z</time></trkpt><trkpt lat="40.00846801995787" lon="9.670863835164893"><ele>274.0</ele><time>2026-04-30T13:35:49.946Z</time></trkpt><trkpt lat="40.0082926931959" lon="9.670856127001247"><ele>279.0</ele><time>2026-04-30T13:35:50.946Z</time></trkpt><trkpt lat="40.00811292809492" lon="9.670836282201625"><ele>284.0</ele><time>2026-04-30T13:35:51.945Z</time></trkpt><trkpt lat="40.00795189431144" lon="9.670826417219232"><ele>284.0</ele><time>2026-04-30T13:35:52.945Z</time></trkpt><trkpt lat="40.007830709488395" lon="9.670792726352772"><ele>284.0</ele><time>2026-04-30T13:35:53.945Z</time></trkpt><trkpt lat="40.0077378263093" lon="9.670694368713045"><ele>284.0</ele><time>2026-04-30T13:35:54.946Z</time></trkpt><trkpt lat="40.00765330817097" lon="9.670499783773664"><ele>284.0</ele><time>2026-04-30T13:35:55.945Z</time></trkpt><trkpt lat="40.00753000277311" lon="9.670257897662083"><ele>282.0</ele><time>2026-04-30T13:35:56.945Z</time></trkpt><trkpt lat="40.00738507989138" lon="9.670040345165198"><ele>280.0</ele><time>2026-04-30T13:35:57.946Z</time></trkpt><trkpt lat="40.0072185127878" lon="9.669845577742642"><ele>278.0</ele><time>2026-04-30T13:35:58.946Z</time></trkpt><trkpt lat="40.00703873264659" lon="9.669653924873252"><ele>278.0</ele><time>2026-04-30T13:35:59.946Z</time></trkpt><trkpt lat="40.0068548909015" lon="9.669458299264234"><ele>278.0</ele><time>2026-04-30T13:36:00.946Z</time></trkpt><trkpt lat="40.00668430558298" lon="9.669208760651298"><ele>267.0</ele><time>2026-04-30T13:36:01.945Z</time></trkpt><trkpt lat="40.0065127362253" lon="9.668978383479788"><ele>256.0</ele><time>2026-04-30T13:36:02.945Z</time></trkpt><trkpt lat="40.00634723950979" lon="9.668777058226528"><ele>249.33333333333331</ele><time>2026-04-30T13:36:03.945Z</time></trkpt><trkpt lat="40.0062077646487" lon="9.66857709299347"><ele>242.66666666666669</ele><time>2026-04-30T13:36:04.945Z</time></trkpt><trkpt lat="40.006063067019944" lon="9.668450971975464"><ele>236.0</ele><time>2026-04-30T13:36:05.945Z</time></trkpt><trkpt lat="40.00593754486125" lon="9.668307280141939"><ele>232.0</ele><time>2026-04-30T13:36:06.945Z</time></trkpt><trkpt lat="40.00582707659552" lon="9.668161974010191"><ele>228.0</ele><time>2026-04-30T13:36:07.945Z</time></trkpt><trkpt lat="40.0057787160789" lon="9.667986569526297"><ele>224.0</ele><time>2026-04-30T13:36:08.945Z</time></trkpt><trkpt lat="40.00573423698278" lon="9.6678079767559"><ele>220.0</ele><time>2026-04-30T13:36:09.945Z</time></trkpt><trkpt lat="40.005722164692465" lon="9.667622065766228"><ele>219.75</ele><time>2026-04-30T13:36:10.945Z</time></trkpt><trkpt lat="40.005692084323925" lon="9.667447039482795"><ele>219.5</ele><time>2026-04-30T13:36:11.945Z</time></trkpt><trkpt lat="40.00568249853381" lon="9.667292304694197"><ele>219.25</ele><time>2026-04-30T13:36:12.945Z</time></trkpt><trkpt lat="40.005651160067714" lon="9.66715454887393"><ele>219.0</ele><time>2026-04-30T13:36:13.945Z</time></trkpt><trkpt lat="40.00558665712717" lon="9.667042183827915"><ele>219.0</ele><time>2026-04-30T13:36:14.945Z</time></trkpt><trkpt lat="40.00550954492671" lon="9.66696470066418"><ele>218.99999999999997</ele><time>2026-04-30T13:36:15.945Z</time></trkpt><trkpt lat="40.0054068445423" lon="9.666924662519735"><ele>218.99999999999997</ele><time>2026-04-30T13:36:16.945Z</time></trkpt><trkpt lat="40.005301355033176" lon="9.666916946975874"><ele>219.0</ele><time>2026-04-30T13:36:17.945Z</time></trkpt><trkpt lat="40.00521148518436" lon="9.666928067211416"><ele>219.0</ele><time>2026-04-30T13:36:18.945Z</time></trkpt><trkpt lat="40.005133953600854" lon="9.666950247962815"><ele>219.0</ele><time>2026-04-30T13:36:19.944Z</time></trkpt><trkpt lat="40.00506443934773" lon="9.666987627276386"><ele>219.0</ele><time>2026-04-30T13:36:20.944Z</time></trkpt><trkpt lat="40.005009944856965" lon="9.6670520509162"><ele>219.0</ele><time>2026-04-30T13:36:21.944Z</time></trkpt><trkpt lat="40.00498444668672" lon="9.667150832188938"><ele>219.0</ele><time>2026-04-30T13:36:22.944Z</time></trkpt><trkpt lat="40.00499530770655" lon="9.667263179250805"><ele>219.0</ele><time>2026-04-30T13:36:23.944Z</time></trkpt><trkpt lat="40.005031798459854" lon="9.667366917542182"><ele>219.0</ele><time>2026-04-30T13:36:24.944Z</time></trkpt><trkpt lat="40.005083629921614" lon="9.667466452971977"><ele>219.0</ele><time>2026-04-30T13:36:25.944Z</time></trkpt><trkpt lat="40.00514519459736" lon="9.667544313179729"><ele>219.0</ele><time>2026-04-30T13:36:26.944Z</time></trkpt><trkpt lat="40.00519038736612" lon="9.667639481165278"><ele>219.0</ele><time>2026-04-30T13:36:27.944Z</time></trkpt><trkpt lat="40.00524868287023" lon="9.667724491219252"><ele>219.0</ele><time>2026-04-30T13:36:28.944Z</time></trkpt><trkpt lat="40.005303315301326" lon="9.667820115668308"><ele>219.0</ele><time>2026-04-30T13:36:29.944Z</time></trkpt><trkpt lat="40.00535350868836" lon="9.667924134407315"><ele>219.0</ele><time>2026-04-30T13:36:30.944Z</time></trkpt><trkpt lat="40.005387300566674" lon="9.668049198468138"><ele>219.16666666666666</ele><time>2026-04-30T13:36:31.944Z</time></trkpt><trkpt lat="40.005401580317404" lon="9.6681792650994"><ele>219.33333333333331</ele><time>2026-04-30T13:36:32.944Z</time></trkpt><trkpt lat="40.0054204296191" lon="9.668289330287868"><ele>219.5</ele><time>2026-04-30T13:36:33.944Z</time></trkpt><trkpt lat="40.00543229695757" lon="9.668381866217063"><ele>219.66666666666666</ele><time>2026-04-30T13:36:34.944Z</time></trkpt><trkpt lat="40.00543277745181" lon="9.668471164160175"><ele>219.83333333333331</ele><time>2026-04-30T13:36:35.944Z</time></trkpt><trkpt lat="40.00540987258526" lon="9.668555308321936"><ele>220.0</ele><time>2026-04-30T13:36:36.944Z</time></trkpt><trkpt lat="40.00536581045664" lon="9.668627548650106"><ele>214.75</ele><time>2026-04-30T13:36:37.944Z</time></trkpt><trkpt lat="40.00526490152412" lon="9.668640978676887"><ele>209.5</ele><time>2026-04-30T13:36:38.944Z</time></trkpt><trkpt lat="40.00512584202506" lon="9.668629303022142"><ele>204.25</ele><time>2026-04-30T13:36:39.944Z</time></trkpt><trkpt lat="40.00494942395569" lon="9.668606572748557"><ele>199.0</ele><time>2026-04-30T13:36:40.944Z</time></trkpt><trkpt lat="40.00475285978437" lon="9.668561711148412"><ele>199.0</ele><time>2026-04-30T13:36:41.944Z</time></trkpt><trkpt lat="40.00455988450044" lon="9.668532147556999"><ele>199.0</ele><time>2026-04-30T13:36:42.944Z</time></trkpt><trkpt lat="40.00439475210523" lon="9.668529443624754"><ele>199.0</ele><time>2026-04-30T13:36:43.944Z</time></trkpt><trkpt lat="40.004263253775584" lon="9.668530254236254"><ele>194.33333333333331</ele><time>2026-04-30T13:36:44.944Z</time></trkpt><trkpt lat="40.00413616239696" lon="9.668574197438174"><ele>189.66666666666666</ele><time>2026-04-30T13:36:45.944Z</time></trkpt><trkpt lat="40.003981855483715" lon="9.66867420033458"><ele>185.0</ele><time>2026-04-30T13:36:46.944Z</time></trkpt><trkpt lat="40.003835732644546" lon="9.668839717261655"><ele>195.66666666666666</ele><time>2026-04-30T13:36:47.944Z</time></trkpt><trkpt lat="40.003691842379574" lon="9.668974089596405"><ele>206.33333333333331</ele><time>2026-04-30T13:36:48.944Z</time></trkpt><trkpt lat="40.003544821258984" lon="9.669060051412815"><ele>217.0</ele><time>2026-04-30T13:36:49.944Z</time></trkpt><trkpt lat="40.003392597771814" lon="9.669074039942112"><ele>215.66666666666666</ele><time>2026-04-30T13:36:50.944Z</time></trkpt><trkpt lat="40.00323817317493" lon="9.66898212801384"><ele>214.33333333333331</ele><time>2026-04-30T13:36:51.944Z</time></trkpt><trkpt lat="40.00305042073744" lon="9.668905786673761"><ele>213.0</ele><time>2026-04-30T13:36:52.944Z</time></trkpt><trkpt lat="40.002882676751305" lon="9.668787224108364"><ele>213.0</ele><time>2026-04-30T13:36:53.944Z</time></trkpt><trkpt lat="40.00274183132476" lon="9.668719569664574"><ele>213.0</ele><time>2026-04-30T13:36:54.944Z</time></trkpt><trkpt lat="40.00261051839358" lon="9.668689653205185"><ele>213.0</ele><time>2026-04-30T13:36:55.944Z</time></trkpt><trkpt lat="40.0024679355004" lon="9.668725961059536"><ele>213.0</ele><time>2026-04-30T13:36:56.944Z</time></trkpt><trkpt lat="40.00231988711588" lon="9.668843706926383"><ele>210.66666666666669</ele><time>2026-04-30T13:36:57.944Z</time></trkpt><trkpt lat="40.00219743611024" lon="9.669019225956085"><ele>208.33333333333334</ele><time>2026-04-30T13:36:58.944Z</time></trkpt><trkpt lat="40.0020701059922" lon="9.669093521823282"><ele>206.0</ele><time>2026-04-30T13:36:59.943Z</time></trkpt><trkpt lat="40.00192967003638" lon="9.669104874746967"><ele>206.0</ele><time>2026-04-30T13:37:00.943Z</time></trkpt><trkpt lat="40.00178687136235" lon="9.669019369083317"><ele>206.0</ele><time>2026-04-30T13:37:01.943Z</time></trkpt><trkpt lat="40.00160044207767" lon="9.668927936263467"><ele>206.0</ele><time>2026-04-30T13:37:02.943Z</time></trkpt><trkpt lat="40.001397367230226" lon="9.668819433077399"><ele>208.66666666666669</ele><time>2026-04-30T13:37:03.943Z</time></trkpt><trkpt lat="40.00123422905513" lon="9.668685474974541"><ele>211.33333333333331</ele><time>2026-04-30T13:37:04.943Z</time></trkpt><trkpt lat="40.00109832532018" lon="9.668531005947615"><ele>214.0</ele><time>2026-04-30T13:37:05.943Z</time></trkpt><trkpt lat="40.00101166806942" lon="9.668345654440012"><ele>206.66666666666666</ele><time>2026-04-30T13:37:06.943Z</time></trkpt><trkpt lat="40.000921443566696" lon="9.668154341057067"><ele>199.33333333333331</ele><time>2026-04-30T13:37:07.943Z</time></trkpt><trkpt lat="40.000852628353975" lon="9.667959660408242"><ele>192.0</ele><time>2026-04-30T13:37:08.943Z</time></trkpt><trkpt lat="40.0007835753195" lon="9.667813591024993"><ele>188.0</ele><time>2026-04-30T13:37:09.943Z</time></trkpt><trkpt lat="40.00067035336975" lon="9.66769275961168"><ele>184.0</ele><time>2026-04-30T13:37:10.943Z</time></trkpt><trkpt lat="40.00051778061075" lon="9.667609825809603"><ele>180.0</ele><time>2026-04-30T13:37:11.943Z</time></trkpt><trkpt lat="40.000369463527115" lon="9.667554671568316"><ele>180.0</ele><time>2026-04-30T13:37:12.943Z</time></trkpt><trkpt lat="40.00025964233839" lon="9.667454018235807"><ele>180.0</ele><time>2026-04-30T13:37:13.943Z</time></trkpt><trkpt lat="40.00020735253204" lon="9.667265656053232"><ele>180.0</ele><time>2026-04-30T13:37:14.943Z</time></trkpt><trkpt lat="40.000114871737495" lon="9.667102667676957"><ele>180.0</ele><time>2026-04-30T13:37:15.943Z</time></trkpt><trkpt lat="39.9999962115263" lon="9.666966450164793"><ele>175.0</ele><time>2026-04-30T13:37:16.943Z</time></trkpt><trkpt lat="39.99983062494901" lon="9.666873525574402"><ele>170.0</ele><time>2026-04-30T13:37:17.943Z</time></trkpt><trkpt lat="39.999630114201324" lon="9.666812990169106"><ele>165.0</ele><time>2026-04-30T13:37:18.943Z</time></trkpt><trkpt lat="39.999425838408285" lon="9.666763252330954"><ele>165.0</ele><time>2026-04-30T13:37:19.943Z</time></trkpt><trkpt lat="39.99922083659033" lon="9.666690766476444"><ele>165.0</ele><time>2026-04-30T13:37:20.943Z</time></trkpt><trkpt lat="39.999019851863906" lon="9.666618682436837"><ele>165.0</ele><time>2026-04-30T13:37:21.943Z</time></trkpt><trkpt lat="39.99881544176471" lon="9.666561263064299"><ele>167.0</ele><time>2026-04-30T13:37:22.943Z</time></trkpt><trkpt lat="39.998588628582375" lon="9.666534810447569"><ele>169.0</ele><time>2026-04-30T13:37:23.943Z</time></trkpt><trkpt lat="39.99834325816051" lon="9.666513509574052"><ele>168.0</ele><time>2026-04-30T13:37:24.943Z</time></trkpt><trkpt lat="39.998089162079765" lon="9.66648167888008"><ele>167.0</ele><time>2026-04-30T13:37:25.943Z</time></trkpt><trkpt lat="39.99783295280777" lon="9.66646014356687"><ele>167.0</ele><time>2026-04-30T13:37:26.943Z</time></trkpt><trkpt lat="39.997592885649645" lon="9.666456621721538"><ele>167.0</ele><time>2026-04-30T13:37:27.943Z</time></trkpt><trkpt lat="39.997383833497274" lon="9.666470136594784"><ele>167.0</ele><time>2026-04-30T13:37:28.943Z</time></trkpt><trkpt lat="39.99721453750507" lon="9.666488902288144"><ele>165.33333333333331</ele><time>2026-04-30T13:37:29.943Z</time></trkpt><trkpt lat="39.997067000750135" lon="9.666544866854016"><ele>163.66666666666666</ele><time>2026-04-30T13:37:30.943Z</time></trkpt><trkpt lat="39.99690907468397" lon="9.666712493976707"><ele>162.0</ele><time>2026-04-30T13:37:31.943Z</time></trkpt><trkpt lat="39.99674899863621" lon="9.666926006899955"><ele>156.66666666666666</ele><time>2026-04-30T13:37:32.943Z</time></trkpt><trkpt lat="39.99660668993254" lon="9.66710269352574"><ele>151.33333333333331</ele><time>2026-04-30T13:37:33.943Z</time></trkpt><trkpt lat="39.996485104096195" lon="9.66722294937538"><ele>146.0</ele><time>2026-04-30T13:37:34.943Z</time></trkpt><trkpt lat="39.996363361975384" lon="9.667307752609"><ele>146.0</ele><time>2026-04-30T13:37:35.943Z</time></trkpt><trkpt lat="39.99623013699656" lon="9.66732759269879"><ele>146.0</ele><time>2026-04-30T13:37:36.943Z</time></trkpt><trkpt lat="39.99610477710726" lon="9.667283682495817"><ele>146.0</ele><time>2026-04-30T13:37:37.943Z</time></trkpt><trkpt lat="39.996033465380506" lon="9.667094605489044"><ele>146.0</ele><time>2026-04-30T13:37:38.943Z</time></trkpt><trkpt lat="39.99592211149848" lon="9.666931424775989"><ele>147.66666666666666</ele><time>2026-04-30T13:37:39.943Z</time></trkpt><trkpt lat="39.99584873113116" lon="9.66673281696001"><ele>149.33333333333334</ele><time>2026-04-30T13:37:40.942Z</time></trkpt><trkpt lat="39.995805501882835" lon="9.666552909289853"><ele>151.0</ele><time>2026-04-30T13:37:41.942Z</time></trkpt><trkpt lat="39.99582041923637" lon="9.666336357258567"><ele>157.33333333333334</ele><time>2026-04-30T13:37:42.942Z</time></trkpt><trkpt lat="39.99584501236453" lon="9.666067626026624"><ele>163.66666666666666</ele><time>2026-04-30T13:37:43.942Z</time></trkpt><trkpt lat="39.995857657192836" lon="9.665791794633485"><ele>170.0</ele><time>2026-04-30T13:37:44.942Z</time></trkpt><trkpt lat="39.995899446958376" lon="9.665575657935614"><ele>170.0</ele><time>2026-04-30T13:37:45.942Z</time></trkpt><trkpt lat="39.99599563009206" lon="9.665380321323116"><ele>170.0</ele><time>2026-04-30T13:37:46.942Z</time></trkpt><trkpt lat="39.99609742126508" lon="9.665121681028424"><ele>170.0</ele><time>2026-04-30T13:37:47.942Z</time></trkpt><trkpt lat="39.996170921734084" lon="9.664845154788164"><ele>165.75</ele><time>2026-04-30T13:37:48.942Z</time></trkpt><trkpt lat="39.99623975008242" lon="9.66463796909257"><ele>161.5</ele><time>2026-04-30T13:37:49.942Z</time></trkpt><trkpt lat="39.99631822722328" lon="9.664489912059677"><ele>157.25</ele><time>2026-04-30T13:37:50.942Z</time></trkpt><trkpt lat="39.996434141282705" lon="9.664418870506688"><ele>153.0</ele><time>2026-04-30T13:37:51.942Z</time></trkpt><trkpt lat="39.996543339168966" lon="9.664410203087415"><ele>150.75</ele><time>2026-04-30T13:37:52.942Z</time></trkpt><trkpt lat="39.996688947027316" lon="9.664386039011193"><ele>148.5</ele><time>2026-04-30T13:37:53.942Z</time></trkpt><trkpt lat="39.996819613744115" lon="9.664318399223987"><ele>146.25</ele><time>2026-04-30T13:37:54.944Z</time></trkpt><trkpt lat="39.99695706923498" lon="9.664277405917863"><ele>144.0</ele><time>2026-04-30T13:37:55.944Z</time></trkpt><trkpt lat="39.99697495823974" lon="9.664051214896139"><ele>144.0</ele><time>2026-04-30T13:37:56.944Z</time></trkpt><trkpt lat="39.996989574879244" lon="9.663849562856962"><ele>144.0</ele><time>2026-04-30T13:37:57.944Z</time></trkpt><trkpt lat="39.996968270818805" lon="9.663635245262808"><ele>144.0</ele><time>2026-04-30T13:37:58.944Z</time></trkpt><trkpt lat="39.99688102430464" lon="9.663418675370101"><ele>138.0</ele><time>2026-04-30T13:37:59.944Z</time></trkpt><trkpt lat="39.996740926140696" lon="9.663213814059388"><ele>132.0</ele><time>2026-04-30T13:38:00.944Z</time></trkpt><trkpt lat="39.99655291403746" lon="9.663015599977657"><ele>132.0</ele><time>2026-04-30T13:38:01.944Z</time></trkpt><trkpt lat="39.99639518846245" lon="9.66282958010815"><ele>132.0</ele><time>2026-04-30T13:38:02.944Z</time></trkpt><trkpt lat="39.99628391716578" lon="9.66268390186378"><ele>132.0</ele><time>2026-04-30T13:38:03.943Z</time></trkpt><trkpt lat="39.99615123757575" lon="9.662614282428887"><ele>132.66666666666666</ele><time>2026-04-30T13:38:04.944Z</time></trkpt><trkpt lat="39.99598522403263" lon="9.662565380848005"><ele>133.33333333333331</ele><time>2026-04-30T13:38:05.944Z</time></trkpt><trkpt lat="39.995780491534525" lon="9.662537049367058"><ele>134.0</ele><time>2026-04-30T13:38:06.944Z</time></trkpt><trkpt lat="39.9955908126618" lon="9.662509369369277"><ele>133.0</ele><time>2026-04-30T13:38:07.944Z</time></trkpt><trkpt lat="39.995444953484686" lon="9.66249556673192"><ele>132.0</ele><time>2026-04-30T13:38:08.944Z</time></trkpt><trkpt lat="39.99531665540698" lon="9.66245719051678"><ele>131.0</ele><time>2026-04-30T13:38:09.944Z</time></trkpt><trkpt lat="39.9952113881637" lon="9.662409854804759"><ele>130.0</ele><time>2026-04-30T13:38:10.944Z</time></trkpt><trkpt lat="39.995109808582434" lon="9.662331190572948"><ele>130.0</ele><time>2026-04-30T13:38:11.944Z</time></trkpt><trkpt lat="39.99501861747745" lon="9.662226940960522"><ele>130.0</ele><time>2026-04-30T13:38:12.944Z</time></trkpt><trkpt lat="39.99493146230162" lon="9.66211111214833"><ele>130.0</ele><time>2026-04-30T13:38:13.944Z</time></trkpt><trkpt lat="39.99484207531665" lon="9.662017016387122"><ele>130.0</ele><time>2026-04-30T13:38:14.944Z</time></trkpt><trkpt lat="39.994756087479566" lon="9.66193329478461"><ele>128.6</ele><time>2026-04-30T13:38:15.944Z</time></trkpt><trkpt lat="39.99467555525402" lon="9.661841092311498"><ele>127.2</ele><time>2026-04-30T13:38:16.944Z</time></trkpt><trkpt lat="39.9946108131173" lon="9.66173007865634"><ele>125.80000000000001</ele><time>2026-04-30T13:38:17.944Z</time></trkpt><trkpt lat="39.9945816565385" lon="9.661599269668525"><ele>124.4</ele><time>2026-04-30T13:38:18.944Z</time></trkpt><trkpt lat="39.99458931528732" lon="9.661456269197842"><ele>123.0</ele><time>2026-04-30T13:38:19.944Z</time></trkpt><trkpt lat="39.99458813446172" lon="9.66132130180069"><ele>123.0</ele><time>2026-04-30T13:38:20.944Z</time></trkpt><trkpt lat="39.99454794876096" lon="9.661213312729506"><ele>123.00000000000001</ele><time>2026-04-30T13:38:21.944Z</time></trkpt><trkpt lat="39.99446598239553" lon="9.66114442187206"><ele>123.00000000000001</ele><time>2026-04-30T13:38:22.944Z</time></trkpt><trkpt lat="39.994383127840564" lon="9.661083405783735"><ele>123.0</ele><time>2026-04-30T13:38:23.944Z</time></trkpt><trkpt lat="39.99429096822484" lon="9.661027091620559"><ele>123.0</ele><time>2026-04-30T13:38:24.944Z</time></trkpt><trkpt lat="39.99420300749599" lon="9.660961224489434"><ele>119.5</ele><time>2026-04-30T13:38:25.944Z</time></trkpt><trkpt lat="39.99411057046693" lon="9.660893472625922"><ele>116.0</ele><time>2026-04-30T13:38:26.944Z</time></trkpt><trkpt lat="39.994014116742456" lon="9.660808142089506"><ele>112.5</ele><time>2026-04-30T13:38:27.944Z</time></trkpt><trkpt lat="39.99391593696669" lon="9.66070826377497"><ele>109.0</ele><time>2026-04-30T13:38:28.944Z</time></trkpt><trkpt lat="39.99382448125022" lon="9.660589705125378"><ele>109.0</ele><time>2026-04-30T13:38:29.944Z</time></trkpt><trkpt lat="39.99373273868961" lon="9.660467733044444"><ele>109.0</ele><time>2026-04-30T13:38:30.944Z</time></trkpt><trkpt lat="39.993639515367484" lon="9.660351551804618"><ele>109.0</ele><time>2026-04-30T13:38:31.944Z</time></trkpt><trkpt lat="39.99354788198455" lon="9.660239516846996"><ele>109.0</ele><time>2026-04-30T13:38:32.944Z</time></trkpt><trkpt lat="39.99345678618135" lon="9.66012795589696"><ele>108.75</ele><time>2026-04-30T13:38:33.944Z</time></trkpt><trkpt lat="39.99336333639247" lon="9.660024514197545"><ele>108.5</ele><time>2026-04-30T13:38:34.944Z</time></trkpt><trkpt lat="39.99325366549973" lon="9.659934623424666"><ele>108.25</ele><time>2026-04-30T13:38:35.944Z</time></trkpt><trkpt lat="39.99313362373831" lon="9.65985228668466"><ele>108.0</ele><time>2026-04-30T13:38:36.944Z</time></trkpt><trkpt lat="39.99300255685095" lon="9.659771790191744"><ele>106.5</ele><time>2026-04-30T13:38:37.944Z</time></trkpt><trkpt lat="39.99286403092896" lon="9.659694681318685"><ele>105.0</ele><time>2026-04-30T13:38:38.944Z</time></trkpt><trkpt lat="39.9927214872405" lon="9.659626616928662"><ele>103.5</ele><time>2026-04-30T13:38:39.944Z</time></trkpt><trkpt lat="39.992584224576106" lon="9.659563925330133"><ele>102.0</ele><time>2026-04-30T13:38:40.944Z</time></trkpt><trkpt lat="39.99244859954379" lon="9.659493410692857"><ele>101.75</ele><time>2026-04-30T13:38:41.944Z</time></trkpt><trkpt lat="39.99232168239529" lon="9.659418891752017"><ele>101.5</ele><time>2026-04-30T13:38:42.944Z</time></trkpt><trkpt lat="39.992198183774235" lon="9.659336421210686"><ele>101.25</ele><time>2026-04-30T13:38:43.943Z</time></trkpt><trkpt lat="39.99208262328333" lon="9.65925601084704"><ele>101.0</ele><time>2026-04-30T13:38:44.943Z</time></trkpt><trkpt lat="39.99197114931975" lon="9.659172637706693"><ele>101.0</ele><time>2026-04-30T13:38:45.943Z</time></trkpt><trkpt lat="39.99186095291886" lon="9.659090704249785"><ele>101.0</ele><time>2026-04-30T13:38:46.943Z</time></trkpt><trkpt lat="39.991748977393975" lon="9.659013081555674"><ele>101.0</ele><time>2026-04-30T13:38:47.943Z</time></trkpt><trkpt lat="39.991641683543016" lon="9.658930602830894"><ele>101.0</ele><time>2026-04-30T13:38:48.943Z</time></trkpt><trkpt lat="39.99152663664072" lon="9.658847412858382"><ele>99.0</ele><time>2026-04-30T13:38:49.943Z</time></trkpt><trkpt lat="39.99140913556608" lon="9.65876387163144"><ele>97.0</ele><time>2026-04-30T13:38:50.943Z</time></trkpt><trkpt lat="39.99129960297639" lon="9.658674959547877"><ele>95.0</ele><time>2026-04-30T13:38:51.943Z</time></trkpt><trkpt lat="39.99121597627387" lon="9.658560637312714"><ele>93.0</ele><time>2026-04-30T13:38:52.943Z</time></trkpt><trkpt lat="39.99117323182784" lon="9.658421316625017"><ele>93.0</ele><time>2026-04-30T13:38:53.943Z</time></trkpt><trkpt lat="39.99117924688342" lon="9.658275006420716"><ele>93.0</ele><time>2026-04-30T13:38:54.943Z</time></trkpt><trkpt lat="39.99119803129396" lon="9.65807161955913"><ele>93.0</ele><time>2026-04-30T13:38:55.943Z</time></trkpt><trkpt lat="39.99121970192257" lon="9.657849351908741"><ele>93.0</ele><time>2026-04-30T13:38:56.943Z</time></trkpt><trkpt lat="39.99125032930136" lon="9.657648494675602"><ele>89.25</ele><time>2026-04-30T13:38:57.943Z</time></trkpt><trkpt lat="39.9912728475205" lon="9.657465825611736"><ele>85.5</ele><time>2026-04-30T13:38:58.943Z</time></trkpt><trkpt lat="39.99128312456237" lon="9.657309322365343"><ele>81.75</ele><time>2026-04-30T13:38:59.943Z</time></trkpt><trkpt lat="39.99125669541982" lon="9.657173028057738"><ele>78.0</ele><time>2026-04-30T13:39:00.943Z</time></trkpt><trkpt lat="39.991191788676666" lon="9.657063401878851"><ele>78.0</ele><time>2026-04-30T13:39:01.943Z</time></trkpt><trkpt lat="39.99108391855241" lon="9.657013718026493"><ele>78.0</ele><time>2026-04-30T13:39:02.943Z</time></trkpt><trkpt lat="39.99096951081264" lon="9.6570086281889"><ele>78.0</ele><time>2026-04-30T13:39:03.943Z</time></trkpt><trkpt lat="39.99084625316379" lon="9.657056103131456"><ele>78.0</ele><time>2026-04-30T13:39:04.943Z</time></trkpt><trkpt lat="39.990724870860255" lon="9.657106211159924"><ele>80.75</ele><time>2026-04-30T13:39:05.943Z</time></trkpt><trkpt lat="39.990612896009054" lon="9.657131462041281"><ele>83.5</ele><time>2026-04-30T13:39:06.943Z</time></trkpt><trkpt lat="39.990495586192374" lon="9.657125283566646"><ele>86.25</ele><time>2026-04-30T13:39:07.943Z</time></trkpt><trkpt lat="39.9903760441301" lon="9.657106113127815"><ele>89.0</ele><time>2026-04-30T13:39:08.943Z</time></trkpt><trkpt lat="39.9902474892096" lon="9.657069577854529"><ele>89.0</ele><time>2026-04-30T13:39:09.943Z</time></trkpt><trkpt lat="39.990115861480845" lon="9.657022316970425"><ele>89.0</ele><time>2026-04-30T13:39:10.943Z</time></trkpt><trkpt lat="39.98997928378454" lon="9.656975366842087"><ele>89.0</ele><time>2026-04-30T13:39:11.943Z</time></trkpt><trkpt lat="39.98983317199637" lon="9.656925730787744"><ele>89.0</ele><time>2026-04-30T13:39:12.943Z</time></trkpt><trkpt lat="39.98966929227946" lon="9.656884541769541"><ele>86.66666666666667</ele><time>2026-04-30T13:39:13.943Z</time></trkpt><trkpt lat="39.98949187365843" lon="9.656866598827072"><ele>84.33333333333333</ele><time>2026-04-30T13:39:14.943Z</time></trkpt><trkpt lat="39.98931386523786" lon="9.656879574459033"><ele>82.0</ele><time>2026-04-30T13:39:15.943Z</time></trkpt><trkpt lat="39.98913638456642" lon="9.65690638327419"><ele>82.0</ele><time>2026-04-30T13:39:16.943Z</time></trkpt><trkpt lat="39.988957276006076" lon="9.656924314072528"><ele>82.0</ele><time>2026-04-30T13:39:17.943Z</time></trkpt><trkpt lat="39.988788027974174" lon="9.656921965276373"><ele>82.0</ele><time>2026-04-30T13:39:18.943Z</time></trkpt><trkpt lat="39.98863635413031" lon="9.656905330062607"><ele>82.0</ele><time>2026-04-30T13:39:19.943Z</time></trkpt><trkpt lat="39.98848831747862" lon="9.656910569481001"><ele>82.0</ele><time>2026-04-30T13:39:20.943Z</time></trkpt><trkpt lat="39.98833599980695" lon="9.65685913291525"><ele>82.0</ele><time>2026-04-30T13:39:21.943Z</time></trkpt><trkpt lat="39.98819129552276" lon="9.657056208970962"><ele>77.66666666666666</ele><time>2026-04-30T13:39:22.943Z</time></trkpt><trkpt lat="39.98802716681576" lon="9.657191479480323"><ele>73.33333333333333</ele><time>2026-04-30T13:39:23.943Z</time></trkpt><trkpt lat="39.98784677481514" lon="9.657333528813176"><ele>69.0</ele><time>2026-04-30T13:39:24.943Z</time></trkpt><trkpt lat="39.9876309507602" lon="9.657489782058022"><ele>71.5</ele><time>2026-04-30T13:39:25.943Z</time></trkpt><trkpt lat="39.987404197906386" lon="9.657626996461316"><ele>74.0</ele><time>2026-04-30T13:39:26.942Z</time></trkpt><trkpt lat="39.98718414601014" lon="9.657743784324687"><ele>71.33333333333334</ele><time>2026-04-30T13:39:27.942Z</time></trkpt><trkpt lat="39.98697733636933" lon="9.657830798868867"><ele>68.66666666666667</ele><time>2026-04-30T13:39:28.942Z</time></trkpt><trkpt lat="39.986781896619156" lon="9.657899157874416"><ele>66.0</ele><time>2026-04-30T13:39:29.942Z</time></trkpt><trkpt lat="39.986603611817884" lon="9.657958257448326"><ele>66.0</ele><time>2026-04-30T13:39:30.942Z</time></trkpt><trkpt lat="39.986441469965065" lon="9.658036053015296"><ele>66.0</ele><time>2026-04-30T13:39:31.942Z</time></trkpt><trkpt lat="39.98629058052331" lon="9.658171210966131"><ele>66.0</ele><time>2026-04-30T13:39:32.942Z</time></trkpt><trkpt lat="39.98615101449947" lon="9.658385270675588"><ele>65.5</ele><time>2026-04-30T13:39:33.942Z</time></trkpt><trkpt lat="39.98599572509368" lon="9.658671269178862"><ele>65.0</ele><time>2026-04-30T13:39:34.942Z</time></trkpt><trkpt lat="39.98582119955223" lon="9.658959227920931"><ele>65.0</ele><time>2026-04-30T13:39:35.942Z</time></trkpt><trkpt lat="39.98566269203056" lon="9.659210776667589"><ele>65.0</ele><time>2026-04-30T13:39:36.942Z</time></trkpt><trkpt lat="39.985543661496145" lon="9.65941314593018"><ele>65.0</ele><time>2026-04-30T13:39:37.942Z</time></trkpt><trkpt lat="39.98543663428171" lon="9.659570947617206"><ele>64.0</ele><time>2026-04-30T13:39:38.942Z</time></trkpt><trkpt lat="39.9853061438062" lon="9.659688961644937"><ele>63.0</ele><time>2026-04-30T13:39:39.942Z</time></trkpt><trkpt lat="39.98512984808554" lon="9.659766451529567"><ele>62.0</ele><time>2026-04-30T13:39:40.942Z</time></trkpt><trkpt lat="39.984934908550464" lon="9.65987309075827"><ele>62.0</ele><time>2026-04-30T13:39:41.942Z</time></trkpt><trkpt lat="39.98473667265859" lon="9.65998091429253"><ele>62.0</ele><time>2026-04-30T13:39:42.942Z</time></trkpt><trkpt lat="39.98455262517265" lon="9.660127637100095"><ele>62.0</ele><time>2026-04-30T13:39:43.942Z</time></trkpt><trkpt lat="39.98438465351153" lon="9.660330803984106"><ele>62.66666666666667</ele><time>2026-04-30T13:39:44.942Z</time></trkpt><trkpt lat="39.98424022362616" lon="9.660568254690217"><ele>63.33333333333333</ele><time>2026-04-30T13:39:45.942Z</time></trkpt><trkpt lat="39.98412565394124" lon="9.660807511149747"><ele>64.0</ele><time>2026-04-30T13:39:46.942Z</time></trkpt><trkpt lat="39.98403949962755" lon="9.661008025551675"><ele>63.5</ele><time>2026-04-30T13:39:47.942Z</time></trkpt><trkpt lat="39.98394900112818" lon="9.661140622583401"><ele>63.0</ele><time>2026-04-30T13:39:48.942Z</time></trkpt><trkpt lat="39.98383448680523" lon="9.661210040133136"><ele>62.5</ele><time>2026-04-30T13:39:49.942Z</time></trkpt><trkpt lat="39.98368002179516" lon="9.66129788918897"><ele>62.0</ele><time>2026-04-30T13:39:50.942Z</time></trkpt><trkpt lat="39.98347815091129" lon="9.661373808394456"><ele>59.5</ele><time>2026-04-30T13:39:51.942Z</time></trkpt><trkpt lat="39.98324091050711" lon="9.661450607368412"><ele>57.0</ele><time>2026-04-30T13:39:52.942Z</time></trkpt><trkpt lat="39.982974394551576" lon="9.661557207713239"><ele>57.0</ele><time>2026-04-30T13:39:53.942Z</time></trkpt><trkpt lat="39.98268317519518" lon="9.661676987636325"><ele>57.0</ele><time>2026-04-30T13:39:54.942Z</time></trkpt><trkpt lat="39.98241983521591" lon="9.6617938591992"><ele>55.5</ele><time>2026-04-30T13:39:55.942Z</time></trkpt><trkpt lat="39.98218382695659" lon="9.661903421392402"><ele>54.0</ele><time>2026-04-30T13:39:56.942Z</time></trkpt><trkpt lat="39.981963880596446" lon="9.662012367651586"><ele>53.0</ele><time>2026-04-30T13:39:57.942Z</time></trkpt><trkpt lat="39.981782174824836" lon="9.66211759412234"><ele>52.0</ele><time>2026-04-30T13:39:58.942Z</time></trkpt><trkpt lat="39.981625375673715" lon="9.662190577246719"><ele>51.0</ele><time>2026-04-30T13:39:59.943Z</time></trkpt><trkpt lat="39.981483438458845" lon="9.66223057760433"><ele>51.0</ele><time>2026-04-30T13:40:00.942Z</time></trkpt><trkpt lat="39.9813388106496" lon="9.662242832981194"><ele>51.0</ele><time>2026-04-30T13:40:01.942Z</time></trkpt><trkpt lat="39.98117595515069" lon="9.662186152285638"><ele>51.0</ele><time>2026-04-30T13:40:02.942Z</time></trkpt><trkpt lat="39.981020226243636" lon="9.662084752081421"><ele>51.0</ele><time>2026-04-30T13:40:03.942Z</time></trkpt><trkpt lat="39.980876421899694" lon="9.662103747789486"><ele>51.0</ele><time>2026-04-30T13:40:04.942Z</time></trkpt><trkpt lat="39.98074217596975" lon="9.66218442308674"><ele>51.0</ele><time>2026-04-30T13:40:05.943Z</time></trkpt><trkpt lat="39.98061518823748" lon="9.662378512702428"><ele>49.0</ele><time>2026-04-30T13:40:06.942Z</time></trkpt><trkpt lat="39.980472378120446" lon="9.662593524161231"><ele>47.0</ele><time>2026-04-30T13:40:07.942Z</time></trkpt><trkpt lat="39.98030003608833" lon="9.662791419164957"><ele>45.0</ele><time>2026-04-30T13:40:08.942Z</time></trkpt><trkpt lat="39.98010903509013" lon="9.662953101041401"><ele>40.333333333333336</ele><time>2026-04-30T13:40:09.943Z</time></trkpt><trkpt lat="39.97991210521069" lon="9.663097565924202"><ele>35.66666666666667</ele><time>2026-04-30T13:40:10.943Z</time></trkpt><trkpt lat="39.97972548457727" lon="9.663218999620128"><ele>31.0</ele><time>2026-04-30T13:40:11.942Z</time></trkpt><trkpt lat="39.97954737913064" lon="9.663323562651046"><ele>31.0</ele><time>2026-04-30T13:40:12.942Z</time></trkpt><trkpt lat="39.97937198340629" lon="9.663398772596985"><ele>31.0</ele><time>2026-04-30T13:40:13.942Z</time></trkpt><trkpt lat="39.97917376169409" lon="9.66344474034112"><ele>31.0</ele><time>2026-04-30T13:40:14.942Z</time></trkpt><trkpt lat="39.97896471898911" lon="9.663471814516964"><ele>36.333333333333336</ele><time>2026-04-30T13:40:15.942Z</time></trkpt><trkpt lat="39.97875307702072" lon="9.663512240681147"><ele>41.666666666666664</ele><time>2026-04-30T13:40:16.942Z</time></trkpt><trkpt lat="39.978556532602504" lon="9.663571763127711"><ele>47.0</ele><time>2026-04-30T13:40:17.942Z</time></trkpt><trkpt lat="39.97836942034117" lon="9.663600464020151"><ele>44.666666666666664</ele><time>2026-04-30T13:40:18.942Z</time></trkpt><trkpt lat="39.97819190451945" lon="9.663601227391759"><ele>42.333333333333336</ele><time>2026-04-30T13:40:19.942Z</time></trkpt><trkpt lat="39.97803869919446" lon="9.663638224078397"><ele>40.0</ele><time>2026-04-30T13:40:20.942Z</time></trkpt><trkpt lat="39.97790713435787" lon="9.663721209724917"><ele>32.66666666666667</ele><time>2026-04-30T13:40:21.942Z</time></trkpt><trkpt lat="39.97779662918691" lon="9.663866692427609"><ele>25.333333333333336</ele><time>2026-04-30T13:40:22.942Z</time></trkpt><trkpt lat="39.977709802037225" lon="9.664055661721685"><ele>18.0</ele><time>2026-04-30T13:40:23.942Z</time></trkpt><trkpt lat="39.97762436431511" lon="9.664286571525256"><ele>17.333333333333332</ele><time>2026-04-30T13:40:24.942Z</time></trkpt><trkpt lat="39.97753911510552" lon="9.664511336005608"><ele>16.666666666666664</ele><time>2026-04-30T13:40:25.942Z</time></trkpt><trkpt lat="39.97743349839278" lon="9.664727140386237"><ele>16.0</ele><time>2026-04-30T13:40:26.942Z</time></trkpt><trkpt lat="39.97731802059547" lon="9.664917686762433"><ele>16.0</ele><time>2026-04-30T13:40:27.942Z</time></trkpt><trkpt lat="39.97720169583825" lon="9.665068030026584"><ele>16.0</ele><time>2026-04-30T13:40:28.942Z</time></trkpt><trkpt lat="39.97707941629267" lon="9.6651719659505"><ele>16.0</ele><time>2026-04-30T13:40:29.942Z</time></trkpt><trkpt lat="39.97695695877439" lon="9.665207358084704"><ele>16.0</ele><time>2026-04-30T13:40:30.942Z</time></trkpt><trkpt lat="39.97682862910066" lon="9.665154071326558"><ele>17.0</ele><time>2026-04-30T13:40:31.942Z</time></trkpt><trkpt lat="39.976658895511456" lon="9.665103255762558"><ele>18.0</ele><time>2026-04-30T13:40:32.942Z</time></trkpt><trkpt lat="39.97646866421065" lon="9.665061004615072"><ele>19.0</ele><time>2026-04-30T13:40:33.942Z</time></trkpt><trkpt lat="39.976282462991115" lon="9.665001006120018"><ele>19.0</ele><time>2026-04-30T13:40:34.941Z</time></trkpt><trkpt lat="39.97611029820947" lon="9.664929443789921"><ele>19.0</ele><time>2026-04-30T13:40:35.941Z</time></trkpt><trkpt lat="39.975949032936754" lon="9.664843388788915"><ele>19.0</ele><time>2026-04-30T13:40:36.941Z</time></trkpt><trkpt lat="39.975797591235775" lon="9.664704629203843"><ele>16.5</ele><time>2026-04-30T13:40:37.941Z</time></trkpt><trkpt lat="39.97566576400362" lon="9.664586212189688"><ele>14.0</ele><time>2026-04-30T13:40:38.941Z</time></trkpt><trkpt lat="39.97555360891064" lon="9.664482278552025"><ele>11.5</ele><time>2026-04-30T13:40:39.941Z</time></trkpt><trkpt lat="39.97545563293342" lon="9.664389301742267"><ele>9.0</ele><time>2026-04-30T13:40:40.941Z</time></trkpt><trkpt lat="39.97537043617132" lon="9.664313429163517"><ele>8.8</ele><time>2026-04-30T13:40:41.941Z</time></trkpt><trkpt lat="39.97529183928608" lon="9.664240406391398"><ele>8.600000000000001</ele><time>2026-04-30T13:40:42.941Z</time></trkpt><trkpt lat="39.97521336095796" lon="9.664172138249288"><ele>8.4</ele><time>2026-04-30T13:40:43.941Z</time></trkpt><trkpt lat="39.975139821475196" lon="9.664102829926048"><ele>8.200000000000001</ele><time>2026-04-30T13:40:44.941Z</time></trkpt><trkpt lat="39.97506603387782" lon="9.664039865989611"><ele>8.0</ele><time>2026-04-30T13:40:45.941Z</time></trkpt><trkpt lat="39.97498055050115" lon="9.66397166042486"><ele>7.75</ele><time>2026-04-30T13:40:46.941Z</time></trkpt><trkpt lat="39.9748891156854" lon="9.663897342875876"><ele>7.5</ele><time>2026-04-30T13:40:47.941Z</time></trkpt><trkpt lat="39.97478244687527" lon="9.663814981745613"><ele>7.25</ele><time>2026-04-30T13:40:48.941Z</time></trkpt><trkpt lat="39.974670551179706" lon="9.663739443447321"><ele>7.0</ele><time>2026-04-30T13:40:49.941Z</time></trkpt><trkpt lat="39.97454954343216" lon="9.663669897626235"><ele>7.0</ele><time>2026-04-30T13:40:50.941Z</time></trkpt><trkpt lat="39.97442531607452" lon="9.663610508343579"><ele>7.0</ele><time>2026-04-30T13:40:51.941Z</time></trkpt><trkpt lat="39.97430571700398" lon="9.663568804472487"><ele>7.0</ele><time>2026-04-30T13:40:52.941Z</time></trkpt><trkpt lat="39.974179863227626" lon="9.663531706028422"><ele>7.0</ele><time>2026-04-30T13:40:53.941Z</time></trkpt><trkpt lat="39.974052950077315" lon="9.663502229398945"><ele>7.25</ele><time>2026-04-30T13:40:54.941Z</time></trkpt><trkpt lat="39.973934445469304" lon="9.663478583797025"><ele>7.5</ele><time>2026-04-30T13:40:55.941Z</time></trkpt><trkpt lat="39.97381449882091" lon="9.663459380373066"><ele>7.75</ele><time>2026-04-30T13:40:56.941Z</time></trkpt><trkpt lat="39.97369573786187" lon="9.663452648177946"><ele>8.0</ele><time>2026-04-30T13:40:57.941Z</time></trkpt><trkpt lat="39.973580642348175" lon="9.663452761844008"><ele>8.0</ele><time>2026-04-30T13:40:58.941Z</time></trkpt><trkpt lat="39.97346327771448" lon="9.663463740509002"><ele>8.0</ele><time>2026-04-30T13:40:59.941Z</time></trkpt><trkpt lat="39.9733473146639" lon="9.66348164683826"><ele>8.0</ele><time>2026-04-30T13:41:00.941Z</time></trkpt><trkpt lat="39.97323131707646" lon="9.663509086800381"><ele>8.0</ele><time>2026-04-30T13:41:01.941Z</time></trkpt><trkpt lat="39.97311152974313" lon="9.663544996328186"><ele>7.75</ele><time>2026-04-30T13:41:02.941Z</time></trkpt><trkpt lat="39.97298891824297" lon="9.66358741611273"><ele>7.5</ele><time>2026-04-30T13:41:03.941Z</time></trkpt><trkpt lat="39.97286704954219" lon="9.66363345948041"><ele>7.25</ele><time>2026-04-30T13:41:04.941Z</time></trkpt><trkpt lat="39.97274699556086" lon="9.663682295711217"><ele>7.0</ele><time>2026-04-30T13:41:05.941Z</time></trkpt><trkpt lat="39.97262820710499" lon="9.663727290060473"><ele>6.75</ele><time>2026-04-30T13:41:06.941Z</time></trkpt><trkpt lat="39.97250317507953" lon="9.663774214894953"><ele>6.5</ele><time>2026-04-30T13:41:07.941Z</time></trkpt><trkpt lat="39.97237378932189" lon="9.663823628093715"><ele>6.25</ele><time>2026-04-30T13:41:08.941Z</time></trkpt><trkpt lat="39.97225099544666" lon="9.663869980945162"><ele>6.0</ele><time>2026-04-30T13:41:09.941Z</time></trkpt><trkpt lat="39.97212886228729" lon="9.663919523493261"><ele>6.0</ele><time>2026-04-30T13:41:10.941Z</time></trkpt><trkpt lat="39.972016124273594" lon="9.663959849938923"><ele>6.0</ele><time>2026-04-30T13:41:11.941Z</time></trkpt><trkpt lat="39.971897793263054" lon="9.664006793424223"><ele>6.0</ele><time>2026-04-30T13:41:12.941Z</time></trkpt><trkpt lat="39.97177145701999" lon="9.664042530027318"><ele>6.0</ele><time>2026-04-30T13:41:13.941Z</time></trkpt><trkpt lat="39.9716431186902" lon="9.664066182766511"><ele>7.75</ele><time>2026-04-30T13:41:14.941Z</time></trkpt><trkpt lat="39.97151481445044" lon="9.664051793206145"><ele>9.5</ele><time>2026-04-30T13:41:15.941Z</time></trkpt><trkpt lat="39.97139832565531" lon="9.66400705052169"><ele>11.25</ele><time>2026-04-30T13:41:16.941Z</time></trkpt><trkpt lat="39.97128623588535" lon="9.663928176082718"><ele>13.0</ele><time>2026-04-30T13:41:17.941Z</time></trkpt><trkpt lat="39.97118721230817" lon="9.66381745444412"><ele>13.0</ele><time>2026-04-30T13:41:18.94Z</time></trkpt><trkpt lat="39.971087520031475" lon="9.663703240604976"><ele>13.0</ele><time>2026-04-30T13:41:19.94Z</time></trkpt><trkpt lat="39.970998308660384" lon="9.663587238397216"><ele>13.0</ele><time>2026-04-30T13:41:20.94Z</time></trkpt><trkpt lat="39.97091017023853" lon="9.663486021516379"><ele>13.0</ele><time>2026-04-30T13:41:21.94Z</time></trkpt><trkpt lat="39.970829147780634" lon="9.663382120200986"><ele>14.0</ele><time>2026-04-30T13:41:22.94Z</time></trkpt><trkpt lat="39.97074411876134" lon="9.66328479898095"><ele>15.0</ele><time>2026-04-30T13:41:23.94Z</time></trkpt><trkpt lat="39.97065668692716" lon="9.663183045031312"><ele>16.0</ele><time>2026-04-30T13:41:24.94Z</time></trkpt><trkpt lat="39.97056415293264" lon="9.663074066901341"><ele>17.0</ele><time>2026-04-30T13:41:25.94Z</time></trkpt><trkpt lat="39.970472164248775" lon="9.662963083717361"><ele>17.0</ele><time>2026-04-30T13:41:26.94Z</time></trkpt><trkpt lat="39.970401287370656" lon="9.662818817503437"><ele>17.0</ele><time>2026-04-30T13:41:27.94Z</time></trkpt><trkpt lat="39.970335197180155" lon="9.66266148291449"><ele>17.0</ele><time>2026-04-30T13:41:28.94Z</time></trkpt><trkpt lat="39.97029505473458" lon="9.662489900618422"><ele>17.0</ele><time>2026-04-30T13:41:29.94Z</time></trkpt><trkpt lat="39.97026389859502" lon="9.662297919309147"><ele>17.0</ele><time>2026-04-30T13:41:30.94Z</time></trkpt><trkpt lat="39.97025396678658" lon="9.662104154275623"><ele>17.0</ele><time>2026-04-30T13:41:31.94Z</time></trkpt><trkpt lat="39.9702557418647" lon="9.66192568467819"><ele>17.0</ele><time>2026-04-30T13:41:32.94Z</time></trkpt><trkpt lat="39.970247869059804" lon="9.661765744326773"><ele>17.0</ele><time>2026-04-30T13:41:33.94Z</time></trkpt><trkpt lat="39.970225319724676" lon="9.66162105855973"><ele>17.2</ele><time>2026-04-30T13:41:34.94Z</time></trkpt><trkpt lat="39.97016632572587" lon="9.661515485813217"><ele>17.4</ele><time>2026-04-30T13:41:35.94Z</time></trkpt><trkpt lat="39.970076234194515" lon="9.661462604680535"><ele>17.6</ele><time>2026-04-30T13:41:36.94Z</time></trkpt><trkpt lat="39.96996495875391" lon="9.661409438617941"><ele>17.8</ele><time>2026-04-30T13:41:37.94Z</time></trkpt><trkpt lat="39.96986541121113" lon="9.661355259487458"><ele>18.0</ele><time>2026-04-30T13:41:38.94Z</time></trkpt><trkpt lat="39.96976316966991" lon="9.661277098568227"><ele>17.0</ele><time>2026-04-30T13:41:39.94Z</time></trkpt><trkpt lat="39.96966506124046" lon="9.66120384416481"><ele>16.0</ele><time>2026-04-30T13:41:40.94Z</time></trkpt><trkpt lat="39.969563034197776" lon="9.661137905082187"><ele>15.0</ele><time>2026-04-30T13:41:41.94Z</time></trkpt><trkpt lat="39.969477060600376" lon="9.661061130608557"><ele>14.0</ele><time>2026-04-30T13:41:42.94Z</time></trkpt><trkpt lat="39.96938802699477" lon="9.660998012500446"><ele>13.0</ele><time>2026-04-30T13:41:43.94Z</time></trkpt><trkpt lat="39.9692994696317" lon="9.660935073938257"><ele>13.0</ele><time>2026-04-30T13:41:44.94Z</time></trkpt><trkpt lat="39.969210701417694" lon="9.660871355899001"><ele>13.0</ele><time>2026-04-30T13:41:45.94Z</time></trkpt><trkpt lat="39.96911797223626" lon="9.6608062532005"><ele>13.0</ele><time>2026-04-30T13:41:46.94Z</time></trkpt><trkpt lat="39.96902254998464" lon="9.660746042513109"><ele>13.0</ele><time>2026-04-30T13:41:47.94Z</time></trkpt><trkpt lat="39.968929374338764" lon="9.660691537157838"><ele>13.0</ele><time>2026-04-30T13:41:48.94Z</time></trkpt><trkpt lat="39.96883916050728" lon="9.660629993181768"><ele>12.0</ele><time>2026-04-30T13:41:49.94Z</time></trkpt><trkpt lat="39.9687499274625" lon="9.660561656029492"><ele>11.0</ele><time>2026-04-30T13:41:50.94Z</time></trkpt><trkpt lat="39.96866717780021" lon="9.660496374392665"><ele>10.0</ele><time>2026-04-30T13:41:51.94Z</time></trkpt><trkpt lat="39.9685864597441" lon="9.660442142279235"><ele>9.0</ele><time>2026-04-30T13:41:52.94Z</time></trkpt><trkpt lat="39.968507741029384" lon="9.660386926991894"><ele>8.0</ele><time>2026-04-30T13:41:53.94Z</time></trkpt><trkpt lat="39.9684332080061" lon="9.660336472898798"><ele>8.0</ele><time>2026-04-30T13:41:54.94Z</time></trkpt><trkpt lat="39.96835914337364" lon="9.660283988118735"><ele>8.0</ele><time>2026-04-30T13:41:55.94Z</time></trkpt><trkpt lat="39.96827987186682" lon="9.660226700294034"><ele>8.0</ele><time>2026-04-30T13:41:56.94Z</time></trkpt><trkpt lat="39.968197312092286" lon="9.660169217602432"><ele>8.0</ele><time>2026-04-30T13:41:57.94Z</time></trkpt><trkpt lat="39.96811030644631" lon="9.660108485560764"><ele>8.0</ele><time>2026-04-30T13:41:58.94Z</time></trkpt><trkpt lat="39.96802445878368" lon="9.66004634279479"><ele>8.0</ele><time>2026-04-30T13:41:59.94Z</time></trkpt><trkpt lat="39.9679386881902" lon="9.659981782218777"><ele>8.0</ele><time>2026-04-30T13:42:00.94Z</time></trkpt><trkpt lat="39.96785219944446" lon="9.659922978441202"><ele>8.0</ele><time>2026-04-30T13:42:01.939Z</time></trkpt><trkpt lat="39.967769001538485" lon="9.6598654883057"><ele>8.0</ele><time>2026-04-30T13:42:02.939Z</time></trkpt><trkpt lat="39.967688785833154" lon="9.65980899243653"><ele>8.0</ele><time>2026-04-30T13:42:03.939Z</time></trkpt><trkpt lat="39.96760910705949" lon="9.659751331609538"><ele>8.0</ele><time>2026-04-30T13:42:04.939Z</time></trkpt><trkpt lat="39.96752735066342" lon="9.659699475225409"><ele>8.0</ele><time>2026-04-30T13:42:05.941Z</time></trkpt><trkpt lat="39.96744744899174" lon="9.659646803129974"><ele>8.0</ele><time>2026-04-30T13:42:06.941Z</time></trkpt><trkpt lat="39.967363477610796" lon="9.659590453599947"><ele>8.0</ele><time>2026-04-30T13:42:07.941Z</time></trkpt><trkpt lat="39.96728121896274" lon="9.659531702095869"><ele>8.0</ele><time>2026-04-30T13:42:08.941Z</time></trkpt><trkpt lat="39.967198965948874" lon="9.659467699669555"><ele>7.800000000000001</ele><time>2026-04-30T13:42:09.941Z</time></trkpt><trkpt lat="39.967111598862786" lon="9.659405543216993"><ele>7.6000000000000005</ele><time>2026-04-30T13:42:10.941Z</time></trkpt><trkpt lat="39.967022222189605" lon="9.659340955560348"><ele>7.3999999999999995</ele><time>2026-04-30T13:42:11.941Z</time></trkpt><trkpt lat="39.9669296415107" lon="9.659275556510277"><ele>7.199999999999999</ele><time>2026-04-30T13:42:12.941Z</time></trkpt><trkpt lat="39.966831148717375" lon="9.659206390440252"><ele>7.0</ele><time>2026-04-30T13:42:13.941Z</time></trkpt><trkpt lat="39.966727854791685" lon="9.659135746564681"><ele>6.5</ele><time>2026-04-30T13:42:14.941Z</time></trkpt><trkpt lat="39.96662375996089" lon="9.659064910267599"><ele>6.0</ele><time>2026-04-30T13:42:15.94Z</time></trkpt><trkpt lat="39.96651718554895" lon="9.658991274831159"><ele>5.5</ele><time>2026-04-30T13:42:16.94Z</time></trkpt><trkpt lat="39.96641120588533" lon="9.658918854946577"><ele>5.0</ele><time>2026-04-30T13:42:17.94Z</time></trkpt><trkpt lat="39.9663095595584" lon="9.658846199768258"><ele>5.0</ele><time>2026-04-30T13:42:18.94Z</time></trkpt><trkpt lat="39.96621962209709" lon="9.658781777470733"><ele>5.0</ele><time>2026-04-30T13:42:19.94Z</time></trkpt><trkpt lat="39.96613447783756" lon="9.658724212027966"><ele>5.0</ele><time>2026-04-30T13:42:20.94Z</time></trkpt><trkpt lat="39.96605502062932" lon="9.658666628507206"><ele>5.0</ele><time>2026-04-30T13:42:21.94Z</time></trkpt><trkpt lat="39.96597736338855" lon="9.658612056438054"><ele>5.0</ele><time>2026-04-30T13:42:22.94Z</time></trkpt><trkpt lat="39.96589552714369" lon="9.658555239152054"><ele>5.2</ele><time>2026-04-30T13:42:23.94Z</time></trkpt><trkpt lat="39.96581110869262" lon="9.658497387214359"><ele>5.4</ele><time>2026-04-30T13:42:24.94Z</time></trkpt><trkpt lat="39.96572150191242" lon="9.658438769466171"><ele>5.6</ele><time>2026-04-30T13:42:25.94Z</time></trkpt><trkpt lat="39.96563098956419" lon="9.658376747582787"><ele>5.8</ele><time>2026-04-30T13:42:26.94Z</time></trkpt><trkpt lat="39.96554116230058" lon="9.658313874007323"><ele>6.0</ele><time>2026-04-30T13:42:27.94Z</time></trkpt><trkpt lat="39.96545703225669" lon="9.658257386612776"><ele>6.0</ele><time>2026-04-30T13:42:28.94Z</time></trkpt><trkpt lat="39.96538633995103" lon="9.658206217889802"><ele>6.0</ele><time>2026-04-30T13:42:29.94Z</time></trkpt><trkpt lat="39.96531950785167" lon="9.658157242522256"><ele>6.0</ele><time>2026-04-30T13:42:30.94Z</time></trkpt><trkpt lat="39.96525559891302" lon="9.658111439576603"><ele>6.0</ele><time>2026-04-30T13:42:31.94Z</time></trkpt><trkpt lat="39.96519729845063" lon="9.65807207830383"><ele>6.0</ele><time>2026-04-30T13:42:32.94Z</time></trkpt><trkpt lat="39.965081542995215" lon="9.6579982019891"><ele>6.0</ele><time>2026-04-30T13:42:34.94Z</time></trkpt><trkpt lat="39.96501749157482" lon="9.65795324876648"><ele>6.666666666666667</ele><time>2026-04-30T13:42:35.94Z</time></trkpt><trkpt lat="39.96494796444499" lon="9.657906041009102"><ele>7.333333333333334</ele><time>2026-04-30T13:42:36.94Z</time></trkpt><trkpt lat="39.964872938254935" lon="9.657854287721916"><ele>8.0</ele><time>2026-04-30T13:42:37.94Z</time></trkpt><trkpt lat="39.96479019802947" lon="9.657797892860412"><ele>8.666666666666668</ele><time>2026-04-30T13:42:38.94Z</time></trkpt><trkpt lat="39.964704687755884" lon="9.657743496743453"><ele>9.333333333333334</ele><time>2026-04-30T13:42:39.94Z</time></trkpt><trkpt lat="39.96462803975145" lon="9.657676175559905"><ele>10.0</ele><time>2026-04-30T13:42:40.94Z</time></trkpt><trkpt lat="39.964544441613604" lon="9.657616058929676"><ele>10.6</ele><time>2026-04-30T13:42:41.94Z</time></trkpt><trkpt lat="39.96445919757209" lon="9.657554182543498"><ele>11.2</ele><time>2026-04-30T13:42:42.94Z</time></trkpt><trkpt lat="39.964362921085474" lon="9.657503661985569"><ele>11.8</ele><time>2026-04-30T13:42:43.94Z</time></trkpt><trkpt lat="39.96426157259598" lon="9.657455212565916"><ele>12.4</ele><time>2026-04-30T13:42:44.94Z</time></trkpt><trkpt lat="39.96414311746784" lon="9.657421622804256"><ele>13.0</ele><time>2026-04-30T13:42:45.94Z</time></trkpt><trkpt lat="39.964024736988875" lon="9.657394373926797"><ele>13.5</ele><time>2026-04-30T13:42:46.94Z</time></trkpt><trkpt lat="39.96389750111303" lon="9.657393295387182"><ele>14.0</ele><time>2026-04-30T13:42:47.94Z</time></trkpt><trkpt lat="39.96376258371476" lon="9.657398389410677"><ele>14.5</ele><time>2026-04-30T13:42:48.94Z</time></trkpt><trkpt lat="39.96361498627465" lon="9.657404257466997"><ele>15.0</ele><time>2026-04-30T13:42:49.939Z</time></trkpt><trkpt lat="39.96345979001943" lon="9.657412816869407"><ele>13.0</ele><time>2026-04-30T13:42:50.939Z</time></trkpt><trkpt lat="39.96329852966272" lon="9.657417534179492"><ele>11.0</ele><time>2026-04-30T13:42:51.939Z</time></trkpt><trkpt lat="39.96314058791078" lon="9.65742352539245"><ele>9.0</ele><time>2026-04-30T13:42:52.939Z</time></trkpt><trkpt lat="39.96298574080529" lon="9.657430944279707"><ele>9.0</ele><time>2026-04-30T13:42:53.939Z</time></trkpt><trkpt lat="39.962831943351055" lon="9.65743942451706"><ele>9.0</ele><time>2026-04-30T13:42:54.939Z</time></trkpt><trkpt lat="39.96266343238892" lon="9.657426061928048"><ele>9.0</ele><time>2026-04-30T13:42:55.939Z</time></trkpt><trkpt lat="39.96249115780225" lon="9.657408947279798"><ele>9.333333333333334</ele><time>2026-04-30T13:42:56.939Z</time></trkpt><trkpt lat="39.96231298473626" lon="9.657389068030342"><ele>9.666666666666668</ele><time>2026-04-30T13:42:57.939Z</time></trkpt><trkpt lat="39.962130790228905" lon="9.65735516543514"><ele>10.0</ele><time>2026-04-30T13:42:58.939Z</time></trkpt><trkpt lat="39.9619461547828" lon="9.657303086136196"><ele>10.0</ele><time>2026-04-30T13:42:59.939Z</time></trkpt><trkpt lat="39.96176302299683" lon="9.657243374459501"><ele>10.0</ele><time>2026-04-30T13:43:00.939Z</time></trkpt><trkpt lat="39.96158510114242" lon="9.657170550583743"><ele>10.0</ele><time>2026-04-30T13:43:01.939Z</time></trkpt><trkpt lat="39.96140365686822" lon="9.657083712149396"><ele>9.666666666666668</ele><time>2026-04-30T13:43:02.939Z</time></trkpt><trkpt lat="39.96121794371044" lon="9.65698504635789"><ele>9.333333333333334</ele><time>2026-04-30T13:43:03.939Z</time></trkpt><trkpt lat="39.96102800320048" lon="9.656870164267351"><ele>9.0</ele><time>2026-04-30T13:43:04.939Z</time></trkpt><trkpt lat="39.96083774173488" lon="9.656747135337113"><ele>9.0</ele><time>2026-04-30T13:43:05.939Z</time></trkpt><trkpt lat="39.960644981145855" lon="9.656620185601934"><ele>9.0</ele><time>2026-04-30T13:43:06.939Z</time></trkpt><trkpt lat="39.960452232559085" lon="9.656488649001547"><ele>9.0</ele><time>2026-04-30T13:43:07.939Z</time></trkpt><trkpt lat="39.96026230620845" lon="9.656360689659339"><ele>9.0</ele><time>2026-04-30T13:43:08.939Z</time></trkpt><trkpt lat="39.96006998965199" lon="9.656229274278887"><ele>9.0</ele><time>2026-04-30T13:43:09.939Z</time></trkpt><trkpt lat="39.9598740293131" lon="9.656096880502444"><ele>9.0</ele><time>2026-04-30T13:43:10.939Z</time></trkpt><trkpt lat="39.95967187408527" lon="9.655953753503564"><ele>9.0</ele><time>2026-04-30T13:43:11.939Z</time></trkpt><trkpt lat="39.95947001283735" lon="9.655814840926348"><ele>9.0</ele><time>2026-04-30T13:43:12.939Z</time></trkpt><trkpt lat="39.95926035346104" lon="9.655669933452607"><ele>8.0</ele><time>2026-04-30T13:43:13.939Z</time></trkpt><trkpt lat="39.95904732809025" lon="9.655526444531624"><ele>7.0</ele><time>2026-04-30T13:43:14.939Z</time></trkpt><trkpt lat="39.9588360161838" lon="9.655379914683625"><ele>6.5</ele><time>2026-04-30T13:43:15.939Z</time></trkpt><trkpt lat="39.95862328835236" lon="9.65523581015624"><ele>6.0</ele><time>2026-04-30T13:43:16.939Z</time></trkpt><trkpt lat="39.958410747484415" lon="9.65508784244259"><ele>7.0</ele><time>2026-04-30T13:43:17.939Z</time></trkpt><trkpt lat="39.958196474709126" lon="9.654939122822915"><ele>8.0</ele><time>2026-04-30T13:43:18.939Z</time></trkpt><trkpt lat="39.95798346407642" lon="9.654790029338939"><ele>8.0</ele><time>2026-04-30T13:43:19.939Z</time></trkpt><trkpt lat="39.957770062501204" lon="9.654646142147454"><ele>8.0</ele><time>2026-04-30T13:43:20.939Z</time></trkpt><trkpt lat="39.95755703543443" lon="9.65449942335916"><ele>8.0</ele><time>2026-04-30T13:43:21.939Z</time></trkpt><trkpt lat="39.9573425147974" lon="9.65435528404949"><ele>8.0</ele><time>2026-04-30T13:43:22.939Z</time></trkpt><trkpt lat="39.95712558209115" lon="9.654207648353568"><ele>8.0</ele><time>2026-04-30T13:43:23.939Z</time></trkpt><trkpt lat="39.956913694446165" lon="9.65406298447875"><ele>8.0</ele><time>2026-04-30T13:43:24.939Z</time></trkpt><trkpt lat="39.956698883237664" lon="9.653914886904653"><ele>8.0</ele><time>2026-04-30T13:43:25.939Z</time></trkpt><trkpt lat="39.95648761596117" lon="9.653767549552212"><ele>8.0</ele><time>2026-04-30T13:43:26.939Z</time></trkpt><trkpt lat="39.95627510430759" lon="9.653620605425695"><ele>7.5</ele><time>2026-04-30T13:43:27.939Z</time></trkpt><trkpt lat="39.95606695590175" lon="9.653475974965438"><ele>7.0</ele><time>2026-04-30T13:43:28.939Z</time></trkpt><trkpt lat="39.95586914810205" lon="9.653341201413644"><ele>7.0</ele><time>2026-04-30T13:43:29.939Z</time></trkpt><trkpt lat="39.95567327609433" lon="9.653208421113218"><ele>7.0</ele><time>2026-04-30T13:43:30.939Z</time></trkpt><trkpt lat="39.955475874749965" lon="9.653074762273063"><ele>7.0</ele><time>2026-04-30T13:43:31.938Z</time></trkpt><trkpt lat="39.95528728068739" lon="9.652942658932211"><ele>7.0</ele><time>2026-04-30T13:43:32.938Z</time></trkpt><trkpt lat="39.95509997035864" lon="9.652812910014338"><ele>7.0</ele><time>2026-04-30T13:43:33.938Z</time></trkpt><trkpt lat="39.954910955493816" lon="9.652682112047827"><ele>7.0</ele><time>2026-04-30T13:43:34.938Z</time></trkpt><trkpt lat="39.95471803605987" lon="9.652548374395307"><ele>7.666666666666667</ele><time>2026-04-30T13:43:35.938Z</time></trkpt><trkpt lat="39.95452535602198" lon="9.65241778622177"><ele>8.333333333333334</ele><time>2026-04-30T13:43:36.938Z</time></trkpt><trkpt lat="39.954328255739846" lon="9.652281541922237"><ele>9.0</ele><time>2026-04-30T13:43:37.938Z</time></trkpt><trkpt lat="39.95413518762625" lon="9.652149326782054"><ele>9.0</ele><time>2026-04-30T13:43:38.938Z</time></trkpt><trkpt lat="39.953936044698104" lon="9.652011564684933"><ele>9.0</ele><time>2026-04-30T13:43:39.938Z</time></trkpt><trkpt lat="39.953736834464266" lon="9.65187642396816"><ele>9.0</ele><time>2026-04-30T13:43:40.938Z</time></trkpt><trkpt lat="39.953536112059915" lon="9.651739844243252"><ele>9.0</ele><time>2026-04-30T13:43:41.938Z</time></trkpt><trkpt lat="39.95333558859802" lon="9.651604720954245"><ele>11.0</ele><time>2026-04-30T13:43:42.938Z</time></trkpt><trkpt lat="39.9531357573046" lon="9.651474922879967"><ele>13.0</ele><time>2026-04-30T13:43:43.938Z</time></trkpt><trkpt lat="39.95293812397874" lon="9.651340918815242"><ele>15.0</ele><time>2026-04-30T13:43:44.938Z</time></trkpt><trkpt lat="39.9527479030233" lon="9.651210711896896"><ele>15.0</ele><time>2026-04-30T13:43:45.938Z</time></trkpt><trkpt lat="39.95256531808347" lon="9.651081330395625"><ele>15.0</ele><time>2026-04-30T13:43:46.938Z</time></trkpt><trkpt lat="39.952393000710394" lon="9.650958010870331"><ele>15.0</ele><time>2026-04-30T13:43:47.938Z</time></trkpt><trkpt lat="39.952224392110665" lon="9.650834333423784"><ele>15.0</ele><time>2026-04-30T13:43:48.938Z</time></trkpt><trkpt lat="39.95205218481607" lon="9.650713498016184"><ele>15.0</ele><time>2026-04-30T13:43:49.938Z</time></trkpt><trkpt lat="39.951871199349654" lon="9.650591934466442"><ele>15.0</ele><time>2026-04-30T13:43:50.938Z</time></trkpt><trkpt lat="39.95168978119048" lon="9.650470150902864"><ele>16.0</ele><time>2026-04-30T13:43:51.938Z</time></trkpt><trkpt lat="39.95150778786593" lon="9.650355247366386"><ele>17.0</ele><time>2026-04-30T13:43:52.938Z</time></trkpt><trkpt lat="39.95132232347585" lon="9.650227092022801"><ele>18.0</ele><time>2026-04-30T13:43:53.938Z</time></trkpt><trkpt lat="39.95113396171971" lon="9.650096104732423"><ele>18.0</ele><time>2026-04-30T13:43:54.938Z</time></trkpt><trkpt lat="39.95094607651053" lon="9.649966009187548"><ele>18.0</ele><time>2026-04-30T13:43:55.938Z</time></trkpt><trkpt lat="39.95075524136748" lon="9.649843060563414"><ele>18.0</ele><time>2026-04-30T13:43:56.938Z</time></trkpt><trkpt lat="39.95055897675443" lon="9.649706683223044"><ele>18.333333333333332</ele><time>2026-04-30T13:43:57.938Z</time></trkpt><trkpt lat="39.95036127871846" lon="9.649571580626958"><ele>18.666666666666664</ele><time>2026-04-30T13:43:58.938Z</time></trkpt><trkpt lat="39.95015996891913" lon="9.649440470381737"><ele>19.0</ele><time>2026-04-30T13:43:59.938Z</time></trkpt><trkpt lat="39.949955085102104" lon="9.649316218759918"><ele>20.0</ele><time>2026-04-30T13:44:00.938Z</time></trkpt><trkpt lat="39.94974512771392" lon="9.649199334673085"><ele>21.0</ele><time>2026-04-30T13:44:01.938Z</time></trkpt><trkpt lat="39.94952812592429" lon="9.649088096465507"><ele>21.0</ele><time>2026-04-30T13:44:02.938Z</time></trkpt><trkpt lat="39.94930877067713" lon="9.648989033937953"><ele>21.0</ele><time>2026-04-30T13:44:03.938Z</time></trkpt><trkpt lat="39.94908335188857" lon="9.648907498329287"><ele>20.0</ele><time>2026-04-30T13:44:04.938Z</time></trkpt><trkpt lat="39.948847877548715" lon="9.648839797803825"><ele>19.0</ele><time>2026-04-30T13:44:05.938Z</time></trkpt><trkpt lat="39.94861375580047" lon="9.648787078013996"><ele>19.0</ele><time>2026-04-30T13:44:06.938Z</time></trkpt><trkpt lat="39.94837762693456" lon="9.648739826385798"><ele>19.0</ele><time>2026-04-30T13:44:07.938Z</time></trkpt><trkpt lat="39.948136898998555" lon="9.648701206263596"><ele>20.0</ele><time>2026-04-30T13:44:08.938Z</time></trkpt><trkpt lat="39.94789554758857" lon="9.648668063696958"><ele>21.0</ele><time>2026-04-30T13:44:09.938Z</time></trkpt><trkpt lat="39.947649758174975" lon="9.648634740090507"><ele>22.5</ele><time>2026-04-30T13:44:10.938Z</time></trkpt><trkpt lat="39.94740600188844" lon="9.648594711864591"><ele>24.0</ele><time>2026-04-30T13:44:11.94Z</time></trkpt><trkpt lat="39.947156237788505" lon="9.648551907267793"><ele>24.0</ele><time>2026-04-30T13:44:12.939Z</time></trkpt><trkpt lat="39.94691343922251" lon="9.648518041771904"><ele>24.0</ele><time>2026-04-30T13:44:13.939Z</time></trkpt><trkpt lat="39.94666565342606" lon="9.648488355145084"><ele>22.0</ele><time>2026-04-30T13:44:14.939Z</time></trkpt><trkpt lat="39.946422122270015" lon="9.648453423529395"><ele>20.0</ele><time>2026-04-30T13:44:15.939Z</time></trkpt><trkpt lat="39.946178417143955" lon="9.648421685990652"><ele>20.0</ele><time>2026-04-30T13:44:16.939Z</time></trkpt><trkpt lat="39.945938331769355" lon="9.648390992233473"><ele>20.0</ele><time>2026-04-30T13:44:17.939Z</time></trkpt><trkpt lat="39.9457029585426" lon="9.648356435240752"><ele>19.0</ele><time>2026-04-30T13:44:18.939Z</time></trkpt><trkpt lat="39.945471740507244" lon="9.648321621561605"><ele>18.0</ele><time>2026-04-30T13:44:19.939Z</time></trkpt><trkpt lat="39.945243905146064" lon="9.648288841911885"><ele>18.666666666666668</ele><time>2026-04-30T13:44:20.939Z</time></trkpt><trkpt lat="39.94502936491643" lon="9.64825907850183"><ele>19.333333333333336</ele><time>2026-04-30T13:44:21.939Z</time></trkpt><trkpt lat="39.944815026131195" lon="9.648232116579521"><ele>20.0</ele><time>2026-04-30T13:44:22.939Z</time></trkpt><trkpt lat="39.94460471378998" lon="9.648203079856488"><ele>20.0</ele><time>2026-04-30T13:44:23.939Z</time></trkpt><trkpt lat="39.94439850611212" lon="9.648174714706663"><ele>20.0</ele><time>2026-04-30T13:44:24.94Z</time></trkpt><trkpt lat="39.944190098694705" lon="9.64814657995662"><ele>20.0</ele><time>2026-04-30T13:44:25.94Z</time></trkpt><trkpt lat="39.94398115816228" lon="9.648115770596114"><ele>20.333333333333336</ele><time>2026-04-30T13:44:26.94Z</time></trkpt><trkpt lat="39.94377548475653" lon="9.64808282910249"><ele>20.666666666666668</ele><time>2026-04-30T13:44:27.939Z</time></trkpt><trkpt lat="39.94356743698736" lon="9.64805162861277"><ele>21.0</ele><time>2026-04-30T13:44:28.939Z</time></trkpt><trkpt lat="39.94336104330359" lon="9.648022115513346"><ele>22.0</ele><time>2026-04-30T13:44:29.939Z</time></trkpt><trkpt lat="39.94315042845219" lon="9.647991414611448"><ele>23.0</ele><time>2026-04-30T13:44:30.939Z</time></trkpt><trkpt lat="39.942942685107134" lon="9.64796391102178"><ele>24.0</ele><time>2026-04-30T13:44:31.939Z</time></trkpt><trkpt lat="39.94273346399635" lon="9.647937693126268"><ele>24.0</ele><time>2026-04-30T13:44:32.939Z</time></trkpt><trkpt lat="39.942523938811966" lon="9.647910197798955"><ele>24.0</ele><time>2026-04-30T13:44:33.939Z</time></trkpt><trkpt lat="39.9423150660257" lon="9.647883104488532"><ele>24.0</ele><time>2026-04-30T13:44:34.939Z</time></trkpt><trkpt lat="39.94210709480731" lon="9.64785301053624"><ele>24.0</ele><time>2026-04-30T13:44:35.939Z</time></trkpt><trkpt lat="39.94189747508439" lon="9.647820268507116"><ele>24.0</ele><time>2026-04-30T13:44:36.939Z</time></trkpt><trkpt lat="39.941690569871795" lon="9.647790483346771"><ele>24.0</ele><time>2026-04-30T13:44:37.939Z</time></trkpt><trkpt lat="39.94148830238923" lon="9.647761735100291"><ele>24.333333333333336</ele><time>2026-04-30T13:44:38.939Z</time></trkpt><trkpt lat="39.941293698287424" lon="9.647735729402676"><ele>24.666666666666668</ele><time>2026-04-30T13:44:39.939Z</time></trkpt><trkpt lat="39.94110015620111" lon="9.647707038446882"><ele>25.0</ele><time>2026-04-30T13:44:40.939Z</time></trkpt><trkpt lat="39.940905433372116" lon="9.647678419884643"><ele>25.333333333333336</ele><time>2026-04-30T13:44:41.939Z</time></trkpt><trkpt lat="39.94070527106926" lon="9.647647430821817"><ele>25.666666666666664</ele><time>2026-04-30T13:44:42.939Z</time></trkpt><trkpt lat="39.940505074976" lon="9.6476188485392"><ele>26.0</ele><time>2026-04-30T13:44:43.939Z</time></trkpt><trkpt lat="39.940303078343334" lon="9.647590131268604"><ele>26.0</ele><time>2026-04-30T13:44:44.939Z</time></trkpt><trkpt lat="39.940100337099885" lon="9.647567200130437"><ele>26.0</ele><time>2026-04-30T13:44:45.939Z</time></trkpt><trkpt lat="39.93989646190321" lon="9.64754128940198"><ele>26.0</ele><time>2026-04-30T13:44:46.939Z</time></trkpt><trkpt lat="39.93968904054223" lon="9.647510380022549"><ele>26.0</ele><time>2026-04-30T13:44:47.939Z</time></trkpt><trkpt lat="39.93948193939579" lon="9.647482513628832"><ele>26.0</ele><time>2026-04-30T13:44:48.939Z</time></trkpt><trkpt lat="39.93927409208837" lon="9.647459086731802"><ele>26.0</ele><time>2026-04-30T13:44:49.939Z</time></trkpt><trkpt lat="39.93907074781247" lon="9.647434360794477"><ele>26.0</ele><time>2026-04-30T13:44:50.939Z</time></trkpt><trkpt lat="39.93886766532524" lon="9.647408603075048"><ele>26.0</ele><time>2026-04-30T13:44:51.939Z</time></trkpt><trkpt lat="39.93866984468685" lon="9.647374840986348"><ele>26.0</ele><time>2026-04-30T13:44:52.939Z</time></trkpt><trkpt lat="39.938466604253485" lon="9.647345206064161"><ele>26.0</ele><time>2026-04-30T13:44:53.939Z</time></trkpt><trkpt lat="39.9382683934343" lon="9.64731426404669"><ele>26.0</ele><time>2026-04-30T13:44:54.939Z</time></trkpt><trkpt lat="39.9380676540397" lon="9.647283666176236"><ele>26.0</ele><time>2026-04-30T13:44:55.939Z</time></trkpt><trkpt lat="39.937867506167436" lon="9.647259762735684"><ele>26.0</ele><time>2026-04-30T13:44:56.939Z</time></trkpt><trkpt lat="39.93766758523641" lon="9.647234008347159"><ele>26.0</ele><time>2026-04-30T13:44:57.939Z</time></trkpt><trkpt lat="39.93746883210142" lon="9.647203963440196"><ele>26.0</ele><time>2026-04-30T13:44:58.939Z</time></trkpt><trkpt lat="39.93726705987235" lon="9.647172690185592"><ele>25.666666666666664</ele><time>2026-04-30T13:44:59.939Z</time></trkpt><trkpt lat="39.93706712289044" lon="9.647141134038904"><ele>25.333333333333336</ele><time>2026-04-30T13:45:00.939Z</time></trkpt><trkpt lat="39.93686590816085" lon="9.647108709692885"><ele>25.0</ele><time>2026-04-30T13:45:01.939Z</time></trkpt><trkpt lat="39.93666549011791" lon="9.647076599106615"><ele>24.666666666666668</ele><time>2026-04-30T13:45:02.939Z</time></trkpt><trkpt lat="39.93646592764435" lon="9.64704775094925"><ele>24.333333333333336</ele><time>2026-04-30T13:45:03.939Z</time></trkpt><trkpt lat="39.93626889674792" lon="9.64702034681368"><ele>24.0</ele><time>2026-04-30T13:45:04.939Z</time></trkpt><trkpt lat="39.93607576113557" lon="9.646992391017019"><ele>24.333333333333336</ele><time>2026-04-30T13:45:05.939Z</time></trkpt><trkpt lat="39.935880079562985" lon="9.646965732042009"><ele>24.666666666666668</ele><time>2026-04-30T13:45:06.939Z</time></trkpt><trkpt lat="39.93568275385427" lon="9.646937325662057"><ele>25.0</ele><time>2026-04-30T13:45:07.939Z</time></trkpt><trkpt lat="39.93548478995423" lon="9.646909944876525"><ele>26.333333333333336</ele><time>2026-04-30T13:45:08.939Z</time></trkpt><trkpt lat="39.93528612580033" lon="9.646883883794647"><ele>27.666666666666664</ele><time>2026-04-30T13:45:09.939Z</time></trkpt><trkpt lat="39.93508775371628" lon="9.646856132973259"><ele>29.0</ele><time>2026-04-30T13:45:10.938Z</time></trkpt><trkpt lat="39.93488689106419" lon="9.646827469317719"><ele>29.0</ele><time>2026-04-30T13:45:11.938Z</time></trkpt><trkpt lat="39.93468721196114" lon="9.646798110405092"><ele>29.0</ele><time>2026-04-30T13:45:12.938Z</time></trkpt><trkpt lat="39.93448404343536" lon="9.646770712537467"><ele>29.0</ele><time>2026-04-30T13:45:13.938Z</time></trkpt><trkpt lat="39.934282311288804" lon="9.646742694415034"><ele>28.666666666666664</ele><time>2026-04-30T13:45:14.938Z</time></trkpt><trkpt lat="39.93407965563873" lon="9.646717808308"><ele>28.333333333333336</ele><time>2026-04-30T13:45:15.938Z</time></trkpt><trkpt lat="39.93387648547634" lon="9.646690595867774"><ele>28.0</ele><time>2026-04-30T13:45:16.938Z</time></trkpt><trkpt lat="39.933674455524965" lon="9.646662342241424"><ele>28.0</ele><time>2026-04-30T13:45:17.938Z</time></trkpt><trkpt lat="39.933472121541364" lon="9.64663660880787"><ele>28.0</ele><time>2026-04-30T13:45:18.938Z</time></trkpt><trkpt lat="39.93326970762158" lon="9.646607836920943"><ele>28.0</ele><time>2026-04-30T13:45:19.938Z</time></trkpt><trkpt lat="39.933066903763326" lon="9.646578163883397"><ele>27.666666666666668</ele><time>2026-04-30T13:45:20.938Z</time></trkpt><trkpt lat="39.93286136643663" lon="9.64654853233389"><ele>27.333333333333336</ele><time>2026-04-30T13:45:21.938Z</time></trkpt><trkpt lat="39.93265641333134" lon="9.646519206652396"><ele>27.0</ele><time>2026-04-30T13:45:22.938Z</time></trkpt><trkpt lat="39.932453101065605" lon="9.646487974961685"><ele>27.0</ele><time>2026-04-30T13:45:23.938Z</time></trkpt><trkpt lat="39.93224587188177" lon="9.646457667480126"><ele>27.0</ele><time>2026-04-30T13:45:24.938Z</time></trkpt><trkpt lat="39.93203279718846" lon="9.646426487494322"><ele>27.0</ele><time>2026-04-30T13:45:25.938Z</time></trkpt><trkpt lat="39.931814566618144" lon="9.646397004605989"><ele>28.0</ele><time>2026-04-30T13:45:26.938Z</time></trkpt><trkpt lat="39.931593350505594" lon="9.64636492531629"><ele>29.0</ele><time>2026-04-30T13:45:27.938Z</time></trkpt><trkpt lat="39.931370397033376" lon="9.646333257604558"><ele>30.0</ele><time>2026-04-30T13:45:28.938Z</time></trkpt><trkpt lat="39.93113889583287" lon="9.646297904090158"><ele>30.0</ele><time>2026-04-30T13:45:29.938Z</time></trkpt><trkpt lat="39.930900766864895" lon="9.646262367394721"><ele>30.0</ele><time>2026-04-30T13:45:30.938Z</time></trkpt><trkpt lat="39.93065933999622" lon="9.646229273705131"><ele>30.0</ele><time>2026-04-30T13:45:31.938Z</time></trkpt><trkpt lat="39.93041740010549" lon="9.646195745357444"><ele>30.0</ele><time>2026-04-30T13:45:32.938Z</time></trkpt><trkpt lat="39.930172668251764" lon="9.64616495551244"><ele>31.0</ele><time>2026-04-30T13:45:33.938Z</time></trkpt><trkpt lat="39.92992346770119" lon="9.64614237894759"><ele>32.0</ele><time>2026-04-30T13:45:34.938Z</time></trkpt><trkpt lat="39.929668931149095" lon="9.646133603830073"><ele>32.0</ele><time>2026-04-30T13:45:35.938Z</time></trkpt><trkpt lat="39.9294132527562" lon="9.646137840671647"><ele>32.0</ele><time>2026-04-30T13:45:36.938Z</time></trkpt><trkpt lat="39.92915208945336" lon="9.646151154093232"><ele>30.5</ele><time>2026-04-30T13:45:37.938Z</time></trkpt><trkpt lat="39.92888861178112" lon="9.646188479462976"><ele>29.0</ele><time>2026-04-30T13:45:38.938Z</time></trkpt><trkpt lat="39.9286224623707" lon="9.64624253078025"><ele>28.5</ele><time>2026-04-30T13:45:39.938Z</time></trkpt><trkpt lat="39.928355067974195" lon="9.646311924055933"><ele>28.0</ele><time>2026-04-30T13:45:40.938Z</time></trkpt><trkpt lat="39.92808337383831" lon="9.646397432015638"><ele>28.0</ele><time>2026-04-30T13:45:41.938Z</time></trkpt><trkpt lat="39.927804012939994" lon="9.646489569781435"><ele>28.0</ele><time>2026-04-30T13:45:42.938Z</time></trkpt><trkpt lat="39.927513836255486" lon="9.646581458794369"><ele>28.0</ele><time>2026-04-30T13:45:43.938Z</time></trkpt><trkpt lat="39.92724480397767" lon="9.64666644322784"><ele>28.0</ele><time>2026-04-30T13:45:44.938Z</time></trkpt><trkpt lat="39.92700089111653" lon="9.64674422923957"><ele>28.0</ele><time>2026-04-30T13:45:45.938Z</time></trkpt><trkpt lat="39.92676948165858" lon="9.646814048011374"><ele>28.0</ele><time>2026-04-30T13:45:46.938Z</time></trkpt><trkpt lat="39.92655066416114" lon="9.64688023287529"><ele>27.666666666666668</ele><time>2026-04-30T13:45:47.938Z</time></trkpt><trkpt lat="39.92633760230782" lon="9.646940949690842"><ele>27.333333333333336</ele><time>2026-04-30T13:45:48.938Z</time></trkpt><trkpt lat="39.92613495530347" lon="9.64699623396763"><ele>27.0</ele><time>2026-04-30T13:45:49.938Z</time></trkpt><trkpt lat="39.925942145418404" lon="9.647044455791505"><ele>26.0</ele><time>2026-04-30T13:45:50.938Z</time></trkpt><trkpt lat="39.925765657438205" lon="9.647090212761233"><ele>25.0</ele><time>2026-04-30T13:45:51.938Z</time></trkpt><trkpt lat="39.925604502368095" lon="9.647138118127634"><ele>24.0</ele><time>2026-04-30T13:45:52.937Z</time></trkpt><trkpt lat="39.92546606789054" lon="9.64716885744286"><ele>24.0</ele><time>2026-04-30T13:45:53.937Z</time></trkpt><trkpt lat="39.92533600532937" lon="9.647174772182954"><ele>24.0</ele><time>2026-04-30T13:45:54.937Z</time></trkpt><trkpt lat="39.92520150244912" lon="9.647150510734885"><ele>24.0</ele><time>2026-04-30T13:45:55.937Z</time></trkpt><trkpt lat="39.92507086708315" lon="9.647104439811399"><ele>24.0</ele><time>2026-04-30T13:45:56.937Z</time></trkpt><trkpt lat="39.92493827251742" lon="9.647064513870562"><ele>24.0</ele><time>2026-04-30T13:45:57.937Z</time></trkpt><trkpt lat="39.92481148899659" lon="9.647031892415832"><ele>24.0</ele><time>2026-04-30T13:45:58.937Z</time></trkpt><trkpt lat="39.92468534047487" lon="9.646999020691375"><ele>24.0</ele><time>2026-04-30T13:45:59.937Z</time></trkpt><trkpt lat="39.924558624037395" lon="9.64696025655442"><ele>24.0</ele><time>2026-04-30T13:46:00.937Z</time></trkpt><trkpt lat="39.92446367251532" lon="9.646920591614885"><ele>23.6</ele><time>2026-04-30T13:46:01.937Z</time></trkpt><trkpt lat="39.924395215165895" lon="9.646870224722129"><ele>23.2</ele><time>2026-04-30T13:46:02.937Z</time></trkpt><trkpt lat="39.924335635667184" lon="9.646794107196316"><ele>22.8</ele><time>2026-04-30T13:46:03.937Z</time></trkpt><trkpt lat="39.92429274903471" lon="9.646697097097226"><ele>22.400000000000002</ele><time>2026-04-30T13:46:04.937Z</time></trkpt><trkpt lat="39.924253543666474" lon="9.64657890402596"><ele>22.0</ele><time>2026-04-30T13:46:05.937Z</time></trkpt><trkpt lat="39.92420971736267" lon="9.646434625404808"><ele>21.75</ele><time>2026-04-30T13:46:06.937Z</time></trkpt><trkpt lat="39.92416056794652" lon="9.646270852747234"><ele>21.5</ele><time>2026-04-30T13:46:07.937Z</time></trkpt><trkpt lat="39.92411322313774" lon="9.646086924234044"><ele>21.25</ele><time>2026-04-30T13:46:08.937Z</time></trkpt><trkpt lat="39.92405996798892" lon="9.64589113587093"><ele>21.0</ele><time>2026-04-30T13:46:09.937Z</time></trkpt><trkpt lat="39.92400343191974" lon="9.645692575344091"><ele>21.0</ele><time>2026-04-30T13:46:10.937Z</time></trkpt><trkpt lat="39.923945483635926" lon="9.645488736991965"><ele>21.0</ele><time>2026-04-30T13:46:11.937Z</time></trkpt><trkpt lat="39.923887891840295" lon="9.645278341732295"><ele>21.0</ele><time>2026-04-30T13:46:12.937Z</time></trkpt><trkpt lat="39.92382696822087" lon="9.645062103410424"><ele>21.333333333333332</ele><time>2026-04-30T13:46:13.937Z</time></trkpt><trkpt lat="39.923763382965106" lon="9.644832606267574"><ele>21.666666666666664</ele><time>2026-04-30T13:46:14.937Z</time></trkpt><trkpt lat="39.92370334438994" lon="9.644607836034945"><ele>22.0</ele><time>2026-04-30T13:46:15.937Z</time></trkpt><trkpt lat="39.92363702714189" lon="9.644386006253727"><ele>22.666666666666664</ele><time>2026-04-30T13:46:16.937Z</time></trkpt><trkpt lat="39.923575054264155" lon="9.644154593956785"><ele>23.333333333333332</ele><time>2026-04-30T13:46:17.938Z</time></trkpt><trkpt lat="39.92350863446703" lon="9.643925355589637"><ele>24.0</ele><time>2026-04-30T13:46:18.938Z</time></trkpt><trkpt lat="39.92344140733758" lon="9.643702333371"><ele>23.666666666666668</ele><time>2026-04-30T13:46:19.938Z</time></trkpt><trkpt lat="39.92338269494786" lon="9.643499056060255"><ele>23.333333333333336</ele><time>2026-04-30T13:46:20.938Z</time></trkpt><trkpt lat="39.92333850582914" lon="9.643311511786603"><ele>23.0</ele><time>2026-04-30T13:46:21.938Z</time></trkpt><trkpt lat="39.923323883722205" lon="9.643132106583808"><ele>23.0</ele><time>2026-04-30T13:46:22.938Z</time></trkpt><trkpt lat="39.92334284069402" lon="9.642965504464303"><ele>23.0</ele><time>2026-04-30T13:46:23.938Z</time></trkpt><trkpt lat="39.923414898554995" lon="9.642819911743025"><ele>23.0</ele><time>2026-04-30T13:46:24.938Z</time></trkpt><trkpt lat="39.92351954569959" lon="9.64267811522389"><ele>23.0</ele><time>2026-04-30T13:46:25.938Z</time></trkpt><trkpt lat="39.92364307608165" lon="9.642554579956863"><ele>29.0</ele><time>2026-04-30T13:46:26.938Z</time></trkpt><trkpt lat="39.92375686174683" lon="9.642417725802146"><ele>35.0</ele><time>2026-04-30T13:46:27.938Z</time></trkpt><trkpt lat="39.92387030346748" lon="9.642267225573766"><ele>41.0</ele><time>2026-04-30T13:46:28.937Z</time></trkpt><trkpt lat="39.92399443307652" lon="9.642112681106122"><ele>43.666666666666664</ele><time>2026-04-30T13:46:29.938Z</time></trkpt><trkpt lat="39.92412062580963" lon="9.641950933527058"><ele>46.33333333333333</ele><time>2026-04-30T13:46:30.938Z</time></trkpt><trkpt lat="39.92426779424619" lon="9.641777235066424"><ele>49.0</ele><time>2026-04-30T13:46:31.938Z</time></trkpt><trkpt lat="39.924410753437954" lon="9.641594676426228"><ele>49.0</ele><time>2026-04-30T13:46:32.938Z</time></trkpt><trkpt lat="39.924543018996474" lon="9.641382969601585"><ele>49.0</ele><time>2026-04-30T13:46:33.938Z</time></trkpt><trkpt lat="39.924682518959514" lon="9.64116112338372"><ele>49.0</ele><time>2026-04-30T13:46:34.938Z</time></trkpt><trkpt lat="39.924832487691965" lon="9.640913244517623"><ele>42.0</ele><time>2026-04-30T13:46:35.938Z</time></trkpt><trkpt lat="39.925009592143766" lon="9.64064929690275"><ele>35.0</ele><time>2026-04-30T13:46:36.938Z</time></trkpt><trkpt lat="39.925214451807065" lon="9.640381427047851"><ele>36.5</ele><time>2026-04-30T13:46:37.938Z</time></trkpt><trkpt lat="39.925435482155876" lon="9.640116799935807"><ele>38.0</ele><time>2026-04-30T13:46:38.938Z</time></trkpt><trkpt lat="39.92566914013979" lon="9.639864385226934"><ele>38.0</ele><time>2026-04-30T13:46:39.938Z</time></trkpt><trkpt lat="39.925892572353284" lon="9.639611572079469"><ele>38.0</ele><time>2026-04-30T13:46:40.938Z</time></trkpt><trkpt lat="39.926105303712916" lon="9.639390116480435"><ele>40.0</ele><time>2026-04-30T13:46:41.938Z</time></trkpt><trkpt lat="39.92630697230281" lon="9.639182654349732"><ele>42.0</ele><time>2026-04-30T13:46:42.938Z</time></trkpt><trkpt lat="39.92649262857929" lon="9.63898154453598"><ele>42.0</ele><time>2026-04-30T13:46:43.938Z</time></trkpt><trkpt lat="39.92666376813442" lon="9.638771228244515"><ele>42.0</ele><time>2026-04-30T13:46:44.937Z</time></trkpt><trkpt lat="39.92680223840217" lon="9.638539697559969"><ele>41.666666666666664</ele><time>2026-04-30T13:46:45.937Z</time></trkpt><trkpt lat="39.92691507552297" lon="9.638290466832967"><ele>41.33333333333333</ele><time>2026-04-30T13:46:46.937Z</time></trkpt><trkpt lat="39.927002716520356" lon="9.63803887119308"><ele>41.0</ele><time>2026-04-30T13:46:47.937Z</time></trkpt><trkpt lat="39.9270638270798" lon="9.637791236947809"><ele>41.0</ele><time>2026-04-30T13:46:48.937Z</time></trkpt><trkpt lat="39.927091674606636" lon="9.637529015107617"><ele>41.0</ele><time>2026-04-30T13:46:49.937Z</time></trkpt><trkpt lat="39.92708946070831" lon="9.637253253829872"><ele>41.0</ele><time>2026-04-30T13:46:50.937Z</time></trkpt><trkpt lat="39.927067359921494" lon="9.636964991793777"><ele>39.5</ele><time>2026-04-30T13:46:51.937Z</time></trkpt><trkpt lat="39.92705064835567" lon="9.636668847741804"><ele>38.0</ele><time>2026-04-30T13:46:52.937Z</time></trkpt><trkpt lat="39.9270478441527" lon="9.636360813400191"><ele>39.5</ele><time>2026-04-30T13:46:53.937Z</time></trkpt><trkpt lat="39.9270455132011" lon="9.636041262425682"><ele>41.0</ele><time>2026-04-30T13:46:54.937Z</time></trkpt><trkpt lat="39.92704641646321" lon="9.635726631108039"><ele>41.0</ele><time>2026-04-30T13:46:55.937Z</time></trkpt><trkpt lat="39.92704794220036" lon="9.635435170385568"><ele>41.0</ele><time>2026-04-30T13:46:56.937Z</time></trkpt><trkpt lat="39.92704963990803" lon="9.63516504250852"><ele>41.0</ele><time>2026-04-30T13:46:57.937Z</time></trkpt><trkpt lat="39.927052642883936" lon="9.634937298977968"><ele>40.5</ele><time>2026-04-30T13:46:58.937Z</time></trkpt><trkpt lat="39.92703594337335" lon="9.634740022534283"><ele>40.0</ele><time>2026-04-30T13:46:59.937Z</time></trkpt><trkpt lat="39.926985679012795" lon="9.634573079656407"><ele>39.5</ele><time>2026-04-30T13:47:00.937Z</time></trkpt><trkpt lat="39.92689960092252" lon="9.634447168143469"><ele>39.0</ele><time>2026-04-30T13:47:01.937Z</time></trkpt><trkpt lat="39.926762585875636" lon="9.634374692325016"><ele>36.333333333333336</ele><time>2026-04-30T13:47:02.937Z</time></trkpt><trkpt lat="39.92659591990838" lon="9.63430923311261"><ele>33.66666666666667</ele><time>2026-04-30T13:47:03.937Z</time></trkpt><trkpt lat="39.92639338446639" lon="9.6342479099363"><ele>31.0</ele><time>2026-04-30T13:47:04.937Z</time></trkpt><trkpt lat="39.92619541782735" lon="9.634129087598357"><ele>31.0</ele><time>2026-04-30T13:47:05.937Z</time></trkpt><trkpt lat="39.925999304629386" lon="9.633959985271154"><ele>31.0</ele><time>2026-04-30T13:47:06.937Z</time></trkpt><trkpt lat="39.92582403716857" lon="9.633753287503117"><ele>35.0</ele><time>2026-04-30T13:47:07.937Z</time></trkpt><trkpt lat="39.925667245249414" lon="9.633536416390095"><ele>39.0</ele><time>2026-04-30T13:47:08.937Z</time></trkpt><trkpt lat="39.925515175880314" lon="9.633355537636627"><ele>43.0</ele><time>2026-04-30T13:47:09.937Z</time></trkpt><trkpt lat="39.92533323136836" lon="9.63323085739168"><ele>43.0</ele><time>2026-04-30T13:47:10.937Z</time></trkpt><trkpt lat="39.925109925596125" lon="9.633133484447342"><ele>43.0</ele><time>2026-04-30T13:47:11.937Z</time></trkpt><trkpt lat="39.92486305753712" lon="9.633021864506304"><ele>46.5</ele><time>2026-04-30T13:47:12.937Z</time></trkpt><trkpt lat="39.92461463349274" lon="9.632870395328222"><ele>50.0</ele><time>2026-04-30T13:47:13.937Z</time></trkpt><trkpt lat="39.924364421178325" lon="9.63269292581104"><ele>41.0</ele><time>2026-04-30T13:47:14.937Z</time></trkpt><trkpt lat="39.92412341773667" lon="9.632521173747632"><ele>32.0</ele><time>2026-04-30T13:47:15.937Z</time></trkpt><trkpt lat="39.92390815144943" lon="9.632360804926618"><ele>32.0</ele><time>2026-04-30T13:47:16.937Z</time></trkpt><trkpt lat="39.92373832929966" lon="9.632233397120842"><ele>32.0</ele><time>2026-04-30T13:47:17.937Z</time></trkpt><trkpt lat="39.923620394673264" lon="9.632114427406476"><ele>32.0</ele><time>2026-04-30T13:47:18.937Z</time></trkpt><trkpt lat="39.923518742083814" lon="9.631968413054155"><ele>34.0</ele><time>2026-04-30T13:47:19.937Z</time></trkpt><trkpt lat="39.923451715368536" lon="9.63178239797206"><ele>36.0</ele><time>2026-04-30T13:47:20.937Z</time></trkpt><trkpt lat="39.92342911770579" lon="9.631567004023266"><ele>38.0</ele><time>2026-04-30T13:47:21.937Z</time></trkpt><trkpt lat="39.92344767409568" lon="9.631342845067058"><ele>37.33333333333333</ele><time>2026-04-30T13:47:22.937Z</time></trkpt><trkpt lat="39.9235081924338" lon="9.631106157933647"><ele>36.666666666666664</ele><time>2026-04-30T13:47:23.937Z</time></trkpt><trkpt lat="39.92356109718209" lon="9.63082042987005"><ele>36.0</ele><time>2026-04-30T13:47:24.936Z</time></trkpt><trkpt lat="39.92362042389408" lon="9.630517531488124"><ele>35.5</ele><time>2026-04-30T13:47:25.936Z</time></trkpt><trkpt lat="39.923683780991944" lon="9.630199647870526"><ele>35.0</ele><time>2026-04-30T13:47:26.936Z</time></trkpt><trkpt lat="39.92375592893389" lon="9.629879969901321"><ele>35.0</ele><time>2026-04-30T13:47:27.936Z</time></trkpt><trkpt lat="39.92383376241029" lon="9.629564116394851"><ele>35.0</ele><time>2026-04-30T13:47:28.936Z</time></trkpt><trkpt lat="39.923959629658825" lon="9.629273993244452"><ele>35.0</ele><time>2026-04-30T13:47:29.936Z</time></trkpt><trkpt lat="39.92408497283302" lon="9.628965729031368"><ele>35.0</ele><time>2026-04-30T13:47:30.936Z</time></trkpt><trkpt lat="39.924205117220964" lon="9.628673603380788"><ele>36.33333333333333</ele><time>2026-04-30T13:47:31.936Z</time></trkpt><trkpt lat="39.92433782019683" lon="9.628429088044383"><ele>37.666666666666664</ele><time>2026-04-30T13:47:32.936Z</time></trkpt><trkpt lat="39.92446254829707" lon="9.62822989217296"><ele>39.0</ele><time>2026-04-30T13:47:33.936Z</time></trkpt><trkpt lat="39.92456321958834" lon="9.628048438415433"><ele>39.0</ele><time>2026-04-30T13:47:34.936Z</time></trkpt><trkpt lat="39.92464139462173" lon="9.627876686209957"><ele>39.0</ele><time>2026-04-30T13:47:35.936Z</time></trkpt><trkpt lat="39.924731432471" lon="9.627744577485188"><ele>39.0</ele><time>2026-04-30T13:47:36.936Z</time></trkpt><trkpt lat="39.92467530812119" lon="9.62749033172708"><ele>37.666666666666664</ele><time>2026-04-30T13:47:37.936Z</time></trkpt><trkpt lat="39.924627681490726" lon="9.62728799260995"><ele>36.33333333333333</ele><time>2026-04-30T13:47:38.936Z</time></trkpt><trkpt lat="39.92454023687274" lon="9.627103864674044"><ele>35.0</ele><time>2026-04-30T13:47:39.936Z</time></trkpt><trkpt lat="39.924424589189925" lon="9.626939594878353"><ele>34.666666666666664</ele><time>2026-04-30T13:47:40.936Z</time></trkpt><trkpt lat="39.924275260882546" lon="9.626787688740464"><ele>34.333333333333336</ele><time>2026-04-30T13:47:41.936Z</time></trkpt><trkpt lat="39.92408575088086" lon="9.626647321836264"><ele>34.0</ele><time>2026-04-30T13:47:42.936Z</time></trkpt><trkpt lat="39.92387057489487" lon="9.626526765609572"><ele>33.66666666666667</ele><time>2026-04-30T13:47:43.936Z</time></trkpt><trkpt lat="39.92366220007926" lon="9.62640659379634"><ele>33.333333333333336</ele><time>2026-04-30T13:47:44.936Z</time></trkpt><trkpt lat="39.92348491627203" lon="9.626272381971821"><ele>33.0</ele><time>2026-04-30T13:47:45.936Z</time></trkpt><trkpt lat="39.92335451882468" lon="9.626117774938708"><ele>33.0</ele><time>2026-04-30T13:47:46.936Z</time></trkpt><trkpt lat="39.923271955268106" lon="9.625947540738414"><ele>33.0</ele><time>2026-04-30T13:47:47.936Z</time></trkpt><trkpt lat="39.9232210952497" lon="9.625769069570142"><ele>33.0</ele><time>2026-04-30T13:47:48.936Z</time></trkpt><trkpt lat="39.92311642370169" lon="9.625613052713122"><ele>34.0</ele><time>2026-04-30T13:47:49.936Z</time></trkpt><trkpt lat="39.92316706852419" lon="9.625179606002556"><ele>35.0</ele><time>2026-04-30T13:47:50.936Z</time></trkpt><trkpt lat="39.92306774883819" lon="9.624848122700245"><ele>35.0</ele><time>2026-04-30T13:47:51.936Z</time></trkpt><trkpt lat="39.92294629113861" lon="9.624493035355794"><ele>35.0</ele><time>2026-04-30T13:47:52.936Z</time></trkpt><trkpt lat="39.92283696465231" lon="9.624151763797538"><ele>36.0</ele><time>2026-04-30T13:47:53.936Z</time></trkpt><trkpt lat="39.922749620427226" lon="9.623866836108729"><ele>37.0</ele><time>2026-04-30T13:47:54.936Z</time></trkpt><trkpt lat="39.92268408618312" lon="9.623634772095615"><ele>38.0</ele><time>2026-04-30T13:47:55.936Z</time></trkpt><trkpt lat="39.922659102736155" lon="9.623430480655067"><ele>40.33333333333333</ele><time>2026-04-30T13:47:56.936Z</time></trkpt><trkpt lat="39.922675275548414" lon="9.623204591206656"><ele>42.666666666666664</ele><time>2026-04-30T13:47:57.936Z</time></trkpt><trkpt lat="39.92274308029285" lon="9.622975140948354"><ele>45.0</ele><time>2026-04-30T13:47:58.936Z</time></trkpt><trkpt lat="39.92279589621658" lon="9.622737809566473"><ele>47.66666666666667</ele><time>2026-04-30T13:47:59.936Z</time></trkpt><trkpt lat="39.9228005847481" lon="9.622479519251273"><ele>50.333333333333336</ele><time>2026-04-30T13:48:00.936Z</time></trkpt><trkpt lat="39.92281499035013" lon="9.622243884386133"><ele>53.0</ele><time>2026-04-30T13:48:01.936Z</time></trkpt><trkpt lat="39.922823576308225" lon="9.622048040150956"><ele>52.333333333333336</ele><time>2026-04-30T13:48:02.936Z</time></trkpt><trkpt lat="39.92277979924633" lon="9.621858007855"><ele>51.66666666666667</ele><time>2026-04-30T13:48:03.936Z</time></trkpt><trkpt lat="39.92267337729849" lon="9.62165999656257"><ele>51.0</ele><time>2026-04-30T13:48:04.936Z</time></trkpt><trkpt lat="39.92251548343925" lon="9.621436822120822"><ele>49.5</ele><time>2026-04-30T13:48:05.936Z</time></trkpt><trkpt lat="39.92234368999762" lon="9.621184969056937"><ele>48.0</ele><time>2026-04-30T13:48:06.936Z</time></trkpt><trkpt lat="39.922173038683304" lon="9.62091414450964"><ele>48.0</ele><time>2026-04-30T13:48:07.935Z</time></trkpt><trkpt lat="39.92200988286585" lon="9.620653380794286"><ele>48.0</ele><time>2026-04-30T13:48:08.935Z</time></trkpt><trkpt lat="39.921849976287746" lon="9.62040055804915"><ele>45.0</ele><time>2026-04-30T13:48:09.935Z</time></trkpt><trkpt lat="39.921684249130095" lon="9.62018247573614"><ele>42.0</ele><time>2026-04-30T13:48:10.935Z</time></trkpt><trkpt lat="39.92150935993404" lon="9.620004007176796"><ele>42.0</ele><time>2026-04-30T13:48:11.935Z</time></trkpt><trkpt lat="39.921312240716034" lon="9.619860464591572"><ele>42.0</ele><time>2026-04-30T13:48:12.935Z</time></trkpt><trkpt lat="39.921084939085674" lon="9.619753481586704"><ele>39.0</ele><time>2026-04-30T13:48:13.935Z</time></trkpt><trkpt lat="39.92082049166739" lon="9.619677492820163"><ele>36.0</ele><time>2026-04-30T13:48:14.935Z</time></trkpt><trkpt lat="39.92053640376891" lon="9.619609775270032"><ele>36.0</ele><time>2026-04-30T13:48:15.935Z</time></trkpt><trkpt lat="39.92025817493625" lon="9.619525209070456"><ele>36.0</ele><time>2026-04-30T13:48:16.935Z</time></trkpt><trkpt lat="39.919994403116206" lon="9.619438624658272"><ele>38.5</ele><time>2026-04-30T13:48:17.935Z</time></trkpt><trkpt lat="39.919744839357456" lon="9.619358921555945"><ele>41.0</ele><time>2026-04-30T13:48:18.935Z</time></trkpt><trkpt lat="39.9195164534621" lon="9.619281039042766"><ele>41.0</ele><time>2026-04-30T13:48:19.935Z</time></trkpt><trkpt lat="39.919314093802505" lon="9.619210967601957"><ele>41.0</ele><time>2026-04-30T13:48:20.935Z</time></trkpt><trkpt lat="39.919140237100315" lon="9.61912774502329"><ele>41.0</ele><time>2026-04-30T13:48:21.935Z</time></trkpt><trkpt lat="39.91899729795638" lon="9.619000161451423"><ele>40.33333333333333</ele><time>2026-04-30T13:48:22.935Z</time></trkpt><trkpt lat="39.91886622299347" lon="9.618824882948992"><ele>39.666666666666664</ele><time>2026-04-30T13:48:23.937Z</time></trkpt><trkpt lat="39.91874769433431" lon="9.618602659092806"><ele>39.0</ele><time>2026-04-30T13:48:24.936Z</time></trkpt><trkpt lat="39.91860648229328" lon="9.618360433509999"><ele>39.5</ele><time>2026-04-30T13:48:25.936Z</time></trkpt><trkpt lat="39.91844933923839" lon="9.618113104508373"><ele>40.0</ele><time>2026-04-30T13:48:26.937Z</time></trkpt><trkpt lat="39.91828408364529" lon="9.617859874625989"><ele>42.0</ele><time>2026-04-30T13:48:27.936Z</time></trkpt><trkpt lat="39.91811537030539" lon="9.617602781401347"><ele>44.0</ele><time>2026-04-30T13:48:28.936Z</time></trkpt><trkpt lat="39.91794659318745" lon="9.617352122619875"><ele>44.0</ele><time>2026-04-30T13:48:29.936Z</time></trkpt><trkpt lat="39.917776963075966" lon="9.617110956703158"><ele>44.0</ele><time>2026-04-30T13:48:30.936Z</time></trkpt><trkpt lat="39.91760543434063" lon="9.616885768727874"><ele>47.0</ele><time>2026-04-30T13:48:31.936Z</time></trkpt><trkpt lat="39.91743407767027" lon="9.616664923069262"><ele>50.0</ele><time>2026-04-30T13:48:32.936Z</time></trkpt><trkpt lat="39.91727961146424" lon="9.616440626030377"><ele>50.0</ele><time>2026-04-30T13:48:33.936Z</time></trkpt><trkpt lat="39.917155994086265" lon="9.616212270252708"><ele>50.0</ele><time>2026-04-30T13:48:34.936Z</time></trkpt><trkpt lat="39.917055931863544" lon="9.615981124538967"><ele>50.0</ele><time>2026-04-30T13:48:35.936Z</time></trkpt><trkpt lat="39.91692077869257" lon="9.615776388254224"><ele>49.333333333333336</ele><time>2026-04-30T13:48:36.936Z</time></trkpt><trkpt lat="39.91674167197498" lon="9.615608242611504"><ele>48.66666666666667</ele><time>2026-04-30T13:48:37.936Z</time></trkpt><trkpt lat="39.916550344706565" lon="9.61548663952196"><ele>48.0</ele><time>2026-04-30T13:48:38.936Z</time></trkpt><trkpt lat="39.9164101049794" lon="9.61537703461315"><ele>53.33333333333333</ele><time>2026-04-30T13:48:39.936Z</time></trkpt><trkpt lat="39.9163126754452" lon="9.615230272940629"><ele>58.666666666666664</ele><time>2026-04-30T13:48:40.936Z</time></trkpt><trkpt lat="39.91625195357382" lon="9.615030549916996"><ele>64.0</ele><time>2026-04-30T13:48:41.936Z</time></trkpt><trkpt lat="39.916229514670626" lon="9.614797431988375"><ele>64.0</ele><time>2026-04-30T13:48:42.936Z</time></trkpt><trkpt lat="39.91621179029631" lon="9.61458866049239"><ele>64.0</ele><time>2026-04-30T13:48:43.936Z</time></trkpt><trkpt lat="39.91612962498686" lon="9.61444233025772"><ele>64.0</ele><time>2026-04-30T13:48:44.936Z</time></trkpt><trkpt lat="39.915995867468624" lon="9.614334417137622"><ele>63.666666666666664</ele><time>2026-04-30T13:48:45.936Z</time></trkpt><trkpt lat="39.915826350122785" lon="9.61428914183599"><ele>63.33333333333333</ele><time>2026-04-30T13:48:46.936Z</time></trkpt><trkpt lat="39.91564573571287" lon="9.614328855574302"><ele>63.0</ele><time>2026-04-30T13:48:47.936Z</time></trkpt><trkpt lat="39.915460529402566" lon="9.614361501968785"><ele>63.0</ele><time>2026-04-30T13:48:48.936Z</time></trkpt><trkpt lat="39.915295433443745" lon="9.6142954504063"><ele>63.0</ele><time>2026-04-30T13:48:49.936Z</time></trkpt><trkpt lat="39.915132942106816" lon="9.614132566948426"><ele>63.0</ele><time>2026-04-30T13:48:50.936Z</time></trkpt><trkpt lat="39.914971197280785" lon="9.613927516777796"><ele>62.33333333333333</ele><time>2026-04-30T13:48:51.936Z</time></trkpt><trkpt lat="39.91482511723891" lon="9.613751492633108"><ele>61.666666666666664</ele><time>2026-04-30T13:48:52.936Z</time></trkpt><trkpt lat="39.91475227483529" lon="9.613578653479301"><ele>61.0</ele><time>2026-04-30T13:48:53.936Z</time></trkpt><trkpt lat="39.91474299036733" lon="9.613434500916306"><ele>61.0</ele><time>2026-04-30T13:48:54.936Z</time></trkpt><trkpt lat="39.91477760977661" lon="9.613303047454565"><ele>61.0</ele><time>2026-04-30T13:48:55.936Z</time></trkpt><trkpt lat="39.914863776142155" lon="9.613197012581985"><ele>61.0</ele><time>2026-04-30T13:48:56.936Z</time></trkpt><trkpt lat="39.91499278361848" lon="9.613096114676107"><ele>61.0</ele><time>2026-04-30T13:48:57.936Z</time></trkpt><trkpt lat="39.91517444372378" lon="9.61296531360689"><ele>60.0</ele><time>2026-04-30T13:48:58.936Z</time></trkpt><trkpt lat="39.915348290569504" lon="9.612811045122942"><ele>59.0</ele><time>2026-04-30T13:48:59.936Z</time></trkpt><trkpt lat="39.9154641494284" lon="9.612609756499989"><ele>58.0</ele><time>2026-04-30T13:49:00.935Z</time></trkpt><trkpt lat="39.91557471311336" lon="9.612402922906272"><ele>58.0</ele><time>2026-04-30T13:49:01.935Z</time></trkpt><trkpt lat="39.91574523180517" lon="9.61227599394773"><ele>58.0</ele><time>2026-04-30T13:49:02.935Z</time></trkpt><trkpt lat="39.91595617243681" lon="9.612119888603463"><ele>58.0</ele><time>2026-04-30T13:49:03.935Z</time></trkpt><trkpt lat="39.916194833787415" lon="9.611941019374765"><ele>56.0</ele><time>2026-04-30T13:49:04.935Z</time></trkpt><trkpt lat="39.91643913662335" lon="9.611734131146983"><ele>54.0</ele><time>2026-04-30T13:49:05.935Z</time></trkpt><trkpt lat="39.91668617219449" lon="9.611565700024366"><ele>55.66666666666667</ele><time>2026-04-30T13:49:06.935Z</time></trkpt><trkpt lat="39.91690012272747" lon="9.611410622661165"><ele>57.333333333333336</ele><time>2026-04-30T13:49:07.935Z</time></trkpt><trkpt lat="39.91706222980848" lon="9.611292177954036"><ele>59.0</ele><time>2026-04-30T13:49:08.935Z</time></trkpt><trkpt lat="39.91718932942092" lon="9.611171519732636"><ele>57.0</ele><time>2026-04-30T13:49:09.935Z</time></trkpt><trkpt lat="39.917293840032734" lon="9.61102717845541"><ele>55.0</ele><time>2026-04-30T13:49:10.935Z</time></trkpt><trkpt lat="39.91736934130382" lon="9.610838698325024"><ele>53.0</ele><time>2026-04-30T13:49:11.935Z</time></trkpt><trkpt lat="39.91740363183755" lon="9.610630168570099"><ele>53.0</ele><time>2026-04-30T13:49:12.935Z</time></trkpt><trkpt lat="39.917395102387" lon="9.610430113756218"><ele>53.0</ele><time>2026-04-30T13:49:13.935Z</time></trkpt><trkpt lat="39.91733393162945" lon="9.610229832767416"><ele>53.0</ele><time>2026-04-30T13:49:14.935Z</time></trkpt><trkpt lat="39.917233217136534" lon="9.610025307847636"><ele>52.5</ele><time>2026-04-30T13:49:15.935Z</time></trkpt><trkpt lat="39.91710001126732" lon="9.60979793426947"><ele>52.0</ele><time>2026-04-30T13:49:16.935Z</time></trkpt><trkpt lat="39.9169620976549" lon="9.609547353593364"><ele>52.0</ele><time>2026-04-30T13:49:17.935Z</time></trkpt><trkpt lat="39.916830606541865" lon="9.609280392504633"><ele>52.0</ele><time>2026-04-30T13:49:18.935Z</time></trkpt><trkpt lat="39.916698475100105" lon="9.60901803362959"><ele>52.0</ele><time>2026-04-30T13:49:19.935Z</time></trkpt><trkpt lat="39.91656002536522" lon="9.60874229212458"><ele>52.0</ele><time>2026-04-30T13:49:20.935Z</time></trkpt><trkpt lat="39.91641425437653" lon="9.608458069882508"><ele>53.0</ele><time>2026-04-30T13:49:21.935Z</time></trkpt><trkpt lat="39.91626359719248" lon="9.608169492052202"><ele>54.0</ele><time>2026-04-30T13:49:22.935Z</time></trkpt><trkpt lat="39.91611314434326" lon="9.607867465056584"><ele>54.0</ele><time>2026-04-30T13:49:23.935Z</time></trkpt><trkpt lat="39.915960520173385" lon="9.607565425040855"><ele>54.0</ele><time>2026-04-30T13:49:24.935Z</time></trkpt><trkpt lat="39.91581203493305" lon="9.607269709129122"><ele>55.5</ele><time>2026-04-30T13:49:25.935Z</time></trkpt><trkpt lat="39.915663769822494" lon="9.606975770474733"><ele>57.0</ele><time>2026-04-30T13:49:26.935Z</time></trkpt><trkpt lat="39.91551652867087" lon="9.606682121968577"><ele>57.0</ele><time>2026-04-30T13:49:27.935Z</time></trkpt><trkpt lat="39.91537985611531" lon="9.60639803181531"><ele>57.0</ele><time>2026-04-30T13:49:28.935Z</time></trkpt><trkpt lat="39.91525044007494" lon="9.60614299957693"><ele>57.33333333333333</ele><time>2026-04-30T13:49:29.935Z</time></trkpt><trkpt lat="39.91511877735397" lon="9.605935667244625"><ele>57.666666666666664</ele><time>2026-04-30T13:49:30.935Z</time></trkpt><trkpt lat="39.91496036110093" lon="9.605769813297218"><ele>58.0</ele><time>2026-04-30T13:49:31.935Z</time></trkpt><trkpt lat="39.914764412810115" lon="9.605648214626955"><ele>59.0</ele><time>2026-04-30T13:49:32.935Z</time></trkpt><trkpt lat="39.91456057003626" lon="9.605532019472847"><ele>60.0</ele><time>2026-04-30T13:49:33.935Z</time></trkpt><trkpt lat="39.91432169597943" lon="9.605443191308972"><ele>63.66666666666667</ele><time>2026-04-30T13:49:34.935Z</time></trkpt><trkpt lat="39.914125923839435" lon="9.60532309866908"><ele>67.33333333333334</ele><time>2026-04-30T13:49:35.935Z</time></trkpt><trkpt lat="39.91396205137006" lon="9.60519903369027"><ele>71.0</ele><time>2026-04-30T13:49:36.935Z</time></trkpt><trkpt lat="39.91377568328733" lon="9.60511016207659"><ele>71.0</ele><time>2026-04-30T13:49:37.935Z</time></trkpt><trkpt lat="39.91357401258402" lon="9.605087803172596"><ele>71.0</ele><time>2026-04-30T13:49:38.935Z</time></trkpt><trkpt lat="39.91337619436361" lon="9.605110006528609"><ele>71.0</ele><time>2026-04-30T13:49:39.935Z</time></trkpt><trkpt lat="39.913203670906235" lon="9.605094923967881"><ele>70.0</ele><time>2026-04-30T13:49:40.935Z</time></trkpt><trkpt lat="39.91305770662801" lon="9.605021986874588"><ele>69.0</ele><time>2026-04-30T13:49:41.935Z</time></trkpt><trkpt lat="39.91293107937274" lon="9.604869954133317"><ele>68.0</ele><time>2026-04-30T13:49:42.935Z</time></trkpt><trkpt lat="39.9128378363792" lon="9.604654847962518"><ele>69.0</ele><time>2026-04-30T13:49:43.934Z</time></trkpt><trkpt lat="39.91271749456867" lon="9.604467550973276"><ele>70.0</ele><time>2026-04-30T13:49:44.934Z</time></trkpt><trkpt lat="39.912570929363135" lon="9.604294622285451"><ele>71.0</ele><time>2026-04-30T13:49:45.934Z</time></trkpt><trkpt lat="39.91239014446678" lon="9.604135390703888"><ele>71.0</ele><time>2026-04-30T13:49:46.934Z</time></trkpt><trkpt lat="39.91222212781584" lon="9.60398092245262"><ele>71.0</ele><time>2026-04-30T13:49:47.934Z</time></trkpt><trkpt lat="39.91209595473092" lon="9.603834766029228"><ele>71.0</ele><time>2026-04-30T13:49:48.934Z</time></trkpt><trkpt lat="39.91202326083178" lon="9.603694969747671"><ele>73.0</ele><time>2026-04-30T13:49:49.934Z</time></trkpt><trkpt lat="39.91200737162713" lon="9.603535263037463"><ele>75.0</ele><time>2026-04-30T13:49:50.934Z</time></trkpt><trkpt lat="39.911960453182495" lon="9.603424094661051"><ele>77.0</ele><time>2026-04-30T13:49:51.934Z</time></trkpt><trkpt lat="39.91213718786852" lon="9.603143624695788"><ele>77.0</ele><time>2026-04-30T13:49:52.934Z</time></trkpt><trkpt lat="39.91225935866493" lon="9.60296210396236"><ele>77.0</ele><time>2026-04-30T13:49:53.934Z</time></trkpt><trkpt lat="39.91242602931116" lon="9.602786757379826"><ele>77.0</ele><time>2026-04-30T13:49:54.934Z</time></trkpt><trkpt lat="39.91263895037844" lon="9.602606150887487"><ele>81.5</ele><time>2026-04-30T13:49:55.934Z</time></trkpt><trkpt lat="39.912848160562355" lon="9.602436296483441"><ele>86.0</ele><time>2026-04-30T13:49:56.934Z</time></trkpt><trkpt lat="39.91304157871504" lon="9.602254466533344"><ele>86.0</ele><time>2026-04-30T13:49:57.934Z</time></trkpt><trkpt lat="39.913213760550754" lon="9.602040751189712"><ele>86.0</ele><time>2026-04-30T13:49:58.934Z</time></trkpt><trkpt lat="39.91335795226029" lon="9.60181900138864"><ele>83.66666666666667</ele><time>2026-04-30T13:49:59.934Z</time></trkpt><trkpt lat="39.91347866646519" lon="9.601587639604206"><ele>81.33333333333333</ele><time>2026-04-30T13:50:00.934Z</time></trkpt><trkpt lat="39.91355661709885" lon="9.601332186991188"><ele>79.0</ele><time>2026-04-30T13:50:01.934Z</time></trkpt><trkpt lat="39.91360146468455" lon="9.601080500615433"><ele>79.0</ele><time>2026-04-30T13:50:02.934Z</time></trkpt><trkpt lat="39.91362909835865" lon="9.60084513455892"><ele>79.0</ele><time>2026-04-30T13:50:03.934Z</time></trkpt><trkpt lat="39.91362088980006" lon="9.600616902306308"><ele>79.0</ele><time>2026-04-30T13:50:04.934Z</time></trkpt><trkpt lat="39.9135674039745" lon="9.60041375734309"><ele>79.75</ele><time>2026-04-30T13:50:05.934Z</time></trkpt><trkpt lat="39.913485521924315" lon="9.600241343465134"><ele>80.5</ele><time>2026-04-30T13:50:06.934Z</time></trkpt><trkpt lat="39.91339124928397" lon="9.60009990704709"><ele>81.25</ele><time>2026-04-30T13:50:07.934Z</time></trkpt><trkpt lat="39.91334612011716" lon="9.599953072437748"><ele>82.0</ele><time>2026-04-30T13:50:08.934Z</time></trkpt><trkpt lat="39.91335964459347" lon="9.599791300555804"><ele>82.0</ele><time>2026-04-30T13:50:09.934Z</time></trkpt><trkpt lat="39.91343832490809" lon="9.599626764940373"><ele>82.0</ele><time>2026-04-30T13:50:10.934Z</time></trkpt><trkpt lat="39.91355889373019" lon="9.599454730286062"><ele>82.0</ele><time>2026-04-30T13:50:11.934Z</time></trkpt><trkpt lat="39.9136583684049" lon="9.599288962513421"><ele>83.0</ele><time>2026-04-30T13:50:12.934Z</time></trkpt><trkpt lat="39.91370647000025" lon="9.599080043250058"><ele>84.0</ele><time>2026-04-30T13:50:13.934Z</time></trkpt><trkpt lat="39.913712050182376" lon="9.59886363742497"><ele>85.0</ele><time>2026-04-30T13:50:14.934Z</time></trkpt><trkpt lat="39.91361290901777" lon="9.598647618511034"><ele>86.0</ele><time>2026-04-30T13:50:15.934Z</time></trkpt><trkpt lat="39.91346961256104" lon="9.598478390073765"><ele>87.0</ele><time>2026-04-30T13:50:16.934Z</time></trkpt><trkpt lat="39.91329571758653" lon="9.59831010351408"><ele>88.0</ele><time>2026-04-30T13:50:17.934Z</time></trkpt><trkpt lat="39.91308971581188" lon="9.59813349959793"><ele>85.0</ele><time>2026-04-30T13:50:18.934Z</time></trkpt><trkpt lat="39.91288489437687" lon="9.597922564463408"><ele>82.0</ele><time>2026-04-30T13:50:19.934Z</time></trkpt><trkpt lat="39.91267633607896" lon="9.597696117394127"><ele>76.0</ele><time>2026-04-30T13:50:20.934Z</time></trkpt><trkpt lat="39.91248298366063" lon="9.597472810975729"><ele>70.0</ele><time>2026-04-30T13:50:21.934Z</time></trkpt><trkpt lat="39.91231924753386" lon="9.597241169350484"><ele>72.0</ele><time>2026-04-30T13:50:22.934Z</time></trkpt><trkpt lat="39.91217367376744" lon="9.596977769373028"><ele>74.0</ele><time>2026-04-30T13:50:23.934Z</time></trkpt><trkpt lat="39.912033016496245" lon="9.596713823716822"><ele>74.0</ele><time>2026-04-30T13:50:24.933Z</time></trkpt><trkpt lat="39.91188382534547" lon="9.596493451168154"><ele>74.0</ele><time>2026-04-30T13:50:25.933Z</time></trkpt><trkpt lat="39.91170779211976" lon="9.5963125849614"><ele>75.66666666666667</ele><time>2026-04-30T13:50:26.933Z</time></trkpt><trkpt lat="39.91151222286102" lon="9.596152527548606"><ele>77.33333333333333</ele><time>2026-04-30T13:50:27.933Z</time></trkpt><trkpt lat="39.91132741264441" lon="9.596023207398144"><ele>79.0</ele><time>2026-04-30T13:50:28.933Z</time></trkpt><trkpt lat="39.91119157797273" lon="9.59588498797582"><ele>79.0</ele><time>2026-04-30T13:50:29.935Z</time></trkpt><trkpt lat="39.911085088475204" lon="9.595714699728699"><ele>79.0</ele><time>2026-04-30T13:50:30.934Z</time></trkpt><trkpt lat="39.9110118067179" lon="9.595517641436484"><ele>79.0</ele><time>2026-04-30T13:50:31.934Z</time></trkpt><trkpt lat="39.910995621153795" lon="9.595328558587259"><ele>82.66666666666666</ele><time>2026-04-30T13:50:32.934Z</time></trkpt><trkpt lat="39.91105151895693" lon="9.59513509663249"><ele>86.33333333333333</ele><time>2026-04-30T13:50:33.935Z</time></trkpt><trkpt lat="39.91113755502712" lon="9.5949335359302"><ele>90.0</ele><time>2026-04-30T13:50:34.935Z</time></trkpt><trkpt lat="39.91122743772675" lon="9.594694550185856"><ele>88.0</ele><time>2026-04-30T13:50:35.935Z</time></trkpt><trkpt lat="39.91131133001572" lon="9.594457854521778"><ele>86.0</ele><time>2026-04-30T13:50:36.935Z</time></trkpt><trkpt lat="39.91140538876833" lon="9.594238192241653"><ele>84.0</ele><time>2026-04-30T13:50:37.935Z</time></trkpt><trkpt lat="39.91152320116814" lon="9.594045981166284"><ele>84.0</ele><time>2026-04-30T13:50:38.935Z</time></trkpt><trkpt lat="39.91167815835813" lon="9.593886312958492"><ele>84.0</ele><time>2026-04-30T13:50:39.935Z</time></trkpt><trkpt lat="39.91184426125069" lon="9.593747104055726"><ele>84.0</ele><time>2026-04-30T13:50:40.935Z</time></trkpt><trkpt lat="39.91198471809935" lon="9.59361183341256"><ele>85.0</ele><time>2026-04-30T13:50:41.934Z</time></trkpt><trkpt lat="39.912081383170374" lon="9.59343538246671"><ele>86.0</ele><time>2026-04-30T13:50:42.935Z</time></trkpt><trkpt lat="39.91214532689358" lon="9.593215085815526"><ele>87.0</ele><time>2026-04-30T13:50:43.935Z</time></trkpt><trkpt lat="39.912180879874796" lon="9.592979551342692"><ele>86.0</ele><time>2026-04-30T13:50:44.934Z</time></trkpt><trkpt lat="39.912180861946304" lon="9.592737515386325"><ele>85.0</ele><time>2026-04-30T13:50:45.934Z</time></trkpt><trkpt lat="39.912131488937455" lon="9.59248756102801"><ele>84.0</ele><time>2026-04-30T13:50:46.934Z</time></trkpt><trkpt lat="39.91204583734952" lon="9.592237739011141"><ele>89.0</ele><time>2026-04-30T13:50:47.934Z</time></trkpt><trkpt lat="39.911924100613305" lon="9.59197627873205"><ele>94.0</ele><time>2026-04-30T13:50:48.934Z</time></trkpt><trkpt lat="39.91178415130003" lon="9.591714960734643"><ele>88.0</ele><time>2026-04-30T13:50:49.934Z</time></trkpt><trkpt lat="39.911648993538655" lon="9.591445755546614"><ele>82.0</ele><time>2026-04-30T13:50:50.934Z</time></trkpt><trkpt lat="39.91152847311701" lon="9.591169880199963"><ele>82.0</ele><time>2026-04-30T13:50:51.934Z</time></trkpt><trkpt lat="39.911390195445215" lon="9.590879157861487"><ele>82.0</ele><time>2026-04-30T13:50:52.934Z</time></trkpt><trkpt lat="39.91124558204311" lon="9.59056913234083"><ele>83.0</ele><time>2026-04-30T13:50:53.934Z</time></trkpt><trkpt lat="39.91110347561177" lon="9.590267052085705"><ele>84.0</ele><time>2026-04-30T13:50:54.934Z</time></trkpt><trkpt lat="39.91096173819341" lon="9.589971887612753"><ele>85.0</ele><time>2026-04-30T13:50:55.934Z</time></trkpt><trkpt lat="39.910830834791405" lon="9.589692455253632"><ele>86.0</ele><time>2026-04-30T13:50:56.934Z</time></trkpt><trkpt lat="39.9107067837037" lon="9.589431368979115"><ele>86.0</ele><time>2026-04-30T13:50:57.934Z</time></trkpt><trkpt lat="39.91057992779919" lon="9.589194586123245"><ele>86.0</ele><time>2026-04-30T13:50:58.934Z</time></trkpt><trkpt lat="39.910434648008746" lon="9.588992951891129"><ele>86.0</ele><time>2026-04-30T13:50:59.934Z</time></trkpt><trkpt lat="39.910254545613526" lon="9.588824991645945"><ele>85.33333333333334</ele><time>2026-04-30T13:51:00.934Z</time></trkpt><trkpt lat="39.910061120198534" lon="9.588692233815577"><ele>84.66666666666667</ele><time>2026-04-30T13:51:01.934Z</time></trkpt><trkpt lat="39.90985889704733" lon="9.588609222792343"><ele>84.0</ele><time>2026-04-30T13:51:02.934Z</time></trkpt><trkpt lat="39.90966711616203" lon="9.58855956381016"><ele>84.0</ele><time>2026-04-30T13:51:03.934Z</time></trkpt><trkpt lat="39.90949807636775" lon="9.588513173774134"><ele>84.0</ele><time>2026-04-30T13:51:04.934Z</time></trkpt><trkpt lat="39.90936636068783" lon="9.588378751679725"><ele>84.0</ele><time>2026-04-30T13:51:05.934Z</time></trkpt><trkpt lat="39.90924026417344" lon="9.588198448529223"><ele>84.0</ele><time>2026-04-30T13:51:06.934Z</time></trkpt><trkpt lat="39.90915633737675" lon="9.587959122772675"><ele>84.0</ele><time>2026-04-30T13:51:07.934Z</time></trkpt><trkpt lat="39.90908907545636" lon="9.587713573222258"><ele>84.0</ele><time>2026-04-30T13:51:08.934Z</time></trkpt><trkpt lat="39.909047727963475" lon="9.587449309236568"><ele>84.66666666666667</ele><time>2026-04-30T13:51:09.934Z</time></trkpt><trkpt lat="39.90903052527064" lon="9.587189973485017"><ele>85.33333333333334</ele><time>2026-04-30T13:51:10.934Z</time></trkpt><trkpt lat="39.90897336266782" lon="9.586952787613292"><ele>86.0</ele><time>2026-04-30T13:51:11.934Z</time></trkpt><trkpt lat="39.90885308889165" lon="9.586719587685227"><ele>86.0</ele><time>2026-04-30T13:51:12.934Z</time></trkpt><trkpt lat="39.9087027640529" lon="9.58648187968843"><ele>86.0</ele><time>2026-04-30T13:51:13.934Z</time></trkpt><trkpt lat="39.908552848941376" lon="9.586229722389044"><ele>86.5</ele><time>2026-04-30T13:51:14.934Z</time></trkpt><trkpt lat="39.908412973096056" lon="9.585979976987888"><ele>87.0</ele><time>2026-04-30T13:51:15.934Z</time></trkpt><trkpt lat="39.908272603904244" lon="9.585744615522989"><ele>87.0</ele><time>2026-04-30T13:51:16.934Z</time></trkpt><trkpt lat="39.90811348894648" lon="9.585535043235833"><ele>87.0</ele><time>2026-04-30T13:51:17.934Z</time></trkpt><trkpt lat="39.90794280822674" lon="9.585340372882015"><ele>88.33333333333333</ele><time>2026-04-30T13:51:18.934Z</time></trkpt><trkpt lat="39.90776951512087" lon="9.585164846304544"><ele>89.66666666666666</ele><time>2026-04-30T13:51:19.934Z</time></trkpt><trkpt lat="39.90758001316148" lon="9.585003872962748"><ele>91.0</ele><time>2026-04-30T13:51:20.934Z</time></trkpt><trkpt lat="39.90737698470248" lon="9.584858751856904"><ele>91.0</ele><time>2026-04-30T13:51:21.934Z</time></trkpt><trkpt lat="39.90715738569204" lon="9.584728014222808"><ele>91.0</ele><time>2026-04-30T13:51:22.934Z</time></trkpt><trkpt lat="39.90692441870725" lon="9.584600937024154"><ele>93.0</ele><time>2026-04-30T13:51:23.934Z</time></trkpt><trkpt lat="39.90667155007132" lon="9.58449071722573"><ele>95.0</ele><time>2026-04-30T13:51:24.934Z</time></trkpt><trkpt lat="39.906400878189636" lon="9.584400561902642"><ele>95.0</ele><time>2026-04-30T13:51:25.934Z</time></trkpt><trkpt lat="39.9061360598434" lon="9.584318074112062"><ele>95.0</ele><time>2026-04-30T13:51:26.934Z</time></trkpt><trkpt lat="39.905890781882604" lon="9.584219971777125"><ele>95.0</ele><time>2026-04-30T13:51:27.934Z</time></trkpt><trkpt lat="39.90567135188879" lon="9.584108266963662"><ele>95.0</ele><time>2026-04-30T13:51:28.933Z</time></trkpt><trkpt lat="39.90546565895461" lon="9.583966124141266"><ele>95.0</ele><time>2026-04-30T13:51:29.933Z</time></trkpt><trkpt lat="39.90528056975538" lon="9.583770235356305"><ele>95.0</ele><time>2026-04-30T13:51:30.933Z</time></trkpt><trkpt lat="39.90506660887512" lon="9.583583947619555"><ele>94.5</ele><time>2026-04-30T13:51:31.933Z</time></trkpt><trkpt lat="39.9048509536532" lon="9.583379271183603"><ele>94.0</ele><time>2026-04-30T13:51:32.933Z</time></trkpt><trkpt lat="39.904645463875056" lon="9.583179651624945"><ele>94.0</ele><time>2026-04-30T13:51:33.933Z</time></trkpt><trkpt lat="39.90445653177649" lon="9.582972996898716"><ele>94.0</ele><time>2026-04-30T13:51:34.933Z</time></trkpt><trkpt lat="39.90430397443339" lon="9.582720492644542"><ele>97.66666666666666</ele><time>2026-04-30T13:51:35.933Z</time></trkpt><trkpt lat="39.90414256047526" lon="9.582487236522686"><ele>101.33333333333333</ele><time>2026-04-30T13:51:36.933Z</time></trkpt><trkpt lat="39.90402834861067" lon="9.58226741778144"><ele>105.0</ele><time>2026-04-30T13:51:37.933Z</time></trkpt><trkpt lat="39.90397061546908" lon="9.582049657612291"><ele>106.0</ele><time>2026-04-30T13:51:38.933Z</time></trkpt><trkpt lat="39.90394456980174" lon="9.581824841413702"><ele>107.0</ele><time>2026-04-30T13:51:39.933Z</time></trkpt><trkpt lat="39.90395955171483" lon="9.581605891260564"><ele>108.0</ele><time>2026-04-30T13:51:40.933Z</time></trkpt><trkpt lat="39.90404545653781" lon="9.58141922588235"><ele>108.0</ele><time>2026-04-30T13:51:41.933Z</time></trkpt><trkpt lat="39.90415042526156" lon="9.581199249328515"><ele>108.0</ele><time>2026-04-30T13:51:42.933Z</time></trkpt><trkpt lat="39.90427188151941" lon="9.580940849477857"><ele>108.0</ele><time>2026-04-30T13:51:43.933Z</time></trkpt><trkpt lat="39.90440212299968" lon="9.580698695683251"><ele>108.75</ele><time>2026-04-30T13:51:44.933Z</time></trkpt><trkpt lat="39.90450189758431" lon="9.58048966057898"><ele>109.5</ele><time>2026-04-30T13:51:45.933Z</time></trkpt><trkpt lat="39.90455797642381" lon="9.580321242400574"><ele>110.25</ele><time>2026-04-30T13:51:46.933Z</time></trkpt><trkpt lat="39.9045646079668" lon="9.580183566568138"><ele>111.0</ele><time>2026-04-30T13:51:47.933Z</time></trkpt><trkpt lat="39.90450817209131" lon="9.580071932688146"><ele>112.33333333333334</ele><time>2026-04-30T13:51:48.933Z</time></trkpt><trkpt lat="39.90437331513715" lon="9.579974704378253"><ele>113.66666666666667</ele><time>2026-04-30T13:51:49.933Z</time></trkpt><trkpt lat="39.904210750528456" lon="9.579907768773909"><ele>115.0</ele><time>2026-04-30T13:51:50.933Z</time></trkpt><trkpt lat="39.90406437123044" lon="9.579898702311056"><ele>116.0</ele><time>2026-04-30T13:51:51.933Z</time></trkpt><trkpt lat="39.9039532085987" lon="9.579944113699185"><ele>117.0</ele><time>2026-04-30T13:51:52.933Z</time></trkpt><trkpt lat="39.90385622128082" lon="9.580042601651275"><ele>118.0</ele><time>2026-04-30T13:51:53.933Z</time></trkpt><trkpt lat="39.90376313579606" lon="9.58019013091006"><ele>119.0</ele><time>2026-04-30T13:51:54.933Z</time></trkpt><trkpt lat="39.90366313413299" lon="9.58033896871956"><ele>118.75</ele><time>2026-04-30T13:51:55.933Z</time></trkpt><trkpt lat="39.90353221080652" lon="9.580383508301226"><ele>118.5</ele><time>2026-04-30T13:51:56.933Z</time></trkpt><trkpt lat="39.90338865473674" lon="9.580375126903013"><ele>118.25</ele><time>2026-04-30T13:51:57.933Z</time></trkpt><trkpt lat="39.90324595511471" lon="9.58041699441831"><ele>118.0</ele><time>2026-04-30T13:51:58.933Z</time></trkpt><trkpt lat="39.90311720472082" lon="9.58052023065908"><ele>120.0</ele><time>2026-04-30T13:51:59.933Z</time></trkpt><trkpt lat="39.903000921070635" lon="9.580703731671697"><ele>122.0</ele><time>2026-04-30T13:52:00.933Z</time></trkpt><trkpt lat="39.90286657658499" lon="9.580865943972602"><ele>124.0</ele><time>2026-04-30T13:52:01.933Z</time></trkpt><trkpt lat="39.902671804028536" lon="9.580942098578824"><ele>126.25</ele><time>2026-04-30T13:52:02.933Z</time></trkpt><trkpt lat="39.902493840444414" lon="9.58104759146028"><ele>128.5</ele><time>2026-04-30T13:52:03.933Z</time></trkpt><trkpt lat="39.90236419104131" lon="9.581075576740039"><ele>130.75</ele><time>2026-04-30T13:52:04.933Z</time></trkpt><trkpt lat="39.902282655207685" lon="9.581050981096507"><ele>133.0</ele><time>2026-04-30T13:52:05.933Z</time></trkpt><trkpt lat="39.90223274767216" lon="9.580956531330445"><ele>133.0</ele><time>2026-04-30T13:52:06.933Z</time></trkpt><trkpt lat="39.90221309317854" lon="9.580803384941541"><ele>133.0</ele><time>2026-04-30T13:52:07.933Z</time></trkpt><trkpt lat="39.90220659375668" lon="9.580637742570614"><ele>133.0</ele><time>2026-04-30T13:52:08.933Z</time></trkpt><trkpt lat="39.90218025090323" lon="9.580498152702686"><ele>133.0</ele><time>2026-04-30T13:52:09.933Z</time></trkpt><trkpt lat="39.90211392448249" lon="9.580410215172861"><ele>133.0</ele><time>2026-04-30T13:52:10.932Z</time></trkpt><trkpt lat="39.90201332138947" lon="9.580373642219135"><ele>133.0</ele><time>2026-04-30T13:52:11.932Z</time></trkpt><trkpt lat="39.901871376717025" lon="9.580396796099434"><ele>133.0</ele><time>2026-04-30T13:52:12.932Z</time></trkpt><trkpt lat="39.90172589270581" lon="9.580415114039736"><ele>133.0</ele><time>2026-04-30T13:52:13.932Z</time></trkpt><trkpt lat="39.90161107885906" lon="9.580381730807614"><ele>135.5</ele><time>2026-04-30T13:52:14.932Z</time></trkpt><trkpt lat="39.90151862940236" lon="9.580248684303093"><ele>138.0</ele><time>2026-04-30T13:52:15.932Z</time></trkpt><trkpt lat="39.90147527136801" lon="9.580061650422287"><ele>140.5</ele><time>2026-04-30T13:52:16.932Z</time></trkpt><trkpt lat="39.90147334634392" lon="9.579856233793201"><ele>143.0</ele><time>2026-04-30T13:52:17.932Z</time></trkpt><trkpt lat="39.90147934277263" lon="9.579673650854211"><ele>143.0</ele><time>2026-04-30T13:52:18.932Z</time></trkpt><trkpt lat="39.90145057499636" lon="9.579534005741252"><ele>143.0</ele><time>2026-04-30T13:52:19.932Z</time></trkpt><trkpt lat="39.90134617651152" lon="9.579434440512221"><ele>143.0</ele><time>2026-04-30T13:52:20.932Z</time></trkpt><trkpt lat="39.90119291094601" lon="9.579357534836376"><ele>143.0</ele><time>2026-04-30T13:52:21.932Z</time></trkpt><trkpt lat="39.9010088265004" lon="9.579323013379938"><ele>143.66666666666666</ele><time>2026-04-30T13:52:22.932Z</time></trkpt><trkpt lat="39.90082746183761" lon="9.579306775143406"><ele>144.33333333333334</ele><time>2026-04-30T13:52:23.932Z</time></trkpt><trkpt lat="39.90063457427683" lon="9.579346595716888"><ele>145.0</ele><time>2026-04-30T13:52:24.932Z</time></trkpt><trkpt lat="39.90043226877858" lon="9.579428003983155"><ele>150.5</ele><time>2026-04-30T13:52:25.932Z</time></trkpt><trkpt lat="39.90021404427649" lon="9.5795250098251"><ele>156.0</ele><time>2026-04-30T13:52:26.932Z</time></trkpt><trkpt lat="39.89999438378026" lon="9.579654500792087"><ele>157.0</ele><time>2026-04-30T13:52:27.932Z</time></trkpt><trkpt lat="39.89978782679082" lon="9.579816026305416"><ele>158.0</ele><time>2026-04-30T13:52:28.932Z</time></trkpt><trkpt lat="39.899605343945645" lon="9.579952100615719"><ele>158.0</ele><time>2026-04-30T13:52:29.932Z</time></trkpt><trkpt lat="39.89944525313206" lon="9.580034905336905"><ele>158.0</ele><time>2026-04-30T13:52:30.932Z</time></trkpt><trkpt lat="39.89928135163071" lon="9.580043827308922"><ele>158.0</ele><time>2026-04-30T13:52:31.932Z</time></trkpt><trkpt lat="39.89912287912386" lon="9.5800414231155"><ele>157.33333333333331</ele><time>2026-04-30T13:52:32.932Z</time></trkpt><trkpt lat="39.898968705333246" lon="9.580098767694732"><ele>156.66666666666666</ele><time>2026-04-30T13:52:33.932Z</time></trkpt><trkpt lat="39.89882567648539" lon="9.58022642808594"><ele>156.0</ele><time>2026-04-30T13:52:34.932Z</time></trkpt><trkpt lat="39.89869366046326" lon="9.58043621073801"><ele>156.66666666666666</ele><time>2026-04-30T13:52:35.933Z</time></trkpt><trkpt lat="39.89857833037158" lon="9.580692244104593"><ele>157.33333333333331</ele><time>2026-04-30T13:52:36.933Z</time></trkpt><trkpt lat="39.89845451887297" lon="9.580895226959555"><ele>158.0</ele><time>2026-04-30T13:52:37.933Z</time></trkpt><trkpt lat="39.898342346928196" lon="9.581045397744097"><ele>158.0</ele><time>2026-04-30T13:52:38.933Z</time></trkpt><trkpt lat="39.89822650243626" lon="9.58113071875041"><ele>158.0</ele><time>2026-04-30T13:52:39.933Z</time></trkpt><trkpt lat="39.89810211417973" lon="9.581145015062377"><ele>158.0</ele><time>2026-04-30T13:52:40.933Z</time></trkpt><trkpt lat="39.89795336683631" lon="9.581101146163304"><ele>158.0</ele><time>2026-04-30T13:52:41.933Z</time></trkpt><trkpt lat="39.89780932969642" lon="9.581019742999597"><ele>158.0</ele><time>2026-04-30T13:52:42.933Z</time></trkpt><trkpt lat="39.89767580587973" lon="9.580908435721112"><ele>158.0</ele><time>2026-04-30T13:52:43.933Z</time></trkpt><trkpt lat="39.89758081626055" lon="9.580776590360772"><ele>158.0</ele><time>2026-04-30T13:52:44.933Z</time></trkpt><trkpt lat="39.8975156247476" lon="9.580626161644503"><ele>158.0</ele><time>2026-04-30T13:52:45.933Z</time></trkpt><trkpt lat="39.89750698948194" lon="9.580445348251278"><ele>158.0</ele><time>2026-04-30T13:52:46.933Z</time></trkpt><trkpt lat="39.89754689418352" lon="9.580235315223502"><ele>158.0</ele><time>2026-04-30T13:52:47.933Z</time></trkpt><trkpt lat="39.89761139641565" lon="9.579989641609862"><ele>158.0</ele><time>2026-04-30T13:52:48.932Z</time></trkpt><trkpt lat="39.89767780825482" lon="9.57974258608207"><ele>158.0</ele><time>2026-04-30T13:52:49.932Z</time></trkpt><trkpt lat="39.897739991701386" lon="9.579554240521139"><ele>158.0</ele><time>2026-04-30T13:52:50.932Z</time></trkpt><trkpt lat="39.89782139738873" lon="9.579419677514995"><ele>158.0</ele><time>2026-04-30T13:52:51.932Z</time></trkpt><trkpt lat="39.89792526130469" lon="9.579334135531845"><ele>158.0</ele><time>2026-04-30T13:52:52.932Z</time></trkpt><trkpt lat="39.8980147954696" lon="9.579261730496562"><ele>160.2</ele><time>2026-04-30T13:52:53.932Z</time></trkpt><trkpt lat="39.89806562796425" lon="9.579172510449375"><ele>162.4</ele><time>2026-04-30T13:52:54.932Z</time></trkpt><trkpt lat="39.89805666908168" lon="9.579083564692308"><ele>164.6</ele><time>2026-04-30T13:52:55.932Z</time></trkpt><trkpt lat="39.897989494322296" lon="9.579020386693395"><ele>166.79999999999998</ele><time>2026-04-30T13:52:56.932Z</time></trkpt><trkpt lat="39.897884779351614" lon="9.579035579620681"><ele>169.0</ele><time>2026-04-30T13:52:57.932Z</time></trkpt><trkpt lat="39.89778672287491" lon="9.579149651594646"><ele>169.0</ele><time>2026-04-30T13:52:58.932Z</time></trkpt><trkpt lat="39.89770819027551" lon="9.579325818681824"><ele>169.0</ele><time>2026-04-30T13:52:59.932Z</time></trkpt><trkpt lat="39.89762058791978" lon="9.579539580694215"><ele>169.0</ele><time>2026-04-30T13:53:00.932Z</time></trkpt><trkpt lat="39.897494556327416" lon="9.579741326452396"><ele>169.66666666666669</ele><time>2026-04-30T13:53:01.932Z</time></trkpt><trkpt lat="39.897374341511885" lon="9.57991740338246"><ele>170.33333333333334</ele><time>2026-04-30T13:53:02.932Z</time></trkpt><trkpt lat="39.897217028826084" lon="9.580010416340121"><ele>171.0</ele><time>2026-04-30T13:53:03.932Z</time></trkpt><trkpt lat="39.89705189719208" lon="9.580082283678168"><ele>171.0</ele><time>2026-04-30T13:53:04.932Z</time></trkpt><trkpt lat="39.89691087095073" lon="9.580114103619353"><ele>171.0</ele><time>2026-04-30T13:53:05.932Z</time></trkpt><trkpt lat="39.8967595874829" lon="9.58006086184668"><ele>171.0</ele><time>2026-04-30T13:53:06.932Z</time></trkpt><trkpt lat="39.89661071385709" lon="9.579973129518763"><ele>174.0</ele><time>2026-04-30T13:53:07.932Z</time></trkpt><trkpt lat="39.89646310776292" lon="9.579933404356382"><ele>177.0</ele><time>2026-04-30T13:53:08.932Z</time></trkpt><trkpt lat="39.896316202508295" lon="9.579937789417482"><ele>180.0</ele><time>2026-04-30T13:53:09.932Z</time></trkpt><trkpt lat="39.89616908869564" lon="9.580018475266215"><ele>180.0</ele><time>2026-04-30T13:53:10.932Z</time></trkpt><trkpt lat="39.89602822935603" lon="9.580108445535503"><ele>180.0</ele><time>2026-04-30T13:53:11.932Z</time></trkpt><trkpt lat="39.89586299283548" lon="9.580103837806325"><ele>180.0</ele><time>2026-04-30T13:53:12.932Z</time></trkpt><trkpt lat="39.89570992741835" lon="9.580177171746062"><ele>183.0</ele><time>2026-04-30T13:53:13.932Z</time></trkpt><trkpt lat="39.89557181589368" lon="9.580299748099042"><ele>186.0</ele><time>2026-04-30T13:53:14.932Z</time></trkpt><trkpt lat="39.895440449081036" lon="9.580458646158657"><ele>189.0</ele><time>2026-04-30T13:53:15.932Z</time></trkpt><trkpt lat="39.89527493706021" lon="9.58053879538007"><ele>184.33333333333334</ele><time>2026-04-30T13:53:16.932Z</time></trkpt><trkpt lat="39.89510601980722" lon="9.58051199494355"><ele>179.66666666666669</ele><time>2026-04-30T13:53:17.932Z</time></trkpt><trkpt lat="39.89494092596971" lon="9.580468271129126"><ele>175.0</ele><time>2026-04-30T13:53:18.932Z</time></trkpt><trkpt lat="39.89477289088548" lon="9.58039859264774"><ele>184.66666666666669</ele><time>2026-04-30T13:53:19.932Z</time></trkpt><trkpt lat="39.89458216192202" lon="9.580326729185723"><ele>194.33333333333334</ele><time>2026-04-30T13:53:20.932Z</time></trkpt><trkpt lat="39.894394671131714" lon="9.58027619194263"><ele>204.0</ele><time>2026-04-30T13:53:21.932Z</time></trkpt><trkpt lat="39.89420809603086" lon="9.580266712677236"><ele>205.66666666666669</ele><time>2026-04-30T13:53:22.932Z</time></trkpt><trkpt lat="39.8940111965513" lon="9.580293120657638"><ele>207.33333333333334</ele><time>2026-04-30T13:53:23.932Z</time></trkpt><trkpt lat="39.893832741780265" lon="9.58030760536518"><ele>209.0</ele><time>2026-04-30T13:53:24.932Z</time></trkpt><trkpt lat="39.8936699590447" lon="9.58033634196191"><ele>205.66666666666669</ele><time>2026-04-30T13:53:25.932Z</time></trkpt><trkpt lat="39.89351573320121" lon="9.580427665700297"><ele>202.33333333333331</ele><time>2026-04-30T13:53:26.932Z</time></trkpt><trkpt lat="39.89339701823353" lon="9.580565964940746"><ele>199.0</ele><time>2026-04-30T13:53:27.932Z</time></trkpt><trkpt lat="39.89330881351629" lon="9.580700722370926"><ele>199.0</ele><time>2026-04-30T13:53:28.932Z</time></trkpt><trkpt lat="39.89327149571288" lon="9.580871077471478"><ele>199.0</ele><time>2026-04-30T13:53:29.931Z</time></trkpt><trkpt lat="39.89324172514226" lon="9.581029488972325"><ele>199.0</ele><time>2026-04-30T13:53:30.931Z</time></trkpt><trkpt lat="39.89317791922875" lon="9.58112699421106"><ele>199.0</ele><time>2026-04-30T13:53:31.931Z</time></trkpt><trkpt lat="39.89306308889892" lon="9.581149456202908"><ele>199.0</ele><time>2026-04-30T13:53:32.931Z</time></trkpt><trkpt lat="39.89290419665476" lon="9.5811296292088"><ele>199.0</ele><time>2026-04-30T13:53:33.931Z</time></trkpt><trkpt lat="39.89271323787884" lon="9.581099451114374"><ele>199.0</ele><time>2026-04-30T13:53:34.931Z</time></trkpt><trkpt lat="39.89251274969988" lon="9.58108353829377"><ele>201.5</ele><time>2026-04-30T13:53:35.931Z</time></trkpt><trkpt lat="39.89235481047061" lon="9.581078883983164"><ele>204.0</ele><time>2026-04-30T13:53:36.931Z</time></trkpt><trkpt lat="39.8922400235294" lon="9.581050660471027"><ele>206.5</ele><time>2026-04-30T13:53:37.931Z</time></trkpt><trkpt lat="39.892169925322435" lon="9.58094378555737"><ele>209.0</ele><time>2026-04-30T13:53:38.931Z</time></trkpt><trkpt lat="39.89214515548348" lon="9.58076724604054"><ele>209.0</ele><time>2026-04-30T13:53:39.931Z</time></trkpt><trkpt lat="39.89213263875679" lon="9.580564949449744"><ele>209.0</ele><time>2026-04-30T13:53:40.931Z</time></trkpt><trkpt lat="39.892191648356025" lon="9.580355767107326"><ele>209.0</ele><time>2026-04-30T13:53:41.931Z</time></trkpt><trkpt lat="39.89226076161833" lon="9.580119857055479"><ele>212.66666666666669</ele><time>2026-04-30T13:53:42.931Z</time></trkpt><trkpt lat="39.89231492045667" lon="9.579879694027442"><ele>216.33333333333331</ele><time>2026-04-30T13:53:43.931Z</time></trkpt><trkpt lat="39.89233954770765" lon="9.57967213564605"><ele>220.0</ele><time>2026-04-30T13:53:44.931Z</time></trkpt><trkpt lat="39.892307983441015" lon="9.579463951491496"><ele>223.33333333333331</ele><time>2026-04-30T13:53:45.931Z</time></trkpt><trkpt lat="39.89222652853465" lon="9.579262793976964"><ele>226.66666666666669</ele><time>2026-04-30T13:53:46.931Z</time></trkpt><trkpt lat="39.8921244295256" lon="9.579103118080868"><ele>230.0</ele><time>2026-04-30T13:53:47.931Z</time></trkpt><trkpt lat="39.892054309319654" lon="9.578952470844047"><ele>230.0</ele><time>2026-04-30T13:53:48.931Z</time></trkpt><trkpt lat="39.89203961401556" lon="9.578794785575576"><ele>230.0</ele><time>2026-04-30T13:53:49.931Z</time></trkpt><trkpt lat="39.89212477698562" lon="9.578651053594731"><ele>230.0</ele><time>2026-04-30T13:53:50.931Z</time></trkpt><trkpt lat="39.89215885619793" lon="9.57846143686489"><ele>230.0</ele><time>2026-04-30T13:53:51.931Z</time></trkpt><trkpt lat="39.892188711591864" lon="9.578253649828559"><ele>231.66666666666669</ele><time>2026-04-30T13:53:52.931Z</time></trkpt><trkpt lat="39.89214132092415" lon="9.578018016040852"><ele>233.33333333333331</ele><time>2026-04-30T13:53:53.931Z</time></trkpt><trkpt lat="39.89206574266598" lon="9.577819078839827"><ele>235.0</ele><time>2026-04-30T13:53:54.931Z</time></trkpt><trkpt lat="39.892021262458904" lon="9.577650432304246"><ele>235.0</ele><time>2026-04-30T13:53:55.931Z</time></trkpt><trkpt lat="39.892055171548506" lon="9.577487060841916"><ele>235.0</ele><time>2026-04-30T13:53:56.931Z</time></trkpt><trkpt lat="39.892110081745614" lon="9.577262547224256"><ele>235.0</ele><time>2026-04-30T13:53:57.931Z</time></trkpt><trkpt lat="39.89215585016091" lon="9.577033923695835"><ele>233.75</ele><time>2026-04-30T13:53:58.931Z</time></trkpt><trkpt lat="39.89223516045644" lon="9.576861672058104"><ele>232.5</ele><time>2026-04-30T13:53:59.931Z</time></trkpt><trkpt lat="39.892324292171004" lon="9.576729849094635"><ele>231.25</ele><time>2026-04-30T13:54:00.931Z</time></trkpt><trkpt lat="39.89244538725471" lon="9.57666310391228"><ele>230.0</ele><time>2026-04-30T13:54:01.931Z</time></trkpt><trkpt lat="39.892543679551636" lon="9.576552665814722"><ele>234.75</ele><time>2026-04-30T13:54:02.931Z</time></trkpt><trkpt lat="39.89263404774735" lon="9.576438017219548"><ele>239.5</ele><time>2026-04-30T13:54:03.931Z</time></trkpt><trkpt lat="39.892672091824124" lon="9.576267380140688"><ele>244.25</ele><time>2026-04-30T13:54:04.931Z</time></trkpt><trkpt lat="39.892682310370965" lon="9.576027719471847"><ele>249.0</ele><time>2026-04-30T13:54:05.931Z</time></trkpt><trkpt lat="39.892683486582364" lon="9.575768338587068"><ele>251.66666666666669</ele><time>2026-04-30T13:54:06.931Z</time></trkpt><trkpt lat="39.89266610320403" lon="9.575513577746197"><ele>254.33333333333334</ele><time>2026-04-30T13:54:07.931Z</time></trkpt><trkpt lat="39.892611529881066" lon="9.575257173076388"><ele>257.0</ele><time>2026-04-30T13:54:08.931Z</time></trkpt><trkpt lat="39.8925611383406" lon="9.575025658246448"><ele>257.75</ele><time>2026-04-30T13:54:09.931Z</time></trkpt><trkpt lat="39.89253816304844" lon="9.574826805852483"><ele>258.5</ele><time>2026-04-30T13:54:10.931Z</time></trkpt><trkpt lat="39.89254476749134" lon="9.574648507627677"><ele>259.25</ele><time>2026-04-30T13:54:11.93Z</time></trkpt><trkpt lat="39.8926154231945" lon="9.574498539287815"><ele>260.0</ele><time>2026-04-30T13:54:12.93Z</time></trkpt><trkpt lat="39.89274341750338" lon="9.574372092474379"><ele>260.0</ele><time>2026-04-30T13:54:13.93Z</time></trkpt><trkpt lat="39.89290778859112" lon="9.574180991574275"><ele>260.0</ele><time>2026-04-30T13:54:14.93Z</time></trkpt><trkpt lat="39.89309626097481" lon="9.573959602904948"><ele>260.0</ele><time>2026-04-30T13:54:15.93Z</time></trkpt><trkpt lat="39.89328434000669" lon="9.573741079672779"><ele>260.0</ele><time>2026-04-30T13:54:16.93Z</time></trkpt><trkpt lat="39.893430697695244" lon="9.573547201419885"><ele>263.75</ele><time>2026-04-30T13:54:17.93Z</time></trkpt><trkpt lat="39.893563725255845" lon="9.573419315697226"><ele>267.5</ele><time>2026-04-30T13:54:18.93Z</time></trkpt><trkpt lat="39.89365452759587" lon="9.573316503373473"><ele>271.25</ele><time>2026-04-30T13:54:19.93Z</time></trkpt><trkpt lat="39.89370685499815" lon="9.573229422417013"><ele>275.0</ele><time>2026-04-30T13:54:20.93Z</time></trkpt><trkpt lat="39.893723046484936" lon="9.5731235011231"><ele>275.0</ele><time>2026-04-30T13:54:21.93Z</time></trkpt><trkpt lat="39.89369358390994" lon="9.57302365288672"><ele>275.0</ele><time>2026-04-30T13:54:22.93Z</time></trkpt><trkpt lat="39.89362656401555" lon="9.5729444782542"><ele>275.0</ele><time>2026-04-30T13:54:23.93Z</time></trkpt><trkpt lat="39.8935168335119" lon="9.572867133769396"><ele>275.0</ele><time>2026-04-30T13:54:24.93Z</time></trkpt><trkpt lat="39.893362841095396" lon="9.572804140714293"><ele>272.33333333333337</ele><time>2026-04-30T13:54:25.93Z</time></trkpt><trkpt lat="39.893180887893614" lon="9.572745704795093"><ele>269.6666666666667</ele><time>2026-04-30T13:54:26.93Z</time></trkpt><trkpt lat="39.89300865241521" lon="9.572672646970098"><ele>267.0</ele><time>2026-04-30T13:54:27.93Z</time></trkpt><trkpt lat="39.892856350302615" lon="9.572595957574988"><ele>267.0</ele><time>2026-04-30T13:54:28.93Z</time></trkpt><trkpt lat="39.89275228643368" lon="9.572512001649544"><ele>267.0</ele><time>2026-04-30T13:54:29.93Z</time></trkpt><trkpt lat="39.89270641531701" lon="9.572417285611172"><ele>267.0</ele><time>2026-04-30T13:54:30.93Z</time></trkpt><trkpt lat="39.892702791767306" lon="9.572292773378441"><ele>267.0</ele><time>2026-04-30T13:54:31.93Z</time></trkpt><trkpt lat="39.89277060893102" lon="9.5721531419879"><ele>267.0</ele><time>2026-04-30T13:54:32.93Z</time></trkpt><trkpt lat="39.89280894667363" lon="9.571931455641026"><ele>270.0</ele><time>2026-04-30T13:54:33.93Z</time></trkpt><trkpt lat="39.892859481956165" lon="9.57167801678438"><ele>273.0</ele><time>2026-04-30T13:54:34.93Z</time></trkpt><trkpt lat="39.892909703986895" lon="9.571418856723664"><ele>276.0</ele><time>2026-04-30T13:54:35.93Z</time></trkpt><trkpt lat="39.89296803113324" lon="9.571168920261215"><ele>276.0</ele><time>2026-04-30T13:54:36.93Z</time></trkpt><trkpt lat="39.89303338656713" lon="9.57094985707197"><ele>276.0</ele><time>2026-04-30T13:54:37.93Z</time></trkpt><trkpt lat="39.89313882164601" lon="9.570792920590767"><ele>276.0</ele><time>2026-04-30T13:54:38.93Z</time></trkpt><trkpt lat="39.89322637663713" lon="9.570618494715493"><ele>276.0</ele><time>2026-04-30T13:54:39.93Z</time></trkpt><trkpt lat="39.89330408432775" lon="9.570458531286766"><ele>276.0</ele><time>2026-04-30T13:54:40.93Z</time></trkpt><trkpt lat="39.893331553411485" lon="9.570241974597723"><ele>276.0</ele><time>2026-04-30T13:54:41.932Z</time></trkpt><trkpt lat="39.89333260604045" lon="9.570025220179074"><ele>276.75</ele><time>2026-04-30T13:54:42.932Z</time></trkpt><trkpt lat="39.893325706942704" lon="9.569852418860062"><ele>277.5</ele><time>2026-04-30T13:54:43.932Z</time></trkpt><trkpt lat="39.89326231323333" lon="9.569706572680246"><ele>278.25</ele><time>2026-04-30T13:54:44.932Z</time></trkpt><trkpt lat="39.8931569667716" lon="9.569602807619823"><ele>279.0</ele><time>2026-04-30T13:54:45.931Z</time></trkpt><trkpt lat="39.893025210192924" lon="9.569555891233879"><ele>279.0</ele><time>2026-04-30T13:54:46.931Z</time></trkpt><trkpt lat="39.89287873441265" lon="9.569527163211248"><ele>279.0</ele><time>2026-04-30T13:54:47.932Z</time></trkpt><trkpt lat="39.89277272997164" lon="9.56942307063443"><ele>279.0</ele><time>2026-04-30T13:54:48.931Z</time></trkpt><trkpt lat="39.89271320457249" lon="9.569255315940955"><ele>279.0</ele><time>2026-04-30T13:54:49.931Z</time></trkpt><trkpt lat="39.89275718383903" lon="9.56909153335634"><ele>279.0</ele><time>2026-04-30T13:54:50.931Z</time></trkpt><trkpt lat="39.89283983800511" lon="9.568955654711138"><ele>279.0</ele><time>2026-04-30T13:54:51.931Z</time></trkpt><trkpt lat="39.89295516142321" lon="9.568839602179832"><ele>279.0</ele><time>2026-04-30T13:54:52.931Z</time></trkpt><trkpt lat="39.89311440170038" lon="9.568677627389738"><ele>279.0</ele><time>2026-04-30T13:54:53.931Z</time></trkpt><trkpt lat="39.893250484623636" lon="9.568468821886027"><ele>279.0</ele><time>2026-04-30T13:54:54.931Z</time></trkpt><trkpt lat="39.89337536924059" lon="9.568252490239551"><ele>279.0</ele><time>2026-04-30T13:54:55.931Z</time></trkpt><trkpt lat="39.89348559694561" lon="9.568056237425354"><ele>276.8</ele><time>2026-04-30T13:54:56.931Z</time></trkpt><trkpt lat="39.89357462850576" lon="9.567908399070935"><ele>274.59999999999997</ele><time>2026-04-30T13:54:57.931Z</time></trkpt><trkpt lat="39.89363444473049" lon="9.567797132767978"><ele>272.4</ele><time>2026-04-30T13:54:58.931Z</time></trkpt><trkpt lat="39.89364601492704" lon="9.567709444814517"><ele>270.2</ele><time>2026-04-30T13:54:59.931Z</time></trkpt><trkpt lat="39.89359997802314" lon="9.567638617695023"><ele>268.0</ele><time>2026-04-30T13:55:00.931Z</time></trkpt><trkpt lat="39.89350818445678" lon="9.567617716091302"><ele>276.3333333333333</ele><time>2026-04-30T13:55:01.931Z</time></trkpt><trkpt lat="39.89338274267724" lon="9.567653786751984"><ele>284.6666666666667</ele><time>2026-04-30T13:55:02.931Z</time></trkpt><trkpt lat="39.8932365524066" lon="9.56772260128935"><ele>293.0</ele><time>2026-04-30T13:55:03.931Z</time></trkpt><trkpt lat="39.89305045618524" lon="9.56772592169061"><ele>293.0</ele><time>2026-04-30T13:55:04.931Z</time></trkpt><trkpt lat="39.89282459780171" lon="9.567710139997697"><ele>293.0</ele><time>2026-04-30T13:55:05.931Z</time></trkpt><trkpt lat="39.89261162456955" lon="9.567614415139527"><ele>295.6666666666667</ele><time>2026-04-30T13:55:06.931Z</time></trkpt><trkpt lat="39.892448990648184" lon="9.567515276632815"><ele>298.3333333333333</ele><time>2026-04-30T13:55:07.931Z</time></trkpt><trkpt lat="39.89230740106957" lon="9.5674486335998"><ele>301.0</ele><time>2026-04-30T13:55:08.931Z</time></trkpt><trkpt lat="39.892154028561926" lon="9.567463041106455"><ele>301.0</ele><time>2026-04-30T13:55:09.931Z</time></trkpt><trkpt lat="39.89198130229509" lon="9.567531605408586"><ele>301.0</ele><time>2026-04-30T13:55:10.931Z</time></trkpt><trkpt lat="39.891813265603616" lon="9.56755271577776"><ele>301.0</ele><time>2026-04-30T13:55:11.931Z</time></trkpt><trkpt lat="39.89165795573877" lon="9.56754172895812"><ele>304.66666666666663</ele><time>2026-04-30T13:55:12.931Z</time></trkpt><trkpt lat="39.891545592212935" lon="9.567583196688515"><ele>308.3333333333333</ele><time>2026-04-30T13:55:13.931Z</time></trkpt><trkpt lat="39.89142598251404" lon="9.567728765013358"><ele>312.0</ele><time>2026-04-30T13:55:14.931Z</time></trkpt><trkpt lat="39.891309034586975" lon="9.56791558804568"><ele>308.0</ele><time>2026-04-30T13:55:15.932Z</time></trkpt><trkpt lat="39.89117355614151" lon="9.568036921707954"><ele>304.0</ele><time>2026-04-30T13:55:16.932Z</time></trkpt><trkpt lat="39.891028594231685" lon="9.56809361306744"><ele>300.0</ele><time>2026-04-30T13:55:17.932Z</time></trkpt><trkpt lat="39.89086343597158" lon="9.568109325579988"><ele>300.0</ele><time>2026-04-30T13:55:18.932Z</time></trkpt><trkpt lat="39.890700847416014" lon="9.568085308468968"><ele>300.0</ele><time>2026-04-30T13:55:19.932Z</time></trkpt><trkpt lat="39.890545297938026" lon="9.568052164029503"><ele>300.0</ele><time>2026-04-30T13:55:20.932Z</time></trkpt><trkpt lat="39.890411129326715" lon="9.568023168073763"><ele>300.0</ele><time>2026-04-30T13:55:21.932Z</time></trkpt><trkpt lat="39.89030704978582" lon="9.567990536647313"><ele>300.0</ele><time>2026-04-30T13:55:22.932Z</time></trkpt><trkpt lat="39.89023307997626" lon="9.567917891096176"><ele>300.0</ele><time>2026-04-30T13:55:23.932Z</time></trkpt><trkpt lat="39.89020381899416" lon="9.567811113126334"><ele>300.0</ele><time>2026-04-30T13:55:24.932Z</time></trkpt><trkpt lat="39.89022585045755" lon="9.567684064882553"><ele>300.0</ele><time>2026-04-30T13:55:25.932Z</time></trkpt><trkpt lat="39.89031044993419" lon="9.567562871947665"><ele>306.0</ele><time>2026-04-30T13:55:26.932Z</time></trkpt><trkpt lat="39.89034992644515" lon="9.567374097211937"><ele>312.0</ele><time>2026-04-30T13:55:27.932Z</time></trkpt><trkpt lat="39.89037075584745" lon="9.567204308259447"><ele>318.0</ele><time>2026-04-30T13:55:28.932Z</time></trkpt><trkpt lat="39.89032309031548" lon="9.567047753312307"><ele>324.0</ele><time>2026-04-30T13:55:29.932Z</time></trkpt><trkpt lat="39.89022849919889" lon="9.566920963132013"><ele>328.75</ele><time>2026-04-30T13:55:30.932Z</time></trkpt><trkpt lat="39.8901378107807" lon="9.5667918864876"><ele>333.5</ele><time>2026-04-30T13:55:31.932Z</time></trkpt><trkpt lat="39.89009776420141" lon="9.566628192178193"><ele>338.25</ele><time>2026-04-30T13:55:32.932Z</time></trkpt><trkpt lat="39.890141636970284" lon="9.566442013442813"><ele>343.0</ele><time>2026-04-30T13:55:33.932Z</time></trkpt><trkpt lat="39.89018605693333" lon="9.566233815715375"><ele>347.0</ele><time>2026-04-30T13:55:34.932Z</time></trkpt><trkpt lat="39.890200731724775" lon="9.56599906119897"><ele>351.0</ele><time>2026-04-30T13:55:35.932Z</time></trkpt><trkpt lat="39.89020623719041" lon="9.56577521708298"><ele>355.0</ele><time>2026-04-30T13:55:36.931Z</time></trkpt><trkpt lat="39.89018954013563" lon="9.565551695941194"><ele>352.3333333333333</ele><time>2026-04-30T13:55:37.931Z</time></trkpt><trkpt lat="39.8902349046765" lon="9.565332030042969"><ele>349.6666666666667</ele><time>2026-04-30T13:55:38.931Z</time></trkpt><trkpt lat="39.8903114938608" lon="9.565128831314926"><ele>347.0</ele><time>2026-04-30T13:55:39.931Z</time></trkpt><trkpt lat="39.890416619948404" lon="9.564917394002249"><ele>347.0</ele><time>2026-04-30T13:55:40.931Z</time></trkpt><trkpt lat="39.890543237365726" lon="9.56470660099704"><ele>347.0</ele><time>2026-04-30T13:55:41.931Z</time></trkpt><trkpt lat="39.8906921464923" lon="9.564536386210557"><ele>347.0</ele><time>2026-04-30T13:55:42.931Z</time></trkpt><trkpt lat="39.89084495561686" lon="9.564370780591657"><ele>343.33333333333337</ele><time>2026-04-30T13:55:43.931Z</time></trkpt><trkpt lat="39.8909774849439" lon="9.564186621730888"><ele>339.6666666666667</ele><time>2026-04-30T13:55:44.931Z</time></trkpt><trkpt lat="39.891099201603915" lon="9.564008283539014"><ele>336.0</ele><time>2026-04-30T13:55:45.931Z</time></trkpt><trkpt lat="39.89119768565814" lon="9.563841299139565"><ele>333.5</ele><time>2026-04-30T13:55:46.931Z</time></trkpt><trkpt lat="39.891277166174696" lon="9.56369006675501"><ele>331.0</ele><time>2026-04-30T13:55:47.931Z</time></trkpt><trkpt lat="39.8913467064344" lon="9.563535301280567"><ele>328.5</ele><time>2026-04-30T13:55:48.931Z</time></trkpt><trkpt lat="39.89139550246452" lon="9.563346462812484"><ele>326.0</ele><time>2026-04-30T13:55:49.931Z</time></trkpt><trkpt lat="39.89142200678314" lon="9.563131619327091"><ele>326.0</ele><time>2026-04-30T13:55:50.931Z</time></trkpt><trkpt lat="39.89142932317413" lon="9.56288702903056"><ele>326.0</ele><time>2026-04-30T13:55:51.931Z</time></trkpt><trkpt lat="39.8914346253818" lon="9.562631042171528"><ele>326.0</ele><time>2026-04-30T13:55:52.931Z</time></trkpt><trkpt lat="39.89145968278083" lon="9.562367579437204"><ele>326.33333333333337</ele><time>2026-04-30T13:55:53.931Z</time></trkpt><trkpt lat="39.89150560415442" lon="9.562105738360213"><ele>326.6666666666667</ele><time>2026-04-30T13:55:54.931Z</time></trkpt><trkpt lat="39.891566765546095" lon="9.561846219864089"><ele>327.0</ele><time>2026-04-30T13:55:55.931Z</time></trkpt><trkpt lat="39.891636434117935" lon="9.56157007563611"><ele>330.3333333333333</ele><time>2026-04-30T13:55:56.931Z</time></trkpt><trkpt lat="39.89168387539589" lon="9.561281059120796"><ele>333.66666666666663</ele><time>2026-04-30T13:55:57.931Z</time></trkpt><trkpt lat="39.891702043367275" lon="9.56100489390429"><ele>337.0</ele><time>2026-04-30T13:55:58.931Z</time></trkpt><trkpt lat="39.89171214769798" lon="9.560749025891448"><ele>339.66666666666663</ele><time>2026-04-30T13:55:59.931Z</time></trkpt><trkpt lat="39.89173201713581" lon="9.56052682122984"><ele>342.3333333333333</ele><time>2026-04-30T13:56:00.931Z</time></trkpt><trkpt lat="39.891826061271416" lon="9.560362577631041"><ele>345.0</ele><time>2026-04-30T13:56:01.931Z</time></trkpt><trkpt lat="39.89188021796246" lon="9.56016697556559"><ele>335.0</ele><time>2026-04-30T13:56:02.931Z</time></trkpt><trkpt lat="39.89194642068761" lon="9.559967859861475"><ele>325.0</ele><time>2026-04-30T13:56:03.931Z</time></trkpt><trkpt lat="39.89200058957721" lon="9.559761128689884"><ele>315.0</ele><time>2026-04-30T13:56:04.931Z</time></trkpt><trkpt lat="39.892068828821266" lon="9.559566945381082"><ele>319.5</ele><time>2026-04-30T13:56:05.931Z</time></trkpt><trkpt lat="39.89214437524853" lon="9.559401910925866"><ele>324.0</ele><time>2026-04-30T13:56:06.931Z</time></trkpt><trkpt lat="39.89219698186041" lon="9.559251614427733"><ele>328.5</ele><time>2026-04-30T13:56:07.931Z</time></trkpt><trkpt lat="39.89221819722492" lon="9.559117219803534"><ele>333.0</ele><time>2026-04-30T13:56:08.931Z</time></trkpt><trkpt lat="39.89219430737302" lon="9.558995364168483"><ele>333.0</ele><time>2026-04-30T13:56:09.931Z</time></trkpt><trkpt lat="39.892119341995894" lon="9.558878372316522"><ele>333.0</ele><time>2026-04-30T13:56:10.931Z</time></trkpt><trkpt lat="39.891987599591964" lon="9.558762917731418"><ele>333.0</ele><time>2026-04-30T13:56:11.931Z</time></trkpt><trkpt lat="39.891800443819214" lon="9.55866166709353"><ele>340.5</ele><time>2026-04-30T13:56:12.931Z</time></trkpt><trkpt lat="39.89158713041246" lon="9.558543477907754"><ele>348.0</ele><time>2026-04-30T13:56:13.931Z</time></trkpt><trkpt lat="39.89137970046693" lon="9.55838602139926"><ele>348.0</ele><time>2026-04-30T13:56:14.931Z</time></trkpt><trkpt lat="39.89119809306488" lon="9.55823516721659"><ele>348.0</ele><time>2026-04-30T13:56:15.931Z</time></trkpt><trkpt lat="39.8910379622419" lon="9.558104488711487"><ele>348.0</ele><time>2026-04-30T13:56:16.931Z</time></trkpt><trkpt lat="39.89090851491887" lon="9.557977201936293"><ele>349.0</ele><time>2026-04-30T13:56:17.931Z</time></trkpt><trkpt lat="39.890833351101755" lon="9.557850842345063"><ele>350.0</ele><time>2026-04-30T13:56:18.931Z</time></trkpt><trkpt lat="39.890761898528915" lon="9.557767416377327"><ele>351.0</ele><time>2026-04-30T13:56:19.93Z</time></trkpt><trkpt lat="39.890713000726805" lon="9.557701612876642"><ele>352.0</ele><time>2026-04-30T13:56:20.93Z</time></trkpt><trkpt lat="39.890654472070096" lon="9.557645649539241"><ele>353.0</ele><time>2026-04-30T13:56:21.93Z</time></trkpt><trkpt lat="39.89060904776817" lon="9.55758506705475"><ele>354.0</ele><time>2026-04-30T13:56:22.93Z</time></trkpt><trkpt lat="39.89057923680848" lon="9.557448661827678"><ele>354.0</ele><time>2026-04-30T13:56:24.93Z</time></trkpt><trkpt lat="39.89057468761313" lon="9.557332608597548"><ele>354.0</ele><time>2026-04-30T13:56:26.93Z</time></trkpt><trkpt lat="39.89059046155111" lon="9.557200546130957"><ele>354.0</ele><time>2026-04-30T13:56:28.93Z</time></trkpt><trkpt lat="39.8906033581245" lon="9.557057780380582"><ele>354.0</ele><time>2026-04-30T13:56:30.93Z</time></trkpt><trkpt lat="39.89063305295329" lon="9.556893345984076"><ele>354.0</ele><time>2026-04-30T13:56:32.93Z</time></trkpt><trkpt lat="39.89064851358202" lon="9.556805986728861"><ele>354.0</ele><time>2026-04-30T13:56:33.93Z</time></trkpt><trkpt lat="39.89064644121196" lon="9.556715692043005"><ele>354.0</ele><time>2026-04-30T13:56:34.93Z</time></trkpt><trkpt lat="39.890614947299774" lon="9.556622913173657"><ele>354.0</ele><time>2026-04-30T13:56:35.93Z</time></trkpt><trkpt lat="39.8905540576343" lon="9.556542539369524"><ele>354.0</ele><time>2026-04-30T13:56:36.93Z</time></trkpt><trkpt lat="39.89047542847061" lon="9.556486549603676"><ele>354.0</ele><time>2026-04-30T13:56:37.93Z</time></trkpt><trkpt lat="39.89039642882554" lon="9.556443282196003"><ele>354.0</ele><time>2026-04-30T13:56:38.93Z</time></trkpt><trkpt lat="39.89032218069157" lon="9.556397925938027"><ele>354.0</ele><time>2026-04-30T13:56:39.93Z</time></trkpt><trkpt lat="39.89025631911007" lon="9.556353845817345"><ele>354.0</ele><time>2026-04-30T13:56:40.93Z</time></trkpt><trkpt lat="39.89020057852691" lon="9.55630198150265"><ele>354.0</ele><time>2026-04-30T13:56:41.93Z</time></trkpt><trkpt lat="39.89011242165795" lon="9.556196476073572"><ele>354.0</ele><time>2026-04-30T13:56:43.93Z</time></trkpt><trkpt lat="39.89007638595512" lon="9.556128576457468"><ele>354.0</ele><time>2026-04-30T13:56:44.93Z</time></trkpt><trkpt lat="39.89004886729492" lon="9.555984012802572"><ele>354.0</ele><time>2026-04-30T13:56:46.93Z</time></trkpt><trkpt lat="39.89003176950134" lon="9.555869756886603"><ele>356.2857142857143</ele><time>2026-04-30T13:56:48.931Z</time></trkpt><trkpt lat="39.89001516054523" lon="9.555773413526529"><ele>358.57142857142856</ele><time>2026-04-30T13:56:50.931Z</time></trkpt><trkpt lat="39.89000322667232" lon="9.55569159788945"><ele>360.85714285714283</ele><time>2026-04-30T13:56:52.931Z</time></trkpt><trkpt lat="39.88998499533261" lon="9.555565144721786"><ele>363.1428571428571</ele><time>2026-04-30T13:56:55.931Z</time></trkpt><trkpt lat="39.889977595745854" lon="9.555478572400235"><ele>365.42857142857144</ele><time>2026-04-30T13:56:57.931Z</time></trkpt><trkpt lat="39.889983681827864" lon="9.555387429610178"><ele>367.71428571428567</ele><time>2026-04-30T13:57:00.931Z</time></trkpt><trkpt lat="39.88998310799294" lon="9.555299634342866"><ele>370.0</ele><time>2026-04-30T13:57:04.931Z</time></trkpt><trkpt lat="39.88995181121421" lon="9.55522812774061"><ele>370.0</ele><time>2026-04-30T13:57:58.93Z</time></trkpt><trkpt lat="39.88991570954444" lon="9.555117336766596"><ele>370.0</ele><time>2026-04-30T13:58:02.93Z</time></trkpt><trkpt lat="39.889890714642156" lon="9.555000072785258"><ele>370.0</ele><time>2026-04-30T13:58:05.929Z</time></trkpt><trkpt lat="39.889835082056464" lon="9.554920275113725"><ele>370.0</ele><time>2026-04-30T13:58:07.929Z</time></trkpt><trkpt lat="39.889719935571364" lon="9.554877935125885"><ele>370.0</ele><time>2026-04-30T13:58:09.929Z</time></trkpt><trkpt lat="39.88965100892402" lon="9.554883491474754"><ele>370.0</ele><time>2026-04-30T13:58:10.929Z</time></trkpt><trkpt lat="39.88957463264821" lon="9.55490597811964"><ele>370.0</ele><time>2026-04-30T13:58:11.929Z</time></trkpt><trkpt lat="39.88950391665308" lon="9.554936657944106"><ele>370.0</ele><time>2026-04-30T13:58:12.929Z</time></trkpt><trkpt lat="39.88943738646129" lon="9.554970386821969"><ele>370.0</ele><time>2026-04-30T13:58:13.929Z</time></trkpt><trkpt lat="39.88935824436689" lon="9.555008460612443"><ele>370.0</ele><time>2026-04-30T13:58:14.929Z</time></trkpt><trkpt lat="39.889262509041316" lon="9.555044014850555"><ele>370.0</ele><time>2026-04-30T13:58:15.929Z</time></trkpt><trkpt lat="39.88915209849336" lon="9.55504859495117"><ele>370.8</ele><time>2026-04-30T13:58:16.929Z</time></trkpt><trkpt lat="39.889033912179" lon="9.55500747288504"><ele>371.6</ele><time>2026-04-30T13:58:17.929Z</time></trkpt><trkpt lat="39.88894775193851" lon="9.554921581986754"><ele>372.4</ele><time>2026-04-30T13:58:18.929Z</time></trkpt><trkpt lat="39.88888438533019" lon="9.554806803220972"><ele>373.2</ele><time>2026-04-30T13:58:19.929Z</time></trkpt><trkpt lat="39.88885828945685" lon="9.55467208563972"><ele>374.0</ele><time>2026-04-30T13:58:20.929Z</time></trkpt><trkpt lat="39.88887966913941" lon="9.554524407948714"><ele>374.75</ele><time>2026-04-30T13:58:21.929Z</time></trkpt><trkpt lat="39.88894401239787" lon="9.554390831861625"><ele>375.5</ele><time>2026-04-30T13:58:22.929Z</time></trkpt><trkpt lat="39.88903948682073" lon="9.554278373868723"><ele>376.25</ele><time>2026-04-30T13:58:23.929Z</time></trkpt><trkpt lat="39.88913950689633" lon="9.554188416202505"><ele>377.0</ele><time>2026-04-30T13:58:24.929Z</time></trkpt><trkpt lat="39.889258659258466" lon="9.554089123499551"><ele>374.75</ele><time>2026-04-30T13:58:25.929Z</time></trkpt><trkpt lat="39.889373792347364" lon="9.553974387419299"><ele>372.5</ele><time>2026-04-30T13:58:26.929Z</time></trkpt><trkpt lat="39.88946803775606" lon="9.553847261079513"><ele>370.25</ele><time>2026-04-30T13:58:27.929Z</time></trkpt><trkpt lat="39.88952128569398" lon="9.553684265802065"><ele>368.0</ele><time>2026-04-30T13:58:28.929Z</time></trkpt><trkpt lat="39.88954123166476" lon="9.553496858144452"><ele>368.0</ele><time>2026-04-30T13:58:29.929Z</time></trkpt><trkpt lat="39.88952967417085" lon="9.553288461961564"><ele>368.0</ele><time>2026-04-30T13:58:30.929Z</time></trkpt><trkpt lat="39.88950381467767" lon="9.553047702977352"><ele>368.0</ele><time>2026-04-30T13:58:31.929Z</time></trkpt><trkpt lat="39.88950443786098" lon="9.552794412796198"><ele>368.6666666666667</ele><time>2026-04-30T13:58:32.929Z</time></trkpt><trkpt lat="39.88952729871997" lon="9.552544429904565"><ele>369.3333333333333</ele><time>2026-04-30T13:58:33.929Z</time></trkpt><trkpt lat="39.88955974558591" lon="9.552306727518097"><ele>370.0</ele><time>2026-04-30T13:58:34.929Z</time></trkpt><trkpt lat="39.889572116384386" lon="9.552092757857121"><ele>371.75</ele><time>2026-04-30T13:58:35.929Z</time></trkpt><trkpt lat="39.889570925775374" lon="9.551891977155819"><ele>373.5</ele><time>2026-04-30T13:58:36.929Z</time></trkpt><trkpt lat="39.88958296867213" lon="9.551715811574534"><ele>375.25</ele><time>2026-04-30T13:58:37.929Z</time></trkpt><trkpt lat="39.88964436003526" lon="9.551572649257274"><ele>377.0</ele><time>2026-04-30T13:58:38.929Z</time></trkpt><trkpt lat="39.88978233779729" lon="9.551488829768061"><ele>377.0</ele><time>2026-04-30T13:58:39.929Z</time></trkpt><trkpt lat="39.88988643314138" lon="9.55133982911928"><ele>377.0</ele><time>2026-04-30T13:58:40.929Z</time></trkpt><trkpt lat="39.88999551598734" lon="9.551186160730772"><ele>377.0</ele><time>2026-04-30T13:58:41.929Z</time></trkpt><trkpt lat="39.890077979052045" lon="9.551041820189118"><ele>377.20000000000005</ele><time>2026-04-30T13:58:42.929Z</time></trkpt><trkpt lat="39.89014850071158" lon="9.550923460374307"><ele>377.4</ele><time>2026-04-30T13:58:43.929Z</time></trkpt><trkpt lat="39.89021156722918" lon="9.550814704726225"><ele>377.6</ele><time>2026-04-30T13:58:44.929Z</time></trkpt><trkpt lat="39.89026417289087" lon="9.550705940179016"><ele>377.79999999999995</ele><time>2026-04-30T13:58:45.929Z</time></trkpt><trkpt lat="39.890293197871095" lon="9.550585716841793"><ele>378.0</ele><time>2026-04-30T13:58:46.928Z</time></trkpt><trkpt lat="39.89027517742325" lon="9.550446138300293"><ele>381.0</ele><time>2026-04-30T13:58:47.928Z</time></trkpt><trkpt lat="39.89020601754557" lon="9.550307149710209"><ele>384.0</ele><time>2026-04-30T13:58:48.928Z</time></trkpt><trkpt lat="39.89010317436029" lon="9.550185916907054"><ele>387.0</ele><time>2026-04-30T13:58:49.928Z</time></trkpt><trkpt lat="39.889987275649936" lon="9.550073876998102"><ele>390.0</ele><time>2026-04-30T13:58:50.928Z</time></trkpt><trkpt lat="39.88988210756315" lon="9.549952167267742"><ele>391.0</ele><time>2026-04-30T13:58:51.928Z</time></trkpt><trkpt lat="39.889781594786164" lon="9.549836531451387"><ele>392.0</ele><time>2026-04-30T13:58:52.928Z</time></trkpt><trkpt lat="39.88969013039396" lon="9.54971931323156"><ele>393.0</ele><time>2026-04-30T13:58:53.929Z</time></trkpt><trkpt lat="39.88961195620033" lon="9.54962526483132"><ele>394.0</ele><time>2026-04-30T13:58:54.93Z</time></trkpt><trkpt lat="39.88954351059507" lon="9.54953254936642"><ele>395.79999999999995</ele><time>2026-04-30T13:58:55.93Z</time></trkpt><trkpt lat="39.889487627592466" lon="9.549422174896597"><ele>397.59999999999997</ele><time>2026-04-30T13:58:56.93Z</time></trkpt><trkpt lat="39.88945557858815" lon="9.549296136719834"><ele>399.4</ele><time>2026-04-30T13:58:57.93Z</time></trkpt><trkpt lat="39.889462657041804" lon="9.549176262568418"><ele>401.2</ele><time>2026-04-30T13:58:58.93Z</time></trkpt><trkpt lat="39.88951026069098" lon="9.549080667682244"><ele>403.0</ele><time>2026-04-30T13:58:59.93Z</time></trkpt><trkpt lat="39.88958278265671" lon="9.549027933835418"><ele>403.0</ele><time>2026-04-30T13:59:00.929Z</time></trkpt><trkpt lat="39.88967390414964" lon="9.549020172078837"><ele>403.0</ele><time>2026-04-30T13:59:01.929Z</time></trkpt><trkpt lat="39.88975649709767" lon="9.549061278470324"><ele>403.0</ele><time>2026-04-30T13:59:02.93Z</time></trkpt><trkpt lat="39.88984162447729" lon="9.549139133033128"><ele>403.0</ele><time>2026-04-30T13:59:03.929Z</time></trkpt><trkpt lat="39.88992029204431" lon="9.549289941016806"><ele>403.0</ele><time>2026-04-30T13:59:04.929Z</time></trkpt><trkpt lat="39.89004635619901" lon="9.54939270072962"><ele>405.5</ele><time>2026-04-30T13:59:05.93Z</time></trkpt><trkpt lat="39.89017282547611" lon="9.549486290625993"><ele>408.0</ele><time>2026-04-30T13:59:06.93Z</time></trkpt><trkpt lat="39.89030388290083" lon="9.549567607337586"><ele>410.5</ele><time>2026-04-30T13:59:07.93Z</time></trkpt><trkpt lat="39.89043759347279" lon="9.549616293648652"><ele>413.0</ele><time>2026-04-30T13:59:08.93Z</time></trkpt><trkpt lat="39.890566402447725" lon="9.549650082251725"><ele>408.5</ele><time>2026-04-30T13:59:09.93Z</time></trkpt><trkpt lat="39.89070069032015" lon="9.549660945559639"><ele>404.0</ele><time>2026-04-30T13:59:10.93Z</time></trkpt><trkpt lat="39.89082999769224" lon="9.549664674806202"><ele>399.5</ele><time>2026-04-30T13:59:11.93Z</time></trkpt><trkpt lat="39.890951085469496" lon="9.549661056628155"><ele>395.0</ele><time>2026-04-30T13:59:12.93Z</time></trkpt><trkpt lat="39.8910585111493" lon="9.549650805200862"><ele>394.99999999999994</ele><time>2026-04-30T13:59:13.93Z</time></trkpt><trkpt lat="39.891147843057226" lon="9.549640463567227"><ele>395.0</ele><time>2026-04-30T13:59:14.929Z</time></trkpt><trkpt lat="39.891231352381176" lon="9.549627006637126"><ele>395.0</ele><time>2026-04-30T13:59:15.929Z</time></trkpt><trkpt lat="39.89131538927733" lon="9.54960727149661"><ele>395.0</ele><time>2026-04-30T13:59:16.929Z</time></trkpt><trkpt lat="39.89140317751837" lon="9.549587372030434"><ele>394.99999999999994</ele><time>2026-04-30T13:59:17.929Z</time></trkpt><trkpt lat="39.89149857021573" lon="9.54958491103711"><ele>395.0</ele><time>2026-04-30T13:59:18.929Z</time></trkpt><trkpt lat="39.891603874306625" lon="9.54956480412404"><ele>395.0</ele><time>2026-04-30T13:59:19.929Z</time></trkpt><trkpt lat="39.891719691201644" lon="9.549550255021085"><ele>395.0</ele><time>2026-04-30T13:59:20.929Z</time></trkpt><trkpt lat="39.891834574566445" lon="9.549528265015587"><ele>395.0</ele><time>2026-04-30T13:59:21.929Z</time></trkpt><trkpt lat="39.89195020504255" lon="9.549501886012074"><ele>395.0</ele><time>2026-04-30T13:59:22.929Z</time></trkpt><trkpt lat="39.89206693445412" lon="9.549465485547472"><ele>397.5</ele><time>2026-04-30T13:59:23.929Z</time></trkpt><trkpt lat="39.8921795625863" lon="9.549399821080295"><ele>400.0</ele><time>2026-04-30T13:59:24.929Z</time></trkpt><trkpt lat="39.89227783064845" lon="9.549311254042417"><ele>402.5</ele><time>2026-04-30T13:59:25.929Z</time></trkpt><trkpt lat="39.89236221703951" lon="9.549195536063504"><ele>405.0</ele><time>2026-04-30T13:59:26.929Z</time></trkpt><trkpt lat="39.89243932425519" lon="9.549061773483283"><ele>405.0</ele><time>2026-04-30T13:59:27.929Z</time></trkpt><trkpt lat="39.89249593851923" lon="9.548918596107093"><ele>405.0</ele><time>2026-04-30T13:59:28.929Z</time></trkpt><trkpt lat="39.89254590991882" lon="9.54875899917916"><ele>405.0</ele><time>2026-04-30T13:59:29.929Z</time></trkpt><trkpt lat="39.89256754909094" lon="9.548578791853533"><ele>405.0</ele><time>2026-04-30T13:59:30.929Z</time></trkpt><trkpt lat="39.89257135708588" lon="9.548391899769193"><ele>406.5</ele><time>2026-04-30T13:59:31.929Z</time></trkpt><trkpt lat="39.89258131624086" lon="9.548211780337382"><ele>408.0</ele><time>2026-04-30T13:59:32.929Z</time></trkpt><trkpt lat="39.89260112444732" lon="9.548040238686266"><ele>409.5</ele><time>2026-04-30T13:59:33.929Z</time></trkpt><trkpt lat="39.89262283048159" lon="9.547868515692915"><ele>411.0</ele><time>2026-04-30T13:59:34.929Z</time></trkpt><trkpt lat="39.89263332641853" lon="9.547714058764788"><ele>412.25</ele><time>2026-04-30T13:59:35.929Z</time></trkpt><trkpt lat="39.89263271383718" lon="9.54755921258391"><ele>413.5</ele><time>2026-04-30T13:59:36.929Z</time></trkpt><trkpt lat="39.89262818326758" lon="9.547399642622963"><ele>414.75</ele><time>2026-04-30T13:59:37.929Z</time></trkpt><trkpt lat="39.892584638739656" lon="9.547230603184243"><ele>416.0</ele><time>2026-04-30T13:59:38.929Z</time></trkpt><trkpt lat="39.89254191273129" lon="9.547073992317447"><ele>416.25</ele><time>2026-04-30T13:59:39.929Z</time></trkpt><trkpt lat="39.8924704038235" lon="9.54694200412159"><ele>416.5</ele><time>2026-04-30T13:59:40.929Z</time></trkpt><trkpt lat="39.892415062591745" lon="9.546801856897895"><ele>416.75</ele><time>2026-04-30T13:59:41.929Z</time></trkpt><trkpt lat="39.89236630665375" lon="9.546656300428344"><ele>417.0</ele><time>2026-04-30T13:59:42.929Z</time></trkpt><trkpt lat="39.89232270356868" lon="9.54651128920938"><ele>417.0</ele><time>2026-04-30T13:59:43.929Z</time></trkpt><trkpt lat="39.892290648600124" lon="9.546372804374666"><ele>417.0</ele><time>2026-04-30T13:59:44.929Z</time></trkpt><trkpt lat="39.89227181433727" lon="9.546227258340362"><ele>417.0</ele><time>2026-04-30T13:59:45.929Z</time></trkpt><trkpt lat="39.89231667058188" lon="9.546063253838946"><ele>417.0</ele><time>2026-04-30T13:59:46.929Z</time></trkpt><trkpt lat="39.892341599448876" lon="9.545917430196052"><ele>418.0</ele><time>2026-04-30T13:59:47.929Z</time></trkpt><trkpt lat="39.89241992371327" lon="9.545818755295219"><ele>419.0</ele><time>2026-04-30T13:59:48.929Z</time></trkpt><trkpt lat="39.89248192129367" lon="9.545679325189475"><ele>420.0</ele><time>2026-04-30T13:59:49.929Z</time></trkpt><trkpt lat="39.892584503228015" lon="9.545604626644389"><ele>421.0</ele><time>2026-04-30T13:59:50.929Z</time></trkpt><trkpt lat="39.892640775007884" lon="9.545507589797028"><ele>422.0</ele><time>2026-04-30T13:59:51.929Z</time></trkpt><trkpt lat="39.892700551514665" lon="9.5454294222666"><ele>421.16666666666663</ele><time>2026-04-30T13:59:52.929Z</time></trkpt><trkpt lat="39.89275626849086" lon="9.545357014528182"><ele>420.3333333333333</ele><time>2026-04-30T13:59:53.929Z</time></trkpt><trkpt lat="39.8928137120716" lon="9.545262038255924"><ele>419.5</ele><time>2026-04-30T13:59:54.929Z</time></trkpt><trkpt lat="39.892866400109774" lon="9.545174350580174"><ele>418.66666666666663</ele><time>2026-04-30T13:59:55.929Z</time></trkpt><trkpt lat="39.89293519653588" lon="9.545097351424525"><ele>417.8333333333333</ele><time>2026-04-30T13:59:56.928Z</time></trkpt><trkpt lat="39.89299742548885" lon="9.545016242513922"><ele>417.0</ele><time>2026-04-30T13:59:57.928Z</time></trkpt><trkpt lat="39.89304689327782" lon="9.544936524362939"><ele>417.0</ele><time>2026-04-30T13:59:58.928Z</time></trkpt><trkpt lat="39.89308621274735" lon="9.544857572613225"><ele>417.0</ele><time>2026-04-30T13:59:59.928Z</time></trkpt><trkpt lat="39.893139492549935" lon="9.544789248888792"><ele>417.0</ele><time>2026-04-30T14:00:00.928Z</time></trkpt><trkpt lat="39.89318485240274" lon="9.544721084392078"><ele>417.0</ele><time>2026-04-30T14:00:01.928Z</time></trkpt><trkpt lat="39.89326339653227" lon="9.544585276747851"><ele>417.0</ele><time>2026-04-30T14:00:03.928Z</time></trkpt><trkpt lat="39.89331300217893" lon="9.54452366825451"><ele>417.0</ele><time>2026-04-30T14:00:04.928Z</time></trkpt><trkpt lat="39.89336464471558" lon="9.544452510093425"><ele>416.1666666666667</ele><time>2026-04-30T14:00:05.928Z</time></trkpt><trkpt lat="39.89341595726248" lon="9.544387367650295"><ele>415.33333333333337</ele><time>2026-04-30T14:00:06.928Z</time></trkpt><trkpt lat="39.89346594654899" lon="9.544310659488366"><ele>414.5</ele><time>2026-04-30T14:00:07.928Z</time></trkpt><trkpt lat="39.89352363631322" lon="9.54422412654593"><ele>413.6666666666667</ele><time>2026-04-30T14:00:08.928Z</time></trkpt><trkpt lat="39.893577500780324" lon="9.544142041051733"><ele>412.83333333333337</ele><time>2026-04-30T14:00:09.928Z</time></trkpt><trkpt lat="39.89365505891874" lon="9.544075120841022"><ele>412.0</ele><time>2026-04-30T14:00:10.928Z</time></trkpt><trkpt lat="39.8937132275238" lon="9.54398808213553"><ele>412.00000000000006</ele><time>2026-04-30T14:00:11.928Z</time></trkpt><trkpt lat="39.893770273439095" lon="9.543899104247828"><ele>412.0</ele><time>2026-04-30T14:00:12.928Z</time></trkpt><trkpt lat="39.893829539483576" lon="9.543831806179886"><ele>412.0</ele><time>2026-04-30T14:00:13.928Z</time></trkpt><trkpt lat="39.89387539729674" lon="9.543730012243604"><ele>412.0</ele><time>2026-04-30T14:00:14.928Z</time></trkpt><trkpt lat="39.893917368672646" lon="9.543632401289237"><ele>412.00000000000006</ele><time>2026-04-30T14:00:15.928Z</time></trkpt><trkpt lat="39.89394979339242" lon="9.54353625979022"><ele>412.0</ele><time>2026-04-30T14:00:16.928Z</time></trkpt><trkpt lat="39.89397287506787" lon="9.543428920775655"><ele>413.0</ele><time>2026-04-30T14:00:17.928Z</time></trkpt><trkpt lat="39.89398415735877" lon="9.543325253193395"><ele>414.0</ele><time>2026-04-30T14:00:18.928Z</time></trkpt><trkpt lat="39.894002859999894" lon="9.543220460369868"><ele>415.0</ele><time>2026-04-30T14:00:19.928Z</time></trkpt><trkpt lat="39.894029421101415" lon="9.543115344590754"><ele>416.0</ele><time>2026-04-30T14:00:20.928Z</time></trkpt><trkpt lat="39.89404961356274" lon="9.542986051194859"><ele>417.0</ele><time>2026-04-30T14:00:21.928Z</time></trkpt><trkpt lat="39.89402402118232" lon="9.542854380861655"><ele>418.0</ele><time>2026-04-30T14:00:22.928Z</time></trkpt><trkpt lat="39.89399464779419" lon="9.542733183305742"><ele>419.0</ele><time>2026-04-30T14:00:23.928Z</time></trkpt><trkpt lat="39.89395220855947" lon="9.542613432394326"><ele>420.0</ele><time>2026-04-30T14:00:24.928Z</time></trkpt><trkpt lat="39.8939044207099" lon="9.542489772653632"><ele>421.0</ele><time>2026-04-30T14:00:25.928Z</time></trkpt><trkpt lat="39.893859186318515" lon="9.542374076715694"><ele>422.0</ele><time>2026-04-30T14:00:26.928Z</time></trkpt><trkpt lat="39.89382248072024" lon="9.542254993047894"><ele>422.0</ele><time>2026-04-30T14:00:27.928Z</time></trkpt><trkpt lat="39.89372131852065" lon="9.542123966971603"><ele>422.0</ele><time>2026-04-30T14:00:28.928Z</time></trkpt><trkpt lat="39.89372469994008" lon="9.54199146008515"><ele>422.0</ele><time>2026-04-30T14:00:29.928Z</time></trkpt><trkpt lat="39.89372787261017" lon="9.541855858942348"><ele>422.0</ele><time>2026-04-30T14:00:30.928Z</time></trkpt><trkpt lat="39.89373124899529" lon="9.541699062758934"><ele>422.0</ele><time>2026-04-30T14:00:31.928Z</time></trkpt><trkpt lat="39.89374913167919" lon="9.541540727543701"><ele>422.0</ele><time>2026-04-30T14:00:32.928Z</time></trkpt><trkpt lat="39.89374005630299" lon="9.541380011654569"><ele>422.0</ele><time>2026-04-30T14:00:33.928Z</time></trkpt><trkpt lat="39.89375225752909" lon="9.541217181571545"><ele>422.0</ele><time>2026-04-30T14:00:34.928Z</time></trkpt><trkpt lat="39.893764173819854" lon="9.541049686291055"><ele>423.25</ele><time>2026-04-30T14:00:35.928Z</time></trkpt><trkpt lat="39.893775592825136" lon="9.54088117653627"><ele>424.5</ele><time>2026-04-30T14:00:36.928Z</time></trkpt><trkpt lat="39.89378828218895" lon="9.540711599539897"><ele>425.75</ele><time>2026-04-30T14:00:37.928Z</time></trkpt><trkpt lat="39.89381404125252" lon="9.540553752671817"><ele>427.0</ele><time>2026-04-30T14:00:38.928Z</time></trkpt><trkpt lat="39.89389711889413" lon="9.54043299240394"><ele>428.25</ele><time>2026-04-30T14:00:39.927Z</time></trkpt><trkpt lat="39.89398659066625" lon="9.540303467485844"><ele>429.5</ele><time>2026-04-30T14:00:40.927Z</time></trkpt><trkpt lat="39.89408556737458" lon="9.54019562857795"><ele>430.75</ele><time>2026-04-30T14:00:41.927Z</time></trkpt><trkpt lat="39.89416047429509" lon="9.540073025984551"><ele>432.0</ele><time>2026-04-30T14:00:42.927Z</time></trkpt><trkpt lat="39.89421817508367" lon="9.539931087994338"><ele>432.0</ele><time>2026-04-30T14:00:43.927Z</time></trkpt><trkpt lat="39.89424489545948" lon="9.539771344352916"><ele>432.0</ele><time>2026-04-30T14:00:44.927Z</time></trkpt><trkpt lat="39.89424746324471" lon="9.539591929503313"><ele>432.0</ele><time>2026-04-30T14:00:45.927Z</time></trkpt><trkpt lat="39.89429097988877" lon="9.539435970726519"><ele>432.0</ele><time>2026-04-30T14:00:46.927Z</time></trkpt><trkpt lat="39.89432912610371" lon="9.53929747414241"><ele>431.5</ele><time>2026-04-30T14:00:47.927Z</time></trkpt><trkpt lat="39.89440363599888" lon="9.539197259028473"><ele>431.0</ele><time>2026-04-30T14:00:48.927Z</time></trkpt><trkpt lat="39.89451797156352" lon="9.53913046500226"><ele>430.5</ele><time>2026-04-30T14:00:49.927Z</time></trkpt><trkpt lat="39.89463997762421" lon="9.539073400506748"><ele>430.0</ele><time>2026-04-30T14:00:50.927Z</time></trkpt><trkpt lat="39.89476308691816" lon="9.539002705235667"><ele>430.0</ele><time>2026-04-30T14:00:51.927Z</time></trkpt><trkpt lat="39.89489375519676" lon="9.538951238908073"><ele>430.0</ele><time>2026-04-30T14:00:52.927Z</time></trkpt><trkpt lat="39.89500972264462" lon="9.538872453013061"><ele>430.0</ele><time>2026-04-30T14:00:53.927Z</time></trkpt><trkpt lat="39.895099473198876" lon="9.538772374874668"><ele>430.0</ele><time>2026-04-30T14:00:54.927Z</time></trkpt><trkpt lat="39.89516678315071" lon="9.538661988898124"><ele>429.1666666666667</ele><time>2026-04-30T14:00:55.927Z</time></trkpt><trkpt lat="39.89521090500726" lon="9.538565169869043"><ele>428.33333333333337</ele><time>2026-04-30T14:00:56.927Z</time></trkpt><trkpt lat="39.89523749250989" lon="9.538489263600109"><ele>427.5</ele><time>2026-04-30T14:00:57.927Z</time></trkpt><trkpt lat="39.89525392016808" lon="9.538377480049572"><ele>426.66666666666663</ele><time>2026-04-30T14:00:59.929Z</time></trkpt><trkpt lat="39.89518577570671" lon="9.538277222103861"><ele>425.8333333333333</ele><time>2026-04-30T14:01:01.929Z</time></trkpt><trkpt lat="39.89513981693615" lon="9.538209395505882"><ele>425.0</ele><time>2026-04-30T14:01:02.928Z</time></trkpt><trkpt lat="39.89508170654274" lon="9.538102386504816"><ele>430.5</ele><time>2026-04-30T14:01:03.928Z</time></trkpt><trkpt lat="39.89502371423104" lon="9.53797428138809"><ele>436.0</ele><time>2026-04-30T14:01:04.928Z</time></trkpt><trkpt lat="39.89497415879288" lon="9.53783956058484"><ele>441.5</ele><time>2026-04-30T14:01:05.928Z</time></trkpt><trkpt lat="39.89491590838607" lon="9.537690066793687"><ele>447.0</ele><time>2026-04-30T14:01:06.929Z</time></trkpt><trkpt lat="39.89485104947353" lon="9.537535409122903"><ele>448.25</ele><time>2026-04-30T14:01:07.929Z</time></trkpt><trkpt lat="39.89478294631668" lon="9.537383820902381"><ele>449.5</ele><time>2026-04-30T14:01:08.929Z</time></trkpt><trkpt lat="39.89471906207343" lon="9.537238350575254"><ele>450.75</ele><time>2026-04-30T14:01:09.928Z</time></trkpt><trkpt lat="39.894657541081465" lon="9.537088163241691"><ele>452.0</ele><time>2026-04-30T14:01:10.928Z</time></trkpt><trkpt lat="39.894596949203645" lon="9.536929343499818"><ele>452.25</ele><time>2026-04-30T14:01:11.928Z</time></trkpt><trkpt lat="39.894531235989184" lon="9.536773640112958"><ele>452.5</ele><time>2026-04-30T14:01:12.928Z</time></trkpt><trkpt lat="39.894466047539034" lon="9.53661955430651"><ele>452.75</ele><time>2026-04-30T14:01:13.928Z</time></trkpt><trkpt lat="39.894403698972276" lon="9.536457671834334"><ele>453.0</ele><time>2026-04-30T14:01:14.928Z</time></trkpt><trkpt lat="39.89434351527885" lon="9.53631772676772"><ele>453.79999999999995</ele><time>2026-04-30T14:01:15.928Z</time></trkpt><trkpt lat="39.89428531414437" lon="9.536210788620247"><ele>454.59999999999997</ele><time>2026-04-30T14:01:16.928Z</time></trkpt><trkpt lat="39.894226313235315" lon="9.536143260111709"><ele>455.40000000000003</ele><time>2026-04-30T14:01:17.928Z</time></trkpt><trkpt lat="39.89416314902891" lon="9.536118674260667"><ele>456.20000000000005</ele><time>2026-04-30T14:01:18.928Z</time></trkpt><trkpt lat="39.894065262030196" lon="9.536153204337214"><ele>457.0</ele><time>2026-04-30T14:01:19.928Z</time></trkpt><trkpt lat="39.89397162976683" lon="9.536226106865662"><ele>462.6666666666667</ele><time>2026-04-30T14:01:20.928Z</time></trkpt><trkpt lat="39.893869025477805" lon="9.536363649985411"><ele>468.33333333333337</ele><time>2026-04-30T14:01:21.928Z</time></trkpt><trkpt lat="39.89374771243828" lon="9.536478598550765"><ele>474.0</ele><time>2026-04-30T14:01:22.928Z</time></trkpt><trkpt lat="39.89359331885632" lon="9.536583658843885"><ele>474.0</ele><time>2026-04-30T14:01:23.928Z</time></trkpt><trkpt lat="39.893448794357376" lon="9.536670846525613"><ele>474.0</ele><time>2026-04-30T14:01:24.927Z</time></trkpt><trkpt lat="39.8933125127064" lon="9.53675251230322"><ele>474.0</ele><time>2026-04-30T14:01:25.927Z</time></trkpt><trkpt lat="39.893185924317116" lon="9.536821518451488"><ele>474.0</ele><time>2026-04-30T14:01:26.927Z</time></trkpt><trkpt lat="39.893070762489145" lon="9.536882629679605"><ele>476.6</ele><time>2026-04-30T14:01:27.927Z</time></trkpt><trkpt lat="39.89295896080365" lon="9.536933725659075"><ele>479.2</ele><time>2026-04-30T14:01:28.927Z</time></trkpt><trkpt lat="39.89285718360722" lon="9.536983299245627"><ele>481.80000000000007</ele><time>2026-04-30T14:01:29.927Z</time></trkpt><trkpt lat="39.89276656930809" lon="9.537027392923088"><ele>484.40000000000003</ele><time>2026-04-30T14:01:30.927Z</time></trkpt><trkpt lat="39.89267741690591" lon="9.53706636633087"><ele>487.0</ele><time>2026-04-30T14:01:31.927Z</time></trkpt><trkpt lat="39.89258932695761" lon="9.537106433647082"><ele>489.6666666666667</ele><time>2026-04-30T14:01:32.927Z</time></trkpt><trkpt lat="39.892509991020994" lon="9.537139755254993"><ele>492.33333333333337</ele><time>2026-04-30T14:01:33.927Z</time></trkpt><trkpt lat="39.89244153710216" lon="9.537168836744419"><ele>495.0</ele><time>2026-04-30T14:01:34.927Z</time></trkpt><trkpt lat="39.89235508314431" lon="9.53721441691586"><ele>497.66666666666663</ele><time>2026-04-30T14:01:36.927Z</time></trkpt><trkpt lat="39.892293004111615" lon="9.53723456411013"><ele>500.3333333333333</ele><time>2026-04-30T14:01:38.927Z</time></trkpt><trkpt lat="39.89222634369235" lon="9.537258981832338"><ele>503.0</ele><time>2026-04-30T14:01:40.927Z</time></trkpt><trkpt lat="39.89214727684437" lon="9.537104561043044"><ele>503.16666666666663</ele><time>2026-04-30T14:01:42.927Z</time></trkpt><trkpt lat="39.892086167893055" lon="9.53702366967167"><ele>503.3333333333333</ele><time>2026-04-30T14:01:43.927Z</time></trkpt><trkpt lat="39.89204066400709" lon="9.536918005990433"><ele>503.5</ele><time>2026-04-30T14:01:44.927Z</time></trkpt><trkpt lat="39.891990417987955" lon="9.536843142541956"><ele>503.66666666666663</ele><time>2026-04-30T14:01:45.927Z</time></trkpt><trkpt lat="39.89192828386786" lon="9.53681205914285"><ele>503.8333333333333</ele><time>2026-04-30T14:01:46.927Z</time></trkpt><trkpt lat="39.8918649016857" lon="9.536839999210443"><ele>504.0</ele><time>2026-04-30T14:01:47.927Z</time></trkpt><trkpt lat="39.89179467477473" lon="9.53691000886758"><ele>505.0</ele><time>2026-04-30T14:01:48.927Z</time></trkpt><trkpt lat="39.89172125042466" lon="9.536995443933765"><ele>506.0</ele><time>2026-04-30T14:01:49.927Z</time></trkpt><trkpt lat="39.891641128481034" lon="9.537065799609248"><ele>507.0</ele><time>2026-04-30T14:01:50.927Z</time></trkpt><trkpt lat="39.89155842258665" lon="9.537120408226452"><ele>508.0</ele><time>2026-04-30T14:01:51.927Z</time></trkpt><trkpt lat="39.89148437692437" lon="9.537155532275062"><ele>509.0</ele><time>2026-04-30T14:01:52.927Z</time></trkpt><trkpt lat="39.89138414928262" lon="9.537138876839101"><ele>510.0</ele><time>2026-04-30T14:01:54.927Z</time></trkpt><trkpt lat="39.89139549208365" lon="9.537024840298699"><ele>511.0</ele><time>2026-04-30T14:01:56.927Z</time></trkpt><trkpt lat="39.89144597415662" lon="9.536894224056507"><ele>512.0</ele><time>2026-04-30T14:01:58.927Z</time></trkpt><trkpt lat="39.891479712993984" lon="9.536794982157383"><ele>513.0</ele><time>2026-04-30T14:01:59.927Z</time></trkpt><trkpt lat="39.89151938483895" lon="9.53668753374377"><ele>514.0</ele><time>2026-04-30T14:02:00.927Z</time></trkpt><trkpt lat="39.891543419189006" lon="9.536568127800278"><ele>514.0</ele><time>2026-04-30T14:02:01.927Z</time></trkpt><trkpt lat="39.89156590539167" lon="9.536468833073148"><ele>514.0</ele><time>2026-04-30T14:02:02.927Z</time></trkpt><trkpt lat="39.89155030115916" lon="9.53637697188918"><ele>514.0</ele><time>2026-04-30T14:02:03.927Z</time></trkpt><trkpt lat="39.89149784164015" lon="9.536302131549558"><ele>514.0</ele><time>2026-04-30T14:02:04.927Z</time></trkpt><trkpt lat="39.89142622375072" lon="9.536240159124016"><ele>514.0</ele><time>2026-04-30T14:02:05.927Z</time></trkpt><trkpt lat="39.891368523147804" lon="9.536176611119144"><ele>514.0</ele><time>2026-04-30T14:02:06.926Z</time></trkpt><trkpt lat="39.89134880604906" lon="9.536098009251663"><ele>515.0</ele><time>2026-04-30T14:02:07.926Z</time></trkpt><trkpt lat="39.89137471857844" lon="9.53598085320227"><ele>516.0</ele><time>2026-04-30T14:02:08.926Z</time></trkpt><trkpt lat="39.89136183535273" lon="9.535825977266452"><ele>517.0</ele><time>2026-04-30T14:02:09.926Z</time></trkpt><trkpt lat="39.891330099119" lon="9.535659567366194"><ele>518.0</ele><time>2026-04-30T14:02:10.926Z</time></trkpt><trkpt lat="39.891287496371355" lon="9.535492608917604"><ele>518.25</ele><time>2026-04-30T14:02:11.926Z</time></trkpt><trkpt lat="39.891260638107354" lon="9.535307730441374"><ele>518.5</ele><time>2026-04-30T14:02:12.926Z</time></trkpt><trkpt lat="39.89124184093288" lon="9.535116616793358"><ele>518.75</ele><time>2026-04-30T14:02:13.926Z</time></trkpt><trkpt lat="39.89122075987906" lon="9.53493926392967"><ele>519.0</ele><time>2026-04-30T14:02:14.926Z</time></trkpt><trkpt lat="39.891211369722946" lon="9.534771727065346"><ele>519.0</ele><time>2026-04-30T14:02:15.926Z</time></trkpt><trkpt lat="39.89120241324622" lon="9.534624581558226"><ele>519.0</ele><time>2026-04-30T14:02:16.926Z</time></trkpt><trkpt lat="39.89119699581223" lon="9.534485575253278"><ele>519.0</ele><time>2026-04-30T14:02:17.926Z</time></trkpt><trkpt lat="39.89119034221783" lon="9.534352868217258"><ele>519.0</ele><time>2026-04-30T14:02:18.926Z</time></trkpt><trkpt lat="39.89118717392519" lon="9.534221016215792"><ele>519.0</ele><time>2026-04-30T14:02:19.926Z</time></trkpt><trkpt lat="39.89118244230585" lon="9.53409446120351"><ele>520.4</ele><time>2026-04-30T14:02:20.926Z</time></trkpt><trkpt lat="39.89118242037012" lon="9.53396959223819"><ele>521.8</ele><time>2026-04-30T14:02:21.926Z</time></trkpt><trkpt lat="39.891180831442384" lon="9.533844144770356"><ele>523.2</ele><time>2026-04-30T14:02:22.926Z</time></trkpt><trkpt lat="39.89118381740251" lon="9.533713178695628"><ele>524.6</ele><time>2026-04-30T14:02:23.926Z</time></trkpt><trkpt lat="39.891176785535784" lon="9.53358969877262"><ele>526.0</ele><time>2026-04-30T14:02:24.926Z</time></trkpt><trkpt lat="39.89117119546714" lon="9.533459011057804"><ele>528.2</ele><time>2026-04-30T14:02:25.926Z</time></trkpt><trkpt lat="39.891199005951044" lon="9.53332623069675"><ele>530.4000000000001</ele><time>2026-04-30T14:02:26.926Z</time></trkpt><trkpt lat="39.891210871457076" lon="9.533178912619467"><ele>532.6</ele><time>2026-04-30T14:02:27.926Z</time></trkpt><trkpt lat="39.89124453251595" lon="9.533046443649456"><ele>534.8000000000001</ele><time>2026-04-30T14:02:28.926Z</time></trkpt><trkpt lat="39.891276420178976" lon="9.532926673701748"><ele>537.0</ele><time>2026-04-30T14:02:29.926Z</time></trkpt><trkpt lat="39.89130251237135" lon="9.532812703253887"><ele>539.6666666666666</ele><time>2026-04-30T14:02:30.926Z</time></trkpt><trkpt lat="39.89133771248455" lon="9.532709994088751"><ele>542.3333333333334</ele><time>2026-04-30T14:02:31.926Z</time></trkpt><trkpt lat="39.89137182884659" lon="9.5326166636615"><ele>545.0</ele><time>2026-04-30T14:02:32.926Z</time></trkpt><trkpt lat="39.891429961844885" lon="9.532537491616266"><ele>547.6666666666667</ele><time>2026-04-30T14:02:33.926Z</time></trkpt><trkpt lat="39.8914769467753" lon="9.532461032899183"><ele>550.3333333333334</ele><time>2026-04-30T14:02:34.926Z</time></trkpt><trkpt lat="39.89151955212743" lon="9.532376316802617"><ele>553.0</ele><time>2026-04-30T14:02:35.926Z</time></trkpt><trkpt lat="39.89156318206543" lon="9.532267481311552"><ele>553.0</ele><time>2026-04-30T14:02:36.926Z</time></trkpt><trkpt lat="39.891592954353136" lon="9.532140379480307"><ele>553.0</ele><time>2026-04-30T14:02:37.926Z</time></trkpt><trkpt lat="39.89163258565047" lon="9.53200896688124"><ele>553.0</ele><time>2026-04-30T14:02:38.926Z</time></trkpt><trkpt lat="39.89166742907918" lon="9.531877408495456"><ele>553.0</ele><time>2026-04-30T14:02:39.926Z</time></trkpt><trkpt lat="39.891709357546446" lon="9.531748516946406"><ele>553.0</ele><time>2026-04-30T14:02:40.926Z</time></trkpt><trkpt lat="39.891756749618104" lon="9.53161070547319"><ele>552.6</ele><time>2026-04-30T14:02:41.926Z</time></trkpt><trkpt lat="39.89180144435899" lon="9.531477266149292"><ele>552.1999999999999</ele><time>2026-04-30T14:02:42.926Z</time></trkpt><trkpt lat="39.89185166741198" lon="9.531339611034722"><ele>551.8</ele><time>2026-04-30T14:02:43.926Z</time></trkpt><trkpt lat="39.891903557688515" lon="9.531208060287824"><ele>551.4</ele><time>2026-04-30T14:02:44.926Z</time></trkpt><trkpt lat="39.8919531474716" lon="9.531087562225387"><ele>551.0</ele><time>2026-04-30T14:02:45.926Z</time></trkpt><trkpt lat="39.89200015879892" lon="9.530989693229982"><ele>551.0</ele><time>2026-04-30T14:02:46.926Z</time></trkpt><trkpt lat="39.89204095675786" lon="9.530897542904947"><ele>551.0</ele><time>2026-04-30T14:02:47.926Z</time></trkpt><trkpt lat="39.89203088789301" lon="9.530813336210011"><ele>551.0</ele><time>2026-04-30T14:02:48.925Z</time></trkpt><trkpt lat="39.89196084747536" lon="9.530728298020929"><ele>551.0</ele><time>2026-04-30T14:02:50.925Z</time></trkpt><trkpt lat="39.8918398842448" lon="9.53076587740573"><ele>551.0</ele><time>2026-04-30T14:02:52.925Z</time></trkpt><trkpt lat="39.89176197188815" lon="9.530840545229946"><ele>556.4</ele><time>2026-04-30T14:02:53.925Z</time></trkpt><trkpt lat="39.89167491494781" lon="9.530913558429525"><ele>561.8</ele><time>2026-04-30T14:02:54.925Z</time></trkpt><trkpt lat="39.891596389791154" lon="9.530964802938021"><ele>567.1999999999999</ele><time>2026-04-30T14:02:55.925Z</time></trkpt><trkpt lat="39.89149656962354" lon="9.530983669924789"><ele>572.6</ele><time>2026-04-30T14:02:57.925Z</time></trkpt><trkpt lat="39.8914325605458" lon="9.5309543052171"><ele>578.0</ele><time>2026-04-30T14:02:59.925Z</time></trkpt><trkpt lat="39.89144470126388" lon="9.53080685610644"><ele>578.0</ele><time>2026-04-30T14:03:01.925Z</time></trkpt><trkpt lat="39.89143845298916" lon="9.53069300091241"><ele>578.0</ele><time>2026-04-30T14:03:02.925Z</time></trkpt><trkpt lat="39.891420441747734" lon="9.530559759320145"><ele>578.0</ele><time>2026-04-30T14:03:03.925Z</time></trkpt><trkpt lat="39.89142220933875" lon="9.530418182786487"><ele>578.0</ele><time>2026-04-30T14:03:04.925Z</time></trkpt><trkpt lat="39.89141825032545" lon="9.530253162005275"><ele>578.0</ele><time>2026-04-30T14:03:05.927Z</time></trkpt><trkpt lat="39.89140837093252" lon="9.53007204921185"><ele>577.5</ele><time>2026-04-30T14:03:06.927Z</time></trkpt><trkpt lat="39.89139580176195" lon="9.529887075043495"><ele>577.0</ele><time>2026-04-30T14:03:07.927Z</time></trkpt><trkpt lat="39.8913802327745" lon="9.52969838277753"><ele>576.5</ele><time>2026-04-30T14:03:08.927Z</time></trkpt><trkpt lat="39.89136750916955" lon="9.529500259383806"><ele>576.0</ele><time>2026-04-30T14:03:09.927Z</time></trkpt><trkpt lat="39.89137446471054" lon="9.529300896624063"><ele>577.75</ele><time>2026-04-30T14:03:10.927Z</time></trkpt><trkpt lat="39.891393066015695" lon="9.529114171421446"><ele>579.5</ele><time>2026-04-30T14:03:11.927Z</time></trkpt><trkpt lat="39.891432587366566" lon="9.528943330974753"><ele>581.25</ele><time>2026-04-30T14:03:12.926Z</time></trkpt><trkpt lat="39.891495354669296" lon="9.528778820210883"><ele>583.0</ele><time>2026-04-30T14:03:13.926Z</time></trkpt><trkpt lat="39.891579780502425" lon="9.528625483698834"><ele>588.3333333333334</ele><time>2026-04-30T14:03:14.926Z</time></trkpt><trkpt lat="39.891686377970515" lon="9.528490966146133"><ele>593.6666666666666</ele><time>2026-04-30T14:03:15.926Z</time></trkpt><trkpt lat="39.891782240182074" lon="9.528335532425345"><ele>599.0</ele><time>2026-04-30T14:03:16.926Z</time></trkpt><trkpt lat="39.891893538817854" lon="9.528190174914231"><ele>599.0</ele><time>2026-04-30T14:03:17.927Z</time></trkpt><trkpt lat="39.89200529373332" lon="9.528038544066915"><ele>599.0</ele><time>2026-04-30T14:03:18.927Z</time></trkpt><trkpt lat="39.89211382032155" lon="9.527883779242758"><ele>599.0</ele><time>2026-04-30T14:03:19.927Z</time></trkpt><trkpt lat="39.892217034643586" lon="9.527739180818687"><ele>601.25</ele><time>2026-04-30T14:03:20.927Z</time></trkpt><trkpt lat="39.89230905885204" lon="9.527604637092553"><ele>603.5</ele><time>2026-04-30T14:03:21.927Z</time></trkpt><trkpt lat="39.892402731405156" lon="9.527476091921015"><ele>605.75</ele><time>2026-04-30T14:03:22.927Z</time></trkpt><trkpt lat="39.892512660477514" lon="9.527363908154129"><ele>608.0</ele><time>2026-04-30T14:03:23.927Z</time></trkpt><trkpt lat="39.89259661426484" lon="9.527238758505128"><ele>608.0</ele><time>2026-04-30T14:03:24.927Z</time></trkpt><trkpt lat="39.89268088915979" lon="9.527120425607917"><ele>608.0</ele><time>2026-04-30T14:03:25.927Z</time></trkpt><trkpt lat="39.89276941290719" lon="9.526996243066868"><ele>608.0</ele><time>2026-04-30T14:03:26.927Z</time></trkpt><trkpt lat="39.892863251064" lon="9.526871714211211"><ele>608.0</ele><time>2026-04-30T14:03:27.927Z</time></trkpt><trkpt lat="39.89296001106165" lon="9.526747055800218"><ele>611.0</ele><time>2026-04-30T14:03:28.927Z</time></trkpt><trkpt lat="39.89305553808379" lon="9.526618091736239"><ele>614.0</ele><time>2026-04-30T14:03:29.927Z</time></trkpt><trkpt lat="39.89314957707214" lon="9.526486542758926"><ele>617.0</ele><time>2026-04-30T14:03:30.927Z</time></trkpt><trkpt lat="39.893243659609944" lon="9.526352848124212"><ele>620.0</ele><time>2026-04-30T14:03:31.927Z</time></trkpt><trkpt lat="39.89334153093759" lon="9.52621439148702"><ele>623.0</ele><time>2026-04-30T14:03:32.927Z</time></trkpt><trkpt lat="39.89344172908225" lon="9.526073256825851"><ele>626.0</ele><time>2026-04-30T14:03:33.927Z</time></trkpt><trkpt lat="39.89354248892545" lon="9.525930701195028"><ele>629.0</ele><time>2026-04-30T14:03:34.926Z</time></trkpt><trkpt lat="39.893652672250866" lon="9.525789359622783"><ele>629.0</ele><time>2026-04-30T14:03:35.926Z</time></trkpt><trkpt lat="39.89377321455254" lon="9.525658762927078"><ele>629.0</ele><time>2026-04-30T14:03:36.926Z</time></trkpt><trkpt lat="39.89390906229206" lon="9.52554615251125"><ele>629.0</ele><time>2026-04-30T14:03:37.926Z</time></trkpt><trkpt lat="39.89405949035835" lon="9.525440279356738"><ele>634.6666666666666</ele><time>2026-04-30T14:03:38.926Z</time></trkpt><trkpt lat="39.89422313891553" lon="9.525343388031947"><ele>640.3333333333334</ele><time>2026-04-30T14:03:39.926Z</time></trkpt><trkpt lat="39.894393355290894" lon="9.525249170846209"><ele>646.0</ele><time>2026-04-30T14:03:40.926Z</time></trkpt><trkpt lat="39.89456429196069" lon="9.525148630157872"><ele>646.3333333333334</ele><time>2026-04-30T14:03:41.926Z</time></trkpt><trkpt lat="39.89475056043962" lon="9.525025644115429"><ele>646.6666666666666</ele><time>2026-04-30T14:03:42.926Z</time></trkpt><trkpt lat="39.89494646861883" lon="9.524873804742077"><ele>647.0</ele><time>2026-04-30T14:03:43.926Z</time></trkpt><trkpt lat="39.89514329008593" lon="9.524715977195582"><ele>649.0</ele><time>2026-04-30T14:03:44.926Z</time></trkpt><trkpt lat="39.895315475891806" lon="9.524563388079587"><ele>651.0</ele><time>2026-04-30T14:03:45.926Z</time></trkpt><trkpt lat="39.89546111711947" lon="9.524412785893178"><ele>653.0</ele><time>2026-04-30T14:03:46.926Z</time></trkpt><trkpt lat="39.895596181472385" lon="9.524279024336167"><ele>653.0</ele><time>2026-04-30T14:03:47.926Z</time></trkpt><trkpt lat="39.89572687721161" lon="9.524156123008765"><ele>653.0</ele><time>2026-04-30T14:03:48.926Z</time></trkpt><trkpt lat="39.895853023117844" lon="9.524037839480508"><ele>653.0</ele><time>2026-04-30T14:03:49.926Z</time></trkpt><trkpt lat="39.89597464415508" lon="9.523923762020829"><ele>651.75</ele><time>2026-04-30T14:03:50.926Z</time></trkpt><trkpt lat="39.89610077791408" lon="9.5238225946844"><ele>650.5</ele><time>2026-04-30T14:03:51.926Z</time></trkpt><trkpt lat="39.89622588243173" lon="9.52373632624262"><ele>649.25</ele><time>2026-04-30T14:03:52.926Z</time></trkpt><trkpt lat="39.896370715648324" lon="9.52370191827241"><ele>648.0</ele><time>2026-04-30T14:03:53.926Z</time></trkpt><trkpt lat="39.896516947468896" lon="9.523681085279353"><ele>650.6666666666666</ele><time>2026-04-30T14:03:54.926Z</time></trkpt><trkpt lat="39.89666483968236" lon="9.523694394192072"><ele>653.3333333333333</ele><time>2026-04-30T14:03:55.926Z</time></trkpt><trkpt lat="39.89681198279667" lon="9.523740140102193"><ele>656.0</ele><time>2026-04-30T14:03:56.926Z</time></trkpt><trkpt lat="39.8969611036278" lon="9.52381813727193"><ele>656.0</ele><time>2026-04-30T14:03:57.926Z</time></trkpt><trkpt lat="39.89712548311801" lon="9.523887892033057"><ele>656.0</ele><time>2026-04-30T14:03:58.926Z</time></trkpt><trkpt lat="39.897288220637954" lon="9.52393267396062"><ele>656.0</ele><time>2026-04-30T14:03:59.926Z</time></trkpt><trkpt lat="39.897458237470424" lon="9.523920795579517"><ele>654.6666666666666</ele><time>2026-04-30T14:04:00.926Z</time></trkpt><trkpt lat="39.89763488803474" lon="9.523895008271205"><ele>653.3333333333334</ele><time>2026-04-30T14:04:01.926Z</time></trkpt><trkpt lat="39.89781814039656" lon="9.523810968075715"><ele>652.0</ele><time>2026-04-30T14:04:02.926Z</time></trkpt><trkpt lat="39.89801500554934" lon="9.523718738619266"><ele>655.3333333333334</ele><time>2026-04-30T14:04:03.926Z</time></trkpt><trkpt lat="39.89822798680861" lon="9.523659505504096"><ele>658.6666666666666</ele><time>2026-04-30T14:04:04.926Z</time></trkpt><trkpt lat="39.89843552850874" lon="9.523571343901036"><ele>662.0</ele><time>2026-04-30T14:04:05.926Z</time></trkpt><trkpt lat="39.89863218055465" lon="9.523492088924442"><ele>662.0</ele><time>2026-04-30T14:04:06.926Z</time></trkpt><trkpt lat="39.898813288860346" lon="9.523407757472606"><ele>662.0</ele><time>2026-04-30T14:04:07.926Z</time></trkpt><trkpt lat="39.89897638191052" lon="9.523293515598448"><ele>662.0</ele><time>2026-04-30T14:04:08.926Z</time></trkpt><trkpt lat="39.899113933670385" lon="9.523132886240623"><ele>662.0</ele><time>2026-04-30T14:04:09.926Z</time></trkpt><trkpt lat="39.8992401266606" lon="9.522949839003761"><ele>662.0</ele><time>2026-04-30T14:04:10.926Z</time></trkpt><trkpt lat="39.89935257010079" lon="9.522762425138135"><ele>662.0</ele><time>2026-04-30T14:04:11.926Z</time></trkpt><trkpt lat="39.89946282011204" lon="9.522579592658174"><ele>665.6666666666666</ele><time>2026-04-30T14:04:12.926Z</time></trkpt><trkpt lat="39.89957273815813" lon="9.522406153084273"><ele>669.3333333333334</ele><time>2026-04-30T14:04:13.926Z</time></trkpt><trkpt lat="39.899680008085866" lon="9.522242301861857"><ele>673.0</ele><time>2026-04-30T14:04:14.926Z</time></trkpt><trkpt lat="39.89978457256377" lon="9.52208200859786"><ele>677.0</ele><time>2026-04-30T14:04:15.926Z</time></trkpt><trkpt lat="39.89988455986187" lon="9.521929356515933"><ele>681.0</ele><time>2026-04-30T14:04:16.925Z</time></trkpt><trkpt lat="39.8999794150398" lon="9.521788115325887"><ele>685.0</ele><time>2026-04-30T14:04:17.925Z</time></trkpt><trkpt lat="39.90007127838589" lon="9.521650716387528"><ele>689.0</ele><time>2026-04-30T14:04:18.925Z</time></trkpt><trkpt lat="39.90016100849416" lon="9.521527166652595"><ele>689.5</ele><time>2026-04-30T14:04:19.925Z</time></trkpt><trkpt lat="39.90024209202549" lon="9.521413889908896"><ele>690.0</ele><time>2026-04-30T14:04:20.925Z</time></trkpt><trkpt lat="39.90032475557019" lon="9.521318216846073"><ele>690.5</ele><time>2026-04-30T14:04:21.925Z</time></trkpt><trkpt lat="39.9004253525088" lon="9.521235818350254"><ele>691.0</ele><time>2026-04-30T14:04:22.925Z</time></trkpt><trkpt lat="39.90053531174532" lon="9.521163894803943"><ele>694.0</ele><time>2026-04-30T14:04:23.925Z</time></trkpt><trkpt lat="39.90065235109548" lon="9.521103734736414"><ele>697.0</ele><time>2026-04-30T14:04:24.925Z</time></trkpt><trkpt lat="39.90078353235723" lon="9.521083354943334"><ele>700.0</ele><time>2026-04-30T14:04:25.925Z</time></trkpt><trkpt lat="39.900914434940695" lon="9.521044336538704"><ele>703.0</ele><time>2026-04-30T14:04:26.925Z</time></trkpt><trkpt lat="39.90105184938562" lon="9.5210611298171"><ele>704.0</ele><time>2026-04-30T14:04:27.925Z</time></trkpt><trkpt lat="39.90119441165007" lon="9.521067900459956"><ele>705.0</ele><time>2026-04-30T14:04:28.925Z</time></trkpt><trkpt lat="39.901337403825245" lon="9.521077078721234"><ele>706.0</ele><time>2026-04-30T14:04:29.925Z</time></trkpt><trkpt lat="39.901491314542056" lon="9.521078673806432"><ele>707.0</ele><time>2026-04-30T14:04:30.925Z</time></trkpt><trkpt lat="39.901651828327324" lon="9.521070961549386"><ele>705.3333333333333</ele><time>2026-04-30T14:04:31.925Z</time></trkpt><trkpt lat="39.901821147593985" lon="9.521043579113531"><ele>703.6666666666666</ele><time>2026-04-30T14:04:32.925Z</time></trkpt><trkpt lat="39.90199620977232" lon="9.52100592793904"><ele>702.0</ele><time>2026-04-30T14:04:33.925Z</time></trkpt><trkpt lat="39.90217589613087" lon="9.520953809157916"><ele>702.0</ele><time>2026-04-30T14:04:34.925Z</time></trkpt><trkpt lat="39.902363257448286" lon="9.520893590001826"><ele>702.0</ele><time>2026-04-30T14:04:35.925Z</time></trkpt><trkpt lat="39.9025533991184" lon="9.520844237274122"><ele>702.0</ele><time>2026-04-30T14:04:36.925Z</time></trkpt><trkpt lat="39.9027432697253" lon="9.520817031949454"><ele>704.3333333333334</ele><time>2026-04-30T14:04:37.925Z</time></trkpt><trkpt lat="39.90291461170647" lon="9.52086868663862"><ele>706.6666666666667</ele><time>2026-04-30T14:04:38.925Z</time></trkpt><trkpt lat="39.90309152133799" lon="9.520917614279435"><ele>709.0</ele><time>2026-04-30T14:04:39.925Z</time></trkpt><trkpt lat="39.90327013705141" lon="9.520984078707162"><ele>709.0</ele><time>2026-04-30T14:04:40.925Z</time></trkpt><trkpt lat="39.90346146604776" lon="9.521039460726362"><ele>709.0</ele><time>2026-04-30T14:04:41.925Z</time></trkpt><trkpt lat="39.903658857554824" lon="9.521106032003978"><ele>709.0</ele><time>2026-04-30T14:04:42.925Z</time></trkpt><trkpt lat="39.90387106797273" lon="9.521148888225623"><ele>709.0</ele><time>2026-04-30T14:04:43.925Z</time></trkpt><trkpt lat="39.904105378032135" lon="9.521163154960803"><ele>709.0</ele><time>2026-04-30T14:04:44.925Z</time></trkpt><trkpt lat="39.90435413061785" lon="9.521143063586303"><ele>706.0</ele><time>2026-04-30T14:04:45.925Z</time></trkpt><trkpt lat="39.90460708994017" lon="9.52111069992273"><ele>703.0</ele><time>2026-04-30T14:04:46.925Z</time></trkpt><trkpt lat="39.90485949322266" lon="9.521110966871117"><ele>706.6666666666667</ele><time>2026-04-30T14:04:47.925Z</time></trkpt><trkpt lat="39.905092650695565" lon="9.521096885163457"><ele>710.3333333333334</ele><time>2026-04-30T14:04:48.925Z</time></trkpt><trkpt lat="39.90529791934146" lon="9.521086631375827"><ele>714.0</ele><time>2026-04-30T14:04:49.925Z</time></trkpt><trkpt lat="39.905485727703415" lon="9.521106854362369"><ele>714.0</ele><time>2026-04-30T14:04:50.925Z</time></trkpt><trkpt lat="39.90566327454259" lon="9.521170942519994"><ele>714.0</ele><time>2026-04-30T14:04:51.925Z</time></trkpt><trkpt lat="39.9058395005654" lon="9.52127620579201"><ele>714.0</ele><time>2026-04-30T14:04:52.925Z</time></trkpt><trkpt lat="39.90601935082636" lon="9.521400062944187"><ele>710.6666666666666</ele><time>2026-04-30T14:04:53.925Z</time></trkpt><trkpt lat="39.90620459336285" lon="9.52153202232004"><ele>707.3333333333333</ele><time>2026-04-30T14:04:54.925Z</time></trkpt><trkpt lat="39.906391154011445" lon="9.521661401785636"><ele>704.0</ele><time>2026-04-30T14:04:55.925Z</time></trkpt><trkpt lat="39.90657271489682" lon="9.521784741415017"><ele>701.3333333333333</ele><time>2026-04-30T14:04:56.924Z</time></trkpt><trkpt lat="39.90674605741041" lon="9.52190312531904"><ele>698.6666666666666</ele><time>2026-04-30T14:04:57.924Z</time></trkpt><trkpt lat="39.90691087640265" lon="9.522018237128508"><ele>696.0</ele><time>2026-04-30T14:04:58.924Z</time></trkpt><trkpt lat="39.90707115429016" lon="9.522129942659749"><ele>696.0</ele><time>2026-04-30T14:04:59.924Z</time></trkpt><trkpt lat="39.907228358927796" lon="9.522240068496245"><ele>696.0</ele><time>2026-04-30T14:05:00.924Z</time></trkpt><trkpt lat="39.90737336564849" lon="9.5223416597301"><ele>696.0</ele><time>2026-04-30T14:05:01.924Z</time></trkpt><trkpt lat="39.90751900562614" lon="9.522441439683966"><ele>703.3333333333334</ele><time>2026-04-30T14:05:02.924Z</time></trkpt><trkpt lat="39.907671267517784" lon="9.522518618367164"><ele>710.6666666666667</ele><time>2026-04-30T14:05:03.924Z</time></trkpt><trkpt lat="39.90780650694688" lon="9.522624899125654"><ele>718.0</ele><time>2026-04-30T14:05:04.924Z</time></trkpt><trkpt lat="39.90794312968455" lon="9.522732196370407"><ele>718.0</ele><time>2026-04-30T14:05:05.924Z</time></trkpt><trkpt lat="39.90808319716135" lon="9.522834358095924"><ele>718.0</ele><time>2026-04-30T14:05:06.924Z</time></trkpt><trkpt lat="39.90822996537449" lon="9.522894080453735"><ele>718.0</ele><time>2026-04-30T14:05:07.924Z</time></trkpt><trkpt lat="39.90836843583663" lon="9.52291341038487"><ele>719.75</ele><time>2026-04-30T14:05:08.924Z</time></trkpt><trkpt lat="39.90850317039556" lon="9.522868706210698"><ele>721.5</ele><time>2026-04-30T14:05:09.924Z</time></trkpt><trkpt lat="39.90863250935135" lon="9.522798854692748"><ele>723.25</ele><time>2026-04-30T14:05:10.924Z</time></trkpt><trkpt lat="39.9087608328577" lon="9.522732860657916"><ele>725.0</ele><time>2026-04-30T14:05:11.925Z</time></trkpt><trkpt lat="39.908894002190635" lon="9.522691324951095"><ele>725.0</ele><time>2026-04-30T14:05:12.925Z</time></trkpt><trkpt lat="39.90902876579992" lon="9.52268187585914"><ele>725.0</ele><time>2026-04-30T14:05:13.925Z</time></trkpt><trkpt lat="39.909167100606275" lon="9.522688358572436"><ele>725.0</ele><time>2026-04-30T14:05:14.925Z</time></trkpt><trkpt lat="39.90930205312165" lon="9.522719066804068"><ele>725.0</ele><time>2026-04-30T14:05:15.925Z</time></trkpt><trkpt lat="39.909424765676405" lon="9.522795845600513"><ele>722.25</ele><time>2026-04-30T14:05:16.925Z</time></trkpt><trkpt lat="39.90956671498797" lon="9.522838707963237"><ele>719.5</ele><time>2026-04-30T14:05:17.925Z</time></trkpt><trkpt lat="39.90970505728814" lon="9.522910822674532"><ele>716.75</ele><time>2026-04-30T14:05:18.925Z</time></trkpt><trkpt lat="39.90984056281968" lon="9.522986293756368"><ele>714.0</ele><time>2026-04-30T14:05:19.925Z</time></trkpt><trkpt lat="39.909980744050245" lon="9.523042890199445"><ele>716.0</ele><time>2026-04-30T14:05:20.925Z</time></trkpt><trkpt lat="39.910107394768" lon="9.523090820036945"><ele>718.0</ele><time>2026-04-30T14:05:21.925Z</time></trkpt><trkpt lat="39.91022625219993" lon="9.523135021993431"><ele>720.0</ele><time>2026-04-30T14:05:22.925Z</time></trkpt><trkpt lat="39.91034022176157" lon="9.523153441499488"><ele>722.0</ele><time>2026-04-30T14:05:23.926Z</time></trkpt><trkpt lat="39.91043905478164" lon="9.523211039761437"><ele>722.0</ele><time>2026-04-30T14:05:24.925Z</time></trkpt><trkpt lat="39.91055557390626" lon="9.523227202306302"><ele>722.0</ele><time>2026-04-30T14:05:25.925Z</time></trkpt><trkpt lat="39.91067033472446" lon="9.52326481400584"><ele>722.0</ele><time>2026-04-30T14:05:26.925Z</time></trkpt><trkpt lat="39.910787202740856" lon="9.52330806700913"><ele>722.0</ele><time>2026-04-30T14:05:27.925Z</time></trkpt><trkpt lat="39.91090598101607" lon="9.523362563760164"><ele>723.0</ele><time>2026-04-30T14:05:28.925Z</time></trkpt><trkpt lat="39.911039701485194" lon="9.523406522462905"><ele>724.0</ele><time>2026-04-30T14:05:29.925Z</time></trkpt><trkpt lat="39.91118440505899" lon="9.523417676904009"><ele>725.0</ele><time>2026-04-30T14:05:30.925Z</time></trkpt><trkpt lat="39.91132696576862" lon="9.523458748799584"><ele>726.0</ele><time>2026-04-30T14:05:31.925Z</time></trkpt><trkpt lat="39.911473458748965" lon="9.523503935012402"><ele>726.0</ele><time>2026-04-30T14:05:32.925Z</time></trkpt><trkpt lat="39.91162624236269" lon="9.523549222950301"><ele>726.0</ele><time>2026-04-30T14:05:33.925Z</time></trkpt><trkpt lat="39.91177662549241" lon="9.523654137022568"><ele>726.0</ele><time>2026-04-30T14:05:34.925Z</time></trkpt><trkpt lat="39.91194192640067" lon="9.523692942279238"><ele>727.0</ele><time>2026-04-30T14:05:35.925Z</time></trkpt><trkpt lat="39.91211834661956" lon="9.523708165158103"><ele>728.0</ele><time>2026-04-30T14:05:36.925Z</time></trkpt><trkpt lat="39.91228933702158" lon="9.523701475376726"><ele>729.0</ele><time>2026-04-30T14:05:37.925Z</time></trkpt><trkpt lat="39.91245597276825" lon="9.523677708318562"><ele>725.3333333333334</ele><time>2026-04-30T14:05:38.925Z</time></trkpt><trkpt lat="39.91261632450925" lon="9.523634452656616"><ele>721.6666666666667</ele><time>2026-04-30T14:05:39.925Z</time></trkpt><trkpt lat="39.9127702543416" lon="9.523565415186749"><ele>718.0</ele><time>2026-04-30T14:05:40.925Z</time></trkpt><trkpt lat="39.912904707915466" lon="9.523490839243014"><ele>718.0</ele><time>2026-04-30T14:05:41.925Z</time></trkpt><trkpt lat="39.91302810546642" lon="9.52340223561288"><ele>718.0</ele><time>2026-04-30T14:05:42.925Z</time></trkpt><trkpt lat="39.91314321873419" lon="9.523304055881512"><ele>718.0</ele><time>2026-04-30T14:05:43.925Z</time></trkpt><trkpt lat="39.91323820391612" lon="9.523184363338974"><ele>718.0</ele><time>2026-04-30T14:05:44.925Z</time></trkpt><trkpt lat="39.91333690180525" lon="9.523084739832546"><ele>716.0</ele><time>2026-04-30T14:05:45.925Z</time></trkpt><trkpt lat="39.91342278749518" lon="9.522999650705405"><ele>714.0</ele><time>2026-04-30T14:05:46.925Z</time></trkpt><trkpt lat="39.91351257645429" lon="9.522950701292817"><ele>712.0</ele><time>2026-04-30T14:05:47.852Z</time></trkpt><trkpt lat="39.91357419741009" lon="9.522932317988912"><ele>710.0</ele><time>2026-04-30T14:05:48.852Z</time></trkpt><trkpt lat="39.91366032053561" lon="9.522940117402557"><ele>708.0</ele><time>2026-04-30T14:05:50.852Z</time></trkpt><trkpt lat="39.91377548943588" lon="9.52294559844439"><ele>708.0</ele><time>2026-04-30T14:05:52.852Z</time></trkpt><trkpt lat="39.91383643139475" lon="9.522920717960682"><ele>708.0</ele><time>2026-04-30T14:05:53.852Z</time></trkpt><trkpt lat="39.9138925228816" lon="9.522867729250281"><ele>708.0</ele><time>2026-04-30T14:05:54.852Z</time></trkpt><trkpt lat="39.91394940615277" lon="9.522812705296788"><ele>708.0</ele><time>2026-04-30T14:05:55.852Z</time></trkpt><trkpt lat="39.9140281991349" lon="9.522794835892311"><ele>708.0</ele><time>2026-04-30T14:05:56.852Z</time></trkpt><trkpt lat="39.9141199917699" lon="9.522780074018415"><ele>708.0</ele><time>2026-04-30T14:05:57.852Z</time></trkpt><trkpt lat="39.914214975646495" lon="9.522794098290772"><ele>711.4</ele><time>2026-04-30T14:05:58.852Z</time></trkpt><trkpt lat="39.914314306006474" lon="9.522825884034768"><ele>714.8</ele><time>2026-04-30T14:05:59.852Z</time></trkpt><trkpt lat="39.91441590032735" lon="9.522865143457105"><ele>718.2</ele><time>2026-04-30T14:06:00.852Z</time></trkpt><trkpt lat="39.91451808237521" lon="9.522910432583958"><ele>721.6</ele><time>2026-04-30T14:06:01.852Z</time></trkpt><trkpt lat="39.91461163133937" lon="9.522950931184553"><ele>725.0</ele><time>2026-04-30T14:06:02.852Z</time></trkpt><trkpt lat="39.914694414054914" lon="9.522988836013386"><ele>725.0</ele><time>2026-04-30T14:06:03.851Z</time></trkpt><trkpt lat="39.91477308833573" lon="9.523026184200841"><ele>725.0</ele><time>2026-04-30T14:06:04.851Z</time></trkpt><trkpt lat="39.91484984136571" lon="9.523061860873682"><ele>725.0</ele><time>2026-04-30T14:06:05.851Z</time></trkpt><trkpt lat="39.91492212305477" lon="9.523094262994404"><ele>725.0</ele><time>2026-04-30T14:06:06.851Z</time></trkpt><trkpt lat="39.91499280216908" lon="9.523123639342034"><ele>725.0</ele><time>2026-04-30T14:06:07.851Z</time></trkpt><trkpt lat="39.91506531950724" lon="9.523147670600878"><ele>725.0</ele><time>2026-04-30T14:06:08.851Z</time></trkpt><trkpt lat="39.91514889701604" lon="9.523155311874744"><ele>723.4</ele><time>2026-04-30T14:06:09.851Z</time></trkpt><trkpt lat="39.91523312845941" lon="9.523152642035347"><ele>721.8</ele><time>2026-04-30T14:06:10.851Z</time></trkpt><trkpt lat="39.91532994439265" lon="9.523123121210517"><ele>720.2</ele><time>2026-04-30T14:06:11.851Z</time></trkpt><trkpt lat="39.915435388595746" lon="9.523068763947787"><ele>718.6</ele><time>2026-04-30T14:06:12.851Z</time></trkpt><trkpt lat="39.915543552854615" lon="9.522969551508618"><ele>717.0</ele><time>2026-04-30T14:06:13.851Z</time></trkpt><trkpt lat="39.91564079796168" lon="9.522835266549537"><ele>722.0</ele><time>2026-04-30T14:06:14.851Z</time></trkpt><trkpt lat="39.91574988696115" lon="9.522716695491539"><ele>727.0</ele><time>2026-04-30T14:06:15.851Z</time></trkpt><trkpt lat="39.91588079392714" lon="9.522619973045948"><ele>732.0</ele><time>2026-04-30T14:06:16.851Z</time></trkpt><trkpt lat="39.91599723459885" lon="9.52252885150229"><ele>737.0</ele><time>2026-04-30T14:06:17.851Z</time></trkpt><trkpt lat="39.91610994016397" lon="9.522478414361196"><ele>737.0</ele><time>2026-04-30T14:06:18.851Z</time></trkpt><trkpt lat="39.91621340408359" lon="9.522468041938348"><ele>737.0</ele><time>2026-04-30T14:06:19.851Z</time></trkpt><trkpt lat="39.91629120018533" lon="9.522479462883144"><ele>737.0</ele><time>2026-04-30T14:06:20.851Z</time></trkpt><trkpt lat="39.916356440869805" lon="9.522497513345133"><ele>737.0</ele><time>2026-04-30T14:06:21.851Z</time></trkpt><trkpt lat="39.91645045632816" lon="9.522539324848877"><ele>737.0</ele><time>2026-04-30T14:06:23.851Z</time></trkpt><trkpt lat="39.916533894211945" lon="9.52257166008404"><ele>737.0</ele><time>2026-04-30T14:06:25.851Z</time></trkpt><trkpt lat="39.9166178332575" lon="9.522633242367128"><ele>741.0</ele><time>2026-04-30T14:06:27.851Z</time></trkpt><trkpt lat="39.9167662116197" lon="9.52237594444086"><ele>745.0</ele><time>2026-04-30T14:06:29.851Z</time></trkpt><trkpt lat="39.91678093614161" lon="9.522287688881589"><ele>749.0</ele><time>2026-04-30T14:06:30.85Z</time></trkpt><trkpt lat="39.916782892238665" lon="9.522183377346721"><ele>753.0</ele><time>2026-04-30T14:06:31.85Z</time></trkpt><trkpt lat="39.91676493462814" lon="9.522080829644958"><ele>753.0</ele><time>2026-04-30T14:06:32.85Z</time></trkpt><trkpt lat="39.916705188384896" lon="9.522007546062754"><ele>753.0</ele><time>2026-04-30T14:06:33.85Z</time></trkpt><trkpt lat="39.916603634527554" lon="9.521982338354375"><ele>753.0</ele><time>2026-04-30T14:06:34.85Z</time></trkpt><trkpt lat="39.91649291975317" lon="9.522031636244211"><ele>753.0</ele><time>2026-04-30T14:06:35.85Z</time></trkpt><trkpt lat="39.916356570331544" lon="9.522060672472815"><ele>753.0</ele><time>2026-04-30T14:06:36.85Z</time></trkpt><trkpt lat="39.91621845534397" lon="9.522124251955715"><ele>749.25</ele><time>2026-04-30T14:06:37.85Z</time></trkpt><trkpt lat="39.9160797350162" lon="9.522182885817866"><ele>745.5</ele><time>2026-04-30T14:06:38.85Z</time></trkpt><trkpt lat="39.91595863992576" lon="9.522230341033051"><ele>741.75</ele><time>2026-04-30T14:06:39.85Z</time></trkpt><trkpt lat="39.91584694233782" lon="9.522266683080765"><ele>738.0</ele><time>2026-04-30T14:06:40.85Z</time></trkpt><trkpt lat="39.915752755070265" lon="9.522325441781561"><ele>738.0</ele><time>2026-04-30T14:06:41.85Z</time></trkpt><trkpt lat="39.91566737754524" lon="9.522355983836173"><ele>738.0</ele><time>2026-04-30T14:06:42.85Z</time></trkpt><trkpt lat="39.915586762684164" lon="9.522387683443275"><ele>738.0</ele><time>2026-04-30T14:06:43.85Z</time></trkpt><trkpt lat="39.915503260762364" lon="9.522417675241709"><ele>738.0</ele><time>2026-04-30T14:06:44.85Z</time></trkpt><trkpt lat="39.91541413769614" lon="9.522446480825534"><ele>738.0</ele><time>2026-04-30T14:06:45.85Z</time></trkpt><trkpt lat="39.915325628561334" lon="9.522489268647698"><ele>738.0</ele><time>2026-04-30T14:06:46.85Z</time></trkpt><trkpt lat="39.91522732948289" lon="9.52249624098744"><ele>738.0</ele><time>2026-04-30T14:06:47.85Z</time></trkpt><trkpt lat="39.91512256273073" lon="9.522456531696266"><ele>738.0</ele><time>2026-04-30T14:06:48.85Z</time></trkpt><trkpt lat="39.91502191448402" lon="9.522409199070827"><ele>738.0</ele><time>2026-04-30T14:06:49.85Z</time></trkpt><trkpt lat="39.91492065453036" lon="9.522358488333758"><ele>738.0</ele><time>2026-04-30T14:06:50.85Z</time></trkpt><trkpt lat="39.91482484231858" lon="9.522300994231436"><ele>738.0</ele><time>2026-04-30T14:06:51.85Z</time></trkpt><trkpt lat="39.91474723589846" lon="9.522230414283927"><ele>739.2</ele><time>2026-04-30T14:06:52.85Z</time></trkpt><trkpt lat="39.91467930084651" lon="9.522129859780916"><ele>740.4</ele><time>2026-04-30T14:06:53.85Z</time></trkpt><trkpt lat="39.91462432089185" lon="9.52202575683966"><ele>741.6</ele><time>2026-04-30T14:06:54.85Z</time></trkpt><trkpt lat="39.914603142077034" lon="9.521880498683334"><ele>742.8000000000001</ele><time>2026-04-30T14:06:55.85Z</time></trkpt><trkpt lat="39.914575464152" lon="9.521753243654704"><ele>744.0</ele><time>2026-04-30T14:06:56.85Z</time></trkpt><trkpt lat="39.91453706018808" lon="9.521636197375708"><ele>745.8000000000001</ele><time>2026-04-30T14:06:57.849Z</time></trkpt><trkpt lat="39.91448107916166" lon="9.521537983812971"><ele>747.6</ele><time>2026-04-30T14:06:58.849Z</time></trkpt><trkpt lat="39.91439020213885" lon="9.52148789645325"><ele>749.4</ele><time>2026-04-30T14:06:59.849Z</time></trkpt><trkpt lat="39.914308928976986" lon="9.52140562657626"><ele>751.2</ele><time>2026-04-30T14:07:00.849Z</time></trkpt><trkpt lat="39.914209069987805" lon="9.521344635271701"><ele>753.0</ele><time>2026-04-30T14:07:01.849Z</time></trkpt><trkpt lat="39.91409759062491" lon="9.521297439347213"><ele>753.0</ele><time>2026-04-30T14:07:02.849Z</time></trkpt><trkpt lat="39.91397563520044" lon="9.521281108405544"><ele>753.0</ele><time>2026-04-30T14:07:03.849Z</time></trkpt><trkpt lat="39.91385491104446" lon="9.521294580705677"><ele>753.0</ele><time>2026-04-30T14:07:04.849Z</time></trkpt><trkpt lat="39.913723849068944" lon="9.52132774987035"><ele>753.0</ele><time>2026-04-30T14:07:05.849Z</time></trkpt><trkpt lat="39.913590142966285" lon="9.521344048366956"><ele>753.0</ele><time>2026-04-30T14:07:06.849Z</time></trkpt><trkpt lat="39.913453842475" lon="9.521359037237115"><ele>753.0</ele><time>2026-04-30T14:07:07.849Z</time></trkpt><trkpt lat="39.913320470013076" lon="9.521372643439296"><ele>753.0</ele><time>2026-04-30T14:07:08.849Z</time></trkpt><trkpt lat="39.913204764968825" lon="9.5213818536795"><ele>753.0</ele><time>2026-04-30T14:07:09.849Z</time></trkpt><trkpt lat="39.91309445035879" lon="9.521391662862152"><ele>753.4</ele><time>2026-04-30T14:07:10.849Z</time></trkpt><trkpt lat="39.91301094705649" lon="9.521402308426127"><ele>753.8</ele><time>2026-04-30T14:07:11.849Z</time></trkpt><trkpt lat="39.91289885347841" lon="9.521419291528671"><ele>754.2</ele><time>2026-04-30T14:07:13.849Z</time></trkpt><trkpt lat="39.91278880546682" lon="9.521452350098697"><ele>754.6</ele><time>2026-04-30T14:07:15.849Z</time></trkpt><trkpt lat="39.91271682184375" lon="9.521478730379522"><ele>755.0</ele><time>2026-04-30T14:07:16.849Z</time></trkpt><trkpt lat="39.91263318057125" lon="9.521502542766195"><ele>755.4</ele><time>2026-04-30T14:07:17.85Z</time></trkpt><trkpt lat="39.91254356263476" lon="9.521532745026102"><ele>755.8</ele><time>2026-04-30T14:07:18.85Z</time></trkpt><trkpt lat="39.912449882239734" lon="9.52155895869293"><ele>756.2</ele><time>2026-04-30T14:07:19.85Z</time></trkpt><trkpt lat="39.91234923788956" lon="9.521588703746113"><ele>756.6</ele><time>2026-04-30T14:07:20.85Z</time></trkpt><trkpt lat="39.912238168894405" lon="9.521620857560217"><ele>757.0</ele><time>2026-04-30T14:07:21.849Z</time></trkpt><trkpt lat="39.912117682995216" lon="9.521659979939116"><ele>757.0</ele><time>2026-04-30T14:07:22.849Z</time></trkpt><trkpt lat="39.911991176254276" lon="9.521710066995777"><ele>757.0</ele><time>2026-04-30T14:07:23.85Z</time></trkpt><trkpt lat="39.91186135378293" lon="9.521759391503867"><ele>757.0</ele><time>2026-04-30T14:07:24.85Z</time></trkpt><trkpt lat="39.91172688766789" lon="9.521805718894631"><ele>757.0</ele><time>2026-04-30T14:07:25.85Z</time></trkpt><trkpt lat="39.91158268450425" lon="9.521850999287047"><ele>759.5</ele><time>2026-04-30T14:07:26.85Z</time></trkpt><trkpt lat="39.91143789748852" lon="9.52189524281579"><ele>762.0</ele><time>2026-04-30T14:07:27.849Z</time></trkpt><trkpt lat="39.911299278141335" lon="9.52194096037656"><ele>764.5</ele><time>2026-04-30T14:07:28.849Z</time></trkpt><trkpt lat="39.91117288493394" lon="9.521982714405448"><ele>767.0</ele><time>2026-04-30T14:07:29.85Z</time></trkpt><trkpt lat="39.911058436372656" lon="9.52201615310391"><ele>767.0</ele><time>2026-04-30T14:07:30.85Z</time></trkpt><trkpt lat="39.91094583680353" lon="9.522047617928866"><ele>767.0</ele><time>2026-04-30T14:07:31.85Z</time></trkpt><trkpt lat="39.91083299496719" lon="9.522072435749262"><ele>767.0</ele><time>2026-04-30T14:07:32.85Z</time></trkpt><trkpt lat="39.910720129633646" lon="9.522082907154179"><ele>767.0</ele><time>2026-04-30T14:07:33.85Z</time></trkpt><trkpt lat="39.91059754554905" lon="9.522067545319077"><ele>770.0</ele><time>2026-04-30T14:07:34.85Z</time></trkpt><trkpt lat="39.910475288751336" lon="9.52203918370472"><ele>773.0</ele><time>2026-04-30T14:07:35.85Z</time></trkpt><trkpt lat="39.910355440483094" lon="9.522012702683979"><ele>776.0</ele><time>2026-04-30T14:07:36.849Z</time></trkpt><trkpt lat="39.910237345295826" lon="9.521957774328879"><ele>779.0</ele><time>2026-04-30T14:07:37.849Z</time></trkpt><trkpt lat="39.91012891929811" lon="9.52186656395108"><ele>777.25</ele><time>2026-04-30T14:07:38.849Z</time></trkpt><trkpt lat="39.91003162394006" lon="9.521761458671623"><ele>775.5</ele><time>2026-04-30T14:07:39.849Z</time></trkpt><trkpt lat="39.90994750061269" lon="9.521635266605285"><ele>773.75</ele><time>2026-04-30T14:07:40.849Z</time></trkpt><trkpt lat="39.90988235562994" lon="9.521488349449191"><ele>772.0</ele><time>2026-04-30T14:07:41.849Z</time></trkpt><trkpt lat="39.90982173875978" lon="9.521332071200339"><ele>778.5</ele><time>2026-04-30T14:07:42.849Z</time></trkpt><trkpt lat="39.909746968405535" lon="9.52119865363325"><ele>785.0</ele><time>2026-04-30T14:07:43.849Z</time></trkpt><trkpt lat="39.9096572115558" lon="9.52109281904924"><ele>791.5</ele><time>2026-04-30T14:07:44.849Z</time></trkpt><trkpt lat="39.909548303912906" lon="9.521014074531907"><ele>798.0</ele><time>2026-04-30T14:07:45.849Z</time></trkpt><trkpt lat="39.90942797905245" lon="9.520961112264128"><ele>798.0</ele><time>2026-04-30T14:07:46.849Z</time></trkpt><trkpt lat="39.909303450129364" lon="9.520928771195939"><ele>798.0</ele><time>2026-04-30T14:07:47.849Z</time></trkpt><trkpt lat="39.90918381182376" lon="9.5208964639627"><ele>798.0</ele><time>2026-04-30T14:07:48.849Z</time></trkpt><trkpt lat="39.909066037816615" lon="9.520864334583308"><ele>798.0</ele><time>2026-04-30T14:07:49.849Z</time></trkpt><trkpt lat="39.908947773615274" lon="9.52083043465084"><ele>796.0</ele><time>2026-04-30T14:07:50.849Z</time></trkpt><trkpt lat="39.90883252971583" lon="9.520798469812382"><ele>794.0</ele><time>2026-04-30T14:07:51.849Z</time></trkpt><trkpt lat="39.908724836721255" lon="9.520768168518895"><ele>792.0</ele><time>2026-04-30T14:07:52.849Z</time></trkpt><trkpt lat="39.90862472442912" lon="9.520728200659805"><ele>790.0</ele><time>2026-04-30T14:07:53.849Z</time></trkpt><trkpt lat="39.908537474426375" lon="9.520656553007369"><ele>788.0</ele><time>2026-04-30T14:07:54.849Z</time></trkpt><trkpt lat="39.90846326279772" lon="9.520552483320397"><ele>790.0</ele><time>2026-04-30T14:07:55.849Z</time></trkpt><trkpt lat="39.90840231049813" lon="9.520423210285902"><ele>792.0</ele><time>2026-04-30T14:07:56.849Z</time></trkpt><trkpt lat="39.90835671144632" lon="9.520285511499832"><ele>794.0</ele><time>2026-04-30T14:07:57.849Z</time></trkpt><trkpt lat="39.90830000767769" lon="9.520156851000428"><ele>796.0</ele><time>2026-04-30T14:07:58.849Z</time></trkpt><trkpt lat="39.90822972398273" lon="9.520051526054711"><ele>796.0</ele><time>2026-04-30T14:07:59.849Z</time></trkpt><trkpt lat="39.90816412371848" lon="9.51996390460379"><ele>796.0</ele><time>2026-04-30T14:08:00.849Z</time></trkpt><trkpt lat="39.90810752610988" lon="9.51987189125556"><ele>796.0</ele><time>2026-04-30T14:08:01.849Z</time></trkpt><trkpt lat="39.90807233196377" lon="9.51975611713606"><ele>796.0</ele><time>2026-04-30T14:08:02.849Z</time></trkpt><trkpt lat="39.90806891986369" lon="9.519620979102353"><ele>796.0</ele><time>2026-04-30T14:08:03.849Z</time></trkpt><trkpt lat="39.9080906304952" lon="9.519476082599107"><ele>798.5</ele><time>2026-04-30T14:08:04.848Z</time></trkpt><trkpt lat="39.90811417751626" lon="9.519328714314462"><ele>801.0</ele><time>2026-04-30T14:08:05.848Z</time></trkpt><trkpt lat="39.90810647524601" lon="9.519177961960915"><ele>803.5</ele><time>2026-04-30T14:08:06.848Z</time></trkpt><trkpt lat="39.90808734493054" lon="9.519018995450526"><ele>806.0</ele><time>2026-04-30T14:08:07.848Z</time></trkpt><trkpt lat="39.90807208265607" lon="9.51887255282816"><ele>805.75</ele><time>2026-04-30T14:08:08.848Z</time></trkpt><trkpt lat="39.90806937716127" lon="9.518732362578278"><ele>805.5</ele><time>2026-04-30T14:08:09.848Z</time></trkpt><trkpt lat="39.908083678293615" lon="9.51858708939408"><ele>805.25</ele><time>2026-04-30T14:08:10.848Z</time></trkpt><trkpt lat="39.90810469249568" lon="9.518438407328713"><ele>805.0</ele><time>2026-04-30T14:08:11.848Z</time></trkpt><trkpt lat="39.90812955351694" lon="9.518287834152087"><ele>805.0</ele><time>2026-04-30T14:08:12.848Z</time></trkpt><trkpt lat="39.908181707188184" lon="9.51814663684504"><ele>805.0</ele><time>2026-04-30T14:08:13.848Z</time></trkpt><trkpt lat="39.908253388235075" lon="9.518018359558313"><ele>805.0</ele><time>2026-04-30T14:08:14.848Z</time></trkpt><trkpt lat="39.90832787639803" lon="9.51791111785429"><ele>805.0</ele><time>2026-04-30T14:08:15.848Z</time></trkpt><trkpt lat="39.90838238836082" lon="9.51781401337323"><ele>805.0</ele><time>2026-04-30T14:08:16.848Z</time></trkpt><trkpt lat="39.90843070652123" lon="9.517721533667435"><ele>804.4</ele><time>2026-04-30T14:08:17.848Z</time></trkpt><trkpt lat="39.90847292735017" lon="9.517624578369437"><ele>803.8</ele><time>2026-04-30T14:08:18.848Z</time></trkpt><trkpt lat="39.90848832757545" lon="9.517515294625674"><ele>803.2</ele><time>2026-04-30T14:08:19.848Z</time></trkpt><trkpt lat="39.90845816061182" lon="9.517393337036939"><ele>802.6</ele><time>2026-04-30T14:08:20.848Z</time></trkpt><trkpt lat="39.908423102886424" lon="9.51728342835691"><ele>802.0</ele><time>2026-04-30T14:08:21.848Z</time></trkpt><trkpt lat="39.908370410316" lon="9.517182441667359"><ele>802.0</ele><time>2026-04-30T14:08:22.848Z</time></trkpt><trkpt lat="39.90830105448309" lon="9.517093863948672"><ele>802.0</ele><time>2026-04-30T14:08:23.848Z</time></trkpt><trkpt lat="39.90819733839377" lon="9.51703351340734"><ele>802.0</ele><time>2026-04-30T14:08:24.848Z</time></trkpt><trkpt lat="39.90807436627481" lon="9.517003882972492"><ele>802.0</ele><time>2026-04-30T14:08:25.848Z</time></trkpt><trkpt lat="39.90795892247037" lon="9.51697586772737"><ele>805.75</ele><time>2026-04-30T14:08:26.848Z</time></trkpt><trkpt lat="39.90784509314332" lon="9.516945826758647"><ele>809.5</ele><time>2026-04-30T14:08:27.848Z</time></trkpt><trkpt lat="39.907721303301685" lon="9.516942455386168"><ele>813.25</ele><time>2026-04-30T14:08:28.848Z</time></trkpt><trkpt lat="39.90759190862491" lon="9.51697628775267"><ele>817.0</ele><time>2026-04-30T14:08:29.848Z</time></trkpt><trkpt lat="39.90746762661622" lon="9.517027033923998"><ele>817.25</ele><time>2026-04-30T14:08:30.848Z</time></trkpt><trkpt lat="39.90735788598718" lon="9.517080447069313"><ele>817.5</ele><time>2026-04-30T14:08:31.847Z</time></trkpt><trkpt lat="39.90724801975064" lon="9.517116083174326"><ele>817.75</ele><time>2026-04-30T14:08:32.847Z</time></trkpt><trkpt lat="39.90713062617855" lon="9.517111718095"><ele>818.0</ele><time>2026-04-30T14:08:33.847Z</time></trkpt><trkpt lat="39.90701299525235" lon="9.517059879309647"><ele>818.0</ele><time>2026-04-30T14:08:34.847Z</time></trkpt><trkpt lat="39.90690213085589" lon="9.516989117697266"><ele>818.0</ele><time>2026-04-30T14:08:35.847Z</time></trkpt><trkpt lat="39.90679325698273" lon="9.516900369224569"><ele>818.0</ele><time>2026-04-30T14:08:36.847Z</time></trkpt><trkpt lat="39.90668966774502" lon="9.516816565950833"><ele>818.0</ele><time>2026-04-30T14:08:37.847Z</time></trkpt><trkpt lat="39.906592250488174" lon="9.516741508615052"><ele>817.5999999999999</ele><time>2026-04-30T14:08:38.847Z</time></trkpt><trkpt lat="39.906498579836764" lon="9.516668190197224"><ele>817.1999999999999</ele><time>2026-04-30T14:08:39.847Z</time></trkpt><trkpt lat="39.90640859281284" lon="9.516594600166504"><ele>816.8</ele><time>2026-04-30T14:08:40.847Z</time></trkpt><trkpt lat="39.90632030143416" lon="9.51652844622399"><ele>816.4</ele><time>2026-04-30T14:08:41.847Z</time></trkpt><trkpt lat="39.90622795705252" lon="9.5164895700758"><ele>816.0</ele><time>2026-04-30T14:08:42.847Z</time></trkpt><trkpt lat="39.90612523752427" lon="9.516478668244249"><ele>816.0</ele><time>2026-04-30T14:08:43.847Z</time></trkpt><trkpt lat="39.90601871433517" lon="9.516503053559543"><ele>816.0</ele><time>2026-04-30T14:08:44.847Z</time></trkpt><trkpt lat="39.90591938521617" lon="9.516555911256857"><ele>816.0</ele><time>2026-04-30T14:08:45.847Z</time></trkpt><trkpt lat="39.90582775427576" lon="9.51662605007919"><ele>816.0</ele><time>2026-04-30T14:08:46.847Z</time></trkpt><trkpt lat="39.90573190214509" lon="9.516695857139272"><ele>816.0</ele><time>2026-04-30T14:08:47.847Z</time></trkpt><trkpt lat="39.90561757935252" lon="9.516739612247752"><ele>815.0</ele><time>2026-04-30T14:08:48.847Z</time></trkpt><trkpt lat="39.905485691809844" lon="9.516776813905967"><ele>814.0</ele><time>2026-04-30T14:08:49.847Z</time></trkpt><trkpt lat="39.9053553387743" lon="9.516816123769155"><ele>813.0</ele><time>2026-04-30T14:08:50.847Z</time></trkpt><trkpt lat="39.90523608330235" lon="9.516896519960586"><ele>812.0</ele><time>2026-04-30T14:08:51.847Z</time></trkpt><trkpt lat="39.90513167227084" lon="9.517032587225986"><ele>809.6666666666667</ele><time>2026-04-30T14:08:52.847Z</time></trkpt><trkpt lat="39.90503699425264" lon="9.517192719172618"><ele>807.3333333333333</ele><time>2026-04-30T14:08:53.847Z</time></trkpt><trkpt lat="39.9049404568789" lon="9.517340040052046"><ele>805.0</ele><time>2026-04-30T14:08:54.847Z</time></trkpt><trkpt lat="39.90482540638064" lon="9.517468373745988"><ele>805.0</ele><time>2026-04-30T14:08:55.847Z</time></trkpt><trkpt lat="39.9046926821761" lon="9.517571448071807"><ele>805.0</ele><time>2026-04-30T14:08:56.847Z</time></trkpt><trkpt lat="39.90455611650834" lon="9.517653209620674"><ele>805.0</ele><time>2026-04-30T14:08:57.847Z</time></trkpt><trkpt lat="39.90442142607034" lon="9.51772060523151"><ele>805.0</ele><time>2026-04-30T14:08:58.847Z</time></trkpt><trkpt lat="39.90428857877566" lon="9.517779556681122"><ele>803.75</ele><time>2026-04-30T14:08:59.847Z</time></trkpt><trkpt lat="39.90418031829708" lon="9.517862382841187"><ele>802.5</ele><time>2026-04-30T14:09:00.846Z</time></trkpt><trkpt lat="39.90408987384377" lon="9.517975733632952"><ele>801.25</ele><time>2026-04-30T14:09:01.846Z</time></trkpt><trkpt lat="39.90400403062342" lon="9.518081566570604"><ele>800.0</ele><time>2026-04-30T14:09:02.846Z</time></trkpt><trkpt lat="39.90391258221279" lon="9.518159535832378"><ele>800.0</ele><time>2026-04-30T14:09:03.846Z</time></trkpt><trkpt lat="39.90381307355547" lon="9.518199799269075"><ele>800.0</ele><time>2026-04-30T14:09:04.846Z</time></trkpt><trkpt lat="39.90371062620454" lon="9.518208966428789"><ele>800.0</ele><time>2026-04-30T14:09:05.846Z</time></trkpt><trkpt lat="39.903618222629184" lon="9.518161561014841"><ele>800.0</ele><time>2026-04-30T14:09:06.846Z</time></trkpt><trkpt lat="39.90354651932748" lon="9.518028801820488"><ele>800.0</ele><time>2026-04-30T14:09:07.846Z</time></trkpt><trkpt lat="39.903543352364835" lon="9.517847758208928"><ele>804.4</ele><time>2026-04-30T14:09:08.846Z</time></trkpt><trkpt lat="39.90349209380742" lon="9.517735871333944"><ele>808.8</ele><time>2026-04-30T14:09:09.846Z</time></trkpt><trkpt lat="39.90339737263589" lon="9.517673412932641"><ele>813.2</ele><time>2026-04-30T14:09:10.846Z</time></trkpt><trkpt lat="39.90330789796936" lon="9.517637345186914"><ele>817.6</ele><time>2026-04-30T14:09:11.846Z</time></trkpt><trkpt lat="39.90321814280847" lon="9.517619849527675"><ele>822.0</ele><time>2026-04-30T14:09:12.846Z</time></trkpt><trkpt lat="39.90312904172187" lon="9.517634171850228"><ele>822.0</ele><time>2026-04-30T14:09:13.846Z</time></trkpt><trkpt lat="39.90302922212531" lon="9.517648703797216"><ele>822.0</ele><time>2026-04-30T14:09:14.846Z</time></trkpt><trkpt lat="39.902935017819395" lon="9.517692660938412"><ele>822.0</ele><time>2026-04-30T14:09:15.846Z</time></trkpt><trkpt lat="39.902829989940855" lon="9.517696159016706"><ele>822.0</ele><time>2026-04-30T14:09:16.846Z</time></trkpt><trkpt lat="39.90272699805075" lon="9.517661283221088"><ele>822.0</ele><time>2026-04-30T14:09:17.846Z</time></trkpt><trkpt lat="39.902631200429646" lon="9.517600823714353"><ele>821.75</ele><time>2026-04-30T14:09:18.846Z</time></trkpt><trkpt lat="39.902532820916" lon="9.517511469799754"><ele>821.5</ele><time>2026-04-30T14:09:19.846Z</time></trkpt><trkpt lat="39.90244720676291" lon="9.517413466347314"><ele>821.25</ele><time>2026-04-30T14:09:20.846Z</time></trkpt><trkpt lat="39.902360267109664" lon="9.51730434301813"><ele>821.0</ele><time>2026-04-30T14:09:21.846Z</time></trkpt><trkpt lat="39.90228186573757" lon="9.517177826097349"><ele>824.75</ele><time>2026-04-30T14:09:22.846Z</time></trkpt><trkpt lat="39.90222168272263" lon="9.517032119930258"><ele>828.5</ele><time>2026-04-30T14:09:23.847Z</time></trkpt><trkpt lat="39.90215848724316" lon="9.516890236419357"><ele>832.25</ele><time>2026-04-30T14:09:24.847Z</time></trkpt><trkpt lat="39.90208238654696" lon="9.51675890727219"><ele>836.0</ele><time>2026-04-30T14:09:25.847Z</time></trkpt><trkpt lat="39.9019782421178" lon="9.516674866108495"><ele>836.0</ele><time>2026-04-30T14:09:26.848Z</time></trkpt><trkpt lat="39.901857752590885" lon="9.516612885646113"><ele>836.0</ele><time>2026-04-30T14:09:27.847Z</time></trkpt><trkpt lat="39.90174121037166" lon="9.516560184769784"><ele>836.0</ele><time>2026-04-30T14:09:28.847Z</time></trkpt><trkpt lat="39.901640030434194" lon="9.516488945692323"><ele>836.0</ele><time>2026-04-30T14:09:29.847Z</time></trkpt><trkpt lat="39.90155260585411" lon="9.51639806266816"><ele>834.4</ele><time>2026-04-30T14:09:30.847Z</time></trkpt><trkpt lat="39.90147390031799" lon="9.516292101017894"><ele>832.8</ele><time>2026-04-30T14:09:31.846Z</time></trkpt><trkpt lat="39.901404725802735" lon="9.516175378886338"><ele>831.1999999999999</ele><time>2026-04-30T14:09:32.847Z</time></trkpt><trkpt lat="39.90132371770635" lon="9.516070798111922"><ele>829.5999999999999</ele><time>2026-04-30T14:09:33.847Z</time></trkpt><trkpt lat="39.90124826604239" lon="9.51598192602428"><ele>828.0</ele><time>2026-04-30T14:09:34.847Z</time></trkpt><trkpt lat="39.90117753038767" lon="9.51589335952472"><ele>831.8</ele><time>2026-04-30T14:09:35.847Z</time></trkpt><trkpt lat="39.90111487699631" lon="9.515804035534071"><ele>835.5999999999999</ele><time>2026-04-30T14:09:36.847Z</time></trkpt><trkpt lat="39.90105773273071" lon="9.515694821809557"><ele>839.4000000000001</ele><time>2026-04-30T14:09:37.847Z</time></trkpt><trkpt lat="39.90100399318099" lon="9.515577247777022"><ele>843.2</ele><time>2026-04-30T14:09:38.847Z</time></trkpt><trkpt lat="39.900961151368996" lon="9.515426871265106"><ele>847.0</ele><time>2026-04-30T14:09:39.847Z</time></trkpt><trkpt lat="39.90094523661541" lon="9.515264957387195"><ele>849.75</ele><time>2026-04-30T14:09:40.847Z</time></trkpt><trkpt lat="39.90093792815494" lon="9.51511813614566"><ele>852.5</ele><time>2026-04-30T14:09:41.847Z</time></trkpt><trkpt lat="39.900950255004204" lon="9.514970022402645"><ele>855.25</ele><time>2026-04-30T14:09:42.847Z</time></trkpt><trkpt lat="39.900956421774445" lon="9.514822454758832"><ele>858.0</ele><time>2026-04-30T14:09:43.847Z</time></trkpt><trkpt lat="39.900951409428295" lon="9.514677332995369"><ele>857.75</ele><time>2026-04-30T14:09:44.847Z</time></trkpt><trkpt lat="39.90096664575853" lon="9.514536661467048"><ele>857.5</ele><time>2026-04-30T14:09:45.847Z</time></trkpt><trkpt lat="39.90100031055913" lon="9.514384491404508"><ele>857.25</ele><time>2026-04-30T14:09:46.847Z</time></trkpt><trkpt lat="39.90104244414996" lon="9.514239544675503"><ele>857.0</ele><time>2026-04-30T14:09:47.846Z</time></trkpt><trkpt lat="39.901097361153475" lon="9.514113979860825"><ele>857.0</ele><time>2026-04-30T14:09:48.846Z</time></trkpt><trkpt lat="39.90113259714559" lon="9.513973308928119"><ele>857.0</ele><time>2026-04-30T14:09:49.846Z</time></trkpt><trkpt lat="39.9011740921769" lon="9.513838763414482"><ele>857.0</ele><time>2026-04-30T14:09:50.846Z</time></trkpt><trkpt lat="39.90123074928227" lon="9.513716027170592"><ele>857.0</ele><time>2026-04-30T14:09:51.846Z</time></trkpt><trkpt lat="39.90127235119183" lon="9.51358686109172"><ele>857.0</ele><time>2026-04-30T14:09:52.846Z</time></trkpt><trkpt lat="39.901306527415024" lon="9.513449933121757"><ele>856.6</ele><time>2026-04-30T14:09:53.846Z</time></trkpt><trkpt lat="39.90134050784071" lon="9.513322700460959"><ele>856.2</ele><time>2026-04-30T14:09:54.846Z</time></trkpt><trkpt lat="39.901348998024226" lon="9.513190047499513"><ele>855.8</ele><time>2026-04-30T14:09:55.846Z</time></trkpt><trkpt lat="39.901329089943985" lon="9.51306610972654"><ele>855.4</ele><time>2026-04-30T14:09:56.846Z</time></trkpt><trkpt lat="39.90126962813085" lon="9.512958455538511"><ele>855.0</ele><time>2026-04-30T14:09:57.846Z</time></trkpt><trkpt lat="39.901201472759155" lon="9.512873427741265"><ele>855.0</ele><time>2026-04-30T14:09:58.846Z</time></trkpt><trkpt lat="39.901116479260885" lon="9.51285100887622"><ele>855.0</ele><time>2026-04-30T14:09:59.846Z</time></trkpt><trkpt lat="39.90104957204337" lon="9.512793184676003"><ele>855.0</ele><time>2026-04-30T14:10:00.846Z</time></trkpt><trkpt lat="39.90095154462986" lon="9.512738479917237"><ele>855.0</ele><time>2026-04-30T14:10:02.846Z</time></trkpt><trkpt lat="39.90087726672089" lon="9.512688146116671"><ele>855.0</ele><time>2026-04-30T14:10:04.846Z</time></trkpt><trkpt lat="39.90081400084247" lon="9.512652694316781"><ele>855.0</ele><time>2026-04-30T14:10:06.846Z</time></trkpt><trkpt lat="39.90074908718401" lon="9.512610229484391"><ele>854.4</ele><time>2026-04-30T14:10:09.846Z</time></trkpt><trkpt lat="39.90068779548757" lon="9.512579373348535"><ele>853.8</ele><time>2026-04-30T14:10:13.846Z</time></trkpt><trkpt lat="39.90061816337578" lon="9.51253190288328"><ele>853.2</ele><time>2026-04-30T14:10:17.845Z</time></trkpt><trkpt lat="39.900558627705756" lon="9.512476430793111"><ele>852.6</ele><time>2026-04-30T14:10:27.845Z</time></trkpt><trkpt lat="39.900648983387" lon="9.512326835324314"><ele>852.0</ele><time>2026-04-30T14:10:32.845Z</time></trkpt><trkpt lat="39.900730935410984" lon="9.512292296110877"><ele>852.0</ele><time>2026-04-30T14:10:33.845Z</time></trkpt><trkpt lat="39.900818637830895" lon="9.512246019114748"><ele>852.0</ele><time>2026-04-30T14:10:34.845Z</time></trkpt><trkpt lat="39.90093176123689" lon="9.512196157420698"><ele>852.0</ele><time>2026-04-30T14:10:35.845Z</time></trkpt><trkpt lat="39.90106340057596" lon="9.512145139014368"><ele>852.0</ele><time>2026-04-30T14:10:36.845Z</time></trkpt><trkpt lat="39.901188085924574" lon="9.512078294536675"><ele>852.5</ele><time>2026-04-30T14:10:37.845Z</time></trkpt><trkpt lat="39.90130036573742" lon="9.511984138476105"><ele>853.0</ele><time>2026-04-30T14:10:38.845Z</time></trkpt><trkpt lat="39.901395595512646" lon="9.51186392219923"><ele>853.5</ele><time>2026-04-30T14:10:39.845Z</time></trkpt><trkpt lat="39.901456641759125" lon="9.511688792278525"><ele>854.0</ele><time>2026-04-30T14:10:40.845Z</time></trkpt><trkpt lat="39.901500665912785" lon="9.511480389717734"><ele>854.6666666666667</ele><time>2026-04-30T14:10:41.845Z</time></trkpt><trkpt lat="39.901529256815905" lon="9.511231549737385"><ele>855.3333333333333</ele><time>2026-04-30T14:10:42.844Z</time></trkpt><trkpt lat="39.90156033798739" lon="9.510984154242793"><ele>856.0</ele><time>2026-04-30T14:10:43.844Z</time></trkpt><trkpt lat="39.90158601156287" lon="9.51074519719344"><ele>856.0</ele><time>2026-04-30T14:10:44.844Z</time></trkpt><trkpt lat="39.901626342709214" lon="9.51050482862215"><ele>856.0</ele><time>2026-04-30T14:10:45.844Z</time></trkpt><trkpt lat="39.90166395265846" lon="9.51026687683824"><ele>856.0</ele><time>2026-04-30T14:10:46.844Z</time></trkpt><trkpt lat="39.90170208612505" lon="9.510029302311452"><ele>855.3333333333333</ele><time>2026-04-30T14:10:47.844Z</time></trkpt><trkpt lat="39.90173792263716" lon="9.509785540229544"><ele>854.6666666666667</ele><time>2026-04-30T14:10:48.844Z</time></trkpt><trkpt lat="39.90177625180739" lon="9.509552103738235"><ele>854.0</ele><time>2026-04-30T14:10:49.844Z</time></trkpt><trkpt lat="39.90181123236954" lon="9.509340974306443"><ele>854.0</ele><time>2026-04-30T14:10:50.844Z</time></trkpt><trkpt lat="39.90184279686529" lon="9.509142165007612"><ele>854.0</ele><time>2026-04-30T14:10:51.844Z</time></trkpt><trkpt lat="39.901868057063616" lon="9.508944808603347"><ele>854.0</ele><time>2026-04-30T14:10:52.844Z</time></trkpt><trkpt lat="39.901877168643686" lon="9.508757633964386"><ele>854.0</ele><time>2026-04-30T14:10:53.844Z</time></trkpt><trkpt lat="39.901873572553875" lon="9.508584573138684"><ele>854.0</ele><time>2026-04-30T14:10:54.844Z</time></trkpt><trkpt lat="39.901851618072556" lon="9.50840849132702"><ele>854.0</ele><time>2026-04-30T14:10:55.844Z</time></trkpt><trkpt lat="39.90182741245529" lon="9.508242311635524"><ele>854.0</ele><time>2026-04-30T14:10:56.844Z</time></trkpt><trkpt lat="39.901819550465895" lon="9.508098682218856"><ele>854.0000000000001</ele><time>2026-04-30T14:10:57.844Z</time></trkpt><trkpt lat="39.901835359912795" lon="9.507984470074534"><ele>854.0</ele><time>2026-04-30T14:10:58.844Z</time></trkpt><trkpt lat="39.90189305157299" lon="9.507904216718595"><ele>854.0</ele><time>2026-04-30T14:10:59.844Z</time></trkpt><trkpt lat="39.90196157625176" lon="9.507824965295475"><ele>854.0</ele><time>2026-04-30T14:11:00.844Z</time></trkpt><trkpt lat="39.9020258188557" lon="9.507738167467872"><ele>854.0000000000001</ele><time>2026-04-30T14:11:01.844Z</time></trkpt><trkpt lat="39.90206721568461" lon="9.507636015394556"><ele>854.0</ele><time>2026-04-30T14:11:02.844Z</time></trkpt><trkpt lat="39.90210244225122" lon="9.507508859605982"><ele>853.75</ele><time>2026-04-30T14:11:03.844Z</time></trkpt><trkpt lat="39.90213446268819" lon="9.507364438143497"><ele>853.5</ele><time>2026-04-30T14:11:04.844Z</time></trkpt><trkpt lat="39.902159626636184" lon="9.507185020792512"><ele>853.25</ele><time>2026-04-30T14:11:05.844Z</time></trkpt><trkpt lat="39.902189963422096" lon="9.506983757799604"><ele>853.0</ele><time>2026-04-30T14:11:06.844Z</time></trkpt><trkpt lat="39.90222765065234" lon="9.50675899534329"><ele>853.0</ele><time>2026-04-30T14:11:07.843Z</time></trkpt><trkpt lat="39.90226743970168" lon="9.50652322858297"><ele>853.0</ele><time>2026-04-30T14:11:08.843Z</time></trkpt><trkpt lat="39.90231016634156" lon="9.50627239496039"><ele>853.0</ele><time>2026-04-30T14:11:09.843Z</time></trkpt><trkpt lat="39.902347391765126" lon="9.506024720302745"><ele>853.3333333333333</ele><time>2026-04-30T14:11:10.843Z</time></trkpt><trkpt lat="39.90238482130689" lon="9.505778026283691"><ele>853.6666666666667</ele><time>2026-04-30T14:11:11.843Z</time></trkpt><trkpt lat="39.90242537894056" lon="9.50553348663877"><ele>854.0</ele><time>2026-04-30T14:11:12.843Z</time></trkpt><trkpt lat="39.902464226525275" lon="9.50529459547462"><ele>854.6666666666667</ele><time>2026-04-30T14:11:13.843Z</time></trkpt><trkpt lat="39.902497695199614" lon="9.505069644432854"><ele>855.3333333333333</ele><time>2026-04-30T14:11:14.843Z</time></trkpt><trkpt lat="39.90252118961506" lon="9.504841533936679"><ele>856.0</ele><time>2026-04-30T14:11:15.843Z</time></trkpt><trkpt lat="39.90253000840686" lon="9.504614684911452"><ele>858.0</ele><time>2026-04-30T14:11:16.843Z</time></trkpt><trkpt lat="39.902522063987384" lon="9.504388465426826"><ele>860.0</ele><time>2026-04-30T14:11:17.843Z</time></trkpt><trkpt lat="39.90249273607303" lon="9.50416913184713"><ele>862.0</ele><time>2026-04-30T14:11:18.843Z</time></trkpt><trkpt lat="39.90245311897195" lon="9.503937476310252"><ele>863.3333333333333</ele><time>2026-04-30T14:11:19.843Z</time></trkpt><trkpt lat="39.90239393192615" lon="9.503704371963686"><ele>864.6666666666667</ele><time>2026-04-30T14:11:20.843Z</time></trkpt><trkpt lat="39.902322290225136" lon="9.503479370515937"><ele>866.0</ele><time>2026-04-30T14:11:21.843Z</time></trkpt><trkpt lat="39.90225572504345" lon="9.503240509441966"><ele>866.0</ele><time>2026-04-30T14:11:22.843Z</time></trkpt><trkpt lat="39.902182679185806" lon="9.502995413051991"><ele>866.0</ele><time>2026-04-30T14:11:23.843Z</time></trkpt><trkpt lat="39.902113790174795" lon="9.502737661714066"><ele>866.0</ele><time>2026-04-30T14:11:24.843Z</time></trkpt><trkpt lat="39.90205297983508" lon="9.502507251006211"><ele>866.6666666666667</ele><time>2026-04-30T14:11:25.843Z</time></trkpt><trkpt lat="39.90199357968166" lon="9.502289195306961"><ele>867.3333333333333</ele><time>2026-04-30T14:11:26.843Z</time></trkpt><trkpt lat="39.90194082162758" lon="9.502088875722425"><ele>868.0</ele><time>2026-04-30T14:11:27.843Z</time></trkpt><trkpt lat="39.90189446592946" lon="9.501901211429827"><ele>868.5</ele><time>2026-04-30T14:11:28.845Z</time></trkpt><trkpt lat="39.90184781124956" lon="9.501732220641768"><ele>869.0</ele><time>2026-04-30T14:11:29.844Z</time></trkpt><trkpt lat="39.901812733544915" lon="9.501582740156271"><ele>869.5</ele><time>2026-04-30T14:11:30.844Z</time></trkpt><trkpt lat="39.901811989662725" lon="9.501439343639117"><ele>870.0</ele><time>2026-04-30T14:11:31.845Z</time></trkpt><trkpt lat="39.9018639537613" lon="9.50131167911211"><ele>869.0</ele><time>2026-04-30T14:11:32.844Z</time></trkpt><trkpt lat="39.90194081309718" lon="9.501193648007222"><ele>868.0</ele><time>2026-04-30T14:11:33.844Z</time></trkpt><trkpt lat="39.902024814114924" lon="9.50106709635302"><ele>867.0</ele><time>2026-04-30T14:11:34.844Z</time></trkpt><trkpt lat="39.902097929738744" lon="9.500927714497834"><ele>866.0</ele><time>2026-04-30T14:11:35.844Z</time></trkpt><trkpt lat="39.902169750478784" lon="9.50081117025869"><ele>866.0</ele><time>2026-04-30T14:11:36.844Z</time></trkpt><trkpt lat="39.90222329956639" lon="9.500666843809821"><ele>866.0</ele><time>2026-04-30T14:11:37.844Z</time></trkpt><trkpt lat="39.90224721438669" lon="9.500490140839167"><ele>866.0</ele><time>2026-04-30T14:11:38.844Z</time></trkpt><trkpt lat="39.90227105210116" lon="9.500327854857664"><ele>866.0</ele><time>2026-04-30T14:11:39.844Z</time></trkpt><trkpt lat="39.902321768851806" lon="9.500168519759997"><ele>862.6666666666667</ele><time>2026-04-30T14:11:40.844Z</time></trkpt><trkpt lat="39.902406768698356" lon="9.50002030453016"><ele>859.3333333333333</ele><time>2026-04-30T14:11:41.844Z</time></trkpt><trkpt lat="39.902520283348615" lon="9.499877959943632"><ele>856.0</ele><time>2026-04-30T14:11:42.844Z</time></trkpt><trkpt lat="39.9026419380386" lon="9.499685995333174"><ele>859.5</ele><time>2026-04-30T14:11:43.843Z</time></trkpt><trkpt lat="39.90275369025853" lon="9.499441854508088"><ele>863.0</ele><time>2026-04-30T14:11:44.843Z</time></trkpt><trkpt lat="39.9028676269179" lon="9.499158841824"><ele>863.0</ele><time>2026-04-30T14:11:45.843Z</time></trkpt><trkpt lat="39.90299366902163" lon="9.49887411754578"><ele>863.0</ele><time>2026-04-30T14:11:46.843Z</time></trkpt><trkpt lat="39.90313992321688" lon="9.498608461395708"><ele>866.0</ele><time>2026-04-30T14:11:47.843Z</time></trkpt><trkpt lat="39.90330155940794" lon="9.498370773945553"><ele>869.0</ele><time>2026-04-30T14:11:48.843Z</time></trkpt><trkpt lat="39.903456108853895" lon="9.498134019847551"><ele>864.3333333333334</ele><time>2026-04-30T14:11:49.843Z</time></trkpt><trkpt lat="39.903573306230356" lon="9.497884663948092"><ele>859.6666666666667</ele><time>2026-04-30T14:11:50.843Z</time></trkpt><trkpt lat="39.90367046665233" lon="9.497633255198794"><ele>855.0</ele><time>2026-04-30T14:11:51.843Z</time></trkpt><trkpt lat="39.90378644222394" lon="9.497408208896022"><ele>855.0</ele><time>2026-04-30T14:11:52.843Z</time></trkpt><trkpt lat="39.90392448294795" lon="9.497214939929655"><ele>855.0</ele><time>2026-04-30T14:11:53.843Z</time></trkpt><trkpt lat="39.904032276363175" lon="9.49701444818222"><ele>855.0</ele><time>2026-04-30T14:11:54.843Z</time></trkpt><trkpt lat="39.90413123650203" lon="9.496852290127771"><ele>851.6666666666667</ele><time>2026-04-30T14:11:55.843Z</time></trkpt><trkpt lat="39.904207158266445" lon="9.496682199481674"><ele>848.3333333333334</ele><time>2026-04-30T14:11:56.843Z</time></trkpt><trkpt lat="39.90426318198589" lon="9.496494604030962"><ele>845.0</ele><time>2026-04-30T14:11:57.843Z</time></trkpt><trkpt lat="39.904303772055" lon="9.496286464593336"><ele>849.6666666666667</ele><time>2026-04-30T14:11:58.843Z</time></trkpt><trkpt lat="39.90433293824561" lon="9.496065959035315"><ele>854.3333333333333</ele><time>2026-04-30T14:11:59.843Z</time></trkpt><trkpt lat="39.904346642434575" lon="9.495841521205227"><ele>859.0</ele><time>2026-04-30T14:12:00.843Z</time></trkpt><trkpt lat="39.90435316507152" lon="9.495623514673083"><ele>859.0</ele><time>2026-04-30T14:12:01.843Z</time></trkpt><trkpt lat="39.90433349795925" lon="9.495425173925591"><ele>859.0</ele><time>2026-04-30T14:12:02.843Z</time></trkpt><trkpt lat="39.90429094995161" lon="9.495227339195194"><ele>859.0</ele><time>2026-04-30T14:12:03.843Z</time></trkpt><trkpt lat="39.9042458370593" lon="9.495043223416362"><ele>860.5</ele><time>2026-04-30T14:12:04.843Z</time></trkpt><trkpt lat="39.904218193166095" lon="9.494856681823721"><ele>862.0</ele><time>2026-04-30T14:12:05.843Z</time></trkpt><trkpt lat="39.9042158601305" lon="9.494669709622077"><ele>863.5</ele><time>2026-04-30T14:12:06.843Z</time></trkpt><trkpt lat="39.904242041190265" lon="9.494469862470956"><ele>865.0</ele><time>2026-04-30T14:12:07.843Z</time></trkpt><trkpt lat="39.90428646537053" lon="9.494267880925424"><ele>865.0</ele><time>2026-04-30T14:12:08.843Z</time></trkpt><trkpt lat="39.90433361953979" lon="9.494067360737853"><ele>865.0</ele><time>2026-04-30T14:12:09.843Z</time></trkpt><trkpt lat="39.904386751805546" lon="9.493866921493478"><ele>865.0</ele><time>2026-04-30T14:12:10.842Z</time></trkpt><trkpt lat="39.90444520324998" lon="9.493675880544362"><ele>859.0</ele><time>2026-04-30T14:12:11.842Z</time></trkpt><trkpt lat="39.90451538840511" lon="9.493498102828914"><ele>853.0</ele><time>2026-04-30T14:12:12.842Z</time></trkpt><trkpt lat="39.90462240146957" lon="9.493350698778709"><ele>847.0</ele><time>2026-04-30T14:12:13.842Z</time></trkpt><trkpt lat="39.90473791635287" lon="9.493224043490637"><ele>847.0</ele><time>2026-04-30T14:12:14.842Z</time></trkpt><trkpt lat="39.90487586874351" lon="9.493134238181502"><ele>847.0</ele><time>2026-04-30T14:12:15.842Z</time></trkpt><trkpt lat="39.90503834391887" lon="9.493045215674845"><ele>847.0</ele><time>2026-04-30T14:12:16.842Z</time></trkpt><trkpt lat="39.90520149838535" lon="9.492927922940606"><ele>846.0</ele><time>2026-04-30T14:12:17.842Z</time></trkpt><trkpt lat="39.90539131961238" lon="9.492784724500149"><ele>845.0</ele><time>2026-04-30T14:12:18.842Z</time></trkpt><trkpt lat="39.90558544284661" lon="9.492636688835331"><ele>844.0</ele><time>2026-04-30T14:12:19.842Z</time></trkpt><trkpt lat="39.905774833950595" lon="9.492490981924282"><ele>850.3333333333333</ele><time>2026-04-30T14:12:20.842Z</time></trkpt><trkpt lat="39.905947260732795" lon="9.492358038236912"><ele>856.6666666666667</ele><time>2026-04-30T14:12:21.842Z</time></trkpt><trkpt lat="39.90611212502028" lon="9.49224279210839"><ele>863.0</ele><time>2026-04-30T14:12:22.842Z</time></trkpt><trkpt lat="39.906273424534206" lon="9.492144628112253"><ele>855.3333333333334</ele><time>2026-04-30T14:12:23.842Z</time></trkpt><trkpt lat="39.906437808104315" lon="9.492045277631721"><ele>847.6666666666667</ele><time>2026-04-30T14:12:24.842Z</time></trkpt><trkpt lat="39.90657724705179" lon="9.49189737052642"><ele>840.0</ele><time>2026-04-30T14:12:25.842Z</time></trkpt><trkpt lat="39.90671939835554" lon="9.491742601277636"><ele>846.6666666666667</ele><time>2026-04-30T14:12:26.842Z</time></trkpt><trkpt lat="39.90686034314524" lon="9.491581614706845"><ele>853.3333333333334</ele><time>2026-04-30T14:12:27.842Z</time></trkpt><trkpt lat="39.90700408994096" lon="9.491410824233528"><ele>860.0</ele><time>2026-04-30T14:12:28.842Z</time></trkpt><trkpt lat="39.90715193275548" lon="9.491262260516542"><ele>853.0</ele><time>2026-04-30T14:12:29.842Z</time></trkpt><trkpt lat="39.907270750821965" lon="9.491074047422346"><ele>846.0</ele><time>2026-04-30T14:12:30.842Z</time></trkpt><trkpt lat="39.907382672490726" lon="9.49090946848753"><ele>839.0</ele><time>2026-04-30T14:12:31.842Z</time></trkpt><trkpt lat="39.90748657410182" lon="9.49074019835042"><ele>841.6666666666667</ele><time>2026-04-30T14:12:32.842Z</time></trkpt><trkpt lat="39.907580290076154" lon="9.490570985373623"><ele>844.3333333333333</ele><time>2026-04-30T14:12:33.842Z</time></trkpt><trkpt lat="39.90765480967016" lon="9.490387940207574"><ele>847.0</ele><time>2026-04-30T14:12:34.842Z</time></trkpt><trkpt lat="39.9077100768617" lon="9.490194508596865"><ele>847.0</ele><time>2026-04-30T14:12:35.842Z</time></trkpt><trkpt lat="39.90774055729803" lon="9.490002576687347"><ele>847.0</ele><time>2026-04-30T14:12:36.842Z</time></trkpt><trkpt lat="39.907751913134426" lon="9.489790565992521"><ele>847.0</ele><time>2026-04-30T14:12:37.842Z</time></trkpt><trkpt lat="39.90774704026714" lon="9.489584118122158"><ele>845.6666666666666</ele><time>2026-04-30T14:12:38.841Z</time></trkpt><trkpt lat="39.90773304809557" lon="9.489377415666956"><ele>844.3333333333333</ele><time>2026-04-30T14:12:39.841Z</time></trkpt><trkpt lat="39.907732569208356" lon="9.489175297177127"><ele>843.0</ele><time>2026-04-30T14:12:40.841Z</time></trkpt><trkpt lat="39.90777929693355" lon="9.48900641456864"><ele>843.0</ele><time>2026-04-30T14:12:41.841Z</time></trkpt><trkpt lat="39.90783080130237" lon="9.48883552543264"><ele>843.0</ele><time>2026-04-30T14:12:42.841Z</time></trkpt><trkpt lat="39.907875669131336" lon="9.48864114821263"><ele>843.0</ele><time>2026-04-30T14:12:43.841Z</time></trkpt><trkpt lat="39.90794234340185" lon="9.488453205294586"><ele>841.75</ele><time>2026-04-30T14:12:44.841Z</time></trkpt><trkpt lat="39.90799871572995" lon="9.48827508282999"><ele>840.5</ele><time>2026-04-30T14:12:45.841Z</time></trkpt><trkpt lat="39.90806090337193" lon="9.488116285397103"><ele>839.25</ele><time>2026-04-30T14:12:46.841Z</time></trkpt><trkpt lat="39.9081524295584" lon="9.487974373644926"><ele>838.0</ele><time>2026-04-30T14:12:47.841Z</time></trkpt><trkpt lat="39.90826267451489" lon="9.487844941026946"><ele>836.6666666666666</ele><time>2026-04-30T14:12:48.841Z</time></trkpt><trkpt lat="39.908388265076184" lon="9.48767607601792"><ele>835.3333333333333</ele><time>2026-04-30T14:12:49.841Z</time></trkpt><trkpt lat="39.9085742067207" lon="9.48752375473988"><ele>834.0</ele><time>2026-04-30T14:12:50.841Z</time></trkpt><trkpt lat="39.90879981410743" lon="9.487355242302502"><ele>834.0</ele><time>2026-04-30T14:12:51.841Z</time></trkpt><trkpt lat="39.9090260665126" lon="9.487174193224241"><ele>834.0</ele><time>2026-04-30T14:12:52.841Z</time></trkpt><trkpt lat="39.90924085971311" lon="9.486999615439188"><ele>832.0</ele><time>2026-04-30T14:12:53.841Z</time></trkpt><trkpt lat="39.90945702044863" lon="9.486822232347675"><ele>830.0</ele><time>2026-04-30T14:12:54.841Z</time></trkpt><trkpt lat="39.90968810854207" lon="9.486638405113174"><ele>830.0</ele><time>2026-04-30T14:12:55.841Z</time></trkpt><trkpt lat="39.90992205264631" lon="9.486464671282736"><ele>830.0</ele><time>2026-04-30T14:12:56.841Z</time></trkpt><trkpt lat="39.910144123457954" lon="9.486276791756884"><ele>827.0</ele><time>2026-04-30T14:12:57.841Z</time></trkpt><trkpt lat="39.91034168605796" lon="9.486069996977845"><ele>824.0</ele><time>2026-04-30T14:12:58.841Z</time></trkpt><trkpt lat="39.91052169316283" lon="9.485866307098048"><ele>824.0</ele><time>2026-04-30T14:12:59.841Z</time></trkpt><trkpt lat="39.91070358551675" lon="9.48568128583168"><ele>824.0</ele><time>2026-04-30T14:13:00.841Z</time></trkpt><trkpt lat="39.91089975105753" lon="9.485533083622787"><ele>822.5</ele><time>2026-04-30T14:13:01.841Z</time></trkpt><trkpt lat="39.91112092581181" lon="9.485412390755954"><ele>821.0</ele><time>2026-04-30T14:13:02.841Z</time></trkpt><trkpt lat="39.91135814353188" lon="9.485304883775619"><ele>821.0</ele><time>2026-04-30T14:13:03.841Z</time></trkpt><trkpt lat="39.91157698085471" lon="9.485184774693922"><ele>821.0</ele><time>2026-04-30T14:13:04.841Z</time></trkpt><trkpt lat="39.91178755221158" lon="9.485037846332544"><ele>827.0</ele><time>2026-04-30T14:13:05.84Z</time></trkpt><trkpt lat="39.911985581369734" lon="9.48484955104851"><ele>833.0</ele><time>2026-04-30T14:13:06.84Z</time></trkpt><trkpt lat="39.91217571005271" lon="9.484632409424727"><ele>828.0</ele><time>2026-04-30T14:13:07.84Z</time></trkpt><trkpt lat="39.912367164246646" lon="9.484414690280682"><ele>823.0</ele><time>2026-04-30T14:13:08.84Z</time></trkpt><trkpt lat="39.912565813056304" lon="9.484197777300055"><ele>829.5</ele><time>2026-04-30T14:13:09.84Z</time></trkpt><trkpt lat="39.9127541899729" lon="9.484004198141156"><ele>836.0</ele><time>2026-04-30T14:13:10.84Z</time></trkpt><trkpt lat="39.91293466592591" lon="9.483812619790399"><ele>831.6666666666667</ele><time>2026-04-30T14:13:11.84Z</time></trkpt><trkpt lat="39.91309894582034" lon="9.483636808312232"><ele>827.3333333333333</ele><time>2026-04-30T14:13:12.84Z</time></trkpt><trkpt lat="39.913249944956405" lon="9.4834827096818"><ele>823.0</ele><time>2026-04-30T14:13:13.84Z</time></trkpt><trkpt lat="39.91339375465807" lon="9.483342250095232"><ele>824.0</ele><time>2026-04-30T14:13:14.84Z</time></trkpt><trkpt lat="39.91354196290323" lon="9.483223277956489"><ele>825.0</ele><time>2026-04-30T14:13:15.84Z</time></trkpt><trkpt lat="39.9136923426815" lon="9.483140336573497"><ele>826.0</ele><time>2026-04-30T14:13:16.84Z</time></trkpt><trkpt lat="39.91384918160014" lon="9.48311327806835"><ele>826.0</ele><time>2026-04-30T14:13:17.84Z</time></trkpt><trkpt lat="39.91401092936891" lon="9.483144792731188"><ele>826.0</ele><time>2026-04-30T14:13:18.84Z</time></trkpt><trkpt lat="39.91416627602803" lon="9.483286185481601"><ele>826.0</ele><time>2026-04-30T14:13:19.84Z</time></trkpt><trkpt lat="39.91433170343795" lon="9.483363951948"><ele>825.5</ele><time>2026-04-30T14:13:20.84Z</time></trkpt><trkpt lat="39.91446793335977" lon="9.483423762241046"><ele>825.0</ele><time>2026-04-30T14:13:21.84Z</time></trkpt><trkpt lat="39.91459858873415" lon="9.483418371736514"><ele>824.5</ele><time>2026-04-30T14:13:22.84Z</time></trkpt><trkpt lat="39.91471387427132" lon="9.483371913495919"><ele>824.0</ele><time>2026-04-30T14:13:23.84Z</time></trkpt><trkpt lat="39.91480196290678" lon="9.48326768931288"><ele>824.0</ele><time>2026-04-30T14:13:24.84Z</time></trkpt><trkpt lat="39.91485627221272" lon="9.483112770472353"><ele>824.0</ele><time>2026-04-30T14:13:25.84Z</time></trkpt><trkpt lat="39.914859409365924" lon="9.482944551022412"><ele>824.0</ele><time>2026-04-30T14:13:26.84Z</time></trkpt><trkpt lat="39.91481355975427" lon="9.482796700887084"><ele>824.0</ele><time>2026-04-30T14:13:27.84Z</time></trkpt><trkpt lat="39.91472674036463" lon="9.482667663533206"><ele>826.0</ele><time>2026-04-30T14:13:28.84Z</time></trkpt><trkpt lat="39.914643951741304" lon="9.482519495247413"><ele>828.0</ele><time>2026-04-30T14:13:29.84Z</time></trkpt><trkpt lat="39.91459648038692" lon="9.48232039077147"><ele>830.0</ele><time>2026-04-30T14:13:30.84Z</time></trkpt><trkpt lat="39.91461850777835" lon="9.482076313880054"><ele>830.0</ele><time>2026-04-30T14:13:31.84Z</time></trkpt><trkpt lat="39.91462744399083" lon="9.481813222612471"><ele>830.0</ele><time>2026-04-30T14:13:32.84Z</time></trkpt><trkpt lat="39.91462810146215" lon="9.481537003298278"><ele>830.0</ele><time>2026-04-30T14:13:33.839Z</time></trkpt><trkpt lat="39.914650246519244" lon="9.481290887171928"><ele>828.0</ele><time>2026-04-30T14:13:34.841Z</time></trkpt><trkpt lat="39.914684167325916" lon="9.481094536874721"><ele>826.0</ele><time>2026-04-30T14:13:35.84Z</time></trkpt><trkpt lat="39.91475156832479" lon="9.480938729106759"><ele>824.0</ele><time>2026-04-30T14:13:36.84Z</time></trkpt><trkpt lat="39.91488347586191" lon="9.48085679253464"><ele>822.0</ele><time>2026-04-30T14:13:37.841Z</time></trkpt><trkpt lat="39.91504669227578" lon="9.480763609739652"><ele>821.3333333333333</ele><time>2026-04-30T14:13:38.841Z</time></trkpt><trkpt lat="39.91523624564818" lon="9.480652979852435"><ele>820.6666666666666</ele><time>2026-04-30T14:13:39.841Z</time></trkpt><trkpt lat="39.91544888290693" lon="9.480515482646846"><ele>820.0</ele><time>2026-04-30T14:13:40.841Z</time></trkpt><trkpt lat="39.91565106667897" lon="9.480403665964971"><ele>820.0</ele><time>2026-04-30T14:13:41.841Z</time></trkpt><trkpt lat="39.915817161211905" lon="9.480278063894449"><ele>820.0</ele><time>2026-04-30T14:13:42.841Z</time></trkpt><trkpt lat="39.91594257858568" lon="9.480117991677679"><ele>820.0</ele><time>2026-04-30T14:13:43.841Z</time></trkpt><trkpt lat="39.91602968570355" lon="9.479944196612873"><ele>821.0</ele><time>2026-04-30T14:13:44.841Z</time></trkpt><trkpt lat="39.91616219719795" lon="9.47984369078901"><ele>822.0</ele><time>2026-04-30T14:13:45.841Z</time></trkpt><trkpt lat="39.9163223553519" lon="9.479826886428661"><ele>823.0</ele><time>2026-04-30T14:13:46.84Z</time></trkpt><trkpt lat="39.916526756562256" lon="9.47977661569214"><ele>822.0</ele><time>2026-04-30T14:13:47.841Z</time></trkpt><trkpt lat="39.91675098050643" lon="9.479721587045823"><ele>821.0</ele><time>2026-04-30T14:13:48.841Z</time></trkpt><trkpt lat="39.916987107029186" lon="9.479727631085746"><ele>821.0</ele><time>2026-04-30T14:13:49.841Z</time></trkpt><trkpt lat="39.917240305898126" lon="9.479721632426234"><ele>821.0</ele><time>2026-04-30T14:13:50.841Z</time></trkpt><trkpt lat="39.91749322065319" lon="9.479663700196493"><ele>824.0</ele><time>2026-04-30T14:13:51.841Z</time></trkpt><trkpt lat="39.917751119660295" lon="9.47961070859922"><ele>827.0</ele><time>2026-04-30T14:13:52.841Z</time></trkpt><trkpt lat="39.918007229680946" lon="9.479575277107742"><ele>825.0</ele><time>2026-04-30T14:13:53.841Z</time></trkpt><trkpt lat="39.918230597364676" lon="9.479504228687153"><ele>823.0</ele><time>2026-04-30T14:13:54.841Z</time></trkpt><trkpt lat="39.91843011089696" lon="9.479425790446728"><ele>821.0</ele><time>2026-04-30T14:13:55.841Z</time></trkpt><trkpt lat="39.91860335595392" lon="9.479285503843316"><ele>821.0</ele><time>2026-04-30T14:13:56.841Z</time></trkpt><trkpt lat="39.91877301869076" lon="9.479093996140925"><ele>821.0</ele><time>2026-04-30T14:13:57.841Z</time></trkpt><trkpt lat="39.91897347876958" lon="9.478933266946795"><ele>821.0</ele><time>2026-04-30T14:13:58.841Z</time></trkpt><trkpt lat="39.91919043099005" lon="9.478811096880053"><ele>821.0</ele><time>2026-04-30T14:13:59.841Z</time></trkpt><trkpt lat="39.91940898510848" lon="9.478694951939744"><ele>817.3333333333334</ele><time>2026-04-30T14:14:00.841Z</time></trkpt><trkpt lat="39.919607879643856" lon="9.478590421547922"><ele>813.6666666666667</ele><time>2026-04-30T14:14:01.841Z</time></trkpt><trkpt lat="39.919777329759675" lon="9.478533218284719"><ele>810.0</ele><time>2026-04-30T14:14:02.841Z</time></trkpt><trkpt lat="39.91992202154031" lon="9.478541562102913"><ele>810.0</ele><time>2026-04-30T14:14:03.841Z</time></trkpt><trkpt lat="39.92005458611242" lon="9.47861318619075"><ele>810.0</ele><time>2026-04-30T14:14:04.841Z</time></trkpt><trkpt lat="39.920201892229095" lon="9.478696277463145"><ele>810.0</ele><time>2026-04-30T14:14:05.84Z</time></trkpt><trkpt lat="39.92032946063212" lon="9.478719265306252"><ele>810.0</ele><time>2026-04-30T14:14:06.84Z</time></trkpt><trkpt lat="39.92042860579565" lon="9.478705069101261"><ele>812.6666666666667</ele><time>2026-04-30T14:14:07.84Z</time></trkpt><trkpt lat="39.920516348848196" lon="9.47861275125951"><ele>815.3333333333334</ele><time>2026-04-30T14:14:08.84Z</time></trkpt><trkpt lat="39.92059271365613" lon="9.478434643344675"><ele>818.0</ele><time>2026-04-30T14:14:09.84Z</time></trkpt><trkpt lat="39.920658885483796" lon="9.478211787138264"><ele>818.0</ele><time>2026-04-30T14:14:10.84Z</time></trkpt><trkpt lat="39.92075551524792" lon="9.477997613611228"><ele>818.0</ele><time>2026-04-30T14:14:11.84Z</time></trkpt><trkpt lat="39.920835568620184" lon="9.477785696656891"><ele>818.0</ele><time>2026-04-30T14:14:12.84Z</time></trkpt><trkpt lat="39.92093175940106" lon="9.47761821527714"><ele>821.0</ele><time>2026-04-30T14:14:13.84Z</time></trkpt><trkpt lat="39.92104894641393" lon="9.477493839844051"><ele>824.0</ele><time>2026-04-30T14:14:14.84Z</time></trkpt><trkpt lat="39.92114575442957" lon="9.477376628131196"><ele>827.0</ele><time>2026-04-30T14:14:15.84Z</time></trkpt><trkpt lat="39.92122694497397" lon="9.477275414321916"><ele>830.0</ele><time>2026-04-30T14:14:16.84Z</time></trkpt><trkpt lat="39.92128848228725" lon="9.477210963659488"><ele>827.2</ele><time>2026-04-30T14:14:17.84Z</time></trkpt><trkpt lat="39.921220480131524" lon="9.477076088831778"><ele>824.4</ele><time>2026-04-30T14:14:21.84Z</time></trkpt><trkpt lat="39.92113170983995" lon="9.476991683797237"><ele>821.5999999999999</ele><time>2026-04-30T14:14:23.84Z</time></trkpt><trkpt lat="39.92107463484732" lon="9.476924549331132"><ele>818.8</ele><time>2026-04-30T14:14:24.84Z</time></trkpt><trkpt lat="39.921015676070986" lon="9.476858606994327"><ele>816.0</ele><time>2026-04-30T14:14:25.84Z</time></trkpt><trkpt lat="39.920959154369704" lon="9.476793890602506"><ele>814.8333333333334</ele><time>2026-04-30T14:14:26.84Z</time></trkpt><trkpt lat="39.92089353405837" lon="9.476718458160725"><ele>813.6666666666667</ele><time>2026-04-30T14:14:27.84Z</time></trkpt><trkpt lat="39.92083450011224" lon="9.47665668825763"><ele>812.5</ele><time>2026-04-30T14:14:28.84Z</time></trkpt><trkpt lat="39.9207765409424" lon="9.476595639491132"><ele>811.3333333333334</ele><time>2026-04-30T14:14:29.84Z</time></trkpt><trkpt lat="39.920714599641336" lon="9.476531350258579"><ele>810.1666666666667</ele><time>2026-04-30T14:14:30.84Z</time></trkpt><trkpt lat="39.92065339193743" lon="9.47647890688507"><ele>809.0</ele><time>2026-04-30T14:14:31.84Z</time></trkpt><trkpt lat="39.92058788044239" lon="9.476421559594938"><ele>809.0000000000001</ele><time>2026-04-30T14:14:32.839Z</time></trkpt><trkpt lat="39.92052286491234" lon="9.476381018839247"><ele>809.0</ele><time>2026-04-30T14:14:33.839Z</time></trkpt><trkpt lat="39.92045703747796" lon="9.476349271160826"><ele>809.0</ele><time>2026-04-30T14:14:34.839Z</time></trkpt><trkpt lat="39.92038895379201" lon="9.47631695363872"><ele>809.0</ele><time>2026-04-30T14:14:35.839Z</time></trkpt><trkpt lat="39.92032050649869" lon="9.47627258712312"><ele>809.0000000000001</ele><time>2026-04-30T14:14:36.839Z</time></trkpt><trkpt lat="39.920243890488024" lon="9.476155222234313"><ele>809.0</ele><time>2026-04-30T14:14:38.839Z</time></trkpt><trkpt lat="39.92024198159088" lon="9.476003553442666"><ele>809.8333333333334</ele><time>2026-04-30T14:14:40.839Z</time></trkpt><trkpt lat="39.92026146350497" lon="9.475920845219418"><ele>810.6666666666667</ele><time>2026-04-30T14:14:41.839Z</time></trkpt><trkpt lat="39.920307852788525" lon="9.475830826502538"><ele>811.5</ele><time>2026-04-30T14:14:42.839Z</time></trkpt><trkpt lat="39.920332907686685" lon="9.475713985061956"><ele>812.3333333333333</ele><time>2026-04-30T14:14:43.839Z</time></trkpt><trkpt lat="39.920378171274926" lon="9.475592145179576"><ele>813.1666666666666</ele><time>2026-04-30T14:14:44.839Z</time></trkpt><trkpt lat="39.92042006731387" lon="9.475470427099252"><ele>814.0</ele><time>2026-04-30T14:14:45.839Z</time></trkpt><trkpt lat="39.92046065518672" lon="9.475340750475269"><ele>814.0</ele><time>2026-04-30T14:14:46.839Z</time></trkpt><trkpt lat="39.92050445489043" lon="9.475205165106818"><ele>814.0</ele><time>2026-04-30T14:14:47.839Z</time></trkpt><trkpt lat="39.92054901514024" lon="9.475063169928598"><ele>814.0</ele><time>2026-04-30T14:14:48.839Z</time></trkpt><trkpt lat="39.92059414183797" lon="9.47491602599844"><ele>814.0</ele><time>2026-04-30T14:14:49.839Z</time></trkpt><trkpt lat="39.92064115349172" lon="9.474759849473088"><ele>814.0</ele><time>2026-04-30T14:14:50.839Z</time></trkpt><trkpt lat="39.92068533040242" lon="9.474603155550401"><ele>814.0</ele><time>2026-04-30T14:14:51.839Z</time></trkpt><trkpt lat="39.92075260968895" lon="9.47442408057487"><ele>814.0</ele><time>2026-04-30T14:14:52.839Z</time></trkpt><trkpt lat="39.920804899503274" lon="9.474236064262266"><ele>814.0</ele><time>2026-04-30T14:14:53.839Z</time></trkpt><trkpt lat="39.920845129004036" lon="9.474059653067243"><ele>814.0</ele><time>2026-04-30T14:14:54.839Z</time></trkpt><trkpt lat="39.92087405254876" lon="9.473894667906517"><ele>814.0</ele><time>2026-04-30T14:14:55.839Z</time></trkpt><trkpt lat="39.920896732047" lon="9.473744397358045"><ele>814.0</ele><time>2026-04-30T14:14:56.839Z</time></trkpt><trkpt lat="39.920916429409424" lon="9.473615510907308"><ele>814.0</ele><time>2026-04-30T14:14:57.839Z</time></trkpt><trkpt lat="39.9209381155946" lon="9.473487524002348"><ele>814.0</ele><time>2026-04-30T14:14:58.839Z</time></trkpt><trkpt lat="39.92097418404649" lon="9.473375538002136"><ele>812.6</ele><time>2026-04-30T14:14:59.839Z</time></trkpt><trkpt lat="39.921031369710434" lon="9.473275539146867"><ele>811.2</ele><time>2026-04-30T14:15:00.838Z</time></trkpt><trkpt lat="39.92110375297342" lon="9.473190591314644"><ele>809.8000000000001</ele><time>2026-04-30T14:15:01.838Z</time></trkpt><trkpt lat="39.92120198660863" lon="9.473149051944175"><ele>808.4000000000001</ele><time>2026-04-30T14:15:02.838Z</time></trkpt><trkpt lat="39.92130120387668" lon="9.473092130349183"><ele>807.0</ele><time>2026-04-30T14:15:03.838Z</time></trkpt><trkpt lat="39.92139490579247" lon="9.473016117123414"><ele>807.0</ele><time>2026-04-30T14:15:04.838Z</time></trkpt><trkpt lat="39.92148255324108" lon="9.472942503894801"><ele>807.0</ele><time>2026-04-30T14:15:05.838Z</time></trkpt><trkpt lat="39.92155786456022" lon="9.472850829549314"><ele>807.0</ele><time>2026-04-30T14:15:06.838Z</time></trkpt><trkpt lat="39.921618327780344" lon="9.472728387852628"><ele>807.0</ele><time>2026-04-30T14:15:07.838Z</time></trkpt><trkpt lat="39.92165656340809" lon="9.472596603423593"><ele>807.0</ele><time>2026-04-30T14:15:08.838Z</time></trkpt><trkpt lat="39.921686554590984" lon="9.472450625190662"><ele>807.75</ele><time>2026-04-30T14:15:09.838Z</time></trkpt><trkpt lat="39.921716518815714" lon="9.472307084611348"><ele>808.5</ele><time>2026-04-30T14:15:10.838Z</time></trkpt><trkpt lat="39.92174706322419" lon="9.47216354478033"><ele>809.25</ele><time>2026-04-30T14:15:11.838Z</time></trkpt><trkpt lat="39.921787671095146" lon="9.472019135030296"><ele>810.0</ele><time>2026-04-30T14:15:12.838Z</time></trkpt><trkpt lat="39.92185321979986" lon="9.471881679389591"><ele>810.0</ele><time>2026-04-30T14:15:13.838Z</time></trkpt><trkpt lat="39.92194084762242" lon="9.471772619625607"><ele>810.0</ele><time>2026-04-30T14:15:14.838Z</time></trkpt><trkpt lat="39.922027927018604" lon="9.471678257395318"><ele>810.0</ele><time>2026-04-30T14:15:15.838Z</time></trkpt><trkpt lat="39.92209759399533" lon="9.471592406762305"><ele>810.0</ele><time>2026-04-30T14:15:16.838Z</time></trkpt><trkpt lat="39.922153396150115" lon="9.47150185071555"><ele>810.0</ele><time>2026-04-30T14:15:17.838Z</time></trkpt><trkpt lat="39.922191372241976" lon="9.471394126439089"><ele>812.4</ele><time>2026-04-30T14:15:18.838Z</time></trkpt><trkpt lat="39.92220495223766" lon="9.471268091440201"><ele>814.8</ele><time>2026-04-30T14:15:19.838Z</time></trkpt><trkpt lat="39.92220136963278" lon="9.471137747298153"><ele>817.2</ele><time>2026-04-30T14:15:20.838Z</time></trkpt><trkpt lat="39.9222012070555" lon="9.47101303683575"><ele>819.6</ele><time>2026-04-30T14:15:21.838Z</time></trkpt><trkpt lat="39.922215514736486" lon="9.47089081175646"><ele>822.0</ele><time>2026-04-30T14:15:22.838Z</time></trkpt><trkpt lat="39.922249518776276" lon="9.47077806063486"><ele>822.0</ele><time>2026-04-30T14:15:23.838Z</time></trkpt><trkpt lat="39.92231097609501" lon="9.470674144421663"><ele>822.0</ele><time>2026-04-30T14:15:24.838Z</time></trkpt><trkpt lat="39.922405414630624" lon="9.470601332411531"><ele>822.0</ele><time>2026-04-30T14:15:25.838Z</time></trkpt><trkpt lat="39.92252621734469" lon="9.470607642523756"><ele>822.0</ele><time>2026-04-30T14:15:26.838Z</time></trkpt><trkpt lat="39.92265458533325" lon="9.470592385740229"><ele>820.25</ele><time>2026-04-30T14:15:27.837Z</time></trkpt><trkpt lat="39.92280048056215" lon="9.470557177776097"><ele>818.5</ele><time>2026-04-30T14:15:28.837Z</time></trkpt><trkpt lat="39.92294094316628" lon="9.470544949532002"><ele>816.75</ele><time>2026-04-30T14:15:29.837Z</time></trkpt><trkpt lat="39.92307008669116" lon="9.47054688267733"><ele>815.0</ele><time>2026-04-30T14:15:30.837Z</time></trkpt><trkpt lat="39.9231905039205" lon="9.470486539362346"><ele>814.0</ele><time>2026-04-30T14:15:31.837Z</time></trkpt><trkpt lat="39.92331731089098" lon="9.47039857345264"><ele>813.0</ele><time>2026-04-30T14:15:32.837Z</time></trkpt><trkpt lat="39.923437151796776" lon="9.470292581589835"><ele>812.0</ele><time>2026-04-30T14:15:33.837Z</time></trkpt><trkpt lat="39.923524053942" lon="9.47017111055218"><ele>811.0</ele><time>2026-04-30T14:15:34.837Z</time></trkpt><trkpt lat="39.923578572314575" lon="9.470032618429288"><ele>811.0</ele><time>2026-04-30T14:15:35.837Z</time></trkpt><trkpt lat="39.92359117157618" lon="9.4698705591625"><ele>811.0</ele><time>2026-04-30T14:15:36.837Z</time></trkpt><trkpt lat="39.923556452335404" lon="9.469695754257835"><ele>811.0</ele><time>2026-04-30T14:15:37.837Z</time></trkpt><trkpt lat="39.92347042866854" lon="9.469541231998793"><ele>811.0</ele><time>2026-04-30T14:15:38.837Z</time></trkpt><trkpt lat="39.92338673835125" lon="9.469368104337875"><ele>814.6666666666666</ele><time>2026-04-30T14:15:39.837Z</time></trkpt><trkpt lat="39.92327885053671" lon="9.46919524816811"><ele>818.3333333333333</ele><time>2026-04-30T14:15:40.838Z</time></trkpt><trkpt lat="39.92317139797086" lon="9.469019088660113"><ele>822.0</ele><time>2026-04-30T14:15:41.838Z</time></trkpt><trkpt lat="39.92307992979087" lon="9.468852156193728"><ele>819.0</ele><time>2026-04-30T14:15:42.838Z</time></trkpt><trkpt lat="39.92299478033821" lon="9.468695386813948"><ele>816.0</ele><time>2026-04-30T14:15:43.838Z</time></trkpt><trkpt lat="39.92291413479797" lon="9.468545175241179"><ele>813.0</ele><time>2026-04-30T14:15:44.838Z</time></trkpt><trkpt lat="39.92284263302586" lon="9.468394852267703"><ele>810.0</ele><time>2026-04-30T14:15:45.838Z</time></trkpt><trkpt lat="39.922783886720275" lon="9.468248474677567"><ele>810.0</ele><time>2026-04-30T14:15:46.838Z</time></trkpt><trkpt lat="39.922744276596006" lon="9.468103655287988"><ele>810.0</ele><time>2026-04-30T14:15:47.838Z</time></trkpt><trkpt lat="39.922716321810256" lon="9.467950294050057"><ele>810.0</ele><time>2026-04-30T14:15:48.838Z</time></trkpt><trkpt lat="39.922695312611594" lon="9.467795774021921"><ele>810.0</ele><time>2026-04-30T14:15:49.838Z</time></trkpt><trkpt lat="39.922672623385886" lon="9.467642278732031"><ele>809.4</ele><time>2026-04-30T14:15:50.838Z</time></trkpt><trkpt lat="39.9226474820968" lon="9.467500022877136"><ele>808.8</ele><time>2026-04-30T14:15:51.838Z</time></trkpt><trkpt lat="39.922631023864376" lon="9.467363842850848"><ele>808.2</ele><time>2026-04-30T14:15:52.838Z</time></trkpt><trkpt lat="39.92261114939283" lon="9.467237308147036"><ele>807.6</ele><time>2026-04-30T14:15:53.838Z</time></trkpt><trkpt lat="39.92259149725275" lon="9.46711817977646"><ele>807.0</ele><time>2026-04-30T14:15:54.838Z</time></trkpt><trkpt lat="39.92257357595021" lon="9.46700231428287"><ele>807.0</ele><time>2026-04-30T14:15:55.838Z</time></trkpt><trkpt lat="39.92256231613757" lon="9.466883199605723"><ele>807.0</ele><time>2026-04-30T14:15:56.838Z</time></trkpt><trkpt lat="39.922564626041016" lon="9.466767580355642"><ele>807.0</ele><time>2026-04-30T14:15:57.838Z</time></trkpt><trkpt lat="39.92258315995819" lon="9.466668256475169"><ele>807.0</ele><time>2026-04-30T14:15:58.838Z</time></trkpt><trkpt lat="39.92267852583763" lon="9.46658045840827"><ele>807.0</ele><time>2026-04-30T14:16:00.838Z</time></trkpt><trkpt lat="39.92274444956451" lon="9.46662853466372"><ele>807.0</ele><time>2026-04-30T14:16:01.838Z</time></trkpt><trkpt lat="39.92281328994305" lon="9.466630660091974"><ele>807.0</ele><time>2026-04-30T14:16:02.838Z</time></trkpt><trkpt lat="39.92288925398835" lon="9.466609859069976"><ele>807.0</ele><time>2026-04-30T14:16:03.838Z</time></trkpt><trkpt lat="39.92296721764333" lon="9.4666033754827"><ele>807.0</ele><time>2026-04-30T14:16:04.838Z</time></trkpt><trkpt lat="39.923036594885986" lon="9.466607410105016"><ele>807.0</ele><time>2026-04-30T14:16:05.838Z</time></trkpt><trkpt lat="39.92310219201136" lon="9.466602277314633"><ele>807.0</ele><time>2026-04-30T14:16:06.838Z</time></trkpt><trkpt lat="39.92321593499847" lon="9.466617735941528"><ele>807.0</ele><time>2026-04-30T14:16:08.838Z</time></trkpt><trkpt lat="39.92331561211576" lon="9.466407805967043"><ele>807.0</ele><time>2026-04-30T14:16:10.838Z</time></trkpt><trkpt lat="39.92333628428602" lon="9.466266353440984"><ele>807.0</ele><time>2026-04-30T14:16:11.838Z</time></trkpt><trkpt lat="39.92334846198181" lon="9.46613948426689"><ele>807.0</ele><time>2026-04-30T14:16:12.838Z</time></trkpt><trkpt lat="39.923348524729484" lon="9.46601425110422"><ele>807.4000000000001</ele><time>2026-04-30T14:16:13.838Z</time></trkpt><trkpt lat="39.92334649130261" lon="9.465884404939965"><ele>807.8000000000001</ele><time>2026-04-30T14:16:14.838Z</time></trkpt><trkpt lat="39.92334610629885" lon="9.465749684801695"><ele>808.2</ele><time>2026-04-30T14:16:15.838Z</time></trkpt><trkpt lat="39.92333596208083" lon="9.465619165514193"><ele>808.6</ele><time>2026-04-30T14:16:16.838Z</time></trkpt><trkpt lat="39.92331029129427" lon="9.465490599964014"><ele>809.0</ele><time>2026-04-30T14:16:17.837Z</time></trkpt><trkpt lat="39.92326243189124" lon="9.465361203873139"><ele>809.0</ele><time>2026-04-30T14:16:18.837Z</time></trkpt><trkpt lat="39.9232017189422" lon="9.465228229850924"><ele>809.0</ele><time>2026-04-30T14:16:19.837Z</time></trkpt><trkpt lat="39.92313387128602" lon="9.465087785979799"><ele>809.0</ele><time>2026-04-30T14:16:20.837Z</time></trkpt><trkpt lat="39.923059348026904" lon="9.46493971018596"><ele>809.0</ele><time>2026-04-30T14:16:21.837Z</time></trkpt><trkpt lat="39.92298239430626" lon="9.46479154335405"><ele>809.0</ele><time>2026-04-30T14:16:22.837Z</time></trkpt><trkpt lat="39.922899895192934" lon="9.464639344764429"><ele>809.0</ele><time>2026-04-30T14:16:23.837Z</time></trkpt><trkpt lat="39.92280295238729" lon="9.46450169663844"><ele>809.0</ele><time>2026-04-30T14:16:24.837Z</time></trkpt><trkpt lat="39.92268570787574" lon="9.464377398791573"><ele>809.0</ele><time>2026-04-30T14:16:25.837Z</time></trkpt><trkpt lat="39.92255059405695" lon="9.464266546107803"><ele>809.6666666666667</ele><time>2026-04-30T14:16:26.837Z</time></trkpt><trkpt lat="39.92241100317605" lon="9.464157151195918"><ele>810.3333333333333</ele><time>2026-04-30T14:16:27.837Z</time></trkpt><trkpt lat="39.92227287140972" lon="9.464038386532422"><ele>811.0</ele><time>2026-04-30T14:16:28.837Z</time></trkpt><trkpt lat="39.92212543398006" lon="9.463930952714781"><ele>811.0</ele><time>2026-04-30T14:16:29.837Z</time></trkpt><trkpt lat="39.921961139025406" lon="9.463855750472792"><ele>811.0</ele><time>2026-04-30T14:16:30.837Z</time></trkpt><trkpt lat="39.92179197382806" lon="9.463811926372648"><ele>811.0</ele><time>2026-04-30T14:16:31.837Z</time></trkpt><trkpt lat="39.92161813954793" lon="9.463786505407931"><ele>812.0</ele><time>2026-04-30T14:16:32.837Z</time></trkpt><trkpt lat="39.92144927285311" lon="9.463765824532743"><ele>813.0</ele><time>2026-04-30T14:16:33.837Z</time></trkpt><trkpt lat="39.92129457715409" lon="9.463737828097678"><ele>814.0</ele><time>2026-04-30T14:16:34.837Z</time></trkpt><trkpt lat="39.921151498033666" lon="9.463708321780029"><ele>814.0</ele><time>2026-04-30T14:16:35.837Z</time></trkpt><trkpt lat="39.92102127824755" lon="9.463684236314075"><ele>814.0</ele><time>2026-04-30T14:16:36.837Z</time></trkpt><trkpt lat="39.92089630022637" lon="9.463661669433149"><ele>814.0</ele><time>2026-04-30T14:16:37.837Z</time></trkpt><trkpt lat="39.92077487454949" lon="9.463645801583903"><ele>814.0</ele><time>2026-04-30T14:16:38.837Z</time></trkpt><trkpt lat="39.9206549177791" lon="9.463639505354747"><ele>813.5</ele><time>2026-04-30T14:16:39.837Z</time></trkpt><trkpt lat="39.92052820690623" lon="9.463643338076274"><ele>813.0</ele><time>2026-04-30T14:16:40.837Z</time></trkpt><trkpt lat="39.92040355728215" lon="9.463656836606537"><ele>812.5</ele><time>2026-04-30T14:16:41.837Z</time></trkpt><trkpt lat="39.92027992140732" lon="9.463671934977611"><ele>812.0</ele><time>2026-04-30T14:16:42.837Z</time></trkpt><trkpt lat="39.92015578369614" lon="9.463687363561673"><ele>813.25</ele><time>2026-04-30T14:16:43.837Z</time></trkpt><trkpt lat="39.92003084842283" lon="9.463700154063709"><ele>814.5</ele><time>2026-04-30T14:16:44.836Z</time></trkpt><trkpt lat="39.91991194446105" lon="9.463712470105248"><ele>815.75</ele><time>2026-04-30T14:16:45.836Z</time></trkpt><trkpt lat="39.91979025745128" lon="9.463725073428709"><ele>817.0</ele><time>2026-04-30T14:16:46.836Z</time></trkpt><trkpt lat="39.91966988566602" lon="9.46373685115607"><ele>817.0</ele><time>2026-04-30T14:16:47.836Z</time></trkpt><trkpt lat="39.9195440881815" lon="9.463746845010967"><ele>817.0</ele><time>2026-04-30T14:16:48.836Z</time></trkpt><trkpt lat="39.91941531898026" lon="9.46376095206454"><ele>817.0</ele><time>2026-04-30T14:16:49.836Z</time></trkpt><trkpt lat="39.91928273855856" lon="9.4637745334172"><ele>817.0</ele><time>2026-04-30T14:16:50.836Z</time></trkpt><trkpt lat="39.91914964219666" lon="9.463790520596925"><ele>816.75</ele><time>2026-04-30T14:16:51.836Z</time></trkpt><trkpt lat="39.91901609845768" lon="9.463808699085584"><ele>816.5</ele><time>2026-04-30T14:16:52.836Z</time></trkpt><trkpt lat="39.918880640882755" lon="9.463821556192837"><ele>816.25</ele><time>2026-04-30T14:16:53.836Z</time></trkpt><trkpt lat="39.91874640227114" lon="9.463829337827661"><ele>816.0</ele><time>2026-04-30T14:16:54.836Z</time></trkpt><trkpt lat="39.91860523806898" lon="9.463837657501404"><ele>816.0</ele><time>2026-04-30T14:16:55.836Z</time></trkpt><trkpt lat="39.91846807802322" lon="9.463834580991248"><ele>816.0</ele><time>2026-04-30T14:16:56.836Z</time></trkpt><trkpt lat="39.91833260481331" lon="9.463801962013068"><ele>816.0</ele><time>2026-04-30T14:16:57.836Z</time></trkpt><trkpt lat="39.918190981748" lon="9.463742915220356"><ele>816.0</ele><time>2026-04-30T14:16:58.836Z</time></trkpt><trkpt lat="39.91805703518456" lon="9.463657452543146"><ele>819.6666666666667</ele><time>2026-04-30T14:16:59.836Z</time></trkpt><trkpt lat="39.91792948988345" lon="9.46355296406056"><ele>823.3333333333334</ele><time>2026-04-30T14:17:00.836Z</time></trkpt><trkpt lat="39.91780127714412" lon="9.46343503763073"><ele>827.0</ele><time>2026-04-30T14:17:01.836Z</time></trkpt><trkpt lat="39.917671909516095" lon="9.463312578264631"><ele>824.6666666666667</ele><time>2026-04-30T14:17:02.836Z</time></trkpt><trkpt lat="39.91753144170176" lon="9.4631937253822"><ele>822.3333333333333</ele><time>2026-04-30T14:17:03.836Z</time></trkpt><trkpt lat="39.917375876393514" lon="9.46309744916241"><ele>820.0</ele><time>2026-04-30T14:17:04.836Z</time></trkpt><trkpt lat="39.91720588271679" lon="9.463022254236336"><ele>820.0</ele><time>2026-04-30T14:17:05.836Z</time></trkpt><trkpt lat="39.91702615057218" lon="9.462959797164926"><ele>820.0</ele><time>2026-04-30T14:17:06.836Z</time></trkpt><trkpt lat="39.91683653633104" lon="9.462899830351027"><ele>820.0</ele><time>2026-04-30T14:17:07.836Z</time></trkpt><trkpt lat="39.91664474454292" lon="9.462836981419278"><ele>820.6666666666666</ele><time>2026-04-30T14:17:08.836Z</time></trkpt><trkpt lat="39.91645495823529" lon="9.462775713072842"><ele>821.3333333333333</ele><time>2026-04-30T14:17:09.836Z</time></trkpt><trkpt lat="39.916265856234304" lon="9.462709138363554"><ele>822.0</ele><time>2026-04-30T14:17:10.836Z</time></trkpt><trkpt lat="39.916076303472416" lon="9.46264218215346"><ele>824.3333333333333</ele><time>2026-04-30T14:17:11.836Z</time></trkpt><trkpt lat="39.91588917129356" lon="9.462581659637378"><ele>826.6666666666666</ele><time>2026-04-30T14:17:12.835Z</time></trkpt><trkpt lat="39.91570768147612" lon="9.462524039583204"><ele>829.0</ele><time>2026-04-30T14:17:13.835Z</time></trkpt><trkpt lat="39.915521386331314" lon="9.462465747946244"><ele>829.0</ele><time>2026-04-30T14:17:14.835Z</time></trkpt><trkpt lat="39.91533710059444" lon="9.46240762961797"><ele>829.0</ele><time>2026-04-30T14:17:15.835Z</time></trkpt><trkpt lat="39.91515211410572" lon="9.462350596384155"><ele>829.0</ele><time>2026-04-30T14:17:16.835Z</time></trkpt><trkpt lat="39.91497038788749" lon="9.462294767863147"><ele>830.6666666666666</ele><time>2026-04-30T14:17:17.835Z</time></trkpt><trkpt lat="39.91478959749154" lon="9.462236852274655"><ele>832.3333333333333</ele><time>2026-04-30T14:17:18.835Z</time></trkpt><trkpt lat="39.91461009809735" lon="9.462173989530918"><ele>834.0</ele><time>2026-04-30T14:17:19.835Z</time></trkpt><trkpt lat="39.91442625415439" lon="9.462108908936356"><ele>833.3333333333333</ele><time>2026-04-30T14:17:20.835Z</time></trkpt><trkpt lat="39.91424008988271" lon="9.462042334745764"><ele>832.6666666666666</ele><time>2026-04-30T14:17:21.835Z</time></trkpt><trkpt lat="39.9140516744606" lon="9.461985979852678"><ele>832.0</ele><time>2026-04-30T14:17:22.835Z</time></trkpt><trkpt lat="39.91387758613307" lon="9.46193296810761"><ele>832.0</ele><time>2026-04-30T14:17:23.835Z</time></trkpt><trkpt lat="39.91371379959236" lon="9.461885918996394"><ele>832.0</ele><time>2026-04-30T14:17:24.835Z</time></trkpt><trkpt lat="39.913577991586784" lon="9.461845206240271"><ele>832.0</ele><time>2026-04-30T14:17:25.835Z</time></trkpt><trkpt lat="39.913473802064125" lon="9.461810381728002"><ele>832.0</ele><time>2026-04-30T14:17:26.835Z</time></trkpt><trkpt lat="39.913385432841025" lon="9.4617788830882"><ele>831.6666666666666</ele><time>2026-04-30T14:17:27.835Z</time></trkpt><trkpt lat="39.91330518108733" lon="9.46175229061772"><ele>831.3333333333333</ele><time>2026-04-30T14:17:28.835Z</time></trkpt><trkpt lat="39.913228482215146" lon="9.461727153339183"><ele>831.0</ele><time>2026-04-30T14:17:29.835Z</time></trkpt><trkpt lat="39.91315959533023" lon="9.46170218965617"><ele>830.6666666666667</ele><time>2026-04-30T14:17:30.835Z</time></trkpt><trkpt lat="39.91309193903557" lon="9.461680473306497"><ele>830.3333333333334</ele><time>2026-04-30T14:17:31.835Z</time></trkpt><trkpt lat="39.91301718462518" lon="9.461658114266333"><ele>830.0</ele><time>2026-04-30T14:17:32.835Z</time></trkpt><trkpt lat="39.91293694424189" lon="9.461631142268995"><ele>830.0</ele><time>2026-04-30T14:17:33.835Z</time></trkpt><trkpt lat="39.9128475367497" lon="9.461600587691054"><ele>830.0</ele><time>2026-04-30T14:17:34.835Z</time></trkpt><trkpt lat="39.9127555097456" lon="9.461568024740016"><ele>830.0</ele><time>2026-04-30T14:17:35.835Z</time></trkpt><trkpt lat="39.91266047140506" lon="9.461535926627016"><ele>830.0</ele><time>2026-04-30T14:17:36.835Z</time></trkpt><trkpt lat="39.912557471950166" lon="9.461506132320697"><ele>830.0</ele><time>2026-04-30T14:17:37.835Z</time></trkpt><trkpt lat="39.91244999598341" lon="9.461472747973769"><ele>831.25</ele><time>2026-04-30T14:17:38.835Z</time></trkpt><trkpt lat="39.912339228374954" lon="9.461438800561767"><ele>832.5</ele><time>2026-04-30T14:17:39.834Z</time></trkpt><trkpt lat="39.91222008711871" lon="9.461399112514002"><ele>833.75</ele><time>2026-04-30T14:17:40.834Z</time></trkpt><trkpt lat="39.91209517064231" lon="9.46135395581697"><ele>835.0</ele><time>2026-04-30T14:17:41.834Z</time></trkpt><trkpt lat="39.91196345771374" lon="9.461305485546005"><ele>837.6666666666666</ele><time>2026-04-30T14:17:42.834Z</time></trkpt><trkpt lat="39.91182288253375" lon="9.461264948559755"><ele>840.3333333333333</ele><time>2026-04-30T14:17:43.834Z</time></trkpt><trkpt lat="39.91166945788547" lon="9.461232398923912"><ele>843.0</ele><time>2026-04-30T14:17:44.834Z</time></trkpt><trkpt lat="39.9115089296618" lon="9.461210884699218"><ele>843.0</ele><time>2026-04-30T14:17:45.834Z</time></trkpt><trkpt lat="39.911334460022076" lon="9.461213410829725"><ele>843.0</ele><time>2026-04-30T14:17:46.835Z</time></trkpt><trkpt lat="39.911164140129046" lon="9.461213050726267"><ele>843.0</ele><time>2026-04-30T14:17:47.835Z</time></trkpt><trkpt lat="39.91099385281198" lon="9.461217838638815"><ele>841.3333333333333</ele><time>2026-04-30T14:17:48.835Z</time></trkpt><trkpt lat="39.91082350839779" lon="9.461224347694634"><ele>839.6666666666666</ele><time>2026-04-30T14:17:49.835Z</time></trkpt><trkpt lat="39.9106532722987" lon="9.4612254420993"><ele>838.0</ele><time>2026-04-30T14:17:50.835Z</time></trkpt><trkpt lat="39.91048230730718" lon="9.461231065162576"><ele>838.0</ele><time>2026-04-30T14:17:51.835Z</time></trkpt><trkpt lat="39.91031494530416" lon="9.461239781715875"><ele>838.0</ele><time>2026-04-30T14:17:52.835Z</time></trkpt><trkpt lat="39.91014200632757" lon="9.461239457528036"><ele>838.0</ele><time>2026-04-30T14:17:53.835Z</time></trkpt><trkpt lat="39.9099662752235" lon="9.461241622880506"><ele>836.6666666666666</ele><time>2026-04-30T14:17:54.835Z</time></trkpt><trkpt lat="39.90980046795996" lon="9.461245593860625"><ele>835.3333333333333</ele><time>2026-04-30T14:17:55.835Z</time></trkpt><trkpt lat="39.909640504922955" lon="9.461251974228032"><ele>834.0</ele><time>2026-04-30T14:17:56.835Z</time></trkpt><trkpt lat="39.909480262083605" lon="9.461257857348405"><ele>834.0</ele><time>2026-04-30T14:17:57.835Z</time></trkpt><trkpt lat="39.90932054260956" lon="9.461260257482651"><ele>834.0</ele><time>2026-04-30T14:17:58.834Z</time></trkpt><trkpt lat="39.909168582148865" lon="9.461265398327958"><ele>834.0</ele><time>2026-04-30T14:17:59.835Z</time></trkpt><trkpt lat="39.90902264284947" lon="9.46126737819898"><ele>833.25</ele><time>2026-04-30T14:18:00.835Z</time></trkpt><trkpt lat="39.90888174022779" lon="9.46126987488927"><ele>832.5</ele><time>2026-04-30T14:18:01.835Z</time></trkpt><trkpt lat="39.908739320110605" lon="9.461271885581949"><ele>831.75</ele><time>2026-04-30T14:18:02.835Z</time></trkpt><trkpt lat="39.90859299147336" lon="9.461274441913217"><ele>831.0</ele><time>2026-04-30T14:18:03.835Z</time></trkpt><trkpt lat="39.908443134987465" lon="9.461276446437566"><ele>831.6666666666667</ele><time>2026-04-30T14:18:04.835Z</time></trkpt><trkpt lat="39.90828837814487" lon="9.46127945443564"><ele>832.3333333333334</ele><time>2026-04-30T14:18:05.835Z</time></trkpt><trkpt lat="39.90813663537694" lon="9.461283546116801"><ele>833.0</ele><time>2026-04-30T14:18:06.835Z</time></trkpt><trkpt lat="39.90798454355846" lon="9.46128434762953"><ele>833.3333333333334</ele><time>2026-04-30T14:18:07.835Z</time></trkpt><trkpt lat="39.907836408680275" lon="9.461287989748191"><ele>833.6666666666667</ele><time>2026-04-30T14:18:08.834Z</time></trkpt><trkpt lat="39.90768506938217" lon="9.461290717140681"><ele>834.0</ele><time>2026-04-30T14:18:09.834Z</time></trkpt><trkpt lat="39.90753198382745" lon="9.461291138428455"><ele>834.5</ele><time>2026-04-30T14:18:10.834Z</time></trkpt><trkpt lat="39.90738546986081" lon="9.461297715018935"><ele>835.0</ele><time>2026-04-30T14:18:11.834Z</time></trkpt><trkpt lat="39.907242088477055" lon="9.461300851530634"><ele>835.5</ele><time>2026-04-30T14:18:12.834Z</time></trkpt><trkpt lat="39.907097252826176" lon="9.461307156870816"><ele>836.0</ele><time>2026-04-30T14:18:13.834Z</time></trkpt><trkpt lat="39.90695450946512" lon="9.461314161014988"><ele>836.0</ele><time>2026-04-30T14:18:14.834Z</time></trkpt><trkpt lat="39.90680780816189" lon="9.461317544907226"><ele>836.0</ele><time>2026-04-30T14:18:15.834Z</time></trkpt><trkpt lat="39.90665416849874" lon="9.461319835040324"><ele>836.0</ele><time>2026-04-30T14:18:16.834Z</time></trkpt><trkpt lat="39.90649946998561" lon="9.461322641440038"><ele>836.3333333333334</ele><time>2026-04-30T14:18:17.834Z</time></trkpt><trkpt lat="39.90634137657859" lon="9.461325186662574"><ele>836.6666666666667</ele><time>2026-04-30T14:18:18.834Z</time></trkpt><trkpt lat="39.906181258772534" lon="9.461324816248787"><ele>837.0</ele><time>2026-04-30T14:18:19.834Z</time></trkpt><trkpt lat="39.90602506179876" lon="9.461326497664617"><ele>836.6666666666667</ele><time>2026-04-30T14:18:20.834Z</time></trkpt><trkpt lat="39.90586267342013" lon="9.461332892889809"><ele>836.3333333333334</ele><time>2026-04-30T14:18:21.834Z</time></trkpt><trkpt lat="39.905695910779485" lon="9.46134595086104"><ele>836.0</ele><time>2026-04-30T14:18:22.834Z</time></trkpt><trkpt lat="39.9055310862543" lon="9.461350775653582"><ele>836.0</ele><time>2026-04-30T14:18:23.834Z</time></trkpt><trkpt lat="39.9053651072061" lon="9.46135176379675"><ele>836.0</ele><time>2026-04-30T14:18:24.834Z</time></trkpt><trkpt lat="39.90519566751966" lon="9.461353270997122"><ele>836.0</ele><time>2026-04-30T14:18:25.834Z</time></trkpt><trkpt lat="39.90502477177488" lon="9.461356989172131"><ele>836.6666666666667</ele><time>2026-04-30T14:18:26.834Z</time></trkpt><trkpt lat="39.90485060911329" lon="9.461361815173374"><ele>837.3333333333333</ele><time>2026-04-30T14:18:27.834Z</time></trkpt><trkpt lat="39.90467728800026" lon="9.461367094645198"><ele>838.0</ele><time>2026-04-30T14:18:28.834Z</time></trkpt><trkpt lat="39.904502238728405" lon="9.461371833188283"><ele>838.0</ele><time>2026-04-30T14:18:29.834Z</time></trkpt><trkpt lat="39.904326576513476" lon="9.461373153072447"><ele>838.0</ele><time>2026-04-30T14:18:30.834Z</time></trkpt><trkpt lat="39.90414869632668" lon="9.461378615251597"><ele>838.0</ele><time>2026-04-30T14:18:31.834Z</time></trkpt><trkpt lat="39.90396781937273" lon="9.461384286399651"><ele>838.6666666666666</ele><time>2026-04-30T14:18:32.834Z</time></trkpt><trkpt lat="39.90378901228672" lon="9.461390330572005"><ele>839.3333333333333</ele><time>2026-04-30T14:18:33.834Z</time></trkpt><trkpt lat="39.90360911542039" lon="9.461393549624614"><ele>840.0</ele><time>2026-04-30T14:18:34.834Z</time></trkpt><trkpt lat="39.90343168414376" lon="9.4613899361486"><ele>840.3333333333333</ele><time>2026-04-30T14:18:35.833Z</time></trkpt><trkpt lat="39.90325770537736" lon="9.461370090281646"><ele>840.6666666666666</ele><time>2026-04-30T14:18:36.833Z</time></trkpt><trkpt lat="39.903087304802646" lon="9.461327972564815"><ele>841.0</ele><time>2026-04-30T14:18:37.833Z</time></trkpt><trkpt lat="39.90291361946753" lon="9.461251999062586"><ele>842.6666666666666</ele><time>2026-04-30T14:18:38.833Z</time></trkpt><trkpt lat="39.90273764091731" lon="9.461167782583587"><ele>844.3333333333333</ele><time>2026-04-30T14:18:39.833Z</time></trkpt><trkpt lat="39.9025602715552" lon="9.461083277240718"><ele>846.0</ele><time>2026-04-30T14:18:40.833Z</time></trkpt><trkpt lat="39.90238306727701" lon="9.461004839166431"><ele>846.0</ele><time>2026-04-30T14:18:41.833Z</time></trkpt><trkpt lat="39.902201091036176" lon="9.460924311942733"><ele>846.0</ele><time>2026-04-30T14:18:42.833Z</time></trkpt><trkpt lat="39.90201716608925" lon="9.46084231167461"><ele>846.0</ele><time>2026-04-30T14:18:43.833Z</time></trkpt><trkpt lat="39.90183367831711" lon="9.460757886062359"><ele>846.3333333333333</ele><time>2026-04-30T14:18:44.833Z</time></trkpt><trkpt lat="39.901646081008444" lon="9.46067235012618"><ele>846.6666666666666</ele><time>2026-04-30T14:18:45.833Z</time></trkpt><trkpt lat="39.90146159789705" lon="9.460602496312287"><ele>847.0</ele><time>2026-04-30T14:18:46.833Z</time></trkpt><trkpt lat="39.90127048293142" lon="9.460556109213327"><ele>847.0</ele><time>2026-04-30T14:18:47.833Z</time></trkpt><trkpt lat="39.90107432285685" lon="9.460545526130606"><ele>847.0</ele><time>2026-04-30T14:18:48.833Z</time></trkpt><trkpt lat="39.90087688527627" lon="9.460566554198653"><ele>847.0</ele><time>2026-04-30T14:18:49.833Z</time></trkpt><trkpt lat="39.90067305712993" lon="9.460598789240507"><ele>848.3333333333333</ele><time>2026-04-30T14:18:50.833Z</time></trkpt><trkpt lat="39.9004656696687" lon="9.460627705488594"><ele>849.6666666666667</ele><time>2026-04-30T14:18:51.833Z</time></trkpt><trkpt lat="39.900257771866855" lon="9.460659314734503"><ele>851.0</ele><time>2026-04-30T14:18:52.833Z</time></trkpt><trkpt lat="39.90004263849897" lon="9.460689028630098"><ele>851.6666666666667</ele><time>2026-04-30T14:18:53.833Z</time></trkpt><trkpt lat="39.8998311668552" lon="9.460721315765724"><ele>852.3333333333333</ele><time>2026-04-30T14:18:54.833Z</time></trkpt><trkpt lat="39.899620804038044" lon="9.460754542139263"><ele>853.0</ele><time>2026-04-30T14:18:55.833Z</time></trkpt><trkpt lat="39.899408264753056" lon="9.460790974108034"><ele>855.0</ele><time>2026-04-30T14:18:56.833Z</time></trkpt><trkpt lat="39.899193259436174" lon="9.460829194486093"><ele>857.0</ele><time>2026-04-30T14:18:57.833Z</time></trkpt><trkpt lat="39.89897456980263" lon="9.460870135472135"><ele>859.0</ele><time>2026-04-30T14:18:58.833Z</time></trkpt><trkpt lat="39.898756642269184" lon="9.460915797056648"><ele>859.0</ele><time>2026-04-30T14:18:59.833Z</time></trkpt><trkpt lat="39.898525792820834" lon="9.46096935794258"><ele>859.0</ele><time>2026-04-30T14:19:00.833Z</time></trkpt><trkpt lat="39.89829521548635" lon="9.461030878840994"><ele>861.5</ele><time>2026-04-30T14:19:01.833Z</time></trkpt><trkpt lat="39.89806544215068" lon="9.461094372570463"><ele>864.0</ele><time>2026-04-30T14:19:02.833Z</time></trkpt><trkpt lat="39.89784089322394" lon="9.46115462004675"><ele>864.0</ele><time>2026-04-30T14:19:03.832Z</time></trkpt><trkpt lat="39.89762957215652" lon="9.461216303692822"><ele>864.0</ele><time>2026-04-30T14:19:04.832Z</time></trkpt><trkpt lat="39.89743135832677" lon="9.461301213481033"><ele>864.0</ele><time>2026-04-30T14:19:05.832Z</time></trkpt><trkpt lat="39.8972387337001" lon="9.461410871467967"><ele>863.3333333333333</ele><time>2026-04-30T14:19:06.832Z</time></trkpt><trkpt lat="39.89706691094956" lon="9.461555315919027"><ele>862.6666666666666</ele><time>2026-04-30T14:19:07.832Z</time></trkpt><trkpt lat="39.89690507640919" lon="9.461718787459741"><ele>862.0</ele><time>2026-04-30T14:19:08.832Z</time></trkpt><trkpt lat="39.896746663144974" lon="9.461886628875767"><ele>864.3333333333333</ele><time>2026-04-30T14:19:09.832Z</time></trkpt><trkpt lat="39.89658843907599" lon="9.462045941044659"><ele>866.6666666666667</ele><time>2026-04-30T14:19:10.832Z</time></trkpt><trkpt lat="39.89643227659122" lon="9.46219292448111"><ele>869.0</ele><time>2026-04-30T14:19:11.832Z</time></trkpt><trkpt lat="39.89628485921019" lon="9.46228576495563"><ele>869.0</ele><time>2026-04-30T14:19:12.832Z</time></trkpt><trkpt lat="39.89615679676479" lon="9.462308289413441"><ele>869.0</ele><time>2026-04-30T14:19:13.832Z</time></trkpt><trkpt lat="39.896038129415196" lon="9.46227272197561"><ele>869.0</ele><time>2026-04-30T14:19:14.832Z</time></trkpt><trkpt lat="39.895913487789045" lon="9.4621854028912"><ele>869.0</ele><time>2026-04-30T14:19:15.832Z</time></trkpt><trkpt lat="39.8957902377957" lon="9.462059166977228"><ele>872.3333333333334</ele><time>2026-04-30T14:19:16.832Z</time></trkpt><trkpt lat="39.89566027051754" lon="9.461934887170544"><ele>875.6666666666667</ele><time>2026-04-30T14:19:17.832Z</time></trkpt><trkpt lat="39.89553066794946" lon="9.46180849707856"><ele>879.0</ele><time>2026-04-30T14:19:18.832Z</time></trkpt><trkpt lat="39.895404953438685" lon="9.461674596804512"><ele>879.0</ele><time>2026-04-30T14:19:19.832Z</time></trkpt><trkpt lat="39.89529384760057" lon="9.461545726252997"><ele>879.0</ele><time>2026-04-30T14:19:20.832Z</time></trkpt><trkpt lat="39.8952278529431" lon="9.46140067874962"><ele>879.0</ele><time>2026-04-30T14:19:21.832Z</time></trkpt><trkpt lat="39.89522668767503" lon="9.461257541737357"><ele>879.0</ele><time>2026-04-30T14:19:22.832Z</time></trkpt><trkpt lat="39.895285369158145" lon="9.461117129144178"><ele>883.3333333333333</ele><time>2026-04-30T14:19:23.832Z</time></trkpt><trkpt lat="39.89535344922213" lon="9.460971747660453"><ele>887.6666666666666</ele><time>2026-04-30T14:19:24.832Z</time></trkpt><trkpt lat="39.89542812954469" lon="9.460793163746327"><ele>892.0</ele><time>2026-04-30T14:19:25.832Z</time></trkpt><trkpt lat="39.89549308267507" lon="9.46058793617112"><ele>892.3333333333333</ele><time>2026-04-30T14:19:26.832Z</time></trkpt><trkpt lat="39.89555036645355" lon="9.460358901071567"><ele>892.6666666666667</ele><time>2026-04-30T14:19:27.832Z</time></trkpt><trkpt lat="39.89560105336526" lon="9.460126379597273"><ele>893.0</ele><time>2026-04-30T14:19:28.832Z</time></trkpt><trkpt lat="39.89566273280097" lon="9.459896415274947"><ele>893.0</ele><time>2026-04-30T14:19:29.832Z</time></trkpt><trkpt lat="39.89572792534999" lon="9.459691018281598"><ele>893.0</ele><time>2026-04-30T14:19:30.831Z</time></trkpt><trkpt lat="39.8958040458685" lon="9.459504816391375"><ele>893.0</ele><time>2026-04-30T14:19:31.831Z</time></trkpt><trkpt lat="39.89590860793971" lon="9.459335923779538"><ele>895.3333333333334</ele><time>2026-04-30T14:19:32.831Z</time></trkpt><trkpt lat="39.89603906314901" lon="9.459185860479971"><ele>897.6666666666667</ele><time>2026-04-30T14:19:33.831Z</time></trkpt><trkpt lat="39.896161408401206" lon="9.459047020747887"><ele>900.0</ele><time>2026-04-30T14:19:34.831Z</time></trkpt><trkpt lat="39.8962484863115" lon="9.458900861682553"><ele>901.5</ele><time>2026-04-30T14:19:35.831Z</time></trkpt><trkpt lat="39.896295146812506" lon="9.458755777251087"><ele>903.0</ele><time>2026-04-30T14:19:36.831Z</time></trkpt><trkpt lat="39.896294263068704" lon="9.45861740872444"><ele>904.5</ele><time>2026-04-30T14:19:37.831Z</time></trkpt><trkpt lat="39.896248774898815" lon="9.458482835669898"><ele>906.0</ele><time>2026-04-30T14:19:38.831Z</time></trkpt><trkpt lat="39.89615886688027" lon="9.458369894605449"><ele>906.0</ele><time>2026-04-30T14:19:39.831Z</time></trkpt><trkpt lat="39.89604779221084" lon="9.458271219265546"><ele>906.0</ele><time>2026-04-30T14:19:40.831Z</time></trkpt><trkpt lat="39.89591874148134" lon="9.458190173010781"><ele>906.0</ele><time>2026-04-30T14:19:41.831Z</time></trkpt><trkpt lat="39.8958055935179" lon="9.458103204551696"><ele>906.0</ele><time>2026-04-30T14:19:42.831Z</time></trkpt><trkpt lat="39.895717686567664" lon="9.45799859793216"><ele>904.25</ele><time>2026-04-30T14:19:43.831Z</time></trkpt><trkpt lat="39.895656645778786" lon="9.457857976186279"><ele>902.5</ele><time>2026-04-30T14:19:44.831Z</time></trkpt><trkpt lat="39.89561643916253" lon="9.457701094322328"><ele>900.75</ele><time>2026-04-30T14:19:45.831Z</time></trkpt><trkpt lat="39.895575641644605" lon="9.45757175621053"><ele>899.0</ele><time>2026-04-30T14:19:46.831Z</time></trkpt><trkpt lat="39.89550173050578" lon="9.457488127243955"><ele>899.0</ele><time>2026-04-30T14:19:47.831Z</time></trkpt><trkpt lat="39.89539374960826" lon="9.457452567017004"><ele>899.0</ele><time>2026-04-30T14:19:48.831Z</time></trkpt><trkpt lat="39.895262148458364" lon="9.45745627130928"><ele>899.0</ele><time>2026-04-30T14:19:49.831Z</time></trkpt><trkpt lat="39.895112952764556" lon="9.457505840802579"><ele>899.0</ele><time>2026-04-30T14:19:50.831Z</time></trkpt><trkpt lat="39.894947080552825" lon="9.457533962925744"><ele>897.0</ele><time>2026-04-30T14:19:51.831Z</time></trkpt><trkpt lat="39.894793784258944" lon="9.457544256796943"><ele>895.0</ele><time>2026-04-30T14:19:52.832Z</time></trkpt><trkpt lat="39.89465620524987" lon="9.457529913780904"><ele>893.0</ele><time>2026-04-30T14:19:53.832Z</time></trkpt><trkpt lat="39.894531250251156" lon="9.45749244698315"><ele>891.0</ele><time>2026-04-30T14:19:54.832Z</time></trkpt><trkpt lat="39.89441996494072" lon="9.457423306153547"><ele>891.0</ele><time>2026-04-30T14:19:55.832Z</time></trkpt><trkpt lat="39.89433946964046" lon="9.457320888343999"><ele>891.0</ele><time>2026-04-30T14:19:56.832Z</time></trkpt><trkpt lat="39.89430284014528" lon="9.457181274497264"><ele>891.0</ele><time>2026-04-30T14:19:57.832Z</time></trkpt><trkpt lat="39.89428920594131" lon="9.457007627527389"><ele>891.0</ele><time>2026-04-30T14:19:58.832Z</time></trkpt><trkpt lat="39.89429106007765" lon="9.45681696023127"><ele>891.6666666666667</ele><time>2026-04-30T14:19:59.832Z</time></trkpt><trkpt lat="39.89430686799027" lon="9.456609694284907"><ele>892.3333333333334</ele><time>2026-04-30T14:20:00.832Z</time></trkpt><trkpt lat="39.89434667032584" lon="9.456413683227739"><ele>893.0</ele><time>2026-04-30T14:20:01.832Z</time></trkpt><trkpt lat="39.894425153472554" lon="9.456249916984882"><ele>893.0</ele><time>2026-04-30T14:20:02.832Z</time></trkpt><trkpt lat="39.8945370382669" lon="9.456122233714794"><ele>893.0</ele><time>2026-04-30T14:20:03.832Z</time></trkpt><trkpt lat="39.894662218373455" lon="9.456014164932782"><ele>893.0</ele><time>2026-04-30T14:20:04.832Z</time></trkpt><trkpt lat="39.894783689712824" lon="9.455889375041515"><ele>893.0</ele><time>2026-04-30T14:20:05.832Z</time></trkpt><trkpt lat="39.8948977186589" lon="9.455753925593758"><ele>893.0</ele><time>2026-04-30T14:20:06.832Z</time></trkpt><trkpt lat="39.89499573833543" lon="9.455609618745807"><ele>893.0</ele><time>2026-04-30T14:20:07.832Z</time></trkpt><trkpt lat="39.895051597142206" lon="9.455454000019566"><ele>893.0</ele><time>2026-04-30T14:20:08.832Z</time></trkpt><trkpt lat="39.89506180258569" lon="9.45528991532593"><ele>893.0</ele><time>2026-04-30T14:20:09.832Z</time></trkpt><trkpt lat="39.895018037285226" lon="9.455123487685578"><ele>893.0</ele><time>2026-04-30T14:20:10.832Z</time></trkpt><trkpt lat="39.89493039072172" lon="9.45497471711655"><ele>893.0</ele><time>2026-04-30T14:20:11.832Z</time></trkpt><trkpt lat="39.89481514875298" lon="9.4548392884116"><ele>893.0</ele><time>2026-04-30T14:20:12.832Z</time></trkpt><trkpt lat="39.894698929800114" lon="9.454708153039475"><ele>894.0</ele><time>2026-04-30T14:20:13.832Z</time></trkpt><trkpt lat="39.89460831012009" lon="9.454565540536228"><ele>895.0</ele><time>2026-04-30T14:20:14.832Z</time></trkpt><trkpt lat="39.89454371679632" lon="9.454420695209125"><ele>896.0</ele><time>2026-04-30T14:20:15.832Z</time></trkpt><trkpt lat="39.89452076715122" lon="9.454270608191244"><ele>897.0</ele><time>2026-04-30T14:20:16.832Z</time></trkpt><trkpt lat="39.894537033478265" lon="9.454124614957003"><ele>897.0</ele><time>2026-04-30T14:20:17.832Z</time></trkpt><trkpt lat="39.89459800921786" lon="9.453993514628015"><ele>897.0</ele><time>2026-04-30T14:20:18.832Z</time></trkpt><trkpt lat="39.89470318328386" lon="9.453881569726759"><ele>897.0</ele><time>2026-04-30T14:20:19.831Z</time></trkpt><trkpt lat="39.894837485714035" lon="9.45379156786777"><ele>897.0</ele><time>2026-04-30T14:20:20.831Z</time></trkpt><trkpt lat="39.894988573231856" lon="9.453728987419941"><ele>898.6666666666667</ele><time>2026-04-30T14:20:21.831Z</time></trkpt><trkpt lat="39.89515210248235" lon="9.453682449867227"><ele>900.3333333333334</ele><time>2026-04-30T14:20:22.831Z</time></trkpt><trkpt lat="39.89532688406165" lon="9.453641908081435"><ele>902.0</ele><time>2026-04-30T14:20:23.831Z</time></trkpt><trkpt lat="39.895496812764186" lon="9.453603288593856"><ele>902.0</ele><time>2026-04-30T14:20:24.831Z</time></trkpt><trkpt lat="39.89563616080096" lon="9.45354503050102"><ele>902.0</ele><time>2026-04-30T14:20:25.831Z</time></trkpt><trkpt lat="39.89575894736195" lon="9.453465481666933"><ele>902.0</ele><time>2026-04-30T14:20:26.831Z</time></trkpt><trkpt lat="39.89585756904361" lon="9.453354858068476"><ele>902.0</ele><time>2026-04-30T14:20:27.831Z</time></trkpt><trkpt lat="39.89591610444256" lon="9.453216283210487"><ele>903.75</ele><time>2026-04-30T14:20:28.831Z</time></trkpt><trkpt lat="39.89593157712447" lon="9.453065818338896"><ele>905.5</ele><time>2026-04-30T14:20:29.831Z</time></trkpt><trkpt lat="39.89588698121678" lon="9.452923661142778"><ele>907.25</ele><time>2026-04-30T14:20:30.831Z</time></trkpt><trkpt lat="39.8958073099428" lon="9.452800347244299"><ele>909.0</ele><time>2026-04-30T14:20:31.831Z</time></trkpt><trkpt lat="39.89569670895698" lon="9.452700339311285"><ele>909.0</ele><time>2026-04-30T14:20:32.831Z</time></trkpt><trkpt lat="39.89556520064402" lon="9.452619826193747"><ele>909.0</ele><time>2026-04-30T14:20:33.831Z</time></trkpt><trkpt lat="39.89543480342335" lon="9.452541371904058"><ele>909.0</ele><time>2026-04-30T14:20:34.831Z</time></trkpt><trkpt lat="39.89531216809905" lon="9.45246259470114"><ele>909.0</ele><time>2026-04-30T14:20:35.831Z</time></trkpt><trkpt lat="39.89518825944296" lon="9.45237441861281"><ele>908.75</ele><time>2026-04-30T14:20:36.831Z</time></trkpt><trkpt lat="39.895070954133935" lon="9.452281913623853"><ele>908.5</ele><time>2026-04-30T14:20:37.831Z</time></trkpt><trkpt lat="39.89496420896202" lon="9.45217386485537"><ele>908.25</ele><time>2026-04-30T14:20:38.831Z</time></trkpt><trkpt lat="39.89487335594228" lon="9.452046215559685"><ele>908.0</ele><time>2026-04-30T14:20:39.831Z</time></trkpt><trkpt lat="39.89480020650126" lon="9.451891918800781"><ele>908.0</ele><time>2026-04-30T14:20:40.831Z</time></trkpt><trkpt lat="39.8947569338982" lon="9.451736502524275"><ele>908.0</ele><time>2026-04-30T14:20:41.831Z</time></trkpt><trkpt lat="39.89473687620913" lon="9.45156939399192"><ele>908.0</ele><time>2026-04-30T14:20:42.831Z</time></trkpt><trkpt lat="39.89475770424817" lon="9.451383639725469"><ele>908.0</ele><time>2026-04-30T14:20:43.831Z</time></trkpt><trkpt lat="39.89479101110157" lon="9.451172413107903"><ele>910.3333333333334</ele><time>2026-04-30T14:20:44.831Z</time></trkpt><trkpt lat="39.894823618142404" lon="9.450947906364288"><ele>912.6666666666667</ele><time>2026-04-30T14:20:45.831Z</time></trkpt><trkpt lat="39.894861126613904" lon="9.450727386931646"><ele>915.0</ele><time>2026-04-30T14:20:46.831Z</time></trkpt><trkpt lat="39.89489663171042" lon="9.450521888531018"><ele>913.3333333333333</ele><time>2026-04-30T14:20:47.83Z</time></trkpt><trkpt lat="39.894931100818845" lon="9.450309563468492"><ele>911.6666666666666</ele><time>2026-04-30T14:20:48.83Z</time></trkpt><trkpt lat="39.89497336294287" lon="9.450107372667127"><ele>910.0</ele><time>2026-04-30T14:20:49.83Z</time></trkpt><trkpt lat="39.89502921453816" lon="9.449905608112639"><ele>915.6666666666666</ele><time>2026-04-30T14:20:50.83Z</time></trkpt><trkpt lat="39.89510187962888" lon="9.449708776210256"><ele>921.3333333333333</ele><time>2026-04-30T14:20:51.831Z</time></trkpt><trkpt lat="39.89519016721484" lon="9.449528628594772"><ele>927.0</ele><time>2026-04-30T14:20:52.832Z</time></trkpt><trkpt lat="39.895292214500074" lon="9.449352243084503"><ele>927.0</ele><time>2026-04-30T14:20:53.833Z</time></trkpt><trkpt lat="39.895396728134116" lon="9.449170678507315"><ele>927.0</ele><time>2026-04-30T14:20:54.833Z</time></trkpt><trkpt lat="39.89551042652074" lon="9.448986467083813"><ele>927.0</ele><time>2026-04-30T14:20:55.834Z</time></trkpt><trkpt lat="39.89561997501615" lon="9.448795907696166"><ele>923.0</ele><time>2026-04-30T14:20:56.835Z</time></trkpt><trkpt lat="39.89572631756493" lon="9.448600989533464"><ele>919.0</ele><time>2026-04-30T14:20:57.836Z</time></trkpt><trkpt lat="39.89582061665072" lon="9.44841102018562"><ele>915.0</ele><time>2026-04-30T14:20:58.836Z</time></trkpt><trkpt lat="39.895898144897316" lon="9.448212107252887"><ele>924.6666666666667</ele><time>2026-04-30T14:20:59.837Z</time></trkpt><trkpt lat="39.89594432606772" lon="9.447988998079621"><ele>934.3333333333334</ele><time>2026-04-30T14:21:00.837Z</time></trkpt><trkpt lat="39.895962135988746" lon="9.447750527434753"><ele>944.0</ele><time>2026-04-30T14:21:01.838Z</time></trkpt><trkpt lat="39.895953930851576" lon="9.447506573934108"><ele>944.6666666666667</ele><time>2026-04-30T14:21:02.838Z</time></trkpt><trkpt lat="39.89594729883558" lon="9.447248469985956"><ele>945.3333333333333</ele><time>2026-04-30T14:21:03.839Z</time></trkpt><trkpt lat="39.895950481506745" lon="9.446989991827786"><ele>946.0</ele><time>2026-04-30T14:21:04.839Z</time></trkpt><trkpt lat="39.895954815849244" lon="9.446725036151593"><ele>946.6666666666666</ele><time>2026-04-30T14:21:05.84Z</time></trkpt><trkpt lat="39.89595802333214" lon="9.446456027100275"><ele>947.3333333333333</ele><time>2026-04-30T14:21:06.84Z</time></trkpt><trkpt lat="39.895964217938634" lon="9.446191938827114"><ele>948.0</ele><time>2026-04-30T14:21:07.84Z</time></trkpt><trkpt lat="39.8959729580331" lon="9.445941431777667"><ele>946.6666666666667</ele><time>2026-04-30T14:21:08.841Z</time></trkpt><trkpt lat="39.89599432478091" lon="9.44571461012465"><ele>945.3333333333334</ele><time>2026-04-30T14:21:09.841Z</time></trkpt><trkpt lat="39.89604523709931" lon="9.445494503596931"><ele>944.0</ele><time>2026-04-30T14:21:10.841Z</time></trkpt><trkpt lat="39.896128431058926" lon="9.445311720775086"><ele>944.0</ele><time>2026-04-30T14:21:11.841Z</time></trkpt><trkpt lat="39.8962410183759" lon="9.445152810241641"><ele>944.0</ele><time>2026-04-30T14:21:12.842Z</time></trkpt><trkpt lat="39.896369169655436" lon="9.444993549655296"><ele>944.0</ele><time>2026-04-30T14:21:13.842Z</time></trkpt><trkpt lat="39.89649007740457" lon="9.444806973310428"><ele>949.0</ele><time>2026-04-30T14:21:14.842Z</time></trkpt><trkpt lat="39.89659825795225" lon="9.444603852130287"><ele>954.0</ele><time>2026-04-30T14:21:15.842Z</time></trkpt><trkpt lat="39.89669481452818" lon="9.444389824100798"><ele>959.0</ele><time>2026-04-30T14:21:16.843Z</time></trkpt><trkpt lat="39.896789990311866" lon="9.444170127171185"><ele>959.0</ele><time>2026-04-30T14:21:17.843Z</time></trkpt><trkpt lat="39.89688997608565" lon="9.443960091446531"><ele>959.0</ele><time>2026-04-30T14:21:18.843Z</time></trkpt><trkpt lat="39.897000918721815" lon="9.443753273270627"><ele>959.0</ele><time>2026-04-30T14:21:19.843Z</time></trkpt><trkpt lat="39.897118760298845" lon="9.443564176133382"><ele>953.0</ele><time>2026-04-30T14:21:20.843Z</time></trkpt><trkpt lat="39.897232229400274" lon="9.443380082252606"><ele>947.0</ele><time>2026-04-30T14:21:21.843Z</time></trkpt><trkpt lat="39.897348363889456" lon="9.443201854898465"><ele>941.0</ele><time>2026-04-30T14:21:22.843Z</time></trkpt><trkpt lat="39.89746565659428" lon="9.443040687483593"><ele>937.3333333333334</ele><time>2026-04-30T14:21:23.843Z</time></trkpt><trkpt lat="39.89757773500545" lon="9.442883506823978"><ele>933.6666666666667</ele><time>2026-04-30T14:21:24.844Z</time></trkpt><trkpt lat="39.89769091231194" lon="9.442740277849824"><ele>930.0</ele><time>2026-04-30T14:21:25.844Z</time></trkpt><trkpt lat="39.897809678007306" lon="9.442603427788095"><ele>939.0</ele><time>2026-04-30T14:21:26.844Z</time></trkpt><trkpt lat="39.89792204166952" lon="9.442469847850663"><ele>948.0</ele><time>2026-04-30T14:21:27.844Z</time></trkpt><trkpt lat="39.898034726717256" lon="9.442336221129272"><ele>957.0</ele><time>2026-04-30T14:21:28.844Z</time></trkpt><trkpt lat="39.898142441883714" lon="9.442204406228162"><ele>953.0</ele><time>2026-04-30T14:21:29.844Z</time></trkpt><trkpt lat="39.898265593232495" lon="9.442065865402016"><ele>949.0</ele><time>2026-04-30T14:21:30.844Z</time></trkpt><trkpt lat="39.89838515082623" lon="9.441926202830075"><ele>945.0</ele><time>2026-04-30T14:21:31.844Z</time></trkpt><trkpt lat="39.89849140893216" lon="9.441783075647225"><ele>955.6666666666667</ele><time>2026-04-30T14:21:32.844Z</time></trkpt><trkpt lat="39.898575341434764" lon="9.441620639349471"><ele>966.3333333333334</ele><time>2026-04-30T14:21:33.844Z</time></trkpt><trkpt lat="39.898621692343355" lon="9.441425250805029"><ele>977.0</ele><time>2026-04-30T14:21:34.844Z</time></trkpt><trkpt lat="39.89863119746023" lon="9.441207067651447"><ele>977.0</ele><time>2026-04-30T14:21:35.844Z</time></trkpt><trkpt lat="39.898638831576044" lon="9.440985247545962"><ele>977.0</ele><time>2026-04-30T14:21:36.844Z</time></trkpt><trkpt lat="39.89866021948828" lon="9.440765006569194"><ele>977.0</ele><time>2026-04-30T14:21:37.844Z</time></trkpt><trkpt lat="39.898699426664336" lon="9.440543543607415"><ele>974.6666666666667</ele><time>2026-04-30T14:21:38.844Z</time></trkpt><trkpt lat="39.8987500521268" lon="9.440338517411815"><ele>972.3333333333333</ele><time>2026-04-30T14:21:39.844Z</time></trkpt><trkpt lat="39.89879648194633" lon="9.440140915352124"><ele>970.0</ele><time>2026-04-30T14:21:40.844Z</time></trkpt><trkpt lat="39.898839381669504" lon="9.439941860536747"><ele>970.0</ele><time>2026-04-30T14:21:41.844Z</time></trkpt><trkpt lat="39.89889488818891" lon="9.439753821499892"><ele>970.0</ele><time>2026-04-30T14:21:42.844Z</time></trkpt><trkpt lat="39.89897233147004" lon="9.439575150751896"><ele>970.0</ele><time>2026-04-30T14:21:43.844Z</time></trkpt><trkpt lat="39.89909240287463" lon="9.439442991365974"><ele>966.3333333333333</ele><time>2026-04-30T14:21:44.844Z</time></trkpt><trkpt lat="39.89919812826441" lon="9.439290616807352"><ele>962.6666666666667</ele><time>2026-04-30T14:21:45.844Z</time></trkpt><trkpt lat="39.89930768340598" lon="9.43913793196033"><ele>959.0</ele><time>2026-04-30T14:21:46.844Z</time></trkpt><trkpt lat="39.899421913846695" lon="9.438980744722905"><ele>964.6666666666667</ele><time>2026-04-30T14:21:47.844Z</time></trkpt><trkpt lat="39.89953450687151" lon="9.438821490955641"><ele>970.3333333333333</ele><time>2026-04-30T14:21:48.844Z</time></trkpt><trkpt lat="39.89964180217531" lon="9.43865705775192"><ele>976.0</ele><time>2026-04-30T14:21:49.844Z</time></trkpt><trkpt lat="39.89974339443435" lon="9.438487993927804"><ele>976.0</ele><time>2026-04-30T14:21:50.844Z</time></trkpt><trkpt lat="39.899837276021955" lon="9.438320305842447"><ele>976.0</ele><time>2026-04-30T14:21:51.844Z</time></trkpt><trkpt lat="39.89992604283056" lon="9.438150567194052"><ele>976.0</ele><time>2026-04-30T14:21:52.844Z</time></trkpt><trkpt lat="39.90000000945939" lon="9.43796953146562"><ele>975.0</ele><time>2026-04-30T14:21:53.844Z</time></trkpt><trkpt lat="39.90008048826923" lon="9.437805660655588"><ele>974.0</ele><time>2026-04-30T14:21:54.844Z</time></trkpt><trkpt lat="39.90015675904894" lon="9.43764062612317"><ele>973.0</ele><time>2026-04-30T14:21:55.844Z</time></trkpt><trkpt lat="39.90022573589788" lon="9.43749363782932"><ele>972.0</ele><time>2026-04-30T14:21:56.844Z</time></trkpt><trkpt lat="39.9002882291807" lon="9.437356646106789"><ele>973.8</ele><time>2026-04-30T14:21:57.844Z</time></trkpt><trkpt lat="39.900330772557915" lon="9.43722515707285"><ele>975.6</ele><time>2026-04-30T14:21:58.845Z</time></trkpt><trkpt lat="39.900348064780516" lon="9.437086790887085"><ele>977.3999999999999</ele><time>2026-04-30T14:21:59.845Z</time></trkpt><trkpt lat="39.90034300704603" lon="9.43694537712088"><ele>979.1999999999999</ele><time>2026-04-30T14:22:00.845Z</time></trkpt><trkpt lat="39.90031835815467" lon="9.436802378033377"><ele>981.0</ele><time>2026-04-30T14:22:01.846Z</time></trkpt><trkpt lat="39.9002763870022" lon="9.436659614983"><ele>979.5</ele><time>2026-04-30T14:22:02.845Z</time></trkpt><trkpt lat="39.900219458351984" lon="9.436518556336937"><ele>978.0</ele><time>2026-04-30T14:22:03.845Z</time></trkpt><trkpt lat="39.9001373398671" lon="9.436381000496182"><ele>976.5</ele><time>2026-04-30T14:22:04.846Z</time></trkpt><trkpt lat="39.9000420527064" lon="9.436237280171532"><ele>975.0</ele><time>2026-04-30T14:22:05.845Z</time></trkpt><trkpt lat="39.899943075082675" lon="9.436095000050907"><ele>975.0</ele><time>2026-04-30T14:22:06.845Z</time></trkpt><trkpt lat="39.899846558739576" lon="9.435950405806778"><ele>975.0</ele><time>2026-04-30T14:22:07.845Z</time></trkpt><trkpt lat="39.899750927035385" lon="9.435811471155525"><ele>975.0</ele><time>2026-04-30T14:22:08.845Z</time></trkpt><trkpt lat="39.89964239428596" lon="9.435694033229776"><ele>975.0</ele><time>2026-04-30T14:22:09.845Z</time></trkpt><trkpt lat="39.899519890366356" lon="9.435602738425816"><ele>975.0</ele><time>2026-04-30T14:22:10.845Z</time></trkpt><trkpt lat="39.89939157870887" lon="9.435516599774413"><ele>975.0</ele><time>2026-04-30T14:22:11.845Z</time></trkpt><trkpt lat="39.89926519524256" lon="9.435419140616963"><ele>975.0</ele><time>2026-04-30T14:22:12.845Z</time></trkpt><trkpt lat="39.89914816270377" lon="9.43528434376334"><ele>975.0</ele><time>2026-04-30T14:22:13.845Z</time></trkpt><trkpt lat="39.89903895112508" lon="9.435133297714188"><ele>976.3333333333333</ele><time>2026-04-30T14:22:14.845Z</time></trkpt><trkpt lat="39.89892481148245" lon="9.43500164719414"><ele>977.6666666666666</ele><time>2026-04-30T14:22:15.845Z</time></trkpt><trkpt lat="39.89879096375113" lon="9.434884183771485"><ele>979.0</ele><time>2026-04-30T14:22:16.845Z</time></trkpt><trkpt lat="39.89864508458889" lon="9.43477912977251"><ele>979.0</ele><time>2026-04-30T14:22:17.845Z</time></trkpt><trkpt lat="39.898509855934996" lon="9.434680710743931"><ele>979.0</ele><time>2026-04-30T14:22:18.845Z</time></trkpt><trkpt lat="39.89839124558229" lon="9.434583170246244"><ele>979.0</ele><time>2026-04-30T14:22:19.845Z</time></trkpt><trkpt lat="39.89830547076815" lon="9.434466336681972"><ele>979.0</ele><time>2026-04-30T14:22:20.845Z</time></trkpt><trkpt lat="39.89825510995059" lon="9.434318670402723"><ele>980.0</ele><time>2026-04-30T14:22:21.845Z</time></trkpt><trkpt lat="39.8982178702809" lon="9.434153168932761"><ele>981.0</ele><time>2026-04-30T14:22:22.845Z</time></trkpt><trkpt lat="39.89817481245805" lon="9.433989663603413"><ele>982.0</ele><time>2026-04-30T14:22:23.845Z</time></trkpt><trkpt lat="39.89811758047938" lon="9.433821150888976"><ele>983.0</ele><time>2026-04-30T14:22:24.845Z</time></trkpt><trkpt lat="39.898046554708756" lon="9.433657086074389"><ele>983.0</ele><time>2026-04-30T14:22:25.845Z</time></trkpt><trkpt lat="39.897956681029754" lon="9.43349902562608"><ele>983.0</ele><time>2026-04-30T14:22:26.844Z</time></trkpt><trkpt lat="39.897856590905405" lon="9.433338703825846"><ele>983.0</ele><time>2026-04-30T14:22:27.844Z</time></trkpt><trkpt lat="39.89775518922753" lon="9.433164791972278"><ele>983.0</ele><time>2026-04-30T14:22:28.844Z</time></trkpt><trkpt lat="39.897651298137056" lon="9.43298552159478"><ele>983.0</ele><time>2026-04-30T14:22:29.844Z</time></trkpt><trkpt lat="39.89755187046937" lon="9.43281476976514"><ele>983.0</ele><time>2026-04-30T14:22:30.844Z</time></trkpt><trkpt lat="39.8974502885025" lon="9.432657725671376"><ele>987.0</ele><time>2026-04-30T14:22:31.844Z</time></trkpt><trkpt lat="39.897338241181" lon="9.43251001646429"><ele>991.0</ele><time>2026-04-30T14:22:32.844Z</time></trkpt><trkpt lat="39.897214343432" lon="9.432378631873437"><ele>995.0</ele><time>2026-04-30T14:22:33.844Z</time></trkpt><trkpt lat="39.89708644047337" lon="9.43226824287601"><ele>995.0</ele><time>2026-04-30T14:22:34.844Z</time></trkpt><trkpt lat="39.896958404863895" lon="9.43218198631998"><ele>995.0</ele><time>2026-04-30T14:22:35.844Z</time></trkpt><trkpt lat="39.896840697902135" lon="9.432143631404374"><ele>995.0</ele><time>2026-04-30T14:22:36.844Z</time></trkpt><trkpt lat="39.89673203344061" lon="9.432151528648728"><ele>995.0</ele><time>2026-04-30T14:22:37.844Z</time></trkpt><trkpt lat="39.896624568681354" lon="9.432210272569133"><ele>998.5</ele><time>2026-04-30T14:22:38.844Z</time></trkpt><trkpt lat="39.89653150258915" lon="9.432316423930711"><ele>1002.0</ele><time>2026-04-30T14:22:39.844Z</time></trkpt><trkpt lat="39.89646338499563" lon="9.43246637388904"><ele>1005.5</ele><time>2026-04-30T14:22:40.844Z</time></trkpt><trkpt lat="39.896421773783736" lon="9.432644379441388"><ele>1009.0</ele><time>2026-04-30T14:22:41.844Z</time></trkpt><trkpt lat="39.89638737919504" lon="9.432831384210354"><ele>1014.0</ele><time>2026-04-30T14:22:42.844Z</time></trkpt><trkpt lat="39.89633461413853" lon="9.433023788759556"><ele>1019.0</ele><time>2026-04-30T14:22:43.844Z</time></trkpt><trkpt lat="39.89625250235004" lon="9.433226190434397"><ele>1024.0</ele><time>2026-04-30T14:22:44.844Z</time></trkpt><trkpt lat="39.896160569445705" lon="9.433442675053556"><ele>1024.0</ele><time>2026-04-30T14:22:45.844Z</time></trkpt><trkpt lat="39.896064222790216" lon="9.433665989260437"><ele>1024.0</ele><time>2026-04-30T14:22:46.844Z</time></trkpt><trkpt lat="39.8959634597262" lon="9.433900764714329"><ele>1024.0</ele><time>2026-04-30T14:22:47.844Z</time></trkpt><trkpt lat="39.895862939737164" lon="9.434118209032517"><ele>1023.0</ele><time>2026-04-30T14:22:48.844Z</time></trkpt><trkpt lat="39.89575481993534" lon="9.434322303863324"><ele>1022.0</ele><time>2026-04-30T14:22:49.844Z</time></trkpt><trkpt lat="39.895626905858016" lon="9.434492218965202"><ele>1021.0</ele><time>2026-04-30T14:22:50.844Z</time></trkpt><trkpt lat="39.89548894773678" lon="9.43463339309281"><ele>1021.6666666666666</ele><time>2026-04-30T14:22:51.844Z</time></trkpt><trkpt lat="39.8953442666326" lon="9.434754513791006"><ele>1022.3333333333333</ele><time>2026-04-30T14:22:52.844Z</time></trkpt><trkpt lat="39.89520390098328" lon="9.434859836927107"><ele>1023.0</ele><time>2026-04-30T14:22:53.844Z</time></trkpt><trkpt lat="39.89508194457467" lon="9.434965628975606"><ele>1023.0</ele><time>2026-04-30T14:22:54.844Z</time></trkpt><trkpt lat="39.89498296535247" lon="9.435090567142632"><ele>1023.0</ele><time>2026-04-30T14:22:55.844Z</time></trkpt><trkpt lat="39.894898603070494" lon="9.435251795900601"><ele>1023.0</ele><time>2026-04-30T14:22:56.844Z</time></trkpt><trkpt lat="39.89483083981113" lon="9.435441699290093"><ele>1023.0</ele><time>2026-04-30T14:22:57.843Z</time></trkpt><trkpt lat="39.894770487220846" lon="9.435643110038018"><ele>1025.0</ele><time>2026-04-30T14:22:58.843Z</time></trkpt><trkpt lat="39.89470174017253" lon="9.435854771779537"><ele>1027.0</ele><time>2026-04-30T14:22:59.843Z</time></trkpt><trkpt lat="39.89467062816927" lon="9.436089162964779"><ele>1029.0</ele><time>2026-04-30T14:23:00.843Z</time></trkpt><trkpt lat="39.89462791851924" lon="9.436325206483184"><ele>1029.0</ele><time>2026-04-30T14:23:01.843Z</time></trkpt><trkpt lat="39.8945728678608" lon="9.436564763604517"><ele>1029.0</ele><time>2026-04-30T14:23:02.843Z</time></trkpt><trkpt lat="39.89448669900783" lon="9.436772509761932"><ele>1029.0</ele><time>2026-04-30T14:23:03.843Z</time></trkpt><trkpt lat="39.89441326902367" lon="9.436983087846196"><ele>1028.3333333333333</ele><time>2026-04-30T14:23:04.843Z</time></trkpt><trkpt lat="39.89429876805614" lon="9.43714917354623"><ele>1027.6666666666665</ele><time>2026-04-30T14:23:05.843Z</time></trkpt><trkpt lat="39.89419236377571" lon="9.437310980568842"><ele>1027.0</ele><time>2026-04-30T14:23:06.843Z</time></trkpt><trkpt lat="39.89408433868051" lon="9.437486141748971"><ele>1027.0</ele><time>2026-04-30T14:23:07.843Z</time></trkpt><trkpt lat="39.89395258067033" lon="9.437633048192557"><ele>1027.0</ele><time>2026-04-30T14:23:08.843Z</time></trkpt><trkpt lat="39.89381329228961" lon="9.437750962213933"><ele>1027.0</ele><time>2026-04-30T14:23:09.843Z</time></trkpt><trkpt lat="39.89365666100396" lon="9.437846391424747"><ele>1027.0</ele><time>2026-04-30T14:23:10.842Z</time></trkpt><trkpt lat="39.89349685224277" lon="9.437917324637311"><ele>1027.0</ele><time>2026-04-30T14:23:11.842Z</time></trkpt><trkpt lat="39.89333553077139" lon="9.43796101766599"><ele>1027.0</ele><time>2026-04-30T14:23:12.842Z</time></trkpt><trkpt lat="39.89317400793476" lon="9.437979173137624"><ele>1027.0</ele><time>2026-04-30T14:23:13.842Z</time></trkpt><trkpt lat="39.893007491037864" lon="9.437971437650987"><ele>1027.0</ele><time>2026-04-30T14:23:14.842Z</time></trkpt><trkpt lat="39.89284023030319" lon="9.437938323085524"><ele>1027.0</ele><time>2026-04-30T14:23:15.842Z</time></trkpt><trkpt lat="39.8926709791714" lon="9.43789587209315"><ele>1028.6666666666665</ele><time>2026-04-30T14:23:16.842Z</time></trkpt><trkpt lat="39.89249378407164" lon="9.437851431646294"><ele>1030.3333333333333</ele><time>2026-04-30T14:23:17.842Z</time></trkpt><trkpt lat="39.89230772609226" lon="9.437811707719668"><ele>1032.0</ele><time>2026-04-30T14:23:18.842Z</time></trkpt><trkpt lat="39.89212138514567" lon="9.43778559205953"><ele>1032.0</ele><time>2026-04-30T14:23:19.842Z</time></trkpt><trkpt lat="39.8919324649532" lon="9.437777609301687"><ele>1032.0</ele><time>2026-04-30T14:23:20.842Z</time></trkpt><trkpt lat="39.89173824616072" lon="9.437781962382719"><ele>1032.0</ele><time>2026-04-30T14:23:21.842Z</time></trkpt><trkpt lat="39.891546008949625" lon="9.437794857254952"><ele>1035.0</ele><time>2026-04-30T14:23:22.842Z</time></trkpt><trkpt lat="39.89135106282006" lon="9.437812488307403"><ele>1038.0</ele><time>2026-04-30T14:23:23.842Z</time></trkpt><trkpt lat="39.89116249106255" lon="9.437829361369726"><ele>1041.0</ele><time>2026-04-30T14:23:24.842Z</time></trkpt><trkpt lat="39.89099372301303" lon="9.437846300187148"><ele>1043.0</ele><time>2026-04-30T14:23:25.842Z</time></trkpt><trkpt lat="39.8908293337823" lon="9.437859107189453"><ele>1045.0</ele><time>2026-04-30T14:23:26.842Z</time></trkpt><trkpt lat="39.89066478294481" lon="9.437865220702873"><ele>1047.0</ele><time>2026-04-30T14:23:27.842Z</time></trkpt><trkpt lat="39.89050513690452" lon="9.43785109802194"><ele>1047.0</ele><time>2026-04-30T14:23:28.842Z</time></trkpt><trkpt lat="39.89035168225154" lon="9.437807515671961"><ele>1047.0</ele><time>2026-04-30T14:23:29.841Z</time></trkpt><trkpt lat="39.890207718830574" lon="9.43773988372481"><ele>1047.0</ele><time>2026-04-30T14:23:30.841Z</time></trkpt><trkpt lat="39.890084041940405" lon="9.437658320183683"><ele>1047.0</ele><time>2026-04-30T14:23:31.841Z</time></trkpt><trkpt lat="39.889980678478025" lon="9.437577459033431"><ele>1049.1666666666667</ele><time>2026-04-30T14:23:32.841Z</time></trkpt><trkpt lat="39.88990192915719" lon="9.437543056072919"><ele>1051.3333333333333</ele><time>2026-04-30T14:23:33.841Z</time></trkpt><trkpt lat="39.88981682419005" lon="9.437517651342992"><ele>1053.5</ele><time>2026-04-30T14:23:35.841Z</time></trkpt><trkpt lat="39.88971927913973" lon="9.437540343100528"><ele>1055.6666666666665</ele><time>2026-04-30T14:23:46.841Z</time></trkpt><trkpt lat="39.88965091993599" lon="9.437569512412162"><ele>1057.8333333333333</ele><time>2026-04-30T14:23:47.841Z</time></trkpt><trkpt lat="39.889570555629355" lon="9.437642443031244"><ele>1060.0</ele><time>2026-04-30T14:23:48.841Z</time></trkpt><trkpt lat="39.88947078464519" lon="9.43774607003747"><ele>1060.0</ele><time>2026-04-30T14:23:49.841Z</time></trkpt><trkpt lat="39.88936093123786" lon="9.437868063860915"><ele>1060.0</ele><time>2026-04-30T14:23:50.841Z</time></trkpt><trkpt lat="39.88926640507455" lon="9.438022253057127"><ele>1060.0</ele><time>2026-04-30T14:23:51.841Z</time></trkpt><trkpt lat="39.88921162562315" lon="9.438198892388497"><ele>1060.0</ele><time>2026-04-30T14:23:52.841Z</time></trkpt><trkpt lat="39.889189785846064" lon="9.438397660263698"><ele>1061.3333333333333</ele><time>2026-04-30T14:23:53.841Z</time></trkpt><trkpt lat="39.889171508296826" lon="9.438609857538843"><ele>1062.6666666666667</ele><time>2026-04-30T14:23:54.84Z</time></trkpt><trkpt lat="39.889108834779314" lon="9.438803250887677"><ele>1064.0</ele><time>2026-04-30T14:23:55.84Z</time></trkpt><trkpt lat="39.88903679855941" lon="9.438960509754295"><ele>1069.0</ele><time>2026-04-30T14:23:56.84Z</time></trkpt><trkpt lat="39.88893547972527" lon="9.439082138819934"><ele>1074.0</ele><time>2026-04-30T14:23:57.84Z</time></trkpt><trkpt lat="39.88878631264892" lon="9.439165432292427"><ele>1079.0</ele><time>2026-04-30T14:23:58.84Z</time></trkpt><trkpt lat="39.8886115025832" lon="9.43922107062783"><ele>1079.0</ele><time>2026-04-30T14:23:59.84Z</time></trkpt><trkpt lat="39.888432572865106" lon="9.439235560801068"><ele>1079.0</ele><time>2026-04-30T14:24:00.84Z</time></trkpt><trkpt lat="39.88823345613018" lon="9.439199488651052"><ele>1079.0</ele><time>2026-04-30T14:24:01.84Z</time></trkpt><trkpt lat="39.888007966650314" lon="9.439158034172404"><ele>1076.0</ele><time>2026-04-30T14:24:02.84Z</time></trkpt><trkpt lat="39.88777971746372" lon="9.439118072644856"><ele>1073.0</ele><time>2026-04-30T14:24:03.84Z</time></trkpt><trkpt lat="39.88757404543065" lon="9.439083355970444"><ele>1070.0</ele><time>2026-04-30T14:24:04.842Z</time></trkpt><trkpt lat="39.88739818482732" lon="9.439067154971038"><ele>1069.5</ele><time>2026-04-30T14:24:05.842Z</time></trkpt><trkpt lat="39.88724662572721" lon="9.439077020567838"><ele>1069.0</ele><time>2026-04-30T14:24:06.842Z</time></trkpt><trkpt lat="39.88711184753041" lon="9.439126116018347"><ele>1068.5</ele><time>2026-04-30T14:24:07.842Z</time></trkpt><trkpt lat="39.88699852355526" lon="9.43921391855651"><ele>1068.0</ele><time>2026-04-30T14:24:08.842Z</time></trkpt><trkpt lat="39.886909205350634" lon="9.439339511641712"><ele>1068.0</ele><time>2026-04-30T14:24:09.842Z</time></trkpt><trkpt lat="39.886850055668326" lon="9.439469741346391"><ele>1068.0</ele><time>2026-04-30T14:24:10.842Z</time></trkpt><trkpt lat="39.88681127958184" lon="9.439602368627403"><ele>1068.0</ele><time>2026-04-30T14:24:11.841Z</time></trkpt><trkpt lat="39.88677499149025" lon="9.43973951726938"><ele>1068.0</ele><time>2026-04-30T14:24:12.841Z</time></trkpt><trkpt lat="39.88676997514722" lon="9.439890192549777"><ele>1069.5</ele><time>2026-04-30T14:24:13.842Z</time></trkpt><trkpt lat="39.88678751298472" lon="9.44004938618369"><ele>1071.0</ele><time>2026-04-30T14:24:14.841Z</time></trkpt><trkpt lat="39.886829570643656" lon="9.440214345188766"><ele>1072.5</ele><time>2026-04-30T14:24:15.841Z</time></trkpt><trkpt lat="39.8868442301346" lon="9.440403797730166"><ele>1074.0</ele><time>2026-04-30T14:24:16.842Z</time></trkpt><trkpt lat="39.88687745446997" lon="9.440608671997682"><ele>1074.0</ele><time>2026-04-30T14:24:17.842Z</time></trkpt><trkpt lat="39.88692642273209" lon="9.4408061455987"><ele>1074.0</ele><time>2026-04-30T14:24:18.842Z</time></trkpt><trkpt lat="39.886941080602256" lon="9.44099384273005"><ele>1074.0</ele><time>2026-04-30T14:24:19.842Z</time></trkpt><trkpt lat="39.88694010124729" lon="9.441167670566545"><ele>1074.0</ele><time>2026-04-30T14:24:20.842Z</time></trkpt><trkpt lat="39.886905666133" lon="9.441333306723145"><ele>1069.75</ele><time>2026-04-30T14:24:21.841Z</time></trkpt><trkpt lat="39.886822089474784" lon="9.441464874483728"><ele>1065.5</ele><time>2026-04-30T14:24:22.841Z</time></trkpt><trkpt lat="39.886733289211904" lon="9.44160381468778"><ele>1061.25</ele><time>2026-04-30T14:24:23.841Z</time></trkpt><trkpt lat="39.88665076572437" lon="9.441755505195204"><ele>1057.0</ele><time>2026-04-30T14:24:24.841Z</time></trkpt><trkpt lat="39.8865540908542" lon="9.441897239454015"><ele>1057.0</ele><time>2026-04-30T14:24:25.841Z</time></trkpt><trkpt lat="39.88645404033512" lon="9.44203891224885"><ele>1057.0</ele><time>2026-04-30T14:24:26.841Z</time></trkpt><trkpt lat="39.88635124645818" lon="9.442188856502892"><ele>1057.0</ele><time>2026-04-30T14:24:27.841Z</time></trkpt><trkpt lat="39.88624627164955" lon="9.442340476280833"><ele>1057.0</ele><time>2026-04-30T14:24:28.841Z</time></trkpt><trkpt lat="39.886130856108494" lon="9.442492564395545"><ele>1057.0</ele><time>2026-04-30T14:24:29.841Z</time></trkpt><trkpt lat="39.88599771510472" lon="9.44262331214152"><ele>1057.0</ele><time>2026-04-30T14:24:30.841Z</time></trkpt><trkpt lat="39.885842177185125" lon="9.442720027595168"><ele>1057.0</ele><time>2026-04-30T14:24:31.841Z</time></trkpt><trkpt lat="39.885676061975055" lon="9.442796682626959"><ele>1057.0</ele><time>2026-04-30T14:24:32.841Z</time></trkpt><trkpt lat="39.88550428932126" lon="9.442869608427337"><ele>1057.0</ele><time>2026-04-30T14:24:33.841Z</time></trkpt><trkpt lat="39.88533612825679" lon="9.44294625006172"><ele>1057.6666666666665</ele><time>2026-04-30T14:24:34.841Z</time></trkpt><trkpt lat="39.88516708916556" lon="9.443024811165737"><ele>1058.3333333333333</ele><time>2026-04-30T14:24:35.841Z</time></trkpt><trkpt lat="39.88501641598831" lon="9.44310531537969"><ele>1059.0</ele><time>2026-04-30T14:24:36.841Z</time></trkpt><trkpt lat="39.88489448576283" lon="9.443193221118884"><ele>1060.75</ele><time>2026-04-30T14:24:37.841Z</time></trkpt><trkpt lat="39.88480056351709" lon="9.443308975036064"><ele>1062.5</ele><time>2026-04-30T14:24:38.841Z</time></trkpt><trkpt lat="39.884725833285735" lon="9.443475024001888"><ele>1064.25</ele><time>2026-04-30T14:24:39.841Z</time></trkpt><trkpt lat="39.88463715177444" lon="9.443645633167023"><ele>1066.0</ele><time>2026-04-30T14:24:40.841Z</time></trkpt><trkpt lat="39.88452115261368" lon="9.443786828090916"><ele>1066.0</ele><time>2026-04-30T14:24:41.841Z</time></trkpt><trkpt lat="39.884371173142725" lon="9.443884985507411"><ele>1066.0</ele><time>2026-04-30T14:24:42.841Z</time></trkpt><trkpt lat="39.88420553214315" lon="9.443948431555128"><ele>1066.0</ele><time>2026-04-30T14:24:43.841Z</time></trkpt><trkpt lat="39.88403658325107" lon="9.443996891872432"><ele>1066.0</ele><time>2026-04-30T14:24:44.841Z</time></trkpt><trkpt lat="39.88388289304693" lon="9.444070085751044"><ele>1066.0</ele><time>2026-04-30T14:24:45.841Z</time></trkpt><trkpt lat="39.88373944202559" lon="9.444178236402697"><ele>1066.0</ele><time>2026-04-30T14:24:46.841Z</time></trkpt><trkpt lat="39.88361841089852" lon="9.444321647790941"><ele>1066.0</ele><time>2026-04-30T14:24:47.841Z</time></trkpt><trkpt lat="39.88351012947403" lon="9.444491748737505"><ele>1066.0</ele><time>2026-04-30T14:24:48.841Z</time></trkpt><trkpt lat="39.883400172887164" lon="9.444658901159741"><ele>1066.0</ele><time>2026-04-30T14:24:49.841Z</time></trkpt><trkpt lat="39.88326724626529" lon="9.444789299445649"><ele>1066.3333333333333</ele><time>2026-04-30T14:24:50.841Z</time></trkpt><trkpt lat="39.88311549910852" lon="9.444880293692322"><ele>1066.6666666666667</ele><time>2026-04-30T14:24:51.84Z</time></trkpt><trkpt lat="39.88294657309052" lon="9.444934232623995"><ele>1067.0</ele><time>2026-04-30T14:24:52.84Z</time></trkpt><trkpt lat="39.88276947089929" lon="9.444942808988014"><ele>1067.0</ele><time>2026-04-30T14:24:53.84Z</time></trkpt><trkpt lat="39.88259645981462" lon="9.444905985604738"><ele>1067.0</ele><time>2026-04-30T14:24:54.84Z</time></trkpt><trkpt lat="39.88242484099628" lon="9.444821351802917"><ele>1067.0</ele><time>2026-04-30T14:24:55.84Z</time></trkpt><trkpt lat="39.882266855856855" lon="9.444705607678818"><ele>1063.25</ele><time>2026-04-30T14:24:56.84Z</time></trkpt><trkpt lat="39.88213266855429" lon="9.44459985751465"><ele>1059.5</ele><time>2026-04-30T14:24:57.84Z</time></trkpt><trkpt lat="39.88201112507894" lon="9.44453598783314"><ele>1055.75</ele><time>2026-04-30T14:24:58.84Z</time></trkpt><trkpt lat="39.881892132832945" lon="9.444535243986323"><ele>1052.0</ele><time>2026-04-30T14:24:59.84Z</time></trkpt><trkpt lat="39.881778172408346" lon="9.444595445380848"><ele>1054.75</ele><time>2026-04-30T14:25:00.84Z</time></trkpt><trkpt lat="39.88168141606252" lon="9.444705635566109"><ele>1057.5</ele><time>2026-04-30T14:25:01.84Z</time></trkpt><trkpt lat="39.88161266466835" lon="9.444846051578338"><ele>1060.25</ele><time>2026-04-30T14:25:02.84Z</time></trkpt><trkpt lat="39.88158944465382" lon="9.445024869622467"><ele>1063.0</ele><time>2026-04-30T14:25:03.84Z</time></trkpt><trkpt lat="39.8815998203641" lon="9.445226254786093"><ele>1063.0</ele><time>2026-04-30T14:25:04.84Z</time></trkpt><trkpt lat="39.88159729972848" lon="9.445453045470785"><ele>1063.0</ele><time>2026-04-30T14:25:05.84Z</time></trkpt><trkpt lat="39.881608725283954" lon="9.445670168915692"><ele>1063.0</ele><time>2026-04-30T14:25:06.84Z</time></trkpt><trkpt lat="39.881606237992706" lon="9.445871171927733"><ele>1061.3333333333333</ele><time>2026-04-30T14:25:07.84Z</time></trkpt><trkpt lat="39.88156879562177" lon="9.446069748643048"><ele>1059.6666666666667</ele><time>2026-04-30T14:25:08.84Z</time></trkpt><trkpt lat="39.88151829708145" lon="9.446274739805096"><ele>1058.0</ele><time>2026-04-30T14:25:09.84Z</time></trkpt><trkpt lat="39.881454593879084" lon="9.446457868706627"><ele>1055.75</ele><time>2026-04-30T14:25:10.84Z</time></trkpt><trkpt lat="39.88137531787008" lon="9.446615117509998"><ele>1053.5</ele><time>2026-04-30T14:25:11.84Z</time></trkpt><trkpt lat="39.88124061001141" lon="9.446671483077774"><ele>1051.25</ele><time>2026-04-30T14:25:12.84Z</time></trkpt><trkpt lat="39.88110271786203" lon="9.446719010540425"><ele>1049.0</ele><time>2026-04-30T14:25:13.84Z</time></trkpt><trkpt lat="39.88094917549676" lon="9.446755640227222"><ele>1046.75</ele><time>2026-04-30T14:25:14.84Z</time></trkpt><trkpt lat="39.88079294685941" lon="9.446792051187323"><ele>1044.5</ele><time>2026-04-30T14:25:15.84Z</time></trkpt><trkpt lat="39.88065245362122" lon="9.44681034846121"><ele>1042.25</ele><time>2026-04-30T14:25:16.84Z</time></trkpt><trkpt lat="39.880532949575816" lon="9.446837837053984"><ele>1040.0</ele><time>2026-04-30T14:25:17.84Z</time></trkpt><trkpt lat="39.88044300594892" lon="9.446862832792087"><ele>1040.0</ele><time>2026-04-30T14:25:18.84Z</time></trkpt><trkpt lat="39.88037810979617" lon="9.446881561625565"><ele>1040.0</ele><time>2026-04-30T14:25:19.84Z</time></trkpt><trkpt lat="39.88029869467876" lon="9.446882025185667"><ele>1040.0</ele><time>2026-04-30T14:25:21.839Z</time></trkpt><trkpt lat="39.880213473616955" lon="9.446895612362583"><ele>1040.0</ele><time>2026-04-30T14:25:24.839Z</time></trkpt><trkpt lat="39.88008078652246" lon="9.44690935020573"><ele>1040.0</ele><time>2026-04-30T14:25:26.839Z</time></trkpt><trkpt lat="39.88000931525106" lon="9.446902889593911"><ele>1040.0</ele><time>2026-04-30T14:25:27.839Z</time></trkpt><trkpt lat="39.879930577786624" lon="9.446890337964488"><ele>1039.8333333333335</ele><time>2026-04-30T14:25:28.839Z</time></trkpt><trkpt lat="39.879868585539214" lon="9.446875652964556"><ele>1039.6666666666667</ele><time>2026-04-30T14:25:29.839Z</time></trkpt><trkpt lat="39.87975441198174" lon="9.446836828167797"><ele>1039.5</ele><time>2026-04-30T14:25:31.839Z</time></trkpt><trkpt lat="39.879691758304766" lon="9.44681241355443"><ele>1039.3333333333333</ele><time>2026-04-30T14:25:32.839Z</time></trkpt><trkpt lat="39.87960340014505" lon="9.446778318878437"><ele>1039.1666666666665</ele><time>2026-04-30T14:25:34.839Z</time></trkpt><trkpt lat="39.879532415243965" lon="9.446798233533736"><ele>1039.0</ele><time>2026-04-30T14:25:36.839Z</time></trkpt><trkpt lat="39.879351460002" lon="9.447268473085384"><ele>1040.6000000000001</ele><time>2026-04-30T14:25:38.839Z</time></trkpt><trkpt lat="39.879242457448214" lon="9.447245089374814"><ele>1042.2</ele><time>2026-04-30T14:25:40.839Z</time></trkpt><trkpt lat="39.87913413695002" lon="9.447269338790832"><ele>1043.8000000000002</ele><time>2026-04-30T14:25:42.839Z</time></trkpt><trkpt lat="39.87904041418217" lon="9.44734124329213"><ele>1045.4</ele><time>2026-04-30T14:25:44.839Z</time></trkpt><trkpt lat="39.87898359562256" lon="9.447439695537497"><ele>1047.0</ele><time>2026-04-30T14:25:46.839Z</time></trkpt><trkpt lat="39.87898215358593" lon="9.447553761883075"><ele>1047.0</ele><time>2026-04-30T14:25:48.839Z</time></trkpt><trkpt lat="39.879009007130186" lon="9.44764551787313"><ele>1047.0</ele><time>2026-04-30T14:25:50.839Z</time></trkpt><trkpt lat="39.878990780335705" lon="9.447733100942191"><ele>1047.0</ele><time>2026-04-30T14:25:52.838Z</time></trkpt><trkpt lat="39.87903661688877" lon="9.447623356726806"><ele>1047.0</ele><time>2026-04-30T14:32:10.831Z</time></trkpt><trkpt lat="39.87904772810471" lon="9.44754246467712"><ele>1047.0</ele><time>2026-04-30T14:32:12.831Z</time></trkpt><trkpt lat="39.879122710924605" lon="9.447500020501765"><ele>1047.0</ele><time>2026-04-30T14:32:15.831Z</time></trkpt><trkpt lat="39.87919109242361" lon="9.44748627905719"><ele>1047.0</ele><time>2026-04-30T14:32:17.831Z</time></trkpt><trkpt lat="39.879249942996616" lon="9.447452398897642"><ele>1047.0</ele><time>2026-04-30T14:32:19.831Z</time></trkpt><trkpt lat="39.879327906781" lon="9.447409568264392"><ele>1047.0</ele><time>2026-04-30T14:32:22.83Z</time></trkpt><trkpt lat="39.87935264290621" lon="9.447308251707064"><ele>1047.0</ele><time>2026-04-30T14:32:25.83Z</time></trkpt><trkpt lat="39.87940538248235" lon="9.447246441033668"><ele>1047.0</ele><time>2026-04-30T14:32:27.832Z</time></trkpt><trkpt lat="39.879472557510006" lon="9.447185853424948"><ele>1047.0</ele><time>2026-04-30T14:32:29.832Z</time></trkpt><trkpt lat="39.87953511141614" lon="9.44712460727257"><ele>1045.6666666666667</ele><time>2026-04-30T14:32:31.831Z</time></trkpt><trkpt lat="39.879620206097925" lon="9.447087083569206"><ele>1044.3333333333333</ele><time>2026-04-30T14:32:33.832Z</time></trkpt><trkpt lat="39.87970907854965" lon="9.447124384334785"><ele>1043.0</ele><time>2026-04-30T14:32:35.832Z</time></trkpt><trkpt lat="39.87979501913726" lon="9.447139006223807"><ele>1041.6666666666665</ele><time>2026-04-30T14:32:37.832Z</time></trkpt><trkpt lat="39.87986079901483" lon="9.447129962918222"><ele>1040.3333333333333</ele><time>2026-04-30T14:32:39.832Z</time></trkpt><trkpt lat="39.879938427048586" lon="9.447124769691568"><ele>1039.0</ele><time>2026-04-30T14:32:41.831Z</time></trkpt><trkpt lat="39.88002498604581" lon="9.44711224191444"><ele>1039.1666666666665</ele><time>2026-04-30T14:32:43.831Z</time></trkpt><trkpt lat="39.880120078333874" lon="9.447077142065647"><ele>1039.3333333333333</ele><time>2026-04-30T14:32:45.831Z</time></trkpt><trkpt lat="39.88018648737903" lon="9.447051035665794"><ele>1039.5</ele><time>2026-04-30T14:32:47.831Z</time></trkpt><trkpt lat="39.88026822347473" lon="9.446982426791578"><ele>1039.6666666666667</ele><time>2026-04-30T14:32:51.831Z</time></trkpt><trkpt lat="39.88031734458515" lon="9.446929763896646"><ele>1039.8333333333335</ele><time>2026-04-30T14:32:53.831Z</time></trkpt><trkpt lat="39.88039206491781" lon="9.446897287896395"><ele>1040.0</ele><time>2026-04-30T14:32:56.831Z</time></trkpt><trkpt lat="39.88033152280818" lon="9.446861941770544"><ele>1040.0</ele><time>2026-04-30T14:33:03.83Z</time></trkpt><trkpt lat="39.880262590368915" lon="9.446871626195378"><ele>1040.0</ele><time>2026-04-30T14:40:11.771Z</time></trkpt><trkpt lat="39.880202147137446" lon="9.446909927645246"><ele>1040.0</ele><time>2026-04-30T14:48:39.757Z</time></trkpt><trkpt lat="39.88011791248345" lon="9.446905532089797"><ele>1040.0</ele><time>2026-04-30T14:54:19.756Z</time></trkpt><trkpt lat="39.88005477936537" lon="9.446931320785469"><ele>1040.0</ele><time>2026-04-30T14:54:37.755Z</time></trkpt><trkpt lat="39.879970583601576" lon="9.446911977934304"><ele>1040.0</ele><time>2026-04-30T14:54:43.755Z</time></trkpt><trkpt lat="39.87985974302922" lon="9.446871200543235"><ele>1039.8</ele><time>2026-04-30T14:54:45.755Z</time></trkpt><trkpt lat="39.87979080807845" lon="9.446847540703711"><ele>1039.6</ele><time>2026-04-30T14:54:46.755Z</time></trkpt><trkpt lat="39.87971331001921" lon="9.446820489861372"><ele>1039.4</ele><time>2026-04-30T14:54:47.755Z</time></trkpt><trkpt lat="39.87962006466644" lon="9.446785106025926"><ele>1039.2</ele><time>2026-04-30T14:54:48.755Z</time></trkpt><trkpt lat="39.87951566896567" lon="9.446745263096103"><ele>1039.0</ele><time>2026-04-30T14:54:49.755Z</time></trkpt><trkpt lat="39.87940039317771" lon="9.44670036746242"><ele>1039.0</ele><time>2026-04-30T14:54:50.755Z</time></trkpt><trkpt lat="39.87928071601848" lon="9.446652611870274"><ele>1039.0</ele><time>2026-04-30T14:54:51.755Z</time></trkpt><trkpt lat="39.87915889540919" lon="9.446604976038245"><ele>1039.0</ele><time>2026-04-30T14:54:52.755Z</time></trkpt><trkpt lat="39.87903149163007" lon="9.446554661092975"><ele>1039.0</ele><time>2026-04-30T14:54:53.755Z</time></trkpt><trkpt lat="39.878904538384994" lon="9.44650804602431"><ele>1039.75</ele><time>2026-04-30T14:54:54.755Z</time></trkpt><trkpt lat="39.87878830572027" lon="9.446476276306107"><ele>1040.5</ele><time>2026-04-30T14:54:55.755Z</time></trkpt><trkpt lat="39.87866894901523" lon="9.446473838627124"><ele>1041.25</ele><time>2026-04-30T14:54:56.755Z</time></trkpt><trkpt lat="39.878550607509" lon="9.4465071328837"><ele>1042.0</ele><time>2026-04-30T14:54:57.755Z</time></trkpt><trkpt lat="39.87843273101516" lon="9.446576738087124"><ele>1042.0</ele><time>2026-04-30T14:54:58.755Z</time></trkpt><trkpt lat="39.87833181936932" lon="9.446678429341246"><ele>1042.0</ele><time>2026-04-30T14:54:59.755Z</time></trkpt><trkpt lat="39.87824540662726" lon="9.446818576533829"><ele>1042.0</ele><time>2026-04-30T14:55:00.755Z</time></trkpt><trkpt lat="39.8781791109507" lon="9.446999829551347"><ele>1042.0</ele><time>2026-04-30T14:55:01.755Z</time></trkpt><trkpt lat="39.878115228718286" lon="9.447184210089596"><ele>1042.0</ele><time>2026-04-30T14:55:02.754Z</time></trkpt><trkpt lat="39.87804104285172" lon="9.447358553439692"><ele>1042.0</ele><time>2026-04-30T14:55:03.754Z</time></trkpt><trkpt lat="39.87791884249304" lon="9.447485657046311"><ele>1042.0</ele><time>2026-04-30T14:55:04.754Z</time></trkpt><trkpt lat="39.877780154335674" lon="9.447617536611165"><ele>1042.0</ele><time>2026-04-30T14:55:05.754Z</time></trkpt><trkpt lat="39.877628908715536" lon="9.447755089458154"><ele>1042.0</ele><time>2026-04-30T14:55:06.754Z</time></trkpt><trkpt lat="39.87748415293087" lon="9.447889727573584"><ele>1042.0</ele><time>2026-04-30T14:55:07.754Z</time></trkpt><trkpt lat="39.87733450634163" lon="9.44797995327044"><ele>1037.3333333333333</ele><time>2026-04-30T14:55:08.754Z</time></trkpt><trkpt lat="39.877178334614335" lon="9.44805243769979"><ele>1032.6666666666667</ele><time>2026-04-30T14:55:09.754Z</time></trkpt><trkpt lat="39.87702366892686" lon="9.448132246193381"><ele>1028.0</ele><time>2026-04-30T14:55:10.754Z</time></trkpt><trkpt lat="39.876879952025774" lon="9.448240371484566"><ele>1023.5</ele><time>2026-04-30T14:55:11.754Z</time></trkpt><trkpt lat="39.876759693291056" lon="9.448373394622893"><ele>1019.0</ele><time>2026-04-30T14:55:12.754Z</time></trkpt><trkpt lat="39.87665560264148" lon="9.448512759263735"><ele>1014.5</ele><time>2026-04-30T14:55:13.754Z</time></trkpt><trkpt lat="39.87655899675068" lon="9.448626948859818"><ele>1010.0</ele><time>2026-04-30T14:55:14.754Z</time></trkpt><trkpt lat="39.876446946252926" lon="9.44868869880019"><ele>1010.0</ele><time>2026-04-30T14:55:15.754Z</time></trkpt><trkpt lat="39.8763222467657" lon="9.448652984678384"><ele>1010.0</ele><time>2026-04-30T14:55:16.754Z</time></trkpt><trkpt lat="39.876210169333625" lon="9.448584668048836"><ele>1010.0</ele><time>2026-04-30T14:55:17.754Z</time></trkpt><trkpt lat="39.8760817286047" lon="9.448491273102126"><ele>1010.0</ele><time>2026-04-30T14:55:18.754Z</time></trkpt><trkpt lat="39.87595625373455" lon="9.4483379926654"><ele>1005.6666666666667</ele><time>2026-04-30T14:55:19.754Z</time></trkpt><trkpt lat="39.87583659265974" lon="9.448170710243243"><ele>1001.3333333333333</ele><time>2026-04-30T14:55:20.754Z</time></trkpt><trkpt lat="39.87572782074448" lon="9.44798266607757"><ele>997.0</ele><time>2026-04-30T14:55:21.754Z</time></trkpt><trkpt lat="39.87563687019895" lon="9.447804875177416"><ele>995.6666666666666</ele><time>2026-04-30T14:55:22.754Z</time></trkpt><trkpt lat="39.87555304095621" lon="9.447634550822325"><ele>994.3333333333333</ele><time>2026-04-30T14:55:23.754Z</time></trkpt><trkpt lat="39.875461618801" lon="9.447460704175166"><ele>993.0</ele><time>2026-04-30T14:55:24.754Z</time></trkpt><trkpt lat="39.87534726655595" lon="9.447308009565779"><ele>993.0</ele><time>2026-04-30T14:55:25.754Z</time></trkpt><trkpt lat="39.8752152822594" lon="9.447193564963014"><ele>993.0</ele><time>2026-04-30T14:55:26.754Z</time></trkpt><trkpt lat="39.8750729630589" lon="9.447112038305153"><ele>993.0</ele><time>2026-04-30T14:55:27.754Z</time></trkpt><trkpt lat="39.874913489327795" lon="9.44704732649195"><ele>988.3333333333333</ele><time>2026-04-30T14:55:28.753Z</time></trkpt><trkpt lat="39.87475054282485" lon="9.446990080122902"><ele>983.6666666666666</ele><time>2026-04-30T14:55:29.753Z</time></trkpt><trkpt lat="39.87458348935746" lon="9.446925725679012"><ele>979.0</ele><time>2026-04-30T14:55:30.753Z</time></trkpt><trkpt lat="39.874414905259506" lon="9.446852104996275"><ele>977.0</ele><time>2026-04-30T14:55:31.753Z</time></trkpt><trkpt lat="39.874240066901294" lon="9.446779976564974"><ele>975.0</ele><time>2026-04-30T14:55:32.755Z</time></trkpt><trkpt lat="39.8740809268633" lon="9.446707280973193"><ele>973.0</ele><time>2026-04-30T14:55:33.756Z</time></trkpt><trkpt lat="39.8739462800721" lon="9.446614321595305"><ele>973.0</ele><time>2026-04-30T14:55:34.756Z</time></trkpt><trkpt lat="39.8738223136035" lon="9.44648604836681"><ele>973.0</ele><time>2026-04-30T14:55:35.755Z</time></trkpt><trkpt lat="39.87370532138649" lon="9.446333448073144"><ele>973.0</ele><time>2026-04-30T14:55:36.755Z</time></trkpt><trkpt lat="39.873590566170435" lon="9.446187609537127"><ele>971.25</ele><time>2026-04-30T14:55:37.755Z</time></trkpt><trkpt lat="39.87348665907243" lon="9.446086347848588"><ele>969.5</ele><time>2026-04-30T14:55:38.755Z</time></trkpt><trkpt lat="39.87338045507763" lon="9.446038746557187"><ele>967.75</ele><time>2026-04-30T14:55:39.755Z</time></trkpt><trkpt lat="39.87326289688977" lon="9.446040716358468"><ele>966.0</ele><time>2026-04-30T14:55:40.755Z</time></trkpt><trkpt lat="39.873146278921666" lon="9.446099069830789"><ele>965.25</ele><time>2026-04-30T14:55:41.755Z</time></trkpt><trkpt lat="39.8730453620575" lon="9.446204969902292"><ele>964.5</ele><time>2026-04-30T14:55:42.755Z</time></trkpt><trkpt lat="39.872966590470845" lon="9.44636623130777"><ele>963.75</ele><time>2026-04-30T14:55:43.755Z</time></trkpt><trkpt lat="39.87288443274258" lon="9.446545799619098"><ele>963.0</ele><time>2026-04-30T14:55:44.755Z</time></trkpt><trkpt lat="39.872790959842824" lon="9.446751962947623"><ele>963.0</ele><time>2026-04-30T14:55:45.755Z</time></trkpt><trkpt lat="39.87269040065294" lon="9.446964305598705"><ele>963.0</ele><time>2026-04-30T14:55:46.755Z</time></trkpt><trkpt lat="39.87258883289029" lon="9.447178397228829"><ele>963.0</ele><time>2026-04-30T14:55:47.755Z</time></trkpt><trkpt lat="39.87248702044863" lon="9.447394294963548"><ele>960.3333333333333</ele><time>2026-04-30T14:55:48.755Z</time></trkpt><trkpt lat="39.87238109441449" lon="9.447621364931912"><ele>957.6666666666666</ele><time>2026-04-30T14:55:49.755Z</time></trkpt><trkpt lat="39.8722693212382" lon="9.447848085732177"><ele>955.0</ele><time>2026-04-30T14:55:50.755Z</time></trkpt><trkpt lat="39.87216426859591" lon="9.448070601913559"><ele>951.6666666666666</ele><time>2026-04-30T14:55:51.755Z</time></trkpt><trkpt lat="39.87205799213679" lon="9.448291909987065"><ele>948.3333333333333</ele><time>2026-04-30T14:55:52.755Z</time></trkpt><trkpt lat="39.87195821796149" lon="9.44850445946678"><ele>945.0</ele><time>2026-04-30T14:55:53.755Z</time></trkpt><trkpt lat="39.87185951997702" lon="9.44870523051181"><ele>945.0</ele><time>2026-04-30T14:55:54.755Z</time></trkpt><trkpt lat="39.87175986144646" lon="9.448894321837729"><ele>945.0</ele><time>2026-04-30T14:55:55.754Z</time></trkpt><trkpt lat="39.87166077711843" lon="9.44906178725468"><ele>945.0</ele><time>2026-04-30T14:55:56.754Z</time></trkpt><trkpt lat="39.87156320756925" lon="9.449206083822764"><ele>945.0</ele><time>2026-04-30T14:55:57.754Z</time></trkpt><trkpt lat="39.87148727671602" lon="9.449354190767515"><ele>945.0</ele><time>2026-04-30T14:55:58.754Z</time></trkpt><trkpt lat="39.87144316338757" lon="9.44952024704005"><ele>945.0</ele><time>2026-04-30T14:55:59.754Z</time></trkpt><trkpt lat="39.871419231748646" lon="9.449707172020174"><ele>945.0</ele><time>2026-04-30T14:56:00.754Z</time></trkpt><trkpt lat="39.87140666587704" lon="9.449905359072622"><ele>944.6666666666667</ele><time>2026-04-30T14:56:01.754Z</time></trkpt><trkpt lat="39.87140115209466" lon="9.450113108485727"><ele>944.3333333333334</ele><time>2026-04-30T14:56:02.754Z</time></trkpt><trkpt lat="39.87140468271413" lon="9.450341263859134"><ele>944.0</ele><time>2026-04-30T14:56:03.754Z</time></trkpt><trkpt lat="39.87141702741819" lon="9.450564880083183"><ele>944.6666666666667</ele><time>2026-04-30T14:56:04.754Z</time></trkpt><trkpt lat="39.87145535293" lon="9.450770619567265"><ele>945.3333333333333</ele><time>2026-04-30T14:56:05.754Z</time></trkpt><trkpt lat="39.87151267543619" lon="9.450970510462605"><ele>946.0</ele><time>2026-04-30T14:56:06.754Z</time></trkpt><trkpt lat="39.87161676390931" lon="9.451152237024308"><ele>948.3333333333333</ele><time>2026-04-30T14:56:07.754Z</time></trkpt><trkpt lat="39.871726369734716" lon="9.451341746952481"><ele>950.6666666666667</ele><time>2026-04-30T14:56:08.754Z</time></trkpt><trkpt lat="39.87181119768438" lon="9.451551795847967"><ele>953.0</ele><time>2026-04-30T14:56:09.754Z</time></trkpt><trkpt lat="39.87190657905684" lon="9.451758909484191"><ele>946.0</ele><time>2026-04-30T14:56:10.754Z</time></trkpt><trkpt lat="39.8719960735936" lon="9.451953611984822"><ele>939.0</ele><time>2026-04-30T14:56:11.754Z</time></trkpt><trkpt lat="39.8720805278313" lon="9.45213402878905"><ele>932.0</ele><time>2026-04-30T14:56:12.754Z</time></trkpt><trkpt lat="39.872129329330626" lon="9.4523465154922"><ele>932.0</ele><time>2026-04-30T14:56:13.754Z</time></trkpt><trkpt lat="39.87214727943649" lon="9.452570399909526"><ele>932.0</ele><time>2026-04-30T14:56:14.754Z</time></trkpt><trkpt lat="39.872192109338975" lon="9.452790825341262"><ele>932.0</ele><time>2026-04-30T14:56:15.754Z</time></trkpt><trkpt lat="39.872234386743614" lon="9.452990532508142"><ele>934.3333333333334</ele><time>2026-04-30T14:56:16.754Z</time></trkpt><trkpt lat="39.87230599189945" lon="9.453192097791199"><ele>936.6666666666667</ele><time>2026-04-30T14:56:17.754Z</time></trkpt><trkpt lat="39.872404494946814" lon="9.453380529012462"><ele>939.0</ele><time>2026-04-30T14:56:18.754Z</time></trkpt><trkpt lat="39.87252898529514" lon="9.453566667761446"><ele>930.3333333333333</ele><time>2026-04-30T14:56:19.754Z</time></trkpt><trkpt lat="39.87264260663568" lon="9.453746632399048"><ele>921.6666666666666</ele><time>2026-04-30T14:56:20.753Z</time></trkpt><trkpt lat="39.872733012137324" lon="9.453913084801773"><ele>913.0</ele><time>2026-04-30T14:56:21.753Z</time></trkpt><trkpt lat="39.87278788176457" lon="9.45406882788438"><ele>912.5</ele><time>2026-04-30T14:56:22.753Z</time></trkpt><trkpt lat="39.87281176346654" lon="9.454229357829092"><ele>912.0</ele><time>2026-04-30T14:56:23.753Z</time></trkpt><trkpt lat="39.8727803430896" lon="9.454400944060012"><ele>911.5</ele><time>2026-04-30T14:56:24.753Z</time></trkpt><trkpt lat="39.87271180023101" lon="9.454555691232422"><ele>911.0</ele><time>2026-04-30T14:56:25.753Z</time></trkpt><trkpt lat="39.872613460863164" lon="9.454696224207472"><ele>918.3333333333334</ele><time>2026-04-30T14:56:26.753Z</time></trkpt><trkpt lat="39.87249234334338" lon="9.454849516820211"><ele>925.6666666666667</ele><time>2026-04-30T14:56:27.753Z</time></trkpt><trkpt lat="39.87237711090852" lon="9.455030680034042"><ele>933.0</ele><time>2026-04-30T14:56:28.753Z</time></trkpt><trkpt lat="39.872256490256405" lon="9.455224834820589"><ele>933.0</ele><time>2026-04-30T14:56:29.753Z</time></trkpt><trkpt lat="39.872127886167085" lon="9.455435678445085"><ele>933.0</ele><time>2026-04-30T14:56:30.753Z</time></trkpt><trkpt lat="39.87199915220365" lon="9.455645790776362"><ele>933.0</ele><time>2026-04-30T14:56:31.753Z</time></trkpt><trkpt lat="39.871877351399014" lon="9.455854621430479"><ele>928.6666666666667</ele><time>2026-04-30T14:56:32.753Z</time></trkpt><trkpt lat="39.871779400337374" lon="9.456079047727313"><ele>924.3333333333334</ele><time>2026-04-30T14:56:33.753Z</time></trkpt><trkpt lat="39.871694258656476" lon="9.456315091831968"><ele>920.0</ele><time>2026-04-30T14:56:34.753Z</time></trkpt><trkpt lat="39.871608500738134" lon="9.456549706690147"><ele>920.0</ele><time>2026-04-30T14:56:35.753Z</time></trkpt><trkpt lat="39.8715194808724" lon="9.456785280301746"><ele>920.0</ele><time>2026-04-30T14:56:36.753Z</time></trkpt><trkpt lat="39.871431216338365" lon="9.457011706029059"><ele>920.0</ele><time>2026-04-30T14:56:37.753Z</time></trkpt><trkpt lat="39.871364425757164" lon="9.457211440641085"><ele>918.25</ele><time>2026-04-30T14:56:38.753Z</time></trkpt><trkpt lat="39.87132763486161" lon="9.457378803591945"><ele>916.5</ele><time>2026-04-30T14:56:39.753Z</time></trkpt><trkpt lat="39.87132054418928" lon="9.457544215685969"><ele>914.75</ele><time>2026-04-30T14:56:40.753Z</time></trkpt><trkpt lat="39.87133180894968" lon="9.45772931041708"><ele>913.0</ele><time>2026-04-30T14:56:41.753Z</time></trkpt><trkpt lat="39.871347270557116" lon="9.457903680576127"><ele>911.5</ele><time>2026-04-30T14:56:42.753Z</time></trkpt><trkpt lat="39.871308500231954" lon="9.458045177197384"><ele>910.0</ele><time>2026-04-30T14:56:43.753Z</time></trkpt><trkpt lat="39.87122028658382" lon="9.458174005752577"><ele>908.5</ele><time>2026-04-30T14:56:44.753Z</time></trkpt><trkpt lat="39.87109973270766" lon="9.4582913693101"><ele>907.0</ele><time>2026-04-30T14:56:45.752Z</time></trkpt><trkpt lat="39.87100507666253" lon="9.458416080336649"><ele>907.0</ele><time>2026-04-30T14:56:46.752Z</time></trkpt><trkpt lat="39.87094533224551" lon="9.458583251202448"><ele>907.0</ele><time>2026-04-30T14:56:47.752Z</time></trkpt><trkpt lat="39.87093382279964" lon="9.458775050926441"><ele>907.0</ele><time>2026-04-30T14:56:48.752Z</time></trkpt><trkpt lat="39.87090324017721" lon="9.459007039666652"><ele>908.0</ele><time>2026-04-30T14:56:49.752Z</time></trkpt><trkpt lat="39.87090367420225" lon="9.45922574680335"><ele>909.0</ele><time>2026-04-30T14:56:50.752Z</time></trkpt><trkpt lat="39.87088341746929" lon="9.459450938131939"><ele>910.0</ele><time>2026-04-30T14:56:51.752Z</time></trkpt><trkpt lat="39.870844925399894" lon="9.459661325071794"><ele>910.0</ele><time>2026-04-30T14:56:52.752Z</time></trkpt><trkpt lat="39.87077838359849" lon="9.459890237863966"><ele>910.0</ele><time>2026-04-30T14:56:53.752Z</time></trkpt><trkpt lat="39.87069099900801" lon="9.460121982820587"><ele>910.0</ele><time>2026-04-30T14:56:54.752Z</time></trkpt><trkpt lat="39.87060411457895" lon="9.460350901345182"><ele>904.3333333333333</ele><time>2026-04-30T14:56:55.752Z</time></trkpt><trkpt lat="39.87053715661708" lon="9.460581483540391"><ele>898.6666666666667</ele><time>2026-04-30T14:56:56.752Z</time></trkpt><trkpt lat="39.87046288193379" lon="9.46079857229881"><ele>893.0</ele><time>2026-04-30T14:56:57.752Z</time></trkpt><trkpt lat="39.87038916038908" lon="9.461001119669147"><ele>893.0</ele><time>2026-04-30T14:56:58.752Z</time></trkpt><trkpt lat="39.87029238987449" lon="9.46118504420816"><ele>893.0</ele><time>2026-04-30T14:56:59.752Z</time></trkpt><trkpt lat="39.87018078503871" lon="9.461353812742296"><ele>893.0</ele><time>2026-04-30T14:57:00.752Z</time></trkpt><trkpt lat="39.87007818481974" lon="9.461484522050148"><ele>891.75</ele><time>2026-04-30T14:57:01.752Z</time></trkpt><trkpt lat="39.87001761711699" lon="9.46164020530339"><ele>890.5</ele><time>2026-04-30T14:57:02.752Z</time></trkpt><trkpt lat="39.86998166624734" lon="9.46181544295455"><ele>889.25</ele><time>2026-04-30T14:57:03.752Z</time></trkpt><trkpt lat="39.86994990277709" lon="9.462009393774187"><ele>888.0</ele><time>2026-04-30T14:57:04.752Z</time></trkpt><trkpt lat="39.86990244664675" lon="9.462202589608742"><ele>888.0</ele><time>2026-04-30T14:57:05.752Z</time></trkpt><trkpt lat="39.86986621864088" lon="9.462407499809352"><ele>888.0</ele><time>2026-04-30T14:57:06.752Z</time></trkpt><trkpt lat="39.86982108526651" lon="9.462614777565772"><ele>888.0</ele><time>2026-04-30T14:57:07.752Z</time></trkpt><trkpt lat="39.86975444387571" lon="9.462788512663268"><ele>881.3333333333333</ele><time>2026-04-30T14:57:08.752Z</time></trkpt><trkpt lat="39.86964959280512" lon="9.462953790466521"><ele>874.6666666666666</ele><time>2026-04-30T14:57:09.752Z</time></trkpt><trkpt lat="39.86952384219833" lon="9.463107603804175"><ele>868.0</ele><time>2026-04-30T14:57:10.752Z</time></trkpt><trkpt lat="39.86938475746355" lon="9.463249341549817"><ele>873.3333333333333</ele><time>2026-04-30T14:57:11.751Z</time></trkpt><trkpt lat="39.869252305134594" lon="9.463397972027073"><ele>878.6666666666667</ele><time>2026-04-30T14:57:12.751Z</time></trkpt><trkpt lat="39.86914231690134" lon="9.463559500320082"><ele>884.0</ele><time>2026-04-30T14:57:13.751Z</time></trkpt><trkpt lat="39.86902140302968" lon="9.46368655277966"><ele>879.0</ele><time>2026-04-30T14:57:14.751Z</time></trkpt><trkpt lat="39.86891402385363" lon="9.463817949087352"><ele>874.0</ele><time>2026-04-30T14:57:15.751Z</time></trkpt><trkpt lat="39.86879077023713" lon="9.463930877864932"><ele>869.0</ele><time>2026-04-30T14:57:16.751Z</time></trkpt><trkpt lat="39.86866968118786" lon="9.464031499640503"><ele>864.0</ele><time>2026-04-30T14:57:17.751Z</time></trkpt><trkpt lat="39.86853279283066" lon="9.464108203460762"><ele>866.0</ele><time>2026-04-30T14:57:18.751Z</time></trkpt><trkpt lat="39.868386558965234" lon="9.464153925457719"><ele>868.0</ele><time>2026-04-30T14:57:19.751Z</time></trkpt><trkpt lat="39.86823711767105" lon="9.464190047544372"><ele>870.0</ele><time>2026-04-30T14:57:20.751Z</time></trkpt><trkpt lat="39.86812476448658" lon="9.464297111665099"><ele>872.0</ele><time>2026-04-30T14:57:21.751Z</time></trkpt><trkpt lat="39.867990798515386" lon="9.464429318431934"><ele>872.0</ele><time>2026-04-30T14:57:22.751Z</time></trkpt><trkpt lat="39.86784306280476" lon="9.464554893619425"><ele>872.0</ele><time>2026-04-30T14:57:23.751Z</time></trkpt><trkpt lat="39.867699447232496" lon="9.464700220320946"><ele>872.0</ele><time>2026-04-30T14:57:24.751Z</time></trkpt><trkpt lat="39.867546678066475" lon="9.464860091972922"><ele>867.3333333333334</ele><time>2026-04-30T14:57:25.751Z</time></trkpt><trkpt lat="39.86739515596312" lon="9.464993098465662"><ele>862.6666666666667</ele><time>2026-04-30T14:57:26.751Z</time></trkpt><trkpt lat="39.8672385989436" lon="9.465141045684499"><ele>858.0</ele><time>2026-04-30T14:57:27.751Z</time></trkpt><trkpt lat="39.86709691580017" lon="9.4652740887008"><ele>858.0</ele><time>2026-04-30T14:57:28.751Z</time></trkpt><trkpt lat="39.86695109974338" lon="9.465401436093325"><ele>858.0</ele><time>2026-04-30T14:57:29.751Z</time></trkpt><trkpt lat="39.866814552110135" lon="9.4655336803971"><ele>858.0</ele><time>2026-04-30T14:57:30.751Z</time></trkpt><trkpt lat="39.86667841524714" lon="9.46566414216195"><ele>853.0</ele><time>2026-04-30T14:57:31.751Z</time></trkpt><trkpt lat="39.8665423531849" lon="9.465790263640423"><ele>848.0</ele><time>2026-04-30T14:57:32.751Z</time></trkpt><trkpt lat="39.866401692570015" lon="9.465903875949255"><ele>843.0</ele><time>2026-04-30T14:57:33.751Z</time></trkpt><trkpt lat="39.86625340518786" lon="9.465986746442336"><ele>843.0</ele><time>2026-04-30T14:57:34.751Z</time></trkpt><trkpt lat="39.866098082691046" lon="9.466024378406168"><ele>843.0</ele><time>2026-04-30T14:57:35.751Z</time></trkpt><trkpt lat="39.86593502688199" lon="9.466024447398231"><ele>843.0</ele><time>2026-04-30T14:57:36.75Z</time></trkpt><trkpt lat="39.8657829949787" lon="9.466028645058529"><ele>845.0</ele><time>2026-04-30T14:57:37.75Z</time></trkpt><trkpt lat="39.86563660435708" lon="9.466044242493135"><ele>847.0</ele><time>2026-04-30T14:57:38.752Z</time></trkpt><trkpt lat="39.86549123097775" lon="9.466094612437445"><ele>849.0</ele><time>2026-04-30T14:57:39.752Z</time></trkpt><trkpt lat="39.86536207422112" lon="9.46615440451389"><ele>851.0</ele><time>2026-04-30T14:57:40.752Z</time></trkpt><trkpt lat="39.86523825313401" lon="9.466244496595067"><ele>847.5</ele><time>2026-04-30T14:57:41.751Z</time></trkpt><trkpt lat="39.86514170089257" lon="9.46638121239459"><ele>844.0</ele><time>2026-04-30T14:57:42.751Z</time></trkpt><trkpt lat="39.86505184284537" lon="9.466528730192728"><ele>840.5</ele><time>2026-04-30T14:57:43.751Z</time></trkpt><trkpt lat="39.86495462967553" lon="9.466683688667311"><ele>837.0</ele><time>2026-04-30T14:57:44.751Z</time></trkpt><trkpt lat="39.86486271789362" lon="9.466858022081393"><ele>837.0</ele><time>2026-04-30T14:57:45.752Z</time></trkpt><trkpt lat="39.864758189409486" lon="9.467040275893616"><ele>837.0</ele><time>2026-04-30T14:57:46.752Z</time></trkpt><trkpt lat="39.86465336332815" lon="9.467201474226442"><ele>837.0</ele><time>2026-04-30T14:57:47.751Z</time></trkpt><trkpt lat="39.864541106806236" lon="9.467349382035836"><ele>832.75</ele><time>2026-04-30T14:57:48.751Z</time></trkpt><trkpt lat="39.86441658346801" lon="9.467445682270693"><ele>828.5</ele><time>2026-04-30T14:57:49.751Z</time></trkpt><trkpt lat="39.86427181454493" lon="9.467478916026087"><ele>824.25</ele><time>2026-04-30T14:57:50.751Z</time></trkpt><trkpt lat="39.86412246854031" lon="9.467464325238263"><ele>820.0</ele><time>2026-04-30T14:57:51.751Z</time></trkpt><trkpt lat="39.863959265048344" lon="9.46745883467664"><ele>820.0</ele><time>2026-04-30T14:57:52.751Z</time></trkpt><trkpt lat="39.863775557155066" lon="9.467427914760549"><ele>820.0</ele><time>2026-04-30T14:57:53.751Z</time></trkpt><trkpt lat="39.863582083231904" lon="9.467397045825962"><ele>820.0</ele><time>2026-04-30T14:57:54.751Z</time></trkpt><trkpt lat="39.86338281798755" lon="9.467371945886788"><ele>816.6666666666666</ele><time>2026-04-30T14:57:55.751Z</time></trkpt><trkpt lat="39.863182734961846" lon="9.467344457786663"><ele>813.3333333333333</ele><time>2026-04-30T14:57:56.751Z</time></trkpt><trkpt lat="39.862991177212756" lon="9.467317048265425"><ele>810.0</ele><time>2026-04-30T14:57:57.751Z</time></trkpt><trkpt lat="39.86281632948871" lon="9.467290982871637"><ele>810.0</ele><time>2026-04-30T14:57:58.751Z</time></trkpt><trkpt lat="39.862665065942366" lon="9.467264285289644"><ele>810.0</ele><time>2026-04-30T14:57:59.751Z</time></trkpt><trkpt lat="39.86253526327125" lon="9.467225174246348"><ele>810.0</ele><time>2026-04-30T14:58:00.751Z</time></trkpt><trkpt lat="39.86240739540441" lon="9.467231335087266"><ele>810.0</ele><time>2026-04-30T14:58:01.751Z</time></trkpt><trkpt lat="39.86228601036164" lon="9.467225868537936"><ele>809.25</ele><time>2026-04-30T14:58:02.751Z</time></trkpt><trkpt lat="39.862163835468635" lon="9.46719823240204"><ele>808.5</ele><time>2026-04-30T14:58:03.751Z</time></trkpt><trkpt lat="39.862033284320106" lon="9.467174772889786"><ele>807.75</ele><time>2026-04-30T14:58:04.751Z</time></trkpt><trkpt lat="39.86188575319132" lon="9.467159043707637"><ele>807.0</ele><time>2026-04-30T14:58:05.751Z</time></trkpt><trkpt lat="39.86173613900979" lon="9.467136819782294"><ele>810.0</ele><time>2026-04-30T14:58:06.751Z</time></trkpt><trkpt lat="39.86159261804231" lon="9.467115674512344"><ele>813.0</ele><time>2026-04-30T14:58:07.751Z</time></trkpt><trkpt lat="39.861458728425504" lon="9.467093148743174"><ele>816.0</ele><time>2026-04-30T14:58:08.751Z</time></trkpt><trkpt lat="39.86132577836619" lon="9.467072624123546"><ele>819.0</ele><time>2026-04-30T14:58:09.751Z</time></trkpt><trkpt lat="39.8611903919234" lon="9.467047819389522"><ele>819.0</ele><time>2026-04-30T14:58:10.751Z</time></trkpt><trkpt lat="39.861071396854214" lon="9.466978098484322"><ele>819.0</ele><time>2026-04-30T14:58:11.751Z</time></trkpt><trkpt lat="39.86095181887997" lon="9.466912218223014"><ele>819.0</ele><time>2026-04-30T14:58:12.751Z</time></trkpt><trkpt lat="39.86082949220617" lon="9.466827788396726"><ele>819.0</ele><time>2026-04-30T14:58:13.751Z</time></trkpt><trkpt lat="39.86071648895068" lon="9.466732095586822"><ele>815.5</ele><time>2026-04-30T14:58:14.751Z</time></trkpt><trkpt lat="39.860607698644515" lon="9.466634389463545"><ele>812.0</ele><time>2026-04-30T14:58:15.751Z</time></trkpt><trkpt lat="39.8604991745741" lon="9.466535711245333"><ele>808.5</ele><time>2026-04-30T14:58:16.75Z</time></trkpt><trkpt lat="39.86038376522982" lon="9.466455875373471"><ele>805.0</ele><time>2026-04-30T14:58:17.75Z</time></trkpt><trkpt lat="39.86027938298605" lon="9.466362296506524"><ele>805.0</ele><time>2026-04-30T14:58:18.75Z</time></trkpt><trkpt lat="39.8601803612388" lon="9.4662807443206"><ele>805.0</ele><time>2026-04-30T14:58:19.75Z</time></trkpt><trkpt lat="39.860084144906864" lon="9.466211205164555"><ele>805.0</ele><time>2026-04-30T14:58:20.75Z</time></trkpt><trkpt lat="39.8599845719316" lon="9.46616171532079"><ele>805.0</ele><time>2026-04-30T14:58:21.75Z</time></trkpt><trkpt lat="39.859886233081255" lon="9.466136458428885"><ele>805.0</ele><time>2026-04-30T14:58:22.75Z</time></trkpt><trkpt lat="39.85979576664412" lon="9.466116330809697"><ele>804.9999999999999</ele><time>2026-04-30T14:58:23.75Z</time></trkpt><trkpt lat="39.859703157789625" lon="9.466093314755275"><ele>805.0</ele><time>2026-04-30T14:58:24.75Z</time></trkpt><trkpt lat="39.859614423845294" lon="9.466074955368569"><ele>805.0</ele><time>2026-04-30T14:58:25.75Z</time></trkpt><trkpt lat="39.85952581106425" lon="9.466059433305194"><ele>805.0</ele><time>2026-04-30T14:58:26.75Z</time></trkpt><trkpt lat="39.859438528847406" lon="9.466040432475825"><ele>804.9999999999999</ele><time>2026-04-30T14:58:27.75Z</time></trkpt><trkpt lat="39.859353502988625" lon="9.466017592139313"><ele>805.0</ele><time>2026-04-30T14:58:28.75Z</time></trkpt><trkpt lat="39.85926205519558" lon="9.466018130875886"><ele>803.1666666666666</ele><time>2026-04-30T14:58:29.75Z</time></trkpt><trkpt lat="39.85917382152831" lon="9.466007866967848"><ele>801.3333333333333</ele><time>2026-04-30T14:58:30.75Z</time></trkpt><trkpt lat="39.85909409371082" lon="9.465987234284558"><ele>799.5</ele><time>2026-04-30T14:58:31.75Z</time></trkpt><trkpt lat="39.85901712724404" lon="9.465950994970889"><ele>797.6666666666667</ele><time>2026-04-30T14:58:32.75Z</time></trkpt><trkpt lat="39.8589366735766" lon="9.465897155489568"><ele>795.8333333333334</ele><time>2026-04-30T14:58:33.75Z</time></trkpt><trkpt lat="39.85886811807723" lon="9.465840251968805"><ele>794.0</ele><time>2026-04-30T14:58:34.75Z</time></trkpt><trkpt lat="39.85879740012786" lon="9.465787136252525"><ele>794.0</ele><time>2026-04-30T14:58:35.75Z</time></trkpt><trkpt lat="39.85873218386548" lon="9.465722170906608"><ele>794.0</ele><time>2026-04-30T14:58:36.75Z</time></trkpt><trkpt lat="39.85866000150705" lon="9.465681456326267"><ele>794.0</ele><time>2026-04-30T14:58:37.75Z</time></trkpt><trkpt lat="39.85859048971489" lon="9.46559920064521"><ele>794.0</ele><time>2026-04-30T14:58:38.75Z</time></trkpt><trkpt lat="39.85849130116556" lon="9.465562234727123"><ele>794.0</ele><time>2026-04-30T14:58:39.75Z</time></trkpt><trkpt lat="39.858382081035906" lon="9.465536691517046"><ele>793.25</ele><time>2026-04-30T14:58:40.75Z</time></trkpt><trkpt lat="39.85826503704563" lon="9.465513862556719"><ele>792.5</ele><time>2026-04-30T14:58:41.749Z</time></trkpt><trkpt lat="39.85814278416259" lon="9.46547646593975"><ele>791.75</ele><time>2026-04-30T14:58:42.749Z</time></trkpt><trkpt lat="39.85802033965198" lon="9.465415470113275"><ele>791.0</ele><time>2026-04-30T14:58:43.749Z</time></trkpt><trkpt lat="39.85788983561071" lon="9.465326322902447"><ele>791.3333333333334</ele><time>2026-04-30T14:58:44.749Z</time></trkpt><trkpt lat="39.8577507899386" lon="9.465242714138515"><ele>791.6666666666667</ele><time>2026-04-30T14:58:45.749Z</time></trkpt><trkpt lat="39.857597031048336" lon="9.465164254390345"><ele>792.0</ele><time>2026-04-30T14:58:46.75Z</time></trkpt><trkpt lat="39.85743425880071" lon="9.46508740165319"><ele>792.0</ele><time>2026-04-30T14:58:47.75Z</time></trkpt><trkpt lat="39.857261635272096" lon="9.4649930509415"><ele>792.0</ele><time>2026-04-30T14:58:48.75Z</time></trkpt><trkpt lat="39.85708632410244" lon="9.464877206721159"><ele>792.0</ele><time>2026-04-30T14:58:49.75Z</time></trkpt><trkpt lat="39.85691076495633" lon="9.464745794998992"><ele>789.6666666666667</ele><time>2026-04-30T14:58:50.75Z</time></trkpt><trkpt lat="39.85672714963181" lon="9.464605353988864"><ele>787.3333333333334</ele><time>2026-04-30T14:58:51.75Z</time></trkpt><trkpt lat="39.85654154658" lon="9.464479709642099"><ele>785.0</ele><time>2026-04-30T14:58:52.75Z</time></trkpt><trkpt lat="39.85636079347258" lon="9.464344723683848"><ele>785.0</ele><time>2026-04-30T14:58:53.75Z</time></trkpt><trkpt lat="39.85619091588597" lon="9.46422815860818"><ele>785.0</ele><time>2026-04-30T14:58:54.75Z</time></trkpt><trkpt lat="39.856029178301505" lon="9.464108900079271"><ele>785.0</ele><time>2026-04-30T14:58:55.75Z</time></trkpt><trkpt lat="39.85587120854406" lon="9.463996815936078"><ele>785.6666666666667</ele><time>2026-04-30T14:58:56.75Z</time></trkpt><trkpt lat="39.855717490773536" lon="9.463880416204153"><ele>786.3333333333333</ele><time>2026-04-30T14:58:57.75Z</time></trkpt><trkpt lat="39.85556218020858" lon="9.46376217688328"><ele>787.0</ele><time>2026-04-30T14:58:58.75Z</time></trkpt><trkpt lat="39.855411688211944" lon="9.463649795066592"><ele>787.6666666666666</ele><time>2026-04-30T14:58:59.75Z</time></trkpt><trkpt lat="39.85526083800137" lon="9.46353904235777"><ele>788.3333333333333</ele><time>2026-04-30T14:59:00.75Z</time></trkpt><trkpt lat="39.855110179913396" lon="9.463428502506412"><ele>789.0</ele><time>2026-04-30T14:59:01.75Z</time></trkpt><trkpt lat="39.85495975019732" lon="9.463324555209816"><ele>786.3333333333333</ele><time>2026-04-30T14:59:02.75Z</time></trkpt><trkpt lat="39.85480686345842" lon="9.463217152950994"><ele>783.6666666666666</ele><time>2026-04-30T14:59:03.75Z</time></trkpt><trkpt lat="39.85465388873946" lon="9.46310646937494"><ele>781.0</ele><time>2026-04-30T14:59:04.75Z</time></trkpt><trkpt lat="39.85450328379385" lon="9.462993948087737"><ele>782.3333333333333</ele><time>2026-04-30T14:59:05.75Z</time></trkpt><trkpt lat="39.85435530605284" lon="9.46288334880175"><ele>783.6666666666667</ele><time>2026-04-30T14:59:06.749Z</time></trkpt><trkpt lat="39.85421333899153" lon="9.462772573060363"><ele>785.0</ele><time>2026-04-30T14:59:07.749Z</time></trkpt><trkpt lat="39.8540625564603" lon="9.462668145413586"><ele>785.0</ele><time>2026-04-30T14:59:08.749Z</time></trkpt><trkpt lat="39.853915893023746" lon="9.462560548071984"><ele>785.0</ele><time>2026-04-30T14:59:09.749Z</time></trkpt><trkpt lat="39.85377218029489" lon="9.462448851438612"><ele>785.0</ele><time>2026-04-30T14:59:10.749Z</time></trkpt><trkpt lat="39.85362840808708" lon="9.462347163953083"><ele>785.0</ele><time>2026-04-30T14:59:11.749Z</time></trkpt><trkpt lat="39.85348337447449" lon="9.46224049150492"><ele>785.0</ele><time>2026-04-30T14:59:12.749Z</time></trkpt><trkpt lat="39.85334797326678" lon="9.462127151385165"><ele>785.0</ele><time>2026-04-30T14:59:13.749Z</time></trkpt><trkpt lat="39.85320548982344" lon="9.462016477340045"><ele>784.3333333333334</ele><time>2026-04-30T14:59:14.749Z</time></trkpt><trkpt lat="39.85306885833808" lon="9.461897275620583"><ele>783.6666666666667</ele><time>2026-04-30T14:59:15.749Z</time></trkpt><trkpt lat="39.852934949025396" lon="9.461770023102968"><ele>783.0</ele><time>2026-04-30T14:59:16.749Z</time></trkpt><trkpt lat="39.85279840596662" lon="9.461637684401236"><ele>783.0</ele><time>2026-04-30T14:59:17.749Z</time></trkpt><trkpt lat="39.852657728636125" lon="9.461498785225858"><ele>783.0</ele><time>2026-04-30T14:59:18.749Z</time></trkpt><trkpt lat="39.85251949007776" lon="9.461362510235164"><ele>783.0</ele><time>2026-04-30T14:59:19.749Z</time></trkpt><trkpt lat="39.85237051698759" lon="9.461221476177665"><ele>783.0</ele><time>2026-04-30T14:59:20.749Z</time></trkpt><trkpt lat="39.85222006883558" lon="9.461081233048546"><ele>783.0</ele><time>2026-04-30T14:59:21.749Z</time></trkpt><trkpt lat="39.8520658561675" lon="9.46093671172474"><ele>783.0</ele><time>2026-04-30T14:59:22.749Z</time></trkpt><trkpt lat="39.85191024625713" lon="9.460792594122152"><ele>781.0</ele><time>2026-04-30T14:59:23.749Z</time></trkpt><trkpt lat="39.8517521452023" lon="9.460644427083414"><ele>779.0</ele><time>2026-04-30T14:59:24.749Z</time></trkpt><trkpt lat="39.851593971317335" lon="9.460492254848315"><ele>777.0</ele><time>2026-04-30T14:59:25.749Z</time></trkpt><trkpt lat="39.851433408232296" lon="9.460337192833405"><ele>781.0</ele><time>2026-04-30T14:59:26.749Z</time></trkpt><trkpt lat="39.85127073327545" lon="9.460182938468076"><ele>785.0</ele><time>2026-04-30T14:59:27.749Z</time></trkpt><trkpt lat="39.85111749506896" lon="9.460037171327052"><ele>789.0</ele><time>2026-04-30T14:59:28.749Z</time></trkpt><trkpt lat="39.850975705206125" lon="9.459904551886776"><ele>790.0</ele><time>2026-04-30T14:59:29.749Z</time></trkpt><trkpt lat="39.8508301250689" lon="9.459787530303009"><ele>791.0</ele><time>2026-04-30T14:59:30.749Z</time></trkpt><trkpt lat="39.85067385386725" lon="9.4596859728158"><ele>792.0</ele><time>2026-04-30T14:59:31.748Z</time></trkpt><trkpt lat="39.850501601205714" lon="9.459610357174817"><ele>792.0</ele><time>2026-04-30T14:59:32.748Z</time></trkpt><trkpt lat="39.85032308749859" lon="9.459528402747177"><ele>792.0</ele><time>2026-04-30T14:59:33.748Z</time></trkpt><trkpt lat="39.85014071054665" lon="9.45945758101456"><ele>792.0</ele><time>2026-04-30T14:59:34.748Z</time></trkpt><trkpt lat="39.84995886977868" lon="9.459368394531678"><ele>789.0</ele><time>2026-04-30T14:59:35.748Z</time></trkpt><trkpt lat="39.84977415359393" lon="9.45927095026449"><ele>786.0</ele><time>2026-04-30T14:59:36.748Z</time></trkpt><trkpt lat="39.84959473010453" lon="9.459156916930057"><ele>783.0</ele><time>2026-04-30T14:59:37.748Z</time></trkpt><trkpt lat="39.849417709782" lon="9.459032924173142"><ele>783.0</ele><time>2026-04-30T14:59:38.748Z</time></trkpt><trkpt lat="39.84924142123017" lon="9.458901303306513"><ele>783.0</ele><time>2026-04-30T14:59:39.748Z</time></trkpt><trkpt lat="39.84906937977386" lon="9.458772038041332"><ele>783.0</ele><time>2026-04-30T14:59:40.748Z</time></trkpt><trkpt lat="39.8488942315814" lon="9.458651522594456"><ele>782.3333333333333</ele><time>2026-04-30T14:59:41.748Z</time></trkpt><trkpt lat="39.84871820549022" lon="9.458524195470845"><ele>781.6666666666666</ele><time>2026-04-30T14:59:42.748Z</time></trkpt><trkpt lat="39.84854398906778" lon="9.458397370677266"><ele>781.0</ele><time>2026-04-30T14:59:43.748Z</time></trkpt><trkpt lat="39.848372785625685" lon="9.458252799171985"><ele>781.0</ele><time>2026-04-30T14:59:44.749Z</time></trkpt><trkpt lat="39.84820935789969" lon="9.458082572768587"><ele>781.0</ele><time>2026-04-30T14:59:45.749Z</time></trkpt><trkpt lat="39.8480684926299" lon="9.457871952158369"><ele>781.0</ele><time>2026-04-30T14:59:46.749Z</time></trkpt><trkpt lat="39.847939821005255" lon="9.457657172761635"><ele>779.3333333333333</ele><time>2026-04-30T14:59:47.75Z</time></trkpt><trkpt lat="39.84782545066834" lon="9.457463119112235"><ele>777.6666666666667</ele><time>2026-04-30T14:59:48.749Z</time></trkpt><trkpt lat="39.84770932050145" lon="9.45731008157426"><ele>776.0</ele><time>2026-04-30T14:59:49.749Z</time></trkpt><trkpt lat="39.847568611853646" lon="9.457210004268674"><ele>776.0</ele><time>2026-04-30T14:59:50.749Z</time></trkpt><trkpt lat="39.84740750206695" lon="9.457168936633645"><ele>776.0</ele><time>2026-04-30T14:59:51.749Z</time></trkpt><trkpt lat="39.84723029457804" lon="9.457158522273463"><ele>776.0</ele><time>2026-04-30T14:59:52.749Z</time></trkpt><trkpt lat="39.847071471340904" lon="9.45713785380024"><ele>776.0</ele><time>2026-04-30T14:59:53.749Z</time></trkpt><trkpt lat="39.84694280821792" lon="9.457078974058625"><ele>776.0</ele><time>2026-04-30T14:59:54.748Z</time></trkpt><trkpt lat="39.846842908783664" lon="9.456971434911022"><ele>776.0</ele><time>2026-04-30T14:59:55.748Z</time></trkpt><trkpt lat="39.84677321942951" lon="9.456821993740492"><ele>776.0</ele><time>2026-04-30T14:59:56.749Z</time></trkpt><trkpt lat="39.84672390041125" lon="9.456632955536012"><ele>776.0</ele><time>2026-04-30T14:59:57.749Z</time></trkpt><trkpt lat="39.846616538220246" lon="9.45653869192045"><ele>776.0</ele><time>2026-04-30T14:59:58.749Z</time></trkpt><trkpt lat="39.846467565581996" lon="9.456491138037244"><ele>776.0</ele><time>2026-04-30T14:59:59.749Z</time></trkpt><trkpt lat="39.84629339963039" lon="9.456452198399015"><ele>776.0</ele><time>2026-04-30T15:00:00.749Z</time></trkpt><trkpt lat="39.84611037542853" lon="9.45640188092899"><ele>776.0</ele><time>2026-04-30T15:00:01.749Z</time></trkpt><trkpt lat="39.84593290757874" lon="9.456354587020735"><ele>776.0</ele><time>2026-04-30T15:00:02.749Z</time></trkpt><trkpt lat="39.84577809502829" lon="9.456277784867238"><ele>777.6666666666667</ele><time>2026-04-30T15:00:03.749Z</time></trkpt><trkpt lat="39.84565205421294" lon="9.456147985931105"><ele>779.3333333333333</ele><time>2026-04-30T15:00:04.749Z</time></trkpt><trkpt lat="39.84552228750368" lon="9.455985990711957"><ele>781.0</ele><time>2026-04-30T15:00:05.749Z</time></trkpt><trkpt lat="39.84537730685401" lon="9.455805116827758"><ele>781.0</ele><time>2026-04-30T15:00:06.748Z</time></trkpt><trkpt lat="39.84518135214098" lon="9.45565170790345"><ele>781.0</ele><time>2026-04-30T15:00:07.748Z</time></trkpt><trkpt lat="39.84497440647744" lon="9.455489249189252"><ele>784.0</ele><time>2026-04-30T15:00:08.748Z</time></trkpt><trkpt lat="39.844772551414096" lon="9.455301975053057"><ele>787.0</ele><time>2026-04-30T15:00:09.748Z</time></trkpt><trkpt lat="39.844572590324745" lon="9.455123561522207"><ele>787.0</ele><time>2026-04-30T15:00:10.748Z</time></trkpt><trkpt lat="39.84435318570572" lon="9.45496996881075"><ele>787.0</ele><time>2026-04-30T15:00:11.748Z</time></trkpt><trkpt lat="39.84413094290933" lon="9.454808790810658"><ele>782.0</ele><time>2026-04-30T15:00:12.748Z</time></trkpt><trkpt lat="39.84390178927606" lon="9.454615493490916"><ele>777.0</ele><time>2026-04-30T15:00:13.748Z</time></trkpt><trkpt lat="39.84369151149013" lon="9.454414971852001"><ele>777.0</ele><time>2026-04-30T15:00:14.748Z</time></trkpt><trkpt lat="39.84350217292307" lon="9.454218008577728"><ele>777.0</ele><time>2026-04-30T15:00:15.748Z</time></trkpt><trkpt lat="39.84333253813802" lon="9.45403340989274"><ele>780.3333333333333</ele><time>2026-04-30T15:00:16.748Z</time></trkpt><trkpt lat="39.84315196474487" lon="9.453876192563733"><ele>783.6666666666666</ele><time>2026-04-30T15:00:17.748Z</time></trkpt><trkpt lat="39.84294316542033" lon="9.453766818708866"><ele>787.0</ele><time>2026-04-30T15:00:18.748Z</time></trkpt><trkpt lat="39.84272876338319" lon="9.453677968429897"><ele>776.5</ele><time>2026-04-30T15:00:19.748Z</time></trkpt><trkpt lat="39.84251926523964" lon="9.453561844350363"><ele>766.0</ele><time>2026-04-30T15:00:20.748Z</time></trkpt><trkpt lat="39.84231767928541" lon="9.453410469896122"><ele>766.0</ele><time>2026-04-30T15:00:21.748Z</time></trkpt><trkpt lat="39.842130062755814" lon="9.453217527031473"><ele>766.0</ele><time>2026-04-30T15:00:22.748Z</time></trkpt><trkpt lat="39.84193972238154" lon="9.453011593263525"><ele>764.5</ele><time>2026-04-30T15:00:23.748Z</time></trkpt><trkpt lat="39.84175009053386" lon="9.452824871966879"><ele>763.0</ele><time>2026-04-30T15:00:24.748Z</time></trkpt><trkpt lat="39.8415367441584" lon="9.452657860209023"><ele>763.0</ele><time>2026-04-30T15:00:25.748Z</time></trkpt><trkpt lat="39.84131318933363" lon="9.452510257564649"><ele>763.0</ele><time>2026-04-30T15:00:26.748Z</time></trkpt><trkpt lat="39.841083946535015" lon="9.452376081901129"><ele>762.5</ele><time>2026-04-30T15:00:27.748Z</time></trkpt><trkpt lat="39.84086362683286" lon="9.452221460850382"><ele>762.0</ele><time>2026-04-30T15:00:28.748Z</time></trkpt><trkpt lat="39.840658645909656" lon="9.452040800652343"><ele>762.0</ele><time>2026-04-30T15:00:29.748Z</time></trkpt><trkpt lat="39.840464115675545" lon="9.451853719178962"><ele>762.0</ele><time>2026-04-30T15:00:30.748Z</time></trkpt><trkpt lat="39.840283859969894" lon="9.451692443286781"><ele>759.0</ele><time>2026-04-30T15:00:31.747Z</time></trkpt><trkpt lat="39.840112003825766" lon="9.45157098536704"><ele>756.0</ele><time>2026-04-30T15:00:32.747Z</time></trkpt><trkpt lat="39.83994177632185" lon="9.451497435156467"><ele>753.0</ele><time>2026-04-30T15:00:33.747Z</time></trkpt><trkpt lat="39.8397792969547" lon="9.451480693716022"><ele>753.0</ele><time>2026-04-30T15:00:34.747Z</time></trkpt><trkpt lat="39.839610421568" lon="9.451528113670875"><ele>753.0</ele><time>2026-04-30T15:00:35.747Z</time></trkpt><trkpt lat="39.839444993091355" lon="9.451571784629355"><ele>753.0</ele><time>2026-04-30T15:00:36.747Z</time></trkpt><trkpt lat="39.839296398876094" lon="9.451572590048613"><ele>752.3333333333334</ele><time>2026-04-30T15:00:37.747Z</time></trkpt><trkpt lat="39.83916491499389" lon="9.451511475674328"><ele>751.6666666666667</ele><time>2026-04-30T15:00:38.747Z</time></trkpt><trkpt lat="39.83904040868614" lon="9.45138939490052"><ele>751.0</ele><time>2026-04-30T15:00:39.747Z</time></trkpt><trkpt lat="39.838936443354825" lon="9.451216636234491"><ele>754.0</ele><time>2026-04-30T15:00:40.747Z</time></trkpt><trkpt lat="39.83884240919399" lon="9.451002509321963"><ele>757.0</ele><time>2026-04-30T15:00:41.747Z</time></trkpt><trkpt lat="39.83868060655993" lon="9.45083475416872"><ele>760.0</ele><time>2026-04-30T15:00:42.747Z</time></trkpt><trkpt lat="39.83847884204106" lon="9.450708603598056"><ele>755.0</ele><time>2026-04-30T15:00:43.747Z</time></trkpt><trkpt lat="39.83825185177762" lon="9.450600953528623"><ele>750.0</ele><time>2026-04-30T15:00:44.747Z</time></trkpt><trkpt lat="39.83803082706612" lon="9.450499070080344"><ele>749.6666666666666</ele><time>2026-04-30T15:00:45.747Z</time></trkpt><trkpt lat="39.837835060361265" lon="9.450410349117144"><ele>749.3333333333333</ele><time>2026-04-30T15:00:46.747Z</time></trkpt><trkpt lat="39.83765861996922" lon="9.450310045163"><ele>749.0</ele><time>2026-04-30T15:00:47.747Z</time></trkpt><trkpt lat="39.83751243231765" lon="9.45015385384845"><ele>749.0</ele><time>2026-04-30T15:00:48.747Z</time></trkpt><trkpt lat="39.8373744648235" lon="9.449951409363985"><ele>749.0</ele><time>2026-04-30T15:00:49.747Z</time></trkpt><trkpt lat="39.83724684167122" lon="9.449712746786542"><ele>749.0</ele><time>2026-04-30T15:00:50.747Z</time></trkpt><trkpt lat="39.837119192295425" lon="9.449449570660569"><ele>755.0</ele><time>2026-04-30T15:00:51.747Z</time></trkpt><trkpt lat="39.83698353376173" lon="9.449164320812052"><ele>761.0</ele><time>2026-04-30T15:00:52.747Z</time></trkpt><trkpt lat="39.83684730470802" lon="9.44888142248387"><ele>751.5</ele><time>2026-04-30T15:00:53.747Z</time></trkpt><trkpt lat="39.83671810681209" lon="9.44859227974108"><ele>742.0</ele><time>2026-04-30T15:00:54.747Z</time></trkpt><trkpt lat="39.83658612718995" lon="9.448301200664945"><ele>742.0</ele><time>2026-04-30T15:00:55.747Z</time></trkpt><trkpt lat="39.836463360997776" lon="9.448027958063676"><ele>742.0</ele><time>2026-04-30T15:00:56.746Z</time></trkpt><trkpt lat="39.83635027580573" lon="9.447772253822475"><ele>739.0</ele><time>2026-04-30T15:00:57.746Z</time></trkpt><trkpt lat="39.836221874297756" lon="9.44753609855822"><ele>736.0</ele><time>2026-04-30T15:00:58.746Z</time></trkpt><trkpt lat="39.8360907088987" lon="9.447339828938986"><ele>733.0</ele><time>2026-04-30T15:00:59.746Z</time></trkpt><trkpt lat="39.835967890455805" lon="9.447162858124152"><ele>734.3333333333334</ele><time>2026-04-30T15:01:00.746Z</time></trkpt><trkpt lat="39.835855580798885" lon="9.447014354596247"><ele>735.6666666666666</ele><time>2026-04-30T15:01:01.746Z</time></trkpt><trkpt lat="39.83577387013999" lon="9.446849084491124"><ele>737.0</ele><time>2026-04-30T15:01:02.746Z</time></trkpt><trkpt lat="39.83573087338559" lon="9.446668686801726"><ele>737.0</ele><time>2026-04-30T15:01:03.746Z</time></trkpt><trkpt lat="39.83570212101431" lon="9.446447694604093"><ele>737.0</ele><time>2026-04-30T15:01:04.746Z</time></trkpt><trkpt lat="39.835637582432604" lon="9.446232824463804"><ele>737.0</ele><time>2026-04-30T15:01:05.746Z</time></trkpt><trkpt lat="39.835524506462" lon="9.446011489101428"><ele>739.6666666666666</ele><time>2026-04-30T15:01:06.746Z</time></trkpt><trkpt lat="39.83539918705854" lon="9.445782276910572"><ele>742.3333333333334</ele><time>2026-04-30T15:01:07.746Z</time></trkpt><trkpt lat="39.83529330539102" lon="9.445517054687933"><ele>745.0</ele><time>2026-04-30T15:01:08.746Z</time></trkpt><trkpt lat="39.83519009238162" lon="9.445251033663087"><ele>741.3333333333334</ele><time>2026-04-30T15:01:09.746Z</time></trkpt><trkpt lat="39.83506845464833" lon="9.445020236914548"><ele>737.6666666666666</ele><time>2026-04-30T15:01:10.746Z</time></trkpt><trkpt lat="39.83494881841034" lon="9.444814656025303"><ele>734.0</ele><time>2026-04-30T15:01:11.746Z</time></trkpt><trkpt lat="39.83482521009704" lon="9.444617608725352"><ele>734.0</ele><time>2026-04-30T15:01:12.746Z</time></trkpt><trkpt lat="39.8347299093126" lon="9.444429200491134"><ele>734.0</ele><time>2026-04-30T15:01:13.746Z</time></trkpt><trkpt lat="39.83467851701327" lon="9.444212473503317"><ele>734.0</ele><time>2026-04-30T15:01:14.746Z</time></trkpt><trkpt lat="39.83467207098945" lon="9.44394779693446"><ele>732.6666666666666</ele><time>2026-04-30T15:01:15.746Z</time></trkpt><trkpt lat="39.83468137633436" lon="9.443666467960854"><ele>731.3333333333334</ele><time>2026-04-30T15:01:16.746Z</time></trkpt><trkpt lat="39.83468889256341" lon="9.44337187261721"><ele>730.0</ele><time>2026-04-30T15:01:17.746Z</time></trkpt><trkpt lat="39.83469276916603" lon="9.443076555197607"><ele>729.6666666666667</ele><time>2026-04-30T15:01:18.746Z</time></trkpt><trkpt lat="39.8347028300872" lon="9.442781235236211"><ele>729.3333333333334</ele><time>2026-04-30T15:01:19.746Z</time></trkpt><trkpt lat="39.83469487940645" lon="9.442527317728413"><ele>729.0</ele><time>2026-04-30T15:01:20.746Z</time></trkpt><trkpt lat="39.834665488211726" lon="9.442300007388358"><ele>733.3333333333334</ele><time>2026-04-30T15:01:21.745Z</time></trkpt><trkpt lat="39.834587619118835" lon="9.442102931972233"><ele>737.6666666666667</ele><time>2026-04-30T15:01:22.745Z</time></trkpt><trkpt lat="39.834485006177616" lon="9.441948730396204"><ele>742.0</ele><time>2026-04-30T15:01:23.745Z</time></trkpt><trkpt lat="39.834382357083896" lon="9.441814970034388"><ele>737.0</ele><time>2026-04-30T15:01:24.745Z</time></trkpt><trkpt lat="39.83426815486648" lon="9.441708908336661"><ele>732.0</ele><time>2026-04-30T15:01:25.745Z</time></trkpt><trkpt lat="39.83416135112244" lon="9.441637214338266"><ele>727.0</ele><time>2026-04-30T15:01:26.745Z</time></trkpt><trkpt lat="39.83405552120533" lon="9.441611360050574"><ele>722.0</ele><time>2026-04-30T15:01:27.745Z</time></trkpt><trkpt lat="39.833955191705094" lon="9.441646322838215"><ele>722.0</ele><time>2026-04-30T15:01:28.745Z</time></trkpt><trkpt lat="39.83386308159081" lon="9.441701978869517"><ele>722.0</ele><time>2026-04-30T15:01:29.745Z</time></trkpt><trkpt lat="39.83377581267181" lon="9.4417514828262"><ele>722.0</ele><time>2026-04-30T15:01:30.745Z</time></trkpt><trkpt lat="39.833670856221495" lon="9.441740568452985"><ele>722.0</ele><time>2026-04-30T15:01:31.745Z</time></trkpt><trkpt lat="39.83357321373132" lon="9.44165818132513"><ele>722.0</ele><time>2026-04-30T15:01:32.745Z</time></trkpt><trkpt lat="39.833483703118326" lon="9.44152268869229"><ele>721.6666666666666</ele><time>2026-04-30T15:01:33.745Z</time></trkpt><trkpt lat="39.8333931355285" lon="9.441368421024965"><ele>721.3333333333334</ele><time>2026-04-30T15:01:34.745Z</time></trkpt><trkpt lat="39.833312154107944" lon="9.441196124257718"><ele>721.0</ele><time>2026-04-30T15:01:35.745Z</time></trkpt><trkpt lat="39.8332711701125" lon="9.44098548265869"><ele>719.6666666666667</ele><time>2026-04-30T15:01:36.745Z</time></trkpt><trkpt lat="39.83325623743339" lon="9.44075728732419"><ele>718.3333333333334</ele><time>2026-04-30T15:01:37.745Z</time></trkpt><trkpt lat="39.83323374757364" lon="9.440537974163702"><ele>717.0</ele><time>2026-04-30T15:01:38.745Z</time></trkpt><trkpt lat="39.83320429482358" lon="9.440336469265882"><ele>716.0</ele><time>2026-04-30T15:01:39.745Z</time></trkpt><trkpt lat="39.833148678052424" lon="9.440178312760729"><ele>715.0</ele><time>2026-04-30T15:01:40.745Z</time></trkpt><trkpt lat="39.833049138923805" lon="9.440039350672425"><ele>714.0</ele><time>2026-04-30T15:01:41.745Z</time></trkpt><trkpt lat="39.832902641586365" lon="9.439899932870885"><ele>714.0</ele><time>2026-04-30T15:01:42.745Z</time></trkpt><trkpt lat="39.8327325506415" lon="9.439735551689994"><ele>714.0</ele><time>2026-04-30T15:01:43.745Z</time></trkpt><trkpt lat="39.83257625599424" lon="9.439508685972307"><ele>714.0</ele><time>2026-04-30T15:01:44.745Z</time></trkpt><trkpt lat="39.832424994897664" lon="9.439257945617543"><ele>712.5</ele><time>2026-04-30T15:01:45.745Z</time></trkpt><trkpt lat="39.83227320187553" lon="9.439007624857469"><ele>711.0</ele><time>2026-04-30T15:01:46.744Z</time></trkpt><trkpt lat="39.832145198767975" lon="9.438797728872514"><ele>707.3333333333334</ele><time>2026-04-30T15:01:47.744Z</time></trkpt><trkpt lat="39.83204665712477" lon="9.438600446473327"><ele>703.6666666666667</ele><time>2026-04-30T15:01:48.744Z</time></trkpt><trkpt lat="39.83200844857426" lon="9.438398575384213"><ele>700.0</ele><time>2026-04-30T15:01:49.744Z</time></trkpt><trkpt lat="39.83200701574464" lon="9.438153492410368"><ele>697.5</ele><time>2026-04-30T15:01:50.746Z</time></trkpt><trkpt lat="39.83203537842037" lon="9.437871984657937"><ele>695.0</ele><time>2026-04-30T15:01:51.746Z</time></trkpt><trkpt lat="39.832098000863915" lon="9.43755518272587"><ele>695.0</ele><time>2026-04-30T15:01:52.746Z</time></trkpt><trkpt lat="39.83214883154652" lon="9.43722796745232"><ele>695.0</ele><time>2026-04-30T15:01:53.746Z</time></trkpt><trkpt lat="39.832166999985326" lon="9.43689025680968"><ele>695.0</ele><time>2026-04-30T15:01:54.746Z</time></trkpt><trkpt lat="39.83217600818776" lon="9.43657800705962"><ele>695.0</ele><time>2026-04-30T15:01:55.746Z</time></trkpt><trkpt lat="39.83216422667899" lon="9.436265828378174"><ele>695.0</ele><time>2026-04-30T15:01:56.745Z</time></trkpt><trkpt lat="39.83212448904176" lon="9.435946112811067"><ele>695.0</ele><time>2026-04-30T15:01:57.746Z</time></trkpt><trkpt lat="39.832069693982874" lon="9.435623835966226"><ele>693.6666666666666</ele><time>2026-04-30T15:01:58.746Z</time></trkpt><trkpt lat="39.83202997922512" lon="9.435324874980038"><ele>692.3333333333334</ele><time>2026-04-30T15:01:59.745Z</time></trkpt><trkpt lat="39.832012568299" lon="9.43506744184053"><ele>691.0</ele><time>2026-04-30T15:02:00.746Z</time></trkpt><trkpt lat="39.83203304190836" lon="9.434821988468714"><ele>691.75</ele><time>2026-04-30T15:02:01.746Z</time></trkpt><trkpt lat="39.83208106041551" lon="9.434605737307733"><ele>692.5</ele><time>2026-04-30T15:02:02.745Z</time></trkpt><trkpt lat="39.832164761867325" lon="9.434458840689443"><ele>693.25</ele><time>2026-04-30T15:02:03.745Z</time></trkpt><trkpt lat="39.83226654036487" lon="9.434362963379918"><ele>694.0</ele><time>2026-04-30T15:02:04.745Z</time></trkpt><trkpt lat="39.832344724520325" lon="9.43425661122574"><ele>694.0</ele><time>2026-04-30T15:02:05.745Z</time></trkpt><trkpt lat="39.83238539755431" lon="9.434101754284242"><ele>694.0</ele><time>2026-04-30T15:02:06.745Z</time></trkpt><trkpt lat="39.83237723700904" lon="9.433897105710955"><ele>694.0</ele><time>2026-04-30T15:02:07.745Z</time></trkpt><trkpt lat="39.83237041205141" lon="9.433699866892507"><ele>694.0</ele><time>2026-04-30T15:02:08.745Z</time></trkpt><trkpt lat="39.8323998838732" lon="9.433498499639562"><ele>696.0</ele><time>2026-04-30T15:02:09.745Z</time></trkpt><trkpt lat="39.83252228545111" lon="9.433302594643616"><ele>698.0</ele><time>2026-04-30T15:02:10.745Z</time></trkpt><trkpt lat="39.83265371675608" lon="9.433104479594984"><ele>700.0</ele><time>2026-04-30T15:02:11.745Z</time></trkpt><trkpt lat="39.83276776731327" lon="9.432925478260406"><ele>696.25</ele><time>2026-04-30T15:02:12.745Z</time></trkpt><trkpt lat="39.83284273934883" lon="9.432769147401991"><ele>692.5</ele><time>2026-04-30T15:02:13.745Z</time></trkpt><trkpt lat="39.83288332620925" lon="9.43260715542668"><ele>688.75</ele><time>2026-04-30T15:02:14.745Z</time></trkpt><trkpt lat="39.832852081797064" lon="9.43240783274842"><ele>685.0</ele><time>2026-04-30T15:02:15.745Z</time></trkpt><trkpt lat="39.832789843619494" lon="9.432175437250145"><ele>684.6666666666667</ele><time>2026-04-30T15:02:16.745Z</time></trkpt><trkpt lat="39.832780382970896" lon="9.431912271101854"><ele>684.3333333333334</ele><time>2026-04-30T15:02:17.745Z</time></trkpt><trkpt lat="39.832830080915805" lon="9.431630550733722"><ele>684.0</ele><time>2026-04-30T15:02:18.745Z</time></trkpt><trkpt lat="39.83287630051117" lon="9.4313501866586"><ele>682.6666666666666</ele><time>2026-04-30T15:02:19.744Z</time></trkpt><trkpt lat="39.832914309959556" lon="9.431105102772724"><ele>681.3333333333333</ele><time>2026-04-30T15:02:20.744Z</time></trkpt><trkpt lat="39.83290815004584" lon="9.430869314830387"><ele>680.0</ele><time>2026-04-30T15:02:21.744Z</time></trkpt><trkpt lat="39.83286210323693" lon="9.430627318670977"><ele>679.0</ele><time>2026-04-30T15:02:22.744Z</time></trkpt><trkpt lat="39.83282423353615" lon="9.43040526384996"><ele>678.0</ele><time>2026-04-30T15:02:23.744Z</time></trkpt><trkpt lat="39.832816779826345" lon="9.430208743062435"><ele>677.0</ele><time>2026-04-30T15:02:24.744Z</time></trkpt><trkpt lat="39.83285816949914" lon="9.430035530517378"><ele>677.0</ele><time>2026-04-30T15:02:25.744Z</time></trkpt><trkpt lat="39.83294803720179" lon="9.429839077392286"><ele>677.0</ele><time>2026-04-30T15:02:26.744Z</time></trkpt><trkpt lat="39.83301466000583" lon="9.429605211164606"><ele>677.0</ele><time>2026-04-30T15:02:27.744Z</time></trkpt><trkpt lat="39.83305042466779" lon="9.429374223253987"><ele>677.6666666666666</ele><time>2026-04-30T15:02:28.744Z</time></trkpt><trkpt lat="39.83314378211886" lon="9.429162230575141"><ele>678.3333333333334</ele><time>2026-04-30T15:02:29.744Z</time></trkpt><trkpt lat="39.83326342194376" lon="9.428935976949612"><ele>679.0</ele><time>2026-04-30T15:02:30.744Z</time></trkpt><trkpt lat="39.83337229342922" lon="9.428673546285786"><ele>676.0</ele><time>2026-04-30T15:02:31.744Z</time></trkpt><trkpt lat="39.83347662006759" lon="9.428388887782127"><ele>673.0</ele><time>2026-04-30T15:02:32.744Z</time></trkpt><trkpt lat="39.83359437934209" lon="9.428103748099183"><ele>675.0</ele><time>2026-04-30T15:02:33.744Z</time></trkpt><trkpt lat="39.83373174532399" lon="9.427832387208976"><ele>677.0</ele><time>2026-04-30T15:02:34.744Z</time></trkpt><trkpt lat="39.833866721494196" lon="9.42758801659755"><ele>677.0</ele><time>2026-04-30T15:02:35.744Z</time></trkpt><trkpt lat="39.83401241119345" lon="9.427370452537538"><ele>677.0</ele><time>2026-04-30T15:02:36.744Z</time></trkpt><trkpt lat="39.834158261185884" lon="9.42715646335589"><ele>677.0</ele><time>2026-04-30T15:02:37.744Z</time></trkpt><trkpt lat="39.83426629716685" lon="9.426950809028186"><ele>679.3333333333333</ele><time>2026-04-30T15:02:38.744Z</time></trkpt><trkpt lat="39.834332421932686" lon="9.426775306369242"><ele>681.6666666666666</ele><time>2026-04-30T15:02:39.744Z</time></trkpt><trkpt lat="39.83433968414165" lon="9.426608632636064"><ele>684.0</ele><time>2026-04-30T15:02:40.744Z</time></trkpt><trkpt lat="39.83430504046406" lon="9.426378709550848"><ele>680.0</ele><time>2026-04-30T15:02:41.744Z</time></trkpt><trkpt lat="39.83426530241231" lon="9.426134383202946"><ele>676.0</ele><time>2026-04-30T15:02:42.744Z</time></trkpt><trkpt lat="39.834216203967756" lon="9.425892998249784"><ele>672.0</ele><time>2026-04-30T15:02:43.744Z</time></trkpt><trkpt lat="39.83416804100625" lon="9.425662222164396"><ele>668.3333333333334</ele><time>2026-04-30T15:02:44.743Z</time></trkpt><trkpt lat="39.83407583632514" lon="9.42542706456667"><ele>664.6666666666667</ele><time>2026-04-30T15:02:45.743Z</time></trkpt><trkpt lat="39.8339557054123" lon="9.425204074988205"><ele>661.0</ele><time>2026-04-30T15:02:46.743Z</time></trkpt><trkpt lat="39.83386146014977" lon="9.42500730135906"><ele>661.0</ele><time>2026-04-30T15:02:47.743Z</time></trkpt><trkpt lat="39.83383767795477" lon="9.424806880519217"><ele>661.0</ele><time>2026-04-30T15:02:48.743Z</time></trkpt><trkpt lat="39.83384545130164" lon="9.424609346470017"><ele>661.0</ele><time>2026-04-30T15:02:49.743Z</time></trkpt><trkpt lat="39.83387040027451" lon="9.42444652280004"><ele>661.0</ele><time>2026-04-30T15:02:50.743Z</time></trkpt><trkpt lat="39.83394900687894" lon="9.424290028585476"><ele>659.0</ele><time>2026-04-30T15:02:51.743Z</time></trkpt><trkpt lat="39.8340565209376" lon="9.424157697545978"><ele>657.0</ele><time>2026-04-30T15:02:52.743Z</time></trkpt><trkpt lat="39.83414774184865" lon="9.424019233841676"><ele>655.0</ele><time>2026-04-30T15:02:53.743Z</time></trkpt><trkpt lat="39.834185072232906" lon="9.42387743218441"><ele>653.0</ele><time>2026-04-30T15:02:54.743Z</time></trkpt><trkpt lat="39.83414970833634" lon="9.423710566953954"><ele>652.3333333333333</ele><time>2026-04-30T15:02:55.743Z</time></trkpt><trkpt lat="39.83407205880875" lon="9.423539638490936"><ele>651.6666666666666</ele><time>2026-04-30T15:02:56.743Z</time></trkpt><trkpt lat="39.83400340284427" lon="9.423347037342708"><ele>651.0</ele><time>2026-04-30T15:02:57.743Z</time></trkpt><trkpt lat="39.83398244323096" lon="9.423140741568806"><ele>650.0</ele><time>2026-04-30T15:02:58.743Z</time></trkpt><trkpt lat="39.83401139538967" lon="9.422910375096128"><ele>649.0</ele><time>2026-04-30T15:02:59.743Z</time></trkpt><trkpt lat="39.83409091495127" lon="9.42264530440889"><ele>648.0</ele><time>2026-04-30T15:03:00.743Z</time></trkpt><trkpt lat="39.83415740607185" lon="9.422363835975903"><ele>647.0</ele><time>2026-04-30T15:03:01.743Z</time></trkpt><trkpt lat="39.83421791245542" lon="9.422131519164711"><ele>646.0</ele><time>2026-04-30T15:03:02.743Z</time></trkpt><trkpt lat="39.83424996117702" lon="9.421934339157207"><ele>645.0</ele><time>2026-04-30T15:03:03.743Z</time></trkpt><trkpt lat="39.83423535311058" lon="9.421741184635463"><ele>645.0</ele><time>2026-04-30T15:03:04.743Z</time></trkpt><trkpt lat="39.83415981457158" lon="9.421496416450912"><ele>645.0</ele><time>2026-04-30T15:03:05.743Z</time></trkpt><trkpt lat="39.834066649102176" lon="9.421235988570084"><ele>645.0</ele><time>2026-04-30T15:03:06.743Z</time></trkpt><trkpt lat="39.83399676601379" lon="9.420987588891114"><ele>641.6666666666666</ele><time>2026-04-30T15:03:07.742Z</time></trkpt><trkpt lat="39.83396568987393" lon="9.420769225192213"><ele>638.3333333333333</ele><time>2026-04-30T15:03:08.742Z</time></trkpt><trkpt lat="39.833968720669844" lon="9.42056041424121"><ele>635.0</ele><time>2026-04-30T15:03:09.742Z</time></trkpt><trkpt lat="39.833966837727196" lon="9.420378185639832"><ele>631.3333333333333</ele><time>2026-04-30T15:03:10.742Z</time></trkpt><trkpt lat="39.83394071448377" lon="9.420233267037453"><ele>627.6666666666666</ele><time>2026-04-30T15:03:11.742Z</time></trkpt><trkpt lat="39.833802736730064" lon="9.420137290257493"><ele>624.0</ele><time>2026-04-30T15:03:12.742Z</time></trkpt><trkpt lat="39.83363079927137" lon="9.420056909180657"><ele>628.0</ele><time>2026-04-30T15:03:13.742Z</time></trkpt><trkpt lat="39.833415524468606" lon="9.419976989768509"><ele>632.0</ele><time>2026-04-30T15:03:14.742Z</time></trkpt><trkpt lat="39.8332411423953" lon="9.419862115823513"><ele>636.0</ele><time>2026-04-30T15:03:15.742Z</time></trkpt><trkpt lat="39.833111326279116" lon="9.419731652291686"><ele>629.3333333333334</ele><time>2026-04-30T15:03:16.742Z</time></trkpt><trkpt lat="39.83303838184345" lon="9.419570240901926"><ele>622.6666666666667</ele><time>2026-04-30T15:03:17.742Z</time></trkpt><trkpt lat="39.83296760845663" lon="9.419367483542315"><ele>616.0</ele><time>2026-04-30T15:03:18.742Z</time></trkpt><trkpt lat="39.83287356522646" lon="9.419111900451695"><ele>616.0</ele><time>2026-04-30T15:03:19.742Z</time></trkpt><trkpt lat="39.83276189911154" lon="9.418829852664414"><ele>616.0</ele><time>2026-04-30T15:03:20.742Z</time></trkpt><trkpt lat="39.83265720474709" lon="9.418530000140386"><ele>616.3333333333334</ele><time>2026-04-30T15:03:21.742Z</time></trkpt><trkpt lat="39.83254675098149" lon="9.41824734071698"><ele>616.6666666666666</ele><time>2026-04-30T15:03:22.742Z</time></trkpt><trkpt lat="39.83245618847743" lon="9.418006886850947"><ele>617.0</ele><time>2026-04-30T15:03:23.742Z</time></trkpt><trkpt lat="39.832370155812754" lon="9.417823940816298"><ele>617.0</ele><time>2026-04-30T15:03:24.742Z</time></trkpt><trkpt lat="39.83227432946187" lon="9.417689129387057"><ele>617.0</ele><time>2026-04-30T15:03:25.742Z</time></trkpt><trkpt lat="39.83212981148454" lon="9.417590267316823"><ele>617.0</ele><time>2026-04-30T15:03:26.742Z</time></trkpt><trkpt lat="39.83201643904921" lon="9.417468622888038"><ele>617.0</ele><time>2026-04-30T15:03:27.742Z</time></trkpt><trkpt lat="39.83196098260556" lon="9.417315986926965"><ele>617.0</ele><time>2026-04-30T15:03:28.742Z</time></trkpt><trkpt lat="39.83194470515884" lon="9.417151469669617"><ele>617.0</ele><time>2026-04-30T15:03:29.742Z</time></trkpt><trkpt lat="39.83198614111821" lon="9.416985186163036"><ele>617.0</ele><time>2026-04-30T15:03:30.742Z</time></trkpt><trkpt lat="39.8320379134011" lon="9.41675835075033"><ele>614.25</ele><time>2026-04-30T15:03:31.742Z</time></trkpt><trkpt lat="39.8320854320572" lon="9.41652889693434"><ele>611.5</ele><time>2026-04-30T15:03:32.741Z</time></trkpt><trkpt lat="39.83210785936149" lon="9.416347832333912"><ele>608.75</ele><time>2026-04-30T15:03:33.741Z</time></trkpt><trkpt lat="39.83206691973285" lon="9.41619927000829"><ele>606.0</ele><time>2026-04-30T15:03:34.741Z</time></trkpt><trkpt lat="39.83193402213679" lon="9.416078294388916"><ele>607.3333333333334</ele><time>2026-04-30T15:03:35.741Z</time></trkpt><trkpt lat="39.83178086952157" lon="9.415977537142442"><ele>608.6666666666667</ele><time>2026-04-30T15:03:36.741Z</time></trkpt><trkpt lat="39.831570463073064" lon="9.415908311008986"><ele>610.0</ele><time>2026-04-30T15:03:37.741Z</time></trkpt><trkpt lat="39.83135733818101" lon="9.415857969960106"><ele>610.0</ele><time>2026-04-30T15:03:38.741Z</time></trkpt><trkpt lat="39.831203043468996" lon="9.41575854826483"><ele>610.0</ele><time>2026-04-30T15:03:39.741Z</time></trkpt><trkpt lat="39.831113274905704" lon="9.415628040407022"><ele>610.0</ele><time>2026-04-30T15:03:40.741Z</time></trkpt><trkpt lat="39.83105160103316" lon="9.415462143309574"><ele>610.0</ele><time>2026-04-30T15:03:41.741Z</time></trkpt><trkpt lat="39.8309803680836" lon="9.415239931397181"><ele>608.3333333333334</ele><time>2026-04-30T15:03:42.741Z</time></trkpt><trkpt lat="39.830908241078276" lon="9.414974333935156"><ele>606.6666666666666</ele><time>2026-04-30T15:03:43.741Z</time></trkpt><trkpt lat="39.83085860359401" lon="9.414726485689975"><ele>605.0</ele><time>2026-04-30T15:03:44.741Z</time></trkpt><trkpt lat="39.830874316045396" lon="9.414487281723444"><ele>605.0</ele><time>2026-04-30T15:03:45.741Z</time></trkpt><trkpt lat="39.830886055395275" lon="9.414222287050512"><ele>605.0</ele><time>2026-04-30T15:03:46.741Z</time></trkpt><trkpt lat="39.83085553012466" lon="9.413965064555065"><ele>605.0</ele><time>2026-04-30T15:03:47.741Z</time></trkpt><trkpt lat="39.83080724272227" lon="9.41370294261813"><ele>600.3333333333333</ele><time>2026-04-30T15:03:48.741Z</time></trkpt><trkpt lat="39.83073090426598" lon="9.41343948907484"><ele>595.6666666666666</ele><time>2026-04-30T15:03:49.741Z</time></trkpt><trkpt lat="39.830669246569215" lon="9.413223972857894"><ele>591.0</ele><time>2026-04-30T15:03:50.741Z</time></trkpt><trkpt lat="39.83060718760448" lon="9.413046820274051"><ele>584.0</ele><time>2026-04-30T15:03:51.741Z</time></trkpt><trkpt lat="39.83050674092236" lon="9.412917995065685"><ele>577.0</ele><time>2026-04-30T15:03:52.741Z</time></trkpt><trkpt lat="39.83034715263183" lon="9.412817624838803"><ele>570.0</ele><time>2026-04-30T15:03:53.741Z</time></trkpt><trkpt lat="39.830156486866706" lon="9.41274801575475"><ele>576.25</ele><time>2026-04-30T15:03:54.741Z</time></trkpt><trkpt lat="39.82997266520792" lon="9.412684876110742"><ele>582.5</ele><time>2026-04-30T15:03:55.741Z</time></trkpt><trkpt lat="39.82985327282094" lon="9.412589293549575"><ele>588.75</ele><time>2026-04-30T15:03:56.742Z</time></trkpt><trkpt lat="39.82976748177522" lon="9.412509456328333"><ele>595.0</ele><time>2026-04-30T15:03:57.742Z</time></trkpt><trkpt lat="39.8297825730038" lon="9.412343904242748"><ele>595.0</ele><time>2026-04-30T15:03:58.742Z</time></trkpt><trkpt lat="39.829812160634035" lon="9.412173762925324"><ele>595.0</ele><time>2026-04-30T15:03:59.742Z</time></trkpt><trkpt lat="39.82987654700311" lon="9.411967352703847"><ele>595.0</ele><time>2026-04-30T15:04:00.743Z</time></trkpt><trkpt lat="39.829962091398905" lon="9.411699148867214"><ele>594.0</ele><time>2026-04-30T15:04:01.743Z</time></trkpt><trkpt lat="39.830082076493554" lon="9.41137867292024"><ele>593.0</ele><time>2026-04-30T15:04:02.742Z</time></trkpt><trkpt lat="39.830154982510926" lon="9.411078792207485"><ele>579.6666666666666</ele><time>2026-04-30T15:04:03.743Z</time></trkpt><trkpt lat="39.830208053273964" lon="9.410794390229507"><ele>566.3333333333334</ele><time>2026-04-30T15:04:04.743Z</time></trkpt><trkpt lat="39.830211699265305" lon="9.410519252052442"><ele>553.0</ele><time>2026-04-30T15:04:05.742Z</time></trkpt><trkpt lat="39.83018522593538" lon="9.410277306979346"><ele>553.0</ele><time>2026-04-30T15:04:06.743Z</time></trkpt><trkpt lat="39.830177018481535" lon="9.410083277499304"><ele>553.0</ele><time>2026-04-30T15:04:07.742Z</time></trkpt><trkpt lat="39.83015124553161" lon="9.40990564301065"><ele>553.0</ele><time>2026-04-30T15:04:08.742Z</time></trkpt><trkpt lat="39.83006251886114" lon="9.40973738443356"><ele>553.0</ele><time>2026-04-30T15:04:09.742Z</time></trkpt><trkpt lat="39.829935468754826" lon="9.409614268042878"><ele>554.25</ele><time>2026-04-30T15:04:10.742Z</time></trkpt><trkpt lat="39.82978163071219" lon="9.40955016688065"><ele>555.5</ele><time>2026-04-30T15:04:11.742Z</time></trkpt><trkpt lat="39.82963213448134" lon="9.409547458449751"><ele>556.75</ele><time>2026-04-30T15:04:12.742Z</time></trkpt><trkpt lat="39.82953021938298" lon="9.409545028476593"><ele>558.0</ele><time>2026-04-30T15:04:13.742Z</time></trkpt><trkpt lat="39.82949806272812" lon="9.409392027554786"><ele>558.0</ele><time>2026-04-30T15:04:15.742Z</time></trkpt><trkpt lat="39.829587158781514" lon="9.409342688657738"><ele>558.0</ele><time>2026-04-30T15:04:16.742Z</time></trkpt><trkpt lat="39.829686686906065" lon="9.409374377814737"><ele>558.0</ele><time>2026-04-30T15:04:17.742Z</time></trkpt><trkpt lat="39.829819673008025" lon="9.409440645656154"><ele>558.0</ele><time>2026-04-30T15:04:18.742Z</time></trkpt><trkpt lat="39.82999801770164" lon="9.40952011656942"><ele>556.3333333333334</ele><time>2026-04-30T15:04:19.742Z</time></trkpt><trkpt lat="39.830172764044825" lon="9.409613450927596"><ele>554.6666666666667</ele><time>2026-04-30T15:04:20.742Z</time></trkpt><trkpt lat="39.83031906963017" lon="9.409726225577781"><ele>553.0</ele><time>2026-04-30T15:04:21.742Z</time></trkpt><trkpt lat="39.830402471012285" lon="9.409861519620017"><ele>553.0</ele><time>2026-04-30T15:04:22.742Z</time></trkpt><trkpt lat="39.83044808031687" lon="9.4100338390854"><ele>553.0</ele><time>2026-04-30T15:04:23.741Z</time></trkpt><trkpt lat="39.83050968715046" lon="9.410258341803452"><ele>553.0</ele><time>2026-04-30T15:04:24.741Z</time></trkpt><trkpt lat="39.830546355743444" lon="9.410537236193623"><ele>552.6666666666667</ele><time>2026-04-30T15:04:25.741Z</time></trkpt><trkpt lat="39.830570060117644" lon="9.410829015390586"><ele>552.3333333333334</ele><time>2026-04-30T15:04:26.741Z</time></trkpt><trkpt lat="39.83060400531477" lon="9.411073006020032"><ele>552.0</ele><time>2026-04-30T15:04:27.741Z</time></trkpt><trkpt lat="39.83059104549748" lon="9.411284405071083"><ele>552.5</ele><time>2026-04-30T15:04:28.741Z</time></trkpt><trkpt lat="39.83052131298578" lon="9.411462660329974"><ele>553.0</ele><time>2026-04-30T15:04:29.741Z</time></trkpt><trkpt lat="39.8304809913288" lon="9.411647949483932"><ele>553.5</ele><time>2026-04-30T15:04:30.741Z</time></trkpt><trkpt lat="39.830451741563934" lon="9.411791901527717"><ele>554.0</ele><time>2026-04-30T15:04:31.741Z</time></trkpt><trkpt lat="39.83048997441416" lon="9.411917485260924"><ele>554.0</ele><time>2026-04-30T15:04:32.741Z</time></trkpt><trkpt lat="39.83058552829844" lon="9.412032189748235"><ele>554.0</ele><time>2026-04-30T15:04:33.741Z</time></trkpt><trkpt lat="39.83074312313472" lon="9.412092068176543"><ele>554.0</ele><time>2026-04-30T15:04:34.741Z</time></trkpt><trkpt lat="39.83091985489872" lon="9.412132161633178"><ele>548.75</ele><time>2026-04-30T15:04:35.741Z</time></trkpt><trkpt lat="39.83105884095504" lon="9.412217050566401"><ele>543.5</ele><time>2026-04-30T15:04:36.741Z</time></trkpt><trkpt lat="39.83117014750993" lon="9.412289995275318"><ele>538.25</ele><time>2026-04-30T15:04:37.741Z</time></trkpt><trkpt lat="39.83119794945713" lon="9.41243320762818"><ele>533.0</ele><time>2026-04-30T15:04:38.741Z</time></trkpt><trkpt lat="39.83126048185422" lon="9.412612266714126"><ele>533.0</ele><time>2026-04-30T15:04:39.741Z</time></trkpt><trkpt lat="39.83134003100078" lon="9.41284518237948"><ele>533.0</ele><time>2026-04-30T15:04:40.741Z</time></trkpt><trkpt lat="39.83142316239367" lon="9.413089926491024"><ele>533.0</ele><time>2026-04-30T15:04:41.741Z</time></trkpt><trkpt lat="39.83150858953231" lon="9.41334162827738"><ele>538.6666666666666</ele><time>2026-04-30T15:04:42.741Z</time></trkpt><trkpt lat="39.83157747211735" lon="9.413568905511744"><ele>544.3333333333334</ele><time>2026-04-30T15:04:43.741Z</time></trkpt><trkpt lat="39.83162310404762" lon="9.41376553475672"><ele>550.0</ele><time>2026-04-30T15:04:44.741Z</time></trkpt><trkpt lat="39.83167299832128" lon="9.413901519488881"><ele>549.6</ele><time>2026-04-30T15:04:45.741Z</time></trkpt><trkpt lat="39.831706859871055" lon="9.413992878542885"><ele>549.2</ele><time>2026-04-30T15:04:46.741Z</time></trkpt><trkpt lat="39.831766419066454" lon="9.414024053866127"><ele>548.8</ele><time>2026-04-30T15:04:47.741Z</time></trkpt><trkpt lat="39.83184886096076" lon="9.413991652682881"><ele>548.4</ele><time>2026-04-30T15:04:48.74Z</time></trkpt><trkpt lat="39.83190008897752" lon="9.413838335342502"><ele>548.0</ele><time>2026-04-30T15:04:49.74Z</time></trkpt><trkpt lat="39.83188890711167" lon="9.41365530983787"><ele>548.6666666666666</ele><time>2026-04-30T15:04:50.74Z</time></trkpt><trkpt lat="39.831810788457354" lon="9.413444875768509"><ele>549.3333333333334</ele><time>2026-04-30T15:04:51.74Z</time></trkpt><trkpt lat="39.831705404337406" lon="9.41321752440476"><ele>550.0</ele><time>2026-04-30T15:04:52.74Z</time></trkpt><trkpt lat="39.83160096724366" lon="9.412966318287635"><ele>544.3333333333334</ele><time>2026-04-30T15:04:53.74Z</time></trkpt><trkpt lat="39.831557220821566" lon="9.41273726966477"><ele>538.6666666666666</ele><time>2026-04-30T15:04:54.74Z</time></trkpt><trkpt lat="39.83153783422224" lon="9.412518853669313"><ele>533.0</ele><time>2026-04-30T15:04:55.74Z</time></trkpt><trkpt lat="39.83155448317373" lon="9.412282022189912"><ele>531.0</ele><time>2026-04-30T15:04:56.74Z</time></trkpt><trkpt lat="39.83156593394636" lon="9.412033412989151"><ele>529.0</ele><time>2026-04-30T15:04:57.74Z</time></trkpt><trkpt lat="39.83158123661209" lon="9.411833141284399"><ele>527.0</ele><time>2026-04-30T15:04:58.74Z</time></trkpt><trkpt lat="39.831583080917696" lon="9.41166832549448"><ele>527.0</ele><time>2026-04-30T15:04:59.74Z</time></trkpt><trkpt lat="39.83156701649062" lon="9.411530180003577"><ele>527.0</ele><time>2026-04-30T15:05:00.74Z</time></trkpt><trkpt lat="39.831487084891144" lon="9.411417649289708"><ele>527.0</ele><time>2026-04-30T15:05:01.74Z</time></trkpt><trkpt lat="39.83136510227209" lon="9.41134591901496"><ele>527.0</ele><time>2026-04-30T15:05:02.74Z</time></trkpt><trkpt lat="39.831261557946725" lon="9.411275669457767"><ele>525.5</ele><time>2026-04-30T15:05:03.74Z</time></trkpt><trkpt lat="39.83125431994362" lon="9.411129880946469"><ele>524.0</ele><time>2026-04-30T15:05:04.74Z</time></trkpt><trkpt lat="39.831297184013216" lon="9.411023994320447"><ele>522.5</ele><time>2026-04-30T15:05:05.74Z</time></trkpt><trkpt lat="39.83139007578065" lon="9.410889127002845"><ele>521.0</ele><time>2026-04-30T15:05:06.74Z</time></trkpt><trkpt lat="39.831463574413455" lon="9.410726939443675"><ele>521.0</ele><time>2026-04-30T15:05:07.74Z</time></trkpt><trkpt lat="39.83152285597999" lon="9.410534847188982"><ele>521.0</ele><time>2026-04-30T15:05:08.74Z</time></trkpt><trkpt lat="39.8315562981017" lon="9.410337043189076"><ele>521.0</ele><time>2026-04-30T15:05:09.74Z</time></trkpt><trkpt lat="39.83153379680163" lon="9.410095075158468"><ele>519.3333333333333</ele><time>2026-04-30T15:05:10.74Z</time></trkpt><trkpt lat="39.831475001183826" lon="9.409832517616886"><ele>517.6666666666666</ele><time>2026-04-30T15:05:11.74Z</time></trkpt><trkpt lat="39.8314801357281" lon="9.409599324905017"><ele>516.0</ele><time>2026-04-30T15:05:12.739Z</time></trkpt><trkpt lat="39.83151078880615" lon="9.40939288839211"><ele>515.5</ele><time>2026-04-30T15:05:13.739Z</time></trkpt><trkpt lat="39.8315599957141" lon="9.40921562075824"><ele>515.0</ele><time>2026-04-30T15:05:14.739Z</time></trkpt><trkpt lat="39.83163802270988" lon="9.409063967730546"><ele>514.5</ele><time>2026-04-30T15:05:15.739Z</time></trkpt><trkpt lat="39.83174434180648" lon="9.40893723224292"><ele>514.0</ele><time>2026-04-30T15:05:16.739Z</time></trkpt><trkpt lat="39.831857802059325" lon="9.408793970671532"><ele>510.6666666666667</ele><time>2026-04-30T15:05:17.739Z</time></trkpt><trkpt lat="39.83192720657166" lon="9.408607528311753"><ele>507.33333333333337</ele><time>2026-04-30T15:05:18.739Z</time></trkpt><trkpt lat="39.83198512928874" lon="9.408416863338642"><ele>504.0</ele><time>2026-04-30T15:05:19.739Z</time></trkpt><trkpt lat="39.83201912690642" lon="9.408210284978521"><ele>502.66666666666663</ele><time>2026-04-30T15:05:20.739Z</time></trkpt><trkpt lat="39.83201826922558" lon="9.407966249672725"><ele>501.3333333333333</ele><time>2026-04-30T15:05:21.739Z</time></trkpt><trkpt lat="39.831986832470555" lon="9.407724932414435"><ele>500.0</ele><time>2026-04-30T15:05:22.739Z</time></trkpt><trkpt lat="39.83195473047947" lon="9.407501692295918"><ele>500.0</ele><time>2026-04-30T15:05:23.739Z</time></trkpt><trkpt lat="39.831911643777545" lon="9.407326131228304"><ele>500.0</ele><time>2026-04-30T15:05:24.739Z</time></trkpt><trkpt lat="39.83185892424842" lon="9.407201745787376"><ele>500.0</ele><time>2026-04-30T15:05:25.739Z</time></trkpt><trkpt lat="39.8317788328635" lon="9.407132122877838"><ele>500.0</ele><time>2026-04-30T15:05:26.739Z</time></trkpt><trkpt lat="39.83164897911397" lon="9.407111201381674"><ele>498.0</ele><time>2026-04-30T15:05:27.739Z</time></trkpt><trkpt lat="39.83149205121395" lon="9.407111632151434"><ele>496.0</ele><time>2026-04-30T15:05:28.739Z</time></trkpt><trkpt lat="39.831362910964394" lon="9.4070301574954"><ele>494.0</ele><time>2026-04-30T15:05:29.739Z</time></trkpt><trkpt lat="39.83123599836821" lon="9.406877888592662"><ele>494.0</ele><time>2026-04-30T15:05:30.739Z</time></trkpt><trkpt lat="39.83108251267255" lon="9.40672278008558"><ele>494.0</ele><time>2026-04-30T15:05:31.739Z</time></trkpt><trkpt lat="39.83096464742346" lon="9.40656234524542"><ele>494.0</ele><time>2026-04-30T15:05:32.739Z</time></trkpt><trkpt lat="39.830856349428885" lon="9.406443387127942"><ele>494.25</ele><time>2026-04-30T15:05:33.739Z</time></trkpt><trkpt lat="39.830748193673905" lon="9.406368165096026"><ele>494.5</ele><time>2026-04-30T15:05:34.739Z</time></trkpt><trkpt lat="39.830621418606825" lon="9.406354028051986"><ele>494.75</ele><time>2026-04-30T15:05:35.739Z</time></trkpt><trkpt lat="39.830472763757946" lon="9.4064002400526"><ele>495.0</ele><time>2026-04-30T15:05:36.739Z</time></trkpt><trkpt lat="39.83032665658502" lon="9.40644275839098"><ele>495.0</ele><time>2026-04-30T15:05:37.738Z</time></trkpt><trkpt lat="39.83019083853813" lon="9.406441383356466"><ele>495.0</ele><time>2026-04-30T15:05:38.738Z</time></trkpt><trkpt lat="39.83010074570068" lon="9.406353778780158"><ele>495.0</ele><time>2026-04-30T15:05:39.738Z</time></trkpt><trkpt lat="39.83006874848553" lon="9.406229925421249"><ele>495.0</ele><time>2026-04-30T15:05:40.738Z</time></trkpt><trkpt lat="39.83010124717206" lon="9.406095781632821"><ele>497.75</ele><time>2026-04-30T15:05:41.738Z</time></trkpt><trkpt lat="39.830122749885" lon="9.405943431123362"><ele>500.5</ele><time>2026-04-30T15:05:42.738Z</time></trkpt><trkpt lat="39.830091280237404" lon="9.405815060424212"><ele>503.25</ele><time>2026-04-30T15:05:43.738Z</time></trkpt><trkpt lat="39.83000290871417" lon="9.405718960396397"><ele>506.0</ele><time>2026-04-30T15:05:44.738Z</time></trkpt><trkpt lat="39.82987899949041" lon="9.405689946399997"><ele>506.0</ele><time>2026-04-30T15:05:45.738Z</time></trkpt><trkpt lat="39.82975255354523" lon="9.40572390253058"><ele>506.0</ele><time>2026-04-30T15:05:46.738Z</time></trkpt><trkpt lat="39.82963406188638" lon="9.40577568953749"><ele>506.0</ele><time>2026-04-30T15:05:47.738Z</time></trkpt><trkpt lat="39.82952743177167" lon="9.405706646270762"><ele>506.0</ele><time>2026-04-30T15:05:48.738Z</time></trkpt><trkpt lat="39.829405851861225" lon="9.40557667405821"><ele>513.0</ele><time>2026-04-30T15:05:49.738Z</time></trkpt><trkpt lat="39.82926809752868" lon="9.405473042731673"><ele>520.0</ele><time>2026-04-30T15:05:50.738Z</time></trkpt><trkpt lat="39.82911563683928" lon="9.405433826266204"><ele>527.0</ele><time>2026-04-30T15:05:51.738Z</time></trkpt><trkpt lat="39.828954542499595" lon="9.405449821737069"><ele>527.0</ele><time>2026-04-30T15:05:52.738Z</time></trkpt><trkpt lat="39.828792694680516" lon="9.405460790273429"><ele>527.0</ele><time>2026-04-30T15:05:53.738Z</time></trkpt><trkpt lat="39.828643729787" lon="9.405430960665177"><ele>527.0</ele><time>2026-04-30T15:05:54.738Z</time></trkpt><trkpt lat="39.8285004887704" lon="9.405372812902922"><ele>527.5</ele><time>2026-04-30T15:05:55.738Z</time></trkpt><trkpt lat="39.82835728295658" lon="9.405313214570064"><ele>528.0</ele><time>2026-04-30T15:05:56.738Z</time></trkpt><trkpt lat="39.82824220077176" lon="9.405215595905124"><ele>528.5</ele><time>2026-04-30T15:05:57.738Z</time></trkpt><trkpt lat="39.82815767933009" lon="9.405113050850908"><ele>529.0</ele><time>2026-04-30T15:05:58.738Z</time></trkpt><trkpt lat="39.82806071970231" lon="9.405076509640038"><ele>529.0</ele><time>2026-04-30T15:05:59.738Z</time></trkpt><trkpt lat="39.82794785583697" lon="9.405070025305916"><ele>529.0</ele><time>2026-04-30T15:06:00.738Z</time></trkpt><trkpt lat="39.82782474499464" lon="9.405137661186945"><ele>529.0</ele><time>2026-04-30T15:06:01.738Z</time></trkpt><trkpt lat="39.82769849875844" lon="9.4051821655784"><ele>529.0</ele><time>2026-04-30T15:06:02.739Z</time></trkpt><trkpt lat="39.827573528710914" lon="9.40515958071984"><ele>529.5</ele><time>2026-04-30T15:06:03.738Z</time></trkpt><trkpt lat="39.82745084866862" lon="9.40515332342911"><ele>530.0</ele><time>2026-04-30T15:06:04.738Z</time></trkpt><trkpt lat="39.82731641420207" lon="9.40516340275216"><ele>530.5</ele><time>2026-04-30T15:06:05.738Z</time></trkpt><trkpt lat="39.827183208901026" lon="9.405153651046314"><ele>531.0</ele><time>2026-04-30T15:06:06.739Z</time></trkpt><trkpt lat="39.827056324167785" lon="9.405145915803086"><ele>531.0</ele><time>2026-04-30T15:06:07.738Z</time></trkpt><trkpt lat="39.82693710792178" lon="9.405151005286196"><ele>531.0</ele><time>2026-04-30T15:06:08.738Z</time></trkpt><trkpt lat="39.826816926089826" lon="9.405202042400733"><ele>531.0</ele><time>2026-04-30T15:06:09.739Z</time></trkpt><trkpt lat="39.82670507308896" lon="9.405296066145949"><ele>531.0</ele><time>2026-04-30T15:06:10.739Z</time></trkpt><trkpt lat="39.82660769096402" lon="9.405427726261719"><ele>526.75</ele><time>2026-04-30T15:06:11.738Z</time></trkpt><trkpt lat="39.826493487847166" lon="9.405550419150911"><ele>522.5</ele><time>2026-04-30T15:06:12.738Z</time></trkpt><trkpt lat="39.82638344735854" lon="9.405636129791919"><ele>518.25</ele><time>2026-04-30T15:06:13.738Z</time></trkpt><trkpt lat="39.826282297063365" lon="9.405686816923353"><ele>514.0</ele><time>2026-04-30T15:06:14.739Z</time></trkpt><trkpt lat="39.826173758657404" lon="9.405599432267683"><ele>518.75</ele><time>2026-04-30T15:06:15.738Z</time></trkpt><trkpt lat="39.82607760201088" lon="9.405482352819831"><ele>523.5</ele><time>2026-04-30T15:06:16.738Z</time></trkpt><trkpt lat="39.826010315305076" lon="9.405328420727294"><ele>528.25</ele><time>2026-04-30T15:06:17.738Z</time></trkpt><trkpt lat="39.82596762200293" lon="9.405121524006073"><ele>533.0</ele><time>2026-04-30T15:06:18.738Z</time></trkpt><trkpt lat="39.82587578572793" lon="9.40487236944632"><ele>540.3333333333333</ele><time>2026-04-30T15:06:19.738Z</time></trkpt><trkpt lat="39.825752496888335" lon="9.404661819320019"><ele>547.6666666666666</ele><time>2026-04-30T15:06:20.738Z</time></trkpt><trkpt lat="39.825648072049376" lon="9.404457031604418"><ele>555.0</ele><time>2026-04-30T15:06:21.738Z</time></trkpt><trkpt lat="39.825513921442706" lon="9.404353594804611"><ele>555.0</ele><time>2026-04-30T15:06:22.738Z</time></trkpt><trkpt lat="39.825415722412615" lon="9.404241784555337"><ele>555.0</ele><time>2026-04-30T15:06:23.738Z</time></trkpt><trkpt lat="39.82539868994849" lon="9.404085636398701"><ele>555.0</ele><time>2026-04-30T15:06:24.738Z</time></trkpt><trkpt lat="39.82535752233169" lon="9.403921366508794"><ele>555.0</ele><time>2026-04-30T15:06:25.738Z</time></trkpt><trkpt lat="39.82528399980651" lon="9.403794136878531"><ele>556.5</ele><time>2026-04-30T15:06:26.738Z</time></trkpt><trkpt lat="39.825212874192964" lon="9.403709990976159"><ele>558.0</ele><time>2026-04-30T15:06:27.738Z</time></trkpt><trkpt lat="39.825089587906156" lon="9.403755554296238"><ele>559.5</ele><time>2026-04-30T15:06:28.738Z</time></trkpt><trkpt lat="39.82498924215264" lon="9.403849087835805"><ele>561.0</ele><time>2026-04-30T15:06:29.738Z</time></trkpt><trkpt lat="39.82491728145174" lon="9.40400699411287"><ele>555.3333333333334</ele><time>2026-04-30T15:06:30.738Z</time></trkpt><trkpt lat="39.824806076021986" lon="9.404184203203481"><ele>549.6666666666667</ele><time>2026-04-30T15:06:31.738Z</time></trkpt><trkpt lat="39.82464559600308" lon="9.404354660683468"><ele>544.0</ele><time>2026-04-30T15:06:32.738Z</time></trkpt><trkpt lat="39.82448195978269" lon="9.404539064718758"><ele>542.25</ele><time>2026-04-30T15:06:33.738Z</time></trkpt><trkpt lat="39.82436813900114" lon="9.404666283705334"><ele>540.5</ele><time>2026-04-30T15:06:34.738Z</time></trkpt><trkpt lat="39.8242362952155" lon="9.404684738618409"><ele>538.75</ele><time>2026-04-30T15:06:35.737Z</time></trkpt><trkpt lat="39.82409006035074" lon="9.404666892829157"><ele>537.0</ele><time>2026-04-30T15:06:36.737Z</time></trkpt><trkpt lat="39.82388224168127" lon="9.404696150125071"><ele>537.0</ele><time>2026-04-30T15:06:37.737Z</time></trkpt><trkpt lat="39.823672943693154" lon="9.404768684924484"><ele>537.0</ele><time>2026-04-30T15:06:38.737Z</time></trkpt><trkpt lat="39.823422930025664" lon="9.404856283248023"><ele>544.5</ele><time>2026-04-30T15:06:39.737Z</time></trkpt><trkpt lat="39.823185814226036" lon="9.404875697895747"><ele>552.0</ele><time>2026-04-30T15:06:40.737Z</time></trkpt><trkpt lat="39.82295873141831" lon="9.404896298460288"><ele>552.0</ele><time>2026-04-30T15:06:41.737Z</time></trkpt><trkpt lat="39.82274762031376" lon="9.404916354040852"><ele>552.0</ele><time>2026-04-30T15:06:42.737Z</time></trkpt><trkpt lat="39.822565934418336" lon="9.40492677794288"><ele>552.0</ele><time>2026-04-30T15:06:43.737Z</time></trkpt><trkpt lat="39.82241351475547" lon="9.404915871631655"><ele>555.3333333333334</ele><time>2026-04-30T15:06:44.737Z</time></trkpt><trkpt lat="39.82227262255371" lon="9.40486278770387"><ele>558.6666666666667</ele><time>2026-04-30T15:06:45.737Z</time></trkpt><trkpt lat="39.82211724755682" lon="9.404765165159809"><ele>562.0</ele><time>2026-04-30T15:06:46.737Z</time></trkpt><trkpt lat="39.82194554949906" lon="9.404645112784086"><ele>567.0</ele><time>2026-04-30T15:06:47.737Z</time></trkpt><trkpt lat="39.82178213781059" lon="9.404530854234082"><ele>572.0</ele><time>2026-04-30T15:06:48.737Z</time></trkpt><trkpt lat="39.821647194624745" lon="9.404415548560886"><ele>577.0</ele><time>2026-04-30T15:06:49.737Z</time></trkpt><trkpt lat="39.82155248081303" lon="9.404276391722147"><ele>577.0</ele><time>2026-04-30T15:06:50.737Z</time></trkpt><trkpt lat="39.82148413817419" lon="9.404101942579839"><ele>577.0</ele><time>2026-04-30T15:06:51.737Z</time></trkpt><trkpt lat="39.82134968226032" lon="9.40398061084857"><ele>577.0</ele><time>2026-04-30T15:06:52.737Z</time></trkpt><trkpt lat="39.82120314197448" lon="9.403858641370345"><ele>582.3333333333334</ele><time>2026-04-30T15:06:53.737Z</time></trkpt><trkpt lat="39.82103176650294" lon="9.403761153939504"><ele>587.6666666666666</ele><time>2026-04-30T15:06:54.737Z</time></trkpt><trkpt lat="39.82086753774933" lon="9.403631547817946"><ele>593.0</ele><time>2026-04-30T15:06:55.737Z</time></trkpt><trkpt lat="39.82069420562359" lon="9.40355307963441"><ele>593.0</ele><time>2026-04-30T15:06:56.737Z</time></trkpt><trkpt lat="39.82050986329942" lon="9.403507796582865"><ele>593.0</ele><time>2026-04-30T15:06:57.737Z</time></trkpt><trkpt lat="39.82032439881675" lon="9.40351730083676"><ele>593.0</ele><time>2026-04-30T15:06:58.737Z</time></trkpt><trkpt lat="39.82012676688813" lon="9.403589269936052"><ele>593.0</ele><time>2026-04-30T15:06:59.737Z</time></trkpt><trkpt lat="39.819918411495706" lon="9.403618173293571"><ele>593.0</ele><time>2026-04-30T15:07:00.736Z</time></trkpt><trkpt lat="39.819727221904444" lon="9.403636827895564"><ele>593.0</ele><time>2026-04-30T15:07:01.736Z</time></trkpt><trkpt lat="39.819552258137364" lon="9.403701381230757"><ele>593.0</ele><time>2026-04-30T15:07:02.736Z</time></trkpt><trkpt lat="39.81937449695081" lon="9.40378571846336"><ele>593.0</ele><time>2026-04-30T15:07:03.736Z</time></trkpt><trkpt lat="39.81921535396625" lon="9.403892055093166"><ele>593.0</ele><time>2026-04-30T15:07:04.736Z</time></trkpt><trkpt lat="39.81906444074847" lon="9.403876317719915"><ele>590.25</ele><time>2026-04-30T15:07:05.736Z</time></trkpt><trkpt lat="39.818915751398315" lon="9.403902471053554"><ele>587.5</ele><time>2026-04-30T15:07:06.736Z</time></trkpt><trkpt lat="39.818806436146865" lon="9.40396009134487"><ele>584.75</ele><time>2026-04-30T15:07:07.736Z</time></trkpt><trkpt lat="39.81868539575416" lon="9.40408250260634"><ele>582.0</ele><time>2026-04-30T15:07:08.736Z</time></trkpt><trkpt lat="39.81856612716639" lon="9.4042148821416"><ele>588.0</ele><time>2026-04-30T15:07:09.736Z</time></trkpt><trkpt lat="39.818410176325095" lon="9.40422138201165"><ele>594.0</ele><time>2026-04-30T15:07:10.736Z</time></trkpt><trkpt lat="39.818235464245774" lon="9.404290212952862"><ele>600.0</ele><time>2026-04-30T15:07:11.736Z</time></trkpt><trkpt lat="39.81809962497082" lon="9.404421253828"><ele>600.0</ele><time>2026-04-30T15:07:12.736Z</time></trkpt><trkpt lat="39.817940884489836" lon="9.404511275681191"><ele>600.0</ele><time>2026-04-30T15:07:13.736Z</time></trkpt><trkpt lat="39.81777639522753" lon="9.404517415533956"><ele>600.0</ele><time>2026-04-30T15:07:14.736Z</time></trkpt><trkpt lat="39.81759828948916" lon="9.404513159285878"><ele>603.3333333333334</ele><time>2026-04-30T15:07:15.736Z</time></trkpt><trkpt lat="39.81743205786653" lon="9.404436232222386"><ele>606.6666666666667</ele><time>2026-04-30T15:07:16.736Z</time></trkpt><trkpt lat="39.81725104072752" lon="9.404381762002748"><ele>610.0</ele><time>2026-04-30T15:07:17.736Z</time></trkpt><trkpt lat="39.81710418031679" lon="9.404355885942602"><ele>610.0</ele><time>2026-04-30T15:07:18.736Z</time></trkpt><trkpt lat="39.81699992269065" lon="9.4042824533357"><ele>610.0</ele><time>2026-04-30T15:07:19.736Z</time></trkpt><trkpt lat="39.81696074522224" lon="9.40412593389342"><ele>610.0</ele><time>2026-04-30T15:07:20.736Z</time></trkpt><trkpt lat="39.81697891183622" lon="9.403964959853331"><ele>610.0</ele><time>2026-04-30T15:07:21.736Z</time></trkpt><trkpt lat="39.816976458635914" lon="9.403758593143072"><ele>613.6666666666667</ele><time>2026-04-30T15:07:22.736Z</time></trkpt><trkpt lat="39.81696344372744" lon="9.403476605689116"><ele>617.3333333333334</ele><time>2026-04-30T15:07:23.736Z</time></trkpt><trkpt lat="39.816973417537525" lon="9.403230494260756"><ele>621.0</ele><time>2026-04-30T15:07:24.736Z</time></trkpt><trkpt lat="39.816952695667226" lon="9.403028566613333"><ele>624.75</ele><time>2026-04-30T15:07:25.736Z</time></trkpt><trkpt lat="39.81688637524402" lon="9.402866195154406"><ele>628.5</ele><time>2026-04-30T15:07:26.735Z</time></trkpt><trkpt lat="39.81680486068224" lon="9.40271595465046"><ele>632.25</ele><time>2026-04-30T15:07:27.735Z</time></trkpt><trkpt lat="39.81679242298729" lon="9.402555003049901"><ele>636.0</ele><time>2026-04-30T15:07:28.735Z</time></trkpt><trkpt lat="39.816834759376526" lon="9.402395197613426"><ele>636.0</ele><time>2026-04-30T15:07:29.735Z</time></trkpt><trkpt lat="39.8168244378116" lon="9.402184931082347"><ele>636.0</ele><time>2026-04-30T15:07:30.735Z</time></trkpt><trkpt lat="39.81679384449153" lon="9.401957823304953"><ele>636.0</ele><time>2026-04-30T15:07:31.735Z</time></trkpt><trkpt lat="39.81671492854733" lon="9.401729306244507"><ele>640.0</ele><time>2026-04-30T15:07:32.735Z</time></trkpt><trkpt lat="39.81660776295836" lon="9.401540416849006"><ele>644.0</ele><time>2026-04-30T15:07:33.735Z</time></trkpt><trkpt lat="39.81647048497253" lon="9.401388520014516"><ele>648.0</ele><time>2026-04-30T15:07:34.735Z</time></trkpt><trkpt lat="39.81635753162855" lon="9.401229097849114"><ele>648.0</ele><time>2026-04-30T15:07:35.735Z</time></trkpt><trkpt lat="39.81628088143285" lon="9.40103701871375"><ele>648.0</ele><time>2026-04-30T15:07:36.735Z</time></trkpt><trkpt lat="39.816210926521414" lon="9.400834235574743"><ele>648.0</ele><time>2026-04-30T15:07:37.735Z</time></trkpt><trkpt lat="39.816121026454354" lon="9.400670183313617"><ele>648.0</ele><time>2026-04-30T15:07:38.735Z</time></trkpt><trkpt lat="39.81599162831897" lon="9.400553291485096"><ele>648.0</ele><time>2026-04-30T15:07:39.735Z</time></trkpt><trkpt lat="39.815832364709664" lon="9.400469067575566"><ele>648.0</ele><time>2026-04-30T15:07:40.735Z</time></trkpt><trkpt lat="39.81567384761615" lon="9.400374699931305"><ele>646.0</ele><time>2026-04-30T15:07:41.735Z</time></trkpt><trkpt lat="39.815558273598526" lon="9.40019698585532"><ele>644.0</ele><time>2026-04-30T15:07:42.735Z</time></trkpt><trkpt lat="39.81543344101613" lon="9.4000133319638"><ele>642.0</ele><time>2026-04-30T15:07:43.735Z</time></trkpt><trkpt lat="39.8153184733279" lon="9.399836660472017"><ele>635.6666666666666</ele><time>2026-04-30T15:07:44.735Z</time></trkpt><trkpt lat="39.81523035167991" lon="9.399664811567563"><ele>629.3333333333333</ele><time>2026-04-30T15:07:45.735Z</time></trkpt><trkpt lat="39.815161733218915" lon="9.399478223405673"><ele>623.0</ele><time>2026-04-30T15:07:46.735Z</time></trkpt><trkpt lat="39.815090363244295" lon="9.399308741841418"><ele>623.0</ele><time>2026-04-30T15:07:47.735Z</time></trkpt><trkpt lat="39.81509298354346" lon="9.399147825462768"><ele>623.0</ele><time>2026-04-30T15:07:48.735Z</time></trkpt><trkpt lat="39.81510762567091" lon="9.398987203586433"><ele>623.0</ele><time>2026-04-30T15:07:49.735Z</time></trkpt><trkpt lat="39.815123305581864" lon="9.398764100179475"><ele>623.0</ele><time>2026-04-30T15:07:50.735Z</time></trkpt><trkpt lat="39.815141271938884" lon="9.398508463809927"><ele>654.5</ele><time>2026-04-30T15:07:51.734Z</time></trkpt><trkpt lat="39.81516183357402" lon="9.39821816367883"><ele>686.0</ele><time>2026-04-30T15:07:52.734Z</time></trkpt><trkpt lat="39.81518362496515" lon="9.397924846908742"><ele>686.3333333333333</ele><time>2026-04-30T15:07:53.734Z</time></trkpt><trkpt lat="39.815197581524224" lon="9.397674979318438"><ele>686.6666666666666</ele><time>2026-04-30T15:07:54.734Z</time></trkpt><trkpt lat="39.81518064031188" lon="9.397458136645826"><ele>687.0</ele><time>2026-04-30T15:07:55.734Z</time></trkpt><trkpt lat="39.81519050254165" lon="9.397252671144424"><ele>682.0</ele><time>2026-04-30T15:07:56.734Z</time></trkpt><trkpt lat="39.815241874437426" lon="9.397059558673568"><ele>677.0</ele><time>2026-04-30T15:07:57.734Z</time></trkpt><trkpt lat="39.81522985518364" lon="9.396855658256762"><ele>672.0</ele><time>2026-04-30T15:07:58.734Z</time></trkpt><trkpt lat="39.8152264906334" lon="9.396669570621809"><ele>672.0</ele><time>2026-04-30T15:07:59.734Z</time></trkpt><trkpt lat="39.815272747787986" lon="9.39650612642195"><ele>672.0</ele><time>2026-04-30T15:08:00.734Z</time></trkpt><trkpt lat="39.81534041622529" lon="9.39635562796181"><ele>672.0</ele><time>2026-04-30T15:08:01.734Z</time></trkpt><trkpt lat="39.81543082813331" lon="9.396191882438655"><ele>672.0</ele><time>2026-04-30T15:08:02.734Z</time></trkpt><trkpt lat="39.81553467063216" lon="9.395991344642056"><ele>666.0</ele><time>2026-04-30T15:08:03.734Z</time></trkpt><trkpt lat="39.81559840221055" lon="9.395763051944593"><ele>660.0</ele><time>2026-04-30T15:08:04.734Z</time></trkpt><trkpt lat="39.81568891237995" lon="9.395541692303594"><ele>654.0</ele><time>2026-04-30T15:08:05.734Z</time></trkpt><trkpt lat="39.81576673839539" lon="9.395308107415204"><ele>650.0</ele><time>2026-04-30T15:08:06.734Z</time></trkpt><trkpt lat="39.815838443772485" lon="9.39509415737761"><ele>646.0</ele><time>2026-04-30T15:08:07.735Z</time></trkpt><trkpt lat="39.81590061735929" lon="9.39490864775581"><ele>642.0</ele><time>2026-04-30T15:08:08.735Z</time></trkpt><trkpt lat="39.81595663678282" lon="9.394741500682011"><ele>641.5</ele><time>2026-04-30T15:08:09.735Z</time></trkpt><trkpt lat="39.815993329877884" lon="9.394589182163253"><ele>641.0</ele><time>2026-04-30T15:08:10.736Z</time></trkpt><trkpt lat="39.815995966194336" lon="9.39443530476127"><ele>640.5</ele><time>2026-04-30T15:08:11.735Z</time></trkpt><trkpt lat="39.81590978339969" lon="9.394268517261333"><ele>640.0</ele><time>2026-04-30T15:08:12.735Z</time></trkpt><trkpt lat="39.8158136913873" lon="9.394093784630135"><ele>640.0</ele><time>2026-04-30T15:08:13.736Z</time></trkpt><trkpt lat="39.81577286660873" lon="9.39388205514138"><ele>640.0</ele><time>2026-04-30T15:08:14.734Z</time></trkpt><trkpt lat="39.815741725480365" lon="9.393626783002533"><ele>640.0</ele><time>2026-04-30T15:08:15.734Z</time></trkpt><trkpt lat="39.81571457571453" lon="9.39336190381181"><ele>644.0</ele><time>2026-04-30T15:08:16.735Z</time></trkpt><trkpt lat="39.81568867470105" lon="9.393113157782041"><ele>648.0</ele><time>2026-04-30T15:08:17.734Z</time></trkpt><trkpt lat="39.8156751603137" lon="9.392878329726111"><ele>652.0</ele><time>2026-04-30T15:08:18.734Z</time></trkpt><trkpt lat="39.81571899926515" lon="9.392690791790569"><ele>652.0</ele><time>2026-04-30T15:08:19.735Z</time></trkpt><trkpt lat="39.815786473541024" lon="9.392485158619852"><ele>652.0</ele><time>2026-04-30T15:08:20.735Z</time></trkpt><trkpt lat="39.81584248997887" lon="9.392245440848033"><ele>652.0</ele><time>2026-04-30T15:08:21.735Z</time></trkpt><trkpt lat="39.815907080578995" lon="9.391961917928697"><ele>649.0</ele><time>2026-04-30T15:08:22.735Z</time></trkpt><trkpt lat="39.81595903927684" lon="9.391732896379631"><ele>646.0</ele><time>2026-04-30T15:08:23.735Z</time></trkpt><trkpt lat="39.81600480666757" lon="9.391539360623227"><ele>643.0</ele><time>2026-04-30T15:08:24.735Z</time></trkpt><trkpt lat="39.816075730622934" lon="9.391387293301898"><ele>653.75</ele><time>2026-04-30T15:08:25.735Z</time></trkpt><trkpt lat="39.81616319409602" lon="9.391263631261188"><ele>664.5</ele><time>2026-04-30T15:08:26.735Z</time></trkpt><trkpt lat="39.81624172615153" lon="9.391143963004195"><ele>675.25</ele><time>2026-04-30T15:08:27.735Z</time></trkpt><trkpt lat="39.81628597136007" lon="9.39103778816989"><ele>686.0</ele><time>2026-04-30T15:08:28.735Z</time></trkpt><trkpt lat="39.81626212726834" lon="9.390888571804306"><ele>686.0</ele><time>2026-04-30T15:08:29.735Z</time></trkpt><trkpt lat="39.81622317685188" lon="9.390720970416718"><ele>686.0</ele><time>2026-04-30T15:08:30.735Z</time></trkpt><trkpt lat="39.816231596149116" lon="9.390563978036553"><ele>686.0</ele><time>2026-04-30T15:08:31.735Z</time></trkpt><trkpt lat="39.81625752357262" lon="9.390389147533696"><ele>686.0</ele><time>2026-04-30T15:08:32.735Z</time></trkpt><trkpt lat="39.816238117155926" lon="9.390200300864938"><ele>689.0</ele><time>2026-04-30T15:08:33.735Z</time></trkpt><trkpt lat="39.81620730945569" lon="9.390032966591814"><ele>692.0</ele><time>2026-04-30T15:08:34.735Z</time></trkpt><trkpt lat="39.816141616064755" lon="9.389910855299156"><ele>695.0</ele><time>2026-04-30T15:08:35.735Z</time></trkpt><trkpt lat="39.81604798668621" lon="9.389823664759488"><ele>698.0</ele><time>2026-04-30T15:08:36.735Z</time></trkpt><trkpt lat="39.815933876732" lon="9.389775006868689"><ele>691.0</ele><time>2026-04-30T15:08:37.734Z</time></trkpt><trkpt lat="39.81583043098974" lon="9.389789583597294"><ele>684.0</ele><time>2026-04-30T15:08:38.734Z</time></trkpt><trkpt lat="39.81574482628152" lon="9.38988202397549"><ele>677.0</ele><time>2026-04-30T15:08:39.734Z</time></trkpt><trkpt lat="39.815652603222155" lon="9.390018956601587"><ele>670.0</ele><time>2026-04-30T15:08:40.734Z</time></trkpt><trkpt lat="39.81554364386447" lon="9.390134154866415"><ele>670.0</ele><time>2026-04-30T15:08:41.734Z</time></trkpt><trkpt lat="39.81537758105737" lon="9.390140297578027"><ele>670.0</ele><time>2026-04-30T15:08:42.734Z</time></trkpt><trkpt lat="39.81518103336395" lon="9.390139877238198"><ele>670.0</ele><time>2026-04-30T15:08:43.734Z</time></trkpt><trkpt lat="39.814980939866295" lon="9.390177719920597"><ele>672.3333333333334</ele><time>2026-04-30T15:08:44.734Z</time></trkpt><trkpt lat="39.814798638938136" lon="9.390235253633671"><ele>674.6666666666666</ele><time>2026-04-30T15:08:45.734Z</time></trkpt><trkpt lat="39.81462479793812" lon="9.390250990702151"><ele>677.0</ele><time>2026-04-30T15:08:46.734Z</time></trkpt><trkpt lat="39.81447362720997" lon="9.390205348362102"><ele>677.0</ele><time>2026-04-30T15:08:47.734Z</time></trkpt><trkpt lat="39.814322598912284" lon="9.390144362082388"><ele>677.0</ele><time>2026-04-30T15:08:48.734Z</time></trkpt><trkpt lat="39.814168944006134" lon="9.390026816875913"><ele>677.0</ele><time>2026-04-30T15:08:49.801Z</time></trkpt><trkpt lat="39.814011272273646" lon="9.389885502848399"><ele>676.6666666666666</ele><time>2026-04-30T15:08:50.801Z</time></trkpt><trkpt lat="39.81383722620905" lon="9.389789275852813"><ele>676.3333333333334</ele><time>2026-04-30T15:08:51.801Z</time></trkpt><trkpt lat="39.813680833924934" lon="9.389740001290942"><ele>676.0</ele><time>2026-04-30T15:08:52.801Z</time></trkpt><trkpt lat="39.81353020623778" lon="9.389735937374533"><ele>676.5</ele><time>2026-04-30T15:08:53.801Z</time></trkpt><trkpt lat="39.81340210354188" lon="9.389765599258904"><ele>677.0</ele><time>2026-04-30T15:08:54.801Z</time></trkpt><trkpt lat="39.813284814975766" lon="9.389843250494774"><ele>677.5</ele><time>2026-04-30T15:08:55.801Z</time></trkpt><trkpt lat="39.81319565843485" lon="9.390004256499346"><ele>678.0</ele><time>2026-04-30T15:08:56.801Z</time></trkpt><trkpt lat="39.813130251772975" lon="9.390211684385115"><ele>678.0</ele><time>2026-04-30T15:08:57.801Z</time></trkpt><trkpt lat="39.81306240730482" lon="9.390426256078817"><ele>678.0</ele><time>2026-04-30T15:08:58.801Z</time></trkpt><trkpt lat="39.813031186683006" lon="9.390643228411356"><ele>678.0</ele><time>2026-04-30T15:08:59.801Z</time></trkpt><trkpt lat="39.81303323886299" lon="9.390825478686692"><ele>676.2</ele><time>2026-04-30T15:09:00.801Z</time></trkpt><trkpt lat="39.813035682238386" lon="9.390973173944865"><ele>674.4</ele><time>2026-04-30T15:09:01.801Z</time></trkpt><trkpt lat="39.81301822830641" lon="9.391091702540466"><ele>672.6</ele><time>2026-04-30T15:09:02.8Z</time></trkpt><trkpt lat="39.812942306219334" lon="9.39116086632519"><ele>670.8000000000001</ele><time>2026-04-30T15:09:03.8Z</time></trkpt><trkpt lat="39.81284009872911" lon="9.391192937031892"><ele>669.0</ele><time>2026-04-30T15:09:04.8Z</time></trkpt><trkpt lat="39.81270199853487" lon="9.391243944407654"><ele>672.3333333333334</ele><time>2026-04-30T15:09:05.8Z</time></trkpt><trkpt lat="39.81254619725919" lon="9.391291022199521"><ele>675.6666666666667</ele><time>2026-04-30T15:09:06.8Z</time></trkpt><trkpt lat="39.81241289105294" lon="9.391389956552281"><ele>679.0</ele><time>2026-04-30T15:09:07.8Z</time></trkpt><trkpt lat="39.81229711708069" lon="9.391509309415357"><ele>679.0</ele><time>2026-04-30T15:09:08.8Z</time></trkpt><trkpt lat="39.8122093552914" lon="9.391653768550253"><ele>679.0</ele><time>2026-04-30T15:09:09.8Z</time></trkpt><trkpt lat="39.81210956373007" lon="9.391740464998302"><ele>679.0</ele><time>2026-04-30T15:09:10.8Z</time></trkpt><trkpt lat="39.81200970145278" lon="9.391738246294446"><ele>679.0</ele><time>2026-04-30T15:09:11.8Z</time></trkpt><trkpt lat="39.81189331554775" lon="9.39165799630328"><ele>682.75</ele><time>2026-04-30T15:09:12.8Z</time></trkpt><trkpt lat="39.81178330086745" lon="9.391692573297194"><ele>686.5</ele><time>2026-04-30T15:09:13.8Z</time></trkpt><trkpt lat="39.81168535679721" lon="9.391769899768775"><ele>690.25</ele><time>2026-04-30T15:09:14.8Z</time></trkpt><trkpt lat="39.81160407659096" lon="9.391906414771082"><ele>694.0</ele><time>2026-04-30T15:09:15.8Z</time></trkpt><trkpt lat="39.81152772706104" lon="9.392043138003885"><ele>694.0</ele><time>2026-04-30T15:09:16.8Z</time></trkpt><trkpt lat="39.81141373733733" lon="9.392137947989134"><ele>694.0</ele><time>2026-04-30T15:09:17.8Z</time></trkpt><trkpt lat="39.811296107910245" lon="9.392215791005054"><ele>694.0</ele><time>2026-04-30T15:09:18.8Z</time></trkpt><trkpt lat="39.81120171005338" lon="9.392323696457712"><ele>694.0</ele><time>2026-04-30T15:09:19.8Z</time></trkpt><trkpt lat="39.8111092227369" lon="9.392441904024137"><ele>695.75</ele><time>2026-04-30T15:09:20.8Z</time></trkpt><trkpt lat="39.81104815161991" lon="9.392584091906244"><ele>697.5</ele><time>2026-04-30T15:09:21.8Z</time></trkpt><trkpt lat="39.81099144147323" lon="9.392718582388524"><ele>699.25</ele><time>2026-04-30T15:09:22.8Z</time></trkpt><trkpt lat="39.81094860948952" lon="9.392852509016791"><ele>701.0</ele><time>2026-04-30T15:09:23.8Z</time></trkpt><trkpt lat="39.81090885034171" lon="9.392968321373447"><ele>700.1999999999999</ele><time>2026-04-30T15:09:24.8Z</time></trkpt><trkpt lat="39.81085183100514" lon="9.393073789516441"><ele>699.4</ele><time>2026-04-30T15:09:25.8Z</time></trkpt><trkpt lat="39.8107905432667" lon="9.393174074748632"><ele>698.6</ele><time>2026-04-30T15:09:26.8Z</time></trkpt><trkpt lat="39.81072434584726" lon="9.39327633332442"><ele>697.8</ele><time>2026-04-30T15:09:27.8Z</time></trkpt><trkpt lat="39.810637097293636" lon="9.393357898558595"><ele>697.0</ele><time>2026-04-30T15:09:28.8Z</time></trkpt><trkpt lat="39.810557410372766" lon="9.393439874355952"><ele>697.0</ele><time>2026-04-30T15:09:29.8Z</time></trkpt><trkpt lat="39.81047671606052" lon="9.393516139119344"><ele>697.0</ele><time>2026-04-30T15:09:30.8Z</time></trkpt><trkpt lat="39.810394206364194" lon="9.393590637669748"><ele>697.0</ele><time>2026-04-30T15:09:31.8Z</time></trkpt><trkpt lat="39.81031503525851" lon="9.39365771638701"><ele>697.0</ele><time>2026-04-30T15:09:32.8Z</time></trkpt><trkpt lat="39.810244383913286" lon="9.393730470376122"><ele>697.0</ele><time>2026-04-30T15:09:33.8Z</time></trkpt><trkpt lat="39.81018815617807" lon="9.393799201043047"><ele>698.6</ele><time>2026-04-30T15:09:34.8Z</time></trkpt><trkpt lat="39.81012325939104" lon="9.39388493645048"><ele>700.2</ele><time>2026-04-30T15:09:36.8Z</time></trkpt><trkpt lat="39.81006150984867" lon="9.394003925211795"><ele>701.8</ele><time>2026-04-30T15:09:38.799Z</time></trkpt><trkpt lat="39.81000422078771" lon="9.39409098164235"><ele>703.4</ele><time>2026-04-30T15:09:39.799Z</time></trkpt><trkpt lat="39.80994605547895" lon="9.394221890209575"><ele>705.0</ele><time>2026-04-30T15:09:40.799Z</time></trkpt><trkpt lat="39.80989408726154" lon="9.39436588129835"><ele>705.0</ele><time>2026-04-30T15:09:41.799Z</time></trkpt><trkpt lat="39.80985898933841" lon="9.394506494693537"><ele>705.0</ele><time>2026-04-30T15:09:42.799Z</time></trkpt><trkpt lat="39.80983345043715" lon="9.39465618107209"><ele>705.0</ele><time>2026-04-30T15:09:43.799Z</time></trkpt><trkpt lat="39.809791852948905" lon="9.394806356545754"><ele>705.0</ele><time>2026-04-30T15:09:44.799Z</time></trkpt><trkpt lat="39.8097704573256" lon="9.394969850339658"><ele>703.5</ele><time>2026-04-30T15:09:45.799Z</time></trkpt><trkpt lat="39.80975252851626" lon="9.39513589577679"><ele>702.0</ele><time>2026-04-30T15:09:46.799Z</time></trkpt><trkpt lat="39.8097213478492" lon="9.395273141653723"><ele>700.5</ele><time>2026-04-30T15:09:47.799Z</time></trkpt><trkpt lat="39.80968050802147" lon="9.395396021804645"><ele>699.0</ele><time>2026-04-30T15:09:48.799Z</time></trkpt><trkpt lat="39.80962715047238" lon="9.395523541269716"><ele>697.5</ele><time>2026-04-30T15:09:49.799Z</time></trkpt><trkpt lat="39.80955388460718" lon="9.39564346087153"><ele>696.0</ele><time>2026-04-30T15:09:50.799Z</time></trkpt><trkpt lat="39.80948721732378" lon="9.395788974914227"><ele>694.5</ele><time>2026-04-30T15:09:51.799Z</time></trkpt><trkpt lat="39.80941192137963" lon="9.395940447270117"><ele>693.0</ele><time>2026-04-30T15:09:52.799Z</time></trkpt><trkpt lat="39.809338179668806" lon="9.396098249300268"><ele>696.25</ele><time>2026-04-30T15:09:53.799Z</time></trkpt><trkpt lat="39.809257325749876" lon="9.396248500228848"><ele>699.5</ele><time>2026-04-30T15:09:54.799Z</time></trkpt><trkpt lat="39.80916780601689" lon="9.396394836045767"><ele>702.75</ele><time>2026-04-30T15:09:55.799Z</time></trkpt><trkpt lat="39.809077853428775" lon="9.396521202490229"><ele>706.0</ele><time>2026-04-30T15:09:56.799Z</time></trkpt><trkpt lat="39.80899655958612" lon="9.396634341660008"><ele>706.0</ele><time>2026-04-30T15:09:57.799Z</time></trkpt><trkpt lat="39.8089112236261" lon="9.396733075187152"><ele>706.0</ele><time>2026-04-30T15:09:58.799Z</time></trkpt><trkpt lat="39.80885419908808" lon="9.396849129565291"><ele>706.0</ele><time>2026-04-30T15:09:59.799Z</time></trkpt><trkpt lat="39.808811960226755" lon="9.397002122157136"><ele>706.0</ele><time>2026-04-30T15:10:00.799Z</time></trkpt><trkpt lat="39.8087944593535" lon="9.397156001593643"><ele>704.8</ele><time>2026-04-30T15:10:01.799Z</time></trkpt><trkpt lat="39.8087979451808" lon="9.397309068488786"><ele>703.5999999999999</ele><time>2026-04-30T15:10:02.799Z</time></trkpt><trkpt lat="39.80880140800082" lon="9.397449918995775"><ele>702.4</ele><time>2026-04-30T15:10:03.799Z</time></trkpt><trkpt lat="39.80879627529148" lon="9.397580314553268"><ele>701.2</ele><time>2026-04-30T15:10:04.799Z</time></trkpt><trkpt lat="39.80878774370703" lon="9.397697815470275"><ele>700.0</ele><time>2026-04-30T15:10:05.799Z</time></trkpt><trkpt lat="39.808779592652606" lon="9.397804973605238"><ele>700.0</ele><time>2026-04-30T15:10:06.799Z</time></trkpt><trkpt lat="39.8087750249609" lon="9.397911201660753"><ele>700.0</ele><time>2026-04-30T15:10:07.799Z</time></trkpt><trkpt lat="39.80876984536217" lon="9.398014204261528"><ele>700.0</ele><time>2026-04-30T15:10:08.799Z</time></trkpt><trkpt lat="39.80875708348564" lon="9.398106181947142"><ele>700.0</ele><time>2026-04-30T15:10:09.799Z</time></trkpt><trkpt lat="39.80875154840171" lon="9.39821857013002"><ele>700.0</ele><time>2026-04-30T15:10:10.799Z</time></trkpt><trkpt lat="39.80873827086704" lon="9.39832741336067"><ele>700.0</ele><time>2026-04-30T15:10:11.799Z</time></trkpt><trkpt lat="39.80874293249297" lon="9.39843510049995"><ele>700.0</ele><time>2026-04-30T15:10:12.798Z</time></trkpt><trkpt lat="39.80874849713227" lon="9.398543684277533"><ele>700.0</ele><time>2026-04-30T15:10:13.8Z</time></trkpt><trkpt lat="39.808743473406864" lon="9.39863960191389"><ele>700.0</ele><time>2026-04-30T15:10:14.8Z</time></trkpt><trkpt lat="39.80872900363591" lon="9.398734410750523"><ele>700.0</ele><time>2026-04-30T15:10:15.8Z</time></trkpt><trkpt lat="39.80870237644875" lon="9.398821497106034"><ele>700.0</ele><time>2026-04-30T15:10:16.799Z</time></trkpt><trkpt lat="39.80866784306464" lon="9.398921743333373"><ele>700.0</ele><time>2026-04-30T15:10:17.799Z</time></trkpt><trkpt lat="39.808614246219584" lon="9.399007359108367"><ele>700.0</ele><time>2026-04-30T15:10:18.799Z</time></trkpt><trkpt lat="39.808553730117325" lon="9.39906998684615"><ele>700.0</ele><time>2026-04-30T15:10:19.8Z</time></trkpt><trkpt lat="39.80848122906419" lon="9.399092760389966"><ele>700.0</ele><time>2026-04-30T15:10:20.799Z</time></trkpt><trkpt lat="39.80843313616234" lon="9.39897311100156"><ele>700.0</ele><time>2026-04-30T15:10:22.799Z</time></trkpt><trkpt lat="39.80847709408689" lon="9.398883576675193"><ele>700.0</ele><time>2026-04-30T15:10:23.799Z</time></trkpt><trkpt lat="39.80853910232214" lon="9.398807994018194"><ele>700.0</ele><time>2026-04-30T15:10:24.799Z</time></trkpt><trkpt lat="39.808594285655175" lon="9.398685094209828"><ele>700.0</ele><time>2026-04-30T15:10:25.8Z</time></trkpt><trkpt lat="39.808636999047636" lon="9.398516300685415"><ele>700.0</ele><time>2026-04-30T15:10:26.799Z</time></trkpt><trkpt lat="39.80862857334634" lon="9.398329553589502"><ele>700.0</ele><time>2026-04-30T15:10:27.799Z</time></trkpt><trkpt lat="39.80862530583236" lon="9.398158566648688"><ele>700.0</ele><time>2026-04-30T15:10:28.799Z</time></trkpt><trkpt lat="39.808590947359626" lon="9.397985675540927"><ele>700.0</ele><time>2026-04-30T15:10:29.799Z</time></trkpt><trkpt lat="39.808543535326" lon="9.3978057228616"><ele>700.0</ele><time>2026-04-30T15:10:30.799Z</time></trkpt><trkpt lat="39.80849566923878" lon="9.397635284203883"><ele>700.0</ele><time>2026-04-30T15:10:31.799Z</time></trkpt><trkpt lat="39.80845677414736" lon="9.397487541395547"><ele>700.0</ele><time>2026-04-30T15:10:32.799Z</time></trkpt><trkpt lat="39.80844380015605" lon="9.39735004428276"><ele>704.8333333333334</ele><time>2026-04-30T15:10:33.799Z</time></trkpt><trkpt lat="39.80842342869099" lon="9.397230865301996"><ele>709.6666666666667</ele><time>2026-04-30T15:10:34.799Z</time></trkpt><trkpt lat="39.80841788998261" lon="9.39712815146849"><ele>714.5</ele><time>2026-04-30T15:10:35.799Z</time></trkpt><trkpt lat="39.80841268435551" lon="9.397035826196264"><ele>719.3333333333334</ele><time>2026-04-30T15:10:36.799Z</time></trkpt><trkpt lat="39.808391135577196" lon="9.396946288925463"><ele>724.1666666666666</ele><time>2026-04-30T15:10:37.799Z</time></trkpt><trkpt lat="39.80838123385561" lon="9.396838313142371"><ele>729.0</ele><time>2026-04-30T15:10:38.799Z</time></trkpt><trkpt lat="39.80836335715019" lon="9.396724532990943"><ele>729.3333333333334</ele><time>2026-04-30T15:10:39.799Z</time></trkpt><trkpt lat="39.808339550768856" lon="9.39661626662352"><ele>729.6666666666666</ele><time>2026-04-30T15:10:40.799Z</time></trkpt><trkpt lat="39.80831754171723" lon="9.396518864044777"><ele>730.0</ele><time>2026-04-30T15:10:41.799Z</time></trkpt><trkpt lat="39.808300587738785" lon="9.396428151480118"><ele>730.3333333333333</ele><time>2026-04-30T15:10:42.799Z</time></trkpt><trkpt lat="39.808306546819644" lon="9.396328750737649"><ele>730.6666666666666</ele><time>2026-04-30T15:10:43.799Z</time></trkpt><trkpt lat="39.80832016452137" lon="9.396232567056996"><ele>731.0</ele><time>2026-04-30T15:10:44.799Z</time></trkpt><trkpt lat="39.80833847221454" lon="9.396147351916579"><ele>732.0</ele><time>2026-04-30T15:10:45.799Z</time></trkpt><trkpt lat="39.808375312937486" lon="9.396052870221157"><ele>733.0</ele><time>2026-04-30T15:10:46.799Z</time></trkpt><trkpt lat="39.80839268946556" lon="9.395970706770344"><ele>734.0</ele><time>2026-04-30T15:10:47.799Z</time></trkpt><trkpt lat="39.808397580894585" lon="9.395866365176857"><ele>735.0</ele><time>2026-04-30T15:10:48.799Z</time></trkpt><trkpt lat="39.80842558201672" lon="9.395766139839601"><ele>736.0</ele><time>2026-04-30T15:10:49.799Z</time></trkpt><trkpt lat="39.80844461528287" lon="9.39567326281345"><ele>737.0</ele><time>2026-04-30T15:10:50.799Z</time></trkpt><trkpt lat="39.8084629424959" lon="9.395580252948518"><ele>737.5714285714287</ele><time>2026-04-30T15:10:51.799Z</time></trkpt><trkpt lat="39.80847611127298" lon="9.395482957423969"><ele>738.1428571428571</ele><time>2026-04-30T15:10:52.799Z</time></trkpt><trkpt lat="39.808488441983584" lon="9.395381470923809"><ele>738.7142857142858</ele><time>2026-04-30T15:10:53.799Z</time></trkpt><trkpt lat="39.80849504841186" lon="9.395282076363353"><ele>739.2857142857143</ele><time>2026-04-30T15:10:54.799Z</time></trkpt><trkpt lat="39.808506469615715" lon="9.395192355734228"><ele>739.8571428571429</ele><time>2026-04-30T15:10:55.798Z</time></trkpt><trkpt lat="39.808516771882296" lon="9.395103549021236"><ele>740.4285714285714</ele><time>2026-04-30T15:10:56.798Z</time></trkpt><trkpt lat="39.808521397625924" lon="9.395017046254386"><ele>741.0</ele><time>2026-04-30T15:10:57.798Z</time></trkpt><trkpt lat="39.80852696227981" lon="9.394931131584997"><ele>738.5</ele><time>2026-04-30T15:10:58.798Z</time></trkpt><trkpt lat="39.80852413634283" lon="9.394840162430556"><ele>736.0</ele><time>2026-04-30T15:10:59.798Z</time></trkpt><trkpt lat="39.80852219161967" lon="9.394751139597007"><ele>733.5</ele><time>2026-04-30T15:11:00.798Z</time></trkpt><trkpt lat="39.80852193331148" lon="9.394662965515375"><ele>731.0</ele><time>2026-04-30T15:11:01.798Z</time></trkpt><trkpt lat="39.80853516008731" lon="9.394515588275949"><ele>728.5</ele><time>2026-04-30T15:11:03.798Z</time></trkpt><trkpt lat="39.808521589999806" lon="9.394356814186441"><ele>726.0</ele><time>2026-04-30T15:11:05.798Z</time></trkpt><trkpt lat="39.80852030267952" lon="9.394271809389515"><ele>725.9999999999999</ele><time>2026-04-30T15:11:06.798Z</time></trkpt><trkpt lat="39.80851700416348" lon="9.394188879370661"><ele>726.0</ele><time>2026-04-30T15:11:07.798Z</time></trkpt><trkpt lat="39.80851801504425" lon="9.394100249601976"><ele>726.0</ele><time>2026-04-30T15:11:08.798Z</time></trkpt><trkpt lat="39.8085128241187" lon="9.39401497858392"><ele>726.0</ele><time>2026-04-30T15:11:09.798Z</time></trkpt><trkpt lat="39.80851135000562" lon="9.393930352255062"><ele>726.0</ele><time>2026-04-30T15:11:10.798Z</time></trkpt><trkpt lat="39.80851906743192" lon="9.393846287020954"><ele>725.9999999999999</ele><time>2026-04-30T15:11:11.798Z</time></trkpt><trkpt lat="39.80853401914459" lon="9.393748630862532"><ele>726.0</ele><time>2026-04-30T15:11:12.798Z</time></trkpt><trkpt lat="39.808553858769216" lon="9.393651445363695"><ele>727.5</ele><time>2026-04-30T15:11:13.798Z</time></trkpt><trkpt lat="39.80856886758324" lon="9.393570400919359"><ele>729.0</ele><time>2026-04-30T15:11:14.798Z</time></trkpt><trkpt lat="39.80858647200756" lon="9.393474120805132"><ele>730.5</ele><time>2026-04-30T15:11:15.798Z</time></trkpt><trkpt lat="39.808593094703426" lon="9.393360429379554"><ele>732.0</ele><time>2026-04-30T15:11:16.798Z</time></trkpt><trkpt lat="39.80862324429789" lon="9.393247242828895"><ele>733.5</ele><time>2026-04-30T15:11:17.798Z</time></trkpt><trkpt lat="39.80865280458372" lon="9.393134098878004"><ele>735.0</ele><time>2026-04-30T15:11:18.798Z</time></trkpt><trkpt lat="39.808682574422654" lon="9.393040330877886"><ele>736.3333333333334</ele><time>2026-04-30T15:11:19.798Z</time></trkpt><trkpt lat="39.808720400991184" lon="9.392961070763137"><ele>737.6666666666666</ele><time>2026-04-30T15:11:20.798Z</time></trkpt><trkpt lat="39.808764026203185" lon="9.392886271296991"><ele>739.0</ele><time>2026-04-30T15:11:21.798Z</time></trkpt><trkpt lat="39.808827988778965" lon="9.392780493445764"><ele>740.3333333333333</ele><time>2026-04-30T15:11:23.798Z</time></trkpt><trkpt lat="39.8088637127052" lon="9.39269421518731"><ele>741.6666666666666</ele><time>2026-04-30T15:12:24.797Z</time></trkpt><trkpt lat="39.808875896944734" lon="9.392601063961747"><ele>743.0</ele><time>2026-04-30T15:12:26.797Z</time></trkpt><trkpt lat="39.808877845361664" lon="9.3925087343414"><ele>743.0</ele><time>2026-04-30T15:12:27.797Z</time></trkpt><trkpt lat="39.80887976452624" lon="9.392398601613793"><ele>743.0</ele><time>2026-04-30T15:12:28.797Z</time></trkpt><trkpt lat="39.80888623739975" lon="9.392278624534868"><ele>743.0</ele><time>2026-04-30T15:12:29.797Z</time></trkpt><trkpt lat="39.8088970751646" lon="9.392138127791691"><ele>743.0</ele><time>2026-04-30T15:12:30.797Z</time></trkpt><trkpt lat="39.8089138886227" lon="9.391984366289432"><ele>743.0</ele><time>2026-04-30T15:12:31.797Z</time></trkpt><trkpt lat="39.80893013605018" lon="9.391823941096648"><ele>745.0</ele><time>2026-04-30T15:12:32.797Z</time></trkpt><trkpt lat="39.8089629017697" lon="9.391657467784418"><ele>747.0</ele><time>2026-04-30T15:12:33.797Z</time></trkpt><trkpt lat="39.80901481522174" lon="9.391482600480135"><ele>749.0</ele><time>2026-04-30T15:12:34.797Z</time></trkpt><trkpt lat="39.809094365771124" lon="9.391319313451497"><ele>751.0</ele><time>2026-04-30T15:12:35.797Z</time></trkpt><trkpt lat="39.809192763842525" lon="9.391158292277195"><ele>749.3333333333334</ele><time>2026-04-30T15:12:36.797Z</time></trkpt><trkpt lat="39.809303774682746" lon="9.390986985627272"><ele>747.6666666666666</ele><time>2026-04-30T15:12:37.797Z</time></trkpt><trkpt lat="39.809422376344884" lon="9.39081224989026"><ele>746.0</ele><time>2026-04-30T15:12:38.797Z</time></trkpt><trkpt lat="39.80954599898881" lon="9.39065453588815"><ele>746.0</ele><time>2026-04-30T15:12:39.797Z</time></trkpt><trkpt lat="39.80968673469499" lon="9.390545252164806"><ele>746.0</ele><time>2026-04-30T15:12:40.797Z</time></trkpt><trkpt lat="39.80981713755958" lon="9.390432922538016"><ele>746.0</ele><time>2026-04-30T15:12:41.797Z</time></trkpt><trkpt lat="39.80990288875591" lon="9.39030222610332"><ele>752.0</ele><time>2026-04-30T15:12:42.797Z</time></trkpt><trkpt lat="39.8099818358521" lon="9.390122570534054"><ele>758.0</ele><time>2026-04-30T15:12:43.797Z</time></trkpt><trkpt lat="39.81003105475482" lon="9.389889751457309"><ele>764.0</ele><time>2026-04-30T15:12:44.797Z</time></trkpt><trkpt lat="39.8100717215005" lon="9.389638119690824"><ele>767.6666666666666</ele><time>2026-04-30T15:12:45.797Z</time></trkpt><trkpt lat="39.810146788323934" lon="9.389389663296875"><ele>771.3333333333333</ele><time>2026-04-30T15:12:46.797Z</time></trkpt><trkpt lat="39.810206377579455" lon="9.389143188403551"><ele>775.0</ele><time>2026-04-30T15:12:47.797Z</time></trkpt><trkpt lat="39.81026085395905" lon="9.388940496641943"><ele>774.75</ele><time>2026-04-30T15:12:48.797Z</time></trkpt><trkpt lat="39.8103328333751" lon="9.38880265646283"><ele>774.5</ele><time>2026-04-30T15:12:49.797Z</time></trkpt><trkpt lat="39.81043037978075" lon="9.388729102419074"><ele>774.25</ele><time>2026-04-30T15:12:50.797Z</time></trkpt><trkpt lat="39.81055410748672" lon="9.38862316024575"><ele>774.0</ele><time>2026-04-30T15:12:51.797Z</time></trkpt><trkpt lat="39.810682250207456" lon="9.388485037662692"><ele>774.0</ele><time>2026-04-30T15:12:52.796Z</time></trkpt><trkpt lat="39.81076635726562" lon="9.388260433643355"><ele>774.0</ele><time>2026-04-30T15:12:53.796Z</time></trkpt><trkpt lat="39.810902070453984" lon="9.388067462168596"><ele>774.0</ele><time>2026-04-30T15:12:54.796Z</time></trkpt><trkpt lat="39.81104377512095" lon="9.387943469632852"><ele>774.6666666666667</ele><time>2026-04-30T15:12:55.796Z</time></trkpt><trkpt lat="39.81120492120757" lon="9.387820381979202"><ele>775.3333333333334</ele><time>2026-04-30T15:12:56.796Z</time></trkpt><trkpt lat="39.811363063159426" lon="9.387692089840549"><ele>776.0</ele><time>2026-04-30T15:12:57.796Z</time></trkpt><trkpt lat="39.81150034695042" lon="9.387513618890157"><ele>776.0</ele><time>2026-04-30T15:12:58.796Z</time></trkpt><trkpt lat="39.81162675363779" lon="9.387310106329751"><ele>776.0</ele><time>2026-04-30T15:12:59.796Z</time></trkpt><trkpt lat="39.811755557386334" lon="9.387124858612896"><ele>776.0</ele><time>2026-04-30T15:13:00.796Z</time></trkpt><trkpt lat="39.81185029030503" lon="9.386973815550727"><ele>775.1999999999999</ele><time>2026-04-30T15:13:01.796Z</time></trkpt><trkpt lat="39.811915810005274" lon="9.386849708495545"><ele>774.4</ele><time>2026-04-30T15:13:02.796Z</time></trkpt><trkpt lat="39.811933924532966" lon="9.386736362387516"><ele>773.6</ele><time>2026-04-30T15:13:03.796Z</time></trkpt><trkpt lat="39.81189055525618" lon="9.386650394369612"><ele>772.8</ele><time>2026-04-30T15:13:04.796Z</time></trkpt><trkpt lat="39.81176544648577" lon="9.386650288456925"><ele>772.0</ele><time>2026-04-30T15:13:05.796Z</time></trkpt><trkpt lat="39.81169072812221" lon="9.3866358019397"><ele>773.3333333333333</ele><time>2026-04-30T15:13:06.796Z</time></trkpt><trkpt lat="39.81159007107887" lon="9.386893645707277"><ele>774.6666666666667</ele><time>2026-04-30T15:13:07.796Z</time></trkpt><trkpt lat="39.81150752471437" lon="9.387082256657635"><ele>776.0</ele><time>2026-04-30T15:13:08.796Z</time></trkpt><trkpt lat="39.811362098777806" lon="9.387272123716423"><ele>776.0</ele><time>2026-04-30T15:13:09.796Z</time></trkpt><trkpt lat="39.81117959159277" lon="9.387403746455337"><ele>776.0</ele><time>2026-04-30T15:13:10.796Z</time></trkpt><trkpt lat="39.81098703605427" lon="9.387559814861804"><ele>776.0</ele><time>2026-04-30T15:13:11.796Z</time></trkpt><trkpt lat="39.81076075788454" lon="9.38771186746915"><ele>787.0</ele><time>2026-04-30T15:13:12.796Z</time></trkpt><trkpt lat="39.81054130327888" lon="9.38786205572982"><ele>798.0</ele><time>2026-04-30T15:13:13.796Z</time></trkpt><trkpt lat="39.81032328590249" lon="9.38800097184188"><ele>798.0</ele><time>2026-04-30T15:13:14.796Z</time></trkpt><trkpt lat="39.81011104739752" lon="9.38811388946201"><ele>798.0</ele><time>2026-04-30T15:13:15.796Z</time></trkpt><trkpt lat="39.80992745991087" lon="9.388273319075152"><ele>798.0</ele><time>2026-04-30T15:13:16.796Z</time></trkpt><trkpt lat="39.80974141693046" lon="9.388411629451872"><ele>798.0</ele><time>2026-04-30T15:13:17.796Z</time></trkpt><trkpt lat="39.80954916072173" lon="9.38851970829594"><ele>798.0</ele><time>2026-04-30T15:13:18.796Z</time></trkpt><trkpt lat="39.809342770832764" lon="9.38861580326104"><ele>798.3333333333333</ele><time>2026-04-30T15:13:19.796Z</time></trkpt><trkpt lat="39.80913440258064" lon="9.388724674651083"><ele>798.6666666666666</ele><time>2026-04-30T15:13:20.796Z</time></trkpt><trkpt lat="39.80894122664759" lon="9.388846224447475"><ele>799.0</ele><time>2026-04-30T15:13:21.796Z</time></trkpt><trkpt lat="39.80878027417544" lon="9.388988879182058"><ele>799.0</ele><time>2026-04-30T15:13:22.796Z</time></trkpt><trkpt lat="39.8086464995586" lon="9.389197884328839"><ele>799.0</ele><time>2026-04-30T15:13:23.796Z</time></trkpt><trkpt lat="39.80852399863384" lon="9.389441770301067"><ele>799.0</ele><time>2026-04-30T15:13:24.796Z</time></trkpt><trkpt lat="39.80839460074231" lon="9.389643748303135"><ele>804.3333333333333</ele><time>2026-04-30T15:13:25.795Z</time></trkpt><trkpt lat="39.80829416463759" lon="9.389831077848918"><ele>809.6666666666667</ele><time>2026-04-30T15:13:26.795Z</time></trkpt><trkpt lat="39.80824199880844" lon="9.39006433046522"><ele>815.0</ele><time>2026-04-30T15:13:27.795Z</time></trkpt><trkpt lat="39.80821092129163" lon="9.390324014257542"><ele>811.0</ele><time>2026-04-30T15:13:28.795Z</time></trkpt><trkpt lat="39.80813090003364" lon="9.390553098227764"><ele>807.0</ele><time>2026-04-30T15:13:29.795Z</time></trkpt><trkpt lat="39.808027161410315" lon="9.390757107089991"><ele>803.0</ele><time>2026-04-30T15:13:30.795Z</time></trkpt><trkpt lat="39.807908181641" lon="9.390935027670608"><ele>803.0</ele><time>2026-04-30T15:13:31.795Z</time></trkpt><trkpt lat="39.80778968590207" lon="9.391095908880661"><ele>803.0</ele><time>2026-04-30T15:13:32.795Z</time></trkpt><trkpt lat="39.80763848255019" lon="9.391171347127255"><ele>803.0</ele><time>2026-04-30T15:13:33.795Z</time></trkpt><trkpt lat="39.807461835413164" lon="9.391246004018416"><ele>809.25</ele><time>2026-04-30T15:13:34.795Z</time></trkpt><trkpt lat="39.807288178708475" lon="9.391303169095593"><ele>815.5</ele><time>2026-04-30T15:13:35.795Z</time></trkpt><trkpt lat="39.807169539436295" lon="9.39128232846524"><ele>821.75</ele><time>2026-04-30T15:13:36.795Z</time></trkpt><trkpt lat="39.80708926584391" lon="9.391207151221478"><ele>828.0</ele><time>2026-04-30T15:13:37.795Z</time></trkpt><trkpt lat="39.80708392393642" lon="9.391041841003826"><ele>828.0</ele><time>2026-04-30T15:13:38.795Z</time></trkpt><trkpt lat="39.80708469789919" lon="9.390874402929956"><ele>828.0</ele><time>2026-04-30T15:13:39.795Z</time></trkpt><trkpt lat="39.80711533639883" lon="9.390663730297833"><ele>828.0</ele><time>2026-04-30T15:13:40.795Z</time></trkpt><trkpt lat="39.807201198802" lon="9.390426007254403"><ele>829.6666666666667</ele><time>2026-04-30T15:13:41.795Z</time></trkpt><trkpt lat="39.80727491910797" lon="9.390152649618399"><ele>831.3333333333334</ele><time>2026-04-30T15:13:42.795Z</time></trkpt><trkpt lat="39.807330766883155" lon="9.389939035873972"><ele>833.0</ele><time>2026-04-30T15:13:43.795Z</time></trkpt><trkpt lat="39.80732882517416" lon="9.389738366739856"><ele>834.4</ele><time>2026-04-30T15:13:44.795Z</time></trkpt><trkpt lat="39.80729556243808" lon="9.38954377908931"><ele>835.8</ele><time>2026-04-30T15:13:45.795Z</time></trkpt><trkpt lat="39.807244652981076" lon="9.389402664108932"><ele>837.2</ele><time>2026-04-30T15:13:46.795Z</time></trkpt><trkpt lat="39.80717768434757" lon="9.38933394297155"><ele>838.6</ele><time>2026-04-30T15:13:47.795Z</time></trkpt><trkpt lat="39.8070889915673" lon="9.389332483422843"><ele>840.0</ele><time>2026-04-30T15:13:48.795Z</time></trkpt><trkpt lat="39.80698239912382" lon="9.389413646085268"><ele>840.0</ele><time>2026-04-30T15:13:49.795Z</time></trkpt><trkpt lat="39.80687926319377" lon="9.389566671068064"><ele>840.0</ele><time>2026-04-30T15:13:50.795Z</time></trkpt><trkpt lat="39.806762089441925" lon="9.389770354253056"><ele>840.0</ele><time>2026-04-30T15:13:51.795Z</time></trkpt><trkpt lat="39.80662799722472" lon="9.389998874863343"><ele>839.3333333333333</ele><time>2026-04-30T15:13:52.795Z</time></trkpt><trkpt lat="39.8064904476887" lon="9.390215417017021"><ele>838.6666666666666</ele><time>2026-04-30T15:13:53.795Z</time></trkpt><trkpt lat="39.80635584396794" lon="9.390421072921743"><ele>838.0</ele><time>2026-04-30T15:13:54.795Z</time></trkpt><trkpt lat="39.80623808797967" lon="9.390637479907125"><ele>840.6666666666666</ele><time>2026-04-30T15:13:55.795Z</time></trkpt><trkpt lat="39.806154603084664" lon="9.390842333651207"><ele>843.3333333333333</ele><time>2026-04-30T15:13:56.795Z</time></trkpt><trkpt lat="39.80608146868261" lon="9.391015862559188"><ele>846.0</ele><time>2026-04-30T15:13:57.795Z</time></trkpt><trkpt lat="39.80597584075812" lon="9.39111132065797"><ele>846.0</ele><time>2026-04-30T15:13:58.794Z</time></trkpt><trkpt lat="39.805853837028145" lon="9.391166365700961"><ele>846.0</ele><time>2026-04-30T15:13:59.794Z</time></trkpt><trkpt lat="39.80571579418824" lon="9.39120861189874"><ele>846.0</ele><time>2026-04-30T15:14:00.794Z</time></trkpt><trkpt lat="39.80555017194263" lon="9.391163487881816"><ele>846.0</ele><time>2026-04-30T15:14:01.794Z</time></trkpt><trkpt lat="39.80535824043313" lon="9.391113694002417"><ele>846.0</ele><time>2026-04-30T15:14:02.794Z</time></trkpt><trkpt lat="39.805188412303934" lon="9.391084055781045"><ele>846.0</ele><time>2026-04-30T15:14:03.794Z</time></trkpt><trkpt lat="39.80507864430731" lon="9.391078388554874"><ele>846.0</ele><time>2026-04-30T15:14:04.794Z</time></trkpt><trkpt lat="39.804990302681034" lon="9.39115851775898"><ele>846.0</ele><time>2026-04-30T15:14:05.794Z</time></trkpt><trkpt lat="39.804899333223176" lon="9.391316552234592"><ele>843.6666666666667</ele><time>2026-04-30T15:14:06.794Z</time></trkpt><trkpt lat="39.80477304097051" lon="9.391498351048277"><ele>841.3333333333334</ele><time>2026-04-30T15:14:07.794Z</time></trkpt><trkpt lat="39.80460844689942" lon="9.391597731738678"><ele>839.0</ele><time>2026-04-30T15:14:08.794Z</time></trkpt><trkpt lat="39.80443841533779" lon="9.391643866906893"><ele>842.3333333333334</ele><time>2026-04-30T15:14:09.794Z</time></trkpt><trkpt lat="39.804256718732866" lon="9.39166263077"><ele>845.6666666666667</ele><time>2026-04-30T15:14:10.794Z</time></trkpt><trkpt lat="39.804057868854336" lon="9.391698986977271"><ele>849.0</ele><time>2026-04-30T15:14:11.794Z</time></trkpt><trkpt lat="39.80389935726819" lon="9.391701634028355"><ele>849.0</ele><time>2026-04-30T15:14:12.794Z</time></trkpt><trkpt lat="39.8037949340851" lon="9.391677469743035"><ele>849.0</ele><time>2026-04-30T15:14:13.794Z</time></trkpt><trkpt lat="39.80373620375012" lon="9.391602672064622"><ele>849.0</ele><time>2026-04-30T15:14:14.794Z</time></trkpt><trkpt lat="39.803732147402755" lon="9.391481598920661"><ele>849.0</ele><time>2026-04-30T15:14:15.794Z</time></trkpt><trkpt lat="39.803763420836695" lon="9.391334039035806"><ele>849.0</ele><time>2026-04-30T15:14:16.794Z</time></trkpt><trkpt lat="39.803793625513016" lon="9.39112154210952"><ele>853.6666666666667</ele><time>2026-04-30T15:14:17.794Z</time></trkpt><trkpt lat="39.80381430066147" lon="9.390873745329156"><ele>858.3333333333334</ele><time>2026-04-30T15:14:18.794Z</time></trkpt><trkpt lat="39.80380877250402" lon="9.39065204969756"><ele>863.0</ele><time>2026-04-30T15:14:19.794Z</time></trkpt><trkpt lat="39.80375425211492" lon="9.390450590167207"><ele>864.5</ele><time>2026-04-30T15:14:20.794Z</time></trkpt><trkpt lat="39.803673678735635" lon="9.390262498023224"><ele>866.0</ele><time>2026-04-30T15:14:21.794Z</time></trkpt><trkpt lat="39.80362232784991" lon="9.390103140919686"><ele>867.5</ele><time>2026-04-30T15:14:22.794Z</time></trkpt><trkpt lat="39.803650505262254" lon="9.389952602465982"><ele>869.0</ele><time>2026-04-30T15:14:23.794Z</time></trkpt><trkpt lat="39.80374300457059" lon="9.389857701177307"><ele>869.0</ele><time>2026-04-30T15:14:24.795Z</time></trkpt><trkpt lat="39.803871076081165" lon="9.389743439836508"><ele>869.0</ele><time>2026-04-30T15:14:25.795Z</time></trkpt><trkpt lat="39.804017840985956" lon="9.389560965806304"><ele>869.0</ele><time>2026-04-30T15:14:26.795Z</time></trkpt><trkpt lat="39.804191155298035" lon="9.389383433027923"><ele>872.5</ele><time>2026-04-30T15:14:27.795Z</time></trkpt><trkpt lat="39.804377977894106" lon="9.389199094095504"><ele>876.0</ele><time>2026-04-30T15:14:28.795Z</time></trkpt><trkpt lat="39.8045645933339" lon="9.389020739957212"><ele>876.0</ele><time>2026-04-30T15:14:29.795Z</time></trkpt><trkpt lat="39.80474257012692" lon="9.388842156460079"><ele>876.0</ele><time>2026-04-30T15:14:30.795Z</time></trkpt><trkpt lat="39.804905509413665" lon="9.388659192501088"><ele>876.0</ele><time>2026-04-30T15:14:31.795Z</time></trkpt><trkpt lat="39.80504894300196" lon="9.388456803174469"><ele>876.0</ele><time>2026-04-30T15:14:32.795Z</time></trkpt><trkpt lat="39.80518415489573" lon="9.3882382932012"><ele>876.0</ele><time>2026-04-30T15:14:33.795Z</time></trkpt><trkpt lat="39.80529510853859" lon="9.388025611167958"><ele>876.0</ele><time>2026-04-30T15:14:34.795Z</time></trkpt><trkpt lat="39.80537910283305" lon="9.387824341191546"><ele>877.3333333333333</ele><time>2026-04-30T15:14:35.795Z</time></trkpt><trkpt lat="39.805422135407404" lon="9.387636807365693"><ele>878.6666666666666</ele><time>2026-04-30T15:14:36.795Z</time></trkpt><trkpt lat="39.80542099898511" lon="9.387418752422787"><ele>880.0</ele><time>2026-04-30T15:14:37.795Z</time></trkpt><trkpt lat="39.8053722344637" lon="9.387183613039864"><ele>883.0</ele><time>2026-04-30T15:14:38.795Z</time></trkpt><trkpt lat="39.80527684854173" lon="9.38692083495275"><ele>886.0</ele><time>2026-04-30T15:14:39.795Z</time></trkpt><trkpt lat="39.80515644862378" lon="9.386635453692069"><ele>891.5</ele><time>2026-04-30T15:14:40.795Z</time></trkpt><trkpt lat="39.805023289918715" lon="9.386327576949963"><ele>897.0</ele><time>2026-04-30T15:14:41.795Z</time></trkpt><trkpt lat="39.80487497033739" lon="9.385990447713032"><ele>897.0</ele><time>2026-04-30T15:14:42.795Z</time></trkpt><trkpt lat="39.80472008908042" lon="9.385644813136885"><ele>897.0</ele><time>2026-04-30T15:14:43.795Z</time></trkpt><trkpt lat="39.80458408286836" lon="9.385340586557495"><ele>898.3333333333333</ele><time>2026-04-30T15:14:44.795Z</time></trkpt><trkpt lat="39.80447224617393" lon="9.385087538646964"><ele>899.6666666666666</ele><time>2026-04-30T15:14:45.795Z</time></trkpt><trkpt lat="39.80438510693283" lon="9.384890412274773"><ele>901.0</ele><time>2026-04-30T15:14:46.795Z</time></trkpt><trkpt lat="39.80431600338171" lon="9.384715717493311"><ele>902.0</ele><time>2026-04-30T15:14:47.794Z</time></trkpt><trkpt lat="39.804271322616245" lon="9.384532269511007"><ele>903.0</ele><time>2026-04-30T15:14:48.794Z</time></trkpt><trkpt lat="39.80427450308486" lon="9.384333054522955"><ele>904.0</ele><time>2026-04-30T15:14:49.794Z</time></trkpt><trkpt lat="39.80432121671881" lon="9.384130748222987"><ele>907.6666666666666</ele><time>2026-04-30T15:14:50.794Z</time></trkpt><trkpt lat="39.80442911440429" lon="9.38396320870677"><ele>911.3333333333333</ele><time>2026-04-30T15:14:51.794Z</time></trkpt><trkpt lat="39.80456424932957" lon="9.383792674766518"><ele>915.0</ele><time>2026-04-30T15:14:52.794Z</time></trkpt><trkpt lat="39.804728773131174" lon="9.38358331239824"><ele>915.0</ele><time>2026-04-30T15:14:53.794Z</time></trkpt><trkpt lat="39.80489428371304" lon="9.383337802471733"><ele>915.0</ele><time>2026-04-30T15:14:54.794Z</time></trkpt><trkpt lat="39.80505718861627" lon="9.383096703890006"><ele>917.5</ele><time>2026-04-30T15:14:55.794Z</time></trkpt><trkpt lat="39.80521297512612" lon="9.382882212977831"><ele>920.0</ele><time>2026-04-30T15:14:56.794Z</time></trkpt><trkpt lat="39.80540436141264" lon="9.382730461374566"><ele>920.0</ele><time>2026-04-30T15:14:57.794Z</time></trkpt><trkpt lat="39.805600957427224" lon="9.382564131136245"><ele>920.0</ele><time>2026-04-30T15:14:58.794Z</time></trkpt><trkpt lat="39.80576700952384" lon="9.382378838874905"><ele>920.0</ele><time>2026-04-30T15:14:59.794Z</time></trkpt><trkpt lat="39.805903392485895" lon="9.382203116779737"><ele>920.0</ele><time>2026-04-30T15:15:00.794Z</time></trkpt><trkpt lat="39.80600051551356" lon="9.381996423550776"><ele>920.0</ele><time>2026-04-30T15:15:01.794Z</time></trkpt><trkpt lat="39.80605916105631" lon="9.381798420581822"><ele>920.3333333333334</ele><time>2026-04-30T15:15:02.794Z</time></trkpt><trkpt lat="39.80606605130337" lon="9.381610092636747"><ele>920.6666666666667</ele><time>2026-04-30T15:15:03.794Z</time></trkpt><trkpt lat="39.80600221774724" lon="9.381369241061142"><ele>921.0</ele><time>2026-04-30T15:15:04.794Z</time></trkpt><trkpt lat="39.80590318157018" lon="9.381081400026074"><ele>921.0</ele><time>2026-04-30T15:15:05.794Z</time></trkpt><trkpt lat="39.80581014669232" lon="9.38075952638919"><ele>921.0</ele><time>2026-04-30T15:15:06.794Z</time></trkpt><trkpt lat="39.805736173816314" lon="9.380452558672582"><ele>925.3333333333333</ele><time>2026-04-30T15:15:07.794Z</time></trkpt><trkpt lat="39.8056574014394" lon="9.380201876425959"><ele>929.6666666666666</ele><time>2026-04-30T15:15:08.794Z</time></trkpt><trkpt lat="39.80554980533021" lon="9.37999928764134"><ele>934.0</ele><time>2026-04-30T15:15:09.794Z</time></trkpt><trkpt lat="39.805405546770224" lon="9.379827791880434"><ele>934.0</ele><time>2026-04-30T15:15:10.794Z</time></trkpt><trkpt lat="39.80523132231817" lon="9.379709697100608"><ele>934.0</ele><time>2026-04-30T15:15:11.794Z</time></trkpt><trkpt lat="39.805036106384534" lon="9.379654093725541"><ele>934.0</ele><time>2026-04-30T15:15:12.794Z</time></trkpt><trkpt lat="39.80482436722183" lon="9.379652536553081"><ele>925.0</ele><time>2026-04-30T15:15:13.794Z</time></trkpt><trkpt lat="39.804581554088685" lon="9.379699598090342"><ele>916.0</ele><time>2026-04-30T15:15:14.794Z</time></trkpt><trkpt lat="39.80433177118052" lon="9.379748581922787"><ele>916.6666666666666</ele><time>2026-04-30T15:15:15.794Z</time></trkpt><trkpt lat="39.804115994489614" lon="9.379759970120782"><ele>917.3333333333333</ele><time>2026-04-30T15:15:16.794Z</time></trkpt><trkpt lat="39.803932274445984" lon="9.379732250692744"><ele>918.0</ele><time>2026-04-30T15:15:17.794Z</time></trkpt><trkpt lat="39.803786349619536" lon="9.37963110881486"><ele>919.0</ele><time>2026-04-30T15:15:18.794Z</time></trkpt><trkpt lat="39.803659849333584" lon="9.379510725936983"><ele>920.0</ele><time>2026-04-30T15:15:19.794Z</time></trkpt><trkpt lat="39.803556510565684" lon="9.379334138961086"><ele>921.0</ele><time>2026-04-30T15:15:20.794Z</time></trkpt><trkpt lat="39.80347459985371" lon="9.379106952221509"><ele>925.0</ele><time>2026-04-30T15:15:21.793Z</time></trkpt><trkpt lat="39.80339919697484" lon="9.378834868132497"><ele>929.0</ele><time>2026-04-30T15:15:22.793Z</time></trkpt><trkpt lat="39.80332671704764" lon="9.37852856431811"><ele>929.0</ele><time>2026-04-30T15:15:23.793Z</time></trkpt><trkpt lat="39.803271494486914" lon="9.378239827994964"><ele>929.0</ele><time>2026-04-30T15:15:24.793Z</time></trkpt><trkpt lat="39.80327815958867" lon="9.377966444690415"><ele>929.0</ele><time>2026-04-30T15:15:25.793Z</time></trkpt><trkpt lat="39.803314402156715" lon="9.377716488729304"><ele>929.6666666666667</ele><time>2026-04-30T15:15:26.793Z</time></trkpt><trkpt lat="39.803386744269915" lon="9.37747588312022"><ele>930.3333333333333</ele><time>2026-04-30T15:15:27.793Z</time></trkpt><trkpt lat="39.80348335905007" lon="9.37720665500447"><ele>931.0</ele><time>2026-04-30T15:15:28.793Z</time></trkpt><trkpt lat="39.803600565817916" lon="9.376909285669466"><ele>935.0</ele><time>2026-04-30T15:15:29.793Z</time></trkpt><trkpt lat="39.803733852086985" lon="9.376623818356219"><ele>939.0</ele><time>2026-04-30T15:15:30.793Z</time></trkpt><trkpt lat="39.80389088132592" lon="9.376362771647695"><ele>934.5</ele><time>2026-04-30T15:15:31.793Z</time></trkpt><trkpt lat="39.80405857849581" lon="9.37612881684129"><ele>930.0</ele><time>2026-04-30T15:15:32.793Z</time></trkpt><trkpt lat="39.80424216481612" lon="9.375914351006426"><ele>930.5</ele><time>2026-04-30T15:15:33.793Z</time></trkpt><trkpt lat="39.804449662849905" lon="9.375697229017739"><ele>931.0</ele><time>2026-04-30T15:15:34.793Z</time></trkpt><trkpt lat="39.804664029741936" lon="9.375449455465505"><ele>931.0</ele><time>2026-04-30T15:15:35.793Z</time></trkpt><trkpt lat="39.80490070101244" lon="9.375207405831667"><ele>931.0</ele><time>2026-04-30T15:15:36.793Z</time></trkpt><trkpt lat="39.805137842499086" lon="9.374960734500732"><ele>933.5</ele><time>2026-04-30T15:15:37.793Z</time></trkpt><trkpt lat="39.80536978048704" lon="9.37472799148752"><ele>936.0</ele><time>2026-04-30T15:15:38.793Z</time></trkpt><trkpt lat="39.80558608966215" lon="9.37450199532762"><ele>937.0</ele><time>2026-04-30T15:15:39.793Z</time></trkpt><trkpt lat="39.80578283601114" lon="9.374304367831073"><ele>938.0</ele><time>2026-04-30T15:15:40.793Z</time></trkpt><trkpt lat="39.8059640553685" lon="9.37411769806939"><ele>942.0</ele><time>2026-04-30T15:15:41.793Z</time></trkpt><trkpt lat="39.8061377510173" lon="9.3739138018743"><ele>946.0</ele><time>2026-04-30T15:15:42.793Z</time></trkpt><trkpt lat="39.80630899150289" lon="9.373680576513275"><ele>946.0</ele><time>2026-04-30T15:15:43.793Z</time></trkpt><trkpt lat="39.8064676868971" lon="9.373425714764215"><ele>946.0</ele><time>2026-04-30T15:15:44.793Z</time></trkpt><trkpt lat="39.8066064865133" lon="9.373181298420025"><ele>946.5</ele><time>2026-04-30T15:15:45.793Z</time></trkpt><trkpt lat="39.806732487451306" lon="9.372925231568681"><ele>947.0</ele><time>2026-04-30T15:15:46.793Z</time></trkpt><trkpt lat="39.80683779256137" lon="9.372629527735246"><ele>950.0</ele><time>2026-04-30T15:15:47.793Z</time></trkpt><trkpt lat="39.806928965281976" lon="9.372292138714863"><ele>953.0</ele><time>2026-04-30T15:15:48.793Z</time></trkpt><trkpt lat="39.80702066099559" lon="9.371945449508049"><ele>955.0</ele><time>2026-04-30T15:15:49.793Z</time></trkpt><trkpt lat="39.80711807526787" lon="9.371625175931058"><ele>957.0</ele><time>2026-04-30T15:15:50.793Z</time></trkpt><trkpt lat="39.807217818754644" lon="9.371329341001006"><ele>957.0</ele><time>2026-04-30T15:15:51.793Z</time></trkpt><trkpt lat="39.80730072992028" lon="9.371063000312908"><ele>957.0</ele><time>2026-04-30T15:15:52.793Z</time></trkpt><trkpt lat="39.8073936458994" lon="9.370820434563068"><ele>957.0</ele><time>2026-04-30T15:15:53.793Z</time></trkpt><trkpt lat="39.807538081331536" lon="9.370598337086568"><ele>959.5</ele><time>2026-04-30T15:15:54.793Z</time></trkpt><trkpt lat="39.807733080884795" lon="9.370374480648103"><ele>962.0</ele><time>2026-04-30T15:15:55.792Z</time></trkpt><trkpt lat="39.807931420156905" lon="9.370143237788282"><ele>962.0</ele><time>2026-04-30T15:15:56.792Z</time></trkpt><trkpt lat="39.80810477126378" lon="9.369943131889773"><ele>962.0</ele><time>2026-04-30T15:15:57.792Z</time></trkpt><trkpt lat="39.80827512968951" lon="9.3697756392622"><ele>962.0</ele><time>2026-04-30T15:15:58.792Z</time></trkpt><trkpt lat="39.808488257264905" lon="9.369635904543506"><ele>960.0</ele><time>2026-04-30T15:15:59.792Z</time></trkpt><trkpt lat="39.8087303407888" lon="9.3695090614072"><ele>958.0</ele><time>2026-04-30T15:16:00.792Z</time></trkpt><trkpt lat="39.808952855767664" lon="9.369390666864517"><ele>958.0</ele><time>2026-04-30T15:16:01.792Z</time></trkpt><trkpt lat="39.80915267995794" lon="9.369291656320717"><ele>958.0</ele><time>2026-04-30T15:16:02.792Z</time></trkpt><trkpt lat="39.80936265870389" lon="9.369235206586843"><ele>958.0</ele><time>2026-04-30T15:16:03.792Z</time></trkpt><trkpt lat="39.809595978916185" lon="9.36920280575819"><ele>960.5</ele><time>2026-04-30T15:16:04.792Z</time></trkpt><trkpt lat="39.80984146112898" lon="9.369171083928206"><ele>963.0</ele><time>2026-04-30T15:16:05.792Z</time></trkpt><trkpt lat="39.8100879883355" lon="9.369132917303993"><ele>964.5</ele><time>2026-04-30T15:16:06.792Z</time></trkpt><trkpt lat="39.81033411957031" lon="9.36909379122239"><ele>966.0</ele><time>2026-04-30T15:16:07.792Z</time></trkpt><trkpt lat="39.810558863800786" lon="9.369053767636277"><ele>966.0</ele><time>2026-04-30T15:16:08.792Z</time></trkpt><trkpt lat="39.81075683163383" lon="9.369018798446557"><ele>966.0</ele><time>2026-04-30T15:16:09.792Z</time></trkpt><trkpt lat="39.81092234178202" lon="9.368995283829253"><ele>966.0</ele><time>2026-04-30T15:16:10.792Z</time></trkpt><trkpt lat="39.81107044312398" lon="9.368945773309752"><ele>970.25</ele><time>2026-04-30T15:16:11.792Z</time></trkpt><trkpt lat="39.811197402713894" lon="9.368855532803867"><ele>974.5</ele><time>2026-04-30T15:16:12.792Z</time></trkpt><trkpt lat="39.81129408041966" lon="9.368721203882581"><ele>978.75</ele><time>2026-04-30T15:16:13.792Z</time></trkpt><trkpt lat="39.811331923901555" lon="9.368554450297589"><ele>983.0</ele><time>2026-04-30T15:16:14.792Z</time></trkpt><trkpt lat="39.81131099068301" lon="9.368377331755738"><ele>983.0</ele><time>2026-04-30T15:16:15.792Z</time></trkpt><trkpt lat="39.81122919319131" lon="9.36821743940646"><ele>983.0</ele><time>2026-04-30T15:16:16.792Z</time></trkpt><trkpt lat="39.81110276821959" lon="9.36807874450714"><ele>983.0</ele><time>2026-04-30T15:16:17.792Z</time></trkpt><trkpt lat="39.81093561755619" lon="9.367936552864435"><ele>978.6666666666667</ele><time>2026-04-30T15:16:18.792Z</time></trkpt><trkpt lat="39.810761941521406" lon="9.36777610556735"><ele>974.3333333333333</ele><time>2026-04-30T15:16:19.792Z</time></trkpt><trkpt lat="39.81061510749157" lon="9.367626319460415"><ele>970.0</ele><time>2026-04-30T15:16:20.792Z</time></trkpt><trkpt lat="39.810507135785386" lon="9.367492910814573"><ele>970.0</ele><time>2026-04-30T15:16:21.792Z</time></trkpt><trkpt lat="39.81044436885431" lon="9.367349854306829"><ele>970.0</ele><time>2026-04-30T15:16:22.792Z</time></trkpt><trkpt lat="39.81043856486764" lon="9.367180321041918"><ele>970.0</ele><time>2026-04-30T15:16:23.792Z</time></trkpt><trkpt lat="39.81047431988914" lon="9.366982319555184"><ele>970.0</ele><time>2026-04-30T15:16:24.792Z</time></trkpt><trkpt lat="39.81054977277653" lon="9.366747913116896"><ele>970.0</ele><time>2026-04-30T15:16:25.792Z</time></trkpt><trkpt lat="39.810682785627876" lon="9.366500208244553"><ele>970.0</ele><time>2026-04-30T15:16:26.792Z</time></trkpt><trkpt lat="39.81086570931621" lon="9.366249400235924"><ele>969.0</ele><time>2026-04-30T15:16:27.792Z</time></trkpt><trkpt lat="39.81108786181578" lon="9.365983583087568"><ele>968.0</ele><time>2026-04-30T15:16:28.792Z</time></trkpt><trkpt lat="39.81131051865973" lon="9.365701432475767"><ele>965.5</ele><time>2026-04-30T15:16:29.791Z</time></trkpt><trkpt lat="39.81153608999858" lon="9.36540496625115"><ele>963.0</ele><time>2026-04-30T15:16:30.793Z</time></trkpt><trkpt lat="39.811747777282505" lon="9.365124349406914"><ele>965.0</ele><time>2026-04-30T15:16:31.793Z</time></trkpt><trkpt lat="39.811946945357164" lon="9.364867865288241"><ele>967.0</ele><time>2026-04-30T15:16:32.793Z</time></trkpt><trkpt lat="39.81212218053513" lon="9.364634229608876"><ele>967.0</ele><time>2026-04-30T15:16:33.792Z</time></trkpt><trkpt lat="39.81227412701005" lon="9.364421598407311"><ele>967.0</ele><time>2026-04-30T15:16:34.792Z</time></trkpt><trkpt lat="39.81239115554926" lon="9.364191502984655"><ele>967.0</ele><time>2026-04-30T15:16:35.792Z</time></trkpt><trkpt lat="39.81246863003441" lon="9.363916866810076"><ele>968.0</ele><time>2026-04-30T15:16:36.793Z</time></trkpt><trkpt lat="39.812514391055025" lon="9.363597092889982"><ele>969.0</ele><time>2026-04-30T15:16:37.793Z</time></trkpt><trkpt lat="39.812589124569094" lon="9.363280199357291"><ele>974.5</ele><time>2026-04-30T15:16:38.793Z</time></trkpt><trkpt lat="39.81270683383151" lon="9.362976863713627"><ele>980.0</ele><time>2026-04-30T15:16:39.792Z</time></trkpt><trkpt lat="39.81282836216986" lon="9.36271153395587"><ele>980.0</ele><time>2026-04-30T15:16:40.793Z</time></trkpt><trkpt lat="39.81293282916528" lon="9.36250281302576"><ele>980.0</ele><time>2026-04-30T15:16:41.792Z</time></trkpt><trkpt lat="39.81302843304253" lon="9.362351577487631"><ele>980.0</ele><time>2026-04-30T15:16:42.792Z</time></trkpt><trkpt lat="39.81314570926439" lon="9.362252276659394"><ele>980.0</ele><time>2026-04-30T15:16:43.793Z</time></trkpt><trkpt lat="39.81330780609577" lon="9.362213321868051"><ele>980.0</ele><time>2026-04-30T15:16:44.793Z</time></trkpt><trkpt lat="39.813504211018724" lon="9.362239951162252"><ele>980.0</ele><time>2026-04-30T15:16:45.793Z</time></trkpt><trkpt lat="39.81371442500079" lon="9.362283244194256"><ele>978.3333333333334</ele><time>2026-04-30T15:16:46.793Z</time></trkpt><trkpt lat="39.81389591498901" lon="9.36232509411091"><ele>976.6666666666667</ele><time>2026-04-30T15:16:47.793Z</time></trkpt><trkpt lat="39.81406273813945" lon="9.362417306277585"><ele>975.0</ele><time>2026-04-30T15:16:48.793Z</time></trkpt><trkpt lat="39.814243493808696" lon="9.362561163851776"><ele>966.5</ele><time>2026-04-30T15:16:49.793Z</time></trkpt><trkpt lat="39.81444379517727" lon="9.36273528709245"><ele>958.0</ele><time>2026-04-30T15:16:50.793Z</time></trkpt><trkpt lat="39.81463548837452" lon="9.362892225467446"><ele>961.6666666666666</ele><time>2026-04-30T15:16:51.793Z</time></trkpt><trkpt lat="39.814802901002096" lon="9.363063192242635"><ele>965.3333333333333</ele><time>2026-04-30T15:16:52.793Z</time></trkpt><trkpt lat="39.81495736131482" lon="9.363275403594928"><ele>969.0</ele><time>2026-04-30T15:16:53.793Z</time></trkpt><trkpt lat="39.815106155914165" lon="9.363503951998599"><ele>969.0</ele><time>2026-04-30T15:16:54.793Z</time></trkpt><trkpt lat="39.81524615317661" lon="9.363687909732489"><ele>969.0</ele><time>2026-04-30T15:16:55.793Z</time></trkpt><trkpt lat="39.81539751376236" lon="9.363820415171693"><ele>969.0</ele><time>2026-04-30T15:16:56.793Z</time></trkpt><trkpt lat="39.815589753841294" lon="9.36391524157743"><ele>969.0</ele><time>2026-04-30T15:16:57.793Z</time></trkpt><trkpt lat="39.81581656726907" lon="9.363996795491149"><ele>969.0</ele><time>2026-04-30T15:16:58.793Z</time></trkpt><trkpt lat="39.816032580706064" lon="9.364099276863794"><ele>961.3333333333333</ele><time>2026-04-30T15:16:59.793Z</time></trkpt><trkpt lat="39.816193402911566" lon="9.364222115468563"><ele>953.6666666666666</ele><time>2026-04-30T15:17:00.793Z</time></trkpt><trkpt lat="39.8163148770202" lon="9.36434601776706"><ele>946.0</ele><time>2026-04-30T15:17:01.793Z</time></trkpt><trkpt lat="39.81641418947994" lon="9.36453483806696"><ele>952.5</ele><time>2026-04-30T15:17:02.792Z</time></trkpt><trkpt lat="39.816546660632966" lon="9.364761348526478"><ele>959.0</ele><time>2026-04-30T15:17:03.792Z</time></trkpt><trkpt lat="39.816719981500086" lon="9.364981624427067"><ele>943.5</ele><time>2026-04-30T15:17:04.792Z</time></trkpt><trkpt lat="39.81688150876797" lon="9.365228656732972"><ele>928.0</ele><time>2026-04-30T15:17:05.792Z</time></trkpt><trkpt lat="39.817051028394985" lon="9.36548490364994"><ele>935.5</ele><time>2026-04-30T15:17:06.792Z</time></trkpt><trkpt lat="39.81721182264063" lon="9.365740015194309"><ele>943.0</ele><time>2026-04-30T15:17:07.792Z</time></trkpt><trkpt lat="39.81736941171962" lon="9.366000460156519"><ele>943.0</ele><time>2026-04-30T15:17:08.792Z</time></trkpt><trkpt lat="39.81751849406939" lon="9.366260051608865"><ele>943.0</ele><time>2026-04-30T15:17:09.792Z</time></trkpt><trkpt lat="39.817654079865704" lon="9.366498309449113"><ele>939.0</ele><time>2026-04-30T15:17:10.792Z</time></trkpt><trkpt lat="39.81780342105641" lon="9.366674163033203"><ele>935.0</ele><time>2026-04-30T15:17:11.792Z</time></trkpt><trkpt lat="39.817968631547956" lon="9.366827169522548"><ele>931.0</ele><time>2026-04-30T15:17:12.792Z</time></trkpt><trkpt lat="39.8181315280291" lon="9.366950513313702"><ele>931.0</ele><time>2026-04-30T15:17:13.792Z</time></trkpt><trkpt lat="39.818307672313914" lon="9.367037309579151"><ele>931.0</ele><time>2026-04-30T15:17:14.792Z</time></trkpt><trkpt lat="39.818478022077265" lon="9.367086788426313"><ele>931.0</ele><time>2026-04-30T15:17:15.792Z</time></trkpt><trkpt lat="39.818642390260536" lon="9.367054824793174"><ele>928.3333333333333</ele><time>2026-04-30T15:17:16.792Z</time></trkpt><trkpt lat="39.81880225326004" lon="9.366965624547861"><ele>925.6666666666667</ele><time>2026-04-30T15:17:17.792Z</time></trkpt><trkpt lat="39.81898255605791" lon="9.366867472987286"><ele>923.0</ele><time>2026-04-30T15:17:18.792Z</time></trkpt><trkpt lat="39.81916230880954" lon="9.366788700911377"><ele>922.3333333333334</ele><time>2026-04-30T15:17:19.792Z</time></trkpt><trkpt lat="39.819359660723606" lon="9.36675111728696"><ele>921.6666666666667</ele><time>2026-04-30T15:17:20.792Z</time></trkpt><trkpt lat="39.8195632491142" lon="9.366745531640724"><ele>921.0</ele><time>2026-04-30T15:17:21.792Z</time></trkpt><trkpt lat="39.81976758948354" lon="9.36679372381966"><ele>921.0</ele><time>2026-04-30T15:17:22.792Z</time></trkpt><trkpt lat="39.819968534316466" lon="9.366804504678704"><ele>921.0</ele><time>2026-04-30T15:17:23.792Z</time></trkpt><trkpt lat="39.820172023000545" lon="9.366740409902246"><ele>921.0</ele><time>2026-04-30T15:17:24.792Z</time></trkpt><trkpt lat="39.82037691647023" lon="9.366697016768011"><ele>918.0</ele><time>2026-04-30T15:17:25.792Z</time></trkpt><trkpt lat="39.82055492850192" lon="9.366662741252279"><ele>915.0</ele><time>2026-04-30T15:17:26.792Z</time></trkpt><trkpt lat="39.82069728393803" lon="9.366679715741745"><ele>912.0</ele><time>2026-04-30T15:17:27.792Z</time></trkpt><trkpt lat="39.82083650808186" lon="9.3667357742945"><ele>912.0</ele><time>2026-04-30T15:17:28.792Z</time></trkpt><trkpt lat="39.82095849000384" lon="9.36685051060633"><ele>912.0</ele><time>2026-04-30T15:17:29.792Z</time></trkpt><trkpt lat="39.82104932577403" lon="9.367011839832873"><ele>912.0</ele><time>2026-04-30T15:17:30.792Z</time></trkpt><trkpt lat="39.821098829921" lon="9.367200475582113"><ele>910.0</ele><time>2026-04-30T15:17:31.792Z</time></trkpt><trkpt lat="39.82112785081642" lon="9.367430587026448"><ele>908.0</ele><time>2026-04-30T15:17:32.792Z</time></trkpt><trkpt lat="39.82115070837279" lon="9.36768267559381"><ele>906.0</ele><time>2026-04-30T15:17:33.792Z</time></trkpt><trkpt lat="39.82114276756976" lon="9.36794399955977"><ele>908.0</ele><time>2026-04-30T15:17:34.792Z</time></trkpt><trkpt lat="39.82114104466061" lon="9.368180890409969"><ele>910.0</ele><time>2026-04-30T15:17:35.792Z</time></trkpt><trkpt lat="39.82114271749637" lon="9.368351500055956"><ele>912.0</ele><time>2026-04-30T15:17:36.792Z</time></trkpt><trkpt lat="39.821167321067996" lon="9.368459622146943"><ele>914.0</ele><time>2026-04-30T15:17:37.791Z</time></trkpt><trkpt lat="39.82124914492502" lon="9.368511897326245"><ele>914.0</ele><time>2026-04-30T15:17:38.791Z</time></trkpt><trkpt lat="39.82136759167123" lon="9.368493189607"><ele>914.0</ele><time>2026-04-30T15:17:39.791Z</time></trkpt><trkpt lat="39.82148004006578" lon="9.368431216058909"><ele>914.0</ele><time>2026-04-30T15:17:40.791Z</time></trkpt><trkpt lat="39.82154461998071" lon="9.368232612295717"><ele>914.0</ele><time>2026-04-30T15:17:41.791Z</time></trkpt><trkpt lat="39.82162540006494" lon="9.368016888219866"><ele>911.3333333333334</ele><time>2026-04-30T15:17:42.791Z</time></trkpt><trkpt lat="39.821746818894304" lon="9.367789772565828"><ele>908.6666666666667</ele><time>2026-04-30T15:17:43.791Z</time></trkpt><trkpt lat="39.821808926356326" lon="9.367495449273425"><ele>906.0</ele><time>2026-04-30T15:17:44.791Z</time></trkpt><trkpt lat="39.82187671307036" lon="9.367173340573649"><ele>916.0</ele><time>2026-04-30T15:17:45.791Z</time></trkpt><trkpt lat="39.82193322567966" lon="9.36685032403607"><ele>926.0</ele><time>2026-04-30T15:17:46.791Z</time></trkpt><trkpt lat="39.821985143306144" lon="9.366550974967272"><ele>924.5</ele><time>2026-04-30T15:17:47.791Z</time></trkpt><trkpt lat="39.82201351534652" lon="9.366265313406217"><ele>923.0</ele><time>2026-04-30T15:17:48.791Z</time></trkpt><trkpt lat="39.8220027055562" lon="9.365952601098094"><ele>923.0</ele><time>2026-04-30T15:17:49.791Z</time></trkpt><trkpt lat="39.82197057758359" lon="9.365634620711923"><ele>923.0</ele><time>2026-04-30T15:17:50.791Z</time></trkpt><trkpt lat="39.821921794503375" lon="9.365328973213048"><ele>920.0</ele><time>2026-04-30T15:17:51.791Z</time></trkpt><trkpt lat="39.82190810336902" lon="9.365092127241075"><ele>917.0</ele><time>2026-04-30T15:17:52.791Z</time></trkpt><trkpt lat="39.82191573574514" lon="9.364925923609118"><ele>914.0</ele><time>2026-04-30T15:17:53.791Z</time></trkpt><trkpt lat="39.82195308477633" lon="9.364792843134701"><ele>911.0</ele><time>2026-04-30T15:17:54.791Z</time></trkpt><trkpt lat="39.82205695719789" lon="9.364712950197621"><ele>904.6666666666667</ele><time>2026-04-30T15:17:55.791Z</time></trkpt><trkpt lat="39.82220146191903" lon="9.36457996256651"><ele>898.3333333333333</ele><time>2026-04-30T15:17:56.791Z</time></trkpt><trkpt lat="39.822374333633896" lon="9.364420068548906"><ele>892.0</ele><time>2026-04-30T15:17:57.791Z</time></trkpt><trkpt lat="39.82255717873822" lon="9.364253934723168"><ele>897.6666666666666</ele><time>2026-04-30T15:17:58.791Z</time></trkpt><trkpt lat="39.822742120516565" lon="9.364098002640134"><ele>903.3333333333333</ele><time>2026-04-30T15:17:59.791Z</time></trkpt><trkpt lat="39.82290534606956" lon="9.36397426570838"><ele>909.0</ele><time>2026-04-30T15:18:00.791Z</time></trkpt><trkpt lat="39.82302747756825" lon="9.363876848976007"><ele>908.0</ele><time>2026-04-30T15:18:01.791Z</time></trkpt><trkpt lat="39.82309324853546" lon="9.363792670954208"><ele>907.0000000000001</ele><time>2026-04-30T15:18:02.791Z</time></trkpt><trkpt lat="39.82307839925239" lon="9.363672078401724"><ele>906.0000000000001</ele><time>2026-04-30T15:18:03.791Z</time></trkpt><trkpt lat="39.823021119198664" lon="9.363559598858847"><ele>905.0</ele><time>2026-04-30T15:18:04.791Z</time></trkpt><trkpt lat="39.82290471992786" lon="9.363448044053172"><ele>904.0</ele><time>2026-04-30T15:18:05.791Z</time></trkpt><trkpt lat="39.82273965401868" lon="9.363383671860044"><ele>901.6666666666666</ele><time>2026-04-30T15:18:06.791Z</time></trkpt><trkpt lat="39.82253725636262" lon="9.363364331654342"><ele>899.3333333333333</ele><time>2026-04-30T15:18:07.791Z</time></trkpt><trkpt lat="39.82230884129422" lon="9.363366606173722"><ele>897.0</ele><time>2026-04-30T15:18:08.791Z</time></trkpt><trkpt lat="39.82209994683172" lon="9.36334834682299"><ele>897.0</ele><time>2026-04-30T15:18:09.791Z</time></trkpt><trkpt lat="39.8219323470844" lon="9.363287437270843"><ele>897.0</ele><time>2026-04-30T15:18:10.791Z</time></trkpt><trkpt lat="39.82176834489262" lon="9.363179897296227"><ele>897.0</ele><time>2026-04-30T15:18:11.79Z</time></trkpt><trkpt lat="39.82159333271406" lon="9.363107288540217"><ele>900.3333333333333</ele><time>2026-04-30T15:18:12.79Z</time></trkpt><trkpt lat="39.82144813563044" lon="9.363028681628764"><ele>903.6666666666666</ele><time>2026-04-30T15:18:13.79Z</time></trkpt><trkpt lat="39.821328252396114" lon="9.362923234703391"><ele>907.0</ele><time>2026-04-30T15:18:14.79Z</time></trkpt><trkpt lat="39.8212724535988" lon="9.362721980499913"><ele>907.0</ele><time>2026-04-30T15:18:15.79Z</time></trkpt><trkpt lat="39.82116072109075" lon="9.36252840871862"><ele>907.0</ele><time>2026-04-30T15:18:16.79Z</time></trkpt><trkpt lat="39.821038554270686" lon="9.36231926899333"><ele>907.0</ele><time>2026-04-30T15:18:17.79Z</time></trkpt><trkpt lat="39.820966417067424" lon="9.362134603522739"><ele>908.75</ele><time>2026-04-30T15:18:18.79Z</time></trkpt><trkpt lat="39.82097791994507" lon="9.361977566294694"><ele>910.5</ele><time>2026-04-30T15:18:19.79Z</time></trkpt><trkpt lat="39.82098425247638" lon="9.361796792179018"><ele>912.25</ele><time>2026-04-30T15:18:20.79Z</time></trkpt><trkpt lat="39.82099612957275" lon="9.361569930352934"><ele>914.0</ele><time>2026-04-30T15:18:21.79Z</time></trkpt><trkpt lat="39.82105641193939" lon="9.361349727055618"><ele>909.0</ele><time>2026-04-30T15:18:22.79Z</time></trkpt><trkpt lat="39.821143081257674" lon="9.361118310848655"><ele>904.0</ele><time>2026-04-30T15:18:23.79Z</time></trkpt><trkpt lat="39.82124677066295" lon="9.3609046129286"><ele>899.0</ele><time>2026-04-30T15:18:24.79Z</time></trkpt><trkpt lat="39.821372410008685" lon="9.360726615396196"><ele>899.0</ele><time>2026-04-30T15:18:25.79Z</time></trkpt><trkpt lat="39.821533187380695" lon="9.360559299794126"><ele>899.0</ele><time>2026-04-30T15:18:26.79Z</time></trkpt><trkpt lat="39.82170219228783" lon="9.360336296901917"><ele>899.0</ele><time>2026-04-30T15:18:27.79Z</time></trkpt><trkpt lat="39.82185780744704" lon="9.360073966071736"><ele>902.5</ele><time>2026-04-30T15:18:28.79Z</time></trkpt><trkpt lat="39.82202269877157" lon="9.359795409925711"><ele>906.0</ele><time>2026-04-30T15:18:29.79Z</time></trkpt><trkpt lat="39.82218296847035" lon="9.35948903084166"><ele>897.5</ele><time>2026-04-30T15:18:30.79Z</time></trkpt><trkpt lat="39.82232861143013" lon="9.359177487685315"><ele>889.0</ele><time>2026-04-30T15:18:31.79Z</time></trkpt><trkpt lat="39.82248107250758" lon="9.358883387701361"><ele>889.0</ele><time>2026-04-30T15:18:32.79Z</time></trkpt><trkpt lat="39.8226225504263" lon="9.358614754275782"><ele>889.0</ele><time>2026-04-30T15:18:33.79Z</time></trkpt><trkpt lat="39.82275987297757" lon="9.358393099132492"><ele>889.0</ele><time>2026-04-30T15:18:34.79Z</time></trkpt><trkpt lat="39.822894101889666" lon="9.35821878979319"><ele>889.0</ele><time>2026-04-30T15:18:35.79Z</time></trkpt><trkpt lat="39.82301578282805" lon="9.358084617765066"><ele>889.0</ele><time>2026-04-30T15:18:36.791Z</time></trkpt><trkpt lat="39.82308858301258" lon="9.35798597826313"><ele>889.2</ele><time>2026-04-30T15:18:37.79Z</time></trkpt><trkpt lat="39.823102158847014" lon="9.357879096464009"><ele>889.4000000000001</ele><time>2026-04-30T15:18:38.79Z</time></trkpt><trkpt lat="39.82309625857211" lon="9.357775577096762"><ele>889.6</ele><time>2026-04-30T15:18:39.79Z</time></trkpt><trkpt lat="39.82298205961984" lon="9.35768990506224"><ele>889.8</ele><time>2026-04-30T15:18:40.791Z</time></trkpt><trkpt lat="39.822842258449825" lon="9.357663407552916"><ele>890.0</ele><time>2026-04-30T15:18:41.791Z</time></trkpt><trkpt lat="39.822663503418866" lon="9.357658540562591"><ele>887.3333333333334</ele><time>2026-04-30T15:18:42.79Z</time></trkpt><trkpt lat="39.82247002777925" lon="9.3576632802682"><ele>884.6666666666667</ele><time>2026-04-30T15:18:43.791Z</time></trkpt><trkpt lat="39.822277089908816" lon="9.357721904644034"><ele>882.0</ele><time>2026-04-30T15:18:44.791Z</time></trkpt><trkpt lat="39.822069709015885" lon="9.357823465076068"><ele>882.0</ele><time>2026-04-30T15:18:45.79Z</time></trkpt><trkpt lat="39.82185094569252" lon="9.357919269505365"><ele>882.0</ele><time>2026-04-30T15:18:46.791Z</time></trkpt><trkpt lat="39.82165476107582" lon="9.357955233866868"><ele>882.0</ele><time>2026-04-30T15:18:47.791Z</time></trkpt><trkpt lat="39.82148549564819" lon="9.357952044160278"><ele>881.3333333333333</ele><time>2026-04-30T15:18:48.791Z</time></trkpt><trkpt lat="39.82132189358074" lon="9.357887903104315"><ele>880.6666666666666</ele><time>2026-04-30T15:18:49.791Z</time></trkpt><trkpt lat="39.8211419257146" lon="9.357842361515987"><ele>880.0</ele><time>2026-04-30T15:18:50.791Z</time></trkpt><trkpt lat="39.82093427083508" lon="9.357802632808998"><ele>877.75</ele><time>2026-04-30T15:18:51.791Z</time></trkpt><trkpt lat="39.82073261757345" lon="9.357814916642669"><ele>875.5</ele><time>2026-04-30T15:18:52.791Z</time></trkpt><trkpt lat="39.820584872728396" lon="9.357822201392002"><ele>873.25</ele><time>2026-04-30T15:18:53.791Z</time></trkpt><trkpt lat="39.82048788564819" lon="9.357794572970976"><ele>871.0</ele><time>2026-04-30T15:18:54.791Z</time></trkpt><trkpt lat="39.82042099034158" lon="9.357723074158168"><ele>871.0</ele><time>2026-04-30T15:18:55.791Z</time></trkpt><trkpt lat="39.82043147152904" lon="9.357595498682807"><ele>871.0</ele><time>2026-04-30T15:18:56.791Z</time></trkpt><trkpt lat="39.82044704041883" lon="9.357433589770384"><ele>871.0</ele><time>2026-04-30T15:18:57.791Z</time></trkpt><trkpt lat="39.820453813863345" lon="9.35720575037321"><ele>871.0</ele><time>2026-04-30T15:18:58.791Z</time></trkpt><trkpt lat="39.82047387814702" lon="9.356993727706305"><ele>867.25</ele><time>2026-04-30T15:18:59.79Z</time></trkpt><trkpt lat="39.82053055187795" lon="9.356863426372339"><ele>863.5</ele><time>2026-04-30T15:19:00.79Z</time></trkpt><trkpt lat="39.82061251004899" lon="9.356795029960454"><ele>859.75</ele><time>2026-04-30T15:19:01.79Z</time></trkpt><trkpt lat="39.820734271484675" lon="9.356786946088953"><ele>856.0</ele><time>2026-04-30T15:19:02.79Z</time></trkpt><trkpt lat="39.82090928794056" lon="9.356784068174406"><ele>859.0</ele><time>2026-04-30T15:19:03.79Z</time></trkpt><trkpt lat="39.82111297620007" lon="9.356769129163062"><ele>862.0</ele><time>2026-04-30T15:19:04.79Z</time></trkpt><trkpt lat="39.82132692836185" lon="9.35668213994775"><ele>865.0</ele><time>2026-04-30T15:19:05.79Z</time></trkpt><trkpt lat="39.82154451189987" lon="9.356538147845265"><ele>865.0</ele><time>2026-04-30T15:19:06.79Z</time></trkpt><trkpt lat="39.82176587723703" lon="9.356438452382823"><ele>865.0</ele><time>2026-04-30T15:19:07.79Z</time></trkpt><trkpt lat="39.82192582834784" lon="9.356273672799924"><ele>865.0</ele><time>2026-04-30T15:19:08.79Z</time></trkpt><trkpt lat="39.82206258234013" lon="9.356088877934598"><ele>860.3333333333333</ele><time>2026-04-30T15:19:09.79Z</time></trkpt><trkpt lat="39.82220427347114" lon="9.355929585336588"><ele>855.6666666666667</ele><time>2026-04-30T15:19:10.79Z</time></trkpt><trkpt lat="39.82234227927293" lon="9.355819703386521"><ele>851.0</ele><time>2026-04-30T15:19:11.79Z</time></trkpt><trkpt lat="39.822498107942735" lon="9.355753324763448"><ele>849.6666666666667</ele><time>2026-04-30T15:19:12.79Z</time></trkpt><trkpt lat="39.82268880881112" lon="9.355699367869168"><ele>848.3333333333333</ele><time>2026-04-30T15:19:13.79Z</time></trkpt><trkpt lat="39.82288608701786" lon="9.355627483837692"><ele>847.0</ele><time>2026-04-30T15:19:14.79Z</time></trkpt><trkpt lat="39.823034700179065" lon="9.355479632980023"><ele>847.0</ele><time>2026-04-30T15:19:15.79Z</time></trkpt><trkpt lat="39.823180771081006" lon="9.355307868472343"><ele>847.0</ele><time>2026-04-30T15:19:16.79Z</time></trkpt><trkpt lat="39.82330903215237" lon="9.35505944380634"><ele>847.0</ele><time>2026-04-30T15:19:17.79Z</time></trkpt><trkpt lat="39.82343824949984" lon="9.354785749621321"><ele>856.5</ele><time>2026-04-30T15:19:18.79Z</time></trkpt><trkpt lat="39.82352377299401" lon="9.35446190378692"><ele>866.0</ele><time>2026-04-30T15:19:19.79Z</time></trkpt><trkpt lat="39.82362391731059" lon="9.354116127771926"><ele>857.0</ele><time>2026-04-30T15:19:20.79Z</time></trkpt><trkpt lat="39.82371755044771" lon="9.353783748852631"><ele>848.0</ele><time>2026-04-30T15:19:21.79Z</time></trkpt><trkpt lat="39.82381024230319" lon="9.353492466229957"><ele>848.0</ele><time>2026-04-30T15:19:22.79Z</time></trkpt><trkpt lat="39.82390257726299" lon="9.353244538273065"><ele>848.0</ele><time>2026-04-30T15:19:23.79Z</time></trkpt><trkpt lat="39.82399288332561" lon="9.353045453630418"><ele>848.0</ele><time>2026-04-30T15:19:24.79Z</time></trkpt><trkpt lat="39.8241057251791" lon="9.352890805537033"><ele>846.3333333333334</ele><time>2026-04-30T15:19:25.79Z</time></trkpt><trkpt lat="39.824246517780196" lon="9.352732992960508"><ele>844.6666666666667</ele><time>2026-04-30T15:19:26.79Z</time></trkpt><trkpt lat="39.8244075357808" lon="9.352581371122657"><ele>843.0</ele><time>2026-04-30T15:19:27.79Z</time></trkpt><trkpt lat="39.82459118268899" lon="9.35241684019338"><ele>843.0</ele><time>2026-04-30T15:19:28.79Z</time></trkpt><trkpt lat="39.8247453639176" lon="9.352215042558507"><ele>843.0</ele><time>2026-04-30T15:19:29.79Z</time></trkpt><trkpt lat="39.82490957121898" lon="9.352073121833351"><ele>843.0</ele><time>2026-04-30T15:19:30.79Z</time></trkpt><trkpt lat="39.825096295611566" lon="9.351942752807743"><ele>840.0</ele><time>2026-04-30T15:19:31.79Z</time></trkpt><trkpt lat="39.82530008349376" lon="9.35182503040047"><ele>837.0</ele><time>2026-04-30T15:19:32.789Z</time></trkpt><trkpt lat="39.82547719886724" lon="9.351670936668581"><ele>834.0</ele><time>2026-04-30T15:19:33.789Z</time></trkpt><trkpt lat="39.82563579057529" lon="9.351480217540022"><ele>838.3333333333333</ele><time>2026-04-30T15:19:34.789Z</time></trkpt><trkpt lat="39.825781944000326" lon="9.351246714615398"><ele>842.6666666666666</ele><time>2026-04-30T15:19:35.789Z</time></trkpt><trkpt lat="39.82591643478255" lon="9.351054312580379"><ele>847.0</ele><time>2026-04-30T15:19:36.789Z</time></trkpt><trkpt lat="39.82604904689904" lon="9.350959962950881"><ele>847.0</ele><time>2026-04-30T15:19:37.789Z</time></trkpt><trkpt lat="39.82613571546724" lon="9.350865340751287"><ele>847.0</ele><time>2026-04-30T15:19:38.789Z</time></trkpt><trkpt lat="39.826182883666114" lon="9.35080775595365"><ele>847.0</ele><time>2026-04-30T15:19:39.789Z</time></trkpt><trkpt lat="39.826122789967826" lon="9.350615814898603"><ele>847.0</ele><time>2026-04-30T15:19:40.789Z</time></trkpt><trkpt lat="39.826048246668535" lon="9.35040668536121"><ele>841.0</ele><time>2026-04-30T15:19:41.789Z</time></trkpt><trkpt lat="39.825962861913354" lon="9.350171298557811"><ele>835.0</ele><time>2026-04-30T15:19:42.789Z</time></trkpt><trkpt lat="39.82591269294504" lon="9.349905486097919"><ele>829.0</ele><time>2026-04-30T15:19:43.789Z</time></trkpt><trkpt lat="39.8257993119489" lon="9.349658078510387"><ele>829.0</ele><time>2026-04-30T15:19:44.789Z</time></trkpt><trkpt lat="39.82569441119743" lon="9.349414352794657"><ele>829.0</ele><time>2026-04-30T15:19:45.789Z</time></trkpt><trkpt lat="39.82557976565986" lon="9.349214391008275"><ele>829.0</ele><time>2026-04-30T15:19:46.789Z</time></trkpt><trkpt lat="39.82544330049196" lon="9.349040945436444"><ele>829.0</ele><time>2026-04-30T15:19:47.789Z</time></trkpt><trkpt lat="39.825253315794164" lon="9.348889570939216"><ele>829.0</ele><time>2026-04-30T15:19:48.789Z</time></trkpt><trkpt lat="39.82503694850591" lon="9.348747288129543"><ele>827.3333333333333</ele><time>2026-04-30T15:19:49.789Z</time></trkpt><trkpt lat="39.82483951682841" lon="9.348593265155106"><ele>825.6666666666667</ele><time>2026-04-30T15:19:50.789Z</time></trkpt><trkpt lat="39.824668003571595" lon="9.348467717298565"><ele>824.0</ele><time>2026-04-30T15:19:51.789Z</time></trkpt><trkpt lat="39.824488158125476" lon="9.34841397822141"><ele>817.6666666666667</ele><time>2026-04-30T15:19:52.789Z</time></trkpt><trkpt lat="39.824276139571644" lon="9.348391790310814"><ele>811.3333333333333</ele><time>2026-04-30T15:19:53.789Z</time></trkpt><trkpt lat="39.824071814759684" lon="9.348396905284435"><ele>805.0</ele><time>2026-04-30T15:19:54.789Z</time></trkpt><trkpt lat="39.82391190461505" lon="9.348370390910473"><ele>805.0</ele><time>2026-04-30T15:19:55.789Z</time></trkpt><trkpt lat="39.82378789974162" lon="9.348340424824018"><ele>805.0</ele><time>2026-04-30T15:19:56.789Z</time></trkpt><trkpt lat="39.82369455901669" lon="9.348276231553541"><ele>805.0</ele><time>2026-04-30T15:19:57.789Z</time></trkpt><trkpt lat="39.823650865823176" lon="9.3481578813902"><ele>805.0</ele><time>2026-04-30T15:19:58.789Z</time></trkpt><trkpt lat="39.82370400778859" lon="9.348003801539713"><ele>805.0</ele><time>2026-04-30T15:19:59.789Z</time></trkpt><trkpt lat="39.823777073162546" lon="9.347827430189025"><ele>805.0</ele><time>2026-04-30T15:20:00.789Z</time></trkpt><trkpt lat="39.82386759931548" lon="9.347601193467893"><ele>805.0</ele><time>2026-04-30T15:20:01.789Z</time></trkpt><trkpt lat="39.823978293891315" lon="9.347359788392277"><ele>797.5</ele><time>2026-04-30T15:20:02.789Z</time></trkpt><trkpt lat="39.82410518077381" lon="9.34711204313021"><ele>790.0</ele><time>2026-04-30T15:20:03.789Z</time></trkpt><trkpt lat="39.82423205432595" lon="9.346834008168214"><ele>790.0</ele><time>2026-04-30T15:20:04.789Z</time></trkpt><trkpt lat="39.82430897429138" lon="9.346545490720017"><ele>790.0</ele><time>2026-04-30T15:20:05.789Z</time></trkpt><trkpt lat="39.82436841677887" lon="9.346260556232917"><ele>788.6666666666666</ele><time>2026-04-30T15:20:06.788Z</time></trkpt><trkpt lat="39.824402351946794" lon="9.345966619686367"><ele>787.3333333333333</ele><time>2026-04-30T15:20:07.788Z</time></trkpt><trkpt lat="39.82448131211273" lon="9.345720223372377"><ele>786.0</ele><time>2026-04-30T15:20:08.788Z</time></trkpt><trkpt lat="39.82456011856776" lon="9.34550209050439"><ele>786.0</ele><time>2026-04-30T15:20:09.788Z</time></trkpt><trkpt lat="39.8246609219283" lon="9.345312041067874"><ele>786.0</ele><time>2026-04-30T15:20:10.788Z</time></trkpt><trkpt lat="39.824790602166985" lon="9.345148735251062"><ele>786.0</ele><time>2026-04-30T15:20:11.788Z</time></trkpt><trkpt lat="39.82493799869319" lon="9.345020368229429"><ele>786.0</ele><time>2026-04-30T15:20:12.788Z</time></trkpt><trkpt lat="39.825094739676686" lon="9.34492689703685"><ele>786.0</ele><time>2026-04-30T15:20:13.788Z</time></trkpt><trkpt lat="39.825252946189345" lon="9.344845237320312"><ele>786.0</ele><time>2026-04-30T15:20:14.788Z</time></trkpt><trkpt lat="39.82539213205411" lon="9.344730641613696"><ele>787.6666666666667</ele><time>2026-04-30T15:20:15.788Z</time></trkpt><trkpt lat="39.825504100103814" lon="9.344570453568263"><ele>789.3333333333334</ele><time>2026-04-30T15:20:16.788Z</time></trkpt><trkpt lat="39.8255602207634" lon="9.344343782915216"><ele>791.0</ele><time>2026-04-30T15:20:17.788Z</time></trkpt><trkpt lat="39.82560003078496" lon="9.344080617846611"><ele>784.5</ele><time>2026-04-30T15:20:18.788Z</time></trkpt><trkpt lat="39.82563839359021" lon="9.343777826292262"><ele>778.0</ele><time>2026-04-30T15:20:19.788Z</time></trkpt><trkpt lat="39.825736444151694" lon="9.343471504311806"><ele>778.0</ele><time>2026-04-30T15:20:20.788Z</time></trkpt><trkpt lat="39.8258195540809" lon="9.343152640541684"><ele>778.0</ele><time>2026-04-30T15:20:21.788Z</time></trkpt><trkpt lat="39.825881217851475" lon="9.342813427893946"><ele>772.5</ele><time>2026-04-30T15:20:22.788Z</time></trkpt><trkpt lat="39.825927857684874" lon="9.342472748917425"><ele>767.0</ele><time>2026-04-30T15:20:23.788Z</time></trkpt><trkpt lat="39.82594433266325" lon="9.342121828537364"><ele>763.5</ele><time>2026-04-30T15:20:24.788Z</time></trkpt><trkpt lat="39.82594592507691" lon="9.341780335942406"><ele>760.0</ele><time>2026-04-30T15:20:25.788Z</time></trkpt><trkpt lat="39.82595731832069" lon="9.341434323215081"><ele>760.0</ele><time>2026-04-30T15:20:26.788Z</time></trkpt><trkpt lat="39.82591260809317" lon="9.341111662693908"><ele>760.0</ele><time>2026-04-30T15:20:27.788Z</time></trkpt><trkpt lat="39.82587748536798" lon="9.340803520780115"><ele>758.6666666666667</ele><time>2026-04-30T15:20:28.788Z</time></trkpt><trkpt lat="39.82584313390172" lon="9.340511558759488"><ele>757.3333333333334</ele><time>2026-04-30T15:20:29.788Z</time></trkpt><trkpt lat="39.82582591175775" lon="9.340230819151857"><ele>756.0</ele><time>2026-04-30T15:20:30.788Z</time></trkpt><trkpt lat="39.825824588242455" lon="9.339946235805009"><ele>755.5</ele><time>2026-04-30T15:20:31.788Z</time></trkpt><trkpt lat="39.82581281029969" lon="9.33965563241168"><ele>755.0</ele><time>2026-04-30T15:20:32.788Z</time></trkpt><trkpt lat="39.825785887714346" lon="9.339357681350512"><ele>755.0</ele><time>2026-04-30T15:20:33.788Z</time></trkpt><trkpt lat="39.825790523334135" lon="9.339047958937506"><ele>755.0</ele><time>2026-04-30T15:20:34.788Z</time></trkpt><trkpt lat="39.82577185658076" lon="9.338733460104093"><ele>755.0</ele><time>2026-04-30T15:20:35.788Z</time></trkpt><trkpt lat="39.82571843545624" lon="9.338423483619577"><ele>755.0</ele><time>2026-04-30T15:20:36.788Z</time></trkpt><trkpt lat="39.82566779364203" lon="9.33811018126124"><ele>752.6666666666666</ele><time>2026-04-30T15:20:37.788Z</time></trkpt><trkpt lat="39.82562532227729" lon="9.337814352375883"><ele>750.3333333333334</ele><time>2026-04-30T15:20:38.788Z</time></trkpt><trkpt lat="39.82553594175215" lon="9.33757192875741"><ele>748.0</ele><time>2026-04-30T15:20:39.788Z</time></trkpt><trkpt lat="39.82545019814409" lon="9.337367483488812"><ele>746.0</ele><time>2026-04-30T15:20:40.787Z</time></trkpt><trkpt lat="39.825368301600804" lon="9.337199381065782"><ele>744.0</ele><time>2026-04-30T15:20:41.787Z</time></trkpt><trkpt lat="39.825317966527635" lon="9.33706437458493"><ele>742.0</ele><time>2026-04-30T15:20:42.789Z</time></trkpt><trkpt lat="39.8253282714275" lon="9.336948277626169"><ele>740.0</ele><time>2026-04-30T15:20:43.789Z</time></trkpt><trkpt lat="39.82535064336811" lon="9.336857601807088"><ele>738.0</ele><time>2026-04-30T15:20:44.789Z</time></trkpt><trkpt lat="39.825442456235216" lon="9.33682466656832"><ele>738.0</ele><time>2026-04-30T15:20:45.789Z</time></trkpt><trkpt lat="39.825585631810114" lon="9.3368973713075"><ele>738.0</ele><time>2026-04-30T15:20:46.788Z</time></trkpt><trkpt lat="39.825771507473476" lon="9.336990773002444"><ele>738.0</ele><time>2026-04-30T15:20:47.788Z</time></trkpt><trkpt lat="39.82599434937797" lon="9.337101303754432"><ele>735.0</ele><time>2026-04-30T15:20:48.788Z</time></trkpt><trkpt lat="39.82623331489385" lon="9.337198985354757"><ele>732.0</ele><time>2026-04-30T15:20:49.788Z</time></trkpt><trkpt lat="39.82643121722694" lon="9.337314371022137"><ele>732.0</ele><time>2026-04-30T15:20:50.788Z</time></trkpt><trkpt lat="39.82658866476681" lon="9.337477407976053"><ele>732.0</ele><time>2026-04-30T15:20:51.788Z</time></trkpt><trkpt lat="39.82674348531203" lon="9.337672786154215"><ele>732.0</ele><time>2026-04-30T15:20:52.788Z</time></trkpt><trkpt lat="39.826903837161" lon="9.337839916300245"><ele>727.5</ele><time>2026-04-30T15:20:53.788Z</time></trkpt><trkpt lat="39.82703841031997" lon="9.337954394873227"><ele>723.0</ele><time>2026-04-30T15:20:54.788Z</time></trkpt><trkpt lat="39.827110792635864" lon="9.338091210522645"><ele>718.5</ele><time>2026-04-30T15:20:55.788Z</time></trkpt><trkpt lat="39.82715413224853" lon="9.338248154961423"><ele>714.0</ele><time>2026-04-30T15:20:56.788Z</time></trkpt><trkpt lat="39.827127092324226" lon="9.338454734341823"><ele>714.0</ele><time>2026-04-30T15:20:57.788Z</time></trkpt><trkpt lat="39.82712398131948" lon="9.338704272513182"><ele>714.0</ele><time>2026-04-30T15:20:58.788Z</time></trkpt><trkpt lat="39.82713058936244" lon="9.338946275241549"><ele>714.0</ele><time>2026-04-30T15:20:59.788Z</time></trkpt><trkpt lat="39.82713091910808" lon="9.339177954460888"><ele>715.0</ele><time>2026-04-30T15:21:00.788Z</time></trkpt><trkpt lat="39.82714507956045" lon="9.339387419626709"><ele>716.0</ele><time>2026-04-30T15:21:01.788Z</time></trkpt><trkpt lat="39.82719275275375" lon="9.339571338722081"><ele>717.0</ele><time>2026-04-30T15:21:02.788Z</time></trkpt><trkpt lat="39.827300479764844" lon="9.339756941744625"><ele>720.3333333333334</ele><time>2026-04-30T15:21:03.788Z</time></trkpt><trkpt lat="39.82747227713627" lon="9.339893983363531"><ele>723.6666666666667</ele><time>2026-04-30T15:21:04.788Z</time></trkpt><trkpt lat="39.82761961536588" lon="9.340056651184184"><ele>727.0</ele><time>2026-04-30T15:21:05.788Z</time></trkpt><trkpt lat="39.827707651608016" lon="9.340254517252049"><ele>726.5</ele><time>2026-04-30T15:21:06.788Z</time></trkpt><trkpt lat="39.82779022542613" lon="9.340447236725277"><ele>726.0</ele><time>2026-04-30T15:21:07.788Z</time></trkpt><trkpt lat="39.82788459018513" lon="9.340574397047886"><ele>725.5</ele><time>2026-04-30T15:21:08.788Z</time></trkpt><trkpt lat="39.82799147070512" lon="9.340649750702353"><ele>725.0</ele><time>2026-04-30T15:21:09.788Z</time></trkpt><trkpt lat="39.82814627165125" lon="9.34064375383918"><ele>725.0</ele><time>2026-04-30T15:21:10.788Z</time></trkpt><trkpt lat="39.828320568988" lon="9.340558652912113"><ele>725.0</ele><time>2026-04-30T15:21:11.788Z</time></trkpt><trkpt lat="39.82847694054356" lon="9.340537073288694"><ele>725.0</ele><time>2026-04-30T15:21:12.788Z</time></trkpt><trkpt lat="39.828587376158794" lon="9.340599388872187"><ele>722.3333333333333</ele><time>2026-04-30T15:21:13.788Z</time></trkpt><trkpt lat="39.82874236300634" lon="9.340675622017027"><ele>719.6666666666666</ele><time>2026-04-30T15:21:14.788Z</time></trkpt><trkpt lat="39.82890615855714" lon="9.340718069042758"><ele>717.0</ele><time>2026-04-30T15:21:15.788Z</time></trkpt><trkpt lat="39.82908030836456" lon="9.340668717642357"><ele>717.0</ele><time>2026-04-30T15:21:16.788Z</time></trkpt><trkpt lat="39.82927914501407" lon="9.340586551624543"><ele>717.0</ele><time>2026-04-30T15:21:17.788Z</time></trkpt><trkpt lat="39.82949442893758" lon="9.340573404993478"><ele>717.0</ele><time>2026-04-30T15:21:18.788Z</time></trkpt><trkpt lat="39.82966110229842" lon="9.340528668128657"><ele>714.5</ele><time>2026-04-30T15:21:19.788Z</time></trkpt><trkpt lat="39.829798588462324" lon="9.34051197139425"><ele>712.0</ele><time>2026-04-30T15:21:20.788Z</time></trkpt><trkpt lat="39.82990438646237" lon="9.340536130277641"><ele>709.5</ele><time>2026-04-30T15:21:21.788Z</time></trkpt><trkpt lat="39.82997379944967" lon="9.340642452312741"><ele>707.0</ele><time>2026-04-30T15:21:22.788Z</time></trkpt><trkpt lat="39.83000758150567" lon="9.340792253242384"><ele>707.0</ele><time>2026-04-30T15:21:23.788Z</time></trkpt><trkpt lat="39.83005850653521" lon="9.340967246995914"><ele>707.0</ele><time>2026-04-30T15:21:24.787Z</time></trkpt><trkpt lat="39.83015372523452" lon="9.341148478655322"><ele>707.0</ele><time>2026-04-30T15:21:25.787Z</time></trkpt><trkpt lat="39.83036481616331" lon="9.34122989779069"><ele>705.6666666666666</ele><time>2026-04-30T15:21:26.787Z</time></trkpt><trkpt lat="39.83054223015593" lon="9.341384556905497"><ele>704.3333333333334</ele><time>2026-04-30T15:21:27.787Z</time></trkpt><trkpt lat="39.830730520367034" lon="9.341485903984537"><ele>703.0</ele><time>2026-04-30T15:21:28.787Z</time></trkpt><trkpt lat="39.83091411830896" lon="9.341622824671207"><ele>701.6666666666667</ele><time>2026-04-30T15:21:29.787Z</time></trkpt><trkpt lat="39.831087413279064" lon="9.341784514887445"><ele>700.3333333333334</ele><time>2026-04-30T15:21:30.787Z</time></trkpt><trkpt lat="39.83125783524748" lon="9.34198171492687"><ele>699.0</ele><time>2026-04-30T15:21:31.787Z</time></trkpt><trkpt lat="39.831414513398" lon="9.342236711906441"><ele>699.0</ele><time>2026-04-30T15:21:32.787Z</time></trkpt><trkpt lat="39.831588876936124" lon="9.342398609681403"><ele>699.0</ele><time>2026-04-30T15:21:33.787Z</time></trkpt><trkpt lat="39.831759429793394" lon="9.342544880125212"><ele>699.0</ele><time>2026-04-30T15:21:34.787Z</time></trkpt><trkpt lat="39.83195294414576" lon="9.34262043187865"><ele>692.3333333333334</ele><time>2026-04-30T15:21:35.787Z</time></trkpt><trkpt lat="39.832164741417955" lon="9.342708360861323"><ele>685.6666666666667</ele><time>2026-04-30T15:21:36.787Z</time></trkpt><trkpt lat="39.83236856219866" lon="9.34281620108666"><ele>679.0</ele><time>2026-04-30T15:21:37.787Z</time></trkpt><trkpt lat="39.83256843534275" lon="9.342956654588303"><ele>680.5</ele><time>2026-04-30T15:21:38.787Z</time></trkpt><trkpt lat="39.832768362968444" lon="9.343119854438346"><ele>682.0</ele><time>2026-04-30T15:21:39.787Z</time></trkpt><trkpt lat="39.83294728697718" lon="9.343272177391828"><ele>682.0</ele><time>2026-04-30T15:21:40.787Z</time></trkpt><trkpt lat="39.83308264385912" lon="9.343462106701661"><ele>682.0</ele><time>2026-04-30T15:21:41.787Z</time></trkpt><trkpt lat="39.83326502205717" lon="9.343520469340177"><ele>682.0</ele><time>2026-04-30T15:21:42.787Z</time></trkpt><trkpt lat="39.833428037662934" lon="9.34362622096628"><ele>682.25</ele><time>2026-04-30T15:21:43.787Z</time></trkpt><trkpt lat="39.833547653163855" lon="9.343770989229123"><ele>682.5</ele><time>2026-04-30T15:21:44.787Z</time></trkpt><trkpt lat="39.83365356172338" lon="9.343895712283"><ele>682.75</ele><time>2026-04-30T15:21:45.787Z</time></trkpt><trkpt lat="39.83374235138904" lon="9.343965729923482"><ele>683.0</ele><time>2026-04-30T15:21:46.787Z</time></trkpt><trkpt lat="39.83381501417193" lon="9.343986770049952"><ele>683.0</ele><time>2026-04-30T15:21:47.787Z</time></trkpt><trkpt lat="39.83387806159548" lon="9.343923768252376"><ele>683.0</ele><time>2026-04-30T15:21:48.787Z</time></trkpt><trkpt lat="39.833936393900316" lon="9.343788616632798"><ele>683.0</ele><time>2026-04-30T15:21:49.787Z</time></trkpt><trkpt lat="39.833978048183276" lon="9.343651744683795"><ele>683.0</ele><time>2026-04-30T15:21:50.787Z</time></trkpt><trkpt lat="39.834015262677575" lon="9.343549665999431"><ele>683.0</ele><time>2026-04-30T15:21:51.787Z</time></trkpt><trkpt lat="39.833945205986325" lon="9.343414057046497"><ele>689.3333333333333</ele><time>2026-04-30T15:21:52.787Z</time></trkpt><trkpt lat="39.8338459064335" lon="9.343269352411987"><ele>695.6666666666666</ele><time>2026-04-30T15:21:53.787Z</time></trkpt><trkpt lat="39.833730106195276" lon="9.3431203743495"><ele>702.0</ele><time>2026-04-30T15:21:54.787Z</time></trkpt><trkpt lat="39.83361614498645" lon="9.342997649305781"><ele>699.25</ele><time>2026-04-30T15:21:55.787Z</time></trkpt><trkpt lat="39.833509173277406" lon="9.342883738419154"><ele>696.5</ele><time>2026-04-30T15:21:56.787Z</time></trkpt><trkpt lat="39.8334183927824" lon="9.342750817409314"><ele>693.75</ele><time>2026-04-30T15:21:57.787Z</time></trkpt><trkpt lat="39.833368088941185" lon="9.342577766402915"><ele>691.0</ele><time>2026-04-30T15:21:58.786Z</time></trkpt><trkpt lat="39.83328058632056" lon="9.342425414714207"><ele>691.0</ele><time>2026-04-30T15:21:59.786Z</time></trkpt><trkpt lat="39.833197157487625" lon="9.342271155926733"><ele>691.0</ele><time>2026-04-30T15:22:00.786Z</time></trkpt><trkpt lat="39.83311418311402" lon="9.34213753475984"><ele>691.0</ele><time>2026-04-30T15:22:01.786Z</time></trkpt><trkpt lat="39.83302921673694" lon="9.342021747761361"><ele>691.0</ele><time>2026-04-30T15:22:02.786Z</time></trkpt><trkpt lat="39.83294455674172" lon="9.341907398747306"><ele>690.25</ele><time>2026-04-30T15:22:03.786Z</time></trkpt><trkpt lat="39.83285471301477" lon="9.34179160729395"><ele>689.5</ele><time>2026-04-30T15:22:04.786Z</time></trkpt><trkpt lat="39.832770134699416" lon="9.341682649529515"><ele>688.75</ele><time>2026-04-30T15:22:05.786Z</time></trkpt><trkpt lat="39.83268643439831" lon="9.341582309251065"><ele>688.0</ele><time>2026-04-30T15:22:06.786Z</time></trkpt><trkpt lat="39.83258589191539" lon="9.341522546517448"><ele>688.0</ele><time>2026-04-30T15:22:07.786Z</time></trkpt><trkpt lat="39.83248500633772" lon="9.341472980794272"><ele>688.0</ele><time>2026-04-30T15:22:08.786Z</time></trkpt><trkpt lat="39.8323753561141" lon="9.341423292618687"><ele>688.0</ele><time>2026-04-30T15:22:09.786Z</time></trkpt><trkpt lat="39.83228593319941" lon="9.34132526938518"><ele>688.0</ele><time>2026-04-30T15:22:10.786Z</time></trkpt><trkpt lat="39.832276605018016" lon="9.341167527529237"><ele>694.6666666666667</ele><time>2026-04-30T15:22:11.786Z</time></trkpt><trkpt lat="39.83226122304212" lon="9.340976037573654"><ele>701.3333333333334</ele><time>2026-04-30T15:22:12.786Z</time></trkpt><trkpt lat="39.83223092891128" lon="9.340753573504767"><ele>708.0</ele><time>2026-04-30T15:22:13.786Z</time></trkpt><trkpt lat="39.83216782492944" lon="9.340534902457167"><ele>709.0</ele><time>2026-04-30T15:22:14.786Z</time></trkpt><trkpt lat="39.8321034266935" lon="9.340339389100224"><ele>710.0</ele><time>2026-04-30T15:22:15.786Z</time></trkpt><trkpt lat="39.83206003085396" lon="9.340165433956926"><ele>711.0</ele><time>2026-04-30T15:22:16.786Z</time></trkpt><trkpt lat="39.83204986308196" lon="9.340001683585482"><ele>712.0</ele><time>2026-04-30T15:22:17.786Z</time></trkpt><trkpt lat="39.83213205456521" lon="9.339864238841757"><ele>712.0</ele><time>2026-04-30T15:22:18.786Z</time></trkpt><trkpt lat="39.83222755288221" lon="9.33972419077587"><ele>712.0</ele><time>2026-04-30T15:22:19.786Z</time></trkpt><trkpt lat="39.83232859502867" lon="9.339526700779029"><ele>712.0</ele><time>2026-04-30T15:22:20.786Z</time></trkpt><trkpt lat="39.83241948385824" lon="9.33930840132582"><ele>714.0</ele><time>2026-04-30T15:22:21.786Z</time></trkpt><trkpt lat="39.83250767650928" lon="9.33909911048705"><ele>716.0</ele><time>2026-04-30T15:22:22.786Z</time></trkpt><trkpt lat="39.83262085710587" lon="9.338899560218"><ele>718.0</ele><time>2026-04-30T15:22:23.786Z</time></trkpt><trkpt lat="39.832753261956576" lon="9.338714789503985"><ele>718.0</ele><time>2026-04-30T15:22:24.786Z</time></trkpt><trkpt lat="39.832882343820074" lon="9.338565442914206"><ele>718.0</ele><time>2026-04-30T15:22:25.786Z</time></trkpt><trkpt lat="39.833005581989724" lon="9.338465774948027"><ele>718.0</ele><time>2026-04-30T15:22:26.786Z</time></trkpt><trkpt lat="39.83314328121509" lon="9.3384422407804"><ele>718.0</ele><time>2026-04-30T15:22:27.786Z</time></trkpt><trkpt lat="39.83322705589516" lon="9.338384968180613"><ele>718.0</ele><time>2026-04-30T15:22:28.786Z</time></trkpt><trkpt lat="39.83327956103322" lon="9.33829820393212"><ele>718.0</ele><time>2026-04-30T15:22:29.786Z</time></trkpt><trkpt lat="39.8332306111024" lon="9.338129605087882"><ele>718.0</ele><time>2026-04-30T15:22:30.786Z</time></trkpt><trkpt lat="39.83313859056746" lon="9.337992054457873"><ele>725.0</ele><time>2026-04-30T15:22:31.785Z</time></trkpt><trkpt lat="39.83299390749322" lon="9.337921628183919"><ele>732.0</ele><time>2026-04-30T15:22:32.785Z</time></trkpt><trkpt lat="39.832825891093975" lon="9.33787843507435"><ele>739.0</ele><time>2026-04-30T15:22:33.785Z</time></trkpt><trkpt lat="39.8326673281282" lon="9.337842322105548"><ele>737.0</ele><time>2026-04-30T15:22:34.785Z</time></trkpt><trkpt lat="39.83252555368653" lon="9.3378073363148"><ele>735.0</ele><time>2026-04-30T15:22:35.785Z</time></trkpt><trkpt lat="39.83239673196834" lon="9.337807530335505"><ele>733.0</ele><time>2026-04-30T15:22:36.785Z</time></trkpt><trkpt lat="39.83228297632971" lon="9.3378973176744"><ele>731.0</ele><time>2026-04-30T15:22:37.785Z</time></trkpt><trkpt lat="39.83216267276372" lon="9.33798522203154"><ele>725.5</ele><time>2026-04-30T15:22:38.785Z</time></trkpt><trkpt lat="39.832043854055584" lon="9.33806955953983"><ele>720.0</ele><time>2026-04-30T15:22:39.785Z</time></trkpt><trkpt lat="39.831919537422095" lon="9.33810573380566"><ele>714.5</ele><time>2026-04-30T15:22:40.785Z</time></trkpt><trkpt lat="39.83180566952137" lon="9.338130948732767"><ele>709.0</ele><time>2026-04-30T15:22:41.785Z</time></trkpt><trkpt lat="39.83169319294466" lon="9.338145934943043"><ele>709.0</ele><time>2026-04-30T15:22:42.785Z</time></trkpt><trkpt lat="39.83157610446928" lon="9.338123355132955"><ele>709.0</ele><time>2026-04-30T15:22:43.785Z</time></trkpt><trkpt lat="39.831471298652005" lon="9.3380469082959"><ele>709.0</ele><time>2026-04-30T15:22:44.785Z</time></trkpt><trkpt lat="39.831379036167384" lon="9.337933004812797"><ele>709.0</ele><time>2026-04-30T15:22:45.785Z</time></trkpt><trkpt lat="39.8312959816093" lon="9.337810615902097"><ele>714.25</ele><time>2026-04-30T15:22:46.785Z</time></trkpt><trkpt lat="39.83124759341609" lon="9.337668611817705"><ele>719.5</ele><time>2026-04-30T15:22:47.785Z</time></trkpt><trkpt lat="39.83120385098926" lon="9.337526228687441"><ele>724.75</ele><time>2026-04-30T15:22:48.786Z</time></trkpt><trkpt lat="39.831172216435895" lon="9.337377686455007"><ele>730.0</ele><time>2026-04-30T15:22:49.786Z</time></trkpt><trkpt lat="39.83117014390387" lon="9.33720015484512"><ele>733.75</ele><time>2026-04-30T15:22:50.786Z</time></trkpt><trkpt lat="39.831198270525654" lon="9.337038473242998"><ele>737.5</ele><time>2026-04-30T15:22:51.786Z</time></trkpt><trkpt lat="39.831227176986026" lon="9.33686407740297"><ele>741.25</ele><time>2026-04-30T15:22:52.786Z</time></trkpt><trkpt lat="39.83125681816574" lon="9.33669511474977"><ele>745.0</ele><time>2026-04-30T15:22:53.786Z</time></trkpt><trkpt lat="39.83127586343723" lon="9.336527100001247"><ele>745.75</ele><time>2026-04-30T15:22:54.787Z</time></trkpt><trkpt lat="39.831250554246374" lon="9.336368062185269"><ele>746.5</ele><time>2026-04-30T15:22:55.786Z</time></trkpt><trkpt lat="39.83122196707786" lon="9.33621084585354"><ele>747.25</ele><time>2026-04-30T15:22:56.786Z</time></trkpt><trkpt lat="39.83119434425204" lon="9.336050414481587"><ele>748.0</ele><time>2026-04-30T15:22:57.786Z</time></trkpt><trkpt lat="39.831188022360344" lon="9.335885822373266"><ele>748.0</ele><time>2026-04-30T15:22:58.785Z</time></trkpt><trkpt lat="39.831208445389954" lon="9.33572208489224"><ele>748.0</ele><time>2026-04-30T15:22:59.785Z</time></trkpt><trkpt lat="39.83128873531148" lon="9.335583862875"><ele>748.0</ele><time>2026-04-30T15:23:00.786Z</time></trkpt><trkpt lat="39.831362069689256" lon="9.335436111576566"><ele>748.0</ele><time>2026-04-30T15:23:01.786Z</time></trkpt><trkpt lat="39.831437631420414" lon="9.335287969800627"><ele>744.5</ele><time>2026-04-30T15:23:02.786Z</time></trkpt><trkpt lat="39.83151201855696" lon="9.335142093160567"><ele>741.0</ele><time>2026-04-30T15:23:03.786Z</time></trkpt><trkpt lat="39.8315910573793" lon="9.335000206347598"><ele>737.5</ele><time>2026-04-30T15:23:04.786Z</time></trkpt><trkpt lat="39.831685130547456" lon="9.334872169129572"><ele>734.0</ele><time>2026-04-30T15:23:05.786Z</time></trkpt><trkpt lat="39.83178903761746" lon="9.33477282566122"><ele>738.0</ele><time>2026-04-30T15:23:06.786Z</time></trkpt><trkpt lat="39.83190985922066" lon="9.334697374339731"><ele>742.0</ele><time>2026-04-30T15:23:07.786Z</time></trkpt><trkpt lat="39.83204284330066" lon="9.334617647580409"><ele>746.0</ele><time>2026-04-30T15:23:08.786Z</time></trkpt><trkpt lat="39.832170599578646" lon="9.334543090123157"><ele>750.0</ele><time>2026-04-30T15:23:09.786Z</time></trkpt><trkpt lat="39.832282603049045" lon="9.334465888884388"><ele>750.0</ele><time>2026-04-30T15:23:10.786Z</time></trkpt><trkpt lat="39.832354987168685" lon="9.33432804777675"><ele>750.0</ele><time>2026-04-30T15:23:11.786Z</time></trkpt><trkpt lat="39.83243293037676" lon="9.334201506885432"><ele>750.0</ele><time>2026-04-30T15:23:12.786Z</time></trkpt><trkpt lat="39.8323875567468" lon="9.333988949822157"><ele>750.0</ele><time>2026-04-30T15:23:13.786Z</time></trkpt><trkpt lat="39.83234001492339" lon="9.333786867959791"><ele>750.5</ele><time>2026-04-30T15:23:14.786Z</time></trkpt><trkpt lat="39.832297377085915" lon="9.333595105139256"><ele>751.0</ele><time>2026-04-30T15:23:15.786Z</time></trkpt><trkpt lat="39.832256234480404" lon="9.333408894268768"><ele>751.5</ele><time>2026-04-30T15:23:16.786Z</time></trkpt><trkpt lat="39.832230859606774" lon="9.333238547919002"><ele>752.0</ele><time>2026-04-30T15:23:17.786Z</time></trkpt><trkpt lat="39.83225887242699" lon="9.33308322646225"><ele>749.5</ele><time>2026-04-30T15:23:18.785Z</time></trkpt><trkpt lat="39.832323498018596" lon="9.332942626740074"><ele>747.0</ele><time>2026-04-30T15:23:19.785Z</time></trkpt><trkpt lat="39.83241016145962" lon="9.332799299560813"><ele>744.5</ele><time>2026-04-30T15:23:20.785Z</time></trkpt><trkpt lat="39.83252064749116" lon="9.33266192833282"><ele>742.0</ele><time>2026-04-30T15:23:21.785Z</time></trkpt><trkpt lat="39.83264780608915" lon="9.332547579360291"><ele>744.0</ele><time>2026-04-30T15:23:22.785Z</time></trkpt><trkpt lat="39.83279318232314" lon="9.332413756479042"><ele>746.0</ele><time>2026-04-30T15:23:23.785Z</time></trkpt><trkpt lat="39.83295280363994" lon="9.332283064487681"><ele>748.0</ele><time>2026-04-30T15:23:24.785Z</time></trkpt><trkpt lat="39.83312619988161" lon="9.332148180066518"><ele>748.0</ele><time>2026-04-30T15:23:25.785Z</time></trkpt><trkpt lat="39.8333035904716" lon="9.3320113296398"><ele>748.0</ele><time>2026-04-30T15:23:26.785Z</time></trkpt><trkpt lat="39.83345779085321" lon="9.331852540249782"><ele>748.0</ele><time>2026-04-30T15:23:27.785Z</time></trkpt><trkpt lat="39.83357264435833" lon="9.331658624704215"><ele>749.0</ele><time>2026-04-30T15:23:28.785Z</time></trkpt><trkpt lat="39.83369742562584" lon="9.331493100398088"><ele>750.0</ele><time>2026-04-30T15:23:29.785Z</time></trkpt><trkpt lat="39.83382525898437" lon="9.33137541027984"><ele>751.0</ele><time>2026-04-30T15:23:30.785Z</time></trkpt><trkpt lat="39.83396450585283" lon="9.331281825651544"><ele>751.0</ele><time>2026-04-30T15:23:31.785Z</time></trkpt><trkpt lat="39.83414443131219" lon="9.331188728505424"><ele>751.0</ele><time>2026-04-30T15:23:32.785Z</time></trkpt><trkpt lat="39.83432491328871" lon="9.33106819003646"><ele>751.0</ele><time>2026-04-30T15:23:33.785Z</time></trkpt><trkpt lat="39.83451149054913" lon="9.33093056568198"><ele>757.6666666666667</ele><time>2026-04-30T15:23:34.785Z</time></trkpt><trkpt lat="39.834698138649685" lon="9.3307919277388"><ele>764.3333333333334</ele><time>2026-04-30T15:23:35.785Z</time></trkpt><trkpt lat="39.83487924883699" lon="9.330663715257069"><ele>771.0</ele><time>2026-04-30T15:23:36.785Z</time></trkpt><trkpt lat="39.835046747192905" lon="9.330544243271849"><ele>778.5</ele><time>2026-04-30T15:23:37.785Z</time></trkpt><trkpt lat="39.83518215349224" lon="9.330442232620895"><ele>786.0</ele><time>2026-04-30T15:23:38.785Z</time></trkpt><trkpt lat="39.83527721872197" lon="9.330370175370728"><ele>793.5</ele><time>2026-04-30T15:23:39.785Z</time></trkpt><trkpt lat="39.8352763793481" lon="9.330205130603028"><ele>801.0</ele><time>2026-04-30T15:23:40.785Z</time></trkpt><trkpt lat="39.835208744590446" lon="9.330079391467292"><ele>796.0</ele><time>2026-04-30T15:23:41.785Z</time></trkpt><trkpt lat="39.835102907183206" lon="9.329935985886387"><ele>791.0</ele><time>2026-04-30T15:23:42.785Z</time></trkpt><trkpt lat="39.834988116156715" lon="9.329780003899442"><ele>786.0</ele><time>2026-04-30T15:23:43.785Z</time></trkpt><trkpt lat="39.83486928109564" lon="9.329621815355171"><ele>786.0</ele><time>2026-04-30T15:23:44.785Z</time></trkpt><trkpt lat="39.83479107986558" lon="9.329482616384103"><ele>786.0</ele><time>2026-04-30T15:23:45.785Z</time></trkpt><trkpt lat="39.834739603167925" lon="9.329323380350523"><ele>786.0</ele><time>2026-04-30T15:23:46.785Z</time></trkpt><trkpt lat="39.83477791322746" lon="9.329130797492574"><ele>786.0</ele><time>2026-04-30T15:23:47.785Z</time></trkpt><trkpt lat="39.834780358085" lon="9.328917447126981"><ele>787.5999999999999</ele><time>2026-04-30T15:23:48.785Z</time></trkpt><trkpt lat="39.834796441959455" lon="9.328751594940742"><ele>789.2</ele><time>2026-04-30T15:23:49.785Z</time></trkpt><trkpt lat="39.83476517387721" lon="9.32863196313831"><ele>790.8</ele><time>2026-04-30T15:23:50.785Z</time></trkpt><trkpt lat="39.83468958122743" lon="9.328558489818457"><ele>792.4000000000001</ele><time>2026-04-30T15:23:51.785Z</time></trkpt><trkpt lat="39.834574206612686" lon="9.328544640081036"><ele>794.0</ele><time>2026-04-30T15:23:52.784Z</time></trkpt><trkpt lat="39.83445165406198" lon="9.328557737311357"><ele>794.0</ele><time>2026-04-30T15:23:53.784Z</time></trkpt><trkpt lat="39.83433993764624" lon="9.328554223955893"><ele>794.0</ele><time>2026-04-30T15:23:54.784Z</time></trkpt><trkpt lat="39.83422265097777" lon="9.328526748088942"><ele>794.0</ele><time>2026-04-30T15:23:55.784Z</time></trkpt><trkpt lat="39.834119889835456" lon="9.32847899092719"><ele>794.0</ele><time>2026-04-30T15:23:56.784Z</time></trkpt><trkpt lat="39.83404641846222" lon="9.328372820047768"><ele>792.6</ele><time>2026-04-30T15:23:57.784Z</time></trkpt><trkpt lat="39.833972036043036" lon="9.328257801609473"><ele>791.2</ele><time>2026-04-30T15:23:58.784Z</time></trkpt><trkpt lat="39.83391039954785" lon="9.328150073254363"><ele>789.8000000000001</ele><time>2026-04-30T15:23:59.784Z</time></trkpt><trkpt lat="39.83388440051105" lon="9.328029870402958"><ele>788.4000000000001</ele><time>2026-04-30T15:24:00.784Z</time></trkpt><trkpt lat="39.83390073087258" lon="9.327892314044153"><ele>787.0</ele><time>2026-04-30T15:24:01.784Z</time></trkpt><trkpt lat="39.833956001685515" lon="9.327772835986945"><ele>786.4000000000001</ele><time>2026-04-30T15:24:02.784Z</time></trkpt><trkpt lat="39.834059068203025" lon="9.327732937783365"><ele>785.8000000000001</ele><time>2026-04-30T15:24:03.784Z</time></trkpt><trkpt lat="39.834157084961184" lon="9.327686379288211"><ele>785.2</ele><time>2026-04-30T15:24:04.784Z</time></trkpt><trkpt lat="39.83425758182337" lon="9.327623906379484"><ele>784.6</ele><time>2026-04-30T15:24:05.784Z</time></trkpt><trkpt lat="39.83435503200373" lon="9.327580546217076"><ele>784.0</ele><time>2026-04-30T15:24:06.784Z</time></trkpt><trkpt lat="39.834426479797756" lon="9.32754120311162"><ele>785.6</ele><time>2026-04-30T15:24:07.784Z</time></trkpt><trkpt lat="39.834488832001185" lon="9.3275125152216"><ele>787.2</ele><time>2026-04-30T15:24:08.784Z</time></trkpt><trkpt lat="39.834567705917756" lon="9.327482521985102"><ele>788.8000000000001</ele><time>2026-04-30T15:24:10.784Z</time></trkpt><trkpt lat="39.83465425273698" lon="9.327438768720747"><ele>790.4000000000001</ele><time>2026-04-30T15:24:12.784Z</time></trkpt><trkpt lat="39.83474855882083" lon="9.327392802909117"><ele>792.0</ele><time>2026-04-30T15:24:14.784Z</time></trkpt><trkpt lat="39.83485016032744" lon="9.327340875378443"><ele>792.0</ele><time>2026-04-30T15:24:16.784Z</time></trkpt><trkpt lat="39.83493081699947" lon="9.327297470532459"><ele>792.0</ele><time>2026-04-30T15:24:18.784Z</time></trkpt><trkpt lat="39.834998918301515" lon="9.327262977353312"><ele>792.0</ele><time>2026-04-30T15:24:20.784Z</time></trkpt><trkpt lat="39.835062584916024" lon="9.327240845870044"><ele>792.0</ele><time>2026-04-30T15:24:23.784Z</time></trkpt><trkpt lat="39.83505889649287" lon="9.327129850544845"><ele>792.0</ele><time>2026-04-30T15:29:30.786Z</time></trkpt><trkpt lat="39.83513347890994" lon="9.327088570036587"><ele>792.0</ele><time>2026-04-30T15:30:34.785Z</time></trkpt><trkpt lat="39.835232194412605" lon="9.327027892238776"><ele>792.1666666666666</ele><time>2026-04-30T15:30:36.785Z</time></trkpt><trkpt lat="39.83529912348296" lon="9.327008840381525"><ele>792.3333333333333</ele><time>2026-04-30T15:30:37.785Z</time></trkpt><trkpt lat="39.835363890754" lon="9.326966732332105"><ele>792.5</ele><time>2026-04-30T15:30:38.785Z</time></trkpt><trkpt lat="39.83543075653" lon="9.326917744634269"><ele>792.6666666666666</ele><time>2026-04-30T15:30:39.785Z</time></trkpt><trkpt lat="39.8355075540772" lon="9.326868305092036"><ele>792.8333333333333</ele><time>2026-04-30T15:30:40.785Z</time></trkpt><trkpt lat="39.83558589603771" lon="9.326797204678947"><ele>793.0</ele><time>2026-04-30T15:30:41.785Z</time></trkpt><trkpt lat="39.83566487740481" lon="9.326745708668438"><ele>793.0</ele><time>2026-04-30T15:30:42.785Z</time></trkpt><trkpt lat="39.8357339563989" lon="9.326684122815438"><ele>793.0</ele><time>2026-04-30T15:30:43.785Z</time></trkpt><trkpt lat="39.83581049628943" lon="9.326621629612918"><ele>793.0</ele><time>2026-04-30T15:30:44.784Z</time></trkpt><trkpt lat="39.83589194360561" lon="9.326554354334844"><ele>793.0</ele><time>2026-04-30T15:30:45.784Z</time></trkpt><trkpt lat="39.835955347419805" lon="9.326449599876023"><ele>793.0</ele><time>2026-04-30T15:30:46.784Z</time></trkpt><trkpt lat="39.83603241019474" lon="9.326358431878038"><ele>794.2</ele><time>2026-04-30T15:30:47.784Z</time></trkpt><trkpt lat="39.83610187256324" lon="9.32626778312802"><ele>795.4</ele><time>2026-04-30T15:30:48.784Z</time></trkpt><trkpt lat="39.83616988554746" lon="9.326186251620355"><ele>796.6</ele><time>2026-04-30T15:30:49.784Z</time></trkpt><trkpt lat="39.83625480100771" lon="9.326142430277708"><ele>797.8000000000001</ele><time>2026-04-30T15:30:50.784Z</time></trkpt><trkpt lat="39.836327209183224" lon="9.326074182491375"><ele>799.0</ele><time>2026-04-30T15:30:51.784Z</time></trkpt><trkpt lat="39.83639184975585" lon="9.326014677740673"><ele>798.9999999999999</ele><time>2026-04-30T15:30:52.784Z</time></trkpt><trkpt lat="39.83645526247866" lon="9.325958642324212"><ele>799.0</ele><time>2026-04-30T15:30:53.784Z</time></trkpt><trkpt lat="39.83651754541261" lon="9.325905531428294"><ele>799.0</ele><time>2026-04-30T15:30:54.784Z</time></trkpt><trkpt lat="39.83657627909891" lon="9.325856287059988"><ele>799.0</ele><time>2026-04-30T15:30:55.784Z</time></trkpt><trkpt lat="39.83668170599428" lon="9.325764824979421"><ele>798.9999999999999</ele><time>2026-04-30T15:30:57.784Z</time></trkpt><trkpt lat="39.836734101832974" lon="9.32571558957378"><ele>799.0</ele><time>2026-04-30T15:30:58.784Z</time></trkpt><trkpt lat="39.83682797271552" lon="9.325622420014493"><ele>798.6</ele><time>2026-04-30T15:31:00.784Z</time></trkpt><trkpt lat="39.83691520206587" lon="9.325527137299355"><ele>798.2</ele><time>2026-04-30T15:31:02.784Z</time></trkpt><trkpt lat="39.837007910713226" lon="9.325425776002136"><ele>797.8000000000001</ele><time>2026-04-30T15:31:04.784Z</time></trkpt><trkpt lat="39.83705715663889" lon="9.325374060059271"><ele>797.4000000000001</ele><time>2026-04-30T15:31:05.784Z</time></trkpt><trkpt lat="39.83712768106971" lon="9.325303357406884"><ele>797.0</ele><time>2026-04-30T15:31:07.784Z</time></trkpt><trkpt lat="39.837206912936786" lon="9.325224905439718"><ele>797.0</ele><time>2026-04-30T15:31:09.784Z</time></trkpt><trkpt lat="39.837312293978016" lon="9.325121134828017"><ele>797.0</ele><time>2026-04-30T15:31:11.784Z</time></trkpt><trkpt lat="39.837379635812624" lon="9.325057208992067"><ele>797.0</ele><time>2026-04-30T15:31:12.785Z</time></trkpt><trkpt lat="39.83744918293142" lon="9.324994031755745"><ele>797.0</ele><time>2026-04-30T15:31:13.785Z</time></trkpt><trkpt lat="39.83751523770886" lon="9.32493871697354"><ele>797.0</ele><time>2026-04-30T15:31:14.785Z</time></trkpt><trkpt lat="39.837591580542544" lon="9.324884119609239"><ele>794.6</ele><time>2026-04-30T15:31:15.785Z</time></trkpt><trkpt lat="39.837665247077254" lon="9.324836101173837"><ele>792.2</ele><time>2026-04-30T15:31:16.785Z</time></trkpt><trkpt lat="39.83774051535427" lon="9.324797269520454"><ele>789.8</ele><time>2026-04-30T15:31:17.785Z</time></trkpt><trkpt lat="39.83781625586699" lon="9.324761039684162"><ele>787.4</ele><time>2026-04-30T15:31:18.785Z</time></trkpt><trkpt lat="39.83789495499493" lon="9.324726847534032"><ele>785.0</ele><time>2026-04-30T15:31:19.784Z</time></trkpt><trkpt lat="39.83802996121923" lon="9.324677618530936"><ele>785.0000000000001</ele><time>2026-04-30T15:31:21.785Z</time></trkpt><trkpt lat="39.838092143578734" lon="9.324659731610216"><ele>785.0</ele><time>2026-04-30T15:31:22.785Z</time></trkpt><trkpt lat="39.83815421239028" lon="9.324642851420231"><ele>785.0</ele><time>2026-04-30T15:31:23.785Z</time></trkpt><trkpt lat="39.838257588396615" lon="9.324617516658313"><ele>785.0</ele><time>2026-04-30T15:31:25.784Z</time></trkpt><trkpt lat="39.83834706187023" lon="9.324599224346857"><ele>785.0000000000001</ele><time>2026-04-30T15:31:27.784Z</time></trkpt><trkpt lat="39.838451857475256" lon="9.32458294654024"><ele>785.0</ele><time>2026-04-30T15:31:29.784Z</time></trkpt><trkpt lat="39.83857803532661" lon="9.32456468307091"><ele>788.0000000000001</ele><time>2026-04-30T15:31:31.784Z</time></trkpt><trkpt lat="39.838698877929964" lon="9.324536907665438"><ele>791.0</ele><time>2026-04-30T15:31:33.784Z</time></trkpt><trkpt lat="39.838760726868585" lon="9.324480982136304"><ele>794.0</ele><time>2026-04-30T15:31:34.784Z</time></trkpt><trkpt lat="39.83880404701953" lon="9.32439674691681"><ele>797.0</ele><time>2026-04-30T15:31:35.784Z</time></trkpt><trkpt lat="39.838845797505336" lon="9.324327046385903"><ele>800.0000000000001</ele><time>2026-04-30T15:31:36.784Z</time></trkpt><trkpt lat="39.838884371823326" lon="9.324262197978399"><ele>803.0</ele><time>2026-04-30T15:31:37.784Z</time></trkpt><trkpt lat="39.838923166359585" lon="9.324196979349505"><ele>803.0000000000001</ele><time>2026-04-30T15:31:38.784Z</time></trkpt><trkpt lat="39.83900336709658" lon="9.32408242205211"><ele>803.0</ele><time>2026-04-30T15:31:40.784Z</time></trkpt><trkpt lat="39.839083623625584" lon="9.323997886676107"><ele>803.0</ele><time>2026-04-30T15:31:42.784Z</time></trkpt><trkpt lat="39.83914473407753" lon="9.32403206285335"><ele>803.0</ele><time>2026-04-30T15:31:45.784Z</time></trkpt><trkpt lat="39.83920811277261" lon="9.324030612542089"><ele>803.0000000000001</ele><time>2026-04-30T15:31:51.784Z</time></trkpt><trkpt lat="39.83929183991327" lon="9.324039789683164"><ele>803.0</ele><time>2026-04-30T15:31:58.783Z</time></trkpt><trkpt lat="39.83936136624856" lon="9.3240480897741"><ele>805.1666666666667</ele><time>2026-04-30T15:32:00.783Z</time></trkpt><trkpt lat="39.8394279407269" lon="9.324080511432893"><ele>807.3333333333334</ele><time>2026-04-30T15:32:31.783Z</time></trkpt><trkpt lat="39.839494950487065" lon="9.324120910491668"><ele>809.5</ele><time>2026-04-30T15:32:53.782Z</time></trkpt><trkpt lat="39.83956211888516" lon="9.324113111522216"><ele>811.6666666666667</ele><time>2026-04-30T15:33:00.782Z</time></trkpt><trkpt lat="39.83965987383525" lon="9.324071741042005"><ele>813.8333333333334</ele><time>2026-04-30T15:33:27.783Z</time></trkpt><trkpt lat="39.83973519886941" lon="9.324036412217897"><ele>816.0</ele><time>2026-04-30T15:33:31.783Z</time></trkpt><trkpt lat="39.83981037678875" lon="9.323980303539201"><ele>814.7142857142858</ele><time>2026-04-30T15:33:34.783Z</time></trkpt><trkpt lat="39.83987091092822" lon="9.323896497418655"><ele>813.4285714285714</ele><time>2026-04-30T15:33:36.783Z</time></trkpt><trkpt lat="39.83986979956171" lon="9.323812375619905"><ele>812.1428571428571</ele><time>2026-04-30T15:33:38.783Z</time></trkpt><trkpt lat="39.83985749674813" lon="9.323726723147296"><ele>810.8571428571429</ele><time>2026-04-30T15:33:40.783Z</time></trkpt><trkpt lat="39.8398428743192" lon="9.323631747288097"><ele>809.5714285714286</ele><time>2026-04-30T15:33:42.783Z</time></trkpt><trkpt lat="39.83982839653268" lon="9.323549450790313"><ele>808.2857142857143</ele><time>2026-04-30T15:33:45.782Z</time></trkpt><trkpt lat="39.83981105278012" lon="9.323450863232972"><ele>807.0</ele><time>2026-04-30T15:33:50.782Z</time></trkpt><trkpt lat="39.83979642040288" lon="9.323367687142097"><ele>807.0</ele><time>2026-04-30T15:33:52.782Z</time></trkpt><trkpt lat="39.83978084863592" lon="9.323279170149478"><ele>807.0</ele><time>2026-04-30T15:33:54.782Z</time></trkpt><trkpt lat="39.83969721306342" lon="9.323242375081984"><ele>807.0</ele><time>2026-04-30T15:33:56.782Z</time></trkpt><trkpt lat="39.83970876162101" lon="9.323075537603742"><ele>807.0</ele><time>2026-04-30T15:33:58.782Z</time></trkpt><trkpt lat="39.83972203787493" lon="9.322901752748988"><ele>807.0</ele><time>2026-04-30T15:34:00.782Z</time></trkpt><trkpt lat="39.83973131518739" lon="9.32280711521567"><ele>806.4000000000001</ele><time>2026-04-30T15:34:01.782Z</time></trkpt><trkpt lat="39.83974208514919" lon="9.32271937498818"><ele>805.8000000000001</ele><time>2026-04-30T15:34:02.782Z</time></trkpt><trkpt lat="39.83974731292535" lon="9.322584032700867"><ele>805.2</ele><time>2026-04-30T15:34:04.782Z</time></trkpt><trkpt lat="39.839740912357875" lon="9.322433002434385"><ele>804.6</ele><time>2026-04-30T15:34:07.782Z</time></trkpt><trkpt lat="39.83979918259049" lon="9.322362368524942"><ele>804.0</ele><time>2026-04-30T15:34:08.782Z</time></trkpt><trkpt lat="39.83982480340512" lon="9.32218287149863"><ele>802.6</ele><time>2026-04-30T15:34:10.782Z</time></trkpt><trkpt lat="39.83987520712376" lon="9.322051245031302"><ele>801.2</ele><time>2026-04-30T15:34:12.782Z</time></trkpt><trkpt lat="39.839896200878684" lon="9.32191619640029"><ele>799.8000000000001</ele><time>2026-04-30T15:34:14.782Z</time></trkpt><trkpt lat="39.83996582614741" lon="9.321808320354176"><ele>798.4000000000001</ele><time>2026-04-30T15:34:16.782Z</time></trkpt><trkpt lat="39.8400163532521" lon="9.321678560386566"><ele>797.0</ele><time>2026-04-30T15:34:18.782Z</time></trkpt><trkpt lat="39.84009220027091" lon="9.321594048080595"><ele>798.4000000000001</ele><time>2026-04-30T15:34:20.781Z</time></trkpt><trkpt lat="39.840149126015376" lon="9.3215117366935"><ele>799.8000000000001</ele><time>2026-04-30T15:34:22.781Z</time></trkpt><trkpt lat="39.84020547289936" lon="9.321411901154159"><ele>801.2</ele><time>2026-04-30T15:34:24.781Z</time></trkpt><trkpt lat="39.84025531688455" lon="9.321309548723496"><ele>802.6</ele><time>2026-04-30T15:34:26.781Z</time></trkpt><trkpt lat="39.84029821860899" lon="9.321183633852781"><ele>804.0</ele><time>2026-04-30T15:34:28.781Z</time></trkpt><trkpt lat="39.84033086436883" lon="9.321071438760045"><ele>804.0</ele><time>2026-04-30T15:34:30.781Z</time></trkpt><trkpt lat="39.840396949192865" lon="9.320950321937769"><ele>804.0</ele><time>2026-04-30T15:34:32.781Z</time></trkpt><trkpt lat="39.84043902157613" lon="9.320831492326464"><ele>804.0</ele><time>2026-04-30T15:34:34.781Z</time></trkpt><trkpt lat="39.84047361533964" lon="9.32070181471261"><ele>804.0</ele><time>2026-04-30T15:34:36.781Z</time></trkpt><trkpt lat="39.84054745083162" lon="9.320568500445328"><ele>804.0</ele><time>2026-04-30T15:34:38.781Z</time></trkpt><trkpt lat="39.8406294829641" lon="9.320462997816666"><ele>802.0</ele><time>2026-04-30T15:34:40.781Z</time></trkpt><trkpt lat="39.840668111336484" lon="9.320396470646475"><ele>800.0</ele><time>2026-04-30T15:34:41.781Z</time></trkpt><trkpt lat="39.84073992820786" lon="9.320275975440081"><ele>798.0</ele><time>2026-04-30T15:34:43.781Z</time></trkpt><trkpt lat="39.84078488476985" lon="9.3201623735433"><ele>796.0</ele><time>2026-04-30T15:34:45.781Z</time></trkpt><trkpt lat="39.840813007280595" lon="9.320088005078992"><ele>794.0</ele><time>2026-04-30T15:34:47.781Z</time></trkpt><trkpt lat="39.84078632293613" lon="9.319970447025135"><ele>792.0</ele><time>2026-04-30T15:34:49.781Z</time></trkpt><trkpt lat="39.84082742639516" lon="9.319870560645047"><ele>792.0</ele><time>2026-04-30T15:34:51.781Z</time></trkpt><trkpt lat="39.840905942535215" lon="9.319818538244649"><ele>792.0</ele><time>2026-04-30T15:34:53.781Z</time></trkpt><trkpt lat="39.84096548683365" lon="9.319751815020958"><ele>792.0</ele><time>2026-04-30T15:35:05.78Z</time></trkpt><trkpt lat="39.841017596455224" lon="9.319669199215701"><ele>792.0</ele><time>2026-04-30T15:35:08.78Z</time></trkpt><trkpt lat="39.841082791095424" lon="9.319586119259288"><ele>792.0</ele><time>2026-04-30T15:35:10.78Z</time></trkpt><trkpt lat="39.84114654166461" lon="9.319468044385971"><ele>792.8333333333334</ele><time>2026-04-30T15:35:12.78Z</time></trkpt><trkpt lat="39.841158826537715" lon="9.319313719274561"><ele>793.6666666666667</ele><time>2026-04-30T15:35:14.78Z</time></trkpt><trkpt lat="39.841148781321294" lon="9.319230955435136"><ele>794.5</ele><time>2026-04-30T15:35:15.78Z</time></trkpt><trkpt lat="39.84113156673745" lon="9.319075545127028"><ele>795.3333333333334</ele><time>2026-04-30T15:35:17.78Z</time></trkpt><trkpt lat="39.84113015404958" lon="9.318993412143856"><ele>796.1666666666667</ele><time>2026-04-30T15:35:18.78Z</time></trkpt><trkpt lat="39.84113276424758" lon="9.318909312273734"><ele>797.0</ele><time>2026-04-30T15:35:19.78Z</time></trkpt><trkpt lat="39.841135623828954" lon="9.318818350624786"><ele>797.0</ele><time>2026-04-30T15:35:20.78Z</time></trkpt><trkpt lat="39.841155256533845" lon="9.318656467036112"><ele>797.0</ele><time>2026-04-30T15:35:22.78Z</time></trkpt><trkpt lat="39.84120630251757" lon="9.318513059142035"><ele>797.0</ele><time>2026-04-30T15:35:24.78Z</time></trkpt><trkpt lat="39.84123836640584" lon="9.318360772766468"><ele>797.0</ele><time>2026-04-30T15:35:26.78Z</time></trkpt><trkpt lat="39.84126901257491" lon="9.318274706882102"><ele>797.0</ele><time>2026-04-30T15:35:27.78Z</time></trkpt><trkpt lat="39.841308262719075" lon="9.318195695842503"><ele>797.0000000000001</ele><time>2026-04-30T15:35:28.78Z</time></trkpt><trkpt lat="39.84136367879234" lon="9.318115049335749"><ele>797.0</ele><time>2026-04-30T15:35:29.78Z</time></trkpt><trkpt lat="39.8414252447131" lon="9.31804473394739"><ele>797.0</ele><time>2026-04-30T15:35:30.78Z</time></trkpt><trkpt lat="39.8414882492589" lon="9.317962300207066"><ele>797.0</ele><time>2026-04-30T15:35:31.78Z</time></trkpt><trkpt lat="39.84155312675286" lon="9.31788212056192"><ele>797.0000000000001</ele><time>2026-04-30T15:35:32.78Z</time></trkpt><trkpt lat="39.841614012568385" lon="9.317802532779162"><ele>797.0</ele><time>2026-04-30T15:35:33.78Z</time></trkpt><trkpt lat="39.84168746871338" lon="9.317725115276634"><ele>797.6666666666667</ele><time>2026-04-30T15:35:34.78Z</time></trkpt><trkpt lat="39.841764007973026" lon="9.317653108697275"><ele>798.3333333333334</ele><time>2026-04-30T15:35:35.781Z</time></trkpt><trkpt lat="39.84184322354633" lon="9.317592108595138"><ele>799.0</ele><time>2026-04-30T15:35:36.78Z</time></trkpt><trkpt lat="39.841922052220895" lon="9.317525231010732"><ele>799.6666666666667</ele><time>2026-04-30T15:35:37.78Z</time></trkpt><trkpt lat="39.841994390878114" lon="9.317466665615466"><ele>800.3333333333334</ele><time>2026-04-30T15:35:38.78Z</time></trkpt><trkpt lat="39.84205635614796" lon="9.31741111060263"><ele>801.0</ele><time>2026-04-30T15:35:39.78Z</time></trkpt><trkpt lat="39.842091461208575" lon="9.317318103383963"><ele>799.5999999999999</ele><time>2026-04-30T15:35:40.78Z</time></trkpt><trkpt lat="39.84209658777015" lon="9.317213512075332"><ele>798.2</ele><time>2026-04-30T15:35:41.78Z</time></trkpt><trkpt lat="39.8420696741877" lon="9.317116371482845"><ele>796.8</ele><time>2026-04-30T15:35:42.78Z</time></trkpt><trkpt lat="39.842043581361615" lon="9.316999193754212"><ele>795.4000000000001</ele><time>2026-04-30T15:35:43.78Z</time></trkpt><trkpt lat="39.84202209620639" lon="9.316881751318189"><ele>794.0</ele><time>2026-04-30T15:35:44.78Z</time></trkpt><trkpt lat="39.84200224191196" lon="9.316744504840345"><ele>794.0000000000001</ele><time>2026-04-30T15:35:45.78Z</time></trkpt><trkpt lat="39.84199347380881" lon="9.316632463138069"><ele>794.0</ele><time>2026-04-30T15:35:46.78Z</time></trkpt><trkpt lat="39.84199375990584" lon="9.316520331381017"><ele>794.0</ele><time>2026-04-30T15:35:47.78Z</time></trkpt><trkpt lat="39.84200568647184" lon="9.316420013470218"><ele>794.0</ele><time>2026-04-30T15:35:48.78Z</time></trkpt><trkpt lat="39.84202245749346" lon="9.316321673353936"><ele>794.0000000000001</ele><time>2026-04-30T15:35:49.78Z</time></trkpt><trkpt lat="39.84204807041611" lon="9.316238967274666"><ele>794.0</ele><time>2026-04-30T15:35:50.78Z</time></trkpt><trkpt lat="39.84209677244379" lon="9.31616111870236"><ele>792.5000000000001</ele><time>2026-04-30T15:35:51.78Z</time></trkpt><trkpt lat="39.84211963626741" lon="9.31606232253367"><ele>791.0</ele><time>2026-04-30T15:35:52.78Z</time></trkpt><trkpt lat="39.84208580743967" lon="9.315959488483308"><ele>789.5</ele><time>2026-04-30T15:35:53.78Z</time></trkpt><trkpt lat="39.84208510768838" lon="9.315864661238832"><ele>788.0</ele><time>2026-04-30T15:35:54.78Z</time></trkpt><trkpt lat="39.842068391102835" lon="9.315772796238306"><ele>786.5000000000001</ele><time>2026-04-30T15:35:55.78Z</time></trkpt><trkpt lat="39.84205726618929" lon="9.315670411253725"><ele>785.0</ele><time>2026-04-30T15:35:56.78Z</time></trkpt><trkpt lat="39.84206136394376" lon="9.315569048358775"><ele>782.8333333333334</ele><time>2026-04-30T15:35:57.78Z</time></trkpt><trkpt lat="39.84207028194836" lon="9.315457877300485"><ele>780.6666666666667</ele><time>2026-04-30T15:35:58.78Z</time></trkpt><trkpt lat="39.842095693328446" lon="9.315347785460693"><ele>778.5</ele><time>2026-04-30T15:35:59.78Z</time></trkpt><trkpt lat="39.84213421426993" lon="9.315247388959653"><ele>776.3333333333333</ele><time>2026-04-30T15:36:00.78Z</time></trkpt><trkpt lat="39.84218267719882" lon="9.315155419100302"><ele>774.1666666666666</ele><time>2026-04-30T15:36:01.78Z</time></trkpt><trkpt lat="39.84223074552316" lon="9.315068189985983"><ele>772.0</ele><time>2026-04-30T15:36:02.78Z</time></trkpt><trkpt lat="39.842274471654484" lon="9.315001642184498"><ele>771.9999999999999</ele><time>2026-04-30T15:36:03.78Z</time></trkpt><trkpt lat="39.84230561632297" lon="9.314916932237956"><ele>772.0</ele><time>2026-04-30T15:36:04.78Z</time></trkpt><trkpt lat="39.84235557925808" lon="9.314845172714167"><ele>772.0</ele><time>2026-04-30T15:36:05.78Z</time></trkpt><trkpt lat="39.84240382691866" lon="9.31469498205521"><ele>772.0</ele><time>2026-04-30T15:36:07.78Z</time></trkpt><trkpt lat="39.84242676368767" lon="9.31461473101158"><ele>771.9999999999999</ele><time>2026-04-30T15:36:08.779Z</time></trkpt><trkpt lat="39.84243968822318" lon="9.314521643994631"><ele>772.0</ele><time>2026-04-30T15:36:09.779Z</time></trkpt><trkpt lat="39.84245357836366" lon="9.31442522029693"><ele>769.8333333333333</ele><time>2026-04-30T15:36:10.779Z</time></trkpt><trkpt lat="39.84246285364653" lon="9.314330944073943"><ele>767.6666666666666</ele><time>2026-04-30T15:36:11.779Z</time></trkpt><trkpt lat="39.842466918780026" lon="9.314225731316414"><ele>765.5</ele><time>2026-04-30T15:36:12.779Z</time></trkpt><trkpt lat="39.84247571297024" lon="9.31412442262586"><ele>763.3333333333333</ele><time>2026-04-30T15:36:13.779Z</time></trkpt><trkpt lat="39.842491493293466" lon="9.314037038720771"><ele>761.1666666666666</ele><time>2026-04-30T15:36:14.779Z</time></trkpt><trkpt lat="39.84248154124769" lon="9.313939664092684"><ele>759.0</ele><time>2026-04-30T15:36:15.779Z</time></trkpt><trkpt lat="39.84249171881949" lon="9.313840137946277"><ele>757.8333333333334</ele><time>2026-04-30T15:36:16.779Z</time></trkpt><trkpt lat="39.84249845917046" lon="9.313746814958648"><ele>756.6666666666666</ele><time>2026-04-30T15:36:17.779Z</time></trkpt><trkpt lat="39.84252728189864" lon="9.313656617325178"><ele>755.5</ele><time>2026-04-30T15:36:18.779Z</time></trkpt><trkpt lat="39.84255038465282" lon="9.313560536536883"><ele>754.3333333333333</ele><time>2026-04-30T15:36:19.779Z</time></trkpt><trkpt lat="39.842609534854326" lon="9.313444297980535"><ele>753.1666666666666</ele><time>2026-04-30T15:36:20.779Z</time></trkpt><trkpt lat="39.84269235481696" lon="9.313336683571324"><ele>752.0</ele><time>2026-04-30T15:36:21.779Z</time></trkpt><trkpt lat="39.842775986699024" lon="9.31321353443354"><ele>758.25</ele><time>2026-04-30T15:36:22.779Z</time></trkpt><trkpt lat="39.84283350313569" lon="9.313029478057581"><ele>764.5</ele><time>2026-04-30T15:36:23.779Z</time></trkpt><trkpt lat="39.84288478154471" lon="9.312863326097627"><ele>770.75</ele><time>2026-04-30T15:36:24.779Z</time></trkpt><trkpt lat="39.84293045146035" lon="9.312710091737863"><ele>777.0</ele><time>2026-04-30T15:36:25.779Z</time></trkpt><trkpt lat="39.8429701391446" lon="9.31257633439301"><ele>777.0</ele><time>2026-04-30T15:36:26.779Z</time></trkpt><trkpt lat="39.843002687634865" lon="9.312455200849381"><ele>777.0</ele><time>2026-04-30T15:36:27.779Z</time></trkpt><trkpt lat="39.84302346050489" lon="9.31234376018492"><ele>777.0</ele><time>2026-04-30T15:36:28.779Z</time></trkpt><trkpt lat="39.84303916045633" lon="9.31224422066509"><ele>777.0</ele><time>2026-04-30T15:36:29.779Z</time></trkpt><trkpt lat="39.84304914432007" lon="9.312140062842554"><ele>777.0</ele><time>2026-04-30T15:36:30.779Z</time></trkpt><trkpt lat="39.84304825993669" lon="9.312026597897537"><ele>777.0</ele><time>2026-04-30T15:36:31.779Z</time></trkpt><trkpt lat="39.84304033884441" lon="9.31191135619718"><ele>777.8333333333334</ele><time>2026-04-30T15:36:32.779Z</time></trkpt><trkpt lat="39.84302783523745" lon="9.311793841173001"><ele>778.6666666666667</ele><time>2026-04-30T15:36:33.779Z</time></trkpt><trkpt lat="39.843017766599736" lon="9.311697068266115"><ele>779.5</ele><time>2026-04-30T15:36:34.779Z</time></trkpt><trkpt lat="39.84300381336031" lon="9.311587051050026"><ele>780.3333333333334</ele><time>2026-04-30T15:36:35.779Z</time></trkpt><trkpt lat="39.842986588845406" lon="9.311487238765938"><ele>781.1666666666667</ele><time>2026-04-30T15:36:36.779Z</time></trkpt><trkpt lat="39.84295581708966" lon="9.311388244579241"><ele>782.0</ele><time>2026-04-30T15:36:37.779Z</time></trkpt><trkpt lat="39.842918191271934" lon="9.311299946192133"><ele>782.5000000000001</ele><time>2026-04-30T15:36:38.779Z</time></trkpt><trkpt lat="39.84285500963476" lon="9.311243713537475"><ele>783.0</ele><time>2026-04-30T15:36:39.779Z</time></trkpt><trkpt lat="39.84276672094209" lon="9.311221891789884"><ele>783.5</ele><time>2026-04-30T15:36:40.779Z</time></trkpt><trkpt lat="39.84268766082418" lon="9.311220322014243"><ele>784.0</ele><time>2026-04-30T15:36:41.779Z</time></trkpt><trkpt lat="39.8426202864827" lon="9.31126269516179"><ele>784.5000000000001</ele><time>2026-04-30T15:36:42.779Z</time></trkpt><trkpt lat="39.842571713470775" lon="9.311320152780786"><ele>785.0</ele><time>2026-04-30T15:36:43.778Z</time></trkpt><trkpt lat="39.84255056111536" lon="9.311409485821786"><ele>782.8333333333334</ele><time>2026-04-30T15:36:44.778Z</time></trkpt><trkpt lat="39.842552278145355" lon="9.311517046139743"><ele>780.6666666666667</ele><time>2026-04-30T15:36:45.778Z</time></trkpt><trkpt lat="39.842560382115124" lon="9.311630032044214"><ele>778.5</ele><time>2026-04-30T15:36:46.778Z</time></trkpt><trkpt lat="39.84255943420733" lon="9.311732498231587"><ele>776.3333333333333</ele><time>2026-04-30T15:36:47.778Z</time></trkpt><trkpt lat="39.84254855262044" lon="9.311855680329954"><ele>774.1666666666666</ele><time>2026-04-30T15:36:48.778Z</time></trkpt><trkpt lat="39.84252368157795" lon="9.311973559919513"><ele>772.0</ele><time>2026-04-30T15:36:49.778Z</time></trkpt><trkpt lat="39.84249294700497" lon="9.312088669711947"><ele>772.0</ele><time>2026-04-30T15:36:50.778Z</time></trkpt><trkpt lat="39.84243428221536" lon="9.312191807332482"><ele>772.0</ele><time>2026-04-30T15:36:51.778Z</time></trkpt><trkpt lat="39.8423600646776" lon="9.312274228263894"><ele>772.0</ele><time>2026-04-30T15:36:52.778Z</time></trkpt><trkpt lat="39.842279911980434" lon="9.312331750288386"><ele>772.0</ele><time>2026-04-30T15:36:53.778Z</time></trkpt><trkpt lat="39.84219844538264" lon="9.312369399378895"><ele>772.0</ele><time>2026-04-30T15:36:54.778Z</time></trkpt><trkpt lat="39.84210613919261" lon="9.312385175064808"><ele>772.8</ele><time>2026-04-30T15:36:55.778Z</time></trkpt><trkpt lat="39.84200037144347" lon="9.312371470934732"><ele>773.6</ele><time>2026-04-30T15:36:56.778Z</time></trkpt><trkpt lat="39.84189597111391" lon="9.312351501302128"><ele>774.4</ele><time>2026-04-30T15:36:57.778Z</time></trkpt><trkpt lat="39.84180000241432" lon="9.312343927502083"><ele>775.1999999999999</ele><time>2026-04-30T15:36:58.778Z</time></trkpt><trkpt lat="39.841710166328006" lon="9.312380518778541"><ele>776.0</ele><time>2026-04-30T15:36:59.778Z</time></trkpt><trkpt lat="39.84162435933592" lon="9.312477001137017"><ele>776.0</ele><time>2026-04-30T15:37:00.778Z</time></trkpt><trkpt lat="39.84155140930098" lon="9.312578892632166"><ele>776.0</ele><time>2026-04-30T15:37:01.778Z</time></trkpt><trkpt lat="39.84148850096699" lon="9.312688005868674"><ele>776.0</ele><time>2026-04-30T15:37:02.778Z</time></trkpt><trkpt lat="39.84142355802586" lon="9.31279630703312"><ele>776.0</ele><time>2026-04-30T15:37:03.778Z</time></trkpt><trkpt lat="39.84136432171851" lon="9.312888246594886"><ele>776.0</ele><time>2026-04-30T15:37:04.778Z</time></trkpt><trkpt lat="39.84130702097089" lon="9.312965867810965"><ele>776.0</ele><time>2026-04-30T15:37:05.778Z</time></trkpt><trkpt lat="39.84123030499277" lon="9.3130387496807"><ele>776.0</ele><time>2026-04-30T15:37:06.778Z</time></trkpt><trkpt lat="39.84114890550714" lon="9.31309522837367"><ele>776.0</ele><time>2026-04-30T15:37:07.778Z</time></trkpt><trkpt lat="39.8410534571034" lon="9.313089492123456"><ele>776.0</ele><time>2026-04-30T15:37:08.778Z</time></trkpt><trkpt lat="39.8409381316512" lon="9.313105569101621"><ele>776.0</ele><time>2026-04-30T15:37:09.778Z</time></trkpt><trkpt lat="39.84082420362689" lon="9.313097573549088"><ele>776.0000000000001</ele><time>2026-04-30T15:37:10.778Z</time></trkpt><trkpt lat="39.84071750032207" lon="9.31309763151562"><ele>776.0</ele><time>2026-04-30T15:37:11.778Z</time></trkpt><trkpt lat="39.84062782562122" lon="9.313100125494556"><ele>776.0</ele><time>2026-04-30T15:37:12.778Z</time></trkpt><trkpt lat="39.8405391825596" lon="9.313098633101019"><ele>776.0</ele><time>2026-04-30T15:37:13.778Z</time></trkpt><trkpt lat="39.840462753119695" lon="9.313099354771552"><ele>776.0000000000001</ele><time>2026-04-30T15:37:14.778Z</time></trkpt><trkpt lat="39.84038693943385" lon="9.313111749614295"><ele>776.0</ele><time>2026-04-30T15:37:15.778Z</time></trkpt><trkpt lat="39.84030654577701" lon="9.313160099886016"><ele>776.0</ele><time>2026-04-30T15:37:16.778Z</time></trkpt><trkpt lat="39.84023732926029" lon="9.31323734699664"><ele>776.0</ele><time>2026-04-30T15:37:17.778Z</time></trkpt><trkpt lat="39.84018444618782" lon="9.313341329287992"><ele>776.0</ele><time>2026-04-30T15:37:18.777Z</time></trkpt><trkpt lat="39.84015483404966" lon="9.313474487929138"><ele>776.0</ele><time>2026-04-30T15:37:19.777Z</time></trkpt><trkpt lat="39.84010947172545" lon="9.313595394232209"><ele>776.0</ele><time>2026-04-30T15:37:20.777Z</time></trkpt><trkpt lat="39.84005323250604" lon="9.313709044067313"><ele>778.5</ele><time>2026-04-30T15:37:21.777Z</time></trkpt><trkpt lat="39.83998669803615" lon="9.31383055562964"><ele>781.0</ele><time>2026-04-30T15:37:22.777Z</time></trkpt><trkpt lat="39.839915776796346" lon="9.313973461404201"><ele>783.5</ele><time>2026-04-30T15:37:23.777Z</time></trkpt><trkpt lat="39.83982633108456" lon="9.314106968497532"><ele>786.0</ele><time>2026-04-30T15:37:24.777Z</time></trkpt><trkpt lat="39.839750093401335" lon="9.31424998448371"><ele>786.0</ele><time>2026-04-30T15:37:25.777Z</time></trkpt><trkpt lat="39.83965011966057" lon="9.314374972904115"><ele>786.0</ele><time>2026-04-30T15:37:26.777Z</time></trkpt><trkpt lat="39.839538880583085" lon="9.31449631634153"><ele>786.0</ele><time>2026-04-30T15:37:27.777Z</time></trkpt><trkpt lat="39.83942106050766" lon="9.314605223247108"><ele>786.0</ele><time>2026-04-30T15:37:28.779Z</time></trkpt><trkpt lat="39.839290006106694" lon="9.31469725350052"><ele>787.3333333333333</ele><time>2026-04-30T15:37:29.778Z</time></trkpt><trkpt lat="39.83915161682027" lon="9.314784509714586"><ele>788.6666666666666</ele><time>2026-04-30T15:37:30.778Z</time></trkpt><trkpt lat="39.838995949177054" lon="9.31485634115254"><ele>790.0</ele><time>2026-04-30T15:37:31.778Z</time></trkpt><trkpt lat="39.83884572037408" lon="9.31492127668347"><ele>790.0</ele><time>2026-04-30T15:37:32.778Z</time></trkpt><trkpt lat="39.83868990137368" lon="9.314956864911412"><ele>790.0</ele><time>2026-04-30T15:37:33.778Z</time></trkpt><trkpt lat="39.83853574866211" lon="9.314966854413747"><ele>790.0</ele><time>2026-04-30T15:37:34.778Z</time></trkpt><trkpt lat="39.838363137889424" lon="9.314915426270739"><ele>795.3333333333333</ele><time>2026-04-30T15:37:35.778Z</time></trkpt><trkpt lat="39.83819707271071" lon="9.31490803224538"><ele>800.6666666666667</ele><time>2026-04-30T15:37:36.778Z</time></trkpt><trkpt lat="39.83805101788492" lon="9.31488928312563"><ele>806.0</ele><time>2026-04-30T15:37:37.778Z</time></trkpt><trkpt lat="39.83791892405252" lon="9.314936119299947"><ele>806.0</ele><time>2026-04-30T15:37:38.778Z</time></trkpt><trkpt lat="39.83779478728908" lon="9.31507634212644"><ele>806.0</ele><time>2026-04-30T15:37:39.778Z</time></trkpt><trkpt lat="39.83769235389372" lon="9.31523212531952"><ele>806.0</ele><time>2026-04-30T15:37:40.778Z</time></trkpt><trkpt lat="39.83757506864865" lon="9.315339090637131"><ele>807.5</ele><time>2026-04-30T15:37:41.777Z</time></trkpt><trkpt lat="39.83742732147079" lon="9.315329401977392"><ele>809.0</ele><time>2026-04-30T15:37:42.777Z</time></trkpt><trkpt lat="39.83730585707284" lon="9.315260483390466"><ele>810.5</ele><time>2026-04-30T15:37:43.777Z</time></trkpt><trkpt lat="39.8371839200226" lon="9.315155492074577"><ele>812.0</ele><time>2026-04-30T15:37:44.777Z</time></trkpt><trkpt lat="39.83712009253734" lon="9.31501239516073"><ele>812.0</ele><time>2026-04-30T15:37:45.777Z</time></trkpt><trkpt lat="39.83716296079157" lon="9.314872644825062"><ele>812.0</ele><time>2026-04-30T15:37:46.777Z</time></trkpt><trkpt lat="39.83723907946489" lon="9.314765377300196"><ele>812.0</ele><time>2026-04-30T15:37:47.777Z</time></trkpt><trkpt lat="39.837349244512794" lon="9.314612359015216"><ele>812.0</ele><time>2026-04-30T15:37:48.777Z</time></trkpt><trkpt lat="39.837478251465384" lon="9.314428181120437"><ele>810.6666666666667</ele><time>2026-04-30T15:37:49.777Z</time></trkpt><trkpt lat="39.83761181703152" lon="9.314236165231243"><ele>809.3333333333333</ele><time>2026-04-30T15:37:50.777Z</time></trkpt><trkpt lat="39.83773088261132" lon="9.314042492898432"><ele>808.0</ele><time>2026-04-30T15:37:51.777Z</time></trkpt><trkpt lat="39.83786392293806" lon="9.313850033161152"><ele>811.3333333333333</ele><time>2026-04-30T15:37:52.777Z</time></trkpt><trkpt lat="39.8380053966065" lon="9.313643739493964"><ele>814.6666666666667</ele><time>2026-04-30T15:37:53.777Z</time></trkpt><trkpt lat="39.838175918371626" lon="9.313467003309054"><ele>818.0</ele><time>2026-04-30T15:37:54.777Z</time></trkpt><trkpt lat="39.838339900624256" lon="9.31329081512935"><ele>820.3333333333334</ele><time>2026-04-30T15:37:55.777Z</time></trkpt><trkpt lat="39.83850472400525" lon="9.31310924604204"><ele>822.6666666666667</ele><time>2026-04-30T15:37:56.777Z</time></trkpt><trkpt lat="39.838659959909656" lon="9.31291341601266"><ele>825.0</ele><time>2026-04-30T15:37:57.777Z</time></trkpt><trkpt lat="39.8387843990392" lon="9.312673221122363"><ele>824.0</ele><time>2026-04-30T15:37:58.777Z</time></trkpt><trkpt lat="39.838931719451935" lon="9.312446088841368"><ele>823.0</ele><time>2026-04-30T15:37:59.777Z</time></trkpt><trkpt lat="39.83907021239248" lon="9.312204095624807"><ele>823.0</ele><time>2026-04-30T15:38:00.777Z</time></trkpt><trkpt lat="39.83920564127002" lon="9.311962342822335"><ele>823.0</ele><time>2026-04-30T15:38:01.777Z</time></trkpt><trkpt lat="39.83934002374499" lon="9.311719671914592"><ele>827.0</ele><time>2026-04-30T15:38:02.777Z</time></trkpt><trkpt lat="39.83946198575508" lon="9.311489865424724"><ele>831.0</ele><time>2026-04-30T15:38:03.777Z</time></trkpt><trkpt lat="39.83956577612896" lon="9.311234287526617"><ele>835.0</ele><time>2026-04-30T15:38:04.777Z</time></trkpt><trkpt lat="39.83965190461244" lon="9.310974541584333"><ele>837.6666666666666</ele><time>2026-04-30T15:38:05.777Z</time></trkpt><trkpt lat="39.83972802102722" lon="9.310718473283952"><ele>840.3333333333333</ele><time>2026-04-30T15:38:06.777Z</time></trkpt><trkpt lat="39.839802629397" lon="9.310467478272985"><ele>843.0</ele><time>2026-04-30T15:38:07.777Z</time></trkpt><trkpt lat="39.83985554647754" lon="9.310235472326665"><ele>843.75</ele><time>2026-04-30T15:38:08.777Z</time></trkpt><trkpt lat="39.83992916762256" lon="9.310056406170961"><ele>844.5</ele><time>2026-04-30T15:38:09.777Z</time></trkpt><trkpt lat="39.839964078431684" lon="9.309904078034513"><ele>845.25</ele><time>2026-04-30T15:38:10.776Z</time></trkpt><trkpt lat="39.83995765972011" lon="9.30976907741536"><ele>846.0</ele><time>2026-04-30T15:38:11.776Z</time></trkpt><trkpt lat="39.839878339162276" lon="9.309630176190712"><ele>851.0</ele><time>2026-04-30T15:38:12.776Z</time></trkpt><trkpt lat="39.83977323035545" lon="9.309487742668894"><ele>856.0</ele><time>2026-04-30T15:38:13.776Z</time></trkpt><trkpt lat="39.83965521269295" lon="9.30934184341324"><ele>861.0</ele><time>2026-04-30T15:38:14.776Z</time></trkpt><trkpt lat="39.839534908451064" lon="9.30918229579255"><ele>861.0</ele><time>2026-04-30T15:38:15.776Z</time></trkpt><trkpt lat="39.839411066356654" lon="9.309019036726117"><ele>861.0</ele><time>2026-04-30T15:38:16.776Z</time></trkpt><trkpt lat="39.83929555136734" lon="9.308854956839712"><ele>861.0</ele><time>2026-04-30T15:38:17.776Z</time></trkpt><trkpt lat="39.83914212904552" lon="9.308721571748194"><ele>863.6666666666667</ele><time>2026-04-30T15:38:18.776Z</time></trkpt><trkpt lat="39.83897196611378" lon="9.308640573942805"><ele>866.3333333333334</ele><time>2026-04-30T15:38:19.776Z</time></trkpt><trkpt lat="39.83880100215901" lon="9.308567310281113"><ele>869.0</ele><time>2026-04-30T15:38:20.776Z</time></trkpt><trkpt lat="39.838635675199036" lon="9.308547689425176"><ele>869.0</ele><time>2026-04-30T15:38:21.776Z</time></trkpt><trkpt lat="39.83848289966477" lon="9.308590099169093"><ele>869.0</ele><time>2026-04-30T15:38:22.776Z</time></trkpt><trkpt lat="39.838344446710515" lon="9.308660741589321"><ele>869.0</ele><time>2026-04-30T15:38:23.776Z</time></trkpt><trkpt lat="39.83822291432499" lon="9.308648285138686"><ele>869.0</ele><time>2026-04-30T15:38:24.776Z</time></trkpt><trkpt lat="39.83811349926708" lon="9.308563921279074"><ele>866.3333333333334</ele><time>2026-04-30T15:38:25.776Z</time></trkpt><trkpt lat="39.83799389016565" lon="9.308434705344586"><ele>863.6666666666667</ele><time>2026-04-30T15:38:26.776Z</time></trkpt><trkpt lat="39.83789471874675" lon="9.308266556425911"><ele>861.0</ele><time>2026-04-30T15:38:27.776Z</time></trkpt><trkpt lat="39.8378104428206" lon="9.308098266889804"><ele>863.0</ele><time>2026-04-30T15:38:28.776Z</time></trkpt><trkpt lat="39.837805530155414" lon="9.30792016205677"><ele>865.0</ele><time>2026-04-30T15:38:29.776Z</time></trkpt><trkpt lat="39.83780284792864" lon="9.30775245549536"><ele>867.0</ele><time>2026-04-30T15:38:30.776Z</time></trkpt><trkpt lat="39.83788766507961" lon="9.307611519770457"><ele>869.0</ele><time>2026-04-30T15:38:31.776Z</time></trkpt><trkpt lat="39.83796051237583" lon="9.307441791101787"><ele>869.0</ele><time>2026-04-30T15:38:32.776Z</time></trkpt><trkpt lat="39.83803792081767" lon="9.307257379401227"><ele>869.0</ele><time>2026-04-30T15:38:33.776Z</time></trkpt><trkpt lat="39.83811035932799" lon="9.307085467399096"><ele>869.0</ele><time>2026-04-30T15:38:34.776Z</time></trkpt><trkpt lat="39.838182597033295" lon="9.3069121949738"><ele>867.6</ele><time>2026-04-30T15:38:35.776Z</time></trkpt><trkpt lat="39.83824572084934" lon="9.306760391456782"><ele>866.2</ele><time>2026-04-30T15:38:36.776Z</time></trkpt><trkpt lat="39.838312937040534" lon="9.306642190768185"><ele>864.8000000000001</ele><time>2026-04-30T15:38:37.776Z</time></trkpt><trkpt lat="39.838390880480986" lon="9.306594413266867"><ele>863.4000000000001</ele><time>2026-04-30T15:38:38.776Z</time></trkpt><trkpt lat="39.83849609778064" lon="9.306557033861663"><ele>862.0</ele><time>2026-04-30T15:38:39.776Z</time></trkpt><trkpt lat="39.83859254181041" lon="9.30645903604752"><ele>869.3333333333333</ele><time>2026-04-30T15:38:40.776Z</time></trkpt><trkpt lat="39.838639355074825" lon="9.30625596899361"><ele>876.6666666666667</ele><time>2026-04-30T15:38:41.776Z</time></trkpt><trkpt lat="39.83867506569893" lon="9.30602776569707"><ele>884.0</ele><time>2026-04-30T15:38:42.776Z</time></trkpt><trkpt lat="39.838698116016936" lon="9.305765052885794"><ele>882.0</ele><time>2026-04-30T15:38:43.776Z</time></trkpt><trkpt lat="39.838753074121335" lon="9.305498233599865"><ele>880.0</ele><time>2026-04-30T15:38:44.775Z</time></trkpt><trkpt lat="39.83879227461895" lon="9.305216852967982"><ele>878.0</ele><time>2026-04-30T15:38:45.775Z</time></trkpt><trkpt lat="39.838831001825014" lon="9.304935528071816"><ele>877.3333333333334</ele><time>2026-04-30T15:38:46.775Z</time></trkpt><trkpt lat="39.838867148784594" lon="9.304672946575803"><ele>876.6666666666667</ele><time>2026-04-30T15:38:47.775Z</time></trkpt><trkpt lat="39.838906236905885" lon="9.30442233132949"><ele>876.0</ele><time>2026-04-30T15:38:48.775Z</time></trkpt><trkpt lat="39.83899118378397" lon="9.304200130080657"><ele>876.0</ele><time>2026-04-30T15:38:49.775Z</time></trkpt><trkpt lat="39.839078088272416" lon="9.303968783114446"><ele>876.0</ele><time>2026-04-30T15:38:50.775Z</time></trkpt><trkpt lat="39.839160885797575" lon="9.30373883929019"><ele>876.0</ele><time>2026-04-30T15:38:51.775Z</time></trkpt><trkpt lat="39.8392100581866" lon="9.303505814496924"><ele>876.0</ele><time>2026-04-30T15:38:52.775Z</time></trkpt><trkpt lat="39.83921655302904" lon="9.303264624258848"><ele>876.0</ele><time>2026-04-30T15:38:53.775Z</time></trkpt><trkpt lat="39.83918528278166" lon="9.303052828999148"><ele>876.0</ele><time>2026-04-30T15:38:54.775Z</time></trkpt><trkpt lat="39.83922397976174" lon="9.302863566611665"><ele>876.0</ele><time>2026-04-30T15:38:55.775Z</time></trkpt><trkpt lat="39.839291489950995" lon="9.302703988295413"><ele>876.0</ele><time>2026-04-30T15:38:56.775Z</time></trkpt><trkpt lat="39.83932126518964" lon="9.302546229176455"><ele>876.0</ele><time>2026-04-30T15:38:57.775Z</time></trkpt><trkpt lat="39.83930397928542" lon="9.302421136560778"><ele>876.0</ele><time>2026-04-30T15:38:58.775Z</time></trkpt><trkpt lat="39.83926151277432" lon="9.302296221268355"><ele>876.0</ele><time>2026-04-30T15:38:59.775Z</time></trkpt><trkpt lat="39.83914596351839" lon="9.302254605486928"><ele>876.0</ele><time>2026-04-30T15:39:00.775Z</time></trkpt><trkpt lat="39.83902068814781" lon="9.30227208044745"><ele>876.0</ele><time>2026-04-30T15:39:01.775Z</time></trkpt><trkpt lat="39.838876739558835" lon="9.302292441434382"><ele>876.0</ele><time>2026-04-30T15:39:02.775Z</time></trkpt><trkpt lat="39.838739333572036" lon="9.30220187056676"><ele>880.0</ele><time>2026-04-30T15:39:03.775Z</time></trkpt><trkpt lat="39.83859093947185" lon="9.302129284553361"><ele>884.0</ele><time>2026-04-30T15:39:04.775Z</time></trkpt><trkpt lat="39.8384702729542" lon="9.30210472730559"><ele>888.0</ele><time>2026-04-30T15:39:05.775Z</time></trkpt><trkpt lat="39.83831813968209" lon="9.302160161901604"><ele>892.0</ele><time>2026-04-30T15:39:06.775Z</time></trkpt><trkpt lat="39.83813366335775" lon="9.302224760468258"><ele>892.0</ele><time>2026-04-30T15:39:07.775Z</time></trkpt><trkpt lat="39.83795824016049" lon="9.30216974949016"><ele>892.0</ele><time>2026-04-30T15:39:08.775Z</time></trkpt><trkpt lat="39.83779284334429" lon="9.302087114689101"><ele>892.0</ele><time>2026-04-30T15:39:09.775Z</time></trkpt><trkpt lat="39.8376619790334" lon="9.301947712417387"><ele>890.6666666666666</ele><time>2026-04-30T15:39:10.775Z</time></trkpt><trkpt lat="39.83752114473505" lon="9.301764462177687"><ele>889.3333333333333</ele><time>2026-04-30T15:39:11.775Z</time></trkpt><trkpt lat="39.83739586527381" lon="9.301589268295709"><ele>888.0</ele><time>2026-04-30T15:39:12.775Z</time></trkpt><trkpt lat="39.83730643873849" lon="9.30141055670943"><ele>888.0</ele><time>2026-04-30T15:39:13.775Z</time></trkpt><trkpt lat="39.83728006407009" lon="9.301208639200402"><ele>888.0</ele><time>2026-04-30T15:39:14.775Z</time></trkpt><trkpt lat="39.837243332067274" lon="9.30094850903773"><ele>888.0</ele><time>2026-04-30T15:39:15.775Z</time></trkpt><trkpt lat="39.8371830286119" lon="9.30071518262581"><ele>889.75</ele><time>2026-04-30T15:39:16.775Z</time></trkpt><trkpt lat="39.837154244083564" lon="9.300524219432639"><ele>891.5</ele><time>2026-04-30T15:39:17.775Z</time></trkpt><trkpt lat="39.8371692156197" lon="9.300370239364721"><ele>893.25</ele><time>2026-04-30T15:39:18.775Z</time></trkpt><trkpt lat="39.83726562572281" lon="9.300250199186966"><ele>895.0</ele><time>2026-04-30T15:39:19.774Z</time></trkpt><trkpt lat="39.8373176841516" lon="9.300068409391864"><ele>895.0</ele><time>2026-04-30T15:39:20.774Z</time></trkpt><trkpt lat="39.83729236259659" lon="9.299925515465288"><ele>895.0</ele><time>2026-04-30T15:39:21.774Z</time></trkpt><trkpt lat="39.83721279088109" lon="9.299765932445112"><ele>895.0</ele><time>2026-04-30T15:39:22.774Z</time></trkpt><trkpt lat="39.837059385266365" lon="9.299609713827273"><ele>898.6666666666666</ele><time>2026-04-30T15:39:23.774Z</time></trkpt><trkpt lat="39.83693340461958" lon="9.299458868514852"><ele>902.3333333333333</ele><time>2026-04-30T15:39:24.774Z</time></trkpt><trkpt lat="39.83687003176752" lon="9.299309224882732"><ele>906.0</ele><time>2026-04-30T15:39:25.774Z</time></trkpt><trkpt lat="39.836871502962026" lon="9.29909963301293"><ele>906.0</ele><time>2026-04-30T15:39:26.774Z</time></trkpt><trkpt lat="39.8368137177881" lon="9.298929588524832"><ele>906.0</ele><time>2026-04-30T15:39:27.774Z</time></trkpt><trkpt lat="39.836708151368654" lon="9.298853703304026"><ele>906.0</ele><time>2026-04-30T15:39:28.774Z</time></trkpt><trkpt lat="39.83655808396385" lon="9.298802189160858"><ele>906.0</ele><time>2026-04-30T15:39:29.774Z</time></trkpt><trkpt lat="39.836387875444736" lon="9.298785731990293"><ele>904.6666666666667</ele><time>2026-04-30T15:39:30.774Z</time></trkpt><trkpt lat="39.83622836545608" lon="9.298761322572343"><ele>903.3333333333334</ele><time>2026-04-30T15:39:31.774Z</time></trkpt><trkpt lat="39.83607923538868" lon="9.298678517454693"><ele>902.0</ele><time>2026-04-30T15:39:32.774Z</time></trkpt><trkpt lat="39.835916099290685" lon="9.298609316211646"><ele>901.0</ele><time>2026-04-30T15:39:33.774Z</time></trkpt><trkpt lat="39.835770420631526" lon="9.298582789367364"><ele>900.0</ele><time>2026-04-30T15:39:34.776Z</time></trkpt><trkpt lat="39.83561063568133" lon="9.298661023357882"><ele>899.0</ele><time>2026-04-30T15:39:35.775Z</time></trkpt><trkpt lat="39.835443465299406" lon="9.298808532953036"><ele>895.0</ele><time>2026-04-30T15:39:36.775Z</time></trkpt><trkpt lat="39.83526457941176" lon="9.298941468829062"><ele>891.0</ele><time>2026-04-30T15:39:37.775Z</time></trkpt><trkpt lat="39.835080543071555" lon="9.298974923880865"><ele>887.0</ele><time>2026-04-30T15:39:38.775Z</time></trkpt><trkpt lat="39.83491185247472" lon="9.298959235342318"><ele>895.3333333333334</ele><time>2026-04-30T15:39:39.775Z</time></trkpt><trkpt lat="39.8347299425647" lon="9.298904203217395"><ele>903.6666666666667</ele><time>2026-04-30T15:39:40.775Z</time></trkpt><trkpt lat="39.83452590748101" lon="9.298879053426083"><ele>912.0</ele><time>2026-04-30T15:39:41.776Z</time></trkpt><trkpt lat="39.83431906893212" lon="9.298862115482912"><ele>912.3333333333333</ele><time>2026-04-30T15:39:42.776Z</time></trkpt><trkpt lat="39.83412256816793" lon="9.298817835017859"><ele>912.6666666666666</ele><time>2026-04-30T15:39:43.775Z</time></trkpt><trkpt lat="39.833962639036585" lon="9.298779680488963"><ele>913.0</ele><time>2026-04-30T15:39:44.775Z</time></trkpt><trkpt lat="39.83383757101298" lon="9.298788798859702"><ele>913.0</ele><time>2026-04-30T15:39:45.775Z</time></trkpt><trkpt lat="39.83374908680548" lon="9.298859722241728"><ele>913.0</ele><time>2026-04-30T15:39:46.775Z</time></trkpt><trkpt lat="39.83372110509001" lon="9.29900519049049"><ele>913.0</ele><time>2026-04-30T15:39:47.775Z</time></trkpt><trkpt lat="39.83367093401932" lon="9.299127698806908"><ele>913.0</ele><time>2026-04-30T15:39:48.775Z</time></trkpt><trkpt lat="39.83359419492308" lon="9.299258276820535"><ele>909.0</ele><time>2026-04-30T15:39:49.775Z</time></trkpt><trkpt lat="39.83344324277885" lon="9.299335085004042"><ele>905.0</ele><time>2026-04-30T15:39:50.775Z</time></trkpt><trkpt lat="39.83327935640513" lon="9.29935364873454"><ele>901.0</ele><time>2026-04-30T15:39:51.775Z</time></trkpt><trkpt lat="39.83309703891383" lon="9.299329608130556"><ele>901.0</ele><time>2026-04-30T15:39:52.775Z</time></trkpt><trkpt lat="39.832897208757515" lon="9.299285642698278"><ele>901.0</ele><time>2026-04-30T15:39:53.775Z</time></trkpt><trkpt lat="39.832686241290176" lon="9.299262583591666"><ele>901.0</ele><time>2026-04-30T15:39:54.775Z</time></trkpt><trkpt lat="39.83247055576144" lon="9.299240032693678"><ele>901.6666666666666</ele><time>2026-04-30T15:39:55.774Z</time></trkpt><trkpt lat="39.83226332821884" lon="9.2992401802517"><ele>902.3333333333333</ele><time>2026-04-30T15:39:56.774Z</time></trkpt><trkpt lat="39.83205597332935" lon="9.299191897273547"><ele>903.0</ele><time>2026-04-30T15:39:57.774Z</time></trkpt><trkpt lat="39.831851174427634" lon="9.29912809514797"><ele>901.3333333333333</ele><time>2026-04-30T15:39:58.774Z</time></trkpt><trkpt lat="39.83164608474636" lon="9.299050983584864"><ele>899.6666666666666</ele><time>2026-04-30T15:39:59.774Z</time></trkpt><trkpt lat="39.83146331549631" lon="9.298942779062312"><ele>898.0</ele><time>2026-04-30T15:40:00.774Z</time></trkpt><trkpt lat="39.83127704458067" lon="9.298827540413882"><ele>902.6666666666666</ele><time>2026-04-30T15:40:01.774Z</time></trkpt><trkpt lat="39.83111145337685" lon="9.298694001689615"><ele>907.3333333333333</ele><time>2026-04-30T15:40:02.774Z</time></trkpt><trkpt lat="39.83094628296073" lon="9.298610535742492"><ele>912.0</ele><time>2026-04-30T15:40:03.774Z</time></trkpt><trkpt lat="39.830775329384345" lon="9.298586475775199"><ele>912.0</ele><time>2026-04-30T15:40:04.774Z</time></trkpt><trkpt lat="39.830594672270124" lon="9.29866352310819"><ele>912.0</ele><time>2026-04-30T15:40:05.774Z</time></trkpt><trkpt lat="39.83040286444342" lon="9.298747219078216"><ele>912.0</ele><time>2026-04-30T15:40:06.774Z</time></trkpt><trkpt lat="39.830231019434606" lon="9.298761544191452"><ele>909.6666666666667</ele><time>2026-04-30T15:40:07.774Z</time></trkpt><trkpt lat="39.83009137518546" lon="9.298698128598224"><ele>907.3333333333334</ele><time>2026-04-30T15:40:08.774Z</time></trkpt><trkpt lat="39.82994886277644" lon="9.298606023866958"><ele>905.0</ele><time>2026-04-30T15:40:09.774Z</time></trkpt><trkpt lat="39.829814493789165" lon="9.298466806802365"><ele>905.0</ele><time>2026-04-30T15:40:10.774Z</time></trkpt><trkpt lat="39.82970997067076" lon="9.298300183205376"><ele>905.0</ele><time>2026-04-30T15:40:11.774Z</time></trkpt><trkpt lat="39.829668391710484" lon="9.298141994080742"><ele>905.0</ele><time>2026-04-30T15:40:12.774Z</time></trkpt><trkpt lat="39.82972064325499" lon="9.297986257905258"><ele>905.0</ele><time>2026-04-30T15:40:13.774Z</time></trkpt><trkpt lat="39.82979494868889" lon="9.297824078357955"><ele>905.3333333333334</ele><time>2026-04-30T15:40:14.774Z</time></trkpt><trkpt lat="39.829840492195316" lon="9.297605976629141"><ele>905.6666666666667</ele><time>2026-04-30T15:40:15.774Z</time></trkpt><trkpt lat="39.829883675712246" lon="9.297380675421095"><ele>906.0</ele><time>2026-04-30T15:40:16.774Z</time></trkpt><trkpt lat="39.829872433695755" lon="9.297183344129001"><ele>908.3333333333333</ele><time>2026-04-30T15:40:17.774Z</time></trkpt><trkpt lat="39.82981898347612" lon="9.297023077360148"><ele>910.6666666666666</ele><time>2026-04-30T15:40:18.774Z</time></trkpt><trkpt lat="39.82970379118492" lon="9.296916555417297"><ele>913.0</ele><time>2026-04-30T15:40:19.774Z</time></trkpt><trkpt lat="39.82954648959649" lon="9.296807683101662"><ele>913.0</ele><time>2026-04-30T15:40:20.774Z</time></trkpt><trkpt lat="39.82939750964835" lon="9.296649484600026"><ele>913.0</ele><time>2026-04-30T15:40:21.774Z</time></trkpt><trkpt lat="39.829249323341564" lon="9.296472439718153"><ele>913.0</ele><time>2026-04-30T15:40:22.774Z</time></trkpt><trkpt lat="39.829081186356184" lon="9.296321484111083"><ele>908.3333333333333</ele><time>2026-04-30T15:40:23.774Z</time></trkpt><trkpt lat="39.82894790953822" lon="9.296187523294588"><ele>903.6666666666667</ele><time>2026-04-30T15:40:24.774Z</time></trkpt><trkpt lat="39.828879082494524" lon="9.296001598242317"><ele>899.0</ele><time>2026-04-30T15:40:25.774Z</time></trkpt><trkpt lat="39.82878718638863" lon="9.29578340851932"><ele>899.3333333333334</ele><time>2026-04-30T15:40:26.774Z</time></trkpt><trkpt lat="39.828653720549006" lon="9.295577992106141"><ele>899.6666666666667</ele><time>2026-04-30T15:40:27.774Z</time></trkpt><trkpt lat="39.82851115528689" lon="9.295384577492719"><ele>900.0</ele><time>2026-04-30T15:40:28.774Z</time></trkpt><trkpt lat="39.82836210257661" lon="9.29524762930115"><ele>895.5</ele><time>2026-04-30T15:40:29.774Z</time></trkpt><trkpt lat="39.828240500361524" lon="9.295129803934639"><ele>891.0</ele><time>2026-04-30T15:40:30.774Z</time></trkpt><trkpt lat="39.82815845675379" lon="9.295005952253364"><ele>886.5</ele><time>2026-04-30T15:40:31.774Z</time></trkpt><trkpt lat="39.82812450664305" lon="9.294848977808245"><ele>882.0</ele><time>2026-04-30T15:40:32.774Z</time></trkpt><trkpt lat="39.8281069540318" lon="9.294668449497332"><ele>880.75</ele><time>2026-04-30T15:40:33.773Z</time></trkpt><trkpt lat="39.828111716436155" lon="9.294512959239894"><ele>879.5</ele><time>2026-04-30T15:40:34.773Z</time></trkpt><trkpt lat="39.82813740469121" lon="9.294361396582442"><ele>878.25</ele><time>2026-04-30T15:40:35.773Z</time></trkpt><trkpt lat="39.828226382586266" lon="9.294257731958318"><ele>877.0</ele><time>2026-04-30T15:40:36.773Z</time></trkpt><trkpt lat="39.82833340729738" lon="9.294138103006638"><ele>877.0</ele><time>2026-04-30T15:40:37.773Z</time></trkpt><trkpt lat="39.82844583019283" lon="9.294033069977043"><ele>877.0</ele><time>2026-04-30T15:40:38.773Z</time></trkpt><trkpt lat="39.828527001352576" lon="9.293905049237322"><ele>877.0</ele><time>2026-04-30T15:40:39.773Z</time></trkpt><trkpt lat="39.82859679909157" lon="9.29377712872825"><ele>877.0</ele><time>2026-04-30T15:40:40.773Z</time></trkpt><trkpt lat="39.828634743261546" lon="9.293624485388493"><ele>878.25</ele><time>2026-04-30T15:40:41.773Z</time></trkpt><trkpt lat="39.82863881205959" lon="9.293463373381394"><ele>879.5</ele><time>2026-04-30T15:40:42.773Z</time></trkpt><trkpt lat="39.828610926093795" lon="9.293294320757573"><ele>880.75</ele><time>2026-04-30T15:40:43.773Z</time></trkpt><trkpt lat="39.82855557937766" lon="9.293127409819348"><ele>882.0</ele><time>2026-04-30T15:40:44.773Z</time></trkpt><trkpt lat="39.82847751293355" lon="9.292970732982932"><ele>880.0</ele><time>2026-04-30T15:40:45.773Z</time></trkpt><trkpt lat="39.82835586738339" lon="9.292850899540165"><ele>878.0</ele><time>2026-04-30T15:40:46.773Z</time></trkpt><trkpt lat="39.82821213118775" lon="9.29275734612827"><ele>876.0</ele><time>2026-04-30T15:40:47.773Z</time></trkpt><trkpt lat="39.82805524978633" lon="9.292710634599537"><ele>876.0</ele><time>2026-04-30T15:40:48.773Z</time></trkpt><trkpt lat="39.82789702321429" lon="9.292678565193068"><ele>876.0</ele><time>2026-04-30T15:40:49.773Z</time></trkpt><trkpt lat="39.82773092568862" lon="9.292667756256352"><ele>876.0</ele><time>2026-04-30T15:40:50.773Z</time></trkpt><trkpt lat="39.827554284681916" lon="9.292665883208702"><ele>874.0</ele><time>2026-04-30T15:40:51.773Z</time></trkpt><trkpt lat="39.82737552608931" lon="9.292667651660905"><ele>872.0</ele><time>2026-04-30T15:40:52.773Z</time></trkpt><trkpt lat="39.827197800549776" lon="9.292671814687159"><ele>870.0</ele><time>2026-04-30T15:40:53.773Z</time></trkpt><trkpt lat="39.82702338799648" lon="9.292670825155415"><ele>870.0</ele><time>2026-04-30T15:40:54.773Z</time></trkpt><trkpt lat="39.82685644530429" lon="9.292664358634408"><ele>870.0</ele><time>2026-04-30T15:40:55.773Z</time></trkpt><trkpt lat="39.82670193571067" lon="9.292639704807621"><ele>870.0</ele><time>2026-04-30T15:40:56.773Z</time></trkpt><trkpt lat="39.82655237353834" lon="9.29259436220011"><ele>866.6666666666667</ele><time>2026-04-30T15:40:57.773Z</time></trkpt><trkpt lat="39.826416006259244" lon="9.292514724432541"><ele>863.3333333333334</ele><time>2026-04-30T15:40:58.773Z</time></trkpt><trkpt lat="39.8262917000531" lon="9.292410442572207"><ele>860.0</ele><time>2026-04-30T15:40:59.773Z</time></trkpt><trkpt lat="39.826187983137544" lon="9.292259357181686"><ele>858.6666666666667</ele><time>2026-04-30T15:41:00.773Z</time></trkpt><trkpt lat="39.82609217405116" lon="9.29208097964907"><ele>857.3333333333333</ele><time>2026-04-30T15:41:01.773Z</time></trkpt><trkpt lat="39.82596974072477" lon="9.291848418479017"><ele>856.0</ele><time>2026-04-30T15:41:02.773Z</time></trkpt><trkpt lat="39.82582447110471" lon="9.29157028201199"><ele>860.0</ele><time>2026-04-30T15:41:03.773Z</time></trkpt><trkpt lat="39.82567480051884" lon="9.291283521981823"><ele>864.0</ele><time>2026-04-30T15:41:04.773Z</time></trkpt><trkpt lat="39.82553577280397" lon="9.2910168928964"><ele>864.0</ele><time>2026-04-30T15:41:05.773Z</time></trkpt><trkpt lat="39.82541628133851" lon="9.290786203777287"><ele>864.0</ele><time>2026-04-30T15:41:06.773Z</time></trkpt><trkpt lat="39.82533215629072" lon="9.290570106395016"><ele>864.0</ele><time>2026-04-30T15:41:07.773Z</time></trkpt><trkpt lat="39.82528207695645" lon="9.290335170096165"><ele>862.3333333333333</ele><time>2026-04-30T15:41:08.772Z</time></trkpt><trkpt lat="39.82523808589458" lon="9.290078742577593"><ele>860.6666666666666</ele><time>2026-04-30T15:41:09.772Z</time></trkpt><trkpt lat="39.82516962824627" lon="9.28982041336211"><ele>859.0</ele><time>2026-04-30T15:41:10.772Z</time></trkpt><trkpt lat="39.8250783316054" lon="9.289584909549315"><ele>854.6666666666666</ele><time>2026-04-30T15:41:11.772Z</time></trkpt><trkpt lat="39.825017983280155" lon="9.289364297901026"><ele>850.3333333333333</ele><time>2026-04-30T15:41:12.772Z</time></trkpt><trkpt lat="39.824998723284374" lon="9.28918301118032"><ele>846.0</ele><time>2026-04-30T15:41:13.772Z</time></trkpt><trkpt lat="39.8249587743187" lon="9.289008071556937"><ele>844.0</ele><time>2026-04-30T15:41:14.772Z</time></trkpt><trkpt lat="39.82502427164016" lon="9.288846872236565"><ele>842.0</ele><time>2026-04-30T15:41:15.772Z</time></trkpt><trkpt lat="39.82511462298543" lon="9.288728102055032"><ele>840.0</ele><time>2026-04-30T15:41:16.772Z</time></trkpt><trkpt lat="39.82525009297343" lon="9.288661182509115"><ele>838.0</ele><time>2026-04-30T15:41:17.772Z</time></trkpt><trkpt lat="39.8254194425025" lon="9.288629281844369"><ele>835.6666666666666</ele><time>2026-04-30T15:41:18.772Z</time></trkpt><trkpt lat="39.82561492332488" lon="9.288638697845428"><ele>833.3333333333333</ele><time>2026-04-30T15:41:19.772Z</time></trkpt><trkpt lat="39.82579153972799" lon="9.288612817494617"><ele>831.0</ele><time>2026-04-30T15:41:20.772Z</time></trkpt><trkpt lat="39.82595874366443" lon="9.288599519739016"><ele>831.3333333333333</ele><time>2026-04-30T15:41:21.772Z</time></trkpt><trkpt lat="39.826121158762284" lon="9.288699642142019"><ele>831.6666666666666</ele><time>2026-04-30T15:41:22.772Z</time></trkpt><trkpt lat="39.82628323360062" lon="9.288809392869892"><ele>832.0</ele><time>2026-04-30T15:41:23.772Z</time></trkpt><trkpt lat="39.82643097824515" lon="9.28893425135147"><ele>832.0</ele><time>2026-04-30T15:41:24.772Z</time></trkpt><trkpt lat="39.82656335437224" lon="9.289105674969937"><ele>832.0</ele><time>2026-04-30T15:41:25.772Z</time></trkpt><trkpt lat="39.82669464089044" lon="9.289301560477192"><ele>832.0</ele><time>2026-04-30T15:41:26.772Z</time></trkpt><trkpt lat="39.82682425533476" lon="9.289468768769206"><ele>831.3333333333333</ele><time>2026-04-30T15:41:27.772Z</time></trkpt><trkpt lat="39.826986918583756" lon="9.289606316624022"><ele>830.6666666666667</ele><time>2026-04-30T15:41:28.772Z</time></trkpt><trkpt lat="39.827189308286655" lon="9.289724341251375"><ele>830.0</ele><time>2026-04-30T15:41:29.772Z</time></trkpt><trkpt lat="39.827387551114484" lon="9.289851525961142"><ele>830.0</ele><time>2026-04-30T15:41:30.772Z</time></trkpt><trkpt lat="39.827578151827986" lon="9.289991409019823"><ele>830.0</ele><time>2026-04-30T15:41:31.772Z</time></trkpt><trkpt lat="39.82776414978672" lon="9.290129175709378"><ele>830.0</ele><time>2026-04-30T15:41:32.772Z</time></trkpt><trkpt lat="39.827934329591834" lon="9.290252954379978"><ele>824.6666666666667</ele><time>2026-04-30T15:41:33.772Z</time></trkpt><trkpt lat="39.82809939391899" lon="9.29035655228283"><ele>819.3333333333333</ele><time>2026-04-30T15:41:34.772Z</time></trkpt><trkpt lat="39.828278287392735" lon="9.290427568512651"><ele>814.0</ele><time>2026-04-30T15:41:35.772Z</time></trkpt><trkpt lat="39.82846825653028" lon="9.29047295606473"><ele>815.3333333333333</ele><time>2026-04-30T15:41:36.772Z</time></trkpt><trkpt lat="39.82866345575325" lon="9.290502527867698"><ele>816.6666666666667</ele><time>2026-04-30T15:41:37.772Z</time></trkpt><trkpt lat="39.82885429055142" lon="9.290533753737032"><ele>818.0</ele><time>2026-04-30T15:41:38.772Z</time></trkpt><trkpt lat="39.82902578478025" lon="9.29054941341799"><ele>818.0</ele><time>2026-04-30T15:41:39.999Z</time></trkpt><trkpt lat="39.82917767955431" lon="9.290556126082276"><ele>818.0</ele><time>2026-04-30T15:41:40.999Z</time></trkpt><trkpt lat="39.829313472971954" lon="9.290540622986375"><ele>818.0</ele><time>2026-04-30T15:41:41.999Z</time></trkpt><trkpt lat="39.82942824284151" lon="9.290507937482117"><ele>818.0</ele><time>2026-04-30T15:41:43Z</time></trkpt><trkpt lat="39.82951924162141" lon="9.29047872711505"><ele>818.0</ele><time>2026-04-30T15:41:43.999Z</time></trkpt><trkpt lat="39.829572283527746" lon="9.290378372200244"><ele>818.0</ele><time>2026-04-30T15:41:44.999Z</time></trkpt><trkpt lat="39.829581755609425" lon="9.290249610140673"><ele>818.0</ele><time>2026-04-30T15:41:46Z</time></trkpt><trkpt lat="39.82950159384178" lon="9.290129421251157"><ele>818.0</ele><time>2026-04-30T15:41:46.999Z</time></trkpt><trkpt lat="39.82940151032972" lon="9.290053435056253"><ele>818.0</ele><time>2026-04-30T15:41:48Z</time></trkpt><trkpt lat="39.82926585030257" lon="9.289997465568284"><ele>818.0</ele><time>2026-04-30T15:41:49Z</time></trkpt><trkpt lat="39.829133598094465" lon="9.28987405000811"><ele>818.0</ele><time>2026-04-30T15:41:50Z</time></trkpt><trkpt lat="39.828998746842494" lon="9.289717411944622"><ele>818.0</ele><time>2026-04-30T15:41:51Z</time></trkpt><trkpt lat="39.82885593314178" lon="9.28955400073055"><ele>814.3333333333334</ele><time>2026-04-30T15:41:52Z</time></trkpt><trkpt lat="39.82874859710736" lon="9.289337791812326"><ele>810.6666666666667</ele><time>2026-04-30T15:41:53Z</time></trkpt><trkpt lat="39.82860558920493" lon="9.289127557947618"><ele>807.0</ele><time>2026-04-30T15:41:54Z</time></trkpt><trkpt lat="39.82844700672478" lon="9.288944892186889"><ele>809.3333333333333</ele><time>2026-04-30T15:41:55Z</time></trkpt><trkpt lat="39.828316409583095" lon="9.288781069866774"><ele>811.6666666666666</ele><time>2026-04-30T15:41:56Z</time></trkpt><trkpt lat="39.82825775402687" lon="9.288596455590906"><ele>814.0</ele><time>2026-04-30T15:41:57Z</time></trkpt><trkpt lat="39.8282094650682" lon="9.288376437940874"><ele>814.0</ele><time>2026-04-30T15:41:58Z</time></trkpt><trkpt lat="39.82813464813141" lon="9.288126406936247"><ele>814.0</ele><time>2026-04-30T15:41:59Z</time></trkpt><trkpt lat="39.82807021767557" lon="9.287897689797276"><ele>814.0</ele><time>2026-04-30T15:42:00Z</time></trkpt><trkpt lat="39.82806265985273" lon="9.287666958661877"><ele>814.0</ele><time>2026-04-30T15:42:01Z</time></trkpt><trkpt lat="39.82807293395034" lon="9.287401261617736"><ele>814.0</ele><time>2026-04-30T15:42:02Z</time></trkpt><trkpt lat="39.828091183154804" lon="9.287146304735753"><ele>814.0</ele><time>2026-04-30T15:42:03Z</time></trkpt><trkpt lat="39.82810728049906" lon="9.286921322208075"><ele>813.5</ele><time>2026-04-30T15:42:04Z</time></trkpt><trkpt lat="39.82811105986764" lon="9.286764140309955"><ele>813.0</ele><time>2026-04-30T15:42:05Z</time></trkpt><trkpt lat="39.8280675560983" lon="9.286634139225425"><ele>812.5</ele><time>2026-04-30T15:42:06Z</time></trkpt><trkpt lat="39.8279875951545" lon="9.286553834942547"><ele>812.0</ele><time>2026-04-30T15:42:07Z</time></trkpt><trkpt lat="39.827868014780805" lon="9.286535738215607"><ele>812.0</ele><time>2026-04-30T15:42:08Z</time></trkpt><trkpt lat="39.82774069745394" lon="9.286493947388902"><ele>812.0</ele><time>2026-04-30T15:42:09Z</time></trkpt><trkpt lat="39.82763815144097" lon="9.286343523999925"><ele>812.0</ele><time>2026-04-30T15:42:10Z</time></trkpt><trkpt lat="39.827591764599354" lon="9.286122567659389"><ele>807.0</ele><time>2026-04-30T15:42:11Z</time></trkpt><trkpt lat="39.82752811069015" lon="9.285903991287878"><ele>802.0</ele><time>2026-04-30T15:42:12Z</time></trkpt><trkpt lat="39.8274310525609" lon="9.285751227936531"><ele>797.0</ele><time>2026-04-30T15:42:13Z</time></trkpt><trkpt lat="39.82729209078846" lon="9.285643353685735"><ele>798.0</ele><time>2026-04-30T15:42:14Z</time></trkpt><trkpt lat="39.8271640314538" lon="9.285551184792197"><ele>799.0</ele><time>2026-04-30T15:42:15Z</time></trkpt><trkpt lat="39.827124653390975" lon="9.285393446399295"><ele>800.0</ele><time>2026-04-30T15:42:16Z</time></trkpt><trkpt lat="39.82711223649917" lon="9.285206121001808"><ele>801.0</ele><time>2026-04-30T15:42:17Z</time></trkpt><trkpt lat="39.82715407206834" lon="9.28496157089312"><ele>801.0</ele><time>2026-04-30T15:42:18Z</time></trkpt><trkpt lat="39.82719262449144" lon="9.284712264931391"><ele>801.0</ele><time>2026-04-30T15:42:19Z</time></trkpt><trkpt lat="39.82718877059613" lon="9.284480812071383"><ele>801.0</ele><time>2026-04-30T15:42:20Z</time></trkpt><trkpt lat="39.82715407223806" lon="9.284224556746834"><ele>801.0</ele><time>2026-04-30T15:42:21Z</time></trkpt><trkpt lat="39.827088738419704" lon="9.284008060436777"><ele>801.0</ele><time>2026-04-30T15:42:22Z</time></trkpt><trkpt lat="39.82702023123331" lon="9.28385500108543"><ele>801.0</ele><time>2026-04-30T15:42:23Z</time></trkpt><trkpt lat="39.82691433142301" lon="9.283794817990326"><ele>801.0</ele><time>2026-04-30T15:42:24Z</time></trkpt><trkpt lat="39.82674072183089" lon="9.283751810727518"><ele>797.6666666666667</ele><time>2026-04-30T15:42:25Z</time></trkpt><trkpt lat="39.82658665336944" lon="9.283601681107271"><ele>794.3333333333334</ele><time>2026-04-30T15:42:26Z</time></trkpt><trkpt lat="39.82643494328828" lon="9.283428978422656"><ele>791.0</ele><time>2026-04-30T15:42:27Z</time></trkpt><trkpt lat="39.82627086453875" lon="9.283248656965235"><ele>791.0</ele><time>2026-04-30T15:42:28Z</time></trkpt><trkpt lat="39.82608724545652" lon="9.283099729494873"><ele>791.0</ele><time>2026-04-30T15:42:29Z</time></trkpt><trkpt lat="39.82590763899926" lon="9.283006576372372"><ele>791.0</ele><time>2026-04-30T15:42:30Z</time></trkpt><trkpt lat="39.82576976065358" lon="9.28292039174553"><ele>787.5</ele><time>2026-04-30T15:42:31Z</time></trkpt><trkpt lat="39.8256840587357" lon="9.282800587028554"><ele>784.0</ele><time>2026-04-30T15:42:32Z</time></trkpt><trkpt lat="39.82562953286906" lon="9.282652629528098"><ele>780.5</ele><time>2026-04-30T15:42:33Z</time></trkpt><trkpt lat="39.825614686395" lon="9.282472596748638"><ele>777.0</ele><time>2026-04-30T15:42:34.001Z</time></trkpt><trkpt lat="39.825668918249136" lon="9.282291615018593"><ele>778.6666666666667</ele><time>2026-04-30T15:42:35.001Z</time></trkpt><trkpt lat="39.82576057101677" lon="9.282127970831768"><ele>780.3333333333334</ele><time>2026-04-30T15:42:36.001Z</time></trkpt><trkpt lat="39.82588272360046" lon="9.281927940456228"><ele>782.0</ele><time>2026-04-30T15:42:37.001Z</time></trkpt><trkpt lat="39.82601224780337" lon="9.281721624475603"><ele>782.0</ele><time>2026-04-30T15:42:38.001Z</time></trkpt><trkpt lat="39.82615925339516" lon="9.281543942946522"><ele>782.0</ele><time>2026-04-30T15:42:39.001Z</time></trkpt><trkpt lat="39.82625104577842" lon="9.281316824543106"><ele>782.0</ele><time>2026-04-30T15:42:40.001Z</time></trkpt><trkpt lat="39.826332793436876" lon="9.281108141396434"><ele>778.25</ele><time>2026-04-30T15:42:41.001Z</time></trkpt><trkpt lat="39.82642918601194" lon="9.280955448897792"><ele>774.5</ele><time>2026-04-30T15:42:42.001Z</time></trkpt><trkpt lat="39.826547544307964" lon="9.2808687766348"><ele>770.75</ele><time>2026-04-30T15:42:43.001Z</time></trkpt><trkpt lat="39.82669069689751" lon="9.280809813865098"><ele>767.0</ele><time>2026-04-30T15:42:44.001Z</time></trkpt><trkpt lat="39.82687200106083" lon="9.28079833934135"><ele>767.0</ele><time>2026-04-30T15:42:45.001Z</time></trkpt><trkpt lat="39.827068493720006" lon="9.280799778894583"><ele>767.0</ele><time>2026-04-30T15:42:46.001Z</time></trkpt><trkpt lat="39.8272620665596" lon="9.280722038262548"><ele>767.0</ele><time>2026-04-30T15:42:47.001Z</time></trkpt><trkpt lat="39.827464862016" lon="9.280632841035608"><ele>765.0</ele><time>2026-04-30T15:42:48.001Z</time></trkpt><trkpt lat="39.82764903551362" lon="9.28054983623329"><ele>763.0</ele><time>2026-04-30T15:42:49.001Z</time></trkpt><trkpt lat="39.827818691381275" lon="9.280508181733703"><ele>761.0</ele><time>2026-04-30T15:42:50.001Z</time></trkpt><trkpt lat="39.827969937673366" lon="9.280495162727075"><ele>761.0</ele><time>2026-04-30T15:42:51.001Z</time></trkpt><trkpt lat="39.828101443008634" lon="9.280523487641046"><ele>761.0</ele><time>2026-04-30T15:42:52.001Z</time></trkpt><trkpt lat="39.828196603546374" lon="9.2806155757094"><ele>761.0</ele><time>2026-04-30T15:42:53.001Z</time></trkpt><trkpt lat="39.82828397023714" lon="9.280701560497977"><ele>761.0</ele><time>2026-04-30T15:42:54.001Z</time></trkpt><trkpt lat="39.82835723063653" lon="9.280753786291752"><ele>761.0</ele><time>2026-04-30T15:42:55.001Z</time></trkpt><trkpt lat="39.82845595433665" lon="9.28073916029164"><ele>763.5</ele><time>2026-04-30T15:42:56.001Z</time></trkpt><trkpt lat="39.828549872032056" lon="9.28064580687983"><ele>766.0</ele><time>2026-04-30T15:42:57.001Z</time></trkpt><trkpt lat="39.828591909767546" lon="9.2804580460951"><ele>768.5</ele><time>2026-04-30T15:42:58.001Z</time></trkpt><trkpt lat="39.82855773081301" lon="9.28026198786871"><ele>771.0</ele><time>2026-04-30T15:42:59.001Z</time></trkpt><trkpt lat="39.82850719249157" lon="9.280070211752815"><ele>767.6666666666666</ele><time>2026-04-30T15:43:00.001Z</time></trkpt><trkpt lat="39.82840123807738" lon="9.279912003277742"><ele>764.3333333333333</ele><time>2026-04-30T15:43:01.001Z</time></trkpt><trkpt lat="39.82825430590867" lon="9.279762256575474"><ele>761.0</ele><time>2026-04-30T15:43:02.001Z</time></trkpt><trkpt lat="39.82809631945598" lon="9.279647922622562"><ele>765.25</ele><time>2026-04-30T15:43:03.001Z</time></trkpt><trkpt lat="39.827963350894954" lon="9.2795520785488"><ele>769.5</ele><time>2026-04-30T15:43:04.001Z</time></trkpt><trkpt lat="39.82783688112483" lon="9.279489644337438"><ele>773.75</ele><time>2026-04-30T15:43:05.001Z</time></trkpt><trkpt lat="39.827687591461626" lon="9.279489647633348"><ele>778.0</ele><time>2026-04-30T15:43:06.001Z</time></trkpt><trkpt lat="39.827536866455226" lon="9.279532555547506"><ele>778.0</ele><time>2026-04-30T15:43:07.001Z</time></trkpt><trkpt lat="39.82739396810694" lon="9.2795411238097"><ele>778.0</ele><time>2026-04-30T15:43:08.001Z</time></trkpt><trkpt lat="39.827251929802316" lon="9.279494632135952"><ele>778.0</ele><time>2026-04-30T15:43:09.001Z</time></trkpt><trkpt lat="39.8271276149119" lon="9.279385672292655"><ele>778.0</ele><time>2026-04-30T15:43:10.001Z</time></trkpt><trkpt lat="39.82699315310974" lon="9.279295774057895"><ele>778.0</ele><time>2026-04-30T15:43:11.001Z</time></trkpt><trkpt lat="39.82686068686849" lon="9.279185774031504"><ele>778.0</ele><time>2026-04-30T15:43:12.001Z</time></trkpt><trkpt lat="39.8267080612842" lon="9.279109528351578"><ele>778.0</ele><time>2026-04-30T15:43:13.001Z</time></trkpt><trkpt lat="39.82654484328707" lon="9.279043633429215"><ele>780.0</ele><time>2026-04-30T15:43:14.001Z</time></trkpt><trkpt lat="39.826377062729534" lon="9.278973893658808"><ele>782.0</ele><time>2026-04-30T15:43:15.001Z</time></trkpt><trkpt lat="39.826204503698605" lon="9.27891241514626"><ele>784.0</ele><time>2026-04-30T15:43:16.001Z</time></trkpt><trkpt lat="39.82603986145479" lon="9.278872737667992"><ele>782.25</ele><time>2026-04-30T15:43:17.001Z</time></trkpt><trkpt lat="39.82587316802989" lon="9.27889129420305"><ele>780.5</ele><time>2026-04-30T15:43:18.001Z</time></trkpt><trkpt lat="39.82573673856179" lon="9.278942686257349"><ele>778.75</ele><time>2026-04-30T15:43:19.001Z</time></trkpt><trkpt lat="39.825627300355215" lon="9.278956976879442"><ele>777.0</ele><time>2026-04-30T15:43:20.001Z</time></trkpt><trkpt lat="39.82556137252782" lon="9.278893800677729"><ele>777.0</ele><time>2026-04-30T15:43:21.001Z</time></trkpt><trkpt lat="39.82551809999975" lon="9.278791945934596"><ele>777.0</ele><time>2026-04-30T15:43:22.001Z</time></trkpt><trkpt lat="39.825544527383094" lon="9.27864455657091"><ele>777.0</ele><time>2026-04-30T15:43:23.001Z</time></trkpt><trkpt lat="39.825617005339694" lon="9.278511656580104"><ele>777.0</ele><time>2026-04-30T15:43:24.001Z</time></trkpt><trkpt lat="39.82572537641189" lon="9.278389545236662"><ele>777.0</ele><time>2026-04-30T15:43:25.001Z</time></trkpt><trkpt lat="39.82586422487903" lon="9.278283028723862"><ele>777.0</ele><time>2026-04-30T15:43:26.001Z</time></trkpt><trkpt lat="39.82602576202271" lon="9.278204674571002"><ele>777.0</ele><time>2026-04-30T15:43:27.001Z</time></trkpt><trkpt lat="39.82618384429064" lon="9.278137765025464"><ele>778.8</ele><time>2026-04-30T15:43:28.001Z</time></trkpt><trkpt lat="39.826318232149916" lon="9.278060794257769"><ele>780.6</ele><time>2026-04-30T15:43:29.001Z</time></trkpt><trkpt lat="39.82640363435818" lon="9.277981185697282"><ele>782.4</ele><time>2026-04-30T15:43:30.001Z</time></trkpt><trkpt lat="39.82644464272906" lon="9.277916852091717"><ele>784.1999999999999</ele><time>2026-04-30T15:43:31.001Z</time></trkpt><trkpt lat="39.82640718029549" lon="9.277801093264705"><ele>786.0</ele><time>2026-04-30T15:43:32.001Z</time></trkpt><trkpt lat="39.826314389168495" lon="9.27768303165652"><ele>786.0</ele><time>2026-04-30T15:43:33.001Z</time></trkpt><trkpt lat="39.826215848603574" lon="9.277613293768963"><ele>786.0</ele><time>2026-04-30T15:43:34.001Z</time></trkpt><trkpt lat="39.8260775242072" lon="9.277565319698907"><ele>786.0</ele><time>2026-04-30T15:43:35.001Z</time></trkpt><trkpt lat="39.825934373297926" lon="9.277496179475822"><ele>786.0</ele><time>2026-04-30T15:43:36.001Z</time></trkpt><trkpt lat="39.82579963092648" lon="9.277408466551488"><ele>786.3333333333333</ele><time>2026-04-30T15:43:37.001Z</time></trkpt><trkpt lat="39.8256795834462" lon="9.27728396098123"><ele>786.6666666666666</ele><time>2026-04-30T15:43:38.001Z</time></trkpt><trkpt lat="39.82559535170733" lon="9.277095574830202"><ele>787.0</ele><time>2026-04-30T15:43:39.001Z</time></trkpt><trkpt lat="39.82551962642948" lon="9.276883489570737"><ele>787.0</ele><time>2026-04-30T15:43:40.001Z</time></trkpt><trkpt lat="39.82543327540227" lon="9.276686220382873"><ele>787.0</ele><time>2026-04-30T15:43:41.001Z</time></trkpt><trkpt lat="39.825335419030694" lon="9.276495224439106"><ele>787.0</ele><time>2026-04-30T15:43:42.001Z</time></trkpt><trkpt lat="39.82520257280439" lon="9.276314089514958"><ele>788.0</ele><time>2026-04-30T15:43:43.001Z</time></trkpt><trkpt lat="39.825035398736254" lon="9.276153673284462"><ele>789.0</ele><time>2026-04-30T15:43:44.001Z</time></trkpt><trkpt lat="39.82484564988036" lon="9.276018881516185"><ele>790.0</ele><time>2026-04-30T15:43:45.001Z</time></trkpt><trkpt lat="39.82463706762171" lon="9.275889054056364"><ele>790.0</ele><time>2026-04-30T15:43:46.003Z</time></trkpt><trkpt lat="39.82442692472417" lon="9.275761111924858"><ele>790.0</ele><time>2026-04-30T15:43:47.003Z</time></trkpt><trkpt lat="39.82422587724224" lon="9.275631486140437"><ele>789.6666666666666</ele><time>2026-04-30T15:43:48.003Z</time></trkpt><trkpt lat="39.82403492272971" lon="9.2754993422039"><ele>789.3333333333333</ele><time>2026-04-30T15:43:49.003Z</time></trkpt><trkpt lat="39.823857953209526" lon="9.275371293218459"><ele>789.0</ele><time>2026-04-30T15:43:50.002Z</time></trkpt><trkpt lat="39.823681160979824" lon="9.27525205745247"><ele>789.0</ele><time>2026-04-30T15:43:51.002Z</time></trkpt><trkpt lat="39.823501399924474" lon="9.275134262743768"><ele>789.0</ele><time>2026-04-30T15:43:52.003Z</time></trkpt><trkpt lat="39.823317510169275" lon="9.275021302879699"><ele>789.0</ele><time>2026-04-30T15:43:53.002Z</time></trkpt><trkpt lat="39.823120567727436" lon="9.27493524135938"><ele>787.6666666666667</ele><time>2026-04-30T15:43:54.002Z</time></trkpt><trkpt lat="39.82291855136428" lon="9.274874498327929"><ele>786.3333333333334</ele><time>2026-04-30T15:43:55.002Z</time></trkpt><trkpt lat="39.822706104095595" lon="9.274853069005875"><ele>785.0</ele><time>2026-04-30T15:43:56.002Z</time></trkpt><trkpt lat="39.82248726462568" lon="9.274862158784263"><ele>784.3333333333334</ele><time>2026-04-30T15:43:57.002Z</time></trkpt><trkpt lat="39.82227147531856" lon="9.274870603934026"><ele>783.6666666666667</ele><time>2026-04-30T15:43:58.002Z</time></trkpt><trkpt lat="39.822054101779194" lon="9.274852555014586"><ele>783.0</ele><time>2026-04-30T15:43:59.002Z</time></trkpt><trkpt lat="39.82183915304649" lon="9.274812344903038"><ele>783.0</ele><time>2026-04-30T15:44:00.002Z</time></trkpt><trkpt lat="39.82162085322641" lon="9.274756511893926"><ele>783.0</ele><time>2026-04-30T15:44:01.002Z</time></trkpt><trkpt lat="39.82141371890348" lon="9.274654384555284"><ele>783.0</ele><time>2026-04-30T15:44:02.002Z</time></trkpt><trkpt lat="39.821206080821725" lon="9.274544576114543"><ele>783.0</ele><time>2026-04-30T15:44:03.002Z</time></trkpt><trkpt lat="39.82101242204795" lon="9.27441595116747"><ele>783.0</ele><time>2026-04-30T15:44:04.002Z</time></trkpt><trkpt lat="39.82082755675002" lon="9.274265053874837"><ele>783.0</ele><time>2026-04-30T15:44:05.001Z</time></trkpt><trkpt lat="39.82064828172213" lon="9.274089265641534"><ele>781.6666666666667</ele><time>2026-04-30T15:44:06.001Z</time></trkpt><trkpt lat="39.820480328573936" lon="9.273916397393192"><ele>780.3333333333334</ele><time>2026-04-30T15:44:07.001Z</time></trkpt><trkpt lat="39.820324585286365" lon="9.273755299713688"><ele>779.0</ele><time>2026-04-30T15:44:08.001Z</time></trkpt><trkpt lat="39.8201728193014" lon="9.27361161510686"><ele>778.3333333333334</ele><time>2026-04-30T15:44:09.001Z</time></trkpt><trkpt lat="39.8200336435956" lon="9.27347648628221"><ele>777.6666666666667</ele><time>2026-04-30T15:44:10.001Z</time></trkpt><trkpt lat="39.81990489281905" lon="9.273346051978633"><ele>777.0</ele><time>2026-04-30T15:44:11.001Z</time></trkpt><trkpt lat="39.81977829213878" lon="9.27320612424013"><ele>775.6666666666667</ele><time>2026-04-30T15:44:12.001Z</time></trkpt><trkpt lat="39.819645557276445" lon="9.273069199297074"><ele>774.3333333333334</ele><time>2026-04-30T15:44:13.001Z</time></trkpt><trkpt lat="39.81951413955841" lon="9.272935059057536"><ele>773.0</ele><time>2026-04-30T15:44:14.001Z</time></trkpt><trkpt lat="39.819373165313635" lon="9.272788546682202"><ele>773.0</ele><time>2026-04-30T15:44:15.001Z</time></trkpt><trkpt lat="39.81923113488599" lon="9.27263844706976"><ele>773.0</ele><time>2026-04-30T15:44:16.001Z</time></trkpt><trkpt lat="39.81908229358009" lon="9.272486928899367"><ele>773.0</ele><time>2026-04-30T15:44:17.001Z</time></trkpt><trkpt lat="39.81893947385369" lon="9.272330494323603"><ele>772.3333333333334</ele><time>2026-04-30T15:44:18.001Z</time></trkpt><trkpt lat="39.81880728630751" lon="9.27218467969067"><ele>771.6666666666667</ele><time>2026-04-30T15:44:19.001Z</time></trkpt><trkpt lat="39.81867003690086" lon="9.272042862124566"><ele>771.0</ele><time>2026-04-30T15:44:20.001Z</time></trkpt><trkpt lat="39.818541549007634" lon="9.271911731876155"><ele>770.75</ele><time>2026-04-30T15:44:21.001Z</time></trkpt><trkpt lat="39.818422785824325" lon="9.271790729490837"><ele>770.5</ele><time>2026-04-30T15:44:22.001Z</time></trkpt><trkpt lat="39.81831102870254" lon="9.271673374753627"><ele>770.25</ele><time>2026-04-30T15:44:23.001Z</time></trkpt><trkpt lat="39.81819891787447" lon="9.271560454908467"><ele>770.0</ele><time>2026-04-30T15:44:24.001Z</time></trkpt><trkpt lat="39.81808789134248" lon="9.2714491625998"><ele>769.6666666666667</ele><time>2026-04-30T15:44:25.001Z</time></trkpt><trkpt lat="39.81797128146366" lon="9.2713299373502"><ele>769.3333333333333</ele><time>2026-04-30T15:44:26.001Z</time></trkpt><trkpt lat="39.81785132338628" lon="9.271205679886798"><ele>769.0</ele><time>2026-04-30T15:44:27.001Z</time></trkpt><trkpt lat="39.81773002855491" lon="9.271074153539919"><ele>769.0</ele><time>2026-04-30T15:44:28.001Z</time></trkpt><trkpt lat="39.81760467952533" lon="9.270941903975139"><ele>769.0</ele><time>2026-04-30T15:44:29.001Z</time></trkpt><trkpt lat="39.817481054748015" lon="9.270797736653336"><ele>769.0</ele><time>2026-04-30T15:44:30.001Z</time></trkpt><trkpt lat="39.817350010339" lon="9.270645662770251"><ele>769.3333333333333</ele><time>2026-04-30T15:44:31.001Z</time></trkpt><trkpt lat="39.817220821669906" lon="9.270496693109859"><ele>769.6666666666667</ele><time>2026-04-30T15:44:32.001Z</time></trkpt><trkpt lat="39.81708066946958" lon="9.270350216764037"><ele>770.0</ele><time>2026-04-30T15:44:33.001Z</time></trkpt><trkpt lat="39.81693649065506" lon="9.270202525885674"><ele>769.0</ele><time>2026-04-30T15:44:34.001Z</time></trkpt><trkpt lat="39.81678285306319" lon="9.270062055784791"><ele>768.0</ele><time>2026-04-30T15:44:35.001Z</time></trkpt><trkpt lat="39.81663344270967" lon="9.269909121062335"><ele>767.0</ele><time>2026-04-30T15:44:36.001Z</time></trkpt><trkpt lat="39.816486969544684" lon="9.269759768314074"><ele>766.6666666666666</ele><time>2026-04-30T15:44:37.001Z</time></trkpt><trkpt lat="39.81633640381129" lon="9.269604274019017"><ele>766.3333333333334</ele><time>2026-04-30T15:44:38.001Z</time></trkpt><trkpt lat="39.81618559905482" lon="9.269446888004845"><ele>766.0</ele><time>2026-04-30T15:44:39.001Z</time></trkpt><trkpt lat="39.81603180885869" lon="9.269291709186145"><ele>766.0</ele><time>2026-04-30T15:44:40.001Z</time></trkpt><trkpt lat="39.81587075154563" lon="9.269133661670997"><ele>766.0</ele><time>2026-04-30T15:44:41.001Z</time></trkpt><trkpt lat="39.8157047084673" lon="9.26896757474051"><ele>766.0</ele><time>2026-04-30T15:44:42.001Z</time></trkpt><trkpt lat="39.815545869388544" lon="9.268803840923246"><ele>766.0</ele><time>2026-04-30T15:44:43.001Z</time></trkpt><trkpt lat="39.81537806239894" lon="9.268640226979127"><ele>766.0</ele><time>2026-04-30T15:44:44.001Z</time></trkpt><trkpt lat="39.81521270176513" lon="9.268469188517697"><ele>766.0</ele><time>2026-04-30T15:44:45.001Z</time></trkpt><trkpt lat="39.815044275189784" lon="9.268301430493874"><ele>766.0</ele><time>2026-04-30T15:44:46.001Z</time></trkpt><trkpt lat="39.81487961869124" lon="9.268126454803085"><ele>766.0</ele><time>2026-04-30T15:44:47.001Z</time></trkpt><trkpt lat="39.814705034817905" lon="9.26794654030948"><ele>766.0</ele><time>2026-04-30T15:44:48.001Z</time></trkpt><trkpt lat="39.814530682564836" lon="9.267766438219551"><ele>766.0</ele><time>2026-04-30T15:44:49.001Z</time></trkpt><trkpt lat="39.8143643926134" lon="9.267593369533468"><ele>766.0</ele><time>2026-04-30T15:44:50.001Z</time></trkpt><trkpt lat="39.81419797556285" lon="9.267421718107302"><ele>766.0</ele><time>2026-04-30T15:44:51.001Z</time></trkpt><trkpt lat="39.814029497313676" lon="9.267248031737555"><ele>765.0</ele><time>2026-04-30T15:44:52.001Z</time></trkpt><trkpt lat="39.813856067669924" lon="9.26708018855047"><ele>764.0</ele><time>2026-04-30T15:44:53.001Z</time></trkpt><trkpt lat="39.81368957316403" lon="9.266906903714688"><ele>763.0</ele><time>2026-04-30T15:44:54.001Z</time></trkpt><trkpt lat="39.813528839041005" lon="9.266723880053329"><ele>762.6666666666667</ele><time>2026-04-30T15:44:55.001Z</time></trkpt><trkpt lat="39.813360173709896" lon="9.26654520659292"><ele>762.3333333333334</ele><time>2026-04-30T15:44:56.001Z</time></trkpt><trkpt lat="39.813191358177534" lon="9.266372066094881"><ele>762.0</ele><time>2026-04-30T15:44:57.001Z</time></trkpt><trkpt lat="39.81302420705217" lon="9.266203971817703"><ele>762.0</ele><time>2026-04-30T15:44:58.001Z</time></trkpt><trkpt lat="39.81285915747894" lon="9.266028681477664"><ele>762.0</ele><time>2026-04-30T15:44:59.001Z</time></trkpt><trkpt lat="39.81268917354885" lon="9.265847551821459"><ele>762.0</ele><time>2026-04-30T15:45:00.001Z</time></trkpt><trkpt lat="39.812522205602605" lon="9.265679515831616"><ele>763.0</ele><time>2026-04-30T15:45:01.001Z</time></trkpt><trkpt lat="39.812353749090875" lon="9.265502442575226"><ele>764.0</ele><time>2026-04-30T15:45:02.001Z</time></trkpt><trkpt lat="39.812181711860504" lon="9.26532734276032"><ele>765.0</ele><time>2026-04-30T15:45:03.001Z</time></trkpt><trkpt lat="39.81201293266402" lon="9.26515178142786"><ele>765.0</ele><time>2026-04-30T15:45:04.001Z</time></trkpt><trkpt lat="39.81184378338744" lon="9.264977917124963"><ele>765.0</ele><time>2026-04-30T15:45:05.001Z</time></trkpt><trkpt lat="39.81167584316135" lon="9.26480365011785"><ele>765.0</ele><time>2026-04-30T15:45:06.001Z</time></trkpt><trkpt lat="39.81150353159594" lon="9.264628100588174"><ele>765.3333333333334</ele><time>2026-04-30T15:45:07.001Z</time></trkpt><trkpt lat="39.81134097763611" lon="9.264451195097797"><ele>765.6666666666667</ele><time>2026-04-30T15:45:08.001Z</time></trkpt><trkpt lat="39.811172440864276" lon="9.264278956342896"><ele>766.0</ele><time>2026-04-30T15:45:09.001Z</time></trkpt><trkpt lat="39.811002623836146" lon="9.264105142432976"><ele>766.3333333333334</ele><time>2026-04-30T15:45:10.001Z</time></trkpt><trkpt lat="39.81083258028324" lon="9.263926078005174"><ele>766.6666666666666</ele><time>2026-04-30T15:45:11.001Z</time></trkpt><trkpt lat="39.81066470882022" lon="9.26375521064805"><ele>767.0</ele><time>2026-04-30T15:45:12.001Z</time></trkpt><trkpt lat="39.81050755210943" lon="9.263590444898618"><ele>767.0</ele><time>2026-04-30T15:45:13.001Z</time></trkpt><trkpt lat="39.810347708837504" lon="9.263429217971717"><ele>767.0</ele><time>2026-04-30T15:45:14.001Z</time></trkpt><trkpt lat="39.81018357419718" lon="9.26326874372212"><ele>767.0</ele><time>2026-04-30T15:45:15.001Z</time></trkpt><trkpt lat="39.81002374539174" lon="9.263102954024662"><ele>767.3333333333333</ele><time>2026-04-30T15:45:16.001Z</time></trkpt><trkpt lat="39.80986656047172" lon="9.262945624266662"><ele>767.6666666666666</ele><time>2026-04-30T15:45:17.001Z</time></trkpt><trkpt lat="39.8097048853491" lon="9.262800734922852"><ele>768.0</ele><time>2026-04-30T15:45:18.001Z</time></trkpt><trkpt lat="39.809550134925416" lon="9.262649695833442"><ele>768.0</ele><time>2026-04-30T15:45:19.001Z</time></trkpt><trkpt lat="39.80939307758971" lon="9.26250091596564"><ele>768.0</ele><time>2026-04-30T15:45:20.001Z</time></trkpt><trkpt lat="39.809237408194704" lon="9.262362157548308"><ele>768.0</ele><time>2026-04-30T15:45:21.001Z</time></trkpt><trkpt lat="39.808984466557376" lon="9.262394957130484"><ele>768.6666666666667</ele><time>2026-04-30T15:45:22.001Z</time></trkpt><trkpt lat="39.808792892592834" lon="9.262320605835752"><ele>769.3333333333334</ele><time>2026-04-30T15:45:23.001Z</time></trkpt><trkpt lat="39.80860408409046" lon="9.262226271537497"><ele>770.0</ele><time>2026-04-30T15:45:24.001Z</time></trkpt><trkpt lat="39.808421766126585" lon="9.26210337055043"><ele>771.6666666666667</ele><time>2026-04-30T15:45:25.001Z</time></trkpt><trkpt lat="39.80825450990063" lon="9.26194334405902"><ele>773.3333333333333</ele><time>2026-04-30T15:45:26.001Z</time></trkpt><trkpt lat="39.80810022301887" lon="9.261754446875646"><ele>775.0</ele><time>2026-04-30T15:45:27.001Z</time></trkpt><trkpt lat="39.807966177621864" lon="9.261561416521765"><ele>776.0</ele><time>2026-04-30T15:45:28.001Z</time></trkpt><trkpt lat="39.80782476964303" lon="9.261397708254131"><ele>777.0</ele><time>2026-04-30T15:45:29.001Z</time></trkpt><trkpt lat="39.80767401761855" lon="9.261257626583708"><ele>778.0</ele><time>2026-04-30T15:45:30.001Z</time></trkpt><trkpt lat="39.80752751637956" lon="9.261131253028275"><ele>778.0</ele><time>2026-04-30T15:45:31.001Z</time></trkpt><trkpt lat="39.807418190951196" lon="9.26096670884088"><ele>778.0</ele><time>2026-04-30T15:45:32.001Z</time></trkpt><trkpt lat="39.80735613227632" lon="9.260778474189388"><ele>778.0</ele><time>2026-04-30T15:45:33.001Z</time></trkpt><trkpt lat="39.807309628535144" lon="9.260594451256654"><ele>778.6666666666666</ele><time>2026-04-30T15:45:34.001Z</time></trkpt><trkpt lat="39.807228588735555" lon="9.260453540710172"><ele>779.3333333333333</ele><time>2026-04-30T15:45:35.001Z</time></trkpt><trkpt lat="39.80710775989429" lon="9.26034531173423"><ele>780.0</ele><time>2026-04-30T15:45:36.001Z</time></trkpt><trkpt lat="39.80693971803538" lon="9.260277556858327"><ele>778.6666666666667</ele><time>2026-04-30T15:45:37.001Z</time></trkpt><trkpt lat="39.80675680701927" lon="9.260234649191728"><ele>777.3333333333334</ele><time>2026-04-30T15:45:38.001Z</time></trkpt><trkpt lat="39.80655903353139" lon="9.260187643173154"><ele>776.0</ele><time>2026-04-30T15:45:39.001Z</time></trkpt><trkpt lat="39.806365317545364" lon="9.260124028983697"><ele>776.0</ele><time>2026-04-30T15:45:40.001Z</time></trkpt><trkpt lat="39.80617926556749" lon="9.260057325721121"><ele>776.0</ele><time>2026-04-30T15:45:41.001Z</time></trkpt><trkpt lat="39.806009402644406" lon="9.260014404582371"><ele>776.0</ele><time>2026-04-30T15:45:42.001Z</time></trkpt><trkpt lat="39.80585395539704" lon="9.260012060817346"><ele>775.6666666666667</ele><time>2026-04-30T15:45:43.001Z</time></trkpt><trkpt lat="39.805692843489005" lon="9.260077773800568"><ele>775.3333333333333</ele><time>2026-04-30T15:45:44.001Z</time></trkpt><trkpt lat="39.80551362296038" lon="9.260163678514358"><ele>775.0</ele><time>2026-04-30T15:45:45.001Z</time></trkpt><trkpt lat="39.80532360223866" lon="9.260233841300552"><ele>773.3333333333333</ele><time>2026-04-30T15:45:46.001Z</time></trkpt><trkpt lat="39.80514331515309" lon="9.260263204214981"><ele>771.6666666666667</ele><time>2026-04-30T15:45:47.001Z</time></trkpt><trkpt lat="39.804969398474455" lon="9.26020501251265"><ele>770.0</ele><time>2026-04-30T15:45:48.001Z</time></trkpt><trkpt lat="39.80480535849279" lon="9.260102098206042"><ele>770.0</ele><time>2026-04-30T15:45:49.001Z</time></trkpt><trkpt lat="39.804648425799755" lon="9.260045673850723"><ele>770.0</ele><time>2026-04-30T15:45:50.001Z</time></trkpt><trkpt lat="39.80447258448305" lon="9.260057599004362"><ele>770.0</ele><time>2026-04-30T15:45:51.001Z</time></trkpt><trkpt lat="39.8042855832796" lon="9.260133500526225"><ele>767.6666666666667</ele><time>2026-04-30T15:45:52.002Z</time></trkpt><trkpt lat="39.80410384545107" lon="9.260212238367847"><ele>765.3333333333334</ele><time>2026-04-30T15:45:53.002Z</time></trkpt><trkpt lat="39.80393651131094" lon="9.260229928577004"><ele>763.0</ele><time>2026-04-30T15:45:54.002Z</time></trkpt><trkpt lat="39.80375987424231" lon="9.26016553938612"><ele>763.0</ele><time>2026-04-30T15:45:55.002Z</time></trkpt><trkpt lat="39.803567857350195" lon="9.260063019988683"><ele>763.0</ele><time>2026-04-30T15:45:56.002Z</time></trkpt><trkpt lat="39.803370066321065" lon="9.259981964707675"><ele>763.0</ele><time>2026-04-30T15:45:57.002Z</time></trkpt><trkpt lat="39.80316179058289" lon="9.259932102630575"><ele>761.3333333333334</ele><time>2026-04-30T15:45:58.002Z</time></trkpt><trkpt lat="39.80294864277351" lon="9.259889987907526"><ele>759.6666666666666</ele><time>2026-04-30T15:45:59.002Z</time></trkpt><trkpt lat="39.802725299853144" lon="9.259847260030934"><ele>758.0</ele><time>2026-04-30T15:46:00.002Z</time></trkpt><trkpt lat="39.80252653145394" lon="9.259776272673216"><ele>755.0</ele><time>2026-04-30T15:46:01.002Z</time></trkpt><trkpt lat="39.80235050223218" lon="9.259693951277656"><ele>752.0</ele><time>2026-04-30T15:46:02.002Z</time></trkpt><trkpt lat="39.80220970592921" lon="9.259633844522929"><ele>749.0</ele><time>2026-04-30T15:46:03.001Z</time></trkpt><trkpt lat="39.802090323757476" lon="9.259598874851559"><ele>749.0</ele><time>2026-04-30T15:46:04.002Z</time></trkpt><trkpt lat="39.80197623408296" lon="9.259608530218998"><ele>749.0</ele><time>2026-04-30T15:46:05.001Z</time></trkpt><trkpt lat="39.80186343754779" lon="9.259673357598027"><ele>749.0</ele><time>2026-04-30T15:46:06.001Z</time></trkpt><trkpt lat="39.80173839379091" lon="9.259814282967215"><ele>749.0</ele><time>2026-04-30T15:46:07.001Z</time></trkpt><trkpt lat="39.80162682224188" lon="9.259941499237815"><ele>750.6666666666666</ele><time>2026-04-30T15:46:08.001Z</time></trkpt><trkpt lat="39.80149243155771" lon="9.260080250362044"><ele>752.3333333333334</ele><time>2026-04-30T15:46:09.001Z</time></trkpt><trkpt lat="39.80134080988246" lon="9.260204876861497"><ele>754.0</ele><time>2026-04-30T15:46:10.001Z</time></trkpt><trkpt lat="39.80121269125589" lon="9.260328473022904"><ele>754.0</ele><time>2026-04-30T15:46:11.001Z</time></trkpt><trkpt lat="39.801120149386335" lon="9.260469508263705"><ele>754.0</ele><time>2026-04-30T15:46:12.001Z</time></trkpt><trkpt lat="39.80106268363431" lon="9.260649527753076"><ele>754.0</ele><time>2026-04-30T15:46:13.001Z</time></trkpt><trkpt lat="39.80102873010701" lon="9.260849259023853"><ele>754.0</ele><time>2026-04-30T15:46:14.001Z</time></trkpt><trkpt lat="39.80095318269776" lon="9.261009138119455"><ele>752.3333333333334</ele><time>2026-04-30T15:46:15.001Z</time></trkpt><trkpt lat="39.80081854232807" lon="9.261130238029297"><ele>750.6666666666666</ele><time>2026-04-30T15:46:16.001Z</time></trkpt><trkpt lat="39.80064592669381" lon="9.261188876180476"><ele>749.0</ele><time>2026-04-30T15:46:17.001Z</time></trkpt><trkpt lat="39.80044807542121" lon="9.261228770732167"><ele>749.0</ele><time>2026-04-30T15:46:18.001Z</time></trkpt><trkpt lat="39.80024555949062" lon="9.261273550521159"><ele>749.0</ele><time>2026-04-30T15:46:19.001Z</time></trkpt><trkpt lat="39.80005720089124" lon="9.261329116436322"><ele>749.0</ele><time>2026-04-30T15:46:20.001Z</time></trkpt><trkpt lat="39.79987691772423" lon="9.261366133520319"><ele>746.75</ele><time>2026-04-30T15:46:21.001Z</time></trkpt><trkpt lat="39.79970931218132" lon="9.261367103553836"><ele>744.5</ele><time>2026-04-30T15:46:22.001Z</time></trkpt><trkpt lat="39.79956869045802" lon="9.261354453396281"><ele>742.25</ele><time>2026-04-30T15:46:23.001Z</time></trkpt><trkpt lat="39.79947246402247" lon="9.261352362244029"><ele>740.0</ele><time>2026-04-30T15:46:24.001Z</time></trkpt><trkpt lat="39.79940824897384" lon="9.261410033954292"><ele>742.25</ele><time>2026-04-30T15:46:25.001Z</time></trkpt><trkpt lat="39.79937704237422" lon="9.261536553126549"><ele>744.5</ele><time>2026-04-30T15:46:26Z</time></trkpt><trkpt lat="39.79938593390097" lon="9.261717786706523"><ele>746.75</ele><time>2026-04-30T15:46:27Z</time></trkpt><trkpt lat="39.79943385658674" lon="9.261924950066517"><ele>749.0</ele><time>2026-04-30T15:46:28Z</time></trkpt><trkpt lat="39.79946918318375" lon="9.262135314497279"><ele>750.0</ele><time>2026-04-30T15:46:29Z</time></trkpt><trkpt lat="39.79944931186834" lon="9.262357144470949"><ele>751.0</ele><time>2026-04-30T15:46:30Z</time></trkpt><trkpt lat="39.79939077126633" lon="9.26257652796507"><ele>752.0</ele><time>2026-04-30T15:46:31Z</time></trkpt><trkpt lat="39.79929383828797" lon="9.262761300937463"><ele>747.0</ele><time>2026-04-30T15:46:32Z</time></trkpt><trkpt lat="39.7991824175571" lon="9.26291100405221"><ele>742.0</ele><time>2026-04-30T15:46:33Z</time></trkpt><trkpt lat="39.79904147216448" lon="9.263026507186662"><ele>737.0</ele><time>2026-04-30T15:46:34Z</time></trkpt><trkpt lat="39.79887410053065" lon="9.263088350949001"><ele>737.0</ele><time>2026-04-30T15:46:35Z</time></trkpt><trkpt lat="39.798675438348" lon="9.263101569736456"><ele>737.0</ele><time>2026-04-30T15:46:36Z</time></trkpt><trkpt lat="39.798457849045434" lon="9.263128769166823"><ele>737.0</ele><time>2026-04-30T15:46:37Z</time></trkpt><trkpt lat="39.79822237774955" lon="9.26311772817608"><ele>735.0</ele><time>2026-04-30T15:46:38Z</time></trkpt><trkpt lat="39.797993788468816" lon="9.263127510761723"><ele>733.0</ele><time>2026-04-30T15:46:39Z</time></trkpt><trkpt lat="39.79776256357098" lon="9.263140408321073"><ele>732.5</ele><time>2026-04-30T15:46:40Z</time></trkpt><trkpt lat="39.79752045786843" lon="9.263152265352659"><ele>732.0</ele><time>2026-04-30T15:46:41Z</time></trkpt><trkpt lat="39.7972823274867" lon="9.263160704439803"><ele>732.0</ele><time>2026-04-30T15:46:42Z</time></trkpt><trkpt lat="39.79705364967008" lon="9.263170348040951"><ele>732.0</ele><time>2026-04-30T15:46:43Z</time></trkpt><trkpt lat="39.79684104263365" lon="9.263177668866259"><ele>732.0</ele><time>2026-04-30T15:46:44Z</time></trkpt><trkpt lat="39.796654820590966" lon="9.263157305304954"><ele>731.0</ele><time>2026-04-30T15:46:45Z</time></trkpt><trkpt lat="39.79649927041542" lon="9.263062518281"><ele>730.0</ele><time>2026-04-30T15:46:46Z</time></trkpt><trkpt lat="39.79636472481362" lon="9.262937930958659"><ele>729.0</ele><time>2026-04-30T15:46:47Z</time></trkpt><trkpt lat="39.796219949972354" lon="9.26287174722453"><ele>729.0</ele><time>2026-04-30T15:46:48Z</time></trkpt><trkpt lat="39.796073136457" lon="9.262811000956917"><ele>729.0</ele><time>2026-04-30T15:46:49Z</time></trkpt><trkpt lat="39.79595653319766" lon="9.262713617018719"><ele>729.0</ele><time>2026-04-30T15:46:50Z</time></trkpt><trkpt lat="39.79589732639327" lon="9.262572649382086"><ele>729.0</ele><time>2026-04-30T15:46:51Z</time></trkpt><trkpt lat="39.79579634649167" lon="9.262508867562639"><ele>731.0</ele><time>2026-04-30T15:46:52Z</time></trkpt><trkpt lat="39.79564678954474" lon="9.262490337364778"><ele>733.0</ele><time>2026-04-30T15:46:53Z</time></trkpt><trkpt lat="39.795458110213296" lon="9.262512172329872"><ele>735.0</ele><time>2026-04-30T15:46:54Z</time></trkpt><trkpt lat="39.79526083837876" lon="9.262541131986874"><ele>738.6666666666666</ele><time>2026-04-30T15:46:55Z</time></trkpt><trkpt lat="39.79508134144097" lon="9.262576360919505"><ele>742.3333333333333</ele><time>2026-04-30T15:46:56Z</time></trkpt><trkpt lat="39.794904136471864" lon="9.262622590421335"><ele>746.0</ele><time>2026-04-30T15:46:57Z</time></trkpt><trkpt lat="39.79472422173595" lon="9.262617378902792"><ele>746.0</ele><time>2026-04-30T15:46:58Z</time></trkpt><trkpt lat="39.794562338720816" lon="9.262516517043842"><ele>746.0</ele><time>2026-04-30T15:46:59Z</time></trkpt><trkpt lat="39.79440876009287" lon="9.262390128469374"><ele>746.0</ele><time>2026-04-30T15:47:00Z</time></trkpt><trkpt lat="39.79425100968799" lon="9.262276100500321"><ele>748.3333333333333</ele><time>2026-04-30T15:47:01Z</time></trkpt><trkpt lat="39.794105240707744" lon="9.262136018828958"><ele>750.6666666666666</ele><time>2026-04-30T15:47:02Z</time></trkpt><trkpt lat="39.79395858803648" lon="9.262000908630455"><ele>753.0</ele><time>2026-04-30T15:47:03Z</time></trkpt><trkpt lat="39.79382547335626" lon="9.261873147464213"><ele>753.0</ele><time>2026-04-30T15:47:04Z</time></trkpt><trkpt lat="39.793710242816466" lon="9.26171913283208"><ele>753.0</ele><time>2026-04-30T15:47:05Z</time></trkpt><trkpt lat="39.79365782633481" lon="9.261508667188778"><ele>753.0</ele><time>2026-04-30T15:47:06Z</time></trkpt><trkpt lat="39.793601365407035" lon="9.2612866280226"><ele>753.3333333333334</ele><time>2026-04-30T15:47:07Z</time></trkpt><trkpt lat="39.7935353821443" lon="9.26106013716839"><ele>753.6666666666667</ele><time>2026-04-30T15:47:08Z</time></trkpt><trkpt lat="39.79348993709558" lon="9.260850027142173"><ele>754.0</ele><time>2026-04-30T15:47:09Z</time></trkpt><trkpt lat="39.79341646777445" lon="9.260694649958515"><ele>754.0</ele><time>2026-04-30T15:47:10Z</time></trkpt><trkpt lat="39.79330480668232" lon="9.260599880824282"><ele>754.0</ele><time>2026-04-30T15:47:11Z</time></trkpt><trkpt lat="39.793160127320085" lon="9.260548651156409"><ele>754.0</ele><time>2026-04-30T15:47:12Z</time></trkpt><trkpt lat="39.79298326188244" lon="9.26056613623459"><ele>754.0</ele><time>2026-04-30T15:47:13Z</time></trkpt><trkpt lat="39.79280084829654" lon="9.260583660253776"><ele>754.0</ele><time>2026-04-30T15:47:14Z</time></trkpt><trkpt lat="39.79262799553778" lon="9.26055197469496"><ele>754.0</ele><time>2026-04-30T15:47:15Z</time></trkpt><trkpt lat="39.792463581938485" lon="9.260502410319981"><ele>749.0</ele><time>2026-04-30T15:47:16Z</time></trkpt><trkpt lat="39.79230398437747" lon="9.260413400051073"><ele>744.0</ele><time>2026-04-30T15:47:17Z</time></trkpt><trkpt lat="39.79214826246299" lon="9.260287193800455"><ele>739.0</ele><time>2026-04-30T15:47:18Z</time></trkpt><trkpt lat="39.791995287645975" lon="9.260139636402133"><ele>735.0</ele><time>2026-04-30T15:47:19Z</time></trkpt><trkpt lat="39.791837171678424" lon="9.259995639879838"><ele>731.0</ele><time>2026-04-30T15:47:20Z</time></trkpt><trkpt lat="39.79168228960327" lon="9.259862169146905"><ele>727.0</ele><time>2026-04-30T15:47:21Z</time></trkpt><trkpt lat="39.79154216405411" lon="9.259725994563434"><ele>727.0</ele><time>2026-04-30T15:47:22Z</time></trkpt><trkpt lat="39.79145770298377" lon="9.259538078205829"><ele>727.0</ele><time>2026-04-30T15:47:23Z</time></trkpt><trkpt lat="39.79141930102384" lon="9.25933551461147"><ele>727.0</ele><time>2026-04-30T15:47:24Z</time></trkpt><trkpt lat="39.79141544848978" lon="9.259158816146142"><ele>727.0</ele><time>2026-04-30T15:47:25Z</time></trkpt><trkpt lat="39.79139692688909" lon="9.258983150013602"><ele>727.0</ele><time>2026-04-30T15:47:26Z</time></trkpt><trkpt lat="39.791386894474" lon="9.258813893561518"><ele>727.0</ele><time>2026-04-30T15:47:27Z</time></trkpt><trkpt lat="39.7913249698203" lon="9.25866886494309"><ele>727.0</ele><time>2026-04-30T15:47:28Z</time></trkpt><trkpt lat="39.79122807163572" lon="9.258564635431862"><ele>725.0</ele><time>2026-04-30T15:47:29Z</time></trkpt><trkpt lat="39.79110819257985" lon="9.258524113961606"><ele>723.0</ele><time>2026-04-30T15:47:30Z</time></trkpt><trkpt lat="39.79099213240238" lon="9.258564135576844"><ele>721.0</ele><time>2026-04-30T15:47:31Z</time></trkpt><trkpt lat="39.79087753167453" lon="9.258705492348012"><ele>719.0</ele><time>2026-04-30T15:47:32Z</time></trkpt><trkpt lat="39.790790225434606" lon="9.258872957461152"><ele>718.75</ele><time>2026-04-30T15:47:33Z</time></trkpt><trkpt lat="39.79070674879744" lon="9.25899836518568"><ele>718.5</ele><time>2026-04-30T15:47:34Z</time></trkpt><trkpt lat="39.79060688320765" lon="9.259045006133904"><ele>718.25</ele><time>2026-04-30T15:47:35Z</time></trkpt><trkpt lat="39.7904959297908" lon="9.258998510197678"><ele>718.0</ele><time>2026-04-30T15:47:36Z</time></trkpt><trkpt lat="39.79042848486775" lon="9.258859543932289"><ele>715.6666666666667</ele><time>2026-04-30T15:47:37Z</time></trkpt><trkpt lat="39.790356645167314" lon="9.258703126448166"><ele>713.3333333333334</ele><time>2026-04-30T15:47:38Z</time></trkpt><trkpt lat="39.790244219789244" lon="9.258522465186745"><ele>711.0</ele><time>2026-04-30T15:47:39Z</time></trkpt><trkpt lat="39.79011926088174" lon="9.258357675898015"><ele>708.6666666666666</ele><time>2026-04-30T15:47:40Z</time></trkpt><trkpt lat="39.789975658511295" lon="9.258228884141783"><ele>706.3333333333333</ele><time>2026-04-30T15:47:41Z</time></trkpt><trkpt lat="39.789854977821086" lon="9.258087188886043"><ele>704.0</ele><time>2026-04-30T15:47:42Z</time></trkpt><trkpt lat="39.78982124530551" lon="9.257904011745321"><ele>704.0</ele><time>2026-04-30T15:47:43Z</time></trkpt><trkpt lat="39.7898454293018" lon="9.257693666427308"><ele>704.0</ele><time>2026-04-30T15:47:44Z</time></trkpt><trkpt lat="39.78984430174981" lon="9.25744515257574"><ele>704.0</ele><time>2026-04-30T15:47:45Z</time></trkpt><trkpt lat="39.7898590186166" lon="9.257182804648657"><ele>702.6666666666666</ele><time>2026-04-30T15:47:46Z</time></trkpt><trkpt lat="39.7898347860393" lon="9.256944042497079"><ele>701.3333333333334</ele><time>2026-04-30T15:47:47Z</time></trkpt><trkpt lat="39.789795215162094" lon="9.256739171636735"><ele>700.0</ele><time>2026-04-30T15:47:48Z</time></trkpt><trkpt lat="39.789735836013115" lon="9.256573626553182"><ele>700.0</ele><time>2026-04-30T15:47:49Z</time></trkpt><trkpt lat="39.78963198709" lon="9.25646182299142"><ele>700.0</ele><time>2026-04-30T15:47:50Z</time></trkpt><trkpt lat="39.7894649162985" lon="9.256402887138485"><ele>700.0</ele><time>2026-04-30T15:47:51Z</time></trkpt><trkpt lat="39.789276218151784" lon="9.256393813105552"><ele>701.6666666666667</ele><time>2026-04-30T15:47:52Z</time></trkpt><trkpt lat="39.7890878594233" lon="9.256422223335495"><ele>703.3333333333334</ele><time>2026-04-30T15:47:53Z</time></trkpt><trkpt lat="39.788903615856924" lon="9.256486744224162"><ele>705.0</ele><time>2026-04-30T15:47:54Z</time></trkpt><trkpt lat="39.78872762197162" lon="9.25653653819648"><ele>705.0</ele><time>2026-04-30T15:47:55Z</time></trkpt><trkpt lat="39.788557960709916" lon="9.256484258249492"><ele>705.0</ele><time>2026-04-30T15:47:56Z</time></trkpt><trkpt lat="39.78836409652936" lon="9.256407611202208"><ele>705.0</ele><time>2026-04-30T15:47:57Z</time></trkpt><trkpt lat="39.78816138392305" lon="9.25634762626145"><ele>703.0</ele><time>2026-04-30T15:47:58.001Z</time></trkpt><trkpt lat="39.78797678342809" lon="9.256267815604536"><ele>701.0</ele><time>2026-04-30T15:47:59.001Z</time></trkpt><trkpt lat="39.78781336565855" lon="9.256189516800559"><ele>699.0</ele><time>2026-04-30T15:48:00.001Z</time></trkpt><trkpt lat="39.78767046063258" lon="9.25609609840386"><ele>699.0</ele><time>2026-04-30T15:48:01.001Z</time></trkpt><trkpt lat="39.78754586212641" lon="9.255971367074428"><ele>699.0</ele><time>2026-04-30T15:48:02.001Z</time></trkpt><trkpt lat="39.78743334635492" lon="9.25578532852628"><ele>699.0</ele><time>2026-04-30T15:48:03.001Z</time></trkpt><trkpt lat="39.787314992540466" lon="9.255589874816243"><ele>700.6666666666666</ele><time>2026-04-30T15:48:04.001Z</time></trkpt><trkpt lat="39.78718721118592" lon="9.255391938643829"><ele>702.3333333333333</ele><time>2026-04-30T15:48:05.001Z</time></trkpt><trkpt lat="39.787034753365596" lon="9.255216345792393"><ele>704.0</ele><time>2026-04-30T15:48:06.001Z</time></trkpt><trkpt lat="39.78685313401122" lon="9.25505682251822"><ele>697.5</ele><time>2026-04-30T15:48:07.001Z</time></trkpt><trkpt lat="39.7866422707049" lon="9.254924019919839"><ele>691.0</ele><time>2026-04-30T15:48:08.001Z</time></trkpt><trkpt lat="39.78642814585384" lon="9.254795444706865"><ele>684.5</ele><time>2026-04-30T15:48:09.001Z</time></trkpt><trkpt lat="39.78621380456363" lon="9.254633983335118"><ele>678.0</ele><time>2026-04-30T15:48:10.001Z</time></trkpt><trkpt lat="39.78598501471141" lon="9.254481573509171"><ele>676.5</ele><time>2026-04-30T15:48:11.001Z</time></trkpt><trkpt lat="39.78575281513119" lon="9.254349442647765"><ele>675.0</ele><time>2026-04-30T15:48:12.001Z</time></trkpt><trkpt lat="39.78554369124674" lon="9.254179645379665"><ele>675.0</ele><time>2026-04-30T15:48:13.001Z</time></trkpt><trkpt lat="39.78534444124565" lon="9.254023079870391"><ele>675.0</ele><time>2026-04-30T15:48:14.001Z</time></trkpt><trkpt lat="39.78516479460419" lon="9.25382753813773"><ele>669.0</ele><time>2026-04-30T15:48:15.001Z</time></trkpt><trkpt lat="39.7849824666238" lon="9.253613343546188"><ele>663.0</ele><time>2026-04-30T15:48:16.001Z</time></trkpt><trkpt lat="39.78478455276045" lon="9.253411575115289"><ele>663.0</ele><time>2026-04-30T15:48:17.001Z</time></trkpt><trkpt lat="39.784579670929155" lon="9.253211297762121"><ele>663.0</ele><time>2026-04-30T15:48:18.001Z</time></trkpt><trkpt lat="39.78436169307177" lon="9.253029868357771"><ele>658.5</ele><time>2026-04-30T15:48:19.001Z</time></trkpt><trkpt lat="39.78413432646829" lon="9.252862410549419"><ele>654.0</ele><time>2026-04-30T15:48:20.001Z</time></trkpt><trkpt lat="39.78390347622242" lon="9.252701559043869"><ele>654.0</ele><time>2026-04-30T15:48:21.001Z</time></trkpt><trkpt lat="39.78368429649715" lon="9.25252645897797"><ele>654.0</ele><time>2026-04-30T15:48:22.001Z</time></trkpt><trkpt lat="39.783446407762874" lon="9.252407419111943"><ele>657.0</ele><time>2026-04-30T15:48:23.001Z</time></trkpt><trkpt lat="39.78322148556561" lon="9.252303789509275"><ele>660.0</ele><time>2026-04-30T15:48:24.001Z</time></trkpt><trkpt lat="39.783004727067336" lon="9.252207089324276"><ele>661.0</ele><time>2026-04-30T15:48:25Z</time></trkpt><trkpt lat="39.78282220610226" lon="9.252057263590078"><ele>662.0</ele><time>2026-04-30T15:48:26Z</time></trkpt><trkpt lat="39.78266282464949" lon="9.251927305512769"><ele>663.0</ele><time>2026-04-30T15:48:27Z</time></trkpt><trkpt lat="39.782537419339256" lon="9.251795887796716"><ele>663.0</ele><time>2026-04-30T15:48:28Z</time></trkpt><trkpt lat="39.782444855445796" lon="9.251650763690261"><ele>663.0</ele><time>2026-04-30T15:48:29Z</time></trkpt><trkpt lat="39.78241189216285" lon="9.251469098847931"><ele>663.0</ele><time>2026-04-30T15:48:30Z</time></trkpt><trkpt lat="39.78237623334465" lon="9.25126548568682"><ele>663.0</ele><time>2026-04-30T15:48:31Z</time></trkpt><trkpt lat="39.782348003766415" lon="9.251047156917858"><ele>666.3333333333334</ele><time>2026-04-30T15:48:32Z</time></trkpt><trkpt lat="39.78228624795689" lon="9.250843097555471"><ele>669.6666666666667</ele><time>2026-04-30T15:48:33Z</time></trkpt><trkpt lat="39.782188174259595" lon="9.250676609753112"><ele>673.0</ele><time>2026-04-30T15:48:34Z</time></trkpt><trkpt lat="39.78205451308167" lon="9.250554451134978"><ele>675.0</ele><time>2026-04-30T15:48:35Z</time></trkpt><trkpt lat="39.78188958783101" lon="9.25050464175447"><ele>677.0</ele><time>2026-04-30T15:48:36Z</time></trkpt><trkpt lat="39.78169444964599" lon="9.250500429813705"><ele>679.0</ele><time>2026-04-30T15:48:37Z</time></trkpt><trkpt lat="39.78151174130385" lon="9.250453195157025"><ele>679.0</ele><time>2026-04-30T15:48:38Z</time></trkpt><trkpt lat="39.78135691952335" lon="9.25039880430699"><ele>679.0</ele><time>2026-04-30T15:48:39Z</time></trkpt><trkpt lat="39.78120070946835" lon="9.250402037980653"><ele>679.0</ele><time>2026-04-30T15:48:40Z</time></trkpt><trkpt lat="39.781045045786705" lon="9.250471865099675"><ele>679.6666666666667</ele><time>2026-04-30T15:48:41Z</time></trkpt><trkpt lat="39.78089702334092" lon="9.25060845432397"><ele>680.3333333333334</ele><time>2026-04-30T15:48:42Z</time></trkpt><trkpt lat="39.78071401388069" lon="9.250691899881165"><ele>681.0</ele><time>2026-04-30T15:48:43Z</time></trkpt><trkpt lat="39.78064076796213" lon="9.25103570211005"><ele>677.6666666666666</ele><time>2026-04-30T15:48:44Z</time></trkpt><trkpt lat="39.78052501512387" lon="9.251236464508073"><ele>674.3333333333333</ele><time>2026-04-30T15:48:45Z</time></trkpt><trkpt lat="39.78041034595473" lon="9.251406260240227"><ele>671.0</ele><time>2026-04-30T15:48:46Z</time></trkpt><trkpt lat="39.78027896667627" lon="9.251543822388173"><ele>671.6666666666666</ele><time>2026-04-30T15:48:47Z</time></trkpt><trkpt lat="39.780115954371105" lon="9.251596643182998"><ele>672.3333333333334</ele><time>2026-04-30T15:48:48Z</time></trkpt><trkpt lat="39.77994390649498" lon="9.251631517889143"><ele>673.0</ele><time>2026-04-30T15:48:49Z</time></trkpt><trkpt lat="39.77975960248987" lon="9.251641640621795"><ele>673.0</ele><time>2026-04-30T15:48:50Z</time></trkpt><trkpt lat="39.779573986054096" lon="9.251628260036453"><ele>673.0</ele><time>2026-04-30T15:48:51Z</time></trkpt><trkpt lat="39.77939036425525" lon="9.25161514088346"><ele>673.0</ele><time>2026-04-30T15:48:52Z</time></trkpt><trkpt lat="39.77921977750679" lon="9.251515689006984"><ele>676.3333333333334</ele><time>2026-04-30T15:48:53Z</time></trkpt><trkpt lat="39.77905340489403" lon="9.251392515943433"><ele>679.6666666666666</ele><time>2026-04-30T15:48:54Z</time></trkpt><trkpt lat="39.77889154256649" lon="9.251284322935613"><ele>683.0</ele><time>2026-04-30T15:48:55Z</time></trkpt><trkpt lat="39.77874318499692" lon="9.251206004047726"><ele>683.0</ele><time>2026-04-30T15:48:56Z</time></trkpt><trkpt lat="39.7786030179152" lon="9.2512329714672"><ele>683.0</ele><time>2026-04-30T15:48:57Z</time></trkpt><trkpt lat="39.7784434600427" lon="9.251348945671555"><ele>683.0</ele><time>2026-04-30T15:48:58Z</time></trkpt><trkpt lat="39.778282812816194" lon="9.251538524053586"><ele>680.6666666666666</ele><time>2026-04-30T15:48:59Z</time></trkpt><trkpt lat="39.77812808198899" lon="9.251740980790704"><ele>678.3333333333334</ele><time>2026-04-30T15:49:00Z</time></trkpt><trkpt lat="39.7779833012769" lon="9.25193896188435"><ele>676.0</ele><time>2026-04-30T15:49:01Z</time></trkpt><trkpt lat="39.77782618159315" lon="9.25212642846045"><ele>677.0</ele><time>2026-04-30T15:49:02Z</time></trkpt><trkpt lat="39.7776809070055" lon="9.25229835247174"><ele>678.0</ele><time>2026-04-30T15:49:03Z</time></trkpt><trkpt lat="39.77756292315252" lon="9.25247783414161"><ele>679.0</ele><time>2026-04-30T15:49:04Z</time></trkpt><trkpt lat="39.77746131320843" lon="9.25265947232468"><ele>679.0</ele><time>2026-04-30T15:49:05Z</time></trkpt><trkpt lat="39.77735845964857" lon="9.252813009928856"><ele>679.0</ele><time>2026-04-30T15:49:06Z</time></trkpt><trkpt lat="39.77723735820455" lon="9.252923490647019"><ele>679.0</ele><time>2026-04-30T15:49:07Z</time></trkpt><trkpt lat="39.77708440170914" lon="9.252952132905184"><ele>679.0</ele><time>2026-04-30T15:49:08Z</time></trkpt><trkpt lat="39.77691619438024" lon="9.252956062963282"><ele>679.0</ele><time>2026-04-30T15:49:09Z</time></trkpt><trkpt lat="39.776732883801614" lon="9.252943332212979"><ele>679.0</ele><time>2026-04-30T15:49:10Z</time></trkpt><trkpt lat="39.776539769292064" lon="9.252894132189722"><ele>681.0</ele><time>2026-04-30T15:49:11Z</time></trkpt><trkpt lat="39.776346582214835" lon="9.252875102527556"><ele>683.0</ele><time>2026-04-30T15:49:12Z</time></trkpt><trkpt lat="39.7761355843301" lon="9.252923513783848"><ele>685.0</ele><time>2026-04-30T15:49:13Z</time></trkpt><trkpt lat="39.7759131270735" lon="9.25302132573598"><ele>674.0</ele><time>2026-04-30T15:49:14Z</time></trkpt><trkpt lat="39.77569338644685" lon="9.253128808141156"><ele>663.0</ele><time>2026-04-30T15:49:15Z</time></trkpt><trkpt lat="39.77546770634793" lon="9.253169522209623"><ele>663.0</ele><time>2026-04-30T15:49:16Z</time></trkpt><trkpt lat="39.775233509629174" lon="9.253206793596226"><ele>663.0</ele><time>2026-04-30T15:49:17Z</time></trkpt><trkpt lat="39.774989021855134" lon="9.253236966847863"><ele>663.5</ele><time>2026-04-30T15:49:18Z</time></trkpt><trkpt lat="39.77474170044012" lon="9.253262430877244"><ele>664.0</ele><time>2026-04-30T15:49:19Z</time></trkpt><trkpt lat="39.774489013106894" lon="9.253260920115574"><ele>665.0</ele><time>2026-04-30T15:49:20Z</time></trkpt><trkpt lat="39.77423617937614" lon="9.253268578307386"><ele>666.0</ele><time>2026-04-30T15:49:21Z</time></trkpt><trkpt lat="39.77398489113462" lon="9.253281567824857"><ele>666.0</ele><time>2026-04-30T15:49:22Z</time></trkpt><trkpt lat="39.77374169903123" lon="9.253297919753432"><ele>666.0</ele><time>2026-04-30T15:49:23Z</time></trkpt><trkpt lat="39.7735184763056" lon="9.253303249693397"><ele>664.3333333333334</ele><time>2026-04-30T15:49:24Z</time></trkpt><trkpt lat="39.77330646157459" lon="9.25328845254764"><ele>662.6666666666667</ele><time>2026-04-30T15:49:25Z</time></trkpt><trkpt lat="39.773105897464255" lon="9.2532282614155"><ele>661.0</ele><time>2026-04-30T15:49:26Z</time></trkpt><trkpt lat="39.77290029244746" lon="9.253137120142911"><ele>661.6666666666667</ele><time>2026-04-30T15:49:27Z</time></trkpt><trkpt lat="39.77270436560467" lon="9.253048763265872"><ele>662.3333333333334</ele><time>2026-04-30T15:49:28Z</time></trkpt><trkpt lat="39.772508654475395" lon="9.253004777747435"><ele>663.0</ele><time>2026-04-30T15:49:29Z</time></trkpt><trkpt lat="39.77230881601584" lon="9.252998897984575"><ele>663.0</ele><time>2026-04-30T15:49:30Z</time></trkpt><trkpt lat="39.77211167504546" lon="9.25301872214791"><ele>663.0</ele><time>2026-04-30T15:49:31Z</time></trkpt><trkpt lat="39.77194023091712" lon="9.253027629756692"><ele>663.0</ele><time>2026-04-30T15:49:32Z</time></trkpt><trkpt lat="39.771812827705155" lon="9.252973420048418"><ele>662.25</ele><time>2026-04-30T15:49:33Z</time></trkpt><trkpt lat="39.771725104522865" lon="9.252870994655767"><ele>661.5</ele><time>2026-04-30T15:49:34Z</time></trkpt><trkpt lat="39.771659831985225" lon="9.252701637432736"><ele>660.75</ele><time>2026-04-30T15:49:35Z</time></trkpt><trkpt lat="39.77158034841178" lon="9.252488155497376"><ele>660.0</ele><time>2026-04-30T15:49:36Z</time></trkpt><trkpt lat="39.771489443003325" lon="9.25223827514278"><ele>658.0</ele><time>2026-04-30T15:49:37Z</time></trkpt><trkpt lat="39.77142527918592" lon="9.251991983501997"><ele>656.0</ele><time>2026-04-30T15:49:38Z</time></trkpt><trkpt lat="39.77138350104956" lon="9.251751781912045"><ele>654.0</ele><time>2026-04-30T15:49:39Z</time></trkpt><trkpt lat="39.77131018885812" lon="9.25154671779678"><ele>651.0</ele><time>2026-04-30T15:49:40Z</time></trkpt><trkpt lat="39.77123180426488" lon="9.251366171710854"><ele>648.0</ele><time>2026-04-30T15:49:41Z</time></trkpt><trkpt lat="39.77110046054375" lon="9.251236423372962"><ele>645.0</ele><time>2026-04-30T15:49:41.999Z</time></trkpt><trkpt lat="39.7709165431603" lon="9.25112279631205"><ele>651.0</ele><time>2026-04-30T15:49:42.999Z</time></trkpt><trkpt lat="39.770718076120964" lon="9.25101246425542"><ele>657.0</ele><time>2026-04-30T15:49:43.999Z</time></trkpt><trkpt lat="39.770532412827095" lon="9.2509009822021"><ele>663.0</ele><time>2026-04-30T15:49:44.999Z</time></trkpt><trkpt lat="39.77038470691365" lon="9.250801219401971"><ele>663.0</ele><time>2026-04-30T15:49:45.999Z</time></trkpt><trkpt lat="39.770223890665044" lon="9.250762205719239"><ele>663.0</ele><time>2026-04-30T15:49:46.999Z</time></trkpt><trkpt lat="39.77006545947691" lon="9.250794369533262"><ele>663.0</ele><time>2026-04-30T15:49:47.999Z</time></trkpt><trkpt lat="39.76991037923037" lon="9.250899686326209"><ele>659.6666666666666</ele><time>2026-04-30T15:49:48.999Z</time></trkpt><trkpt lat="39.769774272428094" lon="9.251047382082325"><ele>656.3333333333333</ele><time>2026-04-30T15:49:49.999Z</time></trkpt><trkpt lat="39.769661788323994" lon="9.25123880289693"><ele>653.0</ele><time>2026-04-30T15:49:50.999Z</time></trkpt><trkpt lat="39.769542339513016" lon="9.251444169451828"><ele>652.3333333333333</ele><time>2026-04-30T15:49:51.999Z</time></trkpt><trkpt lat="39.76941422044473" lon="9.251620148311773"><ele>651.6666666666666</ele><time>2026-04-30T15:49:52.999Z</time></trkpt><trkpt lat="39.769287285370254" lon="9.25174275500404"><ele>651.0</ele><time>2026-04-30T15:49:53.999Z</time></trkpt><trkpt lat="39.76914987811467" lon="9.25178164168497"><ele>651.0</ele><time>2026-04-30T15:49:54.999Z</time></trkpt><trkpt lat="39.76900449795431" lon="9.25173901354872"><ele>651.0</ele><time>2026-04-30T15:49:55.999Z</time></trkpt><trkpt lat="39.76888194380609" lon="9.25164212768547"><ele>651.0</ele><time>2026-04-30T15:49:56.999Z</time></trkpt><trkpt lat="39.768833911305904" lon="9.251464047991742"><ele>651.0</ele><time>2026-04-30T15:49:57.999Z</time></trkpt><trkpt lat="39.76880040364135" lon="9.251259968027608"><ele>648.0</ele><time>2026-04-30T15:49:58.999Z</time></trkpt><trkpt lat="39.76875689633578" lon="9.251023404838092"><ele>645.0</ele><time>2026-04-30T15:49:59.999Z</time></trkpt><trkpt lat="39.768711731837804" lon="9.25078057309398"><ele>642.0</ele><time>2026-04-30T15:50:00.999Z</time></trkpt><trkpt lat="39.76861726996096" lon="9.250560227816186"><ele>641.3333333333334</ele><time>2026-04-30T15:50:01.999Z</time></trkpt><trkpt lat="39.76849488283516" lon="9.250358211821055"><ele>640.6666666666667</ele><time>2026-04-30T15:50:02.999Z</time></trkpt><trkpt lat="39.768328839987895" lon="9.250164933815114"><ele>640.0</ele><time>2026-04-30T15:50:04.001Z</time></trkpt><trkpt lat="39.768146755901114" lon="9.24997604477514"><ele>640.0</ele><time>2026-04-30T15:50:05.001Z</time></trkpt><trkpt lat="39.76796081444852" lon="9.24979905965913"><ele>640.0</ele><time>2026-04-30T15:50:06.001Z</time></trkpt><trkpt lat="39.767764067016735" lon="9.24962240748535"><ele>639.0</ele><time>2026-04-30T15:50:07.001Z</time></trkpt><trkpt lat="39.7675611703498" lon="9.24943584825262"><ele>638.0</ele><time>2026-04-30T15:50:08.001Z</time></trkpt><trkpt lat="39.767380620661356" lon="9.24925861738516"><ele>638.0</ele><time>2026-04-30T15:50:09.001Z</time></trkpt><trkpt lat="39.7672358204838" lon="9.249118530425088"><ele>638.0</ele><time>2026-04-30T15:50:10.001Z</time></trkpt><trkpt lat="39.767134983761025" lon="9.249032712306741"><ele>638.0</ele><time>2026-04-30T15:50:11.001Z</time></trkpt><trkpt lat="39.76702012814469" lon="9.248986350400918"><ele>638.0</ele><time>2026-04-30T15:50:12.001Z</time></trkpt><trkpt lat="39.76687684832569" lon="9.249014121835877"><ele>636.6666666666666</ele><time>2026-04-30T15:50:13.001Z</time></trkpt><trkpt lat="39.76671930134447" lon="9.249139046055747"><ele>635.3333333333334</ele><time>2026-04-30T15:50:14Z</time></trkpt><trkpt lat="39.766543230402206" lon="9.249298483292376"><ele>634.0</ele><time>2026-04-30T15:50:15Z</time></trkpt><trkpt lat="39.76634449305358" lon="9.24943830387509"><ele>634.0</ele><time>2026-04-30T15:50:16.001Z</time></trkpt><trkpt lat="39.76614194346129" lon="9.249551825475706"><ele>634.0</ele><time>2026-04-30T15:50:17Z</time></trkpt><trkpt lat="39.76593133862275" lon="9.249614233719813"><ele>634.0</ele><time>2026-04-30T15:50:18Z</time></trkpt><trkpt lat="39.765694137711115" lon="9.249656600070233"><ele>630.0</ele><time>2026-04-30T15:50:19Z</time></trkpt><trkpt lat="39.765458014420524" lon="9.249709111404975"><ele>626.0</ele><time>2026-04-30T15:50:20Z</time></trkpt><trkpt lat="39.765226285114586" lon="9.249732377512839"><ele>626.3333333333333</ele><time>2026-04-30T15:50:21Z</time></trkpt><trkpt lat="39.76501947658116" lon="9.249762758942728"><ele>626.6666666666666</ele><time>2026-04-30T15:50:22Z</time></trkpt><trkpt lat="39.76484583819449" lon="9.249823222514873"><ele>627.0</ele><time>2026-04-30T15:50:23Z</time></trkpt><trkpt lat="39.76470379029729" lon="9.249926992606579"><ele>627.0</ele><time>2026-04-30T15:50:24Z</time></trkpt><trkpt lat="39.76461161020714" lon="9.2500995705921"><ele>627.0</ele><time>2026-04-30T15:50:25Z</time></trkpt><trkpt lat="39.764557056651604" lon="9.250310585369034"><ele>627.0</ele><time>2026-04-30T15:50:26Z</time></trkpt><trkpt lat="39.76454094401411" lon="9.250531683674133"><ele>627.0</ele><time>2026-04-30T15:50:27Z</time></trkpt><trkpt lat="39.76453310924208" lon="9.250726034314692"><ele>627.0</ele><time>2026-04-30T15:50:28Z</time></trkpt><trkpt lat="39.76454716064379" lon="9.250868291189965"><ele>627.0</ele><time>2026-04-30T15:50:29Z</time></trkpt><trkpt lat="39.76460085584385" lon="9.250968424736813"><ele>627.0</ele><time>2026-04-30T15:50:30Z</time></trkpt><trkpt lat="39.76471552584934" lon="9.251070031743463"><ele>627.0</ele><time>2026-04-30T15:50:31Z</time></trkpt><trkpt lat="39.7648681596632" lon="9.251157431445785"><ele>627.0</ele><time>2026-04-30T15:50:32Z</time></trkpt><trkpt lat="39.76502320540522" lon="9.251285947012507"><ele>627.0</ele><time>2026-04-30T15:50:33Z</time></trkpt><trkpt lat="39.76517675238566" lon="9.251415838255573"><ele>625.0</ele><time>2026-04-30T15:50:34Z</time></trkpt><trkpt lat="39.76535204791462" lon="9.251530072356093"><ele>623.0</ele><time>2026-04-30T15:50:35Z</time></trkpt><trkpt lat="39.7655374452215" lon="9.251620582718346"><ele>621.0</ele><time>2026-04-30T15:50:36Z</time></trkpt><trkpt lat="39.76572214042842" lon="9.25171405314724"><ele>621.0</ele><time>2026-04-30T15:50:37Z</time></trkpt><trkpt lat="39.76589041889696" lon="9.25181642610748"><ele>621.0</ele><time>2026-04-30T15:50:38Z</time></trkpt><trkpt lat="39.766038240657146" lon="9.251920233233069"><ele>621.0</ele><time>2026-04-30T15:50:39Z</time></trkpt><trkpt lat="39.7661705268419" lon="9.25202642683043"><ele>623.0</ele><time>2026-04-30T15:50:40Z</time></trkpt><trkpt lat="39.76624848283574" lon="9.252155916286531"><ele>625.0</ele><time>2026-04-30T15:50:41Z</time></trkpt><trkpt lat="39.766300661867604" lon="9.25225994722084"><ele>627.0</ele><time>2026-04-30T15:50:42Z</time></trkpt><trkpt lat="39.766303035609795" lon="9.252367308817846"><ele>629.0</ele><time>2026-04-30T15:50:43Z</time></trkpt><trkpt lat="39.7662258864062" lon="9.252482691714638"><ele>631.0</ele><time>2026-04-30T15:50:44Z</time></trkpt><trkpt lat="39.766122234323205" lon="9.252604306322917"><ele>623.6666666666667</ele><time>2026-04-30T15:50:45Z</time></trkpt><trkpt lat="39.76598285634955" lon="9.25272464267097"><ele>616.3333333333334</ele><time>2026-04-30T15:50:46Z</time></trkpt><trkpt lat="39.76582647204596" lon="9.252838147557705"><ele>609.0</ele><time>2026-04-30T15:50:47Z</time></trkpt><trkpt lat="39.7656519523953" lon="9.25294208793582"><ele>609.0</ele><time>2026-04-30T15:50:48Z</time></trkpt><trkpt lat="39.7654616668393" lon="9.25303818897057"><ele>609.0</ele><time>2026-04-30T15:50:49Z</time></trkpt><trkpt lat="39.765261339524535" lon="9.253131816988324"><ele>609.0</ele><time>2026-04-30T15:50:50Z</time></trkpt><trkpt lat="39.76506200965962" lon="9.253257468112546"><ele>605.5</ele><time>2026-04-30T15:50:51Z</time></trkpt><trkpt lat="39.7648676221453" lon="9.253407568002636"><ele>602.0</ele><time>2026-04-30T15:50:52Z</time></trkpt><trkpt lat="39.76468044671282" lon="9.253570270583774"><ele>602.0</ele><time>2026-04-30T15:50:52.999Z</time></trkpt><trkpt lat="39.764501274868984" lon="9.253695202657093"><ele>602.0</ele><time>2026-04-30T15:50:53.999Z</time></trkpt><trkpt lat="39.76434082865474" lon="9.253802205520266"><ele>602.0</ele><time>2026-04-30T15:50:54.999Z</time></trkpt><trkpt lat="39.764219549712365" lon="9.253931370368289"><ele>599.3333333333333</ele><time>2026-04-30T15:50:55.999Z</time></trkpt><trkpt lat="39.76413661905692" lon="9.254086363057944"><ele>596.6666666666666</ele><time>2026-04-30T15:50:56.999Z</time></trkpt><trkpt lat="39.764103540933846" lon="9.254267739337553"><ele>594.0</ele><time>2026-04-30T15:50:57.999Z</time></trkpt><trkpt lat="39.76410806825255" lon="9.254480895978835"><ele>594.0</ele><time>2026-04-30T15:50:58.999Z</time></trkpt><trkpt lat="39.764144029157414" lon="9.254722264810644"><ele>594.0</ele><time>2026-04-30T15:50:59.999Z</time></trkpt><trkpt lat="39.76416996366313" lon="9.25494652254696"><ele>594.0</ele><time>2026-04-30T15:51:00.999Z</time></trkpt><trkpt lat="39.76415879135454" lon="9.255108369399244"><ele>595.75</ele><time>2026-04-30T15:51:01.999Z</time></trkpt><trkpt lat="39.76412708330416" lon="9.255240077959112"><ele>597.5</ele><time>2026-04-30T15:51:02.999Z</time></trkpt><trkpt lat="39.76401903316545" lon="9.25527969392998"><ele>599.25</ele><time>2026-04-30T15:51:03.999Z</time></trkpt><trkpt lat="39.763892348486394" lon="9.255284358766755"><ele>601.0</ele><time>2026-04-30T15:51:04.999Z</time></trkpt><trkpt lat="39.763716919569134" lon="9.255272768692814"><ele>596.3333333333334</ele><time>2026-04-30T15:51:05.999Z</time></trkpt><trkpt lat="39.76352660950674" lon="9.25529355236238"><ele>591.6666666666666</ele><time>2026-04-30T15:51:06.999Z</time></trkpt><trkpt lat="39.76336034978647" lon="9.255278566470807"><ele>587.0</ele><time>2026-04-30T15:51:07.999Z</time></trkpt><trkpt lat="39.763213847798106" lon="9.255199106270203"><ele>587.0</ele><time>2026-04-30T15:51:08.999Z</time></trkpt><trkpt lat="39.76304955148719" lon="9.255094886938393"><ele>587.0</ele><time>2026-04-30T15:51:09.999Z</time></trkpt><trkpt lat="39.762903174064135" lon="9.25495425908373"><ele>587.0</ele><time>2026-04-30T15:51:10.999Z</time></trkpt><trkpt lat="39.762777567812314" lon="9.25475771921636"><ele>584.3333333333333</ele><time>2026-04-30T15:51:11.999Z</time></trkpt><trkpt lat="39.76263542161358" lon="9.254524355691183"><ele>581.6666666666666</ele><time>2026-04-30T15:51:12.999Z</time></trkpt><trkpt lat="39.76249123988273" lon="9.254318318221708"><ele>579.0</ele><time>2026-04-30T15:51:13.999Z</time></trkpt><trkpt lat="39.76236875165509" lon="9.25412146514598"><ele>579.0</ele><time>2026-04-30T15:51:14.999Z</time></trkpt><trkpt lat="39.76224421490624" lon="9.2539644814353"><ele>579.0</ele><time>2026-04-30T15:51:15.999Z</time></trkpt><trkpt lat="39.76210604746261" lon="9.253846504397776"><ele>579.0</ele><time>2026-04-30T15:51:16.999Z</time></trkpt><trkpt lat="39.76195372143837" lon="9.253772165053125"><ele>576.0</ele><time>2026-04-30T15:51:17.999Z</time></trkpt><trkpt lat="39.76179322957787" lon="9.253760616608265"><ele>573.0</ele><time>2026-04-30T15:51:18.999Z</time></trkpt><trkpt lat="39.76162855094648" lon="9.25380379436248"><ele>570.0</ele><time>2026-04-30T15:51:19.999Z</time></trkpt><trkpt lat="39.76145580637344" lon="9.253911276989319"><ele>570.0</ele><time>2026-04-30T15:51:20.999Z</time></trkpt><trkpt lat="39.761286250091274" lon="9.254008225448981"><ele>570.0</ele><time>2026-04-30T15:51:21.999Z</time></trkpt><trkpt lat="39.76113110600447" lon="9.254138136405915"><ele>570.0</ele><time>2026-04-30T15:51:22.999Z</time></trkpt><trkpt lat="39.76097466264374" lon="9.25429715803996"><ele>570.0</ele><time>2026-04-30T15:51:23.999Z</time></trkpt><trkpt lat="39.760827525406704" lon="9.254486792075868"><ele>570.0</ele><time>2026-04-30T15:51:24.999Z</time></trkpt><trkpt lat="39.7606894473873" lon="9.254691940761454"><ele>570.0</ele><time>2026-04-30T15:51:25.999Z</time></trkpt><trkpt lat="39.76055304515432" lon="9.254914463347475"><ele>573.3333333333334</ele><time>2026-04-30T15:51:26.999Z</time></trkpt><trkpt lat="39.76043072513399" lon="9.255144842264176"><ele>576.6666666666667</ele><time>2026-04-30T15:51:27.999Z</time></trkpt><trkpt lat="39.760319524444064" lon="9.255348557325537"><ele>580.0</ele><time>2026-04-30T15:51:28.999Z</time></trkpt><trkpt lat="39.76022357037123" lon="9.255519235159081"><ele>579.25</ele><time>2026-04-30T15:51:29.999Z</time></trkpt><trkpt lat="39.76013506645808" lon="9.255657281574235"><ele>578.5</ele><time>2026-04-30T15:51:30.999Z</time></trkpt><trkpt lat="39.76004397417935" lon="9.255727837783995"><ele>577.75</ele><time>2026-04-30T15:51:31.999Z</time></trkpt><trkpt lat="39.75996285120355" lon="9.255743474839441"><ele>577.0</ele><time>2026-04-30T15:51:32.999Z</time></trkpt><trkpt lat="39.759893355450004" lon="9.255578291927575"><ele>572.0</ele><time>2026-04-30T15:51:34.999Z</time></trkpt><trkpt lat="39.75982595794183" lon="9.255341762586587"><ele>567.0</ele><time>2026-04-30T15:51:35.999Z</time></trkpt><trkpt lat="39.75973594269466" lon="9.2551583452113"><ele>562.0</ele><time>2026-04-30T15:51:36.999Z</time></trkpt><trkpt lat="39.75964490170123" lon="9.254981060543788"><ele>562.0</ele><time>2026-04-30T15:51:37.999Z</time></trkpt><trkpt lat="39.75956205869388" lon="9.254792642180949"><ele>562.0</ele><time>2026-04-30T15:51:38.999Z</time></trkpt><trkpt lat="39.75946773336762" lon="9.254643440017636"><ele>562.0</ele><time>2026-04-30T15:51:39.999Z</time></trkpt><trkpt lat="39.75933256404634" lon="9.25452925496463"><ele>558.6666666666667</ele><time>2026-04-30T15:51:40.999Z</time></trkpt><trkpt lat="39.75916935984093" lon="9.25451699414229"><ele>555.3333333333334</ele><time>2026-04-30T15:51:41.999Z</time></trkpt><trkpt lat="39.75898565420522" lon="9.254508580628235"><ele>552.0</ele><time>2026-04-30T15:51:42.999Z</time></trkpt><trkpt lat="39.758809528770065" lon="9.254515386051521"><ele>552.0</ele><time>2026-04-30T15:51:43.999Z</time></trkpt><trkpt lat="39.75864005872081" lon="9.25456067250924"><ele>552.0</ele><time>2026-04-30T15:51:44.999Z</time></trkpt><trkpt lat="39.75845264702019" lon="9.254621265051968"><ele>552.0</ele><time>2026-04-30T15:51:45.999Z</time></trkpt><trkpt lat="39.758247678480686" lon="9.254717815328931"><ele>550.3333333333334</ele><time>2026-04-30T15:51:46.999Z</time></trkpt><trkpt lat="39.75804506583741" lon="9.254837800964367"><ele>548.6666666666667</ele><time>2026-04-30T15:51:47.999Z</time></trkpt><trkpt lat="39.75785861647409" lon="9.254983000630242"><ele>547.0</ele><time>2026-04-30T15:51:48.999Z</time></trkpt><trkpt lat="39.757701446855684" lon="9.255166739416364"><ele>547.0</ele><time>2026-04-30T15:51:49.999Z</time></trkpt><trkpt lat="39.75757086874302" lon="9.255348656632577"><ele>547.0</ele><time>2026-04-30T15:51:50.999Z</time></trkpt><trkpt lat="39.75746395185892" lon="9.255506706674067"><ele>547.0</ele><time>2026-04-30T15:51:51.999Z</time></trkpt><trkpt lat="39.75737899685447" lon="9.255627931539415"><ele>547.0</ele><time>2026-04-30T15:51:52.999Z</time></trkpt><trkpt lat="39.75731701349162" lon="9.255673766685558"><ele>547.0</ele><time>2026-04-30T15:51:53.999Z</time></trkpt><trkpt lat="39.75725177489011" lon="9.25564311861919"><ele>547.0</ele><time>2026-04-30T15:51:54.999Z</time></trkpt><trkpt lat="39.75721229980981" lon="9.255560234111448"><ele>547.0</ele><time>2026-04-30T15:51:55.999Z</time></trkpt><trkpt lat="39.75721416126724" lon="9.25541893512914"><ele>547.0</ele><time>2026-04-30T15:51:56.999Z</time></trkpt><trkpt lat="39.757245036112295" lon="9.255164698278021"><ele>547.0</ele><time>2026-04-30T15:51:57.999Z</time></trkpt><trkpt lat="39.75723155182732" lon="9.254959565565965"><ele>547.0</ele><time>2026-04-30T15:51:58.999Z</time></trkpt><trkpt lat="39.75719783030386" lon="9.25474401435373"><ele>547.0</ele><time>2026-04-30T15:51:59.999Z</time></trkpt><trkpt lat="39.757114533435875" lon="9.254508295168122"><ele>543.6666666666667</ele><time>2026-04-30T15:52:00.999Z</time></trkpt><trkpt lat="39.75703694490552" lon="9.254260165306968"><ele>540.3333333333334</ele><time>2026-04-30T15:52:01.999Z</time></trkpt><trkpt lat="39.75700791700612" lon="9.254019268097176"><ele>537.0</ele><time>2026-04-30T15:52:02.999Z</time></trkpt><trkpt lat="39.75696841051065" lon="9.253815366493555"><ele>535.25</ele><time>2026-04-30T15:52:03.999Z</time></trkpt><trkpt lat="39.756910476269674" lon="9.253671973702682"><ele>533.5</ele><time>2026-04-30T15:52:04.999Z</time></trkpt><trkpt lat="39.756841369950145" lon="9.253558956341442"><ele>531.75</ele><time>2026-04-30T15:52:05.999Z</time></trkpt><trkpt lat="39.75672585369041" lon="9.253517004660898"><ele>530.0</ele><time>2026-04-30T15:52:06.999Z</time></trkpt><trkpt lat="39.75655774168647" lon="9.253553869641335"><ele>530.0</ele><time>2026-04-30T15:52:07.999Z</time></trkpt><trkpt lat="39.756365115843096" lon="9.253597047161822"><ele>530.0</ele><time>2026-04-30T15:52:09Z</time></trkpt><trkpt lat="39.75617187563936" lon="9.253716301130902"><ele>530.0</ele><time>2026-04-30T15:52:10Z</time></trkpt><trkpt lat="39.75599827989809" lon="9.253839768893279"><ele>529.6666666666666</ele><time>2026-04-30T15:52:11Z</time></trkpt><trkpt lat="39.75585488480267" lon="9.25400222858689"><ele>529.3333333333334</ele><time>2026-04-30T15:52:12Z</time></trkpt><trkpt lat="39.755736722844546" lon="9.254171153758936"><ele>529.0</ele><time>2026-04-30T15:52:13Z</time></trkpt><trkpt lat="39.75565120003319" lon="9.254327495473865"><ele>529.0</ele><time>2026-04-30T15:52:14Z</time></trkpt><trkpt lat="39.75560906348782" lon="9.25446838339716"><ele>529.0</ele><time>2026-04-30T15:52:15Z</time></trkpt><trkpt lat="39.7556083366995" lon="9.254625653855848"><ele>529.0</ele><time>2026-04-30T15:52:16Z</time></trkpt><trkpt lat="39.75565440691898" lon="9.254805505388665"><ele>529.0</ele><time>2026-04-30T15:52:17Z</time></trkpt><trkpt lat="39.75568620693149" lon="9.255019433128059"><ele>531.3333333333334</ele><time>2026-04-30T15:52:18Z</time></trkpt><trkpt lat="39.755673258729466" lon="9.255262869087236"><ele>533.6666666666666</ele><time>2026-04-30T15:52:19Z</time></trkpt><trkpt lat="39.755646568294935" lon="9.255514862461434"><ele>536.0</ele><time>2026-04-30T15:52:20Z</time></trkpt><trkpt lat="39.75556176866109" lon="9.255755007098228"><ele>538.0</ele><time>2026-04-30T15:52:21Z</time></trkpt><trkpt lat="39.75548725365706" lon="9.25597201731721"><ele>540.0</ele><time>2026-04-30T15:52:22Z</time></trkpt><trkpt lat="39.755411918803475" lon="9.256156767338418"><ele>542.0</ele><time>2026-04-30T15:52:23Z</time></trkpt><trkpt lat="39.755346940746534" lon="9.256270824013168"><ele>542.0</ele><time>2026-04-30T15:52:24Z</time></trkpt><trkpt lat="39.7552838718822" lon="9.256312058154123"><ele>542.0</ele><time>2026-04-30T15:52:25Z</time></trkpt><trkpt lat="39.75519381585272" lon="9.256287981861341"><ele>542.0</ele><time>2026-04-30T15:52:26Z</time></trkpt><trkpt lat="39.755125974447914" lon="9.256198953550928"><ele>542.0</ele><time>2026-04-30T15:52:27Z</time></trkpt><trkpt lat="39.75510814310426" lon="9.256004718534887"><ele>542.0</ele><time>2026-04-30T15:52:28Z</time></trkpt><trkpt lat="39.75505250274955" lon="9.255779382608065"><ele>534.0</ele><time>2026-04-30T15:52:29Z</time></trkpt><trkpt lat="39.75496438923363" lon="9.255590750016932"><ele>526.0</ele><time>2026-04-30T15:52:30Z</time></trkpt><trkpt lat="39.754830027073716" lon="9.255380162578568"><ele>518.0</ele><time>2026-04-30T15:52:31Z</time></trkpt><trkpt lat="39.7547028792006" lon="9.25516604005111"><ele>518.0</ele><time>2026-04-30T15:52:32Z</time></trkpt><trkpt lat="39.75459434102214" lon="9.25492589402367"><ele>518.0</ele><time>2026-04-30T15:52:33Z</time></trkpt><trkpt lat="39.754470491132764" lon="9.254722592195458"><ele>518.0</ele><time>2026-04-30T15:52:34Z</time></trkpt><trkpt lat="39.754344737093916" lon="9.254544930123858"><ele>515.0</ele><time>2026-04-30T15:52:35Z</time></trkpt><trkpt lat="39.75418774048045" lon="9.254404927856566"><ele>512.0</ele><time>2026-04-30T15:52:36Z</time></trkpt><trkpt lat="39.75401687708012" lon="9.254311999205429"><ele>509.0</ele><time>2026-04-30T15:52:37Z</time></trkpt><trkpt lat="39.75383423846523" lon="9.254266278286561"><ele>509.0</ele><time>2026-04-30T15:52:38Z</time></trkpt><trkpt lat="39.75364949280068" lon="9.254261881890251"><ele>509.0</ele><time>2026-04-30T15:52:39Z</time></trkpt><trkpt lat="39.753489228792304" lon="9.254247138889026"><ele>509.0</ele><time>2026-04-30T15:52:40Z</time></trkpt><trkpt lat="39.75340119855414" lon="9.25423016200307"><ele>509.0</ele><time>2026-04-30T15:52:41Z</time></trkpt><trkpt lat="39.75336124571537" lon="9.254156001368258"><ele>509.0</ele><time>2026-04-30T15:52:42Z</time></trkpt><trkpt lat="39.753389930368336" lon="9.254059919000385"><ele>509.0</ele><time>2026-04-30T15:52:43Z</time></trkpt><trkpt lat="39.75345403119454" lon="9.253983353998851"><ele>509.0</ele><time>2026-04-30T15:52:44Z</time></trkpt><trkpt lat="39.753514094555655" lon="9.25395003427832"><ele>509.0</ele><time>2026-04-30T15:52:45Z</time></trkpt><trkpt lat="39.753601850343635" lon="9.254029521531"><ele>509.0</ele><time>2026-04-30T15:52:46Z</time></trkpt><trkpt lat="39.75371082096509" lon="9.254120538895606"><ele>509.0</ele><time>2026-04-30T15:52:47Z</time></trkpt><trkpt lat="39.75386120717185" lon="9.254170856489644"><ele>509.0</ele><time>2026-04-30T15:52:47.999Z</time></trkpt><trkpt lat="39.75403561736384" lon="9.254178723552494"><ele>509.0</ele><time>2026-04-30T15:52:48.999Z</time></trkpt><trkpt lat="39.75419606987625" lon="9.254203145849617"><ele>509.0</ele><time>2026-04-30T15:52:49.999Z</time></trkpt><trkpt lat="39.75434230873688" lon="9.25426514762615"><ele>509.0</ele><time>2026-04-30T15:52:50.999Z</time></trkpt><trkpt lat="39.75449521289992" lon="9.254358514634415"><ele>509.0</ele><time>2026-04-30T15:52:51.999Z</time></trkpt><trkpt lat="39.7546326291419" lon="9.25449944723747"><ele>508.0</ele><time>2026-04-30T15:52:52.999Z</time></trkpt><trkpt lat="39.75474193547279" lon="9.254662207311288"><ele>507.0</ele><time>2026-04-30T15:52:53.999Z</time></trkpt><trkpt lat="39.754812400144324" lon="9.254768307723738"><ele>506.0</ele><time>2026-04-30T15:52:54.999Z</time></trkpt><trkpt lat="39.75487144095947" lon="9.254821320193729"><ele>505.0</ele><time>2026-04-30T15:52:55.999Z</time></trkpt><trkpt lat="39.75498011151564" lon="9.254855811590325"><ele>505.0</ele><time>2026-04-30T15:52:56.999Z</time></trkpt><trkpt lat="39.75512951569343" lon="9.254686472921202"><ele>505.0</ele><time>2026-04-30T15:52:57.999Z</time></trkpt><trkpt lat="39.7551160052506" lon="9.254414729749591"><ele>505.0</ele><time>2026-04-30T15:52:58.999Z</time></trkpt><trkpt lat="39.75515616218878" lon="9.254213337371683"><ele>505.0</ele><time>2026-04-30T15:52:59.999Z</time></trkpt><trkpt lat="39.75519516119966" lon="9.253968501888641"><ele>505.0</ele><time>2026-04-30T15:53:00.999Z</time></trkpt><trkpt lat="39.755241795970335" lon="9.253710252323135"><ele>505.0</ele><time>2026-04-30T15:53:01.999Z</time></trkpt><trkpt lat="39.7552915456638" lon="9.253451107458984"><ele>502.6666666666667</ele><time>2026-04-30T15:53:02.999Z</time></trkpt><trkpt lat="39.75535833797352" lon="9.253182697048072"><ele>500.33333333333337</ele><time>2026-04-30T15:53:03.999Z</time></trkpt><trkpt lat="39.755463280515414" lon="9.25291664747876"><ele>498.0</ele><time>2026-04-30T15:53:04.999Z</time></trkpt><trkpt lat="39.755568329989046" lon="9.252640700074613"><ele>498.0</ele><time>2026-04-30T15:53:05.999Z</time></trkpt><trkpt lat="39.75567704016907" lon="9.252382875299084"><ele>498.0</ele><time>2026-04-30T15:53:06.999Z</time></trkpt><trkpt lat="39.75580077104568" lon="9.252144577059694"><ele>498.0</ele><time>2026-04-30T15:53:07.999Z</time></trkpt><trkpt lat="39.7559380838302" lon="9.251930771287569"><ele>496.0</ele><time>2026-04-30T15:53:08.999Z</time></trkpt><trkpt lat="39.756085313618435" lon="9.251726345825642"><ele>494.0</ele><time>2026-04-30T15:53:09.999Z</time></trkpt><trkpt lat="39.75623202186178" lon="9.251564886724754"><ele>492.0</ele><time>2026-04-30T15:53:10.999Z</time></trkpt><trkpt lat="39.75639293427654" lon="9.251425330136692"><ele>488.33333333333337</ele><time>2026-04-30T15:53:11.999Z</time></trkpt><trkpt lat="39.7565589651919" lon="9.25131103038997"><ele>484.6666666666667</ele><time>2026-04-30T15:53:12.999Z</time></trkpt><trkpt lat="39.756739368998915" lon="9.251212821729272"><ele>481.0</ele><time>2026-04-30T15:53:13.999Z</time></trkpt><trkpt lat="39.75691193164983" lon="9.251130655025879"><ele>481.0</ele><time>2026-04-30T15:53:14.999Z</time></trkpt><trkpt lat="39.75708777244506" lon="9.25104644418626"><ele>481.0</ele><time>2026-04-30T15:53:15.999Z</time></trkpt><trkpt lat="39.75723241631858" lon="9.250901262807716"><ele>481.0</ele><time>2026-04-30T15:53:16.999Z</time></trkpt><trkpt lat="39.7573400847792" lon="9.250739860524885"><ele>479.75</ele><time>2026-04-30T15:53:17.999Z</time></trkpt><trkpt lat="39.7574318848351" lon="9.250569864023463"><ele>478.5</ele><time>2026-04-30T15:53:18.999Z</time></trkpt><trkpt lat="39.75753603783603" lon="9.250437351139102"><ele>477.25</ele><time>2026-04-30T15:53:19.999Z</time></trkpt><trkpt lat="39.757614813621984" lon="9.25029030804495"><ele>476.0</ele><time>2026-04-30T15:53:20.999Z</time></trkpt><trkpt lat="39.75766961225021" lon="9.25010090227508"><ele>476.0</ele><time>2026-04-30T15:53:21.999Z</time></trkpt><trkpt lat="39.75768484515991" lon="9.24990561656511"><ele>476.0</ele><time>2026-04-30T15:53:22.999Z</time></trkpt><trkpt lat="39.75768869921484" lon="9.249684343700107"><ele>476.0</ele><time>2026-04-30T15:53:23.999Z</time></trkpt><trkpt lat="39.757669196673696" lon="9.249447175719663"><ele>474.5</ele><time>2026-04-30T15:53:24.999Z</time></trkpt><trkpt lat="39.75767372189232" lon="9.249261151476688"><ele>473.0</ele><time>2026-04-30T15:53:25.999Z</time></trkpt><trkpt lat="39.75765364338285" lon="9.249091704982566"><ele>471.5</ele><time>2026-04-30T15:53:26.999Z</time></trkpt><trkpt lat="39.75760991554395" lon="9.248962077935413"><ele>470.0</ele><time>2026-04-30T15:53:27.999Z</time></trkpt><trkpt lat="39.7575322881125" lon="9.248866789240019"><ele>470.0</ele><time>2026-04-30T15:53:28.999Z</time></trkpt><trkpt lat="39.757423423305084" lon="9.24881944624892"><ele>470.0</ele><time>2026-04-30T15:53:29.999Z</time></trkpt><trkpt lat="39.75729285655662" lon="9.248822703114987"><ele>470.0</ele><time>2026-04-30T15:53:30.999Z</time></trkpt><trkpt lat="39.757146861846024" lon="9.248878262358055"><ele>470.0</ele><time>2026-04-30T15:53:31.999Z</time></trkpt><trkpt lat="39.756989488642496" lon="9.248988550870497"><ele>467.0</ele><time>2026-04-30T15:53:32.999Z</time></trkpt><trkpt lat="39.756834758513264" lon="9.249128895679377"><ele>464.0</ele><time>2026-04-30T15:53:33.999Z</time></trkpt><trkpt lat="39.75666488742291" lon="9.249240457876008"><ele>461.0</ele><time>2026-04-30T15:53:34.999Z</time></trkpt><trkpt lat="39.756461937608734" lon="9.24927582435557"><ele>461.0</ele><time>2026-04-30T15:53:35.999Z</time></trkpt><trkpt lat="39.75624287966899" lon="9.249322415806208"><ele>461.0</ele><time>2026-04-30T15:53:36.999Z</time></trkpt><trkpt lat="39.756008581323265" lon="9.249372882429745"><ele>458.66666666666663</ele><time>2026-04-30T15:53:37.999Z</time></trkpt><trkpt lat="39.75578160354881" lon="9.249423089869481"><ele>456.33333333333337</ele><time>2026-04-30T15:53:38.999Z</time></trkpt><trkpt lat="39.755578994659196" lon="9.249489206902958"><ele>454.0</ele><time>2026-04-30T15:53:39.999Z</time></trkpt><trkpt lat="39.75540136204081" lon="9.249520439897042"><ele>454.0</ele><time>2026-04-30T15:53:40.999Z</time></trkpt><trkpt lat="39.75525204910882" lon="9.249521820179488"><ele>454.0</ele><time>2026-04-30T15:53:41.999Z</time></trkpt><trkpt lat="39.755130167356356" lon="9.24945350152076"><ele>454.0</ele><time>2026-04-30T15:53:42.999Z</time></trkpt><trkpt lat="39.75504586764261" lon="9.249358803404725"><ele>454.0</ele><time>2026-04-30T15:53:43.999Z</time></trkpt><trkpt lat="39.75498118494166" lon="9.24923419181117"><ele>453.0</ele><time>2026-04-30T15:53:44.999Z</time></trkpt><trkpt lat="39.754923927002466" lon="9.249066172598418"><ele>452.0</ele><time>2026-04-30T15:53:45.999Z</time></trkpt><trkpt lat="39.75484878369216" lon="9.248859625721446"><ele>451.0</ele><time>2026-04-30T15:53:46.999Z</time></trkpt><trkpt lat="39.75477589718992" lon="9.248646808705335"><ele>448.33333333333337</ele><time>2026-04-30T15:53:47.999Z</time></trkpt><trkpt lat="39.754698369468265" lon="9.248455207890869"><ele>445.66666666666663</ele><time>2026-04-30T15:53:48.999Z</time></trkpt><trkpt lat="39.75459646539882" lon="9.248306999406973"><ele>443.0</ele><time>2026-04-30T15:53:49.999Z</time></trkpt><trkpt lat="39.754450911647105" lon="9.248186552843425"><ele>439.0</ele><time>2026-04-30T15:53:50.999Z</time></trkpt><trkpt lat="39.75427425741482" lon="9.248114551161068"><ele>435.0</ele><time>2026-04-30T15:53:51.999Z</time></trkpt><trkpt lat="39.75409238853819" lon="9.248063135472034"><ele>431.0</ele><time>2026-04-30T15:53:52.999Z</time></trkpt><trkpt lat="39.753888031909014" lon="9.248030809741554"><ele>431.0</ele><time>2026-04-30T15:53:53.999Z</time></trkpt><trkpt lat="39.7536794042062" lon="9.248030798246896"><ele>431.0</ele><time>2026-04-30T15:53:54.999Z</time></trkpt><trkpt lat="39.753472095264435" lon="9.248032810219724"><ele>431.0</ele><time>2026-04-30T15:53:55.999Z</time></trkpt><trkpt lat="39.75327335374057" lon="9.248040834920452"><ele>429.66666666666663</ele><time>2026-04-30T15:53:56.999Z</time></trkpt><trkpt lat="39.75308865168325" lon="9.248053505421105"><ele>428.33333333333337</ele><time>2026-04-30T15:53:57.999Z</time></trkpt><trkpt lat="39.752907651718544" lon="9.248071813266208"><ele>427.0</ele><time>2026-04-30T15:53:58.999Z</time></trkpt><trkpt lat="39.752730114440496" lon="9.248111352873119"><ele>428.6666666666667</ele><time>2026-04-30T15:53:59.999Z</time></trkpt><trkpt lat="39.752560451808066" lon="9.248172124217128"><ele>430.33333333333337</ele><time>2026-04-30T15:54:00.999Z</time></trkpt><trkpt lat="39.75240034825854" lon="9.24823441563643"><ele>432.0</ele><time>2026-04-30T15:54:01.999Z</time></trkpt><trkpt lat="39.75224183236045" lon="9.248304123581674"><ele>432.0</ele><time>2026-04-30T15:54:02.999Z</time></trkpt><trkpt lat="39.75208158450853" lon="9.248373720036302"><ele>432.0</ele><time>2026-04-30T15:54:03.999Z</time></trkpt><trkpt lat="39.75192677604002" lon="9.24844712264738"><ele>432.0</ele><time>2026-04-30T15:54:04.999Z</time></trkpt><trkpt lat="39.75177726706282" lon="9.24851589702529"><ele>428.75</ele><time>2026-04-30T15:54:05.999Z</time></trkpt><trkpt lat="39.751640783764515" lon="9.248604847252965"><ele>425.5</ele><time>2026-04-30T15:54:06.999Z</time></trkpt><trkpt lat="39.75152908436388" lon="9.248700089717405"><ele>422.25</ele><time>2026-04-30T15:54:07.999Z</time></trkpt><trkpt lat="39.75144197304774" lon="9.248800975017291"><ele>419.0</ele><time>2026-04-30T15:54:08.999Z</time></trkpt><trkpt lat="39.7513753725654" lon="9.248899786965358"><ele>418.99999999999994</ele><time>2026-04-30T15:54:09.999Z</time></trkpt><trkpt lat="39.75131975013223" lon="9.248995018094085"><ele>419.0</ele><time>2026-04-30T15:54:10.999Z</time></trkpt><trkpt lat="39.75126898747071" lon="9.24906401525463"><ele>419.0</ele><time>2026-04-30T15:54:11.999Z</time></trkpt><trkpt lat="39.75120161364954" lon="9.249079801804431"><ele>419.0</ele><time>2026-04-30T15:54:12.999Z</time></trkpt><trkpt lat="39.75114440328628" lon="9.249029627584338"><ele>418.99999999999994</ele><time>2026-04-30T15:54:13.999Z</time></trkpt><trkpt lat="39.7511305575917" lon="9.248937590413801"><ele>419.0</ele><time>2026-04-30T15:54:15Z</time></trkpt><trkpt lat="39.75116615048259" lon="9.248813817917737"><ele>419.0</ele><time>2026-04-30T15:54:16Z</time></trkpt><trkpt lat="39.751252429200974" lon="9.248718082139346"><ele>419.0</ele><time>2026-04-30T15:54:17Z</time></trkpt><trkpt lat="39.75132888104571" lon="9.248584846268775"><ele>419.0</ele><time>2026-04-30T15:54:18Z</time></trkpt><trkpt lat="39.7513937352172" lon="9.248408745365063"><ele>419.0</ele><time>2026-04-30T15:54:19Z</time></trkpt><trkpt lat="39.751436387854454" lon="9.248215525946286"><ele>414.66666666666663</ele><time>2026-04-30T15:54:20Z</time></trkpt><trkpt lat="39.75151258720547" lon="9.24801787168016"><ele>410.33333333333337</ele><time>2026-04-30T15:54:21Z</time></trkpt><trkpt lat="39.7516025308241" lon="9.247818247913436"><ele>406.0</ele><time>2026-04-30T15:54:22Z</time></trkpt><trkpt lat="39.75171827096138" lon="9.247628394367283"><ele>406.0</ele><time>2026-04-30T15:54:23Z</time></trkpt><trkpt lat="39.751850379853956" lon="9.247433242587366"><ele>406.0</ele><time>2026-04-30T15:54:24Z</time></trkpt><trkpt lat="39.75197498680425" lon="9.247252685074404"><ele>406.0</ele><time>2026-04-30T15:54:25Z</time></trkpt><trkpt lat="39.752082033259704" lon="9.247084840443813"><ele>406.6666666666667</ele><time>2026-04-30T15:54:26Z</time></trkpt><trkpt lat="39.75215055854951" lon="9.246901730704563"><ele>407.33333333333337</ele><time>2026-04-30T15:54:27Z</time></trkpt><trkpt lat="39.75220668427333" lon="9.246710082999662"><ele>408.0</ele><time>2026-04-30T15:54:28Z</time></trkpt><trkpt lat="39.752208903974" lon="9.24649726187011"><ele>407.0</ele><time>2026-04-30T15:54:29Z</time></trkpt><trkpt lat="39.75215555282825" lon="9.246266139508727"><ele>406.0</ele><time>2026-04-30T15:54:30Z</time></trkpt><trkpt lat="39.75207550003771" lon="9.246042136748999"><ele>405.0</ele><time>2026-04-30T15:54:31Z</time></trkpt><trkpt lat="39.75197310680199" lon="9.245838743936083"><ele>401.33333333333337</ele><time>2026-04-30T15:54:32Z</time></trkpt><trkpt lat="39.75184620304342" lon="9.245640609169808"><ele>397.6666666666667</ele><time>2026-04-30T15:54:33Z</time></trkpt><trkpt lat="39.751717585735335" lon="9.245445408150028"><ele>394.0</ele><time>2026-04-30T15:54:34Z</time></trkpt><trkpt lat="39.75161295740857" lon="9.245277114172213"><ele>393.5</ele><time>2026-04-30T15:54:35Z</time></trkpt><trkpt lat="39.75154266919616" lon="9.245131601592975"><ele>393.0</ele><time>2026-04-30T15:54:36Z</time></trkpt><trkpt lat="39.75152924973158" lon="9.244987520360388"><ele>392.5</ele><time>2026-04-30T15:54:37Z</time></trkpt><trkpt lat="39.75154976233961" lon="9.24484940720012"><ele>392.0</ele><time>2026-04-30T15:54:38Z</time></trkpt><trkpt lat="39.751601516655214" lon="9.244722569147575"><ele>391.25</ele><time>2026-04-30T15:54:39Z</time></trkpt><trkpt lat="39.75170420707551" lon="9.244657196526811"><ele>390.5</ele><time>2026-04-30T15:54:40Z</time></trkpt><trkpt lat="39.75184408042408" lon="9.244607278332099"><ele>389.75</ele><time>2026-04-30T15:54:41Z</time></trkpt><trkpt lat="39.75200085286346" lon="9.244519393173174"><ele>389.0</ele><time>2026-04-30T15:54:42Z</time></trkpt><trkpt lat="39.75217965117173" lon="9.244423970947352"><ele>389.0</ele><time>2026-04-30T15:54:43Z</time></trkpt><trkpt lat="39.75236834308518" lon="9.244302163572927"><ele>389.0</ele><time>2026-04-30T15:54:44Z</time></trkpt><trkpt lat="39.752558252413074" lon="9.244156458303367"><ele>389.0</ele><time>2026-04-30T15:54:45Z</time></trkpt><trkpt lat="39.752762005688425" lon="9.244018100380357"><ele>382.0</ele><time>2026-04-30T15:54:46Z</time></trkpt><trkpt lat="39.752978557152964" lon="9.2438855803343"><ele>375.0</ele><time>2026-04-30T15:54:47Z</time></trkpt><trkpt lat="39.753204068015435" lon="9.24374757765012"><ele>375.0</ele><time>2026-04-30T15:54:48Z</time></trkpt><trkpt lat="39.75342118682776" lon="9.243616054035346"><ele>375.0</ele><time>2026-04-30T15:54:49Z</time></trkpt><trkpt lat="39.75361771203381" lon="9.243511147178717"><ele>376.0</ele><time>2026-04-30T15:54:50Z</time></trkpt><trkpt lat="39.75379363626503" lon="9.243447162549458"><ele>377.0</ele><time>2026-04-30T15:54:51Z</time></trkpt><trkpt lat="39.75393371120238" lon="9.243418835117671"><ele>378.0</ele><time>2026-04-30T15:54:52Z</time></trkpt><trkpt lat="39.75404093197611" lon="9.243424627825064"><ele>379.0</ele><time>2026-04-30T15:54:53Z</time></trkpt><trkpt lat="39.754142833945345" lon="9.243478438133193"><ele>379.0</ele><time>2026-04-30T15:54:53.999Z</time></trkpt><trkpt lat="39.75424994424042" lon="9.243628930911457"><ele>379.0</ele><time>2026-04-30T15:54:54.999Z</time></trkpt><trkpt lat="39.75433704867346" lon="9.243832387091857"><ele>379.0</ele><time>2026-04-30T15:54:55.999Z</time></trkpt><trkpt lat="39.75444045806352" lon="9.2439608670454"><ele>382.0</ele><time>2026-04-30T15:54:56.999Z</time></trkpt><trkpt lat="39.7545825816227" lon="9.244002360506638"><ele>385.0</ele><time>2026-04-30T15:54:57.999Z</time></trkpt><trkpt lat="39.75475991101127" lon="9.243978314657436"><ele>388.0</ele><time>2026-04-30T15:54:58.999Z</time></trkpt><trkpt lat="39.75493087626318" lon="9.24393251722347"><ele>384.5</ele><time>2026-04-30T15:54:59.999Z</time></trkpt><trkpt lat="39.75506160111744" lon="9.243908820049993"><ele>381.0</ele><time>2026-04-30T15:55:00.999Z</time></trkpt><trkpt lat="39.75518195320735" lon="9.243920120877295"><ele>377.5</ele><time>2026-04-30T15:55:01.999Z</time></trkpt><trkpt lat="39.75528928669891" lon="9.244031015848604"><ele>374.0</ele><time>2026-04-30T15:55:02.999Z</time></trkpt><trkpt lat="39.75536238116498" lon="9.244228578002748"><ele>374.0</ele><time>2026-04-30T15:55:03.999Z</time></trkpt><trkpt lat="39.75543161038657" lon="9.244463911653035"><ele>374.0</ele><time>2026-04-30T15:55:04.999Z</time></trkpt><trkpt lat="39.75547705092751" lon="9.24464881971921"><ele>374.0</ele><time>2026-04-30T15:55:05.999Z</time></trkpt><trkpt lat="39.75554101962782" lon="9.244770215838159"><ele>374.0</ele><time>2026-04-30T15:55:06.999Z</time></trkpt><trkpt lat="39.755655146162276" lon="9.244826286841477"><ele>374.0</ele><time>2026-04-30T15:55:07.999Z</time></trkpt><trkpt lat="39.7558036211517" lon="9.244812568577153"><ele>374.0</ele><time>2026-04-30T15:55:08.999Z</time></trkpt><trkpt lat="39.75593392506063" lon="9.244705704409721"><ele>374.0</ele><time>2026-04-30T15:55:09.999Z</time></trkpt><trkpt lat="39.75602123020927" lon="9.244517372399239"><ele>380.6666666666667</ele><time>2026-04-30T15:55:10.999Z</time></trkpt><trkpt lat="39.756100706921906" lon="9.244325177595128"><ele>387.33333333333337</ele><time>2026-04-30T15:55:11.999Z</time></trkpt><trkpt lat="39.75622115086132" lon="9.244193327300065"><ele>394.0</ele><time>2026-04-30T15:55:12.999Z</time></trkpt><trkpt lat="39.75637194550612" lon="9.244072618132183"><ele>383.0</ele><time>2026-04-30T15:55:13.999Z</time></trkpt><trkpt lat="39.75653261380854" lon="9.243867546880862"><ele>372.0</ele><time>2026-04-30T15:55:14.999Z</time></trkpt><trkpt lat="39.75668325574268" lon="9.24368870157522"><ele>361.0</ele><time>2026-04-30T15:55:15.999Z</time></trkpt><trkpt lat="39.75685279105636" lon="9.243555785114504"><ele>371.0</ele><time>2026-04-30T15:55:16.999Z</time></trkpt><trkpt lat="39.75701476145019" lon="9.24342081890647"><ele>381.0</ele><time>2026-04-30T15:55:17.999Z</time></trkpt><trkpt lat="39.75715328800201" lon="9.24328112281073"><ele>391.0</ele><time>2026-04-30T15:55:18.999Z</time></trkpt><trkpt lat="39.75727966430419" lon="9.243170700637254"><ele>384.0</ele><time>2026-04-30T15:55:19.999Z</time></trkpt><trkpt lat="39.7573749597254" lon="9.243061022104445"><ele>377.0</ele><time>2026-04-30T15:55:20.999Z</time></trkpt><trkpt lat="39.75741142086691" lon="9.242881701648175"><ele>370.0</ele><time>2026-04-30T15:55:21.999Z</time></trkpt><trkpt lat="39.75740356692759" lon="9.242652990468647"><ele>363.0</ele><time>2026-04-30T15:55:22.999Z</time></trkpt><trkpt lat="39.75745892136183" lon="9.242447288571595"><ele>359.75</ele><time>2026-04-30T15:55:23.999Z</time></trkpt><trkpt lat="39.7575453433679" lon="9.242266594247127"><ele>356.5</ele><time>2026-04-30T15:55:24.999Z</time></trkpt><trkpt lat="39.75762288192401" lon="9.242137770342016"><ele>353.25</ele><time>2026-04-30T15:55:25.999Z</time></trkpt><trkpt lat="39.757703748418265" lon="9.242068628440382"><ele>350.0</ele><time>2026-04-30T15:55:26.999Z</time></trkpt><trkpt lat="39.75782089171104" lon="9.24206805260445"><ele>350.0</ele><time>2026-04-30T15:55:27.999Z</time></trkpt><trkpt lat="39.757979701723094" lon="9.242077449608498"><ele>350.0</ele><time>2026-04-30T15:55:28.999Z</time></trkpt><trkpt lat="39.75816114682603" lon="9.24203264529638"><ele>350.0</ele><time>2026-04-30T15:55:29.999Z</time></trkpt><trkpt lat="39.75832985295139" lon="9.241872256720484"><ele>350.0</ele><time>2026-04-30T15:55:30.999Z</time></trkpt><trkpt lat="39.758474775401375" lon="9.241703652244729"><ele>350.0</ele><time>2026-04-30T15:55:31.999Z</time></trkpt><trkpt lat="39.758622446522054" lon="9.241647082960013"><ele>350.0</ele><time>2026-04-30T15:55:32.999Z</time></trkpt><trkpt lat="39.75876137575184" lon="9.241655078179843"><ele>353.33333333333337</ele><time>2026-04-30T15:55:33.999Z</time></trkpt><trkpt lat="39.75892589675025" lon="9.241694067039754"><ele>356.6666666666667</ele><time>2026-04-30T15:55:34.999Z</time></trkpt><trkpt lat="39.759095334454486" lon="9.241713786572829"><ele>360.0</ele><time>2026-04-30T15:55:35.999Z</time></trkpt><trkpt lat="39.759238420267316" lon="9.241651200898879"><ele>364.6666666666667</ele><time>2026-04-30T15:55:36.999Z</time></trkpt><trkpt lat="39.75936784431437" lon="9.241528805027563"><ele>369.33333333333337</ele><time>2026-04-30T15:55:37.999Z</time></trkpt><trkpt lat="39.75948537272665" lon="9.241339989330653"><ele>374.0</ele><time>2026-04-30T15:55:38.999Z</time></trkpt><trkpt lat="39.75961449644065" lon="9.241245946579355"><ele>361.6666666666667</ele><time>2026-04-30T15:55:39.999Z</time></trkpt><trkpt lat="39.75974916309135" lon="9.241204650985315"><ele>349.3333333333333</ele><time>2026-04-30T15:55:40.999Z</time></trkpt><trkpt lat="39.759909259053494" lon="9.241226986585245"><ele>337.0</ele><time>2026-04-30T15:55:41.999Z</time></trkpt><trkpt lat="39.760076532803154" lon="9.241215979104926"><ele>337.0</ele><time>2026-04-30T15:55:42.999Z</time></trkpt><trkpt lat="39.7601935786394" lon="9.241142473682322"><ele>337.0</ele><time>2026-04-30T15:55:43.999Z</time></trkpt><trkpt lat="39.76028202824754" lon="9.24099628872558"><ele>337.0</ele><time>2026-04-30T15:55:44.999Z</time></trkpt><trkpt lat="39.76034758111914" lon="9.240808181467859"><ele>337.0</ele><time>2026-04-30T15:55:45.999Z</time></trkpt><trkpt lat="39.760425783022" lon="9.240655112779145"><ele>330.0</ele><time>2026-04-30T15:55:46.999Z</time></trkpt><trkpt lat="39.76054083588248" lon="9.240567210892493"><ele>323.0</ele><time>2026-04-30T15:55:47.999Z</time></trkpt><trkpt lat="39.76067753731717" lon="9.240580317898692"><ele>316.0</ele><time>2026-04-30T15:55:48.999Z</time></trkpt><trkpt lat="39.7608659707473" lon="9.240585077143349"><ele>319.0</ele><time>2026-04-30T15:55:49.999Z</time></trkpt><trkpt lat="39.76110027756614" lon="9.240590247275"><ele>322.0</ele><time>2026-04-30T15:55:50.999Z</time></trkpt><trkpt lat="39.76133275352928" lon="9.240596320859172"><ele>322.0</ele><time>2026-04-30T15:55:51.999Z</time></trkpt><trkpt lat="39.76152923239648" lon="9.240601074777159"><ele>322.0</ele><time>2026-04-30T15:55:52.999Z</time></trkpt><trkpt lat="39.761688000673985" lon="9.24060188818211"><ele>322.0</ele><time>2026-04-30T15:55:53.999Z</time></trkpt><trkpt lat="39.761824003296454" lon="9.24060464271268"><ele>327.0</ele><time>2026-04-30T15:55:54.999Z</time></trkpt><trkpt lat="39.76194917917855" lon="9.240589149011052"><ele>332.0</ele><time>2026-04-30T15:55:55.999Z</time></trkpt><trkpt lat="39.762061398340514" lon="9.240511353243532"><ele>337.0</ele><time>2026-04-30T15:55:56.999Z</time></trkpt><trkpt lat="39.76212325693246" lon="9.240297370510168"><ele>342.0</ele><time>2026-04-30T15:55:57.999Z</time></trkpt><trkpt lat="39.76215675924112" lon="9.24007008640178"><ele>342.0</ele><time>2026-04-30T15:55:58.999Z</time></trkpt><trkpt lat="39.762195628724974" lon="9.239870842876481"><ele>342.0</ele><time>2026-04-30T15:55:59.999Z</time></trkpt><trkpt lat="39.7622302988819" lon="9.239706441939909"><ele>342.0</ele><time>2026-04-30T15:56:00.999Z</time></trkpt><trkpt lat="39.762299814673774" lon="9.239554084444274"><ele>342.0</ele><time>2026-04-30T15:56:01.999Z</time></trkpt><trkpt lat="39.76242957814722" lon="9.239458831907541"><ele>338.0</ele><time>2026-04-30T15:56:02.999Z</time></trkpt><trkpt lat="39.76259383342971" lon="9.239329150986284"><ele>334.0</ele><time>2026-04-30T15:56:03.999Z</time></trkpt><trkpt lat="39.76276058408256" lon="9.23920124650307"><ele>330.0</ele><time>2026-04-30T15:56:04.999Z</time></trkpt><trkpt lat="39.76292510741876" lon="9.239081959462814"><ele>330.0</ele><time>2026-04-30T15:56:05.999Z</time></trkpt><trkpt lat="39.763101231126335" lon="9.238992019421074"><ele>330.0</ele><time>2026-04-30T15:56:06.999Z</time></trkpt><trkpt lat="39.76328847833172" lon="9.238949528339063"><ele>330.0</ele><time>2026-04-30T15:56:07.999Z</time></trkpt><trkpt lat="39.76346581221776" lon="9.23891188245677"><ele>326.6666666666667</ele><time>2026-04-30T15:56:08.999Z</time></trkpt><trkpt lat="39.76361763597813" lon="9.238830780000727"><ele>323.33333333333337</ele><time>2026-04-30T15:56:09.998Z</time></trkpt><trkpt lat="39.76373529333525" lon="9.238656716322271"><ele>320.0</ele><time>2026-04-30T15:56:10.998Z</time></trkpt><trkpt lat="39.763870495699095" lon="9.23846473957999"><ele>320.0</ele><time>2026-04-30T15:56:11.998Z</time></trkpt><trkpt lat="39.764007147913844" lon="9.23826783311955"><ele>320.0</ele><time>2026-04-30T15:56:12.998Z</time></trkpt><trkpt lat="39.764157680584965" lon="9.238107750277425"><ele>320.0</ele><time>2026-04-30T15:56:13.998Z</time></trkpt><trkpt lat="39.764319561629215" lon="9.23798827532674"><ele>313.0</ele><time>2026-04-30T15:56:14.998Z</time></trkpt><trkpt lat="39.764497281112554" lon="9.237908986532998"><ele>306.0</ele><time>2026-04-30T15:56:15.998Z</time></trkpt><trkpt lat="39.764668478181456" lon="9.237873891358268"><ele>299.0</ele><time>2026-04-30T15:56:16.998Z</time></trkpt><trkpt lat="39.76482576912445" lon="9.237892271079737"><ele>299.0</ele><time>2026-04-30T15:56:17.998Z</time></trkpt><trkpt lat="39.76497556283858" lon="9.237948149080912"><ele>299.0</ele><time>2026-04-30T15:56:18.998Z</time></trkpt><trkpt lat="39.76513596869156" lon="9.238025091638006"><ele>299.0</ele><time>2026-04-30T15:56:19.998Z</time></trkpt><trkpt lat="39.765284967527506" lon="9.238079810332826"><ele>301.75</ele><time>2026-04-30T15:56:21Z</time></trkpt><trkpt lat="39.765407993046374" lon="9.238140543378185"><ele>304.5</ele><time>2026-04-30T15:56:22Z</time></trkpt><trkpt lat="39.76551307558222" lon="9.238154244078004"><ele>307.25</ele><time>2026-04-30T15:56:23Z</time></trkpt><trkpt lat="39.765607197944476" lon="9.237993267282219"><ele>310.0</ele><time>2026-04-30T15:56:24Z</time></trkpt><trkpt lat="39.76562328012837" lon="9.237750491088246"><ele>310.0</ele><time>2026-04-30T15:56:25Z</time></trkpt><trkpt lat="39.7656167073417" lon="9.23751407989565"><ele>310.0</ele><time>2026-04-30T15:56:26Z</time></trkpt><trkpt lat="39.76561293710637" lon="9.237285406575047"><ele>310.0</ele><time>2026-04-30T15:56:27Z</time></trkpt><trkpt lat="39.76561096134879" lon="9.237074668717291"><ele>307.4</ele><time>2026-04-30T15:56:28Z</time></trkpt><trkpt lat="39.765621648697106" lon="9.236920327097279"><ele>304.8</ele><time>2026-04-30T15:56:29Z</time></trkpt><trkpt lat="39.76565490340112" lon="9.236796333482044"><ele>302.2</ele><time>2026-04-30T15:56:30Z</time></trkpt><trkpt lat="39.76572012561453" lon="9.236713464945142"><ele>299.6</ele><time>2026-04-30T15:56:31Z</time></trkpt><trkpt lat="39.7657962819244" lon="9.23669101631224"><ele>297.0</ele><time>2026-04-30T15:56:32Z</time></trkpt><trkpt lat="39.76589657000769" lon="9.236720038312075"><ele>297.0</ele><time>2026-04-30T15:56:33Z</time></trkpt><trkpt lat="39.76601088928695" lon="9.236799120183472"><ele>297.0</ele><time>2026-04-30T15:56:34Z</time></trkpt><trkpt lat="39.76614223868513" lon="9.23688363133423"><ele>297.0</ele><time>2026-04-30T15:56:35Z</time></trkpt><trkpt lat="39.76625868735217" lon="9.236958521314289"><ele>297.0</ele><time>2026-04-30T15:56:36Z</time></trkpt><trkpt lat="39.76637527674" lon="9.23700420636654"><ele>296.25</ele><time>2026-04-30T15:56:37Z</time></trkpt><trkpt lat="39.76649471366787" lon="9.236987301277692"><ele>295.5</ele><time>2026-04-30T15:56:38Z</time></trkpt><trkpt lat="39.7666173814391" lon="9.236878979609738"><ele>294.75</ele><time>2026-04-30T15:56:39Z</time></trkpt><trkpt lat="39.76666716400464" lon="9.236661082535564"><ele>294.0</ele><time>2026-04-30T15:56:40Z</time></trkpt><trkpt lat="39.76668086292914" lon="9.236450250175945"><ele>294.0</ele><time>2026-04-30T15:56:41Z</time></trkpt><trkpt lat="39.76669306397703" lon="9.236218550090836"><ele>294.0</ele><time>2026-04-30T15:56:42Z</time></trkpt><trkpt lat="39.76666686544085" lon="9.235997525258702"><ele>294.0</ele><time>2026-04-30T15:56:43Z</time></trkpt><trkpt lat="39.76662901003044" lon="9.23576752430686"><ele>293.0</ele><time>2026-04-30T15:56:44Z</time></trkpt><trkpt lat="39.76655835615353" lon="9.235563086338004"><ele>292.0</ele><time>2026-04-30T15:56:44.999Z</time></trkpt><trkpt lat="39.76645975288715" lon="9.23539625658596"><ele>291.0</ele><time>2026-04-30T15:56:45.999Z</time></trkpt><trkpt lat="39.76636768665474" lon="9.235254749220333"><ele>291.0</ele><time>2026-04-30T15:56:46.999Z</time></trkpt><trkpt lat="39.76629233031877" lon="9.235133268976671"><ele>291.0</ele><time>2026-04-30T15:56:47.999Z</time></trkpt><trkpt lat="39.76627582597971" lon="9.234996699672624"><ele>291.0</ele><time>2026-04-30T15:56:48.999Z</time></trkpt><trkpt lat="39.76631882215943" lon="9.234886635512204"><ele>291.0</ele><time>2026-04-30T15:56:49.999Z</time></trkpt><trkpt lat="39.7664239001861" lon="9.234820643757505"><ele>291.0</ele><time>2026-04-30T15:56:50.999Z</time></trkpt><trkpt lat="39.76650778710919" lon="9.234682476763739"><ele>291.75</ele><time>2026-04-30T15:56:51.999Z</time></trkpt><trkpt lat="39.76654946669258" lon="9.234553300257804"><ele>292.5</ele><time>2026-04-30T15:56:52.999Z</time></trkpt><trkpt lat="39.7665438599522" lon="9.234418133278064"><ele>293.25</ele><time>2026-04-30T15:56:53.999Z</time></trkpt><trkpt lat="39.766428321372345" lon="9.234293902441422"><ele>294.0</ele><time>2026-04-30T15:56:54.999Z</time></trkpt><trkpt lat="39.76630739911502" lon="9.234191614357634"><ele>294.0</ele><time>2026-04-30T15:56:55.999Z</time></trkpt><trkpt lat="39.76618405520594" lon="9.23408210857865"><ele>294.0</ele><time>2026-04-30T15:56:56.999Z</time></trkpt><trkpt lat="39.766125731199764" lon="9.233943298905897"><ele>294.0</ele><time>2026-04-30T15:56:57.999Z</time></trkpt><trkpt lat="39.76609208698797" lon="9.233796397014604"><ele>294.0</ele><time>2026-04-30T15:56:58.999Z</time></trkpt><trkpt lat="39.766113565796324" lon="9.233627069973544"><ele>292.6666666666667</ele><time>2026-04-30T15:56:59.999Z</time></trkpt><trkpt lat="39.76620660331765" lon="9.23347032720838"><ele>291.33333333333337</ele><time>2026-04-30T15:57:00.999Z</time></trkpt><trkpt lat="39.76630686854834" lon="9.233261783413592"><ele>290.0</ele><time>2026-04-30T15:57:01.999Z</time></trkpt><trkpt lat="39.766416169593995" lon="9.233034124200918"><ele>284.0</ele><time>2026-04-30T15:57:02.999Z</time></trkpt><trkpt lat="39.766523282834605" lon="9.23281323986452"><ele>278.0</ele><time>2026-04-30T15:57:03.999Z</time></trkpt><trkpt lat="39.76663765514268" lon="9.23259002311661"><ele>272.0</ele><time>2026-04-30T15:57:04.999Z</time></trkpt><trkpt lat="39.76676441609721" lon="9.232380053148624"><ele>272.6666666666667</ele><time>2026-04-30T15:57:05.999Z</time></trkpt><trkpt lat="39.76690687675821" lon="9.232191903732092"><ele>273.3333333333333</ele><time>2026-04-30T15:57:06.999Z</time></trkpt><trkpt lat="39.767057048720545" lon="9.232029305956832"><ele>274.0</ele><time>2026-04-30T15:57:07.999Z</time></trkpt><trkpt lat="39.7672045810909" lon="9.231888706589022"><ele>274.0</ele><time>2026-04-30T15:57:08.999Z</time></trkpt><trkpt lat="39.76735157085936" lon="9.231748415843931"><ele>274.0</ele><time>2026-04-30T15:57:09.999Z</time></trkpt><trkpt lat="39.76748516551279" lon="9.231606791772201"><ele>274.0</ele><time>2026-04-30T15:57:10.999Z</time></trkpt><trkpt lat="39.767624103974285" lon="9.23147759662058"><ele>271.3333333333333</ele><time>2026-04-30T15:57:11.999Z</time></trkpt><trkpt lat="39.76776020902135" lon="9.231349501596435"><ele>268.6666666666667</ele><time>2026-04-30T15:57:12.999Z</time></trkpt><trkpt lat="39.767891757610386" lon="9.231228447814873"><ele>266.0</ele><time>2026-04-30T15:57:13.999Z</time></trkpt><trkpt lat="39.7680215854615" lon="9.231123043051218"><ele>266.0</ele><time>2026-04-30T15:57:14.999Z</time></trkpt><trkpt lat="39.76813654702565" lon="9.23101401829351"><ele>266.0</ele><time>2026-04-30T15:57:15.999Z</time></trkpt><trkpt lat="39.76826096971034" lon="9.23096599378851"><ele>266.0</ele><time>2026-04-30T15:57:16.999Z</time></trkpt><trkpt lat="39.76838189657068" lon="9.230942743901036"><ele>266.0</ele><time>2026-04-30T15:57:17.999Z</time></trkpt><trkpt lat="39.768499201206915" lon="9.230950626943903"><ele>266.75</ele><time>2026-04-30T15:57:18.999Z</time></trkpt><trkpt lat="39.76861462296614" lon="9.230976929563473"><ele>267.5</ele><time>2026-04-30T15:57:19.999Z</time></trkpt><trkpt lat="39.76874660972091" lon="9.231013134527025"><ele>268.25</ele><time>2026-04-30T15:57:20.999Z</time></trkpt><trkpt lat="39.76886818749689" lon="9.231040160589528"><ele>269.0</ele><time>2026-04-30T15:57:21.999Z</time></trkpt><trkpt lat="39.768989493574715" lon="9.231062773209782"><ele>269.0</ele><time>2026-04-30T15:57:22.999Z</time></trkpt><trkpt lat="39.769121796331106" lon="9.231103612948257"><ele>269.0</ele><time>2026-04-30T15:57:23.999Z</time></trkpt><trkpt lat="39.769262126945875" lon="9.23110464075006"><ele>269.0</ele><time>2026-04-30T15:57:24.999Z</time></trkpt><trkpt lat="39.76940604244508" lon="9.231088192327201"><ele>269.0</ele><time>2026-04-30T15:57:25.999Z</time></trkpt><trkpt lat="39.76954376742486" lon="9.231034006240813"><ele>271.6666666666667</ele><time>2026-04-30T15:57:26.999Z</time></trkpt><trkpt lat="39.7696788658231" lon="9.23094884533079"><ele>274.3333333333333</ele><time>2026-04-30T15:57:27.999Z</time></trkpt><trkpt lat="39.769816979835156" lon="9.230848831494031"><ele>277.0</ele><time>2026-04-30T15:57:28.999Z</time></trkpt><trkpt lat="39.76994866265308" lon="9.230708320944721"><ele>279.0</ele><time>2026-04-30T15:57:29.999Z</time></trkpt><trkpt lat="39.77007078294452" lon="9.230565917427123"><ele>281.0</ele><time>2026-04-30T15:57:30.999Z</time></trkpt><trkpt lat="39.77019829945254" lon="9.230417221550294"><ele>283.0</ele><time>2026-04-30T15:57:31.999Z</time></trkpt><trkpt lat="39.770327201273304" lon="9.230266023154826"><ele>283.0</ele><time>2026-04-30T15:57:32.999Z</time></trkpt><trkpt lat="39.77045933847509" lon="9.23010946633823"><ele>283.0</ele><time>2026-04-30T15:57:33.999Z</time></trkpt><trkpt lat="39.77059147724075" lon="9.229946221628397"><ele>283.0</ele><time>2026-04-30T15:57:34.999Z</time></trkpt><trkpt lat="39.770716267849274" lon="9.229785137393643"><ele>277.0</ele><time>2026-04-30T15:57:35.999Z</time></trkpt><trkpt lat="39.77083031540945" lon="9.229634317279201"><ele>271.0</ele><time>2026-04-30T15:57:36.999Z</time></trkpt><trkpt lat="39.77093387255666" lon="9.229490484487577"><ele>265.0</ele><time>2026-04-30T15:57:37.999Z</time></trkpt><trkpt lat="39.77102810524252" lon="9.229344440395703"><ele>263.66666666666663</ele><time>2026-04-30T15:57:38.999Z</time></trkpt><trkpt lat="39.771110798816046" lon="9.229184552594255"><ele>262.3333333333333</ele><time>2026-04-30T15:57:39.999Z</time></trkpt><trkpt lat="39.77117163918302" lon="9.229003509424734"><ele>261.0</ele><time>2026-04-30T15:57:40.999Z</time></trkpt><trkpt lat="39.77122564206807" lon="9.228820144390273"><ele>259.6666666666667</ele><time>2026-04-30T15:57:41.999Z</time></trkpt><trkpt lat="39.771281506510824" lon="9.228630458632075"><ele>258.33333333333337</ele><time>2026-04-30T15:57:42.999Z</time></trkpt><trkpt lat="39.77133969304465" lon="9.228433257607792"><ele>257.0</ele><time>2026-04-30T15:57:43.999Z</time></trkpt><trkpt lat="39.77139585444215" lon="9.228241795402052"><ele>260.25</ele><time>2026-04-30T15:57:44.999Z</time></trkpt><trkpt lat="39.771447705494104" lon="9.228063124576812"><ele>263.5</ele><time>2026-04-30T15:57:45.999Z</time></trkpt><trkpt lat="39.771498581281094" lon="9.22788781472846"><ele>266.75</ele><time>2026-04-30T15:57:46.999Z</time></trkpt><trkpt lat="39.77155074720038" lon="9.227708220868733"><ele>270.0</ele><time>2026-04-30T15:57:47.999Z</time></trkpt><trkpt lat="39.77159851866152" lon="9.22753128481528"><ele>270.0</ele><time>2026-04-30T15:57:48.999Z</time></trkpt><trkpt lat="39.771618171148454" lon="9.227344295516884"><ele>270.0</ele><time>2026-04-30T15:57:49.999Z</time></trkpt><trkpt lat="39.7715712323508" lon="9.227168595521443"><ele>270.0</ele><time>2026-04-30T15:57:50.999Z</time></trkpt><trkpt lat="39.77151311484392" lon="9.226987956067365"><ele>270.0</ele><time>2026-04-30T15:57:51.999Z</time></trkpt><trkpt lat="39.77144599156175" lon="9.226814698737986"><ele>275.6666666666667</ele><time>2026-04-30T15:57:52.999Z</time></trkpt><trkpt lat="39.771384870114346" lon="9.22661148420994"><ele>281.33333333333337</ele><time>2026-04-30T15:57:53.999Z</time></trkpt><trkpt lat="39.77134627961134" lon="9.226410305206981"><ele>287.0</ele><time>2026-04-30T15:57:54.999Z</time></trkpt><trkpt lat="39.7713018551437" lon="9.226189597572711"><ele>287.6666666666667</ele><time>2026-04-30T15:57:55.999Z</time></trkpt><trkpt lat="39.77125511562934" lon="9.225963370977212"><ele>288.3333333333333</ele><time>2026-04-30T15:57:56.999Z</time></trkpt><trkpt lat="39.771206137412356" lon="9.2257268550085"><ele>289.0</ele><time>2026-04-30T15:57:57.999Z</time></trkpt><trkpt lat="39.771156130514605" lon="9.225485371659815"><ele>289.66666666666663</ele><time>2026-04-30T15:57:58.999Z</time></trkpt><trkpt lat="39.77110458577747" lon="9.22523646217457"><ele>290.3333333333333</ele><time>2026-04-30T15:57:59.999Z</time></trkpt><trkpt lat="39.7710535851981" lon="9.224986123567897"><ele>291.0</ele><time>2026-04-30T15:58:00.999Z</time></trkpt><trkpt lat="39.77098259981111" lon="9.224764918322792"><ele>286.3333333333333</ele><time>2026-04-30T15:58:01.999Z</time></trkpt><trkpt lat="39.770908404697934" lon="9.224566779585839"><ele>281.66666666666663</ele><time>2026-04-30T15:58:02.999Z</time></trkpt><trkpt lat="39.770812596466676" lon="9.224402969604371"><ele>277.0</ele><time>2026-04-30T15:58:03.999Z</time></trkpt><trkpt lat="39.77067974685269" lon="9.22427186419038"><ele>277.0</ele><time>2026-04-30T15:58:04.998Z</time></trkpt><trkpt lat="39.770506830299176" lon="9.22420094297215"><ele>277.0</ele><time>2026-04-30T15:58:05.998Z</time></trkpt><trkpt lat="39.770331572252935" lon="9.224197037835992"><ele>277.0</ele><time>2026-04-30T15:58:06.998Z</time></trkpt><trkpt lat="39.77014117024742" lon="9.224228920965716"><ele>278.5</ele><time>2026-04-30T15:58:07.998Z</time></trkpt><trkpt lat="39.769930009741024" lon="9.224319309833767"><ele>280.0</ele><time>2026-04-30T15:58:08.998Z</time></trkpt><trkpt lat="39.769725352350434" lon="9.224452122941308"><ele>280.0</ele><time>2026-04-30T15:58:09.998Z</time></trkpt><trkpt lat="39.76953514222455" lon="9.224558295944268"><ele>280.0</ele><time>2026-04-30T15:58:10.998Z</time></trkpt><trkpt lat="39.769354218195616" lon="9.224638742148526"><ele>280.0</ele><time>2026-04-30T15:58:11.998Z</time></trkpt><trkpt lat="39.769191579159774" lon="9.224700679611"><ele>280.0</ele><time>2026-04-30T15:58:12.998Z</time></trkpt><trkpt lat="39.769062674572325" lon="9.224709975328329"><ele>280.0</ele><time>2026-04-30T15:58:13.998Z</time></trkpt><trkpt lat="39.76895238768378" lon="9.22464245776542"><ele>280.0</ele><time>2026-04-30T15:58:14.998Z</time></trkpt><trkpt lat="39.76885563158353" lon="9.224543726797242"><ele>280.0</ele><time>2026-04-30T15:58:15.998Z</time></trkpt><trkpt lat="39.76879403739772" lon="9.22439235012008"><ele>280.0</ele><time>2026-04-30T15:58:16.998Z</time></trkpt><trkpt lat="39.76873395574676" lon="9.224237751364265"><ele>280.0</ele><time>2026-04-30T15:58:17.998Z</time></trkpt><trkpt lat="39.76877856191974" lon="9.224062984674186"><ele>280.0</ele><time>2026-04-30T15:58:18.998Z</time></trkpt><trkpt lat="39.76882730103932" lon="9.223919253020622"><ele>280.0</ele><time>2026-04-30T15:58:19.998Z</time></trkpt><trkpt lat="39.76888975431979" lon="9.223798187523954"><ele>281.5</ele><time>2026-04-30T15:58:20.998Z</time></trkpt><trkpt lat="39.76894705408889" lon="9.223682336526146"><ele>283.0</ele><time>2026-04-30T15:58:21.998Z</time></trkpt><trkpt lat="39.7690105753393" lon="9.223561730789488"><ele>284.5</ele><time>2026-04-30T15:58:22.998Z</time></trkpt><trkpt lat="39.7690808993436" lon="9.223430903265319"><ele>286.0</ele><time>2026-04-30T15:58:23.998Z</time></trkpt><trkpt lat="39.76915540012325" lon="9.223292304858758"><ele>286.0</ele><time>2026-04-30T15:58:24.998Z</time></trkpt><trkpt lat="39.769235090052874" lon="9.223150809570159"><ele>286.0</ele><time>2026-04-30T15:58:25.998Z</time></trkpt><trkpt lat="39.76932191106047" lon="9.223016050953754"><ele>286.0</ele><time>2026-04-30T15:58:27Z</time></trkpt><trkpt lat="39.76941788926651" lon="9.22293197348323"><ele>286.0</ele><time>2026-04-30T15:58:28Z</time></trkpt><trkpt lat="39.76954917569812" lon="9.222894876967905"><ele>288.75</ele><time>2026-04-30T15:58:29Z</time></trkpt><trkpt lat="39.769699218681865" lon="9.222893191365266"><ele>291.5</ele><time>2026-04-30T15:58:30Z</time></trkpt><trkpt lat="39.76985051103395" lon="9.222899827787604"><ele>294.25</ele><time>2026-04-30T15:58:31Z</time></trkpt><trkpt lat="39.769991219978685" lon="9.222907876474725"><ele>297.0</ele><time>2026-04-30T15:58:32Z</time></trkpt><trkpt lat="39.77011237094016" lon="9.222888604364556"><ele>297.0</ele><time>2026-04-30T15:58:33Z</time></trkpt><trkpt lat="39.7702071758064" lon="9.222834055811473"><ele>297.0</ele><time>2026-04-30T15:58:34Z</time></trkpt><trkpt lat="39.77025666321044" lon="9.22269280557687"><ele>297.0</ele><time>2026-04-30T15:58:35Z</time></trkpt><trkpt lat="39.77023681832258" lon="9.222543217775101"><ele>297.0</ele><time>2026-04-30T15:58:36Z</time></trkpt><trkpt lat="39.770120827715935" lon="9.222395096296808"><ele>299.3333333333333</ele><time>2026-04-30T15:58:37Z</time></trkpt><trkpt lat="39.76996355770627" lon="9.222285076903049"><ele>301.66666666666663</ele><time>2026-04-30T15:58:38Z</time></trkpt><trkpt lat="39.76978120632674" lon="9.222200341637189"><ele>304.0</ele><time>2026-04-30T15:58:39Z</time></trkpt><trkpt lat="39.76960614759479" lon="9.222069269179364"><ele>304.0</ele><time>2026-04-30T15:58:40Z</time></trkpt><trkpt lat="39.769431407335915" lon="9.221960876250137"><ele>304.0</ele><time>2026-04-30T15:58:41Z</time></trkpt><trkpt lat="39.76928007981721" lon="9.221822357558118"><ele>304.0</ele><time>2026-04-30T15:58:42Z</time></trkpt><trkpt lat="39.76913712029823" lon="9.22172160011595"><ele>303.25</ele><time>2026-04-30T15:58:43Z</time></trkpt><trkpt lat="39.769037947731555" lon="9.22158298335109"><ele>302.5</ele><time>2026-04-30T15:58:44Z</time></trkpt><trkpt lat="39.76900456163448" lon="9.221435534439246"><ele>301.75</ele><time>2026-04-30T15:58:45Z</time></trkpt><trkpt lat="39.76901826133389" lon="9.221292524335828"><ele>301.0</ele><time>2026-04-30T15:58:46Z</time></trkpt><trkpt lat="39.76906592240099" lon="9.221184590451221"><ele>303.0</ele><time>2026-04-30T15:58:47Z</time></trkpt><trkpt lat="39.76914620518807" lon="9.221162201093101"><ele>305.0</ele><time>2026-04-30T15:58:48Z</time></trkpt><trkpt lat="39.769256427531545" lon="9.221152680505794"><ele>307.0</ele><time>2026-04-30T15:58:49Z</time></trkpt><trkpt lat="39.76940333044308" lon="9.221159409663576"><ele>309.0</ele><time>2026-04-30T15:58:50Z</time></trkpt><trkpt lat="39.76957919218664" lon="9.221173610412453"><ele>311.0</ele><time>2026-04-30T15:58:51Z</time></trkpt><trkpt lat="39.76976031018939" lon="9.221187178305023"><ele>313.0</ele><time>2026-04-30T15:58:52Z</time></trkpt><trkpt lat="39.7699582521135" lon="9.221184741151443"><ele>315.0</ele><time>2026-04-30T15:58:53Z</time></trkpt><trkpt lat="39.77015308543133" lon="9.221201657400458"><ele>315.6666666666667</ele><time>2026-04-30T15:58:54Z</time></trkpt><trkpt lat="39.770345014125795" lon="9.22121763001391"><ele>316.33333333333337</ele><time>2026-04-30T15:58:55Z</time></trkpt><trkpt lat="39.770536993172485" lon="9.221160559639664"><ele>317.0</ele><time>2026-04-30T15:58:56Z</time></trkpt><trkpt lat="39.77071220263658" lon="9.221097026430119"><ele>317.0</ele><time>2026-04-30T15:58:56.999Z</time></trkpt><trkpt lat="39.770867885305464" lon="9.22103341214472"><ele>317.0</ele><time>2026-04-30T15:58:57.999Z</time></trkpt><trkpt lat="39.77099089551438" lon="9.220961879325522"><ele>317.0</ele><time>2026-04-30T15:58:58.999Z</time></trkpt><trkpt lat="39.77107616749316" lon="9.220872242901338"><ele>317.0</ele><time>2026-04-30T15:58:59.999Z</time></trkpt><trkpt lat="39.77109221643714" lon="9.22074508494449"><ele>317.0</ele><time>2026-04-30T15:59:00.999Z</time></trkpt><trkpt lat="39.77099844505917" lon="9.22062470532118"><ele>317.0</ele><time>2026-04-30T15:59:01.999Z</time></trkpt><trkpt lat="39.77088293687034" lon="9.22057675815274"><ele>317.0</ele><time>2026-04-30T15:59:02.999Z</time></trkpt><trkpt lat="39.77075913953798" lon="9.220619766308996"><ele>317.0</ele><time>2026-04-30T15:59:03.999Z</time></trkpt><trkpt lat="39.77064001664772" lon="9.220744954907387"><ele>317.0</ele><time>2026-04-30T15:59:04.999Z</time></trkpt><trkpt lat="39.770544277897145" lon="9.220837893203477"><ele>317.0</ele><time>2026-04-30T15:59:05.999Z</time></trkpt><trkpt lat="39.77045366341439" lon="9.220839964138099"><ele>317.0</ele><time>2026-04-30T15:59:06.999Z</time></trkpt><trkpt lat="39.770376426564255" lon="9.220738836483386"><ele>317.0</ele><time>2026-04-30T15:59:07.999Z</time></trkpt><trkpt lat="39.7703144533524" lon="9.220609922159584"><ele>317.0</ele><time>2026-04-30T15:59:08.999Z</time></trkpt><trkpt lat="39.77031076375032" lon="9.220460419998714"><ele>320.6666666666667</ele><time>2026-04-30T15:59:09.999Z</time></trkpt><trkpt lat="39.77026687162615" lon="9.220203786310263"><ele>324.3333333333333</ele><time>2026-04-30T15:59:10.999Z</time></trkpt><trkpt lat="39.77022643740073" lon="9.219963222911453"><ele>328.0</ele><time>2026-04-30T15:59:11.999Z</time></trkpt><trkpt lat="39.77018650719049" lon="9.21971887029493"><ele>328.0</ele><time>2026-04-30T15:59:12.999Z</time></trkpt><trkpt lat="39.77016640293645" lon="9.219489977208784"><ele>328.0</ele><time>2026-04-30T15:59:13.999Z</time></trkpt><trkpt lat="39.770182203596875" lon="9.219260993335173"><ele>328.0</ele><time>2026-04-30T15:59:14.999Z</time></trkpt><trkpt lat="39.77017755712565" lon="9.219010135008599"><ele>330.66666666666663</ele><time>2026-04-30T15:59:15.999Z</time></trkpt><trkpt lat="39.770110275002615" lon="9.218778044344912"><ele>333.3333333333333</ele><time>2026-04-30T15:59:16.999Z</time></trkpt><trkpt lat="39.77003744259666" lon="9.218537337938036"><ele>336.0</ele><time>2026-04-30T15:59:17.999Z</time></trkpt><trkpt lat="39.76994198138193" lon="9.218279102010245"><ele>338.6666666666667</ele><time>2026-04-30T15:59:18.999Z</time></trkpt><trkpt lat="39.76985828310678" lon="9.218042640147166"><ele>341.33333333333337</ele><time>2026-04-30T15:59:19.999Z</time></trkpt><trkpt lat="39.76978453855122" lon="9.21785338889502"><ele>344.0</ele><time>2026-04-30T15:59:20.999Z</time></trkpt><trkpt lat="39.769691187371954" lon="9.217720356231313"><ele>344.0</ele><time>2026-04-30T15:59:21.999Z</time></trkpt><trkpt lat="39.769553895857456" lon="9.217658354999873"><ele>344.0</ele><time>2026-04-30T15:59:22.999Z</time></trkpt><trkpt lat="39.7693635453544" lon="9.21763885831624"><ele>344.0</ele><time>2026-04-30T15:59:23.999Z</time></trkpt><trkpt lat="39.769150915106685" lon="9.217627351431425"><ele>344.0</ele><time>2026-04-30T15:59:24.999Z</time></trkpt><trkpt lat="39.76894626789579" lon="9.217590091779838"><ele>344.0</ele><time>2026-04-30T15:59:25.999Z</time></trkpt><trkpt lat="39.7687533798869" lon="9.217557696028338"><ele>344.0</ele><time>2026-04-30T15:59:26.999Z</time></trkpt><trkpt lat="39.768567944372606" lon="9.217557157111957"><ele>345.33333333333337</ele><time>2026-04-30T15:59:27.999Z</time></trkpt><trkpt lat="39.76839211961653" lon="9.217597315750018"><ele>346.6666666666667</ele><time>2026-04-30T15:59:28.999Z</time></trkpt><trkpt lat="39.76823120313848" lon="9.217683877481536"><ele>348.0</ele><time>2026-04-30T15:59:29.999Z</time></trkpt><trkpt lat="39.76810760222033" lon="9.21784668409416"><ele>348.0</ele><time>2026-04-30T15:59:30.999Z</time></trkpt><trkpt lat="39.7679634050797" lon="9.217943853781167"><ele>348.0</ele><time>2026-04-30T15:59:31.999Z</time></trkpt><trkpt lat="39.76783617542596" lon="9.218021496649138"><ele>348.0</ele><time>2026-04-30T15:59:32.999Z</time></trkpt><trkpt lat="39.76770604555777" lon="9.218040126768848"><ele>348.0</ele><time>2026-04-30T15:59:33.999Z</time></trkpt><trkpt lat="39.76756003510037" lon="9.218025565978914"><ele>350.3333333333333</ele><time>2026-04-30T15:59:34.999Z</time></trkpt><trkpt lat="39.76739921951625" lon="9.217978896527159"><ele>352.66666666666663</ele><time>2026-04-30T15:59:35.999Z</time></trkpt><trkpt lat="39.767237126439" lon="9.217903852944112"><ele>355.0</ele><time>2026-04-30T15:59:36.999Z</time></trkpt><trkpt lat="39.76706736610801" lon="9.217806998627351"><ele>355.0</ele><time>2026-04-30T15:59:37.999Z</time></trkpt><trkpt lat="39.766898773810944" lon="9.217729809851516"><ele>355.0</ele><time>2026-04-30T15:59:38.999Z</time></trkpt><trkpt lat="39.76671223307366" lon="9.217665744794733"><ele>355.0</ele><time>2026-04-30T15:59:39.999Z</time></trkpt><trkpt lat="39.76651554908621" lon="9.217573822310353"><ele>355.0</ele><time>2026-04-30T15:59:40.999Z</time></trkpt><trkpt lat="39.76634523759168" lon="9.217405529645012"><ele>355.0</ele><time>2026-04-30T15:59:41.999Z</time></trkpt><trkpt lat="39.76619035694313" lon="9.217269202953128"><ele>355.0</ele><time>2026-04-30T15:59:42.999Z</time></trkpt><trkpt lat="39.766063396697554" lon="9.217157451933996"><ele>356.2</ele><time>2026-04-30T15:59:43.999Z</time></trkpt><trkpt lat="39.765952303408525" lon="9.217106382653645"><ele>357.4</ele><time>2026-04-30T15:59:44.999Z</time></trkpt><trkpt lat="39.76592798036295" lon="9.217023866112163"><ele>358.6</ele><time>2026-04-30T15:59:45.999Z</time></trkpt><trkpt lat="39.76595414600145" lon="9.21688528993102"><ele>359.8</ele><time>2026-04-30T15:59:46.999Z</time></trkpt><trkpt lat="39.76601469338176" lon="9.216720560791037"><ele>361.0</ele><time>2026-04-30T15:59:47.999Z</time></trkpt><trkpt lat="39.766078711968305" lon="9.21650326648389"><ele>364.3333333333333</ele><time>2026-04-30T15:59:48.999Z</time></trkpt><trkpt lat="39.76612614771971" lon="9.216269812491998"><ele>367.6666666666667</ele><time>2026-04-30T15:59:49.999Z</time></trkpt><trkpt lat="39.76610664820692" lon="9.21605880469554"><ele>371.0</ele><time>2026-04-30T15:59:50.999Z</time></trkpt><trkpt lat="39.76606359192203" lon="9.215899663231635"><ele>371.0</ele><time>2026-04-30T15:59:51.999Z</time></trkpt><trkpt lat="39.76599887922396" lon="9.215808695354196"><ele>371.0</ele><time>2026-04-30T15:59:52.999Z</time></trkpt><trkpt lat="39.765909862260955" lon="9.215773542950926"><ele>371.0</ele><time>2026-04-30T15:59:53.999Z</time></trkpt><trkpt lat="39.76581363921978" lon="9.215801910281675"><ele>371.0</ele><time>2026-04-30T15:59:54.999Z</time></trkpt><trkpt lat="39.76571494846536" lon="9.21591968744732"><ele>371.0</ele><time>2026-04-30T15:59:55.999Z</time></trkpt><trkpt lat="39.765651300363864" lon="9.216077663757584"><ele>371.0</ele><time>2026-04-30T15:59:56.999Z</time></trkpt><trkpt lat="39.76561781802586" lon="9.21623608412197"><ele>371.0</ele><time>2026-04-30T15:59:57.999Z</time></trkpt><trkpt lat="39.76553595246897" lon="9.21634460903252"><ele>371.0</ele><time>2026-04-30T15:59:58.999Z</time></trkpt><trkpt lat="39.765403527940244" lon="9.216387747128532"><ele>371.0</ele><time>2026-04-30T15:59:59.999Z</time></trkpt><trkpt lat="39.76524906385898" lon="9.21641186624313"><ele>369.6666666666667</ele><time>2026-04-30T16:00:00.999Z</time></trkpt><trkpt lat="39.76508739078389" lon="9.21645778550377"><ele>368.3333333333333</ele><time>2026-04-30T16:00:01.999Z</time></trkpt><trkpt lat="39.764931786000915" lon="9.216564872007048"><ele>367.0</ele><time>2026-04-30T16:00:02.999Z</time></trkpt><trkpt lat="39.76478676612658" lon="9.21669213182639"><ele>367.0</ele><time>2026-04-30T16:00:03.999Z</time></trkpt><trkpt lat="39.764646484666656" lon="9.216825570128274"><ele>367.0</ele><time>2026-04-30T16:00:04.999Z</time></trkpt><trkpt lat="39.76451131113389" lon="9.216921569872243"><ele>367.0</ele><time>2026-04-30T16:00:05.999Z</time></trkpt><trkpt lat="39.764375868616995" lon="9.216973507252366"><ele>368.25</ele><time>2026-04-30T16:00:06.999Z</time></trkpt><trkpt lat="39.764233004951855" lon="9.216957389676374"><ele>369.5</ele><time>2026-04-30T16:00:07.998Z</time></trkpt><trkpt lat="39.76412722014972" lon="9.216851534787919"><ele>370.75</ele><time>2026-04-30T16:00:08.998Z</time></trkpt><trkpt lat="39.764038264448196" lon="9.21671667175772"><ele>372.0</ele><time>2026-04-30T16:00:09.998Z</time></trkpt><trkpt lat="39.7639709614047" lon="9.216563824674266"><ele>373.3333333333333</ele><time>2026-04-30T16:00:10.998Z</time></trkpt><trkpt lat="39.76391953582066" lon="9.216381251225961"><ele>374.66666666666663</ele><time>2026-04-30T16:00:11.998Z</time></trkpt><trkpt lat="39.76385401740498" lon="9.21619604738889"><ele>376.0</ele><time>2026-04-30T16:00:12.998Z</time></trkpt><trkpt lat="39.76377390809847" lon="9.215995811400557"><ele>376.0</ele><time>2026-04-30T16:00:13.998Z</time></trkpt><trkpt lat="39.76368403812453" lon="9.215790678672974"><ele>376.0</ele><time>2026-04-30T16:00:14.998Z</time></trkpt><trkpt lat="39.763581531431264" lon="9.215572454200274"><ele>376.0</ele><time>2026-04-30T16:00:15.998Z</time></trkpt><trkpt lat="39.76346974596289" lon="9.215359680375801"><ele>375.0</ele><time>2026-04-30T16:00:16.998Z</time></trkpt><trkpt lat="39.763347921041074" lon="9.215160062423863"><ele>374.0</ele><time>2026-04-30T16:00:17.998Z</time></trkpt><trkpt lat="39.76322117396588" lon="9.214972942287805"><ele>373.0</ele><time>2026-04-30T16:00:18.998Z</time></trkpt><trkpt lat="39.76309702931999" lon="9.214799690016449"><ele>373.0</ele><time>2026-04-30T16:00:19.999Z</time></trkpt><trkpt lat="39.76299423141117" lon="9.21462537431957"><ele>373.0</ele><time>2026-04-30T16:00:20.998Z</time></trkpt><trkpt lat="39.762932013954746" lon="9.21443848873993"><ele>373.0</ele><time>2026-04-30T16:00:21.998Z</time></trkpt><trkpt lat="39.762891599442696" lon="9.214243102079848"><ele>373.0</ele><time>2026-04-30T16:00:22.998Z</time></trkpt><trkpt lat="39.76287648351519" lon="9.214023304559054"><ele>373.0</ele><time>2026-04-30T16:00:23.998Z</time></trkpt><trkpt lat="39.76288865292797" lon="9.213808440088147"><ele>373.0</ele><time>2026-04-30T16:00:24.998Z</time></trkpt><trkpt lat="39.76288062862717" lon="9.213596635626885"><ele>373.75</ele><time>2026-04-30T16:00:25.998Z</time></trkpt><trkpt lat="39.762835951879325" lon="9.213415905574742"><ele>374.5</ele><time>2026-04-30T16:00:26.998Z</time></trkpt><trkpt lat="39.762779462645476" lon="9.213271183361494"><ele>375.25</ele><time>2026-04-30T16:00:27.998Z</time></trkpt><trkpt lat="39.76272516628602" lon="9.213144098027195"><ele>376.0</ele><time>2026-04-30T16:00:28.998Z</time></trkpt><trkpt lat="39.76268505559815" lon="9.213045019892077"><ele>373.8333333333333</ele><time>2026-04-30T16:00:29.998Z</time></trkpt><trkpt lat="39.7626587794559" lon="9.212968105326834"><ele>371.66666666666663</ele><time>2026-04-30T16:00:30.998Z</time></trkpt><trkpt lat="39.76261620030822" lon="9.212839190515046"><ele>369.5</ele><time>2026-04-30T16:00:33Z</time></trkpt><trkpt lat="39.762572654623185" lon="9.212732606455953"><ele>367.3333333333333</ele><time>2026-04-30T16:00:34.999Z</time></trkpt><trkpt lat="39.76253248342949" lon="9.212645483843646"><ele>365.1666666666667</ele><time>2026-04-30T16:00:36.999Z</time></trkpt><trkpt lat="39.762492384351305" lon="9.212568828525109"><ele>363.0</ele><time>2026-04-30T16:00:40Z</time></trkpt><trkpt lat="39.762438184167266" lon="9.212496862364379"><ele>362.99999999999994</ele><time>2026-04-30T16:00:53Z</time></trkpt><trkpt lat="39.762385809089004" lon="9.212442989363668"><ele>363.0</ele><time>2026-04-30T16:00:55.999Z</time></trkpt><trkpt lat="39.76232370013003" lon="9.212365850648126"><ele>363.0</ele><time>2026-04-30T16:00:58.999Z</time></trkpt><trkpt lat="39.76226794882933" lon="9.212306895942568"><ele>363.0</ele><time>2026-04-30T16:01:02.999Z</time></trkpt><trkpt lat="39.762206169607055" lon="9.212250043237505"><ele>363.0</ele><time>2026-04-30T16:01:07.999Z</time></trkpt><trkpt lat="39.76215252014271" lon="9.212200030389138"><ele>362.99999999999994</ele><time>2026-04-30T16:01:11.999Z</time></trkpt><trkpt lat="39.76209300279437" lon="9.212168179910817"><ele>363.0</ele><time>2026-04-30T16:01:15.999Z</time></trkpt><trkpt lat="39.76203767367337" lon="9.212127954956236"><ele>363.5</ele><time>2026-04-30T16:01:18.999Z</time></trkpt><trkpt lat="39.761977414899064" lon="9.212079921077361"><ele>364.0</ele><time>2026-04-30T16:01:21.999Z</time></trkpt><trkpt lat="39.76191284600572" lon="9.212007622044167"><ele>364.5</ele><time>2026-04-30T16:01:24.999Z</time></trkpt><trkpt lat="39.761847517389654" lon="9.21189903900604"><ele>365.0</ele><time>2026-04-30T16:01:26.999Z</time></trkpt><trkpt lat="39.76181862261528" lon="9.211817082188537"><ele>365.5</ele><time>2026-04-30T16:01:27.999Z</time></trkpt><trkpt lat="39.761798101103864" lon="9.211715549898702"><ele>366.0</ele><time>2026-04-30T16:01:28.999Z</time></trkpt><trkpt lat="39.761788026708544" lon="9.211599895222207"><ele>363.6</ele><time>2026-04-30T16:01:29.999Z</time></trkpt><trkpt lat="39.76177216962852" lon="9.211471379878656"><ele>361.20000000000005</ele><time>2026-04-30T16:01:30.999Z</time></trkpt><trkpt lat="39.76175857448306" lon="9.211338161646205"><ele>358.79999999999995</ele><time>2026-04-30T16:01:31.999Z</time></trkpt><trkpt lat="39.76173992376009" lon="9.211193005758748"><ele>356.4</ele><time>2026-04-30T16:01:32.999Z</time></trkpt><trkpt lat="39.761737868476786" lon="9.21103821927829"><ele>354.0</ele><time>2026-04-30T16:01:33.999Z</time></trkpt><trkpt lat="39.76171962415874" lon="9.21088325402053"><ele>354.0</ele><time>2026-04-30T16:01:34.999Z</time></trkpt><trkpt lat="39.76169725006684" lon="9.210702082652684"><ele>354.0</ele><time>2026-04-30T16:01:35.999Z</time></trkpt><trkpt lat="39.76166877845714" lon="9.210538668351806"><ele>354.0</ele><time>2026-04-30T16:01:36.999Z</time></trkpt><trkpt lat="39.76162979533414" lon="9.210374235017932"><ele>354.0</ele><time>2026-04-30T16:01:37.999Z</time></trkpt><trkpt lat="39.76156468386713" lon="9.210237526846994"><ele>355.75</ele><time>2026-04-30T16:01:38.999Z</time></trkpt><trkpt lat="39.76147105611677" lon="9.210140762042638"><ele>357.5</ele><time>2026-04-30T16:01:39.999Z</time></trkpt><trkpt lat="39.76135088954418" lon="9.210093615427324"><ele>359.25</ele><time>2026-04-30T16:01:40.999Z</time></trkpt><trkpt lat="39.76121611261305" lon="9.21009946002012"><ele>361.0</ele><time>2026-04-30T16:01:41.999Z</time></trkpt><trkpt lat="39.76106837064793" lon="9.210163729269475"><ele>364.3333333333333</ele><time>2026-04-30T16:01:42.999Z</time></trkpt><trkpt lat="39.76090584343821" lon="9.210285217953686"><ele>367.6666666666667</ele><time>2026-04-30T16:01:43.999Z</time></trkpt><trkpt lat="39.76074985328792" lon="9.210419260027942"><ele>371.0</ele><time>2026-04-30T16:01:44.999Z</time></trkpt><trkpt lat="39.760617906095725" lon="9.210614647626075"><ele>366.0</ele><time>2026-04-30T16:01:45.999Z</time></trkpt><trkpt lat="39.76050295544656" lon="9.210849396821578"><ele>361.0</ele><time>2026-04-30T16:01:46.999Z</time></trkpt><trkpt lat="39.76040143818615" lon="9.21108905864019"><ele>356.0</ele><time>2026-04-30T16:01:47.999Z</time></trkpt><trkpt lat="39.76031194069526" lon="9.211342350037249"><ele>351.5</ele><time>2026-04-30T16:01:48.999Z</time></trkpt><trkpt lat="39.76025132132996" lon="9.211626511242734"><ele>347.0</ele><time>2026-04-30T16:01:49.999Z</time></trkpt><trkpt lat="39.76019085286297" lon="9.211911062925306"><ele>352.0</ele><time>2026-04-30T16:01:50.999Z</time></trkpt><trkpt lat="39.7601166234973" lon="9.21216368322885"><ele>357.0</ele><time>2026-04-30T16:01:51.999Z</time></trkpt><trkpt lat="39.760043485415665" lon="9.212394747560397"><ele>362.0</ele><time>2026-04-30T16:01:52.999Z</time></trkpt><trkpt lat="39.75997931953437" lon="9.212606883781788"><ele>362.0</ele><time>2026-04-30T16:01:53.999Z</time></trkpt><trkpt lat="39.759909514196046" lon="9.212791187233153"><ele>362.0</ele><time>2026-04-30T16:01:54.999Z</time></trkpt><trkpt lat="39.759820840180026" lon="9.212932437999124"><ele>362.0</ele><time>2026-04-30T16:01:55.999Z</time></trkpt><trkpt lat="39.7597252152189" lon="9.213025925983022"><ele>362.0</ele><time>2026-04-30T16:01:56.999Z</time></trkpt><trkpt lat="39.759609067901884" lon="9.212985776766901"><ele>362.0</ele><time>2026-04-30T16:01:57.999Z</time></trkpt><trkpt lat="39.75952373994716" lon="9.212915402030264"><ele>362.0</ele><time>2026-04-30T16:01:58.999Z</time></trkpt><trkpt lat="39.759431677273916" lon="9.212821001900775"><ele>362.0</ele><time>2026-04-30T16:01:59.999Z</time></trkpt><trkpt lat="39.759375893348164" lon="9.212653565507315"><ele>362.0</ele><time>2026-04-30T16:02:00.999Z</time></trkpt><trkpt lat="39.75934034305085" lon="9.212452396959288"><ele>365.6666666666667</ele><time>2026-04-30T16:02:01.999Z</time></trkpt><trkpt lat="39.75930463677725" lon="9.212231116259462"><ele>369.3333333333333</ele><time>2026-04-30T16:02:02.999Z</time></trkpt><trkpt lat="39.75924631908835" lon="9.212040394247103"><ele>373.0</ele><time>2026-04-30T16:02:03.999Z</time></trkpt><trkpt lat="39.759151183418126" lon="9.211861389818628"><ele>373.0</ele><time>2026-04-30T16:02:04.999Z</time></trkpt><trkpt lat="39.7590273651694" lon="9.21171716163326"><ele>373.0</ele><time>2026-04-30T16:02:05.999Z</time></trkpt><trkpt lat="39.758865387419426" lon="9.211601314461854"><ele>373.0</ele><time>2026-04-30T16:02:06.999Z</time></trkpt><trkpt lat="39.75868956227961" lon="9.211527398887014"><ele>378.66666666666663</ele><time>2026-04-30T16:02:07.999Z</time></trkpt><trkpt lat="39.75852414136822" lon="9.211462826935024"><ele>384.3333333333333</ele><time>2026-04-30T16:02:08.999Z</time></trkpt><trkpt lat="39.758362645768365" lon="9.211406708717316"><ele>390.0</ele><time>2026-04-30T16:02:09.998Z</time></trkpt><trkpt lat="39.75819248111223" lon="9.211406304935847"><ele>390.0</ele><time>2026-04-30T16:02:10.998Z</time></trkpt><trkpt lat="39.75803147649904" lon="9.21143545305231"><ele>390.0</ele><time>2026-04-30T16:02:11.998Z</time></trkpt><trkpt lat="39.75787743236335" lon="9.211491227658234"><ele>390.0</ele><time>2026-04-30T16:02:12.998Z</time></trkpt><trkpt lat="39.75773982955161" lon="9.211523449792946"><ele>386.75</ele><time>2026-04-30T16:02:13.998Z</time></trkpt><trkpt lat="39.75761476493865" lon="9.211501647652526"><ele>383.5</ele><time>2026-04-30T16:02:14.998Z</time></trkpt><trkpt lat="39.757524573184526" lon="9.211398521526839"><ele>380.25</ele><time>2026-04-30T16:02:15.998Z</time></trkpt><trkpt lat="39.75746303641344" lon="9.211259041154712"><ele>377.0</ele><time>2026-04-30T16:02:16.999Z</time></trkpt><trkpt lat="39.75738188210689" lon="9.211106581221012"><ele>377.0</ele><time>2026-04-30T16:02:17.999Z</time></trkpt><trkpt lat="39.757306260832486" lon="9.210937269276759"><ele>377.0</ele><time>2026-04-30T16:02:18.999Z</time></trkpt><trkpt lat="39.75720271309845" lon="9.210777798880013"><ele>377.0</ele><time>2026-04-30T16:02:19.999Z</time></trkpt><trkpt lat="39.75707998335573" lon="9.21064033774102"><ele>378.33333333333337</ele><time>2026-04-30T16:02:20.999Z</time></trkpt><trkpt lat="39.75693735205566" lon="9.21052332562355"><ele>379.6666666666667</ele><time>2026-04-30T16:02:21.999Z</time></trkpt><trkpt lat="39.75677408713422" lon="9.21044694590014"><ele>381.0</ele><time>2026-04-30T16:02:22.999Z</time></trkpt><trkpt lat="39.75660826333565" lon="9.210402923799993"><ele>381.0</ele><time>2026-04-30T16:02:23.999Z</time></trkpt><trkpt lat="39.756434480647215" lon="9.210395421898573"><ele>381.0</ele><time>2026-04-30T16:02:24.999Z</time></trkpt><trkpt lat="39.756266796664406" lon="9.210409737100564"><ele>381.0</ele><time>2026-04-30T16:02:25.999Z</time></trkpt><trkpt lat="39.756110707924485" lon="9.210437388987467"><ele>378.0</ele><time>2026-04-30T16:02:26.999Z</time></trkpt><trkpt lat="39.75598122909979" lon="9.210428856002943"><ele>375.0</ele><time>2026-04-30T16:02:27.999Z</time></trkpt><trkpt lat="39.755901455725194" lon="9.210380188561864"><ele>372.0</ele><time>2026-04-30T16:02:28.999Z</time></trkpt><trkpt lat="39.755845414430404" lon="9.210280377249115"><ele>369.0</ele><time>2026-04-30T16:02:29.999Z</time></trkpt><trkpt lat="39.75584919074894" lon="9.210126776840236"><ele>366.0</ele><time>2026-04-30T16:02:30.999Z</time></trkpt><trkpt lat="39.75589592503351" lon="9.209955601952304"><ele>367.0</ele><time>2026-04-30T16:02:31.999Z</time></trkpt><trkpt lat="39.755924465829025" lon="9.209772148388598"><ele>368.0</ele><time>2026-04-30T16:02:32.999Z</time></trkpt><trkpt lat="39.75593574772698" lon="9.209600589823689"><ele>369.0</ele><time>2026-04-30T16:02:33.999Z</time></trkpt><trkpt lat="39.755959962657045" lon="9.209452830610271"><ele>370.0</ele><time>2026-04-30T16:02:34.999Z</time></trkpt><trkpt lat="39.75595312515004" lon="9.209322273517179"><ele>370.0</ele><time>2026-04-30T16:02:35.999Z</time></trkpt><trkpt lat="39.755900880015254" lon="9.209232223742548"><ele>370.0</ele><time>2026-04-30T16:02:36.999Z</time></trkpt><trkpt lat="39.75582215877472" lon="9.209189600929394"><ele>370.0</ele><time>2026-04-30T16:02:37.999Z</time></trkpt><trkpt lat="39.75571669650311" lon="9.209215297942208"><ele>370.0</ele><time>2026-04-30T16:02:39.001Z</time></trkpt><trkpt lat="39.755619242469386" lon="9.209317924689678"><ele>370.0</ele><time>2026-04-30T16:02:40Z</time></trkpt><trkpt lat="39.75552526461582" lon="9.209431780708833"><ele>370.0</ele><time>2026-04-30T16:02:41Z</time></trkpt><trkpt lat="39.755416181975974" lon="9.209528432866676"><ele>370.0</ele><time>2026-04-30T16:02:42.001Z</time></trkpt><trkpt lat="39.75530386603537" lon="9.209592012977042"><ele>370.0</ele><time>2026-04-30T16:02:43Z</time></trkpt><trkpt lat="39.7551935657007" lon="9.20960243163066"><ele>370.0</ele><time>2026-04-30T16:02:44Z</time></trkpt><trkpt lat="39.75509697966756" lon="9.209535327157644"><ele>369.25</ele><time>2026-04-30T16:02:45.001Z</time></trkpt><trkpt lat="39.75504047249208" lon="9.209405885585403"><ele>368.5</ele><time>2026-04-30T16:02:46Z</time></trkpt><trkpt lat="39.755007309650665" lon="9.209238234917025"><ele>367.75</ele><time>2026-04-30T16:02:47Z</time></trkpt><trkpt lat="39.75495644104394" lon="9.209038811997651"><ele>367.0</ele><time>2026-04-30T16:02:48Z</time></trkpt><trkpt lat="39.7549177968446" lon="9.208844786068688"><ele>369.5</ele><time>2026-04-30T16:02:49.001Z</time></trkpt><trkpt lat="39.754879865237406" lon="9.208672760950908"><ele>372.0</ele><time>2026-04-30T16:02:50.001Z</time></trkpt><trkpt lat="39.75484798773896" lon="9.208531780521065"><ele>374.5</ele><time>2026-04-30T16:02:51.001Z</time></trkpt><trkpt lat="39.75479960203169" lon="9.208411777240016"><ele>377.0</ele><time>2026-04-30T16:02:52.001Z</time></trkpt><trkpt lat="39.754735655953525" lon="9.20831542192516"><ele>377.0</ele><time>2026-04-30T16:02:53.001Z</time></trkpt><trkpt lat="39.75465505543597" lon="9.208262709825133"><ele>377.0</ele><time>2026-04-30T16:02:54.001Z</time></trkpt><trkpt lat="39.7545618161924" lon="9.208225446846557"><ele>377.0</ele><time>2026-04-30T16:02:55.001Z</time></trkpt><trkpt lat="39.754455276256984" lon="9.20820198999092"><ele>377.0</ele><time>2026-04-30T16:02:56Z</time></trkpt><trkpt lat="39.75434556747409" lon="9.208195268632004"><ele>377.0</ele><time>2026-04-30T16:02:57Z</time></trkpt><trkpt lat="39.75423006296904" lon="9.208209224227039"><ele>375.0</ele><time>2026-04-30T16:02:58Z</time></trkpt><trkpt lat="39.75411426934247" lon="9.208222955856936"><ele>373.0</ele><time>2026-04-30T16:02:59Z</time></trkpt><trkpt lat="39.75399191989382" lon="9.208231733876898"><ele>371.0</ele><time>2026-04-30T16:03:00Z</time></trkpt><trkpt lat="39.753862131092454" lon="9.208214176426512"><ele>369.0</ele><time>2026-04-30T16:03:01Z</time></trkpt><trkpt lat="39.75373648887579" lon="9.208136092549552"><ele>369.0</ele><time>2026-04-30T16:03:02Z</time></trkpt><trkpt lat="39.753598873941215" lon="9.208058991328238"><ele>369.0</ele><time>2026-04-30T16:03:03Z</time></trkpt><trkpt lat="39.753454703263515" lon="9.207984804043805"><ele>369.0</ele><time>2026-04-30T16:03:04Z</time></trkpt><trkpt lat="39.753327613551534" lon="9.207900936312614"><ele>369.0</ele><time>2026-04-30T16:03:05Z</time></trkpt><trkpt lat="39.75320964373511" lon="9.207823913184024"><ele>369.0</ele><time>2026-04-30T16:03:06Z</time></trkpt><trkpt lat="39.75309321566486" lon="9.207734610539024"><ele>369.0</ele><time>2026-04-30T16:03:07Z</time></trkpt><trkpt lat="39.75298294293102" lon="9.207639494949847"><ele>369.0</ele><time>2026-04-30T16:03:08Z</time></trkpt><trkpt lat="39.752885512434176" lon="9.207533443956944"><ele>369.0</ele><time>2026-04-30T16:03:09Z</time></trkpt><trkpt lat="39.75277365821461" lon="9.20743381180241"><ele>369.0</ele><time>2026-04-30T16:03:10Z</time></trkpt><trkpt lat="39.75265410492358" lon="9.207345910165065"><ele>369.0</ele><time>2026-04-30T16:03:11Z</time></trkpt><trkpt lat="39.75252674226156" lon="9.207278071179791"><ele>369.0</ele><time>2026-04-30T16:03:12Z</time></trkpt><trkpt lat="39.752389036331614" lon="9.207223247928669"><ele>369.0</ele><time>2026-04-30T16:03:13Z</time></trkpt><trkpt lat="39.75225604537697" lon="9.20715372775276"><ele>369.0</ele><time>2026-04-30T16:03:14Z</time></trkpt><trkpt lat="39.752162831416925" lon="9.207023319618509"><ele>369.0</ele><time>2026-04-30T16:03:15Z</time></trkpt><trkpt lat="39.75208481511966" lon="9.206883152471793"><ele>369.0</ele><time>2026-04-30T16:03:16Z</time></trkpt><trkpt lat="39.75198725244539" lon="9.206741187872781"><ele>369.0</ele><time>2026-04-30T16:03:17Z</time></trkpt><trkpt lat="39.75189632606654" lon="9.20661159534914"><ele>369.75</ele><time>2026-04-30T16:03:18Z</time></trkpt><trkpt lat="39.75178144853159" lon="9.206514834662512"><ele>370.5</ele><time>2026-04-30T16:03:19Z</time></trkpt><trkpt lat="39.75163822683794" lon="9.206456225160286"><ele>371.25</ele><time>2026-04-30T16:03:20Z</time></trkpt><trkpt lat="39.75150912655082" lon="9.206389143116043"><ele>372.0</ele><time>2026-04-30T16:03:21Z</time></trkpt><trkpt lat="39.751398293941705" lon="9.206300179133137"><ele>372.0</ele><time>2026-04-30T16:03:22Z</time></trkpt><trkpt lat="39.75129391390122" lon="9.20619695930036"><ele>372.0</ele><time>2026-04-30T16:03:23Z</time></trkpt><trkpt lat="39.75119197767805" lon="9.206085894049576"><ele>372.0</ele><time>2026-04-30T16:03:24Z</time></trkpt><trkpt lat="39.75108359741982" lon="9.20599560500675"><ele>372.0</ele><time>2026-04-30T16:03:25Z</time></trkpt><trkpt lat="39.75096512137138" lon="9.20592603756787"><ele>374.5</ele><time>2026-04-30T16:03:26Z</time></trkpt><trkpt lat="39.750831257894944" lon="9.20588973758648"><ele>377.0</ele><time>2026-04-30T16:03:27Z</time></trkpt><trkpt lat="39.75068704776252" lon="9.205860509291037"><ele>379.5</ele><time>2026-04-30T16:03:28Z</time></trkpt><trkpt lat="39.75054694123429" lon="9.20582891060375"><ele>382.0</ele><time>2026-04-30T16:03:29Z</time></trkpt><trkpt lat="39.750410625509595" lon="9.205792336871744"><ele>382.0</ele><time>2026-04-30T16:03:30Z</time></trkpt><trkpt lat="39.750285949726674" lon="9.205752791560736"><ele>382.0</ele><time>2026-04-30T16:03:31Z</time></trkpt><trkpt lat="39.75017246807507" lon="9.205696800197016"><ele>382.0</ele><time>2026-04-30T16:03:32Z</time></trkpt><trkpt lat="39.75007375014214" lon="9.205623275620002"><ele>382.0</ele><time>2026-04-30T16:03:33Z</time></trkpt><trkpt lat="39.74999264298161" lon="9.205532515168612"><ele>384.40000000000003</ele><time>2026-04-30T16:03:34Z</time></trkpt><trkpt lat="39.7499439005858" lon="9.205413844780939"><ele>386.8</ele><time>2026-04-30T16:03:35Z</time></trkpt><trkpt lat="39.74993936930465" lon="9.20527745573687"><ele>389.2</ele><time>2026-04-30T16:03:36Z</time></trkpt><trkpt lat="39.750011545882224" lon="9.205161170335362"><ele>391.6</ele><time>2026-04-30T16:03:37Z</time></trkpt><trkpt lat="39.75009319433966" lon="9.205080063079928"><ele>394.0</ele><time>2026-04-30T16:03:38Z</time></trkpt><trkpt lat="39.750185352128526" lon="9.204984630093579"><ele>391.75</ele><time>2026-04-30T16:03:39Z</time></trkpt><trkpt lat="39.75029206081052" lon="9.20487578784296"><ele>389.5</ele><time>2026-04-30T16:03:40Z</time></trkpt><trkpt lat="39.75040439296585" lon="9.20475961601931"><ele>387.25</ele><time>2026-04-30T16:03:41Z</time></trkpt><trkpt lat="39.75051089865632" lon="9.20464233995625"><ele>385.0</ele><time>2026-04-30T16:03:42Z</time></trkpt><trkpt lat="39.75058781140806" lon="9.204516448803613"><ele>385.0</ele><time>2026-04-30T16:03:43Z</time></trkpt><trkpt lat="39.75065816291815" lon="9.20438926139335"><ele>385.0</ele><time>2026-04-30T16:03:44Z</time></trkpt><trkpt lat="39.750698760923115" lon="9.204234049066576"><ele>385.0</ele><time>2026-04-30T16:03:45Z</time></trkpt><trkpt lat="39.750688412559015" lon="9.204047444322669"><ele>385.0</ele><time>2026-04-30T16:03:46Z</time></trkpt><trkpt lat="39.75063253541782" lon="9.20386025225697"><ele>383.6666666666667</ele><time>2026-04-30T16:03:47Z</time></trkpt><trkpt lat="39.750554004582476" lon="9.20368733338129"><ele>382.33333333333337</ele><time>2026-04-30T16:03:48Z</time></trkpt><trkpt lat="39.75047858489803" lon="9.203516953372423"><ele>381.0</ele><time>2026-04-30T16:03:49Z</time></trkpt><trkpt lat="39.75039356588831" lon="9.20334862428765"><ele>381.0</ele><time>2026-04-30T16:03:50Z</time></trkpt><trkpt lat="39.75031133353435" lon="9.203182837422677"><ele>381.0</ele><time>2026-04-30T16:03:51Z</time></trkpt><trkpt lat="39.750227282417505" lon="9.2030337909435"><ele>381.0</ele><time>2026-04-30T16:03:52Z</time></trkpt><trkpt lat="39.750135868741225" lon="9.202916187550885"><ele>381.0</ele><time>2026-04-30T16:03:53Z</time></trkpt><trkpt lat="39.750035475961546" lon="9.202831007572778"><ele>384.5</ele><time>2026-04-30T16:03:54Z</time></trkpt><trkpt lat="39.74990913202053" lon="9.20277983355681"><ele>388.0</ele><time>2026-04-30T16:03:55Z</time></trkpt><trkpt lat="39.7497909094851" lon="9.202741317013347"><ele>391.5</ele><time>2026-04-30T16:03:56Z</time></trkpt><trkpt lat="39.74967704660355" lon="9.202704759070777"><ele>395.0</ele><time>2026-04-30T16:03:57Z</time></trkpt><trkpt lat="39.74957754575184" lon="9.20266697610083"><ele>395.0</ele><time>2026-04-30T16:03:58Z</time></trkpt><trkpt lat="39.74948920421575" lon="9.202625744351906"><ele>395.0</ele><time>2026-04-30T16:03:59Z</time></trkpt><trkpt lat="39.74941431431411" lon="9.202569862563239"><ele>395.0</ele><time>2026-04-30T16:04:00Z</time></trkpt><trkpt lat="39.74934432013916" lon="9.202501156291156"><ele>395.0</ele><time>2026-04-30T16:04:01Z</time></trkpt><trkpt lat="39.7492737190761" lon="9.202417744606997"><ele>395.0</ele><time>2026-04-30T16:04:02Z</time></trkpt><trkpt lat="39.74919435088735" lon="9.202353233540896"><ele>398.25</ele><time>2026-04-30T16:04:03Z</time></trkpt><trkpt lat="39.74914700965639" lon="9.202211957941216"><ele>401.5</ele><time>2026-04-30T16:04:04Z</time></trkpt><trkpt lat="39.74909950023925" lon="9.20208489694544"><ele>404.75</ele><time>2026-04-30T16:04:05Z</time></trkpt><trkpt lat="39.749078849682945" lon="9.201927758693797"><ele>408.0</ele><time>2026-04-30T16:04:06Z</time></trkpt><trkpt lat="39.7490592221603" lon="9.201769731129254"><ele>408.0</ele><time>2026-04-30T16:04:07Z</time></trkpt><trkpt lat="39.74905552234328" lon="9.201605581734514"><ele>408.0</ele><time>2026-04-30T16:04:08Z</time></trkpt><trkpt lat="39.74901944563175" lon="9.20145496633954"><ele>408.0</ele><time>2026-04-30T16:04:09Z</time></trkpt><trkpt lat="39.748973048490356" lon="9.201305066189814"><ele>408.0</ele><time>2026-04-30T16:04:10Z</time></trkpt><trkpt lat="39.748903730786225" lon="9.20116392571831"><ele>407.5</ele><time>2026-04-30T16:04:11Z</time></trkpt><trkpt lat="39.74879374011362" lon="9.201066197561774"><ele>407.0</ele><time>2026-04-30T16:04:12Z</time></trkpt><trkpt lat="39.74868403970566" lon="9.200957993604618"><ele>406.5</ele><time>2026-04-30T16:04:13Z</time></trkpt><trkpt lat="39.74860193829298" lon="9.200821468297718"><ele>406.0</ele><time>2026-04-30T16:04:14Z</time></trkpt><trkpt lat="39.74853660373361" lon="9.200671458313781"><ele>408.25</ele><time>2026-04-30T16:04:14.999Z</time></trkpt><trkpt lat="39.74849845833565" lon="9.2005067482545"><ele>410.5</ele><time>2026-04-30T16:04:15.999Z</time></trkpt><trkpt lat="39.74846680725671" lon="9.200341975867456"><ele>412.75</ele><time>2026-04-30T16:04:16.999Z</time></trkpt><trkpt lat="39.748400093327184" lon="9.200218307826578"><ele>415.0</ele><time>2026-04-30T16:04:17.999Z</time></trkpt><trkpt lat="39.748328297393876" lon="9.200120865134247"><ele>415.0</ele><time>2026-04-30T16:04:18.999Z</time></trkpt><trkpt lat="39.74820599970974" lon="9.20008118473671"><ele>415.0</ele><time>2026-04-30T16:04:19.999Z</time></trkpt><trkpt lat="39.74807425872057" lon="9.200059460438103"><ele>415.0</ele><time>2026-04-30T16:04:20.999Z</time></trkpt><trkpt lat="39.74795014952496" lon="9.2000126656919"><ele>415.0</ele><time>2026-04-30T16:04:21.999Z</time></trkpt><trkpt lat="39.7478682777161" lon="9.199880479784927"><ele>413.75</ele><time>2026-04-30T16:04:22.999Z</time></trkpt><trkpt lat="39.74779062238504" lon="9.199738032656137"><ele>412.5</ele><time>2026-04-30T16:04:23.999Z</time></trkpt><trkpt lat="39.747716503948034" lon="9.199579428220114"><ele>411.25</ele><time>2026-04-30T16:04:24.999Z</time></trkpt><trkpt lat="39.747663522527056" lon="9.199425602423924"><ele>410.0</ele><time>2026-04-30T16:04:25.999Z</time></trkpt><trkpt lat="39.74764622592062" lon="9.19927935261643"><ele>411.2</ele><time>2026-04-30T16:04:26.999Z</time></trkpt><trkpt lat="39.74761039428192" lon="9.199148708205856"><ele>412.4</ele><time>2026-04-30T16:04:27.999Z</time></trkpt><trkpt lat="39.74754503847477" lon="9.19906355320001"><ele>413.6</ele><time>2026-04-30T16:04:28.999Z</time></trkpt><trkpt lat="39.74747845238667" lon="9.199000505833071"><ele>414.8</ele><time>2026-04-30T16:04:29.999Z</time></trkpt><trkpt lat="39.74739148773543" lon="9.199009478664552"><ele>416.0</ele><time>2026-04-30T16:04:30.999Z</time></trkpt><trkpt lat="39.747325389842345" lon="9.19910395268834"><ele>417.0</ele><time>2026-04-30T16:04:31.999Z</time></trkpt><trkpt lat="39.74730257764631" lon="9.199250169402806"><ele>418.0</ele><time>2026-04-30T16:04:32.999Z</time></trkpt><trkpt lat="39.74731646531098" lon="9.199379157817928"><ele>419.0</ele><time>2026-04-30T16:04:33.999Z</time></trkpt><trkpt lat="39.747427954004365" lon="9.199506928960863"><ele>420.0</ele><time>2026-04-30T16:04:34.999Z</time></trkpt><trkpt lat="39.747499734348196" lon="9.199634085450924"><ele>420.0</ele><time>2026-04-30T16:04:35.999Z</time></trkpt><trkpt lat="39.74755582258137" lon="9.199774260176634"><ele>420.0</ele><time>2026-04-30T16:04:36.999Z</time></trkpt><trkpt lat="39.747575609955895" lon="9.199931160441308"><ele>420.0</ele><time>2026-04-30T16:04:37.999Z</time></trkpt><trkpt lat="39.7475479065386" lon="9.200094024264178"><ele>420.0</ele><time>2026-04-30T16:04:38.999Z</time></trkpt><trkpt lat="39.747474763182474" lon="9.200246072585408"><ele>422.33333333333337</ele><time>2026-04-30T16:04:39.999Z</time></trkpt><trkpt lat="39.747415032899" lon="9.200427204241215"><ele>424.6666666666667</ele><time>2026-04-30T16:04:40.999Z</time></trkpt><trkpt lat="39.7473300736459" lon="9.200602417130131"><ele>427.0</ele><time>2026-04-30T16:04:41.999Z</time></trkpt><trkpt lat="39.74725816005679" lon="9.200799957374898"><ele>427.33333333333337</ele><time>2026-04-30T16:04:42.999Z</time></trkpt><trkpt lat="39.74721018948775" lon="9.201015177839889"><ele>427.66666666666663</ele><time>2026-04-30T16:04:43.999Z</time></trkpt><trkpt lat="39.74719328074363" lon="9.201240141172915"><ele>428.0</ele><time>2026-04-30T16:04:45.001Z</time></trkpt><trkpt lat="39.747193070869926" lon="9.201464799313511"><ele>428.0</ele><time>2026-04-30T16:04:46.001Z</time></trkpt><trkpt lat="39.74720133004744" lon="9.201690873532785"><ele>428.0</ele><time>2026-04-30T16:04:47.001Z</time></trkpt><trkpt lat="39.74718413217596" lon="9.201911655544816"><ele>428.0</ele><time>2026-04-30T16:04:48.001Z</time></trkpt><trkpt lat="39.74715224430501" lon="9.202127659779293"><ele>429.3333333333333</ele><time>2026-04-30T16:04:49.001Z</time></trkpt><trkpt lat="39.747097757680415" lon="9.20233250729892"><ele>430.66666666666663</ele><time>2026-04-30T16:04:50.001Z</time></trkpt><trkpt lat="39.74703061063299" lon="9.202513273701008"><ele>432.0</ele><time>2026-04-30T16:04:51.001Z</time></trkpt><trkpt lat="39.74694172603608" lon="9.202667515356477"><ele>433.0</ele><time>2026-04-30T16:04:52Z</time></trkpt><trkpt lat="39.74684614142273" lon="9.20280985439291"><ele>434.0</ele><time>2026-04-30T16:04:53Z</time></trkpt><trkpt lat="39.74677947779155" lon="9.20295486833038"><ele>435.0</ele><time>2026-04-30T16:04:54Z</time></trkpt><trkpt lat="39.74674859869855" lon="9.203131999733564"><ele>436.0</ele><time>2026-04-30T16:04:55Z</time></trkpt><trkpt lat="39.746765283672985" lon="9.203338764739733"><ele>437.33333333333337</ele><time>2026-04-30T16:04:56Z</time></trkpt><trkpt lat="39.7467889538432" lon="9.203553016954228"><ele>438.66666666666663</ele><time>2026-04-30T16:04:57Z</time></trkpt><trkpt lat="39.746804384407916" lon="9.203775666281944"><ele>440.0</ele><time>2026-04-30T16:04:58Z</time></trkpt><trkpt lat="39.74680970648618" lon="9.203981897139277"><ele>440.8</ele><time>2026-04-30T16:04:59Z</time></trkpt><trkpt lat="39.74681400391367" lon="9.20416142063613"><ele>441.6</ele><time>2026-04-30T16:05:00Z</time></trkpt><trkpt lat="39.74679432519913" lon="9.204303893242715"><ele>442.4</ele><time>2026-04-30T16:05:01Z</time></trkpt><trkpt lat="39.74673637248171" lon="9.204406979177584"><ele>443.2</ele><time>2026-04-30T16:05:02Z</time></trkpt><trkpt lat="39.74664371298289" lon="9.20444586064976"><ele>444.0</ele><time>2026-04-30T16:05:03Z</time></trkpt><trkpt lat="39.7465233472553" lon="9.20437995204786"><ele>444.0</ele><time>2026-04-30T16:05:04Z</time></trkpt><trkpt lat="39.74638128569202" lon="9.20433440297576"><ele>444.0</ele><time>2026-04-30T16:05:05Z</time></trkpt><trkpt lat="39.74622688093439" lon="9.204280482073303"><ele>444.0</ele><time>2026-04-30T16:05:06Z</time></trkpt><trkpt lat="39.746090090609854" lon="9.204196639038738"><ele>445.33333333333337</ele><time>2026-04-30T16:05:07Z</time></trkpt><trkpt lat="39.74597754761247" lon="9.20406534903371"><ele>446.6666666666667</ele><time>2026-04-30T16:05:08Z</time></trkpt><trkpt lat="39.74590323231133" lon="9.203899727367995"><ele>448.0</ele><time>2026-04-30T16:05:09Z</time></trkpt><trkpt lat="39.7458483692869" lon="9.203713129677764"><ele>448.0</ele><time>2026-04-30T16:05:10Z</time></trkpt><trkpt lat="39.74580371585648" lon="9.203506382210213"><ele>448.0</ele><time>2026-04-30T16:05:11Z</time></trkpt><trkpt lat="39.745750025897145" lon="9.203312487464895"><ele>448.0</ele><time>2026-04-30T16:05:12Z</time></trkpt><trkpt lat="39.74571603799175" lon="9.20314290276012"><ele>447.0</ele><time>2026-04-30T16:05:13Z</time></trkpt><trkpt lat="39.74567776930637" lon="9.202993223507004"><ele>445.99999999999994</ele><time>2026-04-30T16:05:14Z</time></trkpt><trkpt lat="39.74562444166028" lon="9.202894854615893"><ele>444.99999999999994</ele><time>2026-04-30T16:05:15Z</time></trkpt><trkpt lat="39.74555699244375" lon="9.20284275189252"><ele>444.0</ele><time>2026-04-30T16:05:16Z</time></trkpt><trkpt lat="39.74546096748102" lon="9.202860746061761"><ele>443.0</ele><time>2026-04-30T16:05:17Z</time></trkpt><trkpt lat="39.745366347920225" lon="9.202940122207217"><ele>443.0</ele><time>2026-04-30T16:05:18Z</time></trkpt><trkpt lat="39.74529777962881" lon="9.203075729427695"><ele>443.0</ele><time>2026-04-30T16:05:19Z</time></trkpt><trkpt lat="39.745249764916316" lon="9.203232345139597"><ele>443.0</ele><time>2026-04-30T16:05:20Z</time></trkpt><trkpt lat="39.7451991709968" lon="9.203409381737483"><ele>443.0</ele><time>2026-04-30T16:05:21Z</time></trkpt><trkpt lat="39.74513880705606" lon="9.203561963216556"><ele>445.75</ele><time>2026-04-30T16:05:22Z</time></trkpt><trkpt lat="39.74505599013513" lon="9.203668061570148"><ele>448.5</ele><time>2026-04-30T16:05:23Z</time></trkpt><trkpt lat="39.744929015963905" lon="9.203664467338715"><ele>451.25</ele><time>2026-04-30T16:05:24Z</time></trkpt><trkpt lat="39.74480558970694" lon="9.203629771686863"><ele>454.0</ele><time>2026-04-30T16:05:25Z</time></trkpt><trkpt lat="39.74468061424104" lon="9.203618506575616"><ele>454.0</ele><time>2026-04-30T16:05:26Z</time></trkpt><trkpt lat="39.74457258390861" lon="9.203603223644173"><ele>454.0</ele><time>2026-04-30T16:05:27Z</time></trkpt><trkpt lat="39.74448360334195" lon="9.203650041434924"><ele>454.0</ele><time>2026-04-30T16:05:28Z</time></trkpt><trkpt lat="39.74442817237968" lon="9.203754337143975"><ele>454.0</ele><time>2026-04-30T16:05:29Z</time></trkpt><trkpt lat="39.74441035024178" lon="9.203899817515557"><ele>454.0</ele><time>2026-04-30T16:05:30Z</time></trkpt><trkpt lat="39.74444568441525" lon="9.204060599163347"><ele>455.75</ele><time>2026-04-30T16:05:31Z</time></trkpt><trkpt lat="39.74451357447562" lon="9.204226275066544"><ele>457.5</ele><time>2026-04-30T16:05:32Z</time></trkpt><trkpt lat="39.74460519765502" lon="9.204377571583231"><ele>459.25</ele><time>2026-04-30T16:05:33Z</time></trkpt><trkpt lat="39.74469826234789" lon="9.204540156231081"><ele>461.0</ele><time>2026-04-30T16:05:34Z</time></trkpt><trkpt lat="39.74476544868555" lon="9.204700400245049"><ele>462.5</ele><time>2026-04-30T16:05:35Z</time></trkpt><trkpt lat="39.74476918206746" lon="9.20487384286707"><ele>464.0</ele><time>2026-04-30T16:05:36Z</time></trkpt><trkpt lat="39.74473354448471" lon="9.205049683433973"><ele>465.5</ele><time>2026-04-30T16:05:37Z</time></trkpt><trkpt lat="39.744671260570286" lon="9.205227854116716"><ele>467.0</ele><time>2026-04-30T16:05:38Z</time></trkpt><trkpt lat="39.744611798328485" lon="9.205400173668496"><ele>467.0</ele><time>2026-04-30T16:05:39Z</time></trkpt><trkpt lat="39.74455995183674" lon="9.20557964733587"><ele>467.0</ele><time>2026-04-30T16:05:40Z</time></trkpt><trkpt lat="39.744556935085235" lon="9.20577994059081"><ele>467.0</ele><time>2026-04-30T16:05:41Z</time></trkpt><trkpt lat="39.7445893304187" lon="9.205974130527258"><ele>467.3333333333333</ele><time>2026-04-30T16:05:42Z</time></trkpt><trkpt lat="39.74463584624291" lon="9.206165385734508"><ele>467.66666666666663</ele><time>2026-04-30T16:05:43Z</time></trkpt><trkpt lat="39.74462788420523" lon="9.206355965383649"><ele>468.0</ele><time>2026-04-30T16:05:44Z</time></trkpt><trkpt lat="39.74453441643203" lon="9.206538410886026"><ele>468.5</ele><time>2026-04-30T16:05:45Z</time></trkpt><trkpt lat="39.744451717259764" lon="9.206708534903447"><ele>469.0</ele><time>2026-04-30T16:05:46Z</time></trkpt><trkpt lat="39.7443508700192" lon="9.206825800648271"><ele>469.5</ele><time>2026-04-30T16:05:47Z</time></trkpt><trkpt lat="39.74423747444943" lon="9.206895361495796"><ele>470.0</ele><time>2026-04-30T16:05:48Z</time></trkpt><trkpt lat="39.744105234203005" lon="9.206886801345803"><ele>470.0</ele><time>2026-04-30T16:05:49Z</time></trkpt><trkpt lat="39.743968375804876" lon="9.206850417983262"><ele>470.0</ele><time>2026-04-30T16:05:50Z</time></trkpt><trkpt lat="39.74380444782687" lon="9.206821738264182"><ele>470.0</ele><time>2026-04-30T16:05:51Z</time></trkpt><trkpt lat="39.743646098282404" lon="9.20677605780108"><ele>471.0</ele><time>2026-04-30T16:05:52Z</time></trkpt><trkpt lat="39.74348988922737" lon="9.206786564150644"><ele>472.0</ele><time>2026-04-30T16:05:53Z</time></trkpt><trkpt lat="39.743329070378955" lon="9.206861057097116"><ele>473.0</ele><time>2026-04-30T16:05:54Z</time></trkpt><trkpt lat="39.74315734454889" lon="9.206968643476728"><ele>473.0</ele><time>2026-04-30T16:05:55Z</time></trkpt><trkpt lat="39.74298494002977" lon="9.207076102053929"><ele>473.0</ele><time>2026-04-30T16:05:56Z</time></trkpt><trkpt lat="39.74281540749261" lon="9.207188951404094"><ele>473.0</ele><time>2026-04-30T16:05:57Z</time></trkpt><trkpt lat="39.742645382467984" lon="9.20730594677662"><ele>477.0</ele><time>2026-04-30T16:05:58Z</time></trkpt><trkpt lat="39.74248002431715" lon="9.207410820339026"><ele>481.0</ele><time>2026-04-30T16:05:59Z</time></trkpt><trkpt lat="39.742335377548514" lon="9.207502273628696"><ele>485.0</ele><time>2026-04-30T16:06:00Z</time></trkpt><trkpt lat="39.74221413046145" lon="9.20759702980688"><ele>485.0</ele><time>2026-04-30T16:06:01Z</time></trkpt><trkpt lat="39.74212845084235" lon="9.20774100123568"><ele>485.0</ele><time>2026-04-30T16:06:02Z</time></trkpt><trkpt lat="39.74208267098449" lon="9.207936062108047"><ele>485.0</ele><time>2026-04-30T16:06:03Z</time></trkpt><trkpt lat="39.742040298098985" lon="9.208150708197012"><ele>484.3333333333333</ele><time>2026-04-30T16:06:04Z</time></trkpt><trkpt lat="39.74197289615563" lon="9.208362511434622"><ele>483.66666666666663</ele><time>2026-04-30T16:06:05Z</time></trkpt><trkpt lat="39.74186071847927" lon="9.208529879170003"><ele>483.0</ele><time>2026-04-30T16:06:06Z</time></trkpt><trkpt lat="39.741753182437876" lon="9.20869279349601"><ele>483.0</ele><time>2026-04-30T16:06:07Z</time></trkpt><trkpt lat="39.741663970576596" lon="9.208847301792227"><ele>483.0</ele><time>2026-04-30T16:06:08Z</time></trkpt><trkpt lat="39.74161781425749" lon="9.209029563478515"><ele>483.0</ele><time>2026-04-30T16:06:09Z</time></trkpt><trkpt lat="39.74159267392719" lon="9.209191979184316"><ele>483.0</ele><time>2026-04-30T16:06:10Z</time></trkpt><trkpt lat="39.74154047196118" lon="9.209322079425098"><ele>486.75</ele><time>2026-04-30T16:06:11Z</time></trkpt><trkpt lat="39.74144875704409" lon="9.209359693891704"><ele>490.5</ele><time>2026-04-30T16:06:12Z</time></trkpt><trkpt lat="39.74133528016694" lon="9.209316132854019"><ele>494.25</ele><time>2026-04-30T16:06:13Z</time></trkpt><trkpt lat="39.74120587491665" lon="9.209258303020139"><ele>498.0</ele><time>2026-04-30T16:06:14Z</time></trkpt><trkpt lat="39.74105921793416" lon="9.209252314315341"><ele>498.25</ele><time>2026-04-30T16:06:15Z</time></trkpt><trkpt lat="39.740911776315514" lon="9.209288579920862"><ele>498.5</ele><time>2026-04-30T16:06:15.999Z</time></trkpt><trkpt lat="39.74077781823363" lon="9.209319937750937"><ele>498.75</ele><time>2026-04-30T16:06:16.999Z</time></trkpt><trkpt lat="39.74065998831696" lon="9.209301371412808"><ele>499.0</ele><time>2026-04-30T16:06:17.999Z</time></trkpt><trkpt lat="39.740596745021996" lon="9.209311519886578"><ele>499.0</ele><time>2026-04-30T16:06:18.999Z</time></trkpt><trkpt lat="39.74053783937148" lon="9.209011684653596"><ele>499.0</ele><time>2026-04-30T16:06:19.999Z</time></trkpt><trkpt lat="39.74052882566076" lon="9.208803256744314"><ele>499.0</ele><time>2026-04-30T16:06:20.999Z</time></trkpt><trkpt lat="39.7405133494997" lon="9.208617664861588"><ele>499.0</ele><time>2026-04-30T16:06:21.999Z</time></trkpt><trkpt lat="39.74046106360461" lon="9.208498003868801"><ele>499.0</ele><time>2026-04-30T16:06:22.999Z</time></trkpt><trkpt lat="39.74034765924416" lon="9.208431847028463"><ele>499.0</ele><time>2026-04-30T16:06:23.999Z</time></trkpt><trkpt lat="39.74019031916007" lon="9.208434250544766"><ele>499.0</ele><time>2026-04-30T16:06:24.999Z</time></trkpt><trkpt lat="39.74002534431248" lon="9.208416832769208"><ele>499.0</ele><time>2026-04-30T16:06:25.999Z</time></trkpt><trkpt lat="39.73989359629172" lon="9.208356914478236"><ele>499.0</ele><time>2026-04-30T16:06:26.999Z</time></trkpt><trkpt lat="39.73978161619132" lon="9.208302626431886"><ele>499.0</ele><time>2026-04-30T16:06:27.999Z</time></trkpt><trkpt lat="39.739666830531" lon="9.20829975640642"><ele>499.0</ele><time>2026-04-30T16:06:28.999Z</time></trkpt><trkpt lat="39.73954288865143" lon="9.208425408905565"><ele>499.0</ele><time>2026-04-30T16:06:29.999Z</time></trkpt><trkpt lat="39.739419493716504" lon="9.20860030793202"><ele>499.0</ele><time>2026-04-30T16:06:30.999Z</time></trkpt><trkpt lat="39.73930872493218" lon="9.208837264966197"><ele>499.0</ele><time>2026-04-30T16:06:31.999Z</time></trkpt><trkpt lat="39.739202095412274" lon="9.209072804272648"><ele>502.33333333333337</ele><time>2026-04-30T16:06:32.999Z</time></trkpt><trkpt lat="39.73910180791623" lon="9.209285916048005"><ele>505.66666666666663</ele><time>2026-04-30T16:06:33.999Z</time></trkpt><trkpt lat="39.7390037158096" lon="9.209447098764507"><ele>509.0</ele><time>2026-04-30T16:06:34.999Z</time></trkpt><trkpt lat="39.738890163501566" lon="9.209549377271344"><ele>509.0</ele><time>2026-04-30T16:06:35.999Z</time></trkpt><trkpt lat="39.73877659162737" lon="9.209578169026969"><ele>509.0</ele><time>2026-04-30T16:06:36.999Z</time></trkpt><trkpt lat="39.738638829133194" lon="9.209538232248724"><ele>509.0</ele><time>2026-04-30T16:06:37.999Z</time></trkpt><trkpt lat="39.738478085511744" lon="9.209546870468115"><ele>509.0</ele><time>2026-04-30T16:06:38.999Z</time></trkpt><trkpt lat="39.738315783249774" lon="9.20962104064257"><ele>512.0</ele><time>2026-04-30T16:06:39.999Z</time></trkpt><trkpt lat="39.73817957039223" lon="9.209718291716754"><ele>515.0</ele><time>2026-04-30T16:06:40.999Z</time></trkpt><trkpt lat="39.738078651346186" lon="9.20985766622939"><ele>518.0</ele><time>2026-04-30T16:06:41.999Z</time></trkpt><trkpt lat="39.73801386164218" lon="9.210031778731842"><ele>518.0</ele><time>2026-04-30T16:06:42.999Z</time></trkpt><trkpt lat="39.7379885600264" lon="9.210216586911514"><ele>518.0</ele><time>2026-04-30T16:06:43.999Z</time></trkpt><trkpt lat="39.73801905703619" lon="9.210420185132554"><ele>518.0</ele><time>2026-04-30T16:06:44.999Z</time></trkpt><trkpt lat="39.73806676309726" lon="9.210654284333954"><ele>521.3333333333333</ele><time>2026-04-30T16:06:45.999Z</time></trkpt><trkpt lat="39.738093807769566" lon="9.21089156582422"><ele>524.6666666666666</ele><time>2026-04-30T16:06:46.999Z</time></trkpt><trkpt lat="39.73808826458404" lon="9.211123125042448"><ele>528.0</ele><time>2026-04-30T16:06:47.999Z</time></trkpt><trkpt lat="39.7380807385483" lon="9.211342088437439"><ele>528.3333333333334</ele><time>2026-04-30T16:06:48.999Z</time></trkpt><trkpt lat="39.738113909346175" lon="9.211561321363146"><ele>528.6666666666667</ele><time>2026-04-30T16:06:49.999Z</time></trkpt><trkpt lat="39.73819202911275" lon="9.211785355126946"><ele>529.0</ele><time>2026-04-30T16:06:51Z</time></trkpt><trkpt lat="39.738260196854014" lon="9.212006091389272"><ele>529.0</ele><time>2026-04-30T16:06:52Z</time></trkpt><trkpt lat="39.738299141637796" lon="9.2122204533613"><ele>529.0</ele><time>2026-04-30T16:06:53Z</time></trkpt><trkpt lat="39.73828772366096" lon="9.212441257570392"><ele>529.0</ele><time>2026-04-30T16:06:54Z</time></trkpt><trkpt lat="39.73823963848428" lon="9.212657929639125"><ele>529.6666666666667</ele><time>2026-04-30T16:06:55Z</time></trkpt><trkpt lat="39.738162547006105" lon="9.21286521062128"><ele>530.3333333333334</ele><time>2026-04-30T16:06:56Z</time></trkpt><trkpt lat="39.73808397891458" lon="9.213064892752485"><ele>531.0</ele><time>2026-04-30T16:06:57Z</time></trkpt><trkpt lat="39.737998595939935" lon="9.213233108606602"><ele>532.25</ele><time>2026-04-30T16:06:58Z</time></trkpt><trkpt lat="39.737911074715576" lon="9.213361134165403"><ele>533.5</ele><time>2026-04-30T16:06:59Z</time></trkpt><trkpt lat="39.73780155974758" lon="9.213433531344071"><ele>534.75</ele><time>2026-04-30T16:07:00Z</time></trkpt><trkpt lat="39.73767536322691" lon="9.213433875109622"><ele>536.0</ele><time>2026-04-30T16:07:01Z</time></trkpt><trkpt lat="39.73755876407883" lon="9.21337624170783"><ele>536.25</ele><time>2026-04-30T16:07:02Z</time></trkpt><trkpt lat="39.737460956610825" lon="9.213272870954206"><ele>536.5</ele><time>2026-04-30T16:07:03Z</time></trkpt><trkpt lat="39.737427012686254" lon="9.21312827795274"><ele>536.75</ele><time>2026-04-30T16:07:04Z</time></trkpt><trkpt lat="39.737424544567446" lon="9.212920171362093"><ele>537.0</ele><time>2026-04-30T16:07:05Z</time></trkpt><trkpt lat="39.73740713076871" lon="9.212700615761952"><ele>535.0</ele><time>2026-04-30T16:07:06Z</time></trkpt><trkpt lat="39.73736780096374" lon="9.212473862660428"><ele>533.0</ele><time>2026-04-30T16:07:07Z</time></trkpt><trkpt lat="39.73732649488006" lon="9.212259627373445"><ele>531.0</ele><time>2026-04-30T16:07:08Z</time></trkpt><trkpt lat="39.737285801691925" lon="9.212070867712022"><ele>529.6</ele><time>2026-04-30T16:07:09Z</time></trkpt><trkpt lat="39.73724201341425" lon="9.211926967531292"><ele>528.2</ele><time>2026-04-30T16:07:10Z</time></trkpt><trkpt lat="39.7371840553045" lon="9.211828751847518"><ele>526.8</ele><time>2026-04-30T16:07:11Z</time></trkpt><trkpt lat="39.737092200047734" lon="9.211791666217106"><ele>525.4</ele><time>2026-04-30T16:07:12Z</time></trkpt><trkpt lat="39.73698360416335" lon="9.21182935363158"><ele>524.0</ele><time>2026-04-30T16:07:13Z</time></trkpt><trkpt lat="39.73688127463622" lon="9.211931439772329"><ele>524.0</ele><time>2026-04-30T16:07:14Z</time></trkpt><trkpt lat="39.73678990250157" lon="9.212110318195105"><ele>524.0</ele><time>2026-04-30T16:07:15Z</time></trkpt><trkpt lat="39.73669576436458" lon="9.21229626877741"><ele>524.0</ele><time>2026-04-30T16:07:16Z</time></trkpt><trkpt lat="39.73658926955357" lon="9.21247641134265"><ele>526.75</ele><time>2026-04-30T16:07:17Z</time></trkpt><trkpt lat="39.73649674232187" lon="9.21264031858781"><ele>529.5</ele><time>2026-04-30T16:07:18Z</time></trkpt><trkpt lat="39.73644407707708" lon="9.212811944694545"><ele>532.25</ele><time>2026-04-30T16:07:19Z</time></trkpt><trkpt lat="39.73641278754335" lon="9.2129975777437"><ele>535.0</ele><time>2026-04-30T16:07:20Z</time></trkpt><trkpt lat="39.73635675622521" lon="9.213150539842765"><ele>537.75</ele><time>2026-04-30T16:07:21Z</time></trkpt><trkpt lat="39.73626644211196" lon="9.213244819042941"><ele>540.5</ele><time>2026-04-30T16:07:22Z</time></trkpt><trkpt lat="39.73613338429777" lon="9.213251368413715"><ele>543.25</ele><time>2026-04-30T16:07:23Z</time></trkpt><trkpt lat="39.73597076540864" lon="9.213229396650576"><ele>546.0</ele><time>2026-04-30T16:07:24Z</time></trkpt><trkpt lat="39.73578207659482" lon="9.213198799997775"><ele>546.0</ele><time>2026-04-30T16:07:25Z</time></trkpt><trkpt lat="39.73558167478758" lon="9.213161057543253"><ele>546.0</ele><time>2026-04-30T16:07:26Z</time></trkpt><trkpt lat="39.735384265946685" lon="9.213127167812559"><ele>546.0</ele><time>2026-04-30T16:07:27Z</time></trkpt><trkpt lat="39.735195035154014" lon="9.213083973048533"><ele>545.0</ele><time>2026-04-30T16:07:28Z</time></trkpt><trkpt lat="39.73501558839318" lon="9.213014571008095"><ele>544.0</ele><time>2026-04-30T16:07:29Z</time></trkpt><trkpt lat="39.734851741278305" lon="9.212896892646251"><ele>543.0</ele><time>2026-04-30T16:07:30Z</time></trkpt><trkpt lat="39.734709737958596" lon="9.212768387377793"><ele>543.0</ele><time>2026-04-30T16:07:31Z</time></trkpt><trkpt lat="39.73459735973856" lon="9.212622694508646"><ele>543.0</ele><time>2026-04-30T16:07:32Z</time></trkpt><trkpt lat="39.73453265314371" lon="9.21245780891754"><ele>543.0</ele><time>2026-04-30T16:07:33Z</time></trkpt><trkpt lat="39.73451371337509" lon="9.212266907574648"><ele>543.0</ele><time>2026-04-30T16:07:34Z</time></trkpt><trkpt lat="39.73453635669599" lon="9.212073091741347"><ele>544.25</ele><time>2026-04-30T16:07:35Z</time></trkpt><trkpt lat="39.73464087557372" lon="9.211926279554216"><ele>545.5</ele><time>2026-04-30T16:07:36Z</time></trkpt><trkpt lat="39.73472618964509" lon="9.211811583860628"><ele>546.75</ele><time>2026-04-30T16:07:37Z</time></trkpt><trkpt lat="39.734829057368685" lon="9.21169378268559"><ele>548.0</ele><time>2026-04-30T16:07:38Z</time></trkpt><trkpt lat="39.73494099864375" lon="9.211560731460853"><ele>550.6666666666666</ele><time>2026-04-30T16:07:39Z</time></trkpt><trkpt lat="39.735045712929264" lon="9.211414396591111"><ele>553.3333333333334</ele><time>2026-04-30T16:07:40Z</time></trkpt><trkpt lat="39.73512586523346" lon="9.211235038121545"><ele>556.0</ele><time>2026-04-30T16:07:41Z</time></trkpt><trkpt lat="39.735173617337104" lon="9.21105504490667"><ele>554.25</ele><time>2026-04-30T16:07:42Z</time></trkpt><trkpt lat="39.735240705647584" lon="9.210906512739898"><ele>552.5</ele><time>2026-04-30T16:07:43Z</time></trkpt><trkpt lat="39.735257257837254" lon="9.210749095169492"><ele>550.75</ele><time>2026-04-30T16:07:44Z</time></trkpt><trkpt lat="39.73525393024874" lon="9.210586110870493"><ele>549.0</ele><time>2026-04-30T16:07:45Z</time></trkpt><trkpt lat="39.73520512144305" lon="9.210416218815828"><ele>549.0</ele><time>2026-04-30T16:07:46Z</time></trkpt><trkpt lat="39.73513979005604" lon="9.210283927578807"><ele>549.0</ele><time>2026-04-30T16:07:47Z</time></trkpt><trkpt lat="39.735068179485495" lon="9.210193645760352"><ele>549.0</ele><time>2026-04-30T16:07:48Z</time></trkpt><trkpt lat="39.73499496105478" lon="9.2101455022385"><ele>549.0</ele><time>2026-04-30T16:07:49Z</time></trkpt><trkpt lat="39.7349059528698" lon="9.210134027726145"><ele>549.0</ele><time>2026-04-30T16:07:49.999Z</time></trkpt><trkpt lat="39.73480359978497" lon="9.21011418978924"><ele>549.0</ele><time>2026-04-30T16:07:50.999Z</time></trkpt><trkpt lat="39.734695565562255" lon="9.210082711505436"><ele>549.0</ele><time>2026-04-30T16:07:51.999Z</time></trkpt><trkpt lat="39.73457778373889" lon="9.210038546635625"><ele>549.0</ele><time>2026-04-30T16:07:52.999Z</time></trkpt><trkpt lat="39.73445378926818" lon="9.20999194136887"><ele>549.0</ele><time>2026-04-30T16:07:53.999Z</time></trkpt><trkpt lat="39.73431614001295" lon="9.209948658760453"><ele>551.0</ele><time>2026-04-30T16:07:54.999Z</time></trkpt><trkpt lat="39.73417204212012" lon="9.20994344602368"><ele>553.0</ele><time>2026-04-30T16:07:55.999Z</time></trkpt><trkpt lat="39.7340224388489" lon="9.209981801356168"><ele>555.0</ele><time>2026-04-30T16:07:56.999Z</time></trkpt><trkpt lat="39.73387209279115" lon="9.21004359538889"><ele>555.0</ele><time>2026-04-30T16:07:57.999Z</time></trkpt><trkpt lat="39.73372286968019" lon="9.210132991068608"><ele>555.0</ele><time>2026-04-30T16:07:58.999Z</time></trkpt><trkpt lat="39.733570930715" lon="9.21022919420261"><ele>555.0</ele><time>2026-04-30T16:07:59.999Z</time></trkpt><trkpt lat="39.7334201476838" lon="9.210326099160115"><ele>555.6666666666666</ele><time>2026-04-30T16:08:00.999Z</time></trkpt><trkpt lat="39.73326929205308" lon="9.21042625308733"><ele>556.3333333333333</ele><time>2026-04-30T16:08:01.999Z</time></trkpt><trkpt lat="39.733125412706215" lon="9.210549112952464"><ele>557.0</ele><time>2026-04-30T16:08:02.999Z</time></trkpt><trkpt lat="39.73299450081675" lon="9.210677804385197"><ele>559.0</ele><time>2026-04-30T16:08:03.999Z</time></trkpt><trkpt lat="39.73286577592246" lon="9.210816706624149"><ele>561.0</ele><time>2026-04-30T16:08:04.999Z</time></trkpt><trkpt lat="39.73272178714475" lon="9.210930374048454"><ele>563.0</ele><time>2026-04-30T16:08:05.999Z</time></trkpt><trkpt lat="39.73256510591198" lon="9.21100338472337"><ele>563.0</ele><time>2026-04-30T16:08:06.999Z</time></trkpt><trkpt lat="39.73239445130793" lon="9.211029856407814"><ele>563.0</ele><time>2026-04-30T16:08:07.999Z</time></trkpt><trkpt lat="39.73222860585144" lon="9.211007671878585"><ele>563.0</ele><time>2026-04-30T16:08:08.999Z</time></trkpt><trkpt lat="39.73206068410254" lon="9.210964639942814"><ele>564.0</ele><time>2026-04-30T16:08:09.999Z</time></trkpt><trkpt lat="39.731869022464174" lon="9.210911416999854"><ele>565.0</ele><time>2026-04-30T16:08:10.999Z</time></trkpt><trkpt lat="39.73168566258746" lon="9.210832464410444"><ele>566.0</ele><time>2026-04-30T16:08:11.999Z</time></trkpt><trkpt lat="39.73149716959006" lon="9.210752973609159"><ele>566.0</ele><time>2026-04-30T16:08:12.999Z</time></trkpt><trkpt lat="39.73130159917541" lon="9.210681196786647"><ele>566.0</ele><time>2026-04-30T16:08:13.999Z</time></trkpt><trkpt lat="39.73109996990119" lon="9.210605134843405"><ele>566.0</ele><time>2026-04-30T16:08:14.999Z</time></trkpt><trkpt lat="39.730893921480494" lon="9.210525206141662"><ele>566.3333333333333</ele><time>2026-04-30T16:08:15.999Z</time></trkpt><trkpt lat="39.730679433893634" lon="9.21044007630117"><ele>566.6666666666666</ele><time>2026-04-30T16:08:16.999Z</time></trkpt><trkpt lat="39.730467840481296" lon="9.210358069238728"><ele>567.0</ele><time>2026-04-30T16:08:17.999Z</time></trkpt><trkpt lat="39.730253346406464" lon="9.21027798185952"><ele>566.6666666666666</ele><time>2026-04-30T16:08:18.999Z</time></trkpt><trkpt lat="39.730043226045645" lon="9.210191328653607"><ele>566.3333333333333</ele><time>2026-04-30T16:08:19.999Z</time></trkpt><trkpt lat="39.72983450969501" lon="9.21010773676073"><ele>566.0</ele><time>2026-04-30T16:08:20.999Z</time></trkpt><trkpt lat="39.72963519473911" lon="9.210031982736163"><ele>566.0</ele><time>2026-04-30T16:08:21.999Z</time></trkpt><trkpt lat="39.72943743847768" lon="9.20995464042721"><ele>566.0</ele><time>2026-04-30T16:08:22.999Z</time></trkpt><trkpt lat="39.72923803180622" lon="9.209883524073183"><ele>566.0</ele><time>2026-04-30T16:08:23.999Z</time></trkpt><trkpt lat="39.729041033589844" lon="9.209802349474526"><ele>566.3333333333333</ele><time>2026-04-30T16:08:24.999Z</time></trkpt><trkpt lat="39.728838501067706" lon="9.209723520527913"><ele>566.6666666666666</ele><time>2026-04-30T16:08:25.999Z</time></trkpt><trkpt lat="39.72863577150483" lon="9.209646212629211"><ele>567.0</ele><time>2026-04-30T16:08:26.999Z</time></trkpt><trkpt lat="39.72843542134393" lon="9.209565017914036"><ele>567.0</ele><time>2026-04-30T16:08:27.999Z</time></trkpt><trkpt lat="39.728236826046" lon="9.209485862772121"><ele>567.0</ele><time>2026-04-30T16:08:28.999Z</time></trkpt><trkpt lat="39.728037568308395" lon="9.209410626533908"><ele>567.0</ele><time>2026-04-30T16:08:29.999Z</time></trkpt><trkpt lat="39.72783101637077" lon="9.209334430971818"><ele>566.6666666666666</ele><time>2026-04-30T16:08:30.999Z</time></trkpt><trkpt lat="39.727625920551745" lon="9.20925677559704"><ele>566.3333333333333</ele><time>2026-04-30T16:08:31.999Z</time></trkpt><trkpt lat="39.72741662425929" lon="9.209171263651989"><ele>566.0</ele><time>2026-04-30T16:08:32.999Z</time></trkpt><trkpt lat="39.72721076876478" lon="9.209088788598475"><ele>566.0</ele><time>2026-04-30T16:08:33.999Z</time></trkpt><trkpt lat="39.726999264839044" lon="9.209010128340992"><ele>566.0</ele><time>2026-04-30T16:08:34.999Z</time></trkpt><trkpt lat="39.726789351532766" lon="9.208928076646515"><ele>566.0</ele><time>2026-04-30T16:08:35.999Z</time></trkpt><trkpt lat="39.726579319086426" lon="9.208842776675514"><ele>566.3333333333333</ele><time>2026-04-30T16:08:36.999Z</time></trkpt><trkpt lat="39.72636870050603" lon="9.20875962162282"><ele>566.6666666666666</ele><time>2026-04-30T16:08:37.999Z</time></trkpt><trkpt lat="39.726160948005386" lon="9.208680312915778"><ele>567.0</ele><time>2026-04-30T16:08:38.999Z</time></trkpt><trkpt lat="39.72595634346049" lon="9.208596614867615"><ele>566.3333333333334</ele><time>2026-04-30T16:08:39.999Z</time></trkpt><trkpt lat="39.72575515724859" lon="9.208510882131062"><ele>565.6666666666667</ele><time>2026-04-30T16:08:40.999Z</time></trkpt><trkpt lat="39.72555725674506" lon="9.208423018843694"><ele>565.0</ele><time>2026-04-30T16:08:41.999Z</time></trkpt><trkpt lat="39.72535986358176" lon="9.208325748808795"><ele>563.6666666666667</ele><time>2026-04-30T16:08:42.999Z</time></trkpt><trkpt lat="39.72516564766679" lon="9.208219815604657"><ele>562.3333333333334</ele><time>2026-04-30T16:08:43.999Z</time></trkpt><trkpt lat="39.72497789713048" lon="9.208100781325122"><ele>561.0</ele><time>2026-04-30T16:08:44.999Z</time></trkpt><trkpt lat="39.72479621121965" lon="9.207971316754728"><ele>561.6666666666666</ele><time>2026-04-30T16:08:45.999Z</time></trkpt><trkpt lat="39.72462005703874" lon="9.207831963839784"><ele>562.3333333333333</ele><time>2026-04-30T16:08:46.999Z</time></trkpt><trkpt lat="39.72445298716688" lon="9.207686165351777"><ele>563.0</ele><time>2026-04-30T16:08:47.999Z</time></trkpt><trkpt lat="39.72429377767253" lon="9.2075326220546"><ele>563.0</ele><time>2026-04-30T16:08:48.999Z</time></trkpt><trkpt lat="39.724146868656625" lon="9.207371503405346"><ele>563.0</ele><time>2026-04-30T16:08:49.999Z</time></trkpt><trkpt lat="39.72401087661797" lon="9.207211048920552"><ele>563.0</ele><time>2026-04-30T16:08:50.999Z</time></trkpt><trkpt lat="39.723882020126666" lon="9.2070412669573"><ele>563.6666666666666</ele><time>2026-04-30T16:08:51.999Z</time></trkpt><trkpt lat="39.72375391939516" lon="9.20686348797926"><ele>564.3333333333334</ele><time>2026-04-30T16:08:52.999Z</time></trkpt><trkpt lat="39.7236347346694" lon="9.206673845062811"><ele>565.0</ele><time>2026-04-30T16:08:53.999Z</time></trkpt><trkpt lat="39.72352387887472" lon="9.20648057559282"><ele>562.3333333333334</ele><time>2026-04-30T16:08:54.999Z</time></trkpt><trkpt lat="39.723420905373864" lon="9.206292358415716"><ele>559.6666666666666</ele><time>2026-04-30T16:08:56Z</time></trkpt><trkpt lat="39.72332272107039" lon="9.20610380791784"><ele>557.0</ele><time>2026-04-30T16:08:57Z</time></trkpt><trkpt lat="39.723235571522245" lon="9.205919299526238"><ele>557.0</ele><time>2026-04-30T16:08:58Z</time></trkpt><trkpt lat="39.72318116112856" lon="9.205732783395243"><ele>557.0</ele><time>2026-04-30T16:08:59Z</time></trkpt><trkpt lat="39.72314100026411" lon="9.205566631950324"><ele>557.0</ele><time>2026-04-30T16:09:00Z</time></trkpt><trkpt lat="39.72313665084833" lon="9.205391545162513"><ele>557.0</ele><time>2026-04-30T16:09:01Z</time></trkpt><trkpt lat="39.7231722828565" lon="9.205226992752394"><ele>556.5</ele><time>2026-04-30T16:09:02Z</time></trkpt><trkpt lat="39.72323850367113" lon="9.205077764003603"><ele>556.0</ele><time>2026-04-30T16:09:03Z</time></trkpt><trkpt lat="39.72332870452938" lon="9.204922877398326"><ele>555.5</ele><time>2026-04-30T16:09:04Z</time></trkpt><trkpt lat="39.72341746400607" lon="9.20474465581229"><ele>555.0</ele><time>2026-04-30T16:09:05Z</time></trkpt><trkpt lat="39.7234736442001" lon="9.204540663577442"><ele>555.6666666666666</ele><time>2026-04-30T16:09:06Z</time></trkpt><trkpt lat="39.72347457063912" lon="9.204306120549797"><ele>556.3333333333333</ele><time>2026-04-30T16:09:07Z</time></trkpt><trkpt lat="39.723461265135235" lon="9.204053241975002"><ele>557.0</ele><time>2026-04-30T16:09:08Z</time></trkpt><trkpt lat="39.72347076683396" lon="9.203796556844265"><ele>557.0</ele><time>2026-04-30T16:09:09Z</time></trkpt><trkpt lat="39.72346708886671" lon="9.203540101139978"><ele>557.0</ele><time>2026-04-30T16:09:10Z</time></trkpt><trkpt lat="39.72346371766743" lon="9.203308098025868"><ele>557.0</ele><time>2026-04-30T16:09:11Z</time></trkpt><trkpt lat="39.72345390651581" lon="9.203095598002669"><ele>557.6666666666666</ele><time>2026-04-30T16:09:12Z</time></trkpt><trkpt lat="39.723417700999946" lon="9.202903464397801"><ele>558.3333333333334</ele><time>2026-04-30T16:09:13Z</time></trkpt><trkpt lat="39.72333770124191" lon="9.202722456270997"><ele>559.0</ele><time>2026-04-30T16:09:14Z</time></trkpt><trkpt lat="39.72319818026424" lon="9.202557398512662"><ele>559.0</ele><time>2026-04-30T16:09:15Z</time></trkpt><trkpt lat="39.72303242977202" lon="9.202413457103637"><ele>559.0</ele><time>2026-04-30T16:09:16Z</time></trkpt><trkpt lat="39.72287040104232" lon="9.202274386340227"><ele>559.0</ele><time>2026-04-30T16:09:17Z</time></trkpt><trkpt lat="39.72271639183864" lon="9.202098948764295"><ele>558.3333333333334</ele><time>2026-04-30T16:09:18Z</time></trkpt><trkpt lat="39.72259171649585" lon="9.20188466887642"><ele>557.6666666666666</ele><time>2026-04-30T16:09:19Z</time></trkpt><trkpt lat="39.72245765720829" lon="9.201689379654281"><ele>557.0</ele><time>2026-04-30T16:09:20Z</time></trkpt><trkpt lat="39.72234699178917" lon="9.201456620162075"><ele>558.3333333333333</ele><time>2026-04-30T16:09:21Z</time></trkpt><trkpt lat="39.72224346176156" lon="9.20121819490477"><ele>559.6666666666666</ele><time>2026-04-30T16:09:22Z</time></trkpt><trkpt lat="39.722152302468004" lon="9.200975194436761"><ele>561.0</ele><time>2026-04-30T16:09:23Z</time></trkpt><trkpt lat="39.72206738157307" lon="9.20073190813402"><ele>562.3333333333334</ele><time>2026-04-30T16:09:24Z</time></trkpt><trkpt lat="39.722010939068376" lon="9.200483543610352"><ele>563.6666666666667</ele><time>2026-04-30T16:09:25Z</time></trkpt><trkpt lat="39.721958264402225" lon="9.200251619023986"><ele>565.0</ele><time>2026-04-30T16:09:26Z</time></trkpt><trkpt lat="39.721905732549395" lon="9.200028569621773"><ele>561.6666666666667</ele><time>2026-04-30T16:09:27Z</time></trkpt><trkpt lat="39.72186051022195" lon="9.199800861095223"><ele>558.3333333333334</ele><time>2026-04-30T16:09:28Z</time></trkpt><trkpt lat="39.721814155362594" lon="9.199568116906232"><ele>555.0</ele><time>2026-04-30T16:09:29Z</time></trkpt><trkpt lat="39.72176682258365" lon="9.199329973413041"><ele>555.0</ele><time>2026-04-30T16:09:30Z</time></trkpt><trkpt lat="39.72171836519891" lon="9.199085628232083"><ele>555.0</ele><time>2026-04-30T16:09:31Z</time></trkpt><trkpt lat="39.72167008598401" lon="9.19884052813754"><ele>555.0</ele><time>2026-04-30T16:09:32Z</time></trkpt><trkpt lat="39.721615771348986" lon="9.198595369926554"><ele>556.3333333333334</ele><time>2026-04-30T16:09:33Z</time></trkpt><trkpt lat="39.72154541364394" lon="9.198364815323394"><ele>557.6666666666667</ele><time>2026-04-30T16:09:34Z</time></trkpt><trkpt lat="39.72145047367313" lon="9.19814839401785"><ele>559.0</ele><time>2026-04-30T16:09:35Z</time></trkpt><trkpt lat="39.721328313796114" lon="9.197955831487606"><ele>560.0</ele><time>2026-04-30T16:09:36Z</time></trkpt><trkpt lat="39.7211849729082" lon="9.197777543223207"><ele>561.0</ele><time>2026-04-30T16:09:37Z</time></trkpt><trkpt lat="39.72102083974119" lon="9.197623588664477"><ele>562.0</ele><time>2026-04-30T16:09:38Z</time></trkpt><trkpt lat="39.72085705015074" lon="9.197473245947611"><ele>565.0</ele><time>2026-04-30T16:09:39Z</time></trkpt><trkpt lat="39.7206927201629" lon="9.197329310648229"><ele>568.0</ele><time>2026-04-30T16:09:40Z</time></trkpt><trkpt lat="39.72052028507218" lon="9.197190359410532"><ele>571.0</ele><time>2026-04-30T16:09:41Z</time></trkpt><trkpt lat="39.72033573369534" lon="9.197069896917425"><ele>569.6666666666667</ele><time>2026-04-30T16:09:42Z</time></trkpt><trkpt lat="39.72014494093367" lon="9.196964364373976"><ele>568.3333333333334</ele><time>2026-04-30T16:09:43Z</time></trkpt><trkpt lat="39.71994576653543" lon="9.196880407366336"><ele>567.0</ele><time>2026-04-30T16:09:44Z</time></trkpt><trkpt lat="39.719744183826066" lon="9.19680675198178"><ele>567.0</ele><time>2026-04-30T16:09:45Z</time></trkpt><trkpt lat="39.71954695404919" lon="9.196732321805742"><ele>567.0</ele><time>2026-04-30T16:09:46Z</time></trkpt><trkpt lat="39.719351165712695" lon="9.196631093166385"><ele>567.0</ele><time>2026-04-30T16:09:47Z</time></trkpt><trkpt lat="39.71916255600265" lon="9.196499617826706"><ele>570.6666666666666</ele><time>2026-04-30T16:09:48Z</time></trkpt><trkpt lat="39.71898011174065" lon="9.196349430141773"><ele>574.3333333333333</ele><time>2026-04-30T16:09:49Z</time></trkpt><trkpt lat="39.71880256624509" lon="9.196191447490657"><ele>578.0</ele><time>2026-04-30T16:09:50Z</time></trkpt><trkpt lat="39.7186232010228" lon="9.19603479572283"><ele>579.3333333333333</ele><time>2026-04-30T16:09:51Z</time></trkpt><trkpt lat="39.718441830583515" lon="9.195880487912358"><ele>580.6666666666666</ele><time>2026-04-30T16:09:52Z</time></trkpt><trkpt lat="39.7182584209406" lon="9.195731867430805"><ele>582.0</ele><time>2026-04-30T16:09:53Z</time></trkpt><trkpt lat="39.71807457628384" lon="9.195583937218712"><ele>582.0</ele><time>2026-04-30T16:09:54Z</time></trkpt><trkpt lat="39.717896470080724" lon="9.195445287345477"><ele>582.0</ele><time>2026-04-30T16:09:55Z</time></trkpt><trkpt lat="39.71772094411131" lon="9.195326523512108"><ele>582.0</ele><time>2026-04-30T16:09:56Z</time></trkpt><trkpt lat="39.717534046355034" lon="9.19523260177992"><ele>581.0</ele><time>2026-04-30T16:09:57Z</time></trkpt><trkpt lat="39.71734768537017" lon="9.1951427857404"><ele>580.0</ele><time>2026-04-30T16:09:58Z</time></trkpt><trkpt lat="39.717178448817265" lon="9.195042446099029"><ele>579.0</ele><time>2026-04-30T16:09:59Z</time></trkpt><trkpt lat="39.717020687250965" lon="9.194932751001163"><ele>581.3333333333334</ele><time>2026-04-30T16:10:00Z</time></trkpt><trkpt lat="39.71686639531923" lon="9.194830711860515"><ele>583.6666666666667</ele><time>2026-04-30T16:10:00.999Z</time></trkpt><trkpt lat="39.71670506649505" lon="9.194765279308605"><ele>586.0</ele><time>2026-04-30T16:10:01.999Z</time></trkpt><trkpt lat="39.71654364942935" lon="9.194729924787989"><ele>586.0</ele><time>2026-04-30T16:10:02.999Z</time></trkpt><trkpt lat="39.716383799919285" lon="9.194700023451638"><ele>586.0</ele><time>2026-04-30T16:10:03.999Z</time></trkpt><trkpt lat="39.7162346528088" lon="9.19464638612644"><ele>586.0</ele><time>2026-04-30T16:10:04.999Z</time></trkpt><trkpt lat="39.71610290379492" lon="9.194568299590575"><ele>585.75</ele><time>2026-04-30T16:10:05.999Z</time></trkpt><trkpt lat="39.7159912194014" lon="9.19445664638852"><ele>585.5</ele><time>2026-04-30T16:10:06.999Z</time></trkpt><trkpt lat="39.71590550262061" lon="9.194305216667434"><ele>585.25</ele><time>2026-04-30T16:10:07.999Z</time></trkpt><trkpt lat="39.71581020190566" lon="9.19413620250313"><ele>585.0</ele><time>2026-04-30T16:10:08.999Z</time></trkpt><trkpt lat="39.71574087896966" lon="9.193927865523328"><ele>585.0</ele><time>2026-04-30T16:10:09.999Z</time></trkpt><trkpt lat="39.71566119571581" lon="9.193734286235625"><ele>585.0</ele><time>2026-04-30T16:10:10.999Z</time></trkpt><trkpt lat="39.715564753087364" lon="9.193571788294554"><ele>585.0</ele><time>2026-04-30T16:10:11.999Z</time></trkpt><trkpt lat="39.71544986767812" lon="9.193428406530982"><ele>585.0</ele><time>2026-04-30T16:10:12.999Z</time></trkpt><trkpt lat="39.71532909824382" lon="9.193291714389694"><ele>585.0</ele><time>2026-04-30T16:10:13.999Z</time></trkpt><trkpt lat="39.7152145348538" lon="9.193139628379267"><ele>585.0</ele><time>2026-04-30T16:10:14.999Z</time></trkpt><trkpt lat="39.715114656461054" lon="9.192967795355184"><ele>585.0</ele><time>2026-04-30T16:10:15.999Z</time></trkpt><trkpt lat="39.71503184233568" lon="9.19276540753926"><ele>585.0</ele><time>2026-04-30T16:10:16.999Z</time></trkpt><trkpt lat="39.71496619905341" lon="9.192546265232684"><ele>585.0</ele><time>2026-04-30T16:10:17.999Z</time></trkpt><trkpt lat="39.714925084845845" lon="9.192306223612547"><ele>585.0</ele><time>2026-04-30T16:10:18.999Z</time></trkpt><trkpt lat="39.71488861316044" lon="9.192059329398687"><ele>585.0</ele><time>2026-04-30T16:10:19.999Z</time></trkpt><trkpt lat="39.71485022506122" lon="9.191802909718872"><ele>585.0</ele><time>2026-04-30T16:10:20.999Z</time></trkpt><trkpt lat="39.71479719010163" lon="9.19154676557883"><ele>587.0</ele><time>2026-04-30T16:10:21.999Z</time></trkpt><trkpt lat="39.71472751342751" lon="9.191292231374227"><ele>589.0</ele><time>2026-04-30T16:10:22.999Z</time></trkpt><trkpt lat="39.714632237854005" lon="9.191041911960825"><ele>591.0</ele><time>2026-04-30T16:10:23.999Z</time></trkpt><trkpt lat="39.714519833951215" lon="9.190801934304186"><ele>586.6666666666666</ele><time>2026-04-30T16:10:24.999Z</time></trkpt><trkpt lat="39.71438479621405" lon="9.190577886085443"><ele>582.3333333333333</ele><time>2026-04-30T16:10:25.999Z</time></trkpt><trkpt lat="39.71423551707244" lon="9.19035703233164"><ele>578.0</ele><time>2026-04-30T16:10:26.999Z</time></trkpt><trkpt lat="39.71406104659994" lon="9.190159671820542"><ele>578.0</ele><time>2026-04-30T16:10:27.999Z</time></trkpt><trkpt lat="39.713878855759646" lon="9.189980526257003"><ele>578.0</ele><time>2026-04-30T16:10:28.999Z</time></trkpt><trkpt lat="39.71367601990105" lon="9.189831502859093"><ele>577.5</ele><time>2026-04-30T16:10:29.999Z</time></trkpt><trkpt lat="39.713468462122385" lon="9.189702390836228"><ele>577.0</ele><time>2026-04-30T16:10:30.999Z</time></trkpt><trkpt lat="39.71326226776003" lon="9.18957542562044"><ele>577.0</ele><time>2026-04-30T16:10:31.999Z</time></trkpt><trkpt lat="39.713064862550596" lon="9.189440166221452"><ele>577.0</ele><time>2026-04-30T16:10:32.999Z</time></trkpt><trkpt lat="39.71288304452972" lon="9.189278322741847"><ele>577.0</ele><time>2026-04-30T16:10:33.999Z</time></trkpt><trkpt lat="39.71275428424843" lon="9.189048229214189"><ele>574.5</ele><time>2026-04-30T16:10:34.999Z</time></trkpt><trkpt lat="39.712619454495716" lon="9.188804401871856"><ele>572.0</ele><time>2026-04-30T16:10:35.999Z</time></trkpt><trkpt lat="39.71247616973286" lon="9.188540485974169"><ele>572.0</ele><time>2026-04-30T16:10:36.999Z</time></trkpt><trkpt lat="39.7123263815411" lon="9.188289301392935"><ele>572.0</ele><time>2026-04-30T16:10:37.999Z</time></trkpt><trkpt lat="39.71219194837537" lon="9.188033386218123"><ele>570.0</ele><time>2026-04-30T16:10:38.999Z</time></trkpt><trkpt lat="39.71207050894782" lon="9.187800009840656"><ele>568.0</ele><time>2026-04-30T16:10:39.999Z</time></trkpt><trkpt lat="39.71195124497002" lon="9.187582831188282"><ele>566.0</ele><time>2026-04-30T16:10:40.999Z</time></trkpt><trkpt lat="39.711831609465136" lon="9.187398646281041"><ele>569.6666666666666</ele><time>2026-04-30T16:10:41.999Z</time></trkpt><trkpt lat="39.71169825936516" lon="9.187244688855086"><ele>573.3333333333334</ele><time>2026-04-30T16:10:42.999Z</time></trkpt><trkpt lat="39.71154909008639" lon="9.187129987421207"><ele>577.0</ele><time>2026-04-30T16:10:43.999Z</time></trkpt><trkpt lat="39.711382317713934" lon="9.187034756844042"><ele>577.0</ele><time>2026-04-30T16:10:44.999Z</time></trkpt><trkpt lat="39.711216589589206" lon="9.186925139170013"><ele>577.0</ele><time>2026-04-30T16:10:45.999Z</time></trkpt><trkpt lat="39.711060030385994" lon="9.18679513438029"><ele>577.0</ele><time>2026-04-30T16:10:46.999Z</time></trkpt><trkpt lat="39.710910515770365" lon="9.186666326160582"><ele>577.0</ele><time>2026-04-30T16:10:47.999Z</time></trkpt><trkpt lat="39.71077474327016" lon="9.186534392316851"><ele>577.0</ele><time>2026-04-30T16:10:48.999Z</time></trkpt><trkpt lat="39.710649631619965" lon="9.18640408446687"><ele>577.0</ele><time>2026-04-30T16:10:49.999Z</time></trkpt><trkpt lat="39.710540447494616" lon="9.186251124906859"><ele>577.0</ele><time>2026-04-30T16:10:50.999Z</time></trkpt><trkpt lat="39.710443930641524" lon="9.186082611495603"><ele>577.0</ele><time>2026-04-30T16:10:51.999Z</time></trkpt><trkpt lat="39.71033785139616" lon="9.185916332467858"><ele>577.0</ele><time>2026-04-30T16:10:52.999Z</time></trkpt><trkpt lat="39.710198385716375" lon="9.185788576630369"><ele>576.6666666666667</ele><time>2026-04-30T16:10:53.999Z</time></trkpt><trkpt lat="39.710027983314454" lon="9.185691824647257"><ele>576.3333333333334</ele><time>2026-04-30T16:10:54.999Z</time></trkpt><trkpt lat="39.70984527801103" lon="9.185630402620946"><ele>576.0</ele><time>2026-04-30T16:10:55.999Z</time></trkpt><trkpt lat="39.709657652956054" lon="9.185588402545811"><ele>576.0</ele><time>2026-04-30T16:10:56.999Z</time></trkpt><trkpt lat="39.709493589333896" lon="9.18556446697385"><ele>576.0</ele><time>2026-04-30T16:10:57.999Z</time></trkpt><trkpt lat="39.709336198331386" lon="9.185504220890564"><ele>576.0</ele><time>2026-04-30T16:10:58.999Z</time></trkpt><trkpt lat="39.709211412238034" lon="9.185391135727398"><ele>570.3333333333334</ele><time>2026-04-30T16:10:59.999Z</time></trkpt><trkpt lat="39.70909866530377" lon="9.185248709412608"><ele>564.6666666666667</ele><time>2026-04-30T16:11:00.999Z</time></trkpt><trkpt lat="39.709009754165784" lon="9.185075551755064"><ele>559.0</ele><time>2026-04-30T16:11:01.999Z</time></trkpt><trkpt lat="39.708923388137165" lon="9.184874448812408"><ele>561.0</ele><time>2026-04-30T16:11:02.999Z</time></trkpt><trkpt lat="39.708840432332636" lon="9.184665034264953"><ele>563.0</ele><time>2026-04-30T16:11:03.999Z</time></trkpt><trkpt lat="39.708770970671424" lon="9.184448147314471"><ele>565.0</ele><time>2026-04-30T16:11:04.999Z</time></trkpt><trkpt lat="39.70871224266815" lon="9.184213874434805"><ele>565.6666666666667</ele><time>2026-04-30T16:11:05.999Z</time></trkpt><trkpt lat="39.708654340808614" lon="9.18396823163774"><ele>566.3333333333334</ele><time>2026-04-30T16:11:06.999Z</time></trkpt><trkpt lat="39.70858618042306" lon="9.183715533222667"><ele>567.0</ele><time>2026-04-30T16:11:07.999Z</time></trkpt><trkpt lat="39.70851058026304" lon="9.183458704127501"><ele>561.3333333333334</ele><time>2026-04-30T16:11:08.999Z</time></trkpt><trkpt lat="39.70843663963691" lon="9.183196664980962"><ele>555.6666666666667</ele><time>2026-04-30T16:11:09.999Z</time></trkpt><trkpt lat="39.70836925976293" lon="9.18293656024945"><ele>550.0</ele><time>2026-04-30T16:11:10.999Z</time></trkpt><trkpt lat="39.70832358019723" lon="9.182664148537448"><ele>550.0</ele><time>2026-04-30T16:11:11.999Z</time></trkpt><trkpt lat="39.70829584142779" lon="9.182385212072035"><ele>550.0</ele><time>2026-04-30T16:11:12.999Z</time></trkpt><trkpt lat="39.70829241110319" lon="9.182102648539955"><ele>550.0</ele><time>2026-04-30T16:11:13.999Z</time></trkpt><trkpt lat="39.70830846668393" lon="9.181818459586337"><ele>549.3333333333334</ele><time>2026-04-30T16:11:14.999Z</time></trkpt><trkpt lat="39.70834534974479" lon="9.181540414663127"><ele>548.6666666666666</ele><time>2026-04-30T16:11:15.998Z</time></trkpt><trkpt lat="39.70839204603073" lon="9.181261331868127"><ele>548.0</ele><time>2026-04-30T16:11:16.998Z</time></trkpt><trkpt lat="39.70845117865855" lon="9.180980964374385"><ele>549.5</ele><time>2026-04-30T16:11:17.998Z</time></trkpt><trkpt lat="39.70852244363384" lon="9.180702532162346"><ele>551.0</ele><time>2026-04-30T16:11:18.998Z</time></trkpt><trkpt lat="39.708604355045146" lon="9.18042561970158"><ele>551.0</ele><time>2026-04-30T16:11:19.998Z</time></trkpt><trkpt lat="39.70869327282912" lon="9.180151491307626"><ele>551.0</ele><time>2026-04-30T16:11:20.998Z</time></trkpt><trkpt lat="39.70877664840719" lon="9.17988128542418"><ele>549.3333333333333</ele><time>2026-04-30T16:11:21.998Z</time></trkpt><trkpt lat="39.70884720642241" lon="9.179618190046703"><ele>547.6666666666666</ele><time>2026-04-30T16:11:22.998Z</time></trkpt><trkpt lat="39.708902814738835" lon="9.17936737627537"><ele>546.0</ele><time>2026-04-30T16:11:23.998Z</time></trkpt><trkpt lat="39.70894322772627" lon="9.179110909680873"><ele>545.3333333333334</ele><time>2026-04-30T16:11:24.998Z</time></trkpt><trkpt lat="39.708965422290284" lon="9.17884934487506"><ele>544.6666666666667</ele><time>2026-04-30T16:11:25.998Z</time></trkpt><trkpt lat="39.708984788465315" lon="9.178590543291104"><ele>544.0</ele><time>2026-04-30T16:11:26.998Z</time></trkpt><trkpt lat="39.70900186605354" lon="9.17834464779999"><ele>545.3333333333334</ele><time>2026-04-30T16:11:27.998Z</time></trkpt><trkpt lat="39.709011569921" lon="9.17813008492484"><ele>546.6666666666666</ele><time>2026-04-30T16:11:28.998Z</time></trkpt><trkpt lat="39.70899251745936" lon="9.177933769522115"><ele>548.0</ele><time>2026-04-30T16:11:29.998Z</time></trkpt><trkpt lat="39.70893354755198" lon="9.177753772177974"><ele>548.0</ele><time>2026-04-30T16:11:30.998Z</time></trkpt><trkpt lat="39.70884101020476" lon="9.177600770758042"><ele>548.0</ele><time>2026-04-30T16:11:31.998Z</time></trkpt><trkpt lat="39.7087130897636" lon="9.177499923824085"><ele>548.0</ele><time>2026-04-30T16:11:32.998Z</time></trkpt><trkpt lat="39.70854520818762" lon="9.177453489408736"><ele>546.6666666666666</ele><time>2026-04-30T16:11:33.998Z</time></trkpt><trkpt lat="39.70835663977533" lon="9.177451029349152"><ele>545.3333333333334</ele><time>2026-04-30T16:11:34.998Z</time></trkpt><trkpt lat="39.70816688076597" lon="9.177491219923697"><ele>544.0</ele><time>2026-04-30T16:11:35.998Z</time></trkpt><trkpt lat="39.70797529061375" lon="9.177528901391558"><ele>544.0</ele><time>2026-04-30T16:11:36.998Z</time></trkpt><trkpt lat="39.70777744286579" lon="9.17753235833281"><ele>544.0</ele><time>2026-04-30T16:11:37.998Z</time></trkpt><trkpt lat="39.70758591476271" lon="9.177521002380315"><ele>544.0</ele><time>2026-04-30T16:11:38.998Z</time></trkpt><trkpt lat="39.70740478652604" lon="9.177482048573887"><ele>543.6666666666667</ele><time>2026-04-30T16:11:39.998Z</time></trkpt><trkpt lat="39.7072304923316" lon="9.177418708048734"><ele>543.3333333333334</ele><time>2026-04-30T16:11:40.998Z</time></trkpt><trkpt lat="39.70704360104937" lon="9.177356801333381"><ele>543.0</ele><time>2026-04-30T16:11:41.998Z</time></trkpt><trkpt lat="39.706868441403685" lon="9.177284659524338"><ele>547.0</ele><time>2026-04-30T16:11:42.998Z</time></trkpt><trkpt lat="39.706695147266515" lon="9.177207531990938"><ele>551.0</ele><time>2026-04-30T16:11:43.998Z</time></trkpt><trkpt lat="39.70652228910664" lon="9.17711062288634"><ele>555.0</ele><time>2026-04-30T16:11:44.998Z</time></trkpt><trkpt lat="39.70635666409424" lon="9.176992745521629"><ele>555.0</ele><time>2026-04-30T16:11:45.998Z</time></trkpt><trkpt lat="39.70620670095592" lon="9.176855834395845"><ele>555.0</ele><time>2026-04-30T16:11:46.998Z</time></trkpt><trkpt lat="39.70607323572392" lon="9.176697580623982"><ele>555.0</ele><time>2026-04-30T16:11:47.998Z</time></trkpt><trkpt lat="39.705958488673986" lon="9.176526075213623"><ele>552.3333333333334</ele><time>2026-04-30T16:11:48.998Z</time></trkpt><trkpt lat="39.705879746160626" lon="9.176347471650761"><ele>549.6666666666667</ele><time>2026-04-30T16:11:49.998Z</time></trkpt><trkpt lat="39.705849433048144" lon="9.176157753691312"><ele>547.0</ele><time>2026-04-30T16:11:50.998Z</time></trkpt><trkpt lat="39.70585743469863" lon="9.175973245032758"><ele>547.0</ele><time>2026-04-30T16:11:51.998Z</time></trkpt><trkpt lat="39.70588723628515" lon="9.175792464869021"><ele>547.0</ele><time>2026-04-30T16:11:52.998Z</time></trkpt><trkpt lat="39.70588281148798" lon="9.175626106294079"><ele>547.0</ele><time>2026-04-30T16:11:53.998Z</time></trkpt><trkpt lat="39.70582307349766" lon="9.175469460099215"><ele>547.0</ele><time>2026-04-30T16:11:54.998Z</time></trkpt><trkpt lat="39.705719832049034" lon="9.175350263419205"><ele>544.3333333333334</ele><time>2026-04-30T16:11:55.998Z</time></trkpt><trkpt lat="39.7055885867176" lon="9.175245624781438"><ele>541.6666666666666</ele><time>2026-04-30T16:11:56.998Z</time></trkpt><trkpt lat="39.70544931796429" lon="9.175128311394813"><ele>539.0</ele><time>2026-04-30T16:11:57.998Z</time></trkpt><trkpt lat="39.70532415749086" lon="9.174981002551378"><ele>535.6666666666666</ele><time>2026-04-30T16:11:58.998Z</time></trkpt><trkpt lat="39.70520549772985" lon="9.174803600826309"><ele>532.3333333333334</ele><time>2026-04-30T16:11:59.998Z</time></trkpt><trkpt lat="39.705069358538836" lon="9.17464535303912"><ele>529.0</ele><time>2026-04-30T16:12:00.998Z</time></trkpt><trkpt lat="39.70491417990809" lon="9.174515594421734"><ele>529.0</ele><time>2026-04-30T16:12:01.998Z</time></trkpt><trkpt lat="39.70474847826915" lon="9.174400539778812"><ele>529.0</ele><time>2026-04-30T16:12:02.998Z</time></trkpt><trkpt lat="39.704586632401245" lon="9.17427561454108"><ele>529.0</ele><time>2026-04-30T16:12:03.998Z</time></trkpt><trkpt lat="39.70443517334696" lon="9.174131977425972"><ele>526.3333333333334</ele><time>2026-04-30T16:12:04.998Z</time></trkpt><trkpt lat="39.70429165592773" lon="9.173976125480122"><ele>523.6666666666666</ele><time>2026-04-30T16:12:05.998Z</time></trkpt><trkpt lat="39.70414714909725" lon="9.173818399893465"><ele>521.0</ele><time>2026-04-30T16:12:06.998Z</time></trkpt><trkpt lat="39.70400726310495" lon="9.173665370870236"><ele>521.0</ele><time>2026-04-30T16:12:07.998Z</time></trkpt><trkpt lat="39.70386691651436" lon="9.173516947021216"><ele>521.0</ele><time>2026-04-30T16:12:08.998Z</time></trkpt><trkpt lat="39.703730324255176" lon="9.173373915518724"><ele>521.0</ele><time>2026-04-30T16:12:09.998Z</time></trkpt><trkpt lat="39.70360598501721" lon="9.173243328678444"><ele>518.25</ele><time>2026-04-30T16:12:10.998Z</time></trkpt><trkpt lat="39.70348686021928" lon="9.173132536639091"><ele>515.5</ele><time>2026-04-30T16:12:11.998Z</time></trkpt><trkpt lat="39.703361060219166" lon="9.173051824461782"><ele>512.75</ele><time>2026-04-30T16:12:12.998Z</time></trkpt><trkpt lat="39.703211820185274" lon="9.173030309616987"><ele>510.0</ele><time>2026-04-30T16:12:13.998Z</time></trkpt><trkpt lat="39.70304659054349" lon="9.173006978178048"><ele>510.0</ele><time>2026-04-30T16:12:14.998Z</time></trkpt><trkpt lat="39.70288072528301" lon="9.17293480952277"><ele>510.0</ele><time>2026-04-30T16:12:15.998Z</time></trkpt><trkpt lat="39.702716012787334" lon="9.172821095574204"><ele>510.0</ele><time>2026-04-30T16:12:16.998Z</time></trkpt><trkpt lat="39.70257068531328" lon="9.172689229799232"><ele>511.66666666666663</ele><time>2026-04-30T16:12:17.998Z</time></trkpt><trkpt lat="39.7024386050403" lon="9.172553670179362"><ele>513.3333333333333</ele><time>2026-04-30T16:12:18.998Z</time></trkpt><trkpt lat="39.702322636337854" lon="9.172415286897682"><ele>515.0</ele><time>2026-04-30T16:12:19.998Z</time></trkpt><trkpt lat="39.702203033476124" lon="9.172298823636169"><ele>510.0</ele><time>2026-04-30T16:12:20.998Z</time></trkpt><trkpt lat="39.702078338700865" lon="9.172204871280435"><ele>505.0</ele><time>2026-04-30T16:12:21.998Z</time></trkpt><trkpt lat="39.70192611009345" lon="9.172174178976604"><ele>500.0</ele><time>2026-04-30T16:12:22.998Z</time></trkpt><trkpt lat="39.7017578934067" lon="9.172176193625502"><ele>499.66666666666663</ele><time>2026-04-30T16:12:23.998Z</time></trkpt><trkpt lat="39.70157590220977" lon="9.172186714836045"><ele>499.33333333333337</ele><time>2026-04-30T16:12:24.998Z</time></trkpt><trkpt lat="39.70139419348514" lon="9.172191160444473"><ele>499.0</ele><time>2026-04-30T16:12:25.998Z</time></trkpt><trkpt lat="39.701215638816606" lon="9.172192879726785"><ele>497.33333333333337</ele><time>2026-04-30T16:12:26.998Z</time></trkpt><trkpt lat="39.701032506379285" lon="9.172189601859726"><ele>495.66666666666663</ele><time>2026-04-30T16:12:27.998Z</time></trkpt><trkpt lat="39.70084807249386" lon="9.172207520408987"><ele>494.0</ele><time>2026-04-30T16:12:28.998Z</time></trkpt><trkpt lat="39.70065917348156" lon="9.172233551815518"><ele>494.0</ele><time>2026-04-30T16:12:29.998Z</time></trkpt><trkpt lat="39.70046521185662" lon="9.172277148747368"><ele>494.0</ele><time>2026-04-30T16:12:30.997Z</time></trkpt><trkpt lat="39.70027778455927" lon="9.172341566110015"><ele>494.0</ele><time>2026-04-30T16:12:31.997Z</time></trkpt><trkpt lat="39.70009688722419" lon="9.172414376904504"><ele>496.3333333333333</ele><time>2026-04-30T16:12:32.997Z</time></trkpt><trkpt lat="39.69991916128522" lon="9.172493628285137"><ele>498.66666666666663</ele><time>2026-04-30T16:12:33.997Z</time></trkpt><trkpt lat="39.69974758022533" lon="9.172573994160542"><ele>501.0</ele><time>2026-04-30T16:12:34.997Z</time></trkpt><trkpt lat="39.69959290655678" lon="9.17266176052468"><ele>501.0</ele><time>2026-04-30T16:12:35.997Z</time></trkpt><trkpt lat="39.69945317080809" lon="9.172750814557828"><ele>501.0</ele><time>2026-04-30T16:12:36.997Z</time></trkpt><trkpt lat="39.69934117680492" lon="9.17285002572933"><ele>501.0</ele><time>2026-04-30T16:12:37.997Z</time></trkpt><trkpt lat="39.69924515246558" lon="9.172959226947116"><ele>501.0</ele><time>2026-04-30T16:12:38.997Z</time></trkpt><trkpt lat="39.69916798783984" lon="9.17305191224578"><ele>499.3333333333333</ele><time>2026-04-30T16:12:39.997Z</time></trkpt><trkpt lat="39.69909064335077" lon="9.173092076225588"><ele>497.66666666666663</ele><time>2026-04-30T16:12:40.997Z</time></trkpt><trkpt lat="39.69902479280664" lon="9.173029556211105"><ele>496.0</ele><time>2026-04-30T16:12:41.997Z</time></trkpt><trkpt lat="39.69899973863866" lon="9.172924075477104"><ele>494.3333333333333</ele><time>2026-04-30T16:12:42.997Z</time></trkpt><trkpt lat="39.69903360882135" lon="9.172813612023758"><ele>492.66666666666663</ele><time>2026-04-30T16:12:43.997Z</time></trkpt><trkpt lat="39.699129998902094" lon="9.172759087540486"><ele>491.0</ele><time>2026-04-30T16:12:44.997Z</time></trkpt><trkpt lat="39.69922621265838" lon="9.17275837273971"><ele>491.0</ele><time>2026-04-30T16:12:45.997Z</time></trkpt><trkpt lat="39.69933795547375" lon="9.172720766486107"><ele>491.0</ele><time>2026-04-30T16:12:46.997Z</time></trkpt><trkpt lat="39.699453300857755" lon="9.172654342957564"><ele>491.0</ele><time>2026-04-30T16:12:47.997Z</time></trkpt><trkpt lat="39.69957460904537" lon="9.172550433521558"><ele>491.0</ele><time>2026-04-30T16:12:48.997Z</time></trkpt><trkpt lat="39.699699956559" lon="9.172408606943998"><ele>490.0</ele><time>2026-04-30T16:12:49.997Z</time></trkpt><trkpt lat="39.69982143102063" lon="9.172237957292932"><ele>489.0</ele><time>2026-04-30T16:12:50.997Z</time></trkpt><trkpt lat="39.69996679366672" lon="9.172096241526631"><ele>488.0</ele><time>2026-04-30T16:12:51.997Z</time></trkpt><trkpt lat="39.70010152290621" lon="9.171939552086386"><ele>488.0</ele><time>2026-04-30T16:12:52.997Z</time></trkpt><trkpt lat="39.70022973275737" lon="9.171789429719224"><ele>488.0</ele><time>2026-04-30T16:12:53.997Z</time></trkpt><trkpt lat="39.700336061518044" lon="9.171651642821557"><ele>488.0</ele><time>2026-04-30T16:12:54.997Z</time></trkpt><trkpt lat="39.7004121189199" lon="9.171506015816728"><ele>487.75</ele><time>2026-04-30T16:12:55.997Z</time></trkpt><trkpt lat="39.70042998230635" lon="9.17134393088063"><ele>487.5</ele><time>2026-04-30T16:12:56.997Z</time></trkpt><trkpt lat="39.70041637844633" lon="9.171172301760016"><ele>487.25</ele><time>2026-04-30T16:12:57.997Z</time></trkpt><trkpt lat="39.7003658588954" lon="9.170998179847631"><ele>487.0</ele><time>2026-04-30T16:12:58.997Z</time></trkpt><trkpt lat="39.700313888840654" lon="9.170824763152783"><ele>487.25</ele><time>2026-04-30T16:12:59.997Z</time></trkpt><trkpt lat="39.70028788816041" lon="9.170642273903734"><ele>487.5</ele><time>2026-04-30T16:13:00.997Z</time></trkpt><trkpt lat="39.70028333463452" lon="9.170468068798737"><ele>487.75</ele><time>2026-04-30T16:13:01.997Z</time></trkpt><trkpt lat="39.700311002143216" lon="9.17029837315199"><ele>488.0</ele><time>2026-04-30T16:13:02.997Z</time></trkpt><trkpt lat="39.70039136501441" lon="9.170160745629312"><ele>488.0</ele><time>2026-04-30T16:13:03.997Z</time></trkpt><trkpt lat="39.700501687146684" lon="9.170042536409296"><ele>488.0</ele><time>2026-04-30T16:13:04.997Z</time></trkpt><trkpt lat="39.70062437014871" lon="9.16991749814717"><ele>488.0</ele><time>2026-04-30T16:13:05.997Z</time></trkpt><trkpt lat="39.70075635154488" lon="9.169783026819985"><ele>490.0</ele><time>2026-04-30T16:13:06.997Z</time></trkpt><trkpt lat="39.70087545186967" lon="9.169640800460893"><ele>492.0</ele><time>2026-04-30T16:13:07.997Z</time></trkpt><trkpt lat="39.700952477081934" lon="9.169472928922419"><ele>494.0</ele><time>2026-04-30T16:13:08.997Z</time></trkpt><trkpt lat="39.701010744459666" lon="9.169292717645398"><ele>494.0</ele><time>2026-04-30T16:13:09.997Z</time></trkpt><trkpt lat="39.701019529931514" lon="9.169088243986035"><ele>494.0</ele><time>2026-04-30T16:13:10.997Z</time></trkpt><trkpt lat="39.700983629263135" lon="9.168876505792213"><ele>494.0</ele><time>2026-04-30T16:13:11.997Z</time></trkpt><trkpt lat="39.700923550679825" lon="9.168655579708028"><ele>495.0</ele><time>2026-04-30T16:13:12.997Z</time></trkpt><trkpt lat="39.70085107368328" lon="9.16842735299625"><ele>496.0</ele><time>2026-04-30T16:13:13.997Z</time></trkpt><trkpt lat="39.70078939342507" lon="9.168186897813797"><ele>497.0</ele><time>2026-04-30T16:13:14.997Z</time></trkpt><trkpt lat="39.700728501038284" lon="9.167957063078802"><ele>497.3333333333333</ele><time>2026-04-30T16:13:15.997Z</time></trkpt><trkpt lat="39.700668487570624" lon="9.167744218754187"><ele>497.66666666666663</ele><time>2026-04-30T16:13:16.997Z</time></trkpt><trkpt lat="39.70059963796203" lon="9.16754508977399"><ele>498.0</ele><time>2026-04-30T16:13:17.997Z</time></trkpt><trkpt lat="39.700509868548764" lon="9.167376161523388"><ele>498.75</ele><time>2026-04-30T16:13:18.997Z</time></trkpt><trkpt lat="39.700402046561415" lon="9.167231685599814"><ele>499.5</ele><time>2026-04-30T16:13:19.997Z</time></trkpt><trkpt lat="39.70027603827544" lon="9.167116594791294"><ele>500.25</ele><time>2026-04-30T16:13:20.997Z</time></trkpt><trkpt lat="39.700172893833205" lon="9.166997696583318"><ele>501.0</ele><time>2026-04-30T16:13:21.997Z</time></trkpt><trkpt lat="39.70014920332847" lon="9.16683154634167"><ele>501.5</ele><time>2026-04-30T16:13:22.997Z</time></trkpt><trkpt lat="39.700163189518555" lon="9.166653178165017"><ele>502.0</ele><time>2026-04-30T16:13:23.997Z</time></trkpt><trkpt lat="39.70022319509464" lon="9.166501808052258"><ele>502.5</ele><time>2026-04-30T16:13:24.997Z</time></trkpt><trkpt lat="39.70027589076422" lon="9.166332357165802"><ele>503.0</ele><time>2026-04-30T16:13:25.997Z</time></trkpt><trkpt lat="39.700300737290526" lon="9.166168603714905"><ele>503.0</ele><time>2026-04-30T16:13:26.997Z</time></trkpt><trkpt lat="39.7002982598725" lon="9.166006357335887"><ele>503.0</ele><time>2026-04-30T16:13:27.997Z</time></trkpt><trkpt lat="39.7002477787032" lon="9.16585417627414"><ele>503.0</ele><time>2026-04-30T16:13:28.997Z</time></trkpt><trkpt lat="39.70016652103637" lon="9.165716565581727"><ele>503.0</ele><time>2026-04-30T16:13:29.997Z</time></trkpt><trkpt lat="39.70005091010938" lon="9.165584228475678"><ele>505.66666666666663</ele><time>2026-04-30T16:13:30.997Z</time></trkpt><trkpt lat="39.69994747733658" lon="9.165440345085939"><ele>508.33333333333337</ele><time>2026-04-30T16:13:31.997Z</time></trkpt><trkpt lat="39.69990501081944" lon="9.165251027796725"><ele>511.0</ele><time>2026-04-30T16:13:32.997Z</time></trkpt><trkpt lat="39.69989211392113" lon="9.165051479466255"><ele>513.6666666666667</ele><time>2026-04-30T16:13:33.997Z</time></trkpt><trkpt lat="39.69991607997082" lon="9.16484760463817"><ele>516.3333333333334</ele><time>2026-04-30T16:13:34.997Z</time></trkpt><trkpt lat="39.699970795168355" lon="9.164648270719669"><ele>519.0</ele><time>2026-04-30T16:13:35.997Z</time></trkpt><trkpt lat="39.70006140194821" lon="9.16447355313587"><ele>519.0</ele><time>2026-04-30T16:13:36.997Z</time></trkpt><trkpt lat="39.7001648385769" lon="9.164294918962982"><ele>519.0</ele><time>2026-04-30T16:13:37.997Z</time></trkpt><trkpt lat="39.70027791737113" lon="9.164103518806149"><ele>519.0</ele><time>2026-04-30T16:13:38.997Z</time></trkpt><trkpt lat="39.700389649354875" lon="9.163916570032649"><ele>517.3333333333334</ele><time>2026-04-30T16:13:39.996Z</time></trkpt><trkpt lat="39.70048985530598" lon="9.16372427887381"><ele>515.6666666666667</ele><time>2026-04-30T16:13:40.996Z</time></trkpt><trkpt lat="39.70055284413408" lon="9.163527547487478"><ele>514.0</ele><time>2026-04-30T16:13:41.996Z</time></trkpt><trkpt lat="39.70057426317417" lon="9.163317882997463"><ele>515.0</ele><time>2026-04-30T16:13:42.996Z</time></trkpt><trkpt lat="39.70057418748883" lon="9.16311267648471"><ele>516.0</ele><time>2026-04-30T16:13:43.996Z</time></trkpt><trkpt lat="39.700520110218484" lon="9.162920588792186"><ele>517.0</ele><time>2026-04-30T16:13:44.996Z</time></trkpt><trkpt lat="39.70044123545799" lon="9.162738835584124"><ele>517.0</ele><time>2026-04-30T16:13:45.996Z</time></trkpt><trkpt lat="39.70036430428187" lon="9.1625619244583"><ele>517.0</ele><time>2026-04-30T16:13:46.996Z</time></trkpt><trkpt lat="39.70035695246133" lon="9.16237277605532"><ele>517.0</ele><time>2026-04-30T16:13:47.996Z</time></trkpt><trkpt lat="39.700386122557816" lon="9.16220612360703"><ele>517.0</ele><time>2026-04-30T16:13:48.996Z</time></trkpt><trkpt lat="39.70045238490741" lon="9.16204939117398"><ele>518.0</ele><time>2026-04-30T16:13:49.996Z</time></trkpt><trkpt lat="39.70054348210002" lon="9.161898141256124"><ele>519.0</ele><time>2026-04-30T16:13:50.996Z</time></trkpt><trkpt lat="39.700632890197134" lon="9.161744852802329"><ele>520.0</ele><time>2026-04-30T16:13:51.996Z</time></trkpt><trkpt lat="39.700692197769094" lon="9.161593159127472"><ele>521.0</ele><time>2026-04-30T16:13:52.996Z</time></trkpt><trkpt lat="39.70069212889729" lon="9.161437719231015"><ele>521.75</ele><time>2026-04-30T16:13:53.996Z</time></trkpt><trkpt lat="39.7006393672256" lon="9.1613016091596"><ele>522.5</ele><time>2026-04-30T16:13:54.996Z</time></trkpt><trkpt lat="39.7005294351496" lon="9.16119146050135"><ele>523.25</ele><time>2026-04-30T16:13:55.996Z</time></trkpt><trkpt lat="39.70040084940716" lon="9.161110360895607"><ele>524.0</ele><time>2026-04-30T16:13:56.996Z</time></trkpt><trkpt lat="39.70028346382686" lon="9.161025970041162"><ele>525.75</ele><time>2026-04-30T16:13:57.996Z</time></trkpt><trkpt lat="39.70022234076449" lon="9.160887529763157"><ele>527.5</ele><time>2026-04-30T16:13:58.996Z</time></trkpt><trkpt lat="39.7002267465948" lon="9.160732080655338"><ele>529.25</ele><time>2026-04-30T16:13:59.996Z</time></trkpt><trkpt lat="39.70024163997557" lon="9.16055680651611"><ele>531.0</ele><time>2026-04-30T16:14:00.996Z</time></trkpt><trkpt lat="39.70024926094521" lon="9.160368217463441"><ele>531.3333333333334</ele><time>2026-04-30T16:14:01.996Z</time></trkpt><trkpt lat="39.70022292296804" lon="9.160175804111926"><ele>531.6666666666667</ele><time>2026-04-30T16:14:02.996Z</time></trkpt><trkpt lat="39.70016378273825" lon="9.159987264941174"><ele>532.0</ele><time>2026-04-30T16:14:03.996Z</time></trkpt><trkpt lat="39.70007443877288" lon="9.15981512166532"><ele>532.6666666666667</ele><time>2026-04-30T16:14:04.996Z</time></trkpt><trkpt lat="39.69996256499549" lon="9.159639940791433"><ele>533.3333333333334</ele><time>2026-04-30T16:14:05.996Z</time></trkpt><trkpt lat="39.69991225095716" lon="9.159447823316093"><ele>534.0</ele><time>2026-04-30T16:14:06.996Z</time></trkpt><trkpt lat="39.699904571376706" lon="9.159257431239384"><ele>534.0</ele><time>2026-04-30T16:14:07.996Z</time></trkpt><trkpt lat="39.69991056571879" lon="9.15904702631782"><ele>534.0</ele><time>2026-04-30T16:14:08.996Z</time></trkpt><trkpt lat="39.69990463833895" lon="9.158850604017124"><ele>534.0</ele><time>2026-04-30T16:14:09.996Z</time></trkpt><trkpt lat="39.69986173460425" lon="9.158668593882014"><ele>533.75</ele><time>2026-04-30T16:14:10.996Z</time></trkpt><trkpt lat="39.69979887609383" lon="9.158525481766128"><ele>533.5</ele><time>2026-04-30T16:14:11.996Z</time></trkpt><trkpt lat="39.69969207362045" lon="9.158412794277893"><ele>533.25</ele><time>2026-04-30T16:14:12.996Z</time></trkpt><trkpt lat="39.699538700051775" lon="9.158355985094655"><ele>533.0</ele><time>2026-04-30T16:14:13.996Z</time></trkpt><trkpt lat="39.69936329092212" lon="9.158321584103794"><ele>534.3333333333333</ele><time>2026-04-30T16:14:14.996Z</time></trkpt><trkpt lat="39.69918757736767" lon="9.158274206527796"><ele>535.6666666666666</ele><time>2026-04-30T16:14:15.996Z</time></trkpt><trkpt lat="39.69901834296076" lon="9.158206950977313"><ele>537.0</ele><time>2026-04-30T16:14:16.996Z</time></trkpt><trkpt lat="39.69884886692494" lon="9.158110954394747"><ele>537.0</ele><time>2026-04-30T16:14:17.996Z</time></trkpt><trkpt lat="39.698679749909715" lon="9.15799344618382"><ele>537.0</ele><time>2026-04-30T16:14:18.996Z</time></trkpt><trkpt lat="39.69854286394667" lon="9.157832808536188"><ele>537.0</ele><time>2026-04-30T16:14:19.996Z</time></trkpt><trkpt lat="39.698401015446876" lon="9.157675468613037"><ele>539.0</ele><time>2026-04-30T16:14:20.996Z</time></trkpt><trkpt lat="39.698260280057426" lon="9.15751696082269"><ele>541.0</ele><time>2026-04-30T16:14:21.996Z</time></trkpt><trkpt lat="39.69811787129681" lon="9.157384095005819"><ele>543.0</ele><time>2026-04-30T16:14:22.996Z</time></trkpt><trkpt lat="39.698007341574" lon="9.15721933256764"><ele>543.0</ele><time>2026-04-30T16:14:23.996Z</time></trkpt><trkpt lat="39.697909503068594" lon="9.157057495190433"><ele>543.0</ele><time>2026-04-30T16:14:24.996Z</time></trkpt><trkpt lat="39.69783238039028" lon="9.156874908324706"><ele>543.0</ele><time>2026-04-30T16:14:25.996Z</time></trkpt><trkpt lat="39.69782372360149" lon="9.156659823618137"><ele>544.0</ele><time>2026-04-30T16:14:26.996Z</time></trkpt><trkpt lat="39.697844117355054" lon="9.15644173283728"><ele>545.0</ele><time>2026-04-30T16:14:27.996Z</time></trkpt><trkpt lat="39.697856769783" lon="9.156229906518723"><ele>546.0</ele><time>2026-04-30T16:14:28.996Z</time></trkpt><trkpt lat="39.697855126790664" lon="9.156034010120239"><ele>546.0</ele><time>2026-04-30T16:14:29.996Z</time></trkpt><trkpt lat="39.6978843245448" lon="9.15586957150039"><ele>546.0</ele><time>2026-04-30T16:14:30.996Z</time></trkpt><trkpt lat="39.697888292462125" lon="9.155736548930134"><ele>546.0</ele><time>2026-04-30T16:14:31.996Z</time></trkpt><trkpt lat="39.69789501087283" lon="9.15565495788652"><ele>546.0</ele><time>2026-04-30T16:14:32.996Z</time></trkpt><trkpt lat="39.697901767554974" lon="9.15556823728209"><ele>546.0</ele><time>2026-04-30T16:14:34.996Z</time></trkpt><trkpt lat="39.69790625414333" lon="9.155439383126174"><ele>547.2</ele><time>2026-04-30T16:14:48.996Z</time></trkpt><trkpt lat="39.6978173475202" lon="9.15532312597693"><ele>548.4000000000001</ele><time>2026-04-30T16:14:50.996Z</time></trkpt><trkpt lat="39.697745187916475" lon="9.155251958052224"><ele>549.6</ele><time>2026-04-30T16:14:51.996Z</time></trkpt><trkpt lat="39.69766467249325" lon="9.155179686813554"><ele>550.8000000000001</ele><time>2026-04-30T16:14:52.996Z</time></trkpt><trkpt lat="39.69757073908813" lon="9.155099694218984"><ele>552.0</ele><time>2026-04-30T16:14:53.996Z</time></trkpt><trkpt lat="39.69747070756367" lon="9.15500351613158"><ele>552.0</ele><time>2026-04-30T16:14:54.996Z</time></trkpt><trkpt lat="39.69736498593269" lon="9.154892563571904"><ele>552.0</ele><time>2026-04-30T16:14:55.996Z</time></trkpt><trkpt lat="39.69726140956785" lon="9.154765257634228"><ele>552.0</ele><time>2026-04-30T16:14:56.996Z</time></trkpt><trkpt lat="39.69715859317547" lon="9.154630678057174"><ele>552.0</ele><time>2026-04-30T16:14:57.995Z</time></trkpt><trkpt lat="39.6970598507234" lon="9.15449197240767"><ele>552.5</ele><time>2026-04-30T16:14:58.995Z</time></trkpt><trkpt lat="39.696977689653615" lon="9.154339517321112"><ele>553.0</ele><time>2026-04-30T16:14:59.995Z</time></trkpt><trkpt lat="39.696917217604934" lon="9.154174887638634"><ele>553.5</ele><time>2026-04-30T16:15:00.995Z</time></trkpt><trkpt lat="39.6968795831114" lon="9.154015566986303"><ele>554.0</ele><time>2026-04-30T16:15:01.995Z</time></trkpt><trkpt lat="39.69685707941661" lon="9.15386399882159"><ele>555.0</ele><time>2026-04-30T16:15:02.995Z</time></trkpt><trkpt lat="39.696849721858875" lon="9.153722929489339"><ele>556.0</ele><time>2026-04-30T16:15:03.995Z</time></trkpt><trkpt lat="39.696848708140905" lon="9.153595872320945"><ele>557.0</ele><time>2026-04-30T16:15:04.995Z</time></trkpt><trkpt lat="39.69684671903059" lon="9.153487041330806"><ele>558.0</ele><time>2026-04-30T16:15:05.995Z</time></trkpt><trkpt lat="39.69685735806773" lon="9.153390444051372"><ele>559.0</ele><time>2026-04-30T16:15:06.995Z</time></trkpt><trkpt lat="39.69685590715752" lon="9.15328018255757"><ele>560.4</ele><time>2026-04-30T16:15:07.995Z</time></trkpt><trkpt lat="39.696842791896" lon="9.153161564349054"><ele>561.8</ele><time>2026-04-30T16:15:08.995Z</time></trkpt><trkpt lat="39.69680328525962" lon="9.153027985035001"><ele>563.2</ele><time>2026-04-30T16:15:09.995Z</time></trkpt><trkpt lat="39.69673789146565" lon="9.15289936600539"><ele>564.6</ele><time>2026-04-30T16:15:10.995Z</time></trkpt><trkpt lat="39.69663899972138" lon="9.152793955549893"><ele>566.0</ele><time>2026-04-30T16:15:11.995Z</time></trkpt><trkpt lat="39.69650301663396" lon="9.152737703672404"><ele>566.0</ele><time>2026-04-30T16:15:12.995Z</time></trkpt><trkpt lat="39.69636253051611" lon="9.152695789289677"><ele>566.0</ele><time>2026-04-30T16:15:13.995Z</time></trkpt><trkpt lat="39.696215595352406" lon="9.152661006845543"><ele>566.0</ele><time>2026-04-30T16:15:14.995Z</time></trkpt><trkpt lat="39.696060872872394" lon="9.152640349457371"><ele>566.0</ele><time>2026-04-30T16:15:15.995Z</time></trkpt><trkpt lat="39.69590225548688" lon="9.152632361556297"><ele>566.0</ele><time>2026-04-30T16:15:16.995Z</time></trkpt><trkpt lat="39.69573868972849" lon="9.15264849509513"><ele>566.0</ele><time>2026-04-30T16:15:17.995Z</time></trkpt><trkpt lat="39.69557106171547" lon="9.152674005100753"><ele>566.0</ele><time>2026-04-30T16:15:18.995Z</time></trkpt><trkpt lat="39.69539890366539" lon="9.152703223575621"><ele>566.6666666666666</ele><time>2026-04-30T16:15:19.995Z</time></trkpt><trkpt lat="39.6952282514884" lon="9.152731150189704"><ele>567.3333333333334</ele><time>2026-04-30T16:15:20.995Z</time></trkpt><trkpt lat="39.69505617844831" lon="9.152759190393654"><ele>568.0</ele><time>2026-04-30T16:15:21.995Z</time></trkpt><trkpt lat="39.694881733626026" lon="9.152774946133853"><ele>568.0</ele><time>2026-04-30T16:15:22.995Z</time></trkpt><trkpt lat="39.69471065492835" lon="9.152751638179165"><ele>568.0</ele><time>2026-04-30T16:15:23.995Z</time></trkpt><trkpt lat="39.694547142600456" lon="9.152687925222947"><ele>568.0</ele><time>2026-04-30T16:15:24.995Z</time></trkpt><trkpt lat="39.69438822315692" lon="9.152599447651523"><ele>567.3333333333334</ele><time>2026-04-30T16:15:25.995Z</time></trkpt><trkpt lat="39.69422969705186" lon="9.1525053255911"><ele>566.6666666666666</ele><time>2026-04-30T16:15:26.995Z</time></trkpt><trkpt lat="39.69407413865983" lon="9.152397851167388"><ele>566.0</ele><time>2026-04-30T16:15:27.995Z</time></trkpt><trkpt lat="39.69392907234218" lon="9.152273562018847"><ele>569.6666666666666</ele><time>2026-04-30T16:15:28.995Z</time></trkpt><trkpt lat="39.693793968590505" lon="9.152123864952358"><ele>573.3333333333334</ele><time>2026-04-30T16:15:29.995Z</time></trkpt><trkpt lat="39.69367942056449" lon="9.151951018778574"><ele>577.0</ele><time>2026-04-30T16:15:30.995Z</time></trkpt><trkpt lat="39.693593856575234" lon="9.151739412466373"><ele>577.3333333333334</ele><time>2026-04-30T16:15:31.995Z</time></trkpt><trkpt lat="39.69353713356434" lon="9.151518504805352"><ele>577.6666666666666</ele><time>2026-04-30T16:15:32.995Z</time></trkpt><trkpt lat="39.69345234494306" lon="9.151327407260883"><ele>578.0</ele><time>2026-04-30T16:15:33.995Z</time></trkpt><trkpt lat="39.693375187513475" lon="9.151149243638386"><ele>578.0</ele><time>2026-04-30T16:15:34.995Z</time></trkpt><trkpt lat="39.6932719050319" lon="9.150988180565129"><ele>578.0</ele><time>2026-04-30T16:15:35.995Z</time></trkpt><trkpt lat="39.693141747143144" lon="9.150850489722979"><ele>578.0</ele><time>2026-04-30T16:15:36.995Z</time></trkpt><trkpt lat="39.69299554732423" lon="9.150724087758979"><ele>578.6666666666666</ele><time>2026-04-30T16:15:37.995Z</time></trkpt><trkpt lat="39.69285498894575" lon="9.150580846652126"><ele>579.3333333333334</ele><time>2026-04-30T16:15:38.995Z</time></trkpt><trkpt lat="39.69271728271848" lon="9.150429156119026"><ele>580.0</ele><time>2026-04-30T16:15:39.995Z</time></trkpt><trkpt lat="39.692573571612755" lon="9.150295967555511"><ele>580.0</ele><time>2026-04-30T16:15:40.995Z</time></trkpt><trkpt lat="39.692430367272095" lon="9.15018305366324"><ele>580.0</ele><time>2026-04-30T16:15:41.995Z</time></trkpt><trkpt lat="39.69228279195374" lon="9.15008079789761"><ele>580.0</ele><time>2026-04-30T16:15:42.995Z</time></trkpt><trkpt lat="39.692137358132946" lon="9.149992831217613"><ele>580.0</ele><time>2026-04-30T16:15:43.995Z</time></trkpt><trkpt lat="39.69199358200965" lon="9.149915196423866"><ele>580.0</ele><time>2026-04-30T16:15:44.995Z</time></trkpt><trkpt lat="39.691849288503505" lon="9.149858658436486"><ele>580.0</ele><time>2026-04-30T16:15:45.995Z</time></trkpt><trkpt lat="39.69169547636418" lon="9.1498121709324"><ele>582.0</ele><time>2026-04-30T16:15:46.995Z</time></trkpt><trkpt lat="39.691542763150146" lon="9.149775977938715"><ele>584.0</ele><time>2026-04-30T16:15:47.995Z</time></trkpt><trkpt lat="39.69139246659704" lon="9.149756136730492"><ele>586.0</ele><time>2026-04-30T16:15:48.995Z</time></trkpt><trkpt lat="39.691248514818405" lon="9.149752417808603"><ele>586.0</ele><time>2026-04-30T16:15:49.995Z</time></trkpt><trkpt lat="39.691113994990744" lon="9.149758177380418"><ele>586.0</ele><time>2026-04-30T16:15:50.995Z</time></trkpt><trkpt lat="39.69098166541987" lon="9.149738430252407"><ele>586.0</ele><time>2026-04-30T16:15:51.995Z</time></trkpt><trkpt lat="39.69086176546439" lon="9.14970930075567"><ele>586.0</ele><time>2026-04-30T16:15:52.995Z</time></trkpt><trkpt lat="39.69077152673076" lon="9.149665516341448"><ele>585.2</ele><time>2026-04-30T16:15:53.995Z</time></trkpt><trkpt lat="39.69068863829715" lon="9.149577096570617"><ele>584.4000000000001</ele><time>2026-04-30T16:15:55.995Z</time></trkpt><trkpt lat="39.69072871093255" lon="9.149476573411771"><ele>583.6</ele><time>2026-04-30T16:15:58.995Z</time></trkpt><trkpt lat="39.69081836261099" lon="9.149423849603577"><ele>582.8000000000001</ele><time>2026-04-30T16:16:00.995Z</time></trkpt><trkpt lat="39.690875153854236" lon="9.149370639878878"><ele>582.0</ele><time>2026-04-30T16:16:01.995Z</time></trkpt><trkpt lat="39.690962329223105" lon="9.14935818758572"><ele>582.0</ele><time>2026-04-30T16:16:02.995Z</time></trkpt><trkpt lat="39.69105055851728" lon="9.149302716783806"><ele>582.0</ele><time>2026-04-30T16:16:03.995Z</time></trkpt><trkpt lat="39.691132885071475" lon="9.149228902914922"><ele>582.0</ele><time>2026-04-30T16:16:04.995Z</time></trkpt><trkpt lat="39.69122746883028" lon="9.149170435504152"><ele>582.0</ele><time>2026-04-30T16:16:05.995Z</time></trkpt><trkpt lat="39.69132789093651" lon="9.149106183709222"><ele>582.0</ele><time>2026-04-30T16:16:06.995Z</time></trkpt><trkpt lat="39.69144470474531" lon="9.149057563221888"><ele>583.25</ele><time>2026-04-30T16:16:07.995Z</time></trkpt><trkpt lat="39.691562700933154" lon="9.148983559252375"><ele>584.5</ele><time>2026-04-30T16:16:08.995Z</time></trkpt><trkpt lat="39.69167826834431" lon="9.148888509953602"><ele>585.75</ele><time>2026-04-30T16:16:09.995Z</time></trkpt><trkpt lat="39.69180580953547" lon="9.148839368727364"><ele>587.0</ele><time>2026-04-30T16:16:10.995Z</time></trkpt><trkpt lat="39.69191988813448" lon="9.148789169755418"><ele>588.75</ele><time>2026-04-30T16:16:11.995Z</time></trkpt><trkpt lat="39.69202638886097" lon="9.148772674411195"><ele>590.5</ele><time>2026-04-30T16:16:12.994Z</time></trkpt><trkpt lat="39.69214348336589" lon="9.14878817889056"><ele>592.25</ele><time>2026-04-30T16:16:13.994Z</time></trkpt><trkpt lat="39.69225737166106" lon="9.148819375319608"><ele>594.0</ele><time>2026-04-30T16:16:14.994Z</time></trkpt><trkpt lat="39.692378584430536" lon="9.148834647370514"><ele>594.0</ele><time>2026-04-30T16:16:15.994Z</time></trkpt><trkpt lat="39.692498817311815" lon="9.148873876854122"><ele>594.0</ele><time>2026-04-30T16:16:16.994Z</time></trkpt><trkpt lat="39.69261927446234" lon="9.148908973084177"><ele>594.0</ele><time>2026-04-30T16:16:17.994Z</time></trkpt><trkpt lat="39.692743043925056" lon="9.148947578487352"><ele>594.0</ele><time>2026-04-30T16:16:18.994Z</time></trkpt><trkpt lat="39.69287413665297" lon="9.148986108305289"><ele>595.0</ele><time>2026-04-30T16:16:19.994Z</time></trkpt><trkpt lat="39.693006647546476" lon="9.149038518694885"><ele>596.0</ele><time>2026-04-30T16:16:20.994Z</time></trkpt><trkpt lat="39.693138280335056" lon="9.149072760475995"><ele>597.0</ele><time>2026-04-30T16:16:21.994Z</time></trkpt><trkpt lat="39.693262948519816" lon="9.149114593146306"><ele>598.0</ele><time>2026-04-30T16:16:22.994Z</time></trkpt><trkpt lat="39.693384154054726" lon="9.149157307819841"><ele>598.0</ele><time>2026-04-30T16:16:23.994Z</time></trkpt><trkpt lat="39.69350281861746" lon="9.149193098421152"><ele>598.0</ele><time>2026-04-30T16:16:24.994Z</time></trkpt><trkpt lat="39.693617731717445" lon="9.149218693193815"><ele>598.0</ele><time>2026-04-30T16:16:25.994Z</time></trkpt><trkpt lat="39.69373241009097" lon="9.14922907682834"><ele>598.0</ele><time>2026-04-30T16:16:26.994Z</time></trkpt><trkpt lat="39.69385013782077" lon="9.149212465214166"><ele>598.75</ele><time>2026-04-30T16:16:27.994Z</time></trkpt><trkpt lat="39.693968288438136" lon="9.149170725716282"><ele>599.5</ele><time>2026-04-30T16:16:28.994Z</time></trkpt><trkpt lat="39.694090826991776" lon="9.149129562988968"><ele>600.25</ele><time>2026-04-30T16:16:29.994Z</time></trkpt><trkpt lat="39.69421147374787" lon="9.149086790910433"><ele>601.0</ele><time>2026-04-30T16:16:30.994Z</time></trkpt><trkpt lat="39.69433960287798" lon="9.149053269166323"><ele>602.5</ele><time>2026-04-30T16:16:31.994Z</time></trkpt><trkpt lat="39.69446333864303" lon="9.149009834877594"><ele>604.0</ele><time>2026-04-30T16:16:32.994Z</time></trkpt><trkpt lat="39.694587776480326" lon="9.148966538330182"><ele>605.5</ele><time>2026-04-30T16:16:33.994Z</time></trkpt><trkpt lat="39.69471486431462" lon="9.148922244595925"><ele>607.0</ele><time>2026-04-30T16:16:34.994Z</time></trkpt><trkpt lat="39.694841890887474" lon="9.148878375511632"><ele>607.0</ele><time>2026-04-30T16:16:35.994Z</time></trkpt><trkpt lat="39.69496931601824" lon="9.148834298322935"><ele>607.0</ele><time>2026-04-30T16:16:36.994Z</time></trkpt><trkpt lat="39.6951054729277" lon="9.14880330326603"><ele>607.0</ele><time>2026-04-30T16:16:37.994Z</time></trkpt><trkpt lat="39.69523479568039" lon="9.148754742436443"><ele>607.0</ele><time>2026-04-30T16:16:38.994Z</time></trkpt><trkpt lat="39.69536455036404" lon="9.148710550936714"><ele>607.75</ele><time>2026-04-30T16:16:39.994Z</time></trkpt><trkpt lat="39.69549308287361" lon="9.148666904382289"><ele>608.5</ele><time>2026-04-30T16:16:40.994Z</time></trkpt><trkpt lat="39.695623042948796" lon="9.148624277521572"><ele>609.25</ele><time>2026-04-30T16:16:41.994Z</time></trkpt><trkpt lat="39.69575619758922" lon="9.148578753386747"><ele>610.0</ele><time>2026-04-30T16:16:42.994Z</time></trkpt><trkpt lat="39.695888307221125" lon="9.148529947788829"><ele>610.0</ele><time>2026-04-30T16:16:43.994Z</time></trkpt><trkpt lat="39.696020264663396" lon="9.1484797077413"><ele>610.0</ele><time>2026-04-30T16:16:44.994Z</time></trkpt><trkpt lat="39.69615333787858" lon="9.14843411145407"><ele>610.0</ele><time>2026-04-30T16:16:45.994Z</time></trkpt><trkpt lat="39.696292168038724" lon="9.148409850919206"><ele>610.0</ele><time>2026-04-30T16:16:46.994Z</time></trkpt><trkpt lat="39.696423089422545" lon="9.148345917212346"><ele>611.25</ele><time>2026-04-30T16:16:47.994Z</time></trkpt><trkpt lat="39.696556468843205" lon="9.148296674003307"><ele>612.5</ele><time>2026-04-30T16:16:48.994Z</time></trkpt><trkpt lat="39.696685495525045" lon="9.148235660549995"><ele>613.75</ele><time>2026-04-30T16:16:49.994Z</time></trkpt><trkpt lat="39.696814600621515" lon="9.148157676270007"><ele>615.0</ele><time>2026-04-30T16:16:50.994Z</time></trkpt><trkpt lat="39.69694033839889" lon="9.148051736437708"><ele>616.0</ele><time>2026-04-30T16:16:51.994Z</time></trkpt><trkpt lat="39.697068518303915" lon="9.147969236331026"><ele>617.0</ele><time>2026-04-30T16:16:52.994Z</time></trkpt><trkpt lat="39.69718811880445" lon="9.147879675239999"><ele>618.0</ele><time>2026-04-30T16:16:53.994Z</time></trkpt><trkpt lat="39.69730271311126" lon="9.147793560528081"><ele>619.0</ele><time>2026-04-30T16:16:54.994Z</time></trkpt><trkpt lat="39.69741658961598" lon="9.147707708082596"><ele>619.0</ele><time>2026-04-30T16:16:55.994Z</time></trkpt><trkpt lat="39.69752912695" lon="9.147622668038615"><ele>619.0</ele><time>2026-04-30T16:16:56.994Z</time></trkpt><trkpt lat="39.69763909100977" lon="9.147535847312005"><ele>619.0</ele><time>2026-04-30T16:16:57.994Z</time></trkpt><trkpt lat="39.69773924293083" lon="9.14745017169364"><ele>619.0</ele><time>2026-04-30T16:16:58.994Z</time></trkpt><trkpt lat="39.6978341289085" lon="9.147382123436314"><ele>619.8333333333334</ele><time>2026-04-30T16:16:59.994Z</time></trkpt><trkpt lat="39.69791877461105" lon="9.147320457655464"><ele>620.6666666666667</ele><time>2026-04-30T16:17:00.994Z</time></trkpt><trkpt lat="39.69797882314758" lon="9.1472714912622"><ele>621.5</ele><time>2026-04-30T16:17:01.994Z</time></trkpt><trkpt lat="39.698071770424626" lon="9.147207462478496"><ele>622.3333333333334</ele><time>2026-04-30T16:17:03.994Z</time></trkpt><trkpt lat="39.69813417164287" lon="9.14716573112438"><ele>623.1666666666666</ele><time>2026-04-30T16:17:05.994Z</time></trkpt><trkpt lat="39.69821036835751" lon="9.147092114943913"><ele>624.0</ele><time>2026-04-30T16:17:08.994Z</time></trkpt><trkpt lat="39.69833238906412" lon="9.14702672972519"><ele>624.0</ele><time>2026-04-30T16:17:10.994Z</time></trkpt><trkpt lat="39.698405324134065" lon="9.14697282372557"><ele>624.0</ele><time>2026-04-30T16:17:11.994Z</time></trkpt><trkpt lat="39.69847465870525" lon="9.14692157872855"><ele>624.0</ele><time>2026-04-30T16:17:12.994Z</time></trkpt><trkpt lat="39.698549165231555" lon="9.146866511235693"><ele>624.0</ele><time>2026-04-30T16:17:13.994Z</time></trkpt><trkpt lat="39.69863077156359" lon="9.146806195595948"><ele>624.0</ele><time>2026-04-30T16:17:14.994Z</time></trkpt><trkpt lat="39.698715868009266" lon="9.146746411908174"><ele>624.0</ele><time>2026-04-30T16:17:15.994Z</time></trkpt><trkpt lat="39.69879685363118" lon="9.14668528876562"><ele>624.0</ele><time>2026-04-30T16:17:16.994Z</time></trkpt><trkpt lat="39.69886826625768" lon="9.146631373228589"><ele>624.0</ele><time>2026-04-30T16:17:17.994Z</time></trkpt><trkpt lat="39.69893968938254" lon="9.146579191740393"><ele>624.0</ele><time>2026-04-30T16:17:18.994Z</time></trkpt><trkpt lat="39.69900014115475" lon="9.146535401480113"><ele>624.0</ele><time>2026-04-30T16:17:19.994Z</time></trkpt><trkpt lat="39.69905938386836" lon="9.14649241650408"><ele>624.0</ele><time>2026-04-30T16:17:20.994Z</time></trkpt><trkpt lat="39.69911524139277" lon="9.146451876720256"><ele>624.0</ele><time>2026-04-30T16:17:21.994Z</time></trkpt><trkpt lat="39.699207165504276" lon="9.146382257819221"><ele>623.6</ele><time>2026-04-30T16:17:23.994Z</time></trkpt><trkpt lat="39.699274829073275" lon="9.146330142923485"><ele>623.2</ele><time>2026-04-30T16:17:25.994Z</time></trkpt><trkpt lat="39.699331578699834" lon="9.146268765665736"><ele>622.8000000000001</ele><time>2026-04-30T16:17:28.994Z</time></trkpt><trkpt lat="39.69925498792966" lon="9.146345424568262"><ele>622.4</ele><time>2026-04-30T16:19:06.992Z</time></trkpt><trkpt lat="39.69909045393859" lon="9.146404424959304"><ele>622.0</ele><time>2026-04-30T16:19:08.992Z</time></trkpt><trkpt lat="39.69901804764012" lon="9.146453334835885"><ele>622.0</ele><time>2026-04-30T16:19:09.992Z</time></trkpt><trkpt lat="39.69895263982316" lon="9.146509148926464"><ele>622.0</ele><time>2026-04-30T16:19:10.992Z</time></trkpt><trkpt lat="39.69888687594631" lon="9.146559958274286"><ele>622.0</ele><time>2026-04-30T16:19:11.992Z</time></trkpt><trkpt lat="39.69883352297447" lon="9.146617183046839"><ele>622.0</ele><time>2026-04-30T16:19:12.992Z</time></trkpt><trkpt lat="39.69877836133426" lon="9.146667637049102"><ele>622.0</ele><time>2026-04-30T16:19:13.992Z</time></trkpt><trkpt lat="39.69872133789178" lon="9.146716900956886"><ele>622.0</ele><time>2026-04-30T16:19:14.992Z</time></trkpt><trkpt lat="39.69865942097704" lon="9.1467617641676"><ele>622.0</ele><time>2026-04-30T16:19:15.992Z</time></trkpt><trkpt lat="39.69859559110151" lon="9.146798056218495"><ele>622.3333333333334</ele><time>2026-04-30T16:19:16.992Z</time></trkpt><trkpt lat="39.69853532830391" lon="9.146839658028979"><ele>622.6666666666667</ele><time>2026-04-30T16:19:17.992Z</time></trkpt><trkpt lat="39.69847183453893" lon="9.146881170578611"><ele>623.0</ele><time>2026-04-30T16:19:18.992Z</time></trkpt><trkpt lat="39.698405246111165" lon="9.146930254449819"><ele>623.3333333333334</ele><time>2026-04-30T16:19:19.992Z</time></trkpt><trkpt lat="39.69833290060946" lon="9.146982852751055"><ele>623.6666666666666</ele><time>2026-04-30T16:19:20.992Z</time></trkpt><trkpt lat="39.69825830740644" lon="9.147034893408561"><ele>624.0</ele><time>2026-04-30T16:19:21.992Z</time></trkpt><trkpt lat="39.698179219369976" lon="9.147094315813684"><ele>624.0</ele><time>2026-04-30T16:19:22.992Z</time></trkpt><trkpt lat="39.69808486843746" lon="9.147155081115898"><ele>624.0</ele><time>2026-04-30T16:19:23.992Z</time></trkpt><trkpt lat="39.69799413381995" lon="9.147219536130194"><ele>624.0</ele><time>2026-04-30T16:19:24.992Z</time></trkpt><trkpt lat="39.6978987212995" lon="9.14729428703438"><ele>624.0</ele><time>2026-04-30T16:19:25.992Z</time></trkpt><trkpt lat="39.69779885868563" lon="9.14737303056029"><ele>624.0</ele><time>2026-04-30T16:19:26.992Z</time></trkpt><trkpt lat="39.69768277308365" lon="9.147458240704406"><ele>622.75</ele><time>2026-04-30T16:19:27.992Z</time></trkpt><trkpt lat="39.69756504422188" lon="9.147542939463857"><ele>621.5</ele><time>2026-04-30T16:19:28.992Z</time></trkpt><trkpt lat="39.697444564282755" lon="9.147627778890463"><ele>620.25</ele><time>2026-04-30T16:19:29.992Z</time></trkpt><trkpt lat="39.69732447454845" lon="9.147711358222656"><ele>619.0</ele><time>2026-04-30T16:19:30.992Z</time></trkpt><trkpt lat="39.69721035088825" lon="9.147803759509896"><ele>619.0</ele><time>2026-04-30T16:19:31.992Z</time></trkpt><trkpt lat="39.69709208153126" lon="9.147889882577172"><ele>619.0</ele><time>2026-04-30T16:19:32.992Z</time></trkpt><trkpt lat="39.696975781394706" lon="9.14798062307693"><ele>619.0</ele><time>2026-04-30T16:19:33.992Z</time></trkpt><trkpt lat="39.69685796075699" lon="9.148068173693344"><ele>619.0</ele><time>2026-04-30T16:19:34.992Z</time></trkpt><trkpt lat="39.69675023646255" lon="9.148147627333993"><ele>618.0</ele><time>2026-04-30T16:19:35.992Z</time></trkpt><trkpt lat="39.69664783358635" lon="9.148212861945947"><ele>617.0</ele><time>2026-04-30T16:19:36.992Z</time></trkpt><trkpt lat="39.69654360825312" lon="9.148272175555265"><ele>616.0</ele><time>2026-04-30T16:19:37.992Z</time></trkpt><trkpt lat="39.69643176145563" lon="9.148319615747276"><ele>615.0</ele><time>2026-04-30T16:19:38.992Z</time></trkpt><trkpt lat="39.69630965953317" lon="9.148357216711467"><ele>615.0</ele><time>2026-04-30T16:19:39.992Z</time></trkpt><trkpt lat="39.6961873239588" lon="9.148393442271827"><ele>615.0</ele><time>2026-04-30T16:19:40.992Z</time></trkpt><trkpt lat="39.696060453155724" lon="9.148433340674426"><ele>615.0</ele><time>2026-04-30T16:19:41.992Z</time></trkpt><trkpt lat="39.6959326322716" lon="9.148481003955625"><ele>615.0</ele><time>2026-04-30T16:19:42.992Z</time></trkpt><trkpt lat="39.695801845462675" lon="9.148526028043445"><ele>613.75</ele><time>2026-04-30T16:19:43.992Z</time></trkpt><trkpt lat="39.69567079471221" lon="9.148569975809545"><ele>612.5</ele><time>2026-04-30T16:19:44.992Z</time></trkpt><trkpt lat="39.69553894867719" lon="9.148613299919393"><ele>611.25</ele><time>2026-04-30T16:19:45.992Z</time></trkpt><trkpt lat="39.69540576898815" lon="9.14865477143348"><ele>610.0</ele><time>2026-04-30T16:19:46.992Z</time></trkpt><trkpt lat="39.69527243454325" lon="9.148698535834372"><ele>609.25</ele><time>2026-04-30T16:19:47.992Z</time></trkpt><trkpt lat="39.695137803981545" lon="9.148742396633297"><ele>608.5</ele><time>2026-04-30T16:19:48.992Z</time></trkpt><trkpt lat="39.695000774492335" lon="9.14878853376532"><ele>607.75</ele><time>2026-04-30T16:19:49.992Z</time></trkpt><trkpt lat="39.69486257038872" lon="9.14883628207996"><ele>607.0</ele><time>2026-04-30T16:19:50.992Z</time></trkpt><trkpt lat="39.694719197940245" lon="9.14888240201885"><ele>607.0</ele><time>2026-04-30T16:19:51.992Z</time></trkpt><trkpt lat="39.694570112409906" lon="9.148928203002962"><ele>607.0</ele><time>2026-04-30T16:19:52.992Z</time></trkpt><trkpt lat="39.6944206951226" lon="9.148977996350219"><ele>607.0</ele><time>2026-04-30T16:19:53.992Z</time></trkpt><trkpt lat="39.694271411062594" lon="9.149031800852931"><ele>605.5</ele><time>2026-04-30T16:19:54.992Z</time></trkpt><trkpt lat="39.694123096865695" lon="9.149077698762875"><ele>604.0</ele><time>2026-04-30T16:19:55.992Z</time></trkpt><trkpt lat="39.693987354858116" lon="9.149117390119532"><ele>602.5</ele><time>2026-04-30T16:19:56.992Z</time></trkpt><trkpt lat="39.693862058671435" lon="9.149156024195838"><ele>601.0</ele><time>2026-04-30T16:19:57.992Z</time></trkpt><trkpt lat="39.69374344089332" lon="9.14918770565859"><ele>601.0</ele><time>2026-04-30T16:19:58.992Z</time></trkpt><trkpt lat="39.693626880371454" lon="9.14919269450232"><ele>601.0</ele><time>2026-04-30T16:19:59.992Z</time></trkpt><trkpt lat="39.69351294374372" lon="9.14916944496355"><ele>601.0</ele><time>2026-04-30T16:20:00.992Z</time></trkpt><trkpt lat="39.693394672357584" lon="9.149129104380851"><ele>601.0</ele><time>2026-04-30T16:20:01.992Z</time></trkpt><trkpt lat="39.69327096824322" lon="9.14908330661573"><ele>600.5</ele><time>2026-04-30T16:20:02.992Z</time></trkpt><trkpt lat="39.693140970238396" lon="9.149044086056703"><ele>600.0</ele><time>2026-04-30T16:20:03.991Z</time></trkpt><trkpt lat="39.693007833432524" lon="9.14900926775919"><ele>599.5</ele><time>2026-04-30T16:20:04.991Z</time></trkpt><trkpt lat="39.692867124943845" lon="9.148966227788032"><ele>599.0</ele><time>2026-04-30T16:20:05.991Z</time></trkpt><trkpt lat="39.69272483237053" lon="9.148924366431505"><ele>597.75</ele><time>2026-04-30T16:20:06.991Z</time></trkpt><trkpt lat="39.69258890644636" lon="9.148882960579954"><ele>596.5</ele><time>2026-04-30T16:20:07.991Z</time></trkpt><trkpt lat="39.69246800163706" lon="9.148842732056936"><ele>595.25</ele><time>2026-04-30T16:20:08.991Z</time></trkpt><trkpt lat="39.69235727926236" lon="9.14880679694341"><ele>594.0</ele><time>2026-04-30T16:20:09.991Z</time></trkpt><trkpt lat="39.69225645511156" lon="9.148779982231229"><ele>594.0</ele><time>2026-04-30T16:20:10.991Z</time></trkpt><trkpt lat="39.69214929408615" lon="9.148751022720333"><ele>594.0</ele><time>2026-04-30T16:20:11.991Z</time></trkpt><trkpt lat="39.692040551297765" lon="9.148733971661578"><ele>594.0</ele><time>2026-04-30T16:20:12.991Z</time></trkpt><trkpt lat="39.691931462624424" lon="9.148737263701781"><ele>594.0</ele><time>2026-04-30T16:20:13.991Z</time></trkpt><trkpt lat="39.69182401025889" lon="9.148762310416977"><ele>594.0</ele><time>2026-04-30T16:20:14.991Z</time></trkpt><trkpt lat="39.691719246416106" lon="9.148807292029316"><ele>592.25</ele><time>2026-04-30T16:20:15.991Z</time></trkpt><trkpt lat="39.69161799019279" lon="9.148867820251594"><ele>590.5</ele><time>2026-04-30T16:20:16.991Z</time></trkpt><trkpt lat="39.691511108783104" lon="9.14893389577816"><ele>588.75</ele><time>2026-04-30T16:20:17.991Z</time></trkpt><trkpt lat="39.691401301004504" lon="9.149002934520654"><ele>587.0</ele><time>2026-04-30T16:20:18.991Z</time></trkpt><trkpt lat="39.69129051682746" lon="9.149071244547477"><ele>586.8000000000001</ele><time>2026-04-30T16:20:19.991Z</time></trkpt><trkpt lat="39.69118528423237" lon="9.149139480210316"><ele>586.6</ele><time>2026-04-30T16:20:20.991Z</time></trkpt><trkpt lat="39.69108751942614" lon="9.149205369487666"><ele>586.4000000000001</ele><time>2026-04-30T16:20:21.991Z</time></trkpt><trkpt lat="39.690990153142636" lon="9.14927133044372"><ele>586.2</ele><time>2026-04-30T16:20:22.991Z</time></trkpt><trkpt lat="39.69089097239627" lon="9.149318874538217"><ele>586.0</ele><time>2026-04-30T16:20:23.991Z</time></trkpt><trkpt lat="39.69080779858438" lon="9.149349913199908"><ele>585.3333333333334</ele><time>2026-04-30T16:20:24.991Z</time></trkpt><trkpt lat="39.69072544476437" lon="9.14934776100424"><ele>584.6666666666667</ele><time>2026-04-30T16:20:25.991Z</time></trkpt><trkpt lat="39.690650003565516" lon="9.149308375030508"><ele>584.0</ele><time>2026-04-30T16:20:26.991Z</time></trkpt><trkpt lat="39.690592688198976" lon="9.149247514888536"><ele>583.3333333333334</ele><time>2026-04-30T16:20:27.991Z</time></trkpt><trkpt lat="39.69054112881916" lon="9.14917578121249"><ele>582.6666666666666</ele><time>2026-04-30T16:20:28.991Z</time></trkpt><trkpt lat="39.6905039782276" lon="9.149089719207659"><ele>582.0</ele><time>2026-04-30T16:20:29.991Z</time></trkpt><trkpt lat="39.690483633786314" lon="9.148995017899487"><ele>581.6</ele><time>2026-04-30T16:20:30.991Z</time></trkpt><trkpt lat="39.69048625962686" lon="9.148886991072702"><ele>581.2</ele><time>2026-04-30T16:20:31.991Z</time></trkpt><trkpt lat="39.690507113902484" lon="9.148777503071274"><ele>580.8</ele><time>2026-04-30T16:20:32.991Z</time></trkpt><trkpt lat="39.69054889614815" lon="9.148660809302337"><ele>580.4</ele><time>2026-04-30T16:20:33.991Z</time></trkpt><trkpt lat="39.690592657355324" lon="9.148531324571934"><ele>580.0</ele><time>2026-04-30T16:20:34.991Z</time></trkpt><trkpt lat="39.69062605995111" lon="9.148383718163362"><ele>580.0</ele><time>2026-04-30T16:20:35.991Z</time></trkpt><trkpt lat="39.69062562708464" lon="9.148219663756178"><ele>580.0</ele><time>2026-04-30T16:20:36.991Z</time></trkpt><trkpt lat="39.69060153120146" lon="9.148042087123953"><ele>580.0</ele><time>2026-04-30T16:20:37.991Z</time></trkpt><trkpt lat="39.69057497598793" lon="9.147849125666301"><ele>580.0</ele><time>2026-04-30T16:20:38.991Z</time></trkpt><trkpt lat="39.69056474698261" lon="9.14764491117335"><ele>578.75</ele><time>2026-04-30T16:20:39.991Z</time></trkpt><trkpt lat="39.690581539070294" lon="9.147450804913888"><ele>577.5</ele><time>2026-04-30T16:20:40.991Z</time></trkpt><trkpt lat="39.69057119113363" lon="9.147279155893457"><ele>576.25</ele><time>2026-04-30T16:20:41.991Z</time></trkpt><trkpt lat="39.69060433008569" lon="9.14713242058148"><ele>575.0</ele><time>2026-04-30T16:20:42.991Z</time></trkpt><trkpt lat="39.69062717244822" lon="9.146994545846248"><ele>571.75</ele><time>2026-04-30T16:20:43.991Z</time></trkpt><trkpt lat="39.69070449913329" lon="9.146900240401749"><ele>568.5</ele><time>2026-04-30T16:20:44.991Z</time></trkpt><trkpt lat="39.690792415255665" lon="9.146808747922709"><ele>565.25</ele><time>2026-04-30T16:20:45.991Z</time></trkpt><trkpt lat="39.690903084932415" lon="9.146731199965187"><ele>562.0</ele><time>2026-04-30T16:20:46.991Z</time></trkpt><trkpt lat="39.691031199573935" lon="9.146645884548859"><ele>563.6666666666667</ele><time>2026-04-30T16:20:47.991Z</time></trkpt><trkpt lat="39.69116969349098" lon="9.14656246607772"><ele>565.3333333333334</ele><time>2026-04-30T16:20:48.991Z</time></trkpt><trkpt lat="39.691308117354474" lon="9.146489111549458"><ele>567.0</ele><time>2026-04-30T16:20:49.991Z</time></trkpt><trkpt lat="39.69144833233397" lon="9.146418121871651"><ele>560.3333333333334</ele><time>2026-04-30T16:20:50.991Z</time></trkpt><trkpt lat="39.69158952854723" lon="9.146353150947371"><ele>553.6666666666667</ele><time>2026-04-30T16:20:51.991Z</time></trkpt><trkpt lat="39.69173419120905" lon="9.146280453572357"><ele>547.0</ele><time>2026-04-30T16:20:52.991Z</time></trkpt><trkpt lat="39.69187170414949" lon="9.146164253149971"><ele>551.0</ele><time>2026-04-30T16:20:53.991Z</time></trkpt><trkpt lat="39.69199338519002" lon="9.14602340809534"><ele>555.0</ele><time>2026-04-30T16:20:54.991Z</time></trkpt><trkpt lat="39.69213079541448" lon="9.145912941612735"><ele>559.0</ele><time>2026-04-30T16:20:55.991Z</time></trkpt><trkpt lat="39.69226263306181" lon="9.145792394624555"><ele>553.3333333333334</ele><time>2026-04-30T16:20:56.991Z</time></trkpt><trkpt lat="39.69239044220154" lon="9.145685783940577"><ele>547.6666666666666</ele><time>2026-04-30T16:20:57.991Z</time></trkpt><trkpt lat="39.69251650918834" lon="9.145580557712544"><ele>542.0</ele><time>2026-04-30T16:20:58.991Z</time></trkpt><trkpt lat="39.6926414410357" lon="9.145475498166823"><ele>546.6666666666666</ele><time>2026-04-30T16:20:59.991Z</time></trkpt><trkpt lat="39.692762343217524" lon="9.1453608085318"><ele>551.3333333333334</ele><time>2026-04-30T16:21:00.991Z</time></trkpt><trkpt lat="39.692880031275855" lon="9.14523148848047"><ele>556.0</ele><time>2026-04-30T16:21:01.991Z</time></trkpt><trkpt lat="39.69297417561855" lon="9.145075546112583"><ele>556.0</ele><time>2026-04-30T16:21:02.991Z</time></trkpt><trkpt lat="39.69306949647935" lon="9.144920847755872"><ele>556.0</ele><time>2026-04-30T16:21:03.991Z</time></trkpt><trkpt lat="39.69314601924644" lon="9.144744094333262"><ele>556.0</ele><time>2026-04-30T16:21:04.991Z</time></trkpt><trkpt lat="39.693204565787134" lon="9.144553731888921"><ele>553.75</ele><time>2026-04-30T16:21:05.991Z</time></trkpt><trkpt lat="39.69324563235519" lon="9.144363294168988"><ele>551.5</ele><time>2026-04-30T16:21:06.991Z</time></trkpt><trkpt lat="39.6932750937074" lon="9.144178739174382"><ele>549.25</ele><time>2026-04-30T16:21:07.991Z</time></trkpt><trkpt lat="39.6932923537355" lon="9.143996544991928"><ele>547.0</ele><time>2026-04-30T16:21:08.991Z</time></trkpt><trkpt lat="39.69330423057836" lon="9.143814062177567"><ele>545.0</ele><time>2026-04-30T16:21:09.991Z</time></trkpt><trkpt lat="39.69332268840176" lon="9.14364637992907"><ele>543.0</ele><time>2026-04-30T16:21:10.991Z</time></trkpt><trkpt lat="39.69338361916868" lon="9.143504531728802"><ele>541.0</ele><time>2026-04-30T16:21:11.991Z</time></trkpt><trkpt lat="39.69347385200455" lon="9.14339526972566"><ele>539.0</ele><time>2026-04-30T16:21:12.991Z</time></trkpt><trkpt lat="39.69356985343534" lon="9.143267118098997"><ele>538.3333333333333</ele><time>2026-04-30T16:21:13.991Z</time></trkpt><trkpt lat="39.693673430131646" lon="9.143128392321643"><ele>537.6666666666666</ele><time>2026-04-30T16:21:14.991Z</time></trkpt><trkpt lat="39.69377563375887" lon="9.142988681322235"><ele>537.0</ele><time>2026-04-30T16:21:15.99Z</time></trkpt><trkpt lat="39.69386829547128" lon="9.14283024765587"><ele>537.0</ele><time>2026-04-30T16:21:16.99Z</time></trkpt><trkpt lat="39.69396823603158" lon="9.142678722812873"><ele>537.0</ele><time>2026-04-30T16:21:17.99Z</time></trkpt><trkpt lat="39.69406480736043" lon="9.142512456128001"><ele>537.0</ele><time>2026-04-30T16:21:18.99Z</time></trkpt><trkpt lat="39.69415848001173" lon="9.142339597655699"><ele>535.0</ele><time>2026-04-30T16:21:19.99Z</time></trkpt><trkpt lat="39.694262488961535" lon="9.142180621194678"><ele>533.0</ele><time>2026-04-30T16:21:20.99Z</time></trkpt><trkpt lat="39.69438374899385" lon="9.14203805053171"><ele>531.0</ele><time>2026-04-30T16:21:21.99Z</time></trkpt><trkpt lat="39.69451338876335" lon="9.141919913610009"><ele>531.0</ele><time>2026-04-30T16:21:22.99Z</time></trkpt><trkpt lat="39.69461831188857" lon="9.141782584550695"><ele>531.0</ele><time>2026-04-30T16:21:23.99Z</time></trkpt><trkpt lat="39.69473480442896" lon="9.141670780410557"><ele>531.0</ele><time>2026-04-30T16:21:24.99Z</time></trkpt><trkpt lat="39.69486611681191" lon="9.141590186920299"><ele>531.0</ele><time>2026-04-30T16:21:25.99Z</time></trkpt><trkpt lat="39.69500147650069" lon="9.141515416752659"><ele>527.6666666666666</ele><time>2026-04-30T16:21:26.99Z</time></trkpt><trkpt lat="39.6951460865829" lon="9.141452564231242"><ele>524.3333333333333</ele><time>2026-04-30T16:21:27.99Z</time></trkpt><trkpt lat="39.69529297749204" lon="9.141390658347929"><ele>521.0</ele><time>2026-04-30T16:21:28.99Z</time></trkpt><trkpt lat="39.69544715788336" lon="9.141325268177383"><ele>521.0</ele><time>2026-04-30T16:21:29.99Z</time></trkpt><trkpt lat="39.69559788266584" lon="9.141254687353978"><ele>521.0</ele><time>2026-04-30T16:21:30.99Z</time></trkpt><trkpt lat="39.695746129258836" lon="9.141175796548739"><ele>521.0</ele><time>2026-04-30T16:21:31.99Z</time></trkpt><trkpt lat="39.6958851522967" lon="9.14109034069522"><ele>521.0</ele><time>2026-04-30T16:21:32.99Z</time></trkpt><trkpt lat="39.69600262009749" lon="9.140984467684941"><ele>521.0</ele><time>2026-04-30T16:21:33.99Z</time></trkpt><trkpt lat="39.69612826364985" lon="9.140915256722396"><ele>521.0</ele><time>2026-04-30T16:21:34.99Z</time></trkpt><trkpt lat="39.696233825150614" lon="9.140784307418643"><ele>521.0</ele><time>2026-04-30T16:21:35.99Z</time></trkpt><trkpt lat="39.69633400348199" lon="9.140634294565585"><ele>520.0</ele><time>2026-04-30T16:21:36.99Z</time></trkpt><trkpt lat="39.69642110885753" lon="9.14045209858363"><ele>519.0</ele><time>2026-04-30T16:21:37.99Z</time></trkpt><trkpt lat="39.696504435495235" lon="9.14025077809696"><ele>518.0</ele><time>2026-04-30T16:21:38.99Z</time></trkpt><trkpt lat="39.69658246306718" lon="9.140048452461384"><ele>516.3333333333333</ele><time>2026-04-30T16:21:39.99Z</time></trkpt><trkpt lat="39.69664388635143" lon="9.139852780452644"><ele>514.6666666666666</ele><time>2026-04-30T16:21:40.99Z</time></trkpt><trkpt lat="39.69669745160875" lon="9.139663271273518"><ele>513.0</ele><time>2026-04-30T16:21:41.99Z</time></trkpt><trkpt lat="39.696750043039366" lon="9.13947418250015"><ele>513.0</ele><time>2026-04-30T16:21:42.99Z</time></trkpt><trkpt lat="39.696801828422025" lon="9.139284996617477"><ele>513.0</ele><time>2026-04-30T16:21:43.99Z</time></trkpt><trkpt lat="39.69684010284776" lon="9.13911024920384"><ele>513.0</ele><time>2026-04-30T16:21:44.99Z</time></trkpt><trkpt lat="39.696857517831674" lon="9.13894697522653"><ele>513.0</ele><time>2026-04-30T16:21:45.99Z</time></trkpt><trkpt lat="39.696847879153275" lon="9.138779367930566"><ele>511.5</ele><time>2026-04-30T16:21:46.99Z</time></trkpt><trkpt lat="39.69681056212488" lon="9.138603488960266"><ele>510.0</ele><time>2026-04-30T16:21:47.99Z</time></trkpt><trkpt lat="39.69675977036966" lon="9.138432702153784"><ele>508.5</ele><time>2026-04-30T16:21:48.99Z</time></trkpt><trkpt lat="39.69670744198126" lon="9.13826113629914"><ele>507.0</ele><time>2026-04-30T16:21:49.99Z</time></trkpt><trkpt lat="39.696664867492025" lon="9.138088121387975"><ele>506.0</ele><time>2026-04-30T16:21:50.99Z</time></trkpt><trkpt lat="39.69663601042741" lon="9.13791046009673"><ele>505.0</ele><time>2026-04-30T16:21:51.99Z</time></trkpt><trkpt lat="39.696622590285095" lon="9.137737474795403"><ele>504.0</ele><time>2026-04-30T16:21:52.99Z</time></trkpt><trkpt lat="39.69663610571853" lon="9.137572288527398"><ele>503.0</ele><time>2026-04-30T16:21:53.99Z</time></trkpt><trkpt lat="39.69670757155902" lon="9.137432571594822"><ele>503.0</ele><time>2026-04-30T16:21:54.99Z</time></trkpt><trkpt lat="39.696792088441605" lon="9.137284930785537"><ele>503.0</ele><time>2026-04-30T16:21:55.99Z</time></trkpt><trkpt lat="39.69689150778266" lon="9.137140611039639"><ele>503.0</ele><time>2026-04-30T16:21:56.99Z</time></trkpt><trkpt lat="39.697000575115574" lon="9.13700458244293"><ele>503.0</ele><time>2026-04-30T16:21:57.99Z</time></trkpt><trkpt lat="39.69712063588083" lon="9.13688389363889"><ele>503.0</ele><time>2026-04-30T16:21:58.99Z</time></trkpt><trkpt lat="39.69724849281414" lon="9.136757186112284"><ele>503.0</ele><time>2026-04-30T16:21:59.99Z</time></trkpt><trkpt lat="39.697362676927064" lon="9.136604198140095"><ele>503.0</ele><time>2026-04-30T16:22:00.99Z</time></trkpt><trkpt lat="39.697454578549696" lon="9.136419696953464"><ele>498.66666666666663</ele><time>2026-04-30T16:22:01.99Z</time></trkpt><trkpt lat="39.697552042369985" lon="9.136237285224805"><ele>494.33333333333337</ele><time>2026-04-30T16:22:02.99Z</time></trkpt><trkpt lat="39.69764970773283" lon="9.13604881868455"><ele>490.0</ele><time>2026-04-30T16:22:03.99Z</time></trkpt><trkpt lat="39.697746213871994" lon="9.135856905896395"><ele>490.6666666666667</ele><time>2026-04-30T16:22:04.99Z</time></trkpt><trkpt lat="39.69783886804622" lon="9.135664165375553"><ele>491.33333333333337</ele><time>2026-04-30T16:22:05.99Z</time></trkpt><trkpt lat="39.69792425690321" lon="9.135474722119671"><ele>492.0</ele><time>2026-04-30T16:22:06.99Z</time></trkpt><trkpt lat="39.69799311695602" lon="9.13527096433545"><ele>492.0</ele><time>2026-04-30T16:22:07.99Z</time></trkpt><trkpt lat="39.69805154970568" lon="9.135065796271798"><ele>492.0</ele><time>2026-04-30T16:22:08.99Z</time></trkpt><trkpt lat="39.69810465452541" lon="9.134857940449786"><ele>492.0</ele><time>2026-04-30T16:22:09.99Z</time></trkpt><trkpt lat="39.6981489491017" lon="9.134643659077993"><ele>489.66666666666663</ele><time>2026-04-30T16:22:10.99Z</time></trkpt><trkpt lat="39.69820909992325" lon="9.134430846458292"><ele>487.3333333333333</ele><time>2026-04-30T16:22:11.99Z</time></trkpt><trkpt lat="39.69823759806865" lon="9.13419464971693"><ele>485.0</ele><time>2026-04-30T16:22:12.99Z</time></trkpt><trkpt lat="39.69827541188293" lon="9.13396878806971"><ele>483.3333333333333</ele><time>2026-04-30T16:22:13.99Z</time></trkpt><trkpt lat="39.698301382341434" lon="9.133752055425493"><ele>481.66666666666663</ele><time>2026-04-30T16:22:14.99Z</time></trkpt><trkpt lat="39.69832417981478" lon="9.133530360513278"><ele>480.0</ele><time>2026-04-30T16:22:15.99Z</time></trkpt><trkpt lat="39.698348105840815" lon="9.133308230696072"><ele>478.66666666666663</ele><time>2026-04-30T16:22:16.99Z</time></trkpt><trkpt lat="39.69838699127728" lon="9.133081993894352"><ele>477.3333333333333</ele><time>2026-04-30T16:22:17.99Z</time></trkpt><trkpt lat="39.69842879775669" lon="9.132855516459893"><ele>476.0</ele><time>2026-04-30T16:22:18.99Z</time></trkpt><trkpt lat="39.698461459702074" lon="9.132622475707473"><ele>476.0</ele><time>2026-04-30T16:22:19.99Z</time></trkpt><trkpt lat="39.69847303478123" lon="9.132395235425847"><ele>476.0</ele><time>2026-04-30T16:22:20.99Z</time></trkpt><trkpt lat="39.69847775437531" lon="9.132184709665399"><ele>476.0</ele><time>2026-04-30T16:22:21.99Z</time></trkpt><trkpt lat="39.69850914032798" lon="9.131983985770514"><ele>477.66666666666663</ele><time>2026-04-30T16:22:22.99Z</time></trkpt><trkpt lat="39.69858142035408" lon="9.131799713487812"><ele>479.33333333333337</ele><time>2026-04-30T16:22:23.99Z</time></trkpt><trkpt lat="39.69865703202765" lon="9.13161681274396"><ele>481.0</ele><time>2026-04-30T16:22:24.99Z</time></trkpt><trkpt lat="39.698744607843565" lon="9.131458716870975"><ele>475.6666666666667</ele><time>2026-04-30T16:22:25.99Z</time></trkpt><trkpt lat="39.698832457081544" lon="9.131310475805819"><ele>470.33333333333337</ele><time>2026-04-30T16:22:26.99Z</time></trkpt><trkpt lat="39.698971320191525" lon="9.131220929419541"><ele>465.0</ele><time>2026-04-30T16:22:27.99Z</time></trkpt><trkpt lat="39.699122630829315" lon="9.131135380531262"><ele>465.0</ele><time>2026-04-30T16:22:28.99Z</time></trkpt><trkpt lat="39.69927728104941" lon="9.131050505308346"><ele>465.0</ele><time>2026-04-30T16:22:29.99Z</time></trkpt><trkpt lat="39.699411974515336" lon="9.130958328935634"><ele>465.0</ele><time>2026-04-30T16:22:30.989Z</time></trkpt><trkpt lat="39.699530736193005" lon="9.130886306799576"><ele>466.5</ele><time>2026-04-30T16:22:31.989Z</time></trkpt><trkpt lat="39.6996178884022" lon="9.130796495757817"><ele>468.0</ele><time>2026-04-30T16:22:32.989Z</time></trkpt><trkpt lat="39.699672261113236" lon="9.130674670386922"><ele>469.5</ele><time>2026-04-30T16:22:33.989Z</time></trkpt><trkpt lat="39.69968343501058" lon="9.130509970172309"><ele>471.0</ele><time>2026-04-30T16:22:34.989Z</time></trkpt><trkpt lat="39.69969270367842" lon="9.13032404094373"><ele>471.0</ele><time>2026-04-30T16:22:35.989Z</time></trkpt><trkpt lat="39.69971008590099" lon="9.130146579077811"><ele>471.0</ele><time>2026-04-30T16:22:36.989Z</time></trkpt><trkpt lat="39.69971986113894" lon="9.129978528690184"><ele>471.0</ele><time>2026-04-30T16:22:37.989Z</time></trkpt><trkpt lat="39.699638567200005" lon="9.129806208815653"><ele>471.0</ele><time>2026-04-30T16:22:38.989Z</time></trkpt><trkpt lat="39.699554478321744" lon="9.129627909472472"><ele>472.66666666666663</ele><time>2026-04-30T16:22:39.989Z</time></trkpt><trkpt lat="39.69950024432522" lon="9.129441252807327"><ele>474.3333333333333</ele><time>2026-04-30T16:22:40.989Z</time></trkpt><trkpt lat="39.69947008383088" lon="9.12923398872607"><ele>476.0</ele><time>2026-04-30T16:22:41.989Z</time></trkpt><trkpt lat="39.699422778915924" lon="9.129005522459158"><ele>468.0</ele><time>2026-04-30T16:22:42.989Z</time></trkpt><trkpt lat="39.699343020104884" lon="9.128786909260821"><ele>460.0</ele><time>2026-04-30T16:22:43.989Z</time></trkpt><trkpt lat="39.699273612499" lon="9.128572795631918"><ele>452.0</ele><time>2026-04-30T16:22:44.989Z</time></trkpt><trkpt lat="39.69920969781681" lon="9.128370357732214"><ele>451.3333333333333</ele><time>2026-04-30T16:22:45.989Z</time></trkpt><trkpt lat="39.699150820802295" lon="9.12817685225411"><ele>450.66666666666663</ele><time>2026-04-30T16:22:46.989Z</time></trkpt><trkpt lat="39.69910782319177" lon="9.127979668449958"><ele>450.0</ele><time>2026-04-30T16:22:47.989Z</time></trkpt><trkpt lat="39.699068094970315" lon="9.12778189682859"><ele>450.0</ele><time>2026-04-30T16:22:48.989Z</time></trkpt><trkpt lat="39.699039860933176" lon="9.127577375081543"><ele>450.0</ele><time>2026-04-30T16:22:49.989Z</time></trkpt><trkpt lat="39.699022818431274" lon="9.127374850886612"><ele>450.0</ele><time>2026-04-30T16:22:50.989Z</time></trkpt><trkpt lat="39.69902707754831" lon="9.127199487657919"><ele>449.6</ele><time>2026-04-30T16:22:51.989Z</time></trkpt><trkpt lat="39.699030805904336" lon="9.127033172167891"><ele>449.2</ele><time>2026-04-30T16:22:52.989Z</time></trkpt><trkpt lat="39.699034065224346" lon="9.126906501988401"><ele>448.79999999999995</ele><time>2026-04-30T16:22:53.989Z</time></trkpt><trkpt lat="39.69903319816925" lon="9.126794638152"><ele>448.4</ele><time>2026-04-30T16:22:54.989Z</time></trkpt><trkpt lat="39.6990288267614" lon="9.126689511319894"><ele>448.0</ele><time>2026-04-30T16:22:55.989Z</time></trkpt><trkpt lat="39.69902499049583" lon="9.126580469639741"><ele>447.4</ele><time>2026-04-30T16:22:56.989Z</time></trkpt><trkpt lat="39.699022703651075" lon="9.12645741417459"><ele>446.79999999999995</ele><time>2026-04-30T16:22:57.989Z</time></trkpt><trkpt lat="39.69901964934151" lon="9.126330787247788"><ele>446.2</ele><time>2026-04-30T16:22:58.989Z</time></trkpt><trkpt lat="39.699021580615664" lon="9.12619016348322"><ele>445.6</ele><time>2026-04-30T16:22:59.989Z</time></trkpt><trkpt lat="39.69902624152111" lon="9.126058296246157"><ele>445.0</ele><time>2026-04-30T16:23:00.989Z</time></trkpt><trkpt lat="39.6990243348175" lon="9.125939054862666"><ele>445.00000000000006</ele><time>2026-04-30T16:23:01.989Z</time></trkpt><trkpt lat="39.69902476210302" lon="9.125828152392296"><ele>445.0</ele><time>2026-04-30T16:23:02.989Z</time></trkpt><trkpt lat="39.69902407538725" lon="9.125726944998823"><ele>445.0</ele><time>2026-04-30T16:23:03.989Z</time></trkpt><trkpt lat="39.69902660607998" lon="9.125624795640928"><ele>445.0</ele><time>2026-04-30T16:23:04.989Z</time></trkpt><trkpt lat="39.699022090372765" lon="9.125522920489875"><ele>445.00000000000006</ele><time>2026-04-30T16:23:05.989Z</time></trkpt><trkpt lat="39.69902450346016" lon="9.125420111258915"><ele>445.0</ele><time>2026-04-30T16:23:06.989Z</time></trkpt><trkpt lat="39.69902541047102" lon="9.125305873996291"><ele>444.50000000000006</ele><time>2026-04-30T16:23:07.989Z</time></trkpt><trkpt lat="39.699015060773476" lon="9.125200568876405"><ele>444.0</ele><time>2026-04-30T16:23:08.989Z</time></trkpt><trkpt lat="39.69898994447778" lon="9.125116053372096"><ele>443.5</ele><time>2026-04-30T16:23:09.989Z</time></trkpt><trkpt lat="39.69893841396057" lon="9.12504642828556"><ele>443.0</ele><time>2026-04-30T16:23:10.989Z</time></trkpt><trkpt lat="39.69885993008381" lon="9.125008959850925"><ele>442.50000000000006</ele><time>2026-04-30T16:23:11.989Z</time></trkpt><trkpt lat="39.698778957981155" lon="9.124970294979365"><ele>442.0</ele><time>2026-04-30T16:23:12.989Z</time></trkpt><trkpt lat="39.69870785240332" lon="9.124921046729238"><ele>441.0</ele><time>2026-04-30T16:23:13.989Z</time></trkpt><trkpt lat="39.69865300001676" lon="9.12487039877268"><ele>440.00000000000006</ele><time>2026-04-30T16:23:14.989Z</time></trkpt><trkpt lat="39.698673222852946" lon="9.124697647500193"><ele>439.00000000000006</ele><time>2026-04-30T16:23:16.989Z</time></trkpt><trkpt lat="39.69873274132449" lon="9.12461562579333"><ele>438.0</ele><time>2026-04-30T16:23:17.989Z</time></trkpt><trkpt lat="39.698790640685324" lon="9.12449873343889"><ele>437.0</ele><time>2026-04-30T16:23:18.989Z</time></trkpt><trkpt lat="39.698856501881046" lon="9.124374112444814"><ele>437.0</ele><time>2026-04-30T16:23:19.989Z</time></trkpt><trkpt lat="39.69890763387805" lon="9.124235134601877"><ele>437.0</ele><time>2026-04-30T16:23:20.989Z</time></trkpt><trkpt lat="39.69897208577728" lon="9.124109848097671"><ele>437.0</ele><time>2026-04-30T16:23:21.989Z</time></trkpt><trkpt lat="39.69901825953952" lon="9.123969395403648"><ele>437.0</ele><time>2026-04-30T16:23:22.989Z</time></trkpt><trkpt lat="39.69905314674995" lon="9.123819204280531"><ele>435.25</ele><time>2026-04-30T16:23:23.989Z</time></trkpt><trkpt lat="39.699072233096366" lon="9.12365092418112"><ele>433.5</ele><time>2026-04-30T16:23:24.989Z</time></trkpt><trkpt lat="39.699092415262285" lon="9.123491570084994"><ele>431.75</ele><time>2026-04-30T16:23:25.989Z</time></trkpt><trkpt lat="39.699108783006196" lon="9.123344196139403"><ele>430.0</ele><time>2026-04-30T16:23:26.989Z</time></trkpt><trkpt lat="39.69911511248205" lon="9.123195489171136"><ele>429.0</ele><time>2026-04-30T16:23:27.989Z</time></trkpt><trkpt lat="39.69912287857731" lon="9.123048126488756"><ele>428.0</ele><time>2026-04-30T16:23:28.989Z</time></trkpt><trkpt lat="39.69913176962557" lon="9.122904368782747"><ele>427.0</ele><time>2026-04-30T16:23:29.989Z</time></trkpt><trkpt lat="39.6991386396693" lon="9.122772143751186"><ele>426.0</ele><time>2026-04-30T16:23:30.989Z</time></trkpt><trkpt lat="39.699141636940816" lon="9.122644134516637"><ele>425.0</ele><time>2026-04-30T16:23:31.989Z</time></trkpt><trkpt lat="39.69914458040525" lon="9.122522957571922"><ele>425.0</ele><time>2026-04-30T16:23:32.989Z</time></trkpt><trkpt lat="39.69915491393184" lon="9.122403908158756"><ele>425.0</ele><time>2026-04-30T16:23:33.989Z</time></trkpt><trkpt lat="39.699163236511104" lon="9.122283171915099"><ele>425.0</ele><time>2026-04-30T16:23:34.989Z</time></trkpt><trkpt lat="39.69917003129521" lon="9.122164993820585"><ele>425.0</ele><time>2026-04-30T16:23:35.989Z</time></trkpt><trkpt lat="39.69917730561297" lon="9.12203592595299"><ele>425.0</ele><time>2026-04-30T16:23:36.989Z</time></trkpt><trkpt lat="39.6992066767899" lon="9.121921399402275"><ele>424.3333333333333</ele><time>2026-04-30T16:23:37.989Z</time></trkpt><trkpt lat="39.69919420349676" lon="9.121809068863854"><ele>423.66666666666663</ele><time>2026-04-30T16:23:38.989Z</time></trkpt><trkpt lat="39.69917239477301" lon="9.12170739544432"><ele>423.0</ele><time>2026-04-30T16:23:39.989Z</time></trkpt><trkpt lat="39.69915089344149" lon="9.121608875810077"><ele>422.33333333333337</ele><time>2026-04-30T16:23:40.989Z</time></trkpt><trkpt lat="39.69913223140864" lon="9.121516560014019"><ele>421.6666666666667</ele><time>2026-04-30T16:23:41.989Z</time></trkpt><trkpt lat="39.69913006778178" lon="9.121406409747715"><ele>421.0</ele><time>2026-04-30T16:23:42.988Z</time></trkpt><trkpt lat="39.699145954869245" lon="9.121308490488483"><ele>421.1666666666667</ele><time>2026-04-30T16:23:43.988Z</time></trkpt><trkpt lat="39.699162675524" lon="9.121211489710877"><ele>421.33333333333337</ele><time>2026-04-30T16:23:44.988Z</time></trkpt><trkpt lat="39.69917778053388" lon="9.121124256670466"><ele>421.5</ele><time>2026-04-30T16:23:45.988Z</time></trkpt><trkpt lat="39.69919066260188" lon="9.121027757461201"><ele>421.66666666666663</ele><time>2026-04-30T16:23:46.988Z</time></trkpt><trkpt lat="39.699196025397505" lon="9.120928541622941"><ele>421.8333333333333</ele><time>2026-04-30T16:23:47.988Z</time></trkpt><trkpt lat="39.69919455104589" lon="9.120830629415071"><ele>422.0</ele><time>2026-04-30T16:23:48.988Z</time></trkpt><trkpt lat="39.699196368317835" lon="9.12072902613899"><ele>422.0</ele><time>2026-04-30T16:23:49.988Z</time></trkpt><trkpt lat="39.699188925302856" lon="9.120624391959364"><ele>422.0</ele><time>2026-04-30T16:23:50.988Z</time></trkpt><trkpt lat="39.699176465679194" lon="9.120526090461516"><ele>422.0</ele><time>2026-04-30T16:23:51.988Z</time></trkpt><trkpt lat="39.699162093031816" lon="9.12042784740994"><ele>422.0</ele><time>2026-04-30T16:23:52.988Z</time></trkpt><trkpt lat="39.699145966767865" lon="9.120337174160545"><ele>422.0</ele><time>2026-04-30T16:23:53.988Z</time></trkpt><trkpt lat="39.69913077965798" lon="9.120250367899605"><ele>422.0</ele><time>2026-04-30T16:23:54.988Z</time></trkpt><trkpt lat="39.69910836079424" lon="9.120170638968682"><ele>422.0</ele><time>2026-04-30T16:23:55.988Z</time></trkpt><trkpt lat="39.699088091685546" lon="9.120077461493239"><ele>421.99999999999994</ele><time>2026-04-30T16:23:56.988Z</time></trkpt><trkpt lat="39.69906511582258" lon="9.11999681949121"><ele>422.0</ele><time>2026-04-30T16:23:57.988Z</time></trkpt><trkpt lat="39.69905504390149" lon="9.119910075822089"><ele>422.0</ele><time>2026-04-30T16:23:58.988Z</time></trkpt><trkpt lat="39.69902072376984" lon="9.119760007105983"><ele>422.0</ele><time>2026-04-30T16:24:00.988Z</time></trkpt><trkpt lat="39.698995594297116" lon="9.119683724610109"><ele>421.99999999999994</ele><time>2026-04-30T16:24:01.988Z</time></trkpt><trkpt lat="39.69894149299666" lon="9.119530189682044"><ele>422.0</ele><time>2026-04-30T16:24:03.988Z</time></trkpt><trkpt lat="39.69891570571062" lon="9.119441428605743"><ele>422.49999999999994</ele><time>2026-04-30T16:24:04.988Z</time></trkpt><trkpt lat="39.69888913950764" lon="9.119362919436533"><ele>423.0</ele><time>2026-04-30T16:24:05.988Z</time></trkpt><trkpt lat="39.698876545027915" lon="9.119265366863829"><ele>423.5</ele><time>2026-04-30T16:24:06.988Z</time></trkpt><trkpt lat="39.69885119047162" lon="9.119181509894792"><ele>424.0</ele><time>2026-04-30T16:24:07.988Z</time></trkpt><trkpt lat="39.6988267308852" lon="9.119100612256606"><ele>424.49999999999994</ele><time>2026-04-30T16:24:08.988Z</time></trkpt><trkpt lat="39.69876538886029" lon="9.118958929085373"><ele>425.0</ele><time>2026-04-30T16:24:10.988Z</time></trkpt><trkpt lat="39.69873036755747" lon="9.11880486272687"><ele>425.4</ele><time>2026-04-30T16:24:12.988Z</time></trkpt><trkpt lat="39.69870471481129" lon="9.11871969214065"><ele>425.8</ele><time>2026-04-30T16:24:13.988Z</time></trkpt><trkpt lat="39.69866322647149" lon="9.118618390067219"><ele>426.20000000000005</ele><time>2026-04-30T16:24:14.988Z</time></trkpt><trkpt lat="39.698614129986154" lon="9.118513910953133"><ele>426.6</ele><time>2026-04-30T16:24:15.988Z</time></trkpt><trkpt lat="39.69855691353701" lon="9.11840376464114"><ele>427.0</ele><time>2026-04-30T16:24:16.988Z</time></trkpt><trkpt lat="39.69849522634636" lon="9.118295118791703"><ele>426.0</ele><time>2026-04-30T16:24:17.988Z</time></trkpt><trkpt lat="39.698430687102444" lon="9.118176682452718"><ele>425.00000000000006</ele><time>2026-04-30T16:24:18.988Z</time></trkpt><trkpt lat="39.69836670468017" lon="9.118063179472502"><ele>424.0</ele><time>2026-04-30T16:24:19.988Z</time></trkpt><trkpt lat="39.69831117499905" lon="9.117961169418136"><ele>423.0</ele><time>2026-04-30T16:24:20.988Z</time></trkpt><trkpt lat="39.69826389178023" lon="9.117872912735066"><ele>422.0</ele><time>2026-04-30T16:24:21.988Z</time></trkpt><trkpt lat="39.698219471695246" lon="9.1177937094628"><ele>422.0</ele><time>2026-04-30T16:24:22.988Z</time></trkpt><trkpt lat="39.69818076672723" lon="9.117706861407976"><ele>422.0</ele><time>2026-04-30T16:24:23.988Z</time></trkpt><trkpt lat="39.69814276921188" lon="9.117609823734057"><ele>422.0</ele><time>2026-04-30T16:24:24.988Z</time></trkpt><trkpt lat="39.6981089075875" lon="9.11749756259445"><ele>422.0</ele><time>2026-04-30T16:24:25.988Z</time></trkpt><trkpt lat="39.69806276813727" lon="9.117380051341271"><ele>422.0</ele><time>2026-04-30T16:24:26.988Z</time></trkpt><trkpt lat="39.698031581306566" lon="9.117236738737173"><ele>421.75</ele><time>2026-04-30T16:24:27.988Z</time></trkpt><trkpt lat="39.697996343089756" lon="9.117088158842156"><ele>421.5</ele><time>2026-04-30T16:24:28.988Z</time></trkpt><trkpt lat="39.69796042649722" lon="9.116931525877465"><ele>421.25</ele><time>2026-04-30T16:24:29.988Z</time></trkpt><trkpt lat="39.69793280614785" lon="9.116758397450615"><ele>421.0</ele><time>2026-04-30T16:24:30.988Z</time></trkpt><trkpt lat="39.69791515951758" lon="9.11658253115711"><ele>420.25</ele><time>2026-04-30T16:24:31.988Z</time></trkpt><trkpt lat="39.69790415976293" lon="9.116410614377807"><ele>419.5</ele><time>2026-04-30T16:24:32.988Z</time></trkpt><trkpt lat="39.6979000911289" lon="9.11624140456948"><ele>418.75</ele><time>2026-04-30T16:24:33.988Z</time></trkpt><trkpt lat="39.69789784788891" lon="9.116078030799956"><ele>418.0</ele><time>2026-04-30T16:24:34.988Z</time></trkpt><trkpt lat="39.69789603764234" lon="9.115917331328653"><ele>418.0</ele><time>2026-04-30T16:24:35.988Z</time></trkpt><trkpt lat="39.69789284002123" lon="9.115757227273992"><ele>418.0</ele><time>2026-04-30T16:24:36.988Z</time></trkpt><trkpt lat="39.69788869498547" lon="9.11560414932683"><ele>418.0</ele><time>2026-04-30T16:24:37.988Z</time></trkpt><trkpt lat="39.6978808819484" lon="9.115449628305598"><ele>418.0</ele><time>2026-04-30T16:24:38.988Z</time></trkpt><trkpt lat="39.697871844252134" lon="9.115294099176426"><ele>417.75</ele><time>2026-04-30T16:24:39.988Z</time></trkpt><trkpt lat="39.697849223961654" lon="9.115131904876964"><ele>417.5</ele><time>2026-04-30T16:24:40.988Z</time></trkpt><trkpt lat="39.69780388291556" lon="9.114962283393334"><ele>417.25</ele><time>2026-04-30T16:24:41.988Z</time></trkpt><trkpt lat="39.69773772688446" lon="9.11479120363162"><ele>417.0</ele><time>2026-04-30T16:24:42.988Z</time></trkpt><trkpt lat="39.69767033087717" lon="9.114624308065878"><ele>413.5</ele><time>2026-04-30T16:24:43.988Z</time></trkpt><trkpt lat="39.697609326079714" lon="9.114450664683233"><ele>410.0</ele><time>2026-04-30T16:24:44.988Z</time></trkpt><trkpt lat="39.69755841114138" lon="9.1142635126211"><ele>406.5</ele><time>2026-04-30T16:24:45.988Z</time></trkpt><trkpt lat="39.69751810633127" lon="9.114084950318109"><ele>403.0</ele><time>2026-04-30T16:24:46.988Z</time></trkpt><trkpt lat="39.69748348160105" lon="9.113914696488495"><ele>402.25</ele><time>2026-04-30T16:24:47.988Z</time></trkpt><trkpt lat="39.697448907622565" lon="9.113739271176424"><ele>401.5</ele><time>2026-04-30T16:24:48.988Z</time></trkpt><trkpt lat="39.697415164896" lon="9.113557869812137"><ele>400.75</ele><time>2026-04-30T16:24:49.988Z</time></trkpt><trkpt lat="39.697381437974386" lon="9.113368124902935"><ele>400.0</ele><time>2026-04-30T16:24:50.988Z</time></trkpt><trkpt lat="39.69734370344941" lon="9.113162496722301"><ele>399.0</ele><time>2026-04-30T16:24:51.988Z</time></trkpt><trkpt lat="39.69730884996359" lon="9.112964623756238"><ele>398.0</ele><time>2026-04-30T16:24:52.988Z</time></trkpt><trkpt lat="39.69727412529556" lon="9.112773111066215"><ele>397.0</ele><time>2026-04-30T16:24:53.988Z</time></trkpt><trkpt lat="39.69724907064998" lon="9.112596677706051"><ele>396.0</ele><time>2026-04-30T16:24:54.988Z</time></trkpt><trkpt lat="39.697267038067935" lon="9.112428143603434"><ele>393.33333333333337</ele><time>2026-04-30T16:24:55.988Z</time></trkpt><trkpt lat="39.697316416374065" lon="9.11226391279684"><ele>390.6666666666667</ele><time>2026-04-30T16:24:56.988Z</time></trkpt><trkpt lat="39.697379496731294" lon="9.112077811147792"><ele>388.0</ele><time>2026-04-30T16:24:57.988Z</time></trkpt><trkpt lat="39.69744824844074" lon="9.111879485776061"><ele>388.0</ele><time>2026-04-30T16:24:58.988Z</time></trkpt><trkpt lat="39.697514734630374" lon="9.111677958632379"><ele>388.0</ele><time>2026-04-30T16:24:59.987Z</time></trkpt><trkpt lat="39.69757167059139" lon="9.111463450701581"><ele>388.0</ele><time>2026-04-30T16:25:00.987Z</time></trkpt><trkpt lat="39.69760830442151" lon="9.111238541396075"><ele>385.0</ele><time>2026-04-30T16:25:01.987Z</time></trkpt><trkpt lat="39.69765174184391" lon="9.111010138058171"><ele>382.0</ele><time>2026-04-30T16:25:02.987Z</time></trkpt><trkpt lat="39.69769642787513" lon="9.11079881860726"><ele>379.0</ele><time>2026-04-30T16:25:03.987Z</time></trkpt><trkpt lat="39.69774653548951" lon="9.110601942562411"><ele>379.0</ele><time>2026-04-30T16:25:04.987Z</time></trkpt><trkpt lat="39.69782712851673" lon="9.110441502768973"><ele>379.0</ele><time>2026-04-30T16:25:05.987Z</time></trkpt><trkpt lat="39.6979273331882" lon="9.110296030587305"><ele>379.0</ele><time>2026-04-30T16:25:06.987Z</time></trkpt><trkpt lat="39.69804903203388" lon="9.11014954459728"><ele>379.0</ele><time>2026-04-30T16:25:07.987Z</time></trkpt><trkpt lat="39.69817781973992" lon="9.109992387881615"><ele>379.0</ele><time>2026-04-30T16:25:08.987Z</time></trkpt><trkpt lat="39.69831356861047" lon="9.109831393641436"><ele>379.0</ele><time>2026-04-30T16:25:09.987Z</time></trkpt><trkpt lat="39.698435968211285" lon="9.109686231404195"><ele>378.5</ele><time>2026-04-30T16:25:10.987Z</time></trkpt><trkpt lat="39.6985394581045" lon="9.109559193284914"><ele>378.0</ele><time>2026-04-30T16:25:11.987Z</time></trkpt><trkpt lat="39.69862201318511" lon="9.109408295920476"><ele>377.5</ele><time>2026-04-30T16:25:12.987Z</time></trkpt><trkpt lat="39.69869623630717" lon="9.109248716270821"><ele>377.0</ele><time>2026-04-30T16:25:13.987Z</time></trkpt><trkpt lat="39.69874836300886" lon="9.109056233905584"><ele>375.6666666666667</ele><time>2026-04-30T16:25:14.987Z</time></trkpt><trkpt lat="39.698780243706636" lon="9.10885538542942"><ele>374.3333333333333</ele><time>2026-04-30T16:25:15.987Z</time></trkpt><trkpt lat="39.698817527145025" lon="9.108646697885863"><ele>373.0</ele><time>2026-04-30T16:25:16.987Z</time></trkpt><trkpt lat="39.69885083294801" lon="9.108450491346815"><ele>373.0</ele><time>2026-04-30T16:25:17.987Z</time></trkpt><trkpt lat="39.6988754452191" lon="9.108273063234785"><ele>373.0</ele><time>2026-04-30T16:25:18.987Z</time></trkpt><trkpt lat="39.698887404042914" lon="9.108103778544168"><ele>373.0</ele><time>2026-04-30T16:25:19.987Z</time></trkpt><trkpt lat="39.69888095420105" lon="9.107928581734278"><ele>373.0</ele><time>2026-04-30T16:25:20.987Z</time></trkpt><trkpt lat="39.698867527967366" lon="9.10774262638197"><ele>372.25</ele><time>2026-04-30T16:25:21.987Z</time></trkpt><trkpt lat="39.69884955027968" lon="9.107550403044824"><ele>371.5</ele><time>2026-04-30T16:25:22.987Z</time></trkpt><trkpt lat="39.698825374305095" lon="9.10736043134607"><ele>370.75</ele><time>2026-04-30T16:25:23.987Z</time></trkpt><trkpt lat="39.698808446136056" lon="9.10717266750264"><ele>370.0</ele><time>2026-04-30T16:25:24.987Z</time></trkpt><trkpt lat="39.698813525559025" lon="9.107002904384064"><ele>370.0</ele><time>2026-04-30T16:25:25.987Z</time></trkpt><trkpt lat="39.69879743352278" lon="9.106846138466347"><ele>370.0</ele><time>2026-04-30T16:25:26.987Z</time></trkpt><trkpt lat="39.69878748888473" lon="9.106701706417153"><ele>370.0</ele><time>2026-04-30T16:25:27.987Z</time></trkpt><trkpt lat="39.69877964233245" lon="9.106555629687325"><ele>370.0</ele><time>2026-04-30T16:25:28.987Z</time></trkpt><trkpt lat="39.69877155549509" lon="9.1064116783087"><ele>369.5</ele><time>2026-04-30T16:25:29.987Z</time></trkpt><trkpt lat="39.6987749089545" lon="9.10626077227183"><ele>369.0</ele><time>2026-04-30T16:25:30.987Z</time></trkpt><trkpt lat="39.698792147755775" lon="9.106119807934757"><ele>368.5</ele><time>2026-04-30T16:25:31.987Z</time></trkpt><trkpt lat="39.698826921691385" lon="9.105967959678674"><ele>368.0</ele><time>2026-04-30T16:25:32.987Z</time></trkpt><trkpt lat="39.698862769846386" lon="9.10581329438869"><ele>368.25</ele><time>2026-04-30T16:25:33.987Z</time></trkpt><trkpt lat="39.69890088110274" lon="9.105651542820985"><ele>368.5</ele><time>2026-04-30T16:25:34.987Z</time></trkpt><trkpt lat="39.69894519875454" lon="9.10549431683142"><ele>368.75</ele><time>2026-04-30T16:25:35.987Z</time></trkpt><trkpt lat="39.69898344080463" lon="9.105350792852402"><ele>369.0</ele><time>2026-04-30T16:25:36.987Z</time></trkpt><trkpt lat="39.69901123344804" lon="9.105200615192476"><ele>369.0</ele><time>2026-04-30T16:25:37.987Z</time></trkpt><trkpt lat="39.69904068292536" lon="9.105058591385625"><ele>369.0</ele><time>2026-04-30T16:25:38.987Z</time></trkpt><trkpt lat="39.69906965308806" lon="9.104923225220912"><ele>369.0</ele><time>2026-04-30T16:25:39.987Z</time></trkpt><trkpt lat="39.69910009263378" lon="9.104783998882485"><ele>369.0</ele><time>2026-04-30T16:25:40.987Z</time></trkpt><trkpt lat="39.699128448391285" lon="9.104644573897048"><ele>369.0</ele><time>2026-04-30T16:25:41.987Z</time></trkpt><trkpt lat="39.699161068759835" lon="9.104518040221835"><ele>369.0</ele><time>2026-04-30T16:25:42.987Z</time></trkpt><trkpt lat="39.69919172351006" lon="9.1043774178982"><ele>369.0</ele><time>2026-04-30T16:25:43.987Z</time></trkpt><trkpt lat="39.6992229482777" lon="9.104242841780923"><ele>369.0</ele><time>2026-04-30T16:25:44.987Z</time></trkpt><trkpt lat="39.6992532284915" lon="9.104112103334216"><ele>369.0</ele><time>2026-04-30T16:25:45.987Z</time></trkpt><trkpt lat="39.6992817733945" lon="9.10398032046657"><ele>369.0</ele><time>2026-04-30T16:25:46.987Z</time></trkpt><trkpt lat="39.69929813256384" lon="9.103838472785712"><ele>369.0</ele><time>2026-04-30T16:25:47.987Z</time></trkpt><trkpt lat="39.69929197931375" lon="9.10370225945243"><ele>369.0</ele><time>2026-04-30T16:25:48.987Z</time></trkpt><trkpt lat="39.69927911153648" lon="9.103566381583033"><ele>369.0</ele><time>2026-04-30T16:25:49.987Z</time></trkpt><trkpt lat="39.699247837711205" lon="9.103442157126613"><ele>369.0</ele><time>2026-04-30T16:25:50.987Z</time></trkpt><trkpt lat="39.69921261044828" lon="9.103311364368306"><ele>369.0</ele><time>2026-04-30T16:25:51.987Z</time></trkpt><trkpt lat="39.69917897110179" lon="9.10318395340476"><ele>368.79999999999995</ele><time>2026-04-30T16:25:52.987Z</time></trkpt><trkpt lat="39.69916249847458" lon="9.103050041700376"><ele>368.59999999999997</ele><time>2026-04-30T16:25:53.987Z</time></trkpt><trkpt lat="39.699163025125785" lon="9.102909793417078"><ele>368.4</ele><time>2026-04-30T16:25:54.987Z</time></trkpt><trkpt lat="39.69916059188697" lon="9.102775670931427"><ele>368.2</ele><time>2026-04-30T16:25:55.987Z</time></trkpt><trkpt lat="39.699144854943896" lon="9.102636183619298"><ele>368.0</ele><time>2026-04-30T16:25:56.987Z</time></trkpt><trkpt lat="39.6991303785911" lon="9.102507037045166"><ele>368.0</ele><time>2026-04-30T16:25:57.987Z</time></trkpt><trkpt lat="39.69915224666589" lon="9.102370601021347"><ele>368.0</ele><time>2026-04-30T16:25:58.987Z</time></trkpt><trkpt lat="39.69914965768378" lon="9.10223552787585"><ele>368.0</ele><time>2026-04-30T16:25:59.987Z</time></trkpt><trkpt lat="39.699151665318674" lon="9.10210318342736"><ele>368.0</ele><time>2026-04-30T16:26:00.987Z</time></trkpt><trkpt lat="39.69915371793852" lon="9.101977493387482"><ele>368.0</ele><time>2026-04-30T16:26:01.987Z</time></trkpt><trkpt lat="39.69915600187544" lon="9.101857270074067"><ele>368.0</ele><time>2026-04-30T16:26:02.987Z</time></trkpt><trkpt lat="39.69915133470028" lon="9.101741398056106"><ele>368.0</ele><time>2026-04-30T16:26:03.987Z</time></trkpt><trkpt lat="39.699131580997" lon="9.10163493815464"><ele>368.0</ele><time>2026-04-30T16:26:04.987Z</time></trkpt><trkpt lat="39.699117763403464" lon="9.10154565079778"><ele>368.0</ele><time>2026-04-30T16:26:05.987Z</time></trkpt><trkpt lat="39.69909131739154" lon="9.10143589065565"><ele>368.0</ele><time>2026-04-30T16:26:07.987Z</time></trkpt><trkpt lat="39.699055928613255" lon="9.101355717079187"><ele>368.0</ele><time>2026-04-30T16:26:09.987Z</time></trkpt><trkpt lat="39.6990311764245" lon="9.101266515815647"><ele>368.0</ele><time>2026-04-30T16:26:15.986Z</time></trkpt><trkpt lat="39.6990133996752" lon="9.101185914079657"><ele>368.0</ele><time>2026-04-30T16:26:17.986Z</time></trkpt><trkpt lat="39.69897668059778" lon="9.101109905201653"><ele>368.0</ele><time>2026-04-30T16:26:19.986Z</time></trkpt><trkpt lat="39.698946835286705" lon="9.100952831975418"><ele>368.0</ele><time>2026-04-30T16:26:21.986Z</time></trkpt><trkpt lat="39.69896663135357" lon="9.100869109978749"><ele>368.0</ele><time>2026-04-30T16:26:22.986Z</time></trkpt><trkpt lat="39.69897845895957" lon="9.100773463213162"><ele>368.0</ele><time>2026-04-30T16:26:23.986Z</time></trkpt><trkpt lat="39.69898218867006" lon="9.100664683606796"><ele>367.6666666666667</ele><time>2026-04-30T16:26:24.986Z</time></trkpt><trkpt lat="39.69898012981405" lon="9.100543549195622"><ele>367.33333333333337</ele><time>2026-04-30T16:26:25.986Z</time></trkpt><trkpt lat="39.69897764465716" lon="9.10043757493564"><ele>367.0</ele><time>2026-04-30T16:26:26.986Z</time></trkpt><trkpt lat="39.698979390788885" lon="9.100332182664665"><ele>366.6666666666667</ele><time>2026-04-30T16:26:27.986Z</time></trkpt><trkpt lat="39.6989877781344" lon="9.100230489488704"><ele>366.3333333333333</ele><time>2026-04-30T16:26:28.986Z</time></trkpt><trkpt lat="39.698988922410386" lon="9.100130687481268"><ele>366.0</ele><time>2026-04-30T16:26:29.986Z</time></trkpt><trkpt lat="39.698991736258165" lon="9.100034990034402"><ele>366.0</ele><time>2026-04-30T16:26:30.986Z</time></trkpt><trkpt lat="39.699006830898426" lon="9.099927671215811"><ele>366.0</ele><time>2026-04-30T16:26:31.986Z</time></trkpt><trkpt lat="39.69901385979557" lon="9.099819419868984"><ele>366.0</ele><time>2026-04-30T16:26:32.986Z</time></trkpt><trkpt lat="39.69901138681256" lon="9.099714624164516"><ele>366.0</ele><time>2026-04-30T16:26:33.986Z</time></trkpt><trkpt lat="39.699022178087084" lon="9.099612656941813"><ele>366.0</ele><time>2026-04-30T16:26:34.986Z</time></trkpt><trkpt lat="39.69902704025539" lon="9.099526795041617"><ele>366.0</ele><time>2026-04-30T16:26:35.986Z</time></trkpt><trkpt lat="39.699034203072415" lon="9.09937413829879"><ele>366.20000000000005</ele><time>2026-04-30T16:26:37.986Z</time></trkpt><trkpt lat="39.69903077943737" lon="9.099238688584935"><ele>366.40000000000003</ele><time>2026-04-30T16:26:39.986Z</time></trkpt><trkpt lat="39.69903759301041" lon="9.099097001144846"><ele>366.6</ele><time>2026-04-30T16:26:41.986Z</time></trkpt><trkpt lat="39.69903766202578" lon="9.098963406689656"><ele>366.8</ele><time>2026-04-30T16:26:43.986Z</time></trkpt><trkpt lat="39.69902115106222" lon="9.098823305446198"><ele>367.0</ele><time>2026-04-30T16:26:45.986Z</time></trkpt><trkpt lat="39.699001706198665" lon="9.098711106466546"><ele>367.40000000000003</ele><time>2026-04-30T16:26:46.986Z</time></trkpt><trkpt lat="39.698967140987385" lon="9.098600739163858"><ele>367.8</ele><time>2026-04-30T16:26:47.986Z</time></trkpt><trkpt lat="39.69891674632917" lon="9.09849690469286"><ele>368.2</ele><time>2026-04-30T16:26:48.986Z</time></trkpt><trkpt lat="39.69884682119191" lon="9.098386803580166"><ele>368.6</ele><time>2026-04-30T16:26:49.986Z</time></trkpt><trkpt lat="39.69878180417778" lon="9.098277201660018"><ele>369.0</ele><time>2026-04-30T16:26:50.986Z</time></trkpt><trkpt lat="39.69871705766343" lon="9.098171158287569"><ele>369.0</ele><time>2026-04-30T16:26:51.986Z</time></trkpt><trkpt lat="39.69864625963517" lon="9.098059091141975"><ele>369.0</ele><time>2026-04-30T16:26:52.986Z</time></trkpt><trkpt lat="39.69858850546595" lon="9.097939637786052"><ele>369.0</ele><time>2026-04-30T16:26:53.986Z</time></trkpt><trkpt lat="39.69853348166848" lon="9.09783450412614"><ele>369.0</ele><time>2026-04-30T16:26:54.986Z</time></trkpt><trkpt lat="39.69847969075891" lon="9.097736508307007"><ele>369.0</ele><time>2026-04-30T16:26:55.986Z</time></trkpt><trkpt lat="39.69842944141589" lon="9.09764443435087"><ele>369.0</ele><time>2026-04-30T16:26:56.986Z</time></trkpt><trkpt lat="39.69837706999331" lon="9.097558348825554"><ele>369.0</ele><time>2026-04-30T16:26:57.986Z</time></trkpt><trkpt lat="39.69832262487475" lon="9.097461262473615"><ele>369.0</ele><time>2026-04-30T16:26:58.986Z</time></trkpt><trkpt lat="39.69826804290091" lon="9.09736201732274"><ele>369.0</ele><time>2026-04-30T16:26:59.986Z</time></trkpt><trkpt lat="39.6981964365469" lon="9.097276377943423"><ele>369.0</ele><time>2026-04-30T16:27:00.986Z</time></trkpt><trkpt lat="39.69809768199438" lon="9.097227270101488"><ele>370.2</ele><time>2026-04-30T16:27:01.986Z</time></trkpt><trkpt lat="39.698003577291324" lon="9.097219127033593"><ele>371.4</ele><time>2026-04-30T16:27:02.986Z</time></trkpt><trkpt lat="39.69790364909865" lon="9.09725612665918"><ele>372.6</ele><time>2026-04-30T16:27:03.986Z</time></trkpt><trkpt lat="39.69780578997547" lon="9.097308692804955"><ele>373.8</ele><time>2026-04-30T16:27:04.986Z</time></trkpt><trkpt lat="39.69771004553711" lon="9.097326577494517"><ele>375.0</ele><time>2026-04-30T16:27:05.986Z</time></trkpt><trkpt lat="39.69761208657592" lon="9.097339474653593"><ele>375.6</ele><time>2026-04-30T16:27:06.986Z</time></trkpt><trkpt lat="39.697504095141845" lon="9.097305580254805"><ele>376.2</ele><time>2026-04-30T16:27:07.986Z</time></trkpt><trkpt lat="39.69742776285076" lon="9.0972374958363"><ele>376.79999999999995</ele><time>2026-04-30T16:27:08.986Z</time></trkpt><trkpt lat="39.69735996917414" lon="9.09715759222545"><ele>377.4</ele><time>2026-04-30T16:27:09.986Z</time></trkpt><trkpt lat="39.6973068248795" lon="9.097047645478666"><ele>378.0</ele><time>2026-04-30T16:27:10.986Z</time></trkpt><trkpt lat="39.69725503886836" lon="9.096935089234846"><ele>378.0</ele><time>2026-04-30T16:27:11.986Z</time></trkpt><trkpt lat="39.69720183337871" lon="9.096826998036565"><ele>378.0</ele><time>2026-04-30T16:27:12.986Z</time></trkpt><trkpt lat="39.69714668296426" lon="9.096706786663074"><ele>378.0</ele><time>2026-04-30T16:27:13.986Z</time></trkpt><trkpt lat="39.69708996808539" lon="9.096581976480632"><ele>378.0</ele><time>2026-04-30T16:27:14.986Z</time></trkpt><trkpt lat="39.69703707668084" lon="9.096458469113616"><ele>378.0</ele><time>2026-04-30T16:27:15.986Z</time></trkpt><trkpt lat="39.696980689971234" lon="9.096326598254365"><ele>378.5</ele><time>2026-04-30T16:27:16.986Z</time></trkpt><trkpt lat="39.69692739560303" lon="9.096182475778463"><ele>379.0</ele><time>2026-04-30T16:27:17.986Z</time></trkpt><trkpt lat="39.69687077963482" lon="9.096043723222099"><ele>379.5</ele><time>2026-04-30T16:27:18.986Z</time></trkpt><trkpt lat="39.69681311950688" lon="9.095888660451893"><ele>380.0</ele><time>2026-04-30T16:27:19.986Z</time></trkpt><trkpt lat="39.696765998261704" lon="9.095720442186881"><ele>378.5</ele><time>2026-04-30T16:27:20.986Z</time></trkpt><trkpt lat="39.69675214287351" lon="9.095541080640812"><ele>377.0</ele><time>2026-04-30T16:27:21.986Z</time></trkpt><trkpt lat="39.696751603303525" lon="9.095372899779912"><ele>375.5</ele><time>2026-04-30T16:27:22.986Z</time></trkpt><trkpt lat="39.69674986795024" lon="9.095180042472345"><ele>374.0</ele><time>2026-04-30T16:27:23.986Z</time></trkpt><trkpt lat="39.69674537854304" lon="9.094999395479455"><ele>374.0</ele><time>2026-04-30T16:27:24.986Z</time></trkpt><trkpt lat="39.6967038637568" lon="9.094832995159274"><ele>374.0</ele><time>2026-04-30T16:27:25.986Z</time></trkpt><trkpt lat="39.69666434269466" lon="9.094666123297591"><ele>374.0</ele><time>2026-04-30T16:27:26.986Z</time></trkpt><trkpt lat="39.69660846415043" lon="9.094487601969062"><ele>374.0</ele><time>2026-04-30T16:27:27.986Z</time></trkpt><trkpt lat="39.696534335943504" lon="9.094327639041358"><ele>374.0</ele><time>2026-04-30T16:27:28.986Z</time></trkpt><trkpt lat="39.69645754616193" lon="9.094162454999449"><ele>374.0</ele><time>2026-04-30T16:27:29.986Z</time></trkpt><trkpt lat="39.69639338403049" lon="9.093973767246776"><ele>374.0</ele><time>2026-04-30T16:27:30.985Z</time></trkpt><trkpt lat="39.696316152244" lon="9.093780843525867"><ele>374.0</ele><time>2026-04-30T16:27:31.985Z</time></trkpt><trkpt lat="39.69623646360306" lon="9.093581782902815"><ele>374.0</ele><time>2026-04-30T16:27:32.985Z</time></trkpt><trkpt lat="39.696140518502595" lon="9.093381800724504"><ele>374.0</ele><time>2026-04-30T16:27:33.985Z</time></trkpt><trkpt lat="39.69605817806503" lon="9.093156161619635"><ele>371.0</ele><time>2026-04-30T16:27:34.985Z</time></trkpt><trkpt lat="39.69597403548728" lon="9.092935888229153"><ele>368.0</ele><time>2026-04-30T16:27:35.985Z</time></trkpt><trkpt lat="39.69588774353187" lon="9.092714797267371"><ele>365.0</ele><time>2026-04-30T16:27:36.985Z</time></trkpt><trkpt lat="39.69580005415965" lon="9.092492324483134"><ele>364.6666666666667</ele><time>2026-04-30T16:27:37.985Z</time></trkpt><trkpt lat="39.69571236630898" lon="9.09227019057523"><ele>364.3333333333333</ele><time>2026-04-30T16:27:38.985Z</time></trkpt><trkpt lat="39.69562495924675" lon="9.092050845559738"><ele>364.0</ele><time>2026-04-30T16:27:39.985Z</time></trkpt><trkpt lat="39.69553308458163" lon="9.09184118494214"><ele>364.0</ele><time>2026-04-30T16:27:40.985Z</time></trkpt><trkpt lat="39.69543012634993" lon="9.091652536387834"><ele>364.0</ele><time>2026-04-30T16:27:41.985Z</time></trkpt><trkpt lat="39.695321540893126" lon="9.091483011604101"><ele>364.0</ele><time>2026-04-30T16:27:42.985Z</time></trkpt><trkpt lat="39.69519644509642" lon="9.091336192681242"><ele>364.3333333333333</ele><time>2026-04-30T16:27:43.985Z</time></trkpt><trkpt lat="39.6950670723885" lon="9.09120889276033"><ele>364.6666666666667</ele><time>2026-04-30T16:27:44.985Z</time></trkpt><trkpt lat="39.69493389704244" lon="9.091086194069353"><ele>365.0</ele><time>2026-04-30T16:27:45.985Z</time></trkpt><trkpt lat="39.694801893990004" lon="9.090957655266456"><ele>365.0</ele><time>2026-04-30T16:27:46.985Z</time></trkpt><trkpt lat="39.694662943223925" lon="9.090824085450343"><ele>365.0</ele><time>2026-04-30T16:27:47.985Z</time></trkpt><trkpt lat="39.694523758505866" lon="9.090686054666193"><ele>365.0</ele><time>2026-04-30T16:27:48.985Z</time></trkpt><trkpt lat="39.69437961276359" lon="9.090538088463495"><ele>364.6666666666667</ele><time>2026-04-30T16:27:49.985Z</time></trkpt><trkpt lat="39.694236217267324" lon="9.09038783447054"><ele>364.3333333333333</ele><time>2026-04-30T16:27:50.985Z</time></trkpt><trkpt lat="39.694085651911024" lon="9.090243567083608"><ele>364.0</ele><time>2026-04-30T16:27:51.985Z</time></trkpt><trkpt lat="39.69393294798066" lon="9.090094246212228"><ele>364.0</ele><time>2026-04-30T16:27:52.985Z</time></trkpt><trkpt lat="39.693779421275465" lon="9.08994085083026"><ele>364.0</ele><time>2026-04-30T16:27:53.985Z</time></trkpt><trkpt lat="39.69362276874726" lon="9.089781657123018"><ele>364.0</ele><time>2026-04-30T16:27:54.985Z</time></trkpt><trkpt lat="39.69346720870318" lon="9.08962286567573"><ele>363.3333333333333</ele><time>2026-04-30T16:27:55.985Z</time></trkpt><trkpt lat="39.69331822967733" lon="9.089465737440287"><ele>362.6666666666667</ele><time>2026-04-30T16:27:56.985Z</time></trkpt><trkpt lat="39.693164029517234" lon="9.089302794846068"><ele>362.0</ele><time>2026-04-30T16:27:57.985Z</time></trkpt><trkpt lat="39.693015882328446" lon="9.089129413828635"><ele>362.33333333333337</ele><time>2026-04-30T16:27:58.985Z</time></trkpt><trkpt lat="39.69287522585211" lon="9.08894844909221"><ele>362.6666666666667</ele><time>2026-04-30T16:27:59.985Z</time></trkpt><trkpt lat="39.69274544534882" lon="9.088751951757631"><ele>363.0</ele><time>2026-04-30T16:28:00.985Z</time></trkpt><trkpt lat="39.692609097166226" lon="9.088552062286881"><ele>361.6666666666667</ele><time>2026-04-30T16:28:01.985Z</time></trkpt><trkpt lat="39.69247455574089" lon="9.088355940947217"><ele>360.33333333333337</ele><time>2026-04-30T16:28:02.985Z</time></trkpt><trkpt lat="39.69234121980521" lon="9.088160119132935"><ele>359.0</ele><time>2026-04-30T16:28:03.985Z</time></trkpt><trkpt lat="39.69221039613739" lon="9.087966791662666"><ele>359.0</ele><time>2026-04-30T16:28:04.985Z</time></trkpt><trkpt lat="39.692077978097736" lon="9.087773235852154"><ele>359.0</ele><time>2026-04-30T16:28:05.985Z</time></trkpt><trkpt lat="39.691944526681915" lon="9.087578125988127"><ele>359.0</ele><time>2026-04-30T16:28:06.985Z</time></trkpt><trkpt lat="39.691805171650124" lon="9.087384904943573"><ele>356.33333333333337</ele><time>2026-04-30T16:28:07.985Z</time></trkpt><trkpt lat="39.69166462898541" lon="9.087190701391055"><ele>353.6666666666667</ele><time>2026-04-30T16:28:08.985Z</time></trkpt><trkpt lat="39.69152956151572" lon="9.086991771163577"><ele>351.0</ele><time>2026-04-30T16:28:09.985Z</time></trkpt><trkpt lat="39.691394586244016" lon="9.086791875083147"><ele>350.6666666666667</ele><time>2026-04-30T16:28:10.985Z</time></trkpt><trkpt lat="39.6912594985717" lon="9.086593522704261"><ele>350.33333333333337</ele><time>2026-04-30T16:28:11.985Z</time></trkpt><trkpt lat="39.69112336811666" lon="9.086395690400197"><ele>350.0</ele><time>2026-04-30T16:28:12.985Z</time></trkpt><trkpt lat="39.69098679947649" lon="9.086200053177706"><ele>348.33333333333337</ele><time>2026-04-30T16:28:13.985Z</time></trkpt><trkpt lat="39.69085044759241" lon="9.086004308473099"><ele>346.6666666666667</ele><time>2026-04-30T16:28:14.985Z</time></trkpt><trkpt lat="39.690712464711176" lon="9.085809312537561"><ele>345.0</ele><time>2026-04-30T16:28:15.985Z</time></trkpt><trkpt lat="39.69057424587401" lon="9.085615076012404"><ele>344.6666666666667</ele><time>2026-04-30T16:28:16.985Z</time></trkpt><trkpt lat="39.69043802269071" lon="9.085422977002876"><ele>344.33333333333337</ele><time>2026-04-30T16:28:17.985Z</time></trkpt><trkpt lat="39.690301991075216" lon="9.085228405597217"><ele>344.0</ele><time>2026-04-30T16:28:18.985Z</time></trkpt><trkpt lat="39.69017021836346" lon="9.085031758689794"><ele>341.0</ele><time>2026-04-30T16:28:19.985Z</time></trkpt><trkpt lat="39.69004337123503" lon="9.0848504034324"><ele>338.0</ele><time>2026-04-30T16:28:20.985Z</time></trkpt><trkpt lat="39.6899289787377" lon="9.084690260673414"><ele>335.0</ele><time>2026-04-30T16:28:21.985Z</time></trkpt><trkpt lat="39.689811813814465" lon="9.084561872932225"><ele>335.0</ele><time>2026-04-30T16:28:22.985Z</time></trkpt><trkpt lat="39.68968583186935" lon="9.084480910382684"><ele>335.0</ele><time>2026-04-30T16:28:23.985Z</time></trkpt><trkpt lat="39.68953425491651" lon="9.084443578891362"><ele>335.0</ele><time>2026-04-30T16:28:24.985Z</time></trkpt><trkpt lat="39.68936190772388" lon="9.084438180723787"><ele>334.0</ele><time>2026-04-30T16:28:25.985Z</time></trkpt><trkpt lat="39.68917769007923" lon="9.084439310660724"><ele>333.0</ele><time>2026-04-30T16:28:26.985Z</time></trkpt><trkpt lat="39.68901176433526" lon="9.084429339017854"><ele>332.0</ele><time>2026-04-30T16:28:27.985Z</time></trkpt><trkpt lat="39.68887291176595" lon="9.084393126391374"><ele>332.0</ele><time>2026-04-30T16:28:28.985Z</time></trkpt><trkpt lat="39.688774962524825" lon="9.08435338994616"><ele>332.0</ele><time>2026-04-30T16:28:29.985Z</time></trkpt><trkpt lat="39.688723652753374" lon="9.084291565494036"><ele>332.0</ele><time>2026-04-30T16:28:30.985Z</time></trkpt><trkpt lat="39.68871997915731" lon="9.08420752643792"><ele>332.0</ele><time>2026-04-30T16:28:31.985Z</time></trkpt><trkpt lat="39.68879254127232" lon="9.084118919681798"><ele>332.0</ele><time>2026-04-30T16:28:32.985Z</time></trkpt><trkpt lat="39.688847560042184" lon="9.084003902397928"><ele>332.0</ele><time>2026-04-30T16:28:33.985Z</time></trkpt><trkpt lat="39.68890757312933" lon="9.083858940194224"><ele>330.6666666666667</ele><time>2026-04-30T16:28:34.985Z</time></trkpt><trkpt lat="39.68897816276245" lon="9.08369812866777"><ele>329.3333333333333</ele><time>2026-04-30T16:28:35.985Z</time></trkpt><trkpt lat="39.68904012657527" lon="9.08351032370544"><ele>328.0</ele><time>2026-04-30T16:28:36.985Z</time></trkpt><trkpt lat="39.689113024404186" lon="9.083325671879813"><ele>327.0</ele><time>2026-04-30T16:28:37.985Z</time></trkpt><trkpt lat="39.68915714438403" lon="9.08312575639086"><ele>326.0</ele><time>2026-04-30T16:28:38.985Z</time></trkpt><trkpt lat="39.689167200765056" lon="9.082898767742591"><ele>325.0</ele><time>2026-04-30T16:28:39.985Z</time></trkpt><trkpt lat="39.68916211245591" lon="9.08265270223541"><ele>323.0</ele><time>2026-04-30T16:28:40.985Z</time></trkpt><trkpt lat="39.689162904901956" lon="9.082402545596393"><ele>321.0</ele><time>2026-04-30T16:28:41.985Z</time></trkpt><trkpt lat="39.68918029160447" lon="9.082166787089175"><ele>319.0</ele><time>2026-04-30T16:28:42.985Z</time></trkpt><trkpt lat="39.68919200308636" lon="9.081959258731974"><ele>319.0</ele><time>2026-04-30T16:28:43.985Z</time></trkpt><trkpt lat="39.68917622056437" lon="9.081791956802274"><ele>319.0</ele><time>2026-04-30T16:28:44.984Z</time></trkpt><trkpt lat="39.68912656083588" lon="9.081644532587962"><ele>319.0</ele><time>2026-04-30T16:28:45.984Z</time></trkpt><trkpt lat="39.689020667096884" lon="9.081530905947053"><ele>319.0</ele><time>2026-04-30T16:28:46.984Z</time></trkpt><trkpt lat="39.68888377331003" lon="9.08148327160719"><ele>318.0</ele><time>2026-04-30T16:28:47.984Z</time></trkpt><trkpt lat="39.68874849590429" lon="9.081477721609211"><ele>317.0</ele><time>2026-04-30T16:28:48.984Z</time></trkpt><trkpt lat="39.688646911559616" lon="9.0814483061761"><ele>316.0</ele><time>2026-04-30T16:28:49.984Z</time></trkpt><trkpt lat="39.68862463493265" lon="9.081311628266715"><ele>315.0</ele><time>2026-04-30T16:28:51.984Z</time></trkpt><trkpt lat="39.688712898418224" lon="9.081219428761532"><ele>315.0</ele><time>2026-04-30T16:28:52.984Z</time></trkpt><trkpt lat="39.68878632882088" lon="9.08109583311797"><ele>315.0</ele><time>2026-04-30T16:28:53.984Z</time></trkpt><trkpt lat="39.68888299750386" lon="9.08095608279989"><ele>315.0</ele><time>2026-04-30T16:28:54.999Z</time></trkpt><trkpt lat="39.68897127912561" lon="9.080802149684546"><ele>315.0</ele><time>2026-04-30T16:28:55.999Z</time></trkpt><trkpt lat="39.689036792891756" lon="9.0806097746906"><ele>314.6666666666667</ele><time>2026-04-30T16:28:56.999Z</time></trkpt><trkpt lat="39.68906845540561" lon="9.080382093731515"><ele>314.33333333333337</ele><time>2026-04-30T16:28:57.999Z</time></trkpt><trkpt lat="39.68906892997307" lon="9.080137761861202"><ele>314.0</ele><time>2026-04-30T16:28:58.999Z</time></trkpt><trkpt lat="39.68907867381629" lon="9.079880948214148"><ele>313.33333333333337</ele><time>2026-04-30T16:28:59.999Z</time></trkpt><trkpt lat="39.68908584874841" lon="9.079618424211697"><ele>312.6666666666667</ele><time>2026-04-30T16:29:00.999Z</time></trkpt><trkpt lat="39.6890662685385" lon="9.079353888433666"><ele>312.0</ele><time>2026-04-30T16:29:01.999Z</time></trkpt><trkpt lat="39.68903176292687" lon="9.07908225898731"><ele>310.6666666666667</ele><time>2026-04-30T16:29:02.999Z</time></trkpt><trkpt lat="39.68898206191384" lon="9.078812874097684"><ele>309.33333333333337</ele><time>2026-04-30T16:29:03.999Z</time></trkpt><trkpt lat="39.688957620371966" lon="9.078548424079013"><ele>308.0</ele><time>2026-04-30T16:29:04.999Z</time></trkpt><trkpt lat="39.68895117868022" lon="9.078300000356062"><ele>306.33333333333337</ele><time>2026-04-30T16:29:05.999Z</time></trkpt><trkpt lat="39.6889444981868" lon="9.078066232214088"><ele>304.6666666666667</ele><time>2026-04-30T16:29:06.999Z</time></trkpt><trkpt lat="39.6889283023369" lon="9.077858092224588"><ele>303.0</ele><time>2026-04-30T16:29:07.999Z</time></trkpt><trkpt lat="39.68888314871218" lon="9.077672789445991"><ele>303.0</ele><time>2026-04-30T16:29:08.999Z</time></trkpt><trkpt lat="39.68881502561408" lon="9.0775026604223"><ele>303.0</ele><time>2026-04-30T16:29:09.999Z</time></trkpt><trkpt lat="39.68874024851413" lon="9.077348842643211"><ele>303.0</ele><time>2026-04-30T16:29:10.999Z</time></trkpt><trkpt lat="39.68867997385894" lon="9.07719223880256"><ele>303.0</ele><time>2026-04-30T16:29:11.999Z</time></trkpt><trkpt lat="39.68862321112644" lon="9.077036769184215"><ele>303.25</ele><time>2026-04-30T16:29:12.999Z</time></trkpt><trkpt lat="39.688590598988156" lon="9.076878396495605"><ele>303.5</ele><time>2026-04-30T16:29:13.999Z</time></trkpt><trkpt lat="39.68859490383018" lon="9.076721155340636"><ele>303.75</ele><time>2026-04-30T16:29:14.999Z</time></trkpt><trkpt lat="39.688608585745946" lon="9.076548133458795"><ele>304.0</ele><time>2026-04-30T16:29:15.998Z</time></trkpt><trkpt lat="39.6886202149602" lon="9.076372441662107"><ele>303.5</ele><time>2026-04-30T16:29:16.998Z</time></trkpt><trkpt lat="39.68863118613734" lon="9.076206399928292"><ele>303.0</ele><time>2026-04-30T16:29:17.998Z</time></trkpt><trkpt lat="39.68863126413579" lon="9.076051270130362"><ele>302.5</ele><time>2026-04-30T16:29:18.998Z</time></trkpt><trkpt lat="39.688617935078675" lon="9.075894370879316"><ele>302.0</ele><time>2026-04-30T16:29:19.998Z</time></trkpt><trkpt lat="39.68858894734658" lon="9.075740041828286"><ele>301.5</ele><time>2026-04-30T16:29:20.998Z</time></trkpt><trkpt lat="39.68854490202217" lon="9.075599151471774"><ele>301.0</ele><time>2026-04-30T16:29:21.998Z</time></trkpt><trkpt lat="39.68850031175694" lon="9.075453709138149"><ele>300.5</ele><time>2026-04-30T16:29:22.998Z</time></trkpt><trkpt lat="39.688465793311195" lon="9.075306233547272"><ele>300.0</ele><time>2026-04-30T16:29:23.998Z</time></trkpt><trkpt lat="39.68845540488457" lon="9.075171466221983"><ele>300.0</ele><time>2026-04-30T16:29:24.998Z</time></trkpt><trkpt lat="39.68848392368246" lon="9.075066556621685"><ele>300.0</ele><time>2026-04-30T16:29:25.998Z</time></trkpt><trkpt lat="39.688538214722094" lon="9.075012788229522"><ele>300.0</ele><time>2026-04-30T16:29:26.998Z</time></trkpt><trkpt lat="39.688624226433014" lon="9.075009361711214"><ele>300.0</ele><time>2026-04-30T16:29:27.998Z</time></trkpt><trkpt lat="39.688719710559006" lon="9.07499945130318"><ele>300.0</ele><time>2026-04-30T16:29:28.998Z</time></trkpt><trkpt lat="39.68881556365285" lon="9.074974988119852"><ele>300.0</ele><time>2026-04-30T16:29:29.998Z</time></trkpt><trkpt lat="39.68891581836928" lon="9.07492669944815"><ele>302.0</ele><time>2026-04-30T16:29:30.998Z</time></trkpt><trkpt lat="39.689017036095116" lon="9.074846317197611"><ele>304.0</ele><time>2026-04-30T16:29:31.998Z</time></trkpt><trkpt lat="39.68911895958649" lon="9.074731864846866"><ele>306.0</ele><time>2026-04-30T16:29:32.998Z</time></trkpt><trkpt lat="39.68921105933962" lon="9.074581695727943"><ele>308.0</ele><time>2026-04-30T16:29:33.998Z</time></trkpt><trkpt lat="39.68929798142778" lon="9.0744039487939"><ele>308.0</ele><time>2026-04-30T16:29:34.998Z</time></trkpt><trkpt lat="39.689385669926416" lon="9.074220284876862"><ele>308.0</ele><time>2026-04-30T16:29:35.998Z</time></trkpt><trkpt lat="39.6894822231051" lon="9.07403409241967"><ele>308.0</ele><time>2026-04-30T16:29:36.998Z</time></trkpt><trkpt lat="39.68957332589874" lon="9.073852471568692"><ele>309.33333333333337</ele><time>2026-04-30T16:29:37.998Z</time></trkpt><trkpt lat="39.689665146840035" lon="9.073675835611676"><ele>310.6666666666667</ele><time>2026-04-30T16:29:38.998Z</time></trkpt><trkpt lat="39.68975483857359" lon="9.073503739963563"><ele>312.0</ele><time>2026-04-30T16:29:39.998Z</time></trkpt><trkpt lat="39.689857315841266" lon="9.073337443653552"><ele>314.3333333333333</ele><time>2026-04-30T16:29:40.998Z</time></trkpt><trkpt lat="39.6899466315511" lon="9.073164124059081"><ele>316.66666666666663</ele><time>2026-04-30T16:29:41.998Z</time></trkpt><trkpt lat="39.69003571171423" lon="9.07299194245037"><ele>319.0</ele><time>2026-04-30T16:29:42.998Z</time></trkpt><trkpt lat="39.69012350113446" lon="9.072822953649789"><ele>319.0</ele><time>2026-04-30T16:29:43.998Z</time></trkpt><trkpt lat="39.69021130289244" lon="9.072653941048868"><ele>319.0</ele><time>2026-04-30T16:29:44.998Z</time></trkpt><trkpt lat="39.69030015099325" lon="9.072482887011557"><ele>319.0</ele><time>2026-04-30T16:29:45.998Z</time></trkpt><trkpt lat="39.69038682215292" lon="9.072315635014425"><ele>320.66666666666663</ele><time>2026-04-30T16:29:46.998Z</time></trkpt><trkpt lat="39.6904756006546" lon="9.072144316394064"><ele>322.3333333333333</ele><time>2026-04-30T16:29:47.998Z</time></trkpt><trkpt lat="39.69056498519287" lon="9.071971828412535"><ele>324.0</ele><time>2026-04-30T16:29:48.998Z</time></trkpt><trkpt lat="39.690655034238226" lon="9.071798058066639"><ele>324.0</ele><time>2026-04-30T16:29:49.998Z</time></trkpt><trkpt lat="39.690746044506355" lon="9.071622432825132"><ele>324.0</ele><time>2026-04-30T16:29:50.998Z</time></trkpt><trkpt lat="39.690838661004925" lon="9.071443970494744"><ele>324.0</ele><time>2026-04-30T16:29:51.998Z</time></trkpt><trkpt lat="39.690930985620646" lon="9.071266192124387"><ele>325.6666666666667</ele><time>2026-04-30T16:29:52.998Z</time></trkpt><trkpt lat="39.69102344404827" lon="9.071088156121137"><ele>327.33333333333337</ele><time>2026-04-30T16:29:53.998Z</time></trkpt><trkpt lat="39.69111895909581" lon="9.070904234390245"><ele>329.0</ele><time>2026-04-30T16:29:55Z</time></trkpt><trkpt lat="39.691214664775856" lon="9.070719945537586"><ele>330.0</ele><time>2026-04-30T16:29:56Z</time></trkpt><trkpt lat="39.69131161262896" lon="9.07053326478437"><ele>331.0</ele><time>2026-04-30T16:29:57Z</time></trkpt><trkpt lat="39.691408613331824" lon="9.070348376439695"><ele>332.0</ele><time>2026-04-30T16:29:58Z</time></trkpt><trkpt lat="39.69150708084039" lon="9.070162821305066"><ele>332.0</ele><time>2026-04-30T16:29:58.999Z</time></trkpt><trkpt lat="39.691610826910384" lon="9.069979413075243"><ele>332.0</ele><time>2026-04-30T16:29:59.999Z</time></trkpt><trkpt lat="39.691716026459986" lon="9.06979803787924"><ele>332.0</ele><time>2026-04-30T16:30:00.999Z</time></trkpt><trkpt lat="39.691819949282134" lon="9.06962005424518"><ele>331.6666666666667</ele><time>2026-04-30T16:30:01.999Z</time></trkpt><trkpt lat="39.69191920819041" lon="9.069450058220795"><ele>331.3333333333333</ele><time>2026-04-30T16:30:02.999Z</time></trkpt><trkpt lat="39.69201487517082" lon="9.069286213849862"><ele>331.0</ele><time>2026-04-30T16:30:04Z</time></trkpt><trkpt lat="39.69210320832252" lon="9.069134929776123"><ele>331.5</ele><time>2026-04-30T16:30:04.999Z</time></trkpt><trkpt lat="39.69219188700452" lon="9.068982520862969"><ele>332.0</ele><time>2026-04-30T16:30:05.999Z</time></trkpt><trkpt lat="39.69228168861015" lon="9.068827615517412"><ele>332.5</ele><time>2026-04-30T16:30:06.999Z</time></trkpt><trkpt lat="39.692373666103315" lon="9.068668956753154"><ele>333.0</ele><time>2026-04-30T16:30:07.999Z</time></trkpt><trkpt lat="39.69246954824659" lon="9.068506233822365"><ele>333.0</ele><time>2026-04-30T16:30:08.999Z</time></trkpt><trkpt lat="39.692575673198476" lon="9.068346870472151"><ele>333.0</ele><time>2026-04-30T16:30:09.999Z</time></trkpt><trkpt lat="39.69269547336023" lon="9.068197320490627"><ele>333.0</ele><time>2026-04-30T16:30:10.999Z</time></trkpt><trkpt lat="39.69283878849053" lon="9.068056817984376"><ele>332.3333333333333</ele><time>2026-04-30T16:30:11.999Z</time></trkpt><trkpt lat="39.692998339254466" lon="9.06792448579685"><ele>331.66666666666663</ele><time>2026-04-30T16:30:12.999Z</time></trkpt><trkpt lat="39.69316462360955" lon="9.067800957273853"><ele>331.0</ele><time>2026-04-30T16:30:13.999Z</time></trkpt><trkpt lat="39.69332965998261" lon="9.067681642223164"><ele>331.0</ele><time>2026-04-30T16:30:14.999Z</time></trkpt><trkpt lat="39.693489132166015" lon="9.067556811085675"><ele>331.0</ele><time>2026-04-30T16:30:15.999Z</time></trkpt><trkpt lat="39.693636577339596" lon="9.06739514744331"><ele>331.0</ele><time>2026-04-30T16:30:16.999Z</time></trkpt><trkpt lat="39.69377489625789" lon="9.067198834871556"><ele>331.0</ele><time>2026-04-30T16:30:17.999Z</time></trkpt><trkpt lat="39.69389557979598" lon="9.066968189308929"><ele>331.0</ele><time>2026-04-30T16:30:18.999Z</time></trkpt><trkpt lat="39.69402596122701" lon="9.06673670763586"><ele>331.0</ele><time>2026-04-30T16:30:19.999Z</time></trkpt><trkpt lat="39.694159155032736" lon="9.066492571654354"><ele>333.5</ele><time>2026-04-30T16:30:20.999Z</time></trkpt><trkpt lat="39.6942924742009" lon="9.066244539931349"><ele>336.0</ele><time>2026-04-30T16:30:21.999Z</time></trkpt><trkpt lat="39.694423261355674" lon="9.066000890387997"><ele>331.0</ele><time>2026-04-30T16:30:22.999Z</time></trkpt><trkpt lat="39.69455866526001" lon="9.065760218739575"><ele>326.0</ele><time>2026-04-30T16:30:23.999Z</time></trkpt><trkpt lat="39.69469360873378" lon="9.065526826146565"><ele>326.0</ele><time>2026-04-30T16:30:24.999Z</time></trkpt><trkpt lat="39.694821883235" lon="9.065298264944557"><ele>326.0</ele><time>2026-04-30T16:30:25.999Z</time></trkpt><trkpt lat="39.69494817427637" lon="9.065071577083723"><ele>326.0</ele><time>2026-04-30T16:30:26.999Z</time></trkpt><trkpt lat="39.69506809844736" lon="9.064848915553789"><ele>327.33333333333337</ele><time>2026-04-30T16:30:27.999Z</time></trkpt><trkpt lat="39.6951766414532" lon="9.064622813924679"><ele>328.6666666666667</ele><time>2026-04-30T16:30:28.999Z</time></trkpt><trkpt lat="39.69526161589055" lon="9.064385937351114"><ele>330.0</ele><time>2026-04-30T16:30:29.999Z</time></trkpt><trkpt lat="39.695330661599506" lon="9.064145749836515"><ele>329.3333333333333</ele><time>2026-04-30T16:30:30.999Z</time></trkpt><trkpt lat="39.69539520086661" lon="9.063905863137423"><ele>328.66666666666663</ele><time>2026-04-30T16:30:31.999Z</time></trkpt><trkpt lat="39.69546850669329" lon="9.06367053602284"><ele>328.0</ele><time>2026-04-30T16:30:32.999Z</time></trkpt><trkpt lat="39.695541402421526" lon="9.063449350421147"><ele>328.66666666666663</ele><time>2026-04-30T16:30:33.999Z</time></trkpt><trkpt lat="39.695596398123925" lon="9.063244804156028"><ele>329.3333333333333</ele><time>2026-04-30T16:30:34.999Z</time></trkpt><trkpt lat="39.69562371353756" lon="9.063065239668324"><ele>330.0</ele><time>2026-04-30T16:30:35.999Z</time></trkpt><trkpt lat="39.69561120838425" lon="9.062878823627633"><ele>330.0</ele><time>2026-04-30T16:30:36.999Z</time></trkpt><trkpt lat="39.69556722807222" lon="9.062679452745947"><ele>330.0</ele><time>2026-04-30T16:30:37.999Z</time></trkpt><trkpt lat="39.69550195520175" lon="9.0624795835834"><ele>330.0</ele><time>2026-04-30T16:30:38.999Z</time></trkpt><trkpt lat="39.695438303356134" lon="9.062275448881294"><ele>330.3333333333333</ele><time>2026-04-30T16:30:39.999Z</time></trkpt><trkpt lat="39.69538338169753" lon="9.062074122177178"><ele>330.66666666666663</ele><time>2026-04-30T16:30:40.999Z</time></trkpt><trkpt lat="39.69533242205617" lon="9.061871317260646"><ele>331.0</ele><time>2026-04-30T16:30:41.999Z</time></trkpt><trkpt lat="39.69529482236799" lon="9.06166174090503"><ele>329.66666666666663</ele><time>2026-04-30T16:30:42.999Z</time></trkpt><trkpt lat="39.69527320326921" lon="9.06145035217136"><ele>328.3333333333333</ele><time>2026-04-30T16:30:43.999Z</time></trkpt><trkpt lat="39.695271303689005" lon="9.061217889770015"><ele>327.0</ele><time>2026-04-30T16:30:44.999Z</time></trkpt><trkpt lat="39.695285119711" lon="9.060981564491923"><ele>325.3333333333333</ele><time>2026-04-30T16:30:45.999Z</time></trkpt><trkpt lat="39.695307559224766" lon="9.060747604316617"><ele>323.66666666666663</ele><time>2026-04-30T16:30:46.999Z</time></trkpt><trkpt lat="39.695337092493425" lon="9.060517493787708"><ele>322.0</ele><time>2026-04-30T16:30:47.999Z</time></trkpt><trkpt lat="39.695401564587" lon="9.060294680928571"><ele>322.0</ele><time>2026-04-30T16:30:48.999Z</time></trkpt><trkpt lat="39.69547365509871" lon="9.06007371954332"><ele>322.0</ele><time>2026-04-30T16:30:49.999Z</time></trkpt><trkpt lat="39.695560306509385" lon="9.059841393330057"><ele>322.0</ele><time>2026-04-30T16:30:50.999Z</time></trkpt><trkpt lat="39.69565727419405" lon="9.059593775923773"><ele>319.3333333333333</ele><time>2026-04-30T16:30:51.999Z</time></trkpt><trkpt lat="39.69574235189377" lon="9.05933278292607"><ele>316.6666666666667</ele><time>2026-04-30T16:30:52.999Z</time></trkpt><trkpt lat="39.695842317180144" lon="9.059084721902398"><ele>314.0</ele><time>2026-04-30T16:30:53.999Z</time></trkpt><trkpt lat="39.69594206352013" lon="9.058830919115367"><ele>315.5</ele><time>2026-04-30T16:30:54.999Z</time></trkpt><trkpt lat="39.696043958923795" lon="9.058570830954809"><ele>317.0</ele><time>2026-04-30T16:30:55.999Z</time></trkpt><trkpt lat="39.69614825841002" lon="9.058309053170088"><ele>315.6666666666667</ele><time>2026-04-30T16:30:56.999Z</time></trkpt><trkpt lat="39.69625268888129" lon="9.058049785071042"><ele>314.3333333333333</ele><time>2026-04-30T16:30:57.999Z</time></trkpt><trkpt lat="39.69635397590054" lon="9.057795700401739"><ele>313.0</ele><time>2026-04-30T16:30:58.999Z</time></trkpt><trkpt lat="39.696451709602094" lon="9.057546054020747"><ele>313.0</ele><time>2026-04-30T16:30:59.999Z</time></trkpt><trkpt lat="39.696546551341804" lon="9.057303255429913"><ele>313.0</ele><time>2026-04-30T16:31:00.999Z</time></trkpt><trkpt lat="39.69663672324719" lon="9.057071399546837"><ele>313.0</ele><time>2026-04-30T16:31:01.999Z</time></trkpt><trkpt lat="39.69672246197779" lon="9.056850288342476"><ele>313.0</ele><time>2026-04-30T16:31:02.999Z</time></trkpt><trkpt lat="39.696801533711124" lon="9.056651193594698"><ele>313.0</ele><time>2026-04-30T16:31:03.999Z</time></trkpt><trkpt lat="39.69688282701187" lon="9.056475411057223"><ele>313.0</ele><time>2026-04-30T16:31:04.999Z</time></trkpt><trkpt lat="39.696995996408226" lon="9.056346989958527"><ele>311.66666666666663</ele><time>2026-04-30T16:31:05.999Z</time></trkpt><trkpt lat="39.69712090656189" lon="9.056237322789626"><ele>310.3333333333333</ele><time>2026-04-30T16:31:06.999Z</time></trkpt><trkpt lat="39.69725934731575" lon="9.056169397424842"><ele>309.0</ele><time>2026-04-30T16:31:07.999Z</time></trkpt><trkpt lat="39.69741077135884" lon="9.056129550752058"><ele>309.0</ele><time>2026-04-30T16:31:08.999Z</time></trkpt><trkpt lat="39.697570803877355" lon="9.05611612921176"><ele>309.0</ele><time>2026-04-30T16:31:09.999Z</time></trkpt><trkpt lat="39.697732728999895" lon="9.05606362810001"><ele>309.0</ele><time>2026-04-30T16:31:10.999Z</time></trkpt><trkpt lat="39.69789645993407" lon="9.055996707654046"><ele>309.0</ele><time>2026-04-30T16:31:11.999Z</time></trkpt><trkpt lat="39.69806347684357" lon="9.055893995085514"><ele>309.0</ele><time>2026-04-30T16:31:12.999Z</time></trkpt><trkpt lat="39.69824031183129" lon="9.055781271434205"><ele>309.0</ele><time>2026-04-30T16:31:13.999Z</time></trkpt><trkpt lat="39.698391235562774" lon="9.055600320245906"><ele>309.3333333333333</ele><time>2026-04-30T16:31:14.999Z</time></trkpt><trkpt lat="39.698535972896316" lon="9.055404142007646"><ele>309.66666666666663</ele><time>2026-04-30T16:31:15.999Z</time></trkpt><trkpt lat="39.698670711586715" lon="9.055187341526992"><ele>310.0</ele><time>2026-04-30T16:31:16.999Z</time></trkpt><trkpt lat="39.69881881432552" lon="9.054979578490324"><ele>304.66666666666663</ele><time>2026-04-30T16:31:17.999Z</time></trkpt><trkpt lat="39.69895784707916" lon="9.054763380464056"><ele>299.3333333333333</ele><time>2026-04-30T16:31:18.999Z</time></trkpt><trkpt lat="39.69909687855418" lon="9.054547774988768"><ele>294.0</ele><time>2026-04-30T16:31:19.999Z</time></trkpt><trkpt lat="39.699223368730465" lon="9.054322426195146"><ele>293.6666666666667</ele><time>2026-04-30T16:31:20.999Z</time></trkpt><trkpt lat="39.69936253677561" lon="9.054113289445072"><ele>293.33333333333337</ele><time>2026-04-30T16:31:21.999Z</time></trkpt><trkpt lat="39.69950295265246" lon="9.053906422918974"><ele>293.0</ele><time>2026-04-30T16:31:22.999Z</time></trkpt><trkpt lat="39.69963884845118" lon="9.053693354906274"><ele>293.0</ele><time>2026-04-30T16:31:23.999Z</time></trkpt><trkpt lat="39.69976945707744" lon="9.053489254911288"><ele>293.0</ele><time>2026-04-30T16:31:24.999Z</time></trkpt><trkpt lat="39.69990167040982" lon="9.053287530224084"><ele>293.0</ele><time>2026-04-30T16:31:25.999Z</time></trkpt><trkpt lat="39.700025127711854" lon="9.053101151780421"><ele>290.33333333333337</ele><time>2026-04-30T16:31:26.999Z</time></trkpt><trkpt lat="39.70014365554794" lon="9.052938807762109"><ele>287.6666666666667</ele><time>2026-04-30T16:31:27.998Z</time></trkpt><trkpt lat="39.70025954064662" lon="9.052803330226203"><ele>285.0</ele><time>2026-04-30T16:31:28.998Z</time></trkpt><trkpt lat="39.70038584234083" lon="9.05270043642462"><ele>285.0</ele><time>2026-04-30T16:31:29.998Z</time></trkpt><trkpt lat="39.700516818755915" lon="9.052631640819895"><ele>285.0</ele><time>2026-04-30T16:31:30.998Z</time></trkpt><trkpt lat="39.7006297635614" lon="9.052583562589554"><ele>285.0</ele><time>2026-04-30T16:31:31.998Z</time></trkpt><trkpt lat="39.70072634872153" lon="9.052542830641496"><ele>285.0</ele><time>2026-04-30T16:31:32.998Z</time></trkpt><trkpt lat="39.700797940885224" lon="9.052476272644544"><ele>281.0</ele><time>2026-04-30T16:31:33.998Z</time></trkpt><trkpt lat="39.7008434519061" lon="9.052377049133455"><ele>277.0</ele><time>2026-04-30T16:31:34.998Z</time></trkpt><trkpt lat="39.70085234941151" lon="9.052250498834276"><ele>273.0</ele><time>2026-04-30T16:31:35.998Z</time></trkpt><trkpt lat="39.7008264257543" lon="9.052116441833828"><ele>269.0</ele><time>2026-04-30T16:31:36.998Z</time></trkpt><trkpt lat="39.700774160344054" lon="9.052009104151296"><ele>265.0</ele><time>2026-04-30T16:31:37.998Z</time></trkpt><trkpt lat="39.70069521254763" lon="9.051943500122826"><ele>265.0</ele><time>2026-04-30T16:31:38.998Z</time></trkpt><trkpt lat="39.700593470824856" lon="9.05193100599799"><ele>265.0</ele><time>2026-04-30T16:31:39.998Z</time></trkpt><trkpt lat="39.70048864647293" lon="9.05196217152943"><ele>265.0</ele><time>2026-04-30T16:31:40.998Z</time></trkpt><trkpt lat="39.700381728302034" lon="9.052030911457901"><ele>265.0</ele><time>2026-04-30T16:31:41.998Z</time></trkpt><trkpt lat="39.70027644268867" lon="9.052142972981256"><ele>264.3333333333333</ele><time>2026-04-30T16:31:42.998Z</time></trkpt><trkpt lat="39.70015085980423" lon="9.05225538790378"><ele>263.6666666666667</ele><time>2026-04-30T16:31:43.998Z</time></trkpt><trkpt lat="39.70001875465454" lon="9.052370822653748"><ele>263.0</ele><time>2026-04-30T16:31:44.998Z</time></trkpt><trkpt lat="39.699872329434726" lon="9.05246692144686"><ele>267.6666666666667</ele><time>2026-04-30T16:31:45.998Z</time></trkpt><trkpt lat="39.69973318402193" lon="9.052580914289297"><ele>272.3333333333333</ele><time>2026-04-30T16:31:46.998Z</time></trkpt><trkpt lat="39.69958529437742" lon="9.052694213524251"><ele>277.0</ele><time>2026-04-30T16:31:47.998Z</time></trkpt><trkpt lat="39.69943734259223" lon="9.05280041995579"><ele>274.75</ele><time>2026-04-30T16:31:48.998Z</time></trkpt><trkpt lat="39.6992971651501" lon="9.052899697709677"><ele>272.5</ele><time>2026-04-30T16:31:49.998Z</time></trkpt><trkpt lat="39.6991718399768" lon="9.052990112758588"><ele>270.25</ele><time>2026-04-30T16:31:50.998Z</time></trkpt><trkpt lat="39.699050992836014" lon="9.053052374477184"><ele>268.0</ele><time>2026-04-30T16:31:51.998Z</time></trkpt><trkpt lat="39.698927022093535" lon="9.053088952021453"><ele>268.0</ele><time>2026-04-30T16:31:52.998Z</time></trkpt><trkpt lat="39.698810332806296" lon="9.053080673666617"><ele>268.0</ele><time>2026-04-30T16:31:53.998Z</time></trkpt><trkpt lat="39.698726289256214" lon="9.052992434165617"><ele>268.0</ele><time>2026-04-30T16:31:54.998Z</time></trkpt><trkpt lat="39.698640612727715" lon="9.052905100493236"><ele>268.0</ele><time>2026-04-30T16:31:55.998Z</time></trkpt><trkpt lat="39.6985888856361" lon="9.052786288854065"><ele>268.0</ele><time>2026-04-30T16:31:56.998Z</time></trkpt><trkpt lat="39.69856264963131" lon="9.052645665007667"><ele>268.0</ele><time>2026-04-30T16:31:57.998Z</time></trkpt><trkpt lat="39.698588640640764" lon="9.052487126380791"><ele>268.0</ele><time>2026-04-30T16:31:58.998Z</time></trkpt><trkpt lat="39.69864558986238" lon="9.052342358146838"><ele>268.0</ele><time>2026-04-30T16:31:59.998Z</time></trkpt><trkpt lat="39.69873588786413" lon="9.052207435921542"><ele>268.0</ele><time>2026-04-30T16:32:01Z</time></trkpt><trkpt lat="39.69883169454216" lon="9.05205249077692"><ele>267.66666666666663</ele><time>2026-04-30T16:32:02Z</time></trkpt><trkpt lat="39.698941170000786" lon="9.05188991669721"><ele>267.3333333333333</ele><time>2026-04-30T16:32:03Z</time></trkpt><trkpt lat="39.699056166391514" lon="9.051715200780325"><ele>267.0</ele><time>2026-04-30T16:32:03.999Z</time></trkpt><trkpt lat="39.69916756120194" lon="9.05154198538095"><ele>267.0</ele><time>2026-04-30T16:32:05Z</time></trkpt><trkpt lat="39.69928312119085" lon="9.051362293331307"><ele>267.0</ele><time>2026-04-30T16:32:06Z</time></trkpt><trkpt lat="39.69939943006573" lon="9.051175171861006"><ele>267.0</ele><time>2026-04-30T16:32:06.999Z</time></trkpt><trkpt lat="39.69951083070498" lon="9.050978742065697"><ele>260.6666666666667</ele><time>2026-04-30T16:32:07.999Z</time></trkpt><trkpt lat="39.6996026530086" lon="9.050769510962777"><ele>254.33333333333334</ele><time>2026-04-30T16:32:08.999Z</time></trkpt><trkpt lat="39.699699630414344" lon="9.050583862707288"><ele>248.0</ele><time>2026-04-30T16:32:09.999Z</time></trkpt><trkpt lat="39.69978232221502" lon="9.050405575767059"><ele>248.0</ele><time>2026-04-30T16:32:10.999Z</time></trkpt><trkpt lat="39.69984762411801" lon="9.050220242239382"><ele>248.0</ele><time>2026-04-30T16:32:11.999Z</time></trkpt><trkpt lat="39.6998933420667" lon="9.050029433256599"><ele>248.0</ele><time>2026-04-30T16:32:12.999Z</time></trkpt><trkpt lat="39.699904078519275" lon="9.049834884197589"><ele>247.0</ele><time>2026-04-30T16:32:14Z</time></trkpt><trkpt lat="39.6998930137311" lon="9.04962431395517"><ele>246.0</ele><time>2026-04-30T16:32:15Z</time></trkpt><trkpt lat="39.699854486572285" lon="9.04940652677854"><ele>245.0</ele><time>2026-04-30T16:32:16Z</time></trkpt><trkpt lat="39.69978373858338" lon="9.049193044968826"><ele>241.66666666666669</ele><time>2026-04-30T16:32:17Z</time></trkpt><trkpt lat="39.69967694959956" lon="9.049003879801969"><ele>238.33333333333331</ele><time>2026-04-30T16:32:18Z</time></trkpt><trkpt lat="39.699562660501265" lon="9.048846473663941"><ele>235.0</ele><time>2026-04-30T16:32:19Z</time></trkpt><trkpt lat="39.69941953651759" lon="9.048727424941301"><ele>237.33333333333331</ele><time>2026-04-30T16:32:20Z</time></trkpt><trkpt lat="39.69925859074035" lon="9.048614167600762"><ele>239.66666666666669</ele><time>2026-04-30T16:32:21Z</time></trkpt><trkpt lat="39.699102602725105" lon="9.048483855412053"><ele>242.0</ele><time>2026-04-30T16:32:22Z</time></trkpt><trkpt lat="39.698954619243764" lon="9.048343003970084"><ele>238.66666666666669</ele><time>2026-04-30T16:32:23Z</time></trkpt><trkpt lat="39.69883614849111" lon="9.048193045086112"><ele>235.33333333333331</ele><time>2026-04-30T16:32:24Z</time></trkpt><trkpt lat="39.69876622041546" lon="9.048006173447739"><ele>232.0</ele><time>2026-04-30T16:32:25Z</time></trkpt><trkpt lat="39.69871437509446" lon="9.047815587154272"><ele>232.0</ele><time>2026-04-30T16:32:26Z</time></trkpt><trkpt lat="39.6986822222547" lon="9.047587965841181"><ele>232.0</ele><time>2026-04-30T16:32:27Z</time></trkpt><trkpt lat="39.69864946285583" lon="9.047350893885463"><ele>232.0</ele><time>2026-04-30T16:32:28Z</time></trkpt><trkpt lat="39.69859121396437" lon="9.047113481261167"><ele>235.33333333333331</ele><time>2026-04-30T16:32:29Z</time></trkpt><trkpt lat="39.69849432632909" lon="9.046898159903721"><ele>238.66666666666669</ele><time>2026-04-30T16:32:30Z</time></trkpt><trkpt lat="39.69841994678947" lon="9.046686690279747"><ele>242.0</ele><time>2026-04-30T16:32:31Z</time></trkpt><trkpt lat="39.69838550685912" lon="9.046493749301366"><ele>242.0</ele><time>2026-04-30T16:32:32Z</time></trkpt><trkpt lat="39.698393838927245" lon="9.04632062244681"><ele>242.0</ele><time>2026-04-30T16:32:33Z</time></trkpt><trkpt lat="39.6984371413952" lon="9.04616232135098"><ele>242.0</ele><time>2026-04-30T16:32:34Z</time></trkpt><trkpt lat="39.69850118828016" lon="9.045989492251051"><ele>242.0</ele><time>2026-04-30T16:32:35Z</time></trkpt><trkpt lat="39.698565594104146" lon="9.045789019987097"><ele>240.33333333333334</ele><time>2026-04-30T16:32:36Z</time></trkpt><trkpt lat="39.69859018394206" lon="9.0455826931158"><ele>238.66666666666669</ele><time>2026-04-30T16:32:37Z</time></trkpt><trkpt lat="39.698595158723776" lon="9.045382771680778"><ele>237.0</ele><time>2026-04-30T16:32:38Z</time></trkpt><trkpt lat="39.69857469189153" lon="9.045162714180966"><ele>234.0</ele><time>2026-04-30T16:32:39Z</time></trkpt><trkpt lat="39.69851794782248" lon="9.044915277537957"><ele>231.0</ele><time>2026-04-30T16:32:39.999Z</time></trkpt><trkpt lat="39.69844791848314" lon="9.044643515257064"><ele>228.0</ele><time>2026-04-30T16:32:40.999Z</time></trkpt><trkpt lat="39.698416400072105" lon="9.044347826874542"><ele>224.5</ele><time>2026-04-30T16:32:41.999Z</time></trkpt><trkpt lat="39.69838355609266" lon="9.044031606522502"><ele>221.0</ele><time>2026-04-30T16:32:42.999Z</time></trkpt><trkpt lat="39.69835230774945" lon="9.04370704723233"><ele>221.0</ele><time>2026-04-30T16:32:43.999Z</time></trkpt><trkpt lat="39.69832170600979" lon="9.04338718965881"><ele>221.0</ele><time>2026-04-30T16:32:44.999Z</time></trkpt><trkpt lat="39.69827530744945" lon="9.043054856167995"><ele>221.5</ele><time>2026-04-30T16:32:45.999Z</time></trkpt><trkpt lat="39.698244333794605" lon="9.042711568222716"><ele>222.0</ele><time>2026-04-30T16:32:46.999Z</time></trkpt><trkpt lat="39.69821204727544" lon="9.042366520248285"><ele>223.5</ele><time>2026-04-30T16:32:47.999Z</time></trkpt><trkpt lat="39.698190051248446" lon="9.042009976172247"><ele>225.0</ele><time>2026-04-30T16:32:48.999Z</time></trkpt><trkpt lat="39.69815401400119" lon="9.041649439516288"><ele>227.0</ele><time>2026-04-30T16:32:49.999Z</time></trkpt><trkpt lat="39.698122922554845" lon="9.04132017741607"><ele>229.0</ele><time>2026-04-30T16:32:50.999Z</time></trkpt><trkpt lat="39.6980958061233" lon="9.04100968646799"><ele>229.66666666666666</ele><time>2026-04-30T16:32:51.999Z</time></trkpt><trkpt lat="39.69808106173023" lon="9.040723393230447"><ele>230.33333333333331</ele><time>2026-04-30T16:32:52.999Z</time></trkpt><trkpt lat="39.69810733168676" lon="9.040475891467073"><ele>231.0</ele><time>2026-04-30T16:32:53.999Z</time></trkpt><trkpt lat="39.69816853080931" lon="9.04025416763738"><ele>231.0</ele><time>2026-04-30T16:32:54.999Z</time></trkpt><trkpt lat="39.698253452624996" lon="9.040040660863156"><ele>231.0</ele><time>2026-04-30T16:32:55.999Z</time></trkpt><trkpt lat="39.69837359758777" lon="9.039833859081051"><ele>231.0</ele><time>2026-04-30T16:32:56.999Z</time></trkpt><trkpt lat="39.69851120489244" lon="9.039603280795834"><ele>232.5</ele><time>2026-04-30T16:32:57.999Z</time></trkpt><trkpt lat="39.698652825502364" lon="9.039365977842012"><ele>234.0</ele><time>2026-04-30T16:32:58.999Z</time></trkpt><trkpt lat="39.69879707174477" lon="9.039124467848836"><ele>234.0</ele><time>2026-04-30T16:32:59.999Z</time></trkpt><trkpt lat="39.69894036034122" lon="9.038885534607775"><ele>234.0</ele><time>2026-04-30T16:33:00.999Z</time></trkpt><trkpt lat="39.699082541919964" lon="9.038648447145007"><ele>234.0</ele><time>2026-04-30T16:33:01.999Z</time></trkpt><trkpt lat="39.699220861334716" lon="9.038412257418978"><ele>234.0</ele><time>2026-04-30T16:33:02.999Z</time></trkpt><trkpt lat="39.69935853706834" lon="9.038178820129035"><ele>233.66666666666669</ele><time>2026-04-30T16:33:03.999Z</time></trkpt><trkpt lat="39.699498200526634" lon="9.037944383262236"><ele>233.33333333333334</ele><time>2026-04-30T16:33:04.999Z</time></trkpt><trkpt lat="39.699628897907004" lon="9.037718323269281"><ele>233.0</ele><time>2026-04-30T16:33:05.999Z</time></trkpt><trkpt lat="39.69972484749145" lon="9.03747337291464"><ele>231.0</ele><time>2026-04-30T16:33:06.999Z</time></trkpt><trkpt lat="39.699813231765106" lon="9.037240091758463"><ele>229.0</ele><time>2026-04-30T16:33:07.999Z</time></trkpt><trkpt lat="39.699873353413665" lon="9.036986161347231"><ele>227.0</ele><time>2026-04-30T16:33:08.999Z</time></trkpt><trkpt lat="39.69990979335467" lon="9.036706552244157"><ele>223.5</ele><time>2026-04-30T16:33:09.999Z</time></trkpt><trkpt lat="39.69994000925401" lon="9.036415381762444"><ele>220.0</ele><time>2026-04-30T16:33:10.999Z</time></trkpt><trkpt lat="39.69996225349129" lon="9.03611963658223"><ele>220.0</ele><time>2026-04-30T16:33:11.999Z</time></trkpt><trkpt lat="39.6999907806152" lon="9.035806363821587"><ele>220.0</ele><time>2026-04-30T16:33:12.999Z</time></trkpt><trkpt lat="39.70002513619251" lon="9.035503983582794"><ele>218.0</ele><time>2026-04-30T16:33:13.999Z</time></trkpt><trkpt lat="39.700054722691284" lon="9.035237759313278"><ele>216.0</ele><time>2026-04-30T16:33:14.999Z</time></trkpt><trkpt lat="39.70007149120682" lon="9.035024774158131"><ele>214.0</ele><time>2026-04-30T16:33:15.999Z</time></trkpt><trkpt lat="39.70007317500981" lon="9.034860910236285"><ele>211.25</ele><time>2026-04-30T16:33:16.999Z</time></trkpt><trkpt lat="39.70004823666198" lon="9.034703253619245"><ele>208.5</ele><time>2026-04-30T16:33:17.999Z</time></trkpt><trkpt lat="39.69998394757758" lon="9.034553692266933"><ele>205.75</ele><time>2026-04-30T16:33:18.999Z</time></trkpt><trkpt lat="39.699879226300034" lon="9.034426151784391"><ele>203.0</ele><time>2026-04-30T16:33:19.999Z</time></trkpt><trkpt lat="39.699754533079606" lon="9.03432858187672"><ele>203.0</ele><time>2026-04-30T16:33:20.999Z</time></trkpt><trkpt lat="39.699609202000175" lon="9.034304091078473"><ele>203.0</ele><time>2026-04-30T16:33:21.999Z</time></trkpt><trkpt lat="39.69946073430885" lon="9.034319266882541"><ele>203.0</ele><time>2026-04-30T16:33:22.999Z</time></trkpt><trkpt lat="39.69929901000769" lon="9.03438636588078"><ele>204.25</ele><time>2026-04-30T16:33:23.999Z</time></trkpt><trkpt lat="39.69914439603272" lon="9.03446041552561"><ele>205.5</ele><time>2026-04-30T16:33:24.999Z</time></trkpt><trkpt lat="39.699019597879165" lon="9.034508397820842"><ele>206.75</ele><time>2026-04-30T16:33:25.999Z</time></trkpt><trkpt lat="39.69891053150352" lon="9.0345094228198"><ele>208.0</ele><time>2026-04-30T16:33:26.999Z</time></trkpt><trkpt lat="39.69881691991619" lon="9.034452965722423"><ele>208.0</ele><time>2026-04-30T16:33:27.999Z</time></trkpt><trkpt lat="39.69874925403404" lon="9.034342259186829"><ele>208.0</ele><time>2026-04-30T16:33:28.999Z</time></trkpt><trkpt lat="39.69871032876246" lon="9.034206176056578"><ele>208.0</ele><time>2026-04-30T16:33:29.999Z</time></trkpt><trkpt lat="39.698749716160485" lon="9.03403027000847"><ele>208.0</ele><time>2026-04-30T16:33:30.999Z</time></trkpt><trkpt lat="39.69880245694589" lon="9.033872861315782"><ele>207.25</ele><time>2026-04-30T16:33:31.999Z</time></trkpt><trkpt lat="39.6989135816207" lon="9.033804810664424"><ele>206.5</ele><time>2026-04-30T16:33:32.999Z</time></trkpt><trkpt lat="39.6990251583442" lon="9.033714061283602"><ele>205.75</ele><time>2026-04-30T16:33:33.999Z</time></trkpt><trkpt lat="39.69914495923721" lon="9.033609276789075"><ele>205.0</ele><time>2026-04-30T16:33:34.999Z</time></trkpt><trkpt lat="39.69926477304386" lon="9.033482215217495"><ele>205.0</ele><time>2026-04-30T16:33:35.999Z</time></trkpt><trkpt lat="39.699347259003595" lon="9.033314534963186"><ele>205.0</ele><time>2026-04-30T16:33:36.999Z</time></trkpt><trkpt lat="39.699421833508204" lon="9.033145710260202"><ele>205.0</ele><time>2026-04-30T16:33:37.999Z</time></trkpt><trkpt lat="39.69946385071534" lon="9.032954955771991"><ele>200.66666666666666</ele><time>2026-04-30T16:33:38.999Z</time></trkpt><trkpt lat="39.699480195154216" lon="9.03275686532957"><ele>196.33333333333331</ele><time>2026-04-30T16:33:39.999Z</time></trkpt><trkpt lat="39.69947127684817" lon="9.032561824176852"><ele>192.0</ele><time>2026-04-30T16:33:40.999Z</time></trkpt><trkpt lat="39.69943623206641" lon="9.032368964627715"><ele>191.33333333333334</ele><time>2026-04-30T16:33:41.999Z</time></trkpt><trkpt lat="39.69937195592314" lon="9.032179640426147"><ele>190.66666666666669</ele><time>2026-04-30T16:33:42.999Z</time></trkpt><trkpt lat="39.69931702635233" lon="9.03197334953927"><ele>190.0</ele><time>2026-04-30T16:33:43.999Z</time></trkpt><trkpt lat="39.699259421068795" lon="9.03177247700089"><ele>187.33333333333334</ele><time>2026-04-30T16:33:44.999Z</time></trkpt><trkpt lat="39.69915162858436" lon="9.031594813884379"><ele>184.66666666666666</ele><time>2026-04-30T16:33:45.999Z</time></trkpt><trkpt lat="39.699069707918554" lon="9.031411844571984"><ele>182.0</ele><time>2026-04-30T16:33:46.999Z</time></trkpt><trkpt lat="39.69895327944125" lon="9.031254509556359"><ele>182.0</ele><time>2026-04-30T16:33:47.999Z</time></trkpt><trkpt lat="39.69882855057125" lon="9.031138099714227"><ele>182.0</ele><time>2026-04-30T16:33:48.999Z</time></trkpt><trkpt lat="39.69868710583044" lon="9.031044691455554"><ele>182.0</ele><time>2026-04-30T16:33:49.999Z</time></trkpt><trkpt lat="39.69854636201954" lon="9.030961755087041"><ele>181.0</ele><time>2026-04-30T16:33:50.999Z</time></trkpt><trkpt lat="39.69841075633852" lon="9.03087650401483"><ele>180.0</ele><time>2026-04-30T16:33:51.999Z</time></trkpt><trkpt lat="39.69828676844973" lon="9.030769659917427"><ele>179.0</ele><time>2026-04-30T16:33:52.999Z</time></trkpt><trkpt lat="39.69817855777565" lon="9.030642918530694"><ele>178.0</ele><time>2026-04-30T16:33:53.999Z</time></trkpt><trkpt lat="39.69808530376416" lon="9.030499536304253"><ele>178.0</ele><time>2026-04-30T16:33:54.999Z</time></trkpt><trkpt lat="39.69800514120687" lon="9.030343991237192"><ele>178.0</ele><time>2026-04-30T16:33:55.999Z</time></trkpt><trkpt lat="39.69793693698226" lon="9.030183138582286"><ele>178.0</ele><time>2026-04-30T16:33:56.999Z</time></trkpt><trkpt lat="39.69787215295031" lon="9.030023962663536"><ele>178.0</ele><time>2026-04-30T16:33:57.998Z</time></trkpt><trkpt lat="39.697803497281114" lon="9.029873800345491"><ele>178.25</ele><time>2026-04-30T16:33:58.998Z</time></trkpt><trkpt lat="39.697739834608896" lon="9.029732835184754"><ele>178.5</ele><time>2026-04-30T16:33:59.998Z</time></trkpt><trkpt lat="39.69767593856374" lon="9.029599930572873"><ele>178.75</ele><time>2026-04-30T16:34:00.998Z</time></trkpt><trkpt lat="39.69762195904343" lon="9.02947029262764"><ele>179.0</ele><time>2026-04-30T16:34:01.998Z</time></trkpt><trkpt lat="39.69758181467034" lon="9.029335954664578"><ele>179.0</ele><time>2026-04-30T16:34:02.999Z</time></trkpt><trkpt lat="39.69755195340841" lon="9.029202680826113"><ele>179.0</ele><time>2026-04-30T16:34:03.999Z</time></trkpt><trkpt lat="39.69754986981067" lon="9.029056829369939"><ele>179.0</ele><time>2026-04-30T16:34:04.999Z</time></trkpt><trkpt lat="39.69755770910206" lon="9.028898824438038"><ele>179.0</ele><time>2026-04-30T16:34:06Z</time></trkpt><trkpt lat="39.69759273173491" lon="9.028734795137368"><ele>178.25</ele><time>2026-04-30T16:34:07Z</time></trkpt><trkpt lat="39.697643999332755" lon="9.02857938853586"><ele>177.5</ele><time>2026-04-30T16:34:08Z</time></trkpt><trkpt lat="39.697696979821615" lon="9.028438178219597"><ele>176.75</ele><time>2026-04-30T16:34:09.001Z</time></trkpt><trkpt lat="39.697751120982716" lon="9.028306535267468"><ele>176.0</ele><time>2026-04-30T16:34:10Z</time></trkpt><trkpt lat="39.697804297510615" lon="9.02818446547145"><ele>176.0</ele><time>2026-04-30T16:34:11Z</time></trkpt><trkpt lat="39.697842776984366" lon="9.028064311886757"><ele>176.0</ele><time>2026-04-30T16:34:12Z</time></trkpt><trkpt lat="39.69785344788853" lon="9.0279430748053"><ele>176.0</ele><time>2026-04-30T16:34:13.001Z</time></trkpt><trkpt lat="39.69784935919966" lon="9.027806548251128"><ele>176.0</ele><time>2026-04-30T16:34:14.001Z</time></trkpt><trkpt lat="39.69781264355234" lon="9.027668527110313"><ele>176.0</ele><time>2026-04-30T16:34:15.001Z</time></trkpt><trkpt lat="39.69775239018263" lon="9.02753832762742"><ele>176.0</ele><time>2026-04-30T16:34:16Z</time></trkpt><trkpt lat="39.69766727251911" lon="9.027413670327675"><ele>176.0</ele><time>2026-04-30T16:34:17Z</time></trkpt><trkpt lat="39.69756797128113" lon="9.027292911336351"><ele>176.0</ele><time>2026-04-30T16:34:18Z</time></trkpt><trkpt lat="39.69746187469707" lon="9.027165315193916"><ele>176.0</ele><time>2026-04-30T16:34:19Z</time></trkpt><trkpt lat="39.697350477331184" lon="9.027021806528873"><ele>176.0</ele><time>2026-04-30T16:34:20Z</time></trkpt><trkpt lat="39.697233000004665" lon="9.026869546073861"><ele>176.0</ele><time>2026-04-30T16:34:21Z</time></trkpt><trkpt lat="39.697111000703366" lon="9.026708051373298"><ele>176.0</ele><time>2026-04-30T16:34:22Z</time></trkpt><trkpt lat="39.69698679884749" lon="9.026539971374735"><ele>177.0</ele><time>2026-04-30T16:34:23Z</time></trkpt><trkpt lat="39.69686098457669" lon="9.026371094287283"><ele>178.0</ele><time>2026-04-30T16:34:24Z</time></trkpt><trkpt lat="39.696742959584064" lon="9.026205834625936"><ele>179.0</ele><time>2026-04-30T16:34:25Z</time></trkpt><trkpt lat="39.69663317681109" lon="9.02602571256883"><ele>179.0</ele><time>2026-04-30T16:34:26Z</time></trkpt><trkpt lat="39.69653810407303" lon="9.025837322832004"><ele>179.0</ele><time>2026-04-30T16:34:27Z</time></trkpt><trkpt lat="39.69645437520364" lon="9.025637444917722"><ele>179.0</ele><time>2026-04-30T16:34:28Z</time></trkpt><trkpt lat="39.696388738016246" lon="9.025421870336498"><ele>182.0</ele><time>2026-04-30T16:34:29Z</time></trkpt><trkpt lat="39.69635725053937" lon="9.025199966636956"><ele>185.0</ele><time>2026-04-30T16:34:30Z</time></trkpt><trkpt lat="39.696315142169006" lon="9.024974668743344"><ele>188.0</ele><time>2026-04-30T16:34:31Z</time></trkpt><trkpt lat="39.696293015883505" lon="9.02474346619165"><ele>188.66666666666666</ele><time>2026-04-30T16:34:32Z</time></trkpt><trkpt lat="39.69628726703367" lon="9.024507714778547"><ele>189.33333333333334</ele><time>2026-04-30T16:34:33Z</time></trkpt><trkpt lat="39.69630416563518" lon="9.02427040925473"><ele>190.0</ele><time>2026-04-30T16:34:34Z</time></trkpt><trkpt lat="39.69631831623728" lon="9.024028151923325"><ele>190.0</ele><time>2026-04-30T16:34:35Z</time></trkpt><trkpt lat="39.69638302342025" lon="9.023804102438785"><ele>190.0</ele><time>2026-04-30T16:34:36Z</time></trkpt><trkpt lat="39.696447586347944" lon="9.023581529797225"><ele>190.0</ele><time>2026-04-30T16:34:37Z</time></trkpt><trkpt lat="39.69653275334089" lon="9.023368163509653"><ele>190.33333333333334</ele><time>2026-04-30T16:34:38Z</time></trkpt><trkpt lat="39.69661490330508" lon="9.023160288484789"><ele>190.66666666666666</ele><time>2026-04-30T16:34:39Z</time></trkpt><trkpt lat="39.69672496579208" lon="9.022977577566134"><ele>191.0</ele><time>2026-04-30T16:34:40Z</time></trkpt><trkpt lat="39.69685022173218" lon="9.022803534851306"><ele>191.33333333333331</ele><time>2026-04-30T16:34:41Z</time></trkpt><trkpt lat="39.69698127897998" lon="9.02263735582564"><ele>191.66666666666666</ele><time>2026-04-30T16:34:42Z</time></trkpt><trkpt lat="39.69712851607051" lon="9.022479457660088"><ele>192.0</ele><time>2026-04-30T16:34:42.999Z</time></trkpt><trkpt lat="39.69728161488802" lon="9.022317477761174"><ele>192.33333333333331</ele><time>2026-04-30T16:34:43.999Z</time></trkpt><trkpt lat="39.69743183500714" lon="9.022154966542297"><ele>192.66666666666666</ele><time>2026-04-30T16:34:44.999Z</time></trkpt><trkpt lat="39.69757899207434" lon="9.021992341572059"><ele>193.0</ele><time>2026-04-30T16:34:45.999Z</time></trkpt><trkpt lat="39.697727091673265" lon="9.02182712090696"><ele>193.66666666666666</ele><time>2026-04-30T16:34:46.999Z</time></trkpt><trkpt lat="39.69787331854058" lon="9.021658958582352"><ele>194.33333333333331</ele><time>2026-04-30T16:34:47.999Z</time></trkpt><trkpt lat="39.698017246220004" lon="9.021497363888454"><ele>195.0</ele><time>2026-04-30T16:34:48.999Z</time></trkpt><trkpt lat="39.69815918426964" lon="9.02133997505327"><ele>195.0</ele><time>2026-04-30T16:34:49.999Z</time></trkpt><trkpt lat="39.69830444213452" lon="9.021184258690523"><ele>195.0</ele><time>2026-04-30T16:34:50.999Z</time></trkpt><trkpt lat="39.69844464817009" lon="9.021023695320785"><ele>195.0</ele><time>2026-04-30T16:34:51.999Z</time></trkpt><trkpt lat="39.6985800107028" lon="9.020851836492458"><ele>194.66666666666669</ele><time>2026-04-30T16:34:52.999Z</time></trkpt><trkpt lat="39.69870617952651" lon="9.020666745232532"><ele>194.33333333333334</ele><time>2026-04-30T16:34:53.999Z</time></trkpt><trkpt lat="39.69882520692273" lon="9.020467543726378"><ele>194.0</ele><time>2026-04-30T16:34:54.999Z</time></trkpt><trkpt lat="39.69893879107267" lon="9.020246138956232"><ele>194.0</ele><time>2026-04-30T16:34:55.999Z</time></trkpt><trkpt lat="39.69905339400426" lon="9.019996726657265"><ele>194.0</ele><time>2026-04-30T16:34:56.999Z</time></trkpt><trkpt lat="39.699170333648375" lon="9.019713170682405"><ele>194.5</ele><time>2026-04-30T16:34:57.999Z</time></trkpt><trkpt lat="39.69929706942897" lon="9.01939708550011"><ele>195.0</ele><time>2026-04-30T16:34:58.999Z</time></trkpt><trkpt lat="39.699436278062784" lon="9.019057186187434"><ele>196.0</ele><time>2026-04-30T16:34:59.999Z</time></trkpt><trkpt lat="39.69957241019559" lon="9.01872544360955"><ele>197.0</ele><time>2026-04-30T16:35:00.999Z</time></trkpt><trkpt lat="39.699706924940834" lon="9.018421830913898"><ele>197.5</ele><time>2026-04-30T16:35:01.999Z</time></trkpt><trkpt lat="39.69983275814194" lon="9.018134398930108"><ele>198.0</ele><time>2026-04-30T16:35:02.999Z</time></trkpt><trkpt lat="39.69994885736877" lon="9.017866474971239"><ele>198.0</ele><time>2026-04-30T16:35:03.999Z</time></trkpt><trkpt lat="39.700059158487406" lon="9.017609228377747"><ele>198.0</ele><time>2026-04-30T16:35:04.999Z</time></trkpt><trkpt lat="39.70016405073832" lon="9.017353180823925"><ele>199.33333333333331</ele><time>2026-04-30T16:35:05.999Z</time></trkpt><trkpt lat="39.70027030650324" lon="9.017104234075191"><ele>200.66666666666666</ele><time>2026-04-30T16:35:06.999Z</time></trkpt><trkpt lat="39.7003739866369" lon="9.01685681129499"><ele>202.0</ele><time>2026-04-30T16:35:07.999Z</time></trkpt><trkpt lat="39.70047572276698" lon="9.016613702457775"><ele>202.0</ele><time>2026-04-30T16:35:08.999Z</time></trkpt><trkpt lat="39.700579242355964" lon="9.01636933256877"><ele>202.0</ele><time>2026-04-30T16:35:09.999Z</time></trkpt><trkpt lat="39.70068263608322" lon="9.01612298759222"><ele>202.0</ele><time>2026-04-30T16:35:10.999Z</time></trkpt><trkpt lat="39.700782092885376" lon="9.015874165416706"><ele>203.66666666666666</ele><time>2026-04-30T16:35:11.999Z</time></trkpt><trkpt lat="39.70087528131649" lon="9.015622618612591"><ele>205.33333333333331</ele><time>2026-04-30T16:35:12.999Z</time></trkpt><trkpt lat="39.700961353025036" lon="9.015353316750335"><ele>207.0</ele><time>2026-04-30T16:35:13.999Z</time></trkpt><trkpt lat="39.70105076027559" lon="9.015058751291658"><ele>208.0</ele><time>2026-04-30T16:35:14.999Z</time></trkpt><trkpt lat="39.70114125800654" lon="9.014764133085215"><ele>209.0</ele><time>2026-04-30T16:35:15.999Z</time></trkpt><trkpt lat="39.70125279498068" lon="9.014468049391386"><ele>209.0</ele><time>2026-04-30T16:35:16.999Z</time></trkpt><trkpt lat="39.701357057400486" lon="9.014134032410613"><ele>209.0</ele><time>2026-04-30T16:35:17.999Z</time></trkpt><trkpt lat="39.701456519520214" lon="9.013757933542227"><ele>209.0</ele><time>2026-04-30T16:35:18.999Z</time></trkpt><trkpt lat="39.701581235384324" lon="9.01340361047089"><ele>209.0</ele><time>2026-04-30T16:35:19.999Z</time></trkpt><trkpt lat="39.70169101198695" lon="9.01308556688266"><ele>209.0</ele><time>2026-04-30T16:35:20.999Z</time></trkpt><trkpt lat="39.70179039694948" lon="9.012764897247727"><ele>209.0</ele><time>2026-04-30T16:35:21.999Z</time></trkpt><trkpt lat="39.70187884920174" lon="9.012449717921184"><ele>207.5</ele><time>2026-04-30T16:35:22.999Z</time></trkpt><trkpt lat="39.701964384907505" lon="9.01212235936745"><ele>206.0</ele><time>2026-04-30T16:35:23.999Z</time></trkpt><trkpt lat="39.7020324955604" lon="9.011785088898225"><ele>205.5</ele><time>2026-04-30T16:35:24.999Z</time></trkpt><trkpt lat="39.7020905461778" lon="9.011449297348978"><ele>205.0</ele><time>2026-04-30T16:35:25.999Z</time></trkpt><trkpt lat="39.70213897959256" lon="9.011127954007504"><ele>205.0</ele><time>2026-04-30T16:35:26.999Z</time></trkpt><trkpt lat="39.70218245913772" lon="9.010830021515087"><ele>205.0</ele><time>2026-04-30T16:35:27.999Z</time></trkpt><trkpt lat="39.7022197465696" lon="9.010555307924113"><ele>205.0</ele><time>2026-04-30T16:35:28.999Z</time></trkpt><trkpt lat="39.702254211601165" lon="9.010292842863155"><ele>205.0</ele><time>2026-04-30T16:35:29.999Z</time></trkpt><trkpt lat="39.7022887264355" lon="9.010044261609526"><ele>205.0</ele><time>2026-04-30T16:35:30.999Z</time></trkpt><trkpt lat="39.70232146613838" lon="9.00981083265543"><ele>205.0</ele><time>2026-04-30T16:35:31.999Z</time></trkpt><trkpt lat="39.702353838051785" lon="9.00959432956933"><ele>205.0</ele><time>2026-04-30T16:35:32.999Z</time></trkpt><trkpt lat="39.702383916330085" lon="9.009384244131626"><ele>205.0</ele><time>2026-04-30T16:35:33.999Z</time></trkpt><trkpt lat="39.702414991757365" lon="9.009174533412608"><ele>205.0</ele><time>2026-04-30T16:35:34.999Z</time></trkpt><trkpt lat="39.70244522314234" lon="9.008961866793605"><ele>204.33333333333331</ele><time>2026-04-30T16:35:35.999Z</time></trkpt><trkpt lat="39.7024761793741" lon="9.00875395100805"><ele>203.66666666666669</ele><time>2026-04-30T16:35:36.999Z</time></trkpt><trkpt lat="39.70250736740717" lon="9.008545066889807"><ele>203.0</ele><time>2026-04-30T16:35:37.999Z</time></trkpt><trkpt lat="39.702539694268815" lon="9.008343849233363"><ele>203.0</ele><time>2026-04-30T16:35:38.999Z</time></trkpt><trkpt lat="39.702563696260235" lon="9.008155644668502"><ele>203.0</ele><time>2026-04-30T16:35:39.999Z</time></trkpt><trkpt lat="39.7025897289995" lon="9.007977103677451"><ele>203.0</ele><time>2026-04-30T16:35:40.999Z</time></trkpt><trkpt lat="39.70261701464244" lon="9.007808173981417"><ele>203.0</ele><time>2026-04-30T16:35:41.999Z</time></trkpt><trkpt lat="39.70264588662748" lon="9.00764495986341"><ele>202.5</ele><time>2026-04-30T16:35:42.999Z</time></trkpt><trkpt lat="39.70266617899315" lon="9.007471719857612"><ele>202.0</ele><time>2026-04-30T16:35:43.999Z</time></trkpt><trkpt lat="39.702690390445234" lon="9.007304107326352"><ele>201.5</ele><time>2026-04-30T16:35:44.999Z</time></trkpt><trkpt lat="39.70271313757619" lon="9.007146000843083"><ele>201.0</ele><time>2026-04-30T16:35:45.999Z</time></trkpt><trkpt lat="39.70273375771339" lon="9.006999237766184"><ele>201.0</ele><time>2026-04-30T16:35:46.999Z</time></trkpt><trkpt lat="39.702751551928664" lon="9.006857167449137"><ele>201.0</ele><time>2026-04-30T16:35:47.999Z</time></trkpt><trkpt lat="39.702769217339316" lon="9.00671837634559"><ele>201.0</ele><time>2026-04-30T16:35:48.999Z</time></trkpt><trkpt lat="39.70279085772066" lon="9.00657999026019"><ele>201.0</ele><time>2026-04-30T16:35:49.999Z</time></trkpt><trkpt lat="39.702812869684045" lon="9.006441539780626"><ele>201.0</ele><time>2026-04-30T16:35:50.999Z</time></trkpt><trkpt lat="39.7028317628108" lon="9.00630466937637"><ele>201.0</ele><time>2026-04-30T16:35:51.999Z</time></trkpt><trkpt lat="39.702854883572094" lon="9.006168811229717"><ele>201.0</ele><time>2026-04-30T16:35:52.999Z</time></trkpt><trkpt lat="39.702875733116485" lon="9.006035896745578"><ele>201.0</ele><time>2026-04-30T16:35:53.999Z</time></trkpt><trkpt lat="39.70289475768639" lon="9.00590581925268"><ele>201.0</ele><time>2026-04-30T16:35:54.999Z</time></trkpt><trkpt lat="39.702912633235826" lon="9.005767362573572"><ele>201.0</ele><time>2026-04-30T16:35:55.999Z</time></trkpt><trkpt lat="39.7029335907613" lon="9.005626082773915"><ele>201.0</ele><time>2026-04-30T16:35:56.999Z</time></trkpt><trkpt lat="39.70295831970307" lon="9.00548243992662"><ele>201.0</ele><time>2026-04-30T16:35:57.999Z</time></trkpt><trkpt lat="39.702985772461524" lon="9.005330445538794"><ele>201.0</ele><time>2026-04-30T16:35:58.998Z</time></trkpt><trkpt lat="39.703009080872505" lon="9.00517807948447"><ele>201.0</ele><time>2026-04-30T16:35:59.998Z</time></trkpt><trkpt lat="39.70302594871216" lon="9.005037357827646"><ele>201.0</ele><time>2026-04-30T16:36:00.998Z</time></trkpt><trkpt lat="39.703043321600305" lon="9.004904304428704"><ele>201.0</ele><time>2026-04-30T16:36:01.998Z</time></trkpt><trkpt lat="39.70306236940263" lon="9.004772825583084"><ele>201.0</ele><time>2026-04-30T16:36:02.998Z</time></trkpt><trkpt lat="39.70307964284651" lon="9.004654667818246"><ele>201.0</ele><time>2026-04-30T16:36:03.998Z</time></trkpt><trkpt lat="39.70309587880311" lon="9.00454335518188"><ele>201.0</ele><time>2026-04-30T16:36:04.998Z</time></trkpt><trkpt lat="39.70311021676687" lon="9.004445046835386"><ele>201.0</ele><time>2026-04-30T16:36:05.998Z</time></trkpt><trkpt lat="39.703126061456985" lon="9.004358545029053"><ele>201.0</ele><time>2026-04-30T16:36:06.998Z</time></trkpt><trkpt lat="39.7031339669481" lon="9.004276361142097"><ele>201.0</ele><time>2026-04-30T16:36:07.998Z</time></trkpt><trkpt lat="39.70314981753984" lon="9.004193684067312"><ele>201.0</ele><time>2026-04-30T16:36:08.998Z</time></trkpt><trkpt lat="39.7031698252882" lon="9.00410361112943"><ele>201.0</ele><time>2026-04-30T16:36:18Z</time></trkpt><trkpt lat="39.70320439909028" lon="9.003932624044444"><ele>201.0</ele><time>2026-04-30T16:36:20Z</time></trkpt><trkpt lat="39.70321803309105" lon="9.003822471038747"><ele>200.83333333333334</ele><time>2026-04-30T16:36:21Z</time></trkpt><trkpt lat="39.70322920462199" lon="9.003699584051146"><ele>200.66666666666669</ele><time>2026-04-30T16:36:22Z</time></trkpt><trkpt lat="39.70324356144242" lon="9.00357838459268"><ele>200.5</ele><time>2026-04-30T16:36:23Z</time></trkpt><trkpt lat="39.70325938433702" lon="9.00346450947813"><ele>200.33333333333334</ele><time>2026-04-30T16:36:24Z</time></trkpt><trkpt lat="39.7032778730862" lon="9.003356516778288"><ele>200.16666666666669</ele><time>2026-04-30T16:36:25Z</time></trkpt><trkpt lat="39.70329202057876" lon="9.003247209056994"><ele>200.0</ele><time>2026-04-30T16:36:26Z</time></trkpt><trkpt lat="39.703307511353366" lon="9.003133513929164"><ele>199.83333333333334</ele><time>2026-04-30T16:36:27Z</time></trkpt><trkpt lat="39.70332466734687" lon="9.003022053669062"><ele>199.66666666666669</ele><time>2026-04-30T16:36:28Z</time></trkpt><trkpt lat="39.703336141503925" lon="9.002910480837299"><ele>199.5</ele><time>2026-04-30T16:36:28.999Z</time></trkpt><trkpt lat="39.70334585815582" lon="9.002806732104897"><ele>199.33333333333331</ele><time>2026-04-30T16:36:29.999Z</time></trkpt><trkpt lat="39.70335945334709" lon="9.002716887419634"><ele>199.16666666666666</ele><time>2026-04-30T16:36:30.999Z</time></trkpt><trkpt lat="39.70340132158528" lon="9.00262200386631"><ele>199.0</ele><time>2026-04-30T16:36:32.999Z</time></trkpt><trkpt lat="39.70347341267555" lon="9.002661745226067"><ele>198.99999999999997</ele><time>2026-04-30T16:36:34.999Z</time></trkpt><trkpt lat="39.703562293589634" lon="9.002636000497487"><ele>199.0</ele><time>2026-04-30T16:36:37.999Z</time></trkpt><trkpt lat="39.703661548965975" lon="9.00266104091122"><ele>199.0</ele><time>2026-04-30T16:36:39.999Z</time></trkpt><trkpt lat="39.70372659474309" lon="9.002652262874232"><ele>199.0</ele><time>2026-04-30T16:36:40.999Z</time></trkpt><trkpt lat="39.703789153054466" lon="9.002676616431849"><ele>198.99999999999997</ele><time>2026-04-30T16:36:41.999Z</time></trkpt><trkpt lat="39.7039007971466" lon="9.002708440006272"><ele>199.0</ele><time>2026-04-30T16:36:43.999Z</time></trkpt><trkpt lat="39.703990432856855" lon="9.00272923784323"><ele>199.39999999999998</ele><time>2026-04-30T16:36:45.999Z</time></trkpt><trkpt lat="39.70406761196654" lon="9.002743935714635"><ele>199.8</ele><time>2026-04-30T16:36:47.999Z</time></trkpt><trkpt lat="39.704140491853956" lon="9.002788030218465"><ele>200.2</ele><time>2026-04-30T16:36:50.999Z</time></trkpt><trkpt lat="39.704202700315186" lon="9.002836461841792"><ele>200.60000000000002</ele><time>2026-04-30T16:36:53.999Z</time></trkpt><trkpt lat="39.70423706270153" lon="9.002918689916394"><ele>201.0</ele><time>2026-04-30T16:36:57.999Z</time></trkpt><trkpt lat="39.70415428736207" lon="9.003135137396955"><ele>201.0</ele><time>2026-04-30T16:37:00.999Z</time></trkpt><trkpt lat="39.704114721788045" lon="9.003221045804004"><ele>201.0</ele><time>2026-04-30T16:37:02.999Z</time></trkpt><trkpt lat="39.70410990542852" lon="9.003337170662945"><ele>201.0</ele><time>2026-04-30T16:37:05.999Z</time></trkpt><trkpt lat="39.70414281556366" lon="9.003436722774259"><ele>201.0</ele><time>2026-04-30T16:37:06.999Z</time></trkpt><trkpt lat="39.70417842202936" lon="9.00351308283123"><ele>201.0</ele><time>2026-04-30T16:37:07.999Z</time></trkpt><trkpt lat="39.70421681173484" lon="9.003598116411437"><ele>201.0</ele><time>2026-04-30T16:37:08.999Z</time></trkpt><trkpt lat="39.70425362194226" lon="9.00368775116286"><ele>201.0</ele><time>2026-04-30T16:37:09.999Z</time></trkpt><trkpt lat="39.70428083214614" lon="9.003761880294238"><ele>201.0</ele><time>2026-04-30T16:37:10.999Z</time></trkpt><trkpt lat="39.704295944069024" lon="9.003842954243373"><ele>201.0</ele><time>2026-04-30T16:37:11.999Z</time></trkpt><trkpt lat="39.704309074984664" lon="9.00392724032577"><ele>201.0</ele><time>2026-04-30T16:37:12.999Z</time></trkpt><trkpt lat="39.704318868608624" lon="9.00405594274542"><ele>201.0</ele><time>2026-04-30T16:37:14.999Z</time></trkpt><trkpt lat="39.704329494544744" lon="9.004138009985164"><ele>201.0</ele><time>2026-04-30T16:37:15.999Z</time></trkpt><trkpt lat="39.70430242214334" lon="9.004292044723428"><ele>201.0</ele><time>2026-04-30T16:37:17.999Z</time></trkpt><trkpt lat="39.7042423669036" lon="9.004362359755376"><ele>201.0</ele><time>2026-04-30T16:37:18.999Z</time></trkpt><trkpt lat="39.70420557584197" lon="9.004430839420893"><ele>201.0</ele><time>2026-04-30T16:37:19.999Z</time></trkpt><trkpt lat="39.704161926422984" lon="9.004498272999786"><ele>201.0</ele><time>2026-04-30T16:37:21.999Z</time></trkpt><trkpt lat="39.704125689183584" lon="9.004572769756171"><ele>201.0</ele><time>2026-04-30T16:37:25.999Z</time></trkpt><trkpt lat="39.70421296926277" lon="9.00471505706092"><ele>201.0</ele><time>2026-04-30T16:46:21.527Z</time></trkpt></trkseg></trk></gpx>